<?xml version="1.0" encoding="UTF-8" standalone="no" ?>
<gpx xmlns="http://www.topografix.com/GPX/1/1" xmlns:xsi="http://www.w3.org/2001/XMLSchema-instance" xsi:schemaLocation="http://www.topografix.com/GPX/1/1 http://www.topografix.com/GPX/1/1/gpx.xsd" version="1.1" creator="VisuGPX - https://www.visugpx.com">
  <metadata>
    <name>Algarve-Porto, Portugal</name>
  </metadata>
  <trk>
    <name><![CDATA[Terratek 3 Days Challenge - Algarve-Porto, Portugal - Bigtra...]]></name>
    <trkseg>
      <trkpt lat="37.04729" lon="-7.96783">
        <ele>23.029</ele>
        <time>2019-10-14T00:32:00Z</time>
      </trkpt>
      <trkpt lat="37.04728" lon="-7.96783">
        <ele>23</ele>
        <time>2019-10-14T00:32:20Z</time>
      </trkpt>
      <trkpt lat="37.04729" lon="-7.96784">
        <ele>23.02</ele>
        <time>2019-10-14T00:32:40Z</time>
      </trkpt>
      <trkpt lat="37.04729" lon="-7.96784">
        <ele>23.008</ele>
        <time>2019-10-14T00:33:00Z</time>
      </trkpt>
      <trkpt lat="37.04729" lon="-7.96783">
        <ele>23.066</ele>
        <time>2019-10-14T00:33:20Z</time>
      </trkpt>
      <trkpt lat="37.04729" lon="-7.96783">
        <ele>23.014</ele>
        <time>2019-10-14T00:33:40Z</time>
      </trkpt>
      <trkpt lat="37.04732" lon="-7.96788">
        <ele>22.866</ele>
        <time>2019-10-14T00:34:00Z</time>
      </trkpt>
      <trkpt lat="37.04738" lon="-7.96799">
        <ele>22.476</ele>
        <time>2019-10-14T00:34:20Z</time>
      </trkpt>
      <trkpt lat="37.04763" lon="-7.96853">
        <ele>21.838</ele>
        <time>2019-10-14T00:34:40Z</time>
      </trkpt>
      <trkpt lat="37.04832" lon="-7.96997">
        <ele>24.159</ele>
        <time>2019-10-14T00:35:00Z</time>
      </trkpt>
      <trkpt lat="37.04856" lon="-7.97052">
        <ele>21.861</ele>
        <time>2019-10-14T00:35:20Z</time>
      </trkpt>
      <trkpt lat="37.04861" lon="-7.97065">
        <ele>22.051</ele>
        <time>2019-10-14T00:35:40Z</time>
      </trkpt>
      <trkpt lat="37.04936" lon="-7.97216">
        <ele>27.572</ele>
        <time>2019-10-14T00:36:00Z</time>
      </trkpt>
      <trkpt lat="37.04991" lon="-7.97317">
        <ele>25.413</ele>
        <time>2019-10-14T00:36:20Z</time>
      </trkpt>
      <trkpt lat="37.05012" lon="-7.97353">
        <ele>25.414</ele>
        <time>2019-10-14T00:36:40Z</time>
      </trkpt>
      <trkpt lat="37.05018" lon="-7.97358">
        <ele>25.608</ele>
        <time>2019-10-14T00:37:00Z</time>
      </trkpt>
      <trkpt lat="37.05023" lon="-7.9736">
        <ele>25.881</ele>
        <time>2019-10-14T00:37:20Z</time>
      </trkpt>
      <trkpt lat="37.05029" lon="-7.97361">
        <ele>26.179</ele>
        <time>2019-10-14T00:37:40Z</time>
      </trkpt>
      <trkpt lat="37.05035" lon="-7.97362">
        <ele>26.591</ele>
        <time>2019-10-14T00:38:00Z</time>
      </trkpt>
      <trkpt lat="37.05043" lon="-7.97362">
        <ele>27.131</ele>
        <time>2019-10-14T00:38:20Z</time>
      </trkpt>
      <trkpt lat="37.05126" lon="-7.97371">
        <ele>28.293</ele>
        <time>2019-10-14T00:38:40Z</time>
      </trkpt>
      <trkpt lat="37.05249" lon="-7.97391">
        <ele>30.184</ele>
        <time>2019-10-14T00:39:00Z</time>
      </trkpt>
      <trkpt lat="37.05407" lon="-7.97419">
        <ele>33.796</ele>
        <time>2019-10-14T00:39:20Z</time>
      </trkpt>
      <trkpt lat="37.05419" lon="-7.9742">
        <ele>34.116</ele>
        <time>2019-10-14T00:39:40Z</time>
      </trkpt>
      <trkpt lat="37.05523" lon="-7.97435">
        <ele>35.331</ele>
        <time>2019-10-14T00:40:00Z</time>
      </trkpt>
      <trkpt lat="37.05643" lon="-7.97452">
        <ele>36.861</ele>
        <time>2019-10-14T00:40:20Z</time>
      </trkpt>
      <trkpt lat="37.05652" lon="-7.97453">
        <ele>37.007</ele>
        <time>2019-10-14T00:40:40Z</time>
      </trkpt>
      <trkpt lat="37.0566" lon="-7.97455">
        <ele>37.208</ele>
        <time>2019-10-14T00:41:00Z</time>
      </trkpt>
      <trkpt lat="37.05666" lon="-7.97458">
        <ele>37.427</ele>
        <time>2019-10-14T00:41:20Z</time>
      </trkpt>
      <trkpt lat="37.05669" lon="-7.9746">
        <ele>37.685</ele>
        <time>2019-10-14T00:41:40Z</time>
      </trkpt>
      <trkpt lat="37.05671" lon="-7.97462">
        <ele>37.897</ele>
        <time>2019-10-14T00:42:00Z</time>
      </trkpt>
      <trkpt lat="37.05671" lon="-7.97462">
        <ele>37.887</ele>
        <time>2019-10-14T00:42:20Z</time>
      </trkpt>
      <trkpt lat="37.0569" lon="-7.97483">
        <ele>38.899</ele>
        <time>2019-10-14T00:42:40Z</time>
      </trkpt>
      <trkpt lat="37.05737" lon="-7.97532">
        <ele>37.55</ele>
        <time>2019-10-14T00:43:00Z</time>
      </trkpt>
      <trkpt lat="37.05825" lon="-7.97619">
        <ele>38.732</ele>
        <time>2019-10-14T00:43:20Z</time>
      </trkpt>
      <trkpt lat="37.05847" lon="-7.9764">
        <ele>38.452</ele>
        <time>2019-10-14T00:43:40Z</time>
      </trkpt>
      <trkpt lat="37.05954" lon="-7.97742">
        <ele>43.157</ele>
        <time>2019-10-14T00:44:00Z</time>
      </trkpt>
      <trkpt lat="37.05986" lon="-7.9778">
        <ele>41.4</ele>
        <time>2019-10-14T00:44:20Z</time>
      </trkpt>
      <trkpt lat="37.05994" lon="-7.97794">
        <ele>40.02</ele>
        <time>2019-10-14T00:44:40Z</time>
      </trkpt>
      <trkpt lat="37.06064" lon="-7.97914">
        <ele>37.708</ele>
        <time>2019-10-14T00:45:00Z</time>
      </trkpt>
      <trkpt lat="37.06077" lon="-7.97935">
        <ele>37.219</ele>
        <time>2019-10-14T00:45:20Z</time>
      </trkpt>
      <trkpt lat="37.06086" lon="-7.97946">
        <ele>37.097</ele>
        <time>2019-10-14T00:45:40Z</time>
      </trkpt>
      <trkpt lat="37.06104" lon="-7.97966">
        <ele>37.059</ele>
        <time>2019-10-14T00:46:00Z</time>
      </trkpt>
      <trkpt lat="37.06113" lon="-7.97977">
        <ele>36.979</ele>
        <time>2019-10-14T00:46:20Z</time>
      </trkpt>
      <trkpt lat="37.06144" lon="-7.9801">
        <ele>35.281</ele>
        <time>2019-10-14T00:46:40Z</time>
      </trkpt>
      <trkpt lat="37.06214" lon="-7.98088">
        <ele>36.792</ele>
        <time>2019-10-14T00:47:00Z</time>
      </trkpt>
      <trkpt lat="37.06252" lon="-7.98131">
        <ele>37.724</ele>
        <time>2019-10-14T00:47:20Z</time>
      </trkpt>
      <trkpt lat="37.06252" lon="-7.98131">
        <ele>37.784</ele>
        <time>2019-10-14T00:47:40Z</time>
      </trkpt>
      <trkpt lat="37.06251" lon="-7.98132">
        <ele>37.791</ele>
        <time>2019-10-14T00:48:00Z</time>
      </trkpt>
      <trkpt lat="37.06267" lon="-7.98151">
        <ele>38.081</ele>
        <time>2019-10-14T00:48:20Z</time>
      </trkpt>
      <trkpt lat="37.06273" lon="-7.98158">
        <ele>38.019</ele>
        <time>2019-10-14T00:48:40Z</time>
      </trkpt>
      <trkpt lat="37.06348" lon="-7.98231">
        <ele>36.908</ele>
        <time>2019-10-14T00:49:00Z</time>
      </trkpt>
      <trkpt lat="37.0644" lon="-7.98312">
        <ele>36.973</ele>
        <time>2019-10-14T00:49:20Z</time>
      </trkpt>
      <trkpt lat="37.06541" lon="-7.98398">
        <ele>40.861</ele>
        <time>2019-10-14T00:49:40Z</time>
      </trkpt>
      <trkpt lat="37.06642" lon="-7.98503">
        <ele>45.193</ele>
        <time>2019-10-14T00:50:00Z</time>
      </trkpt>
      <trkpt lat="37.06754" lon="-7.98661">
        <ele>43.293</ele>
        <time>2019-10-14T00:50:20Z</time>
      </trkpt>
      <trkpt lat="37.06772" lon="-7.98684">
        <ele>43.225</ele>
        <time>2019-10-14T00:50:40Z</time>
      </trkpt>
      <trkpt lat="37.06876" lon="-7.98805">
        <ele>40.996</ele>
        <time>2019-10-14T00:51:00Z</time>
      </trkpt>
      <trkpt lat="37.06922" lon="-7.98853">
        <ele>41.118</ele>
        <time>2019-10-14T00:51:20Z</time>
      </trkpt>
      <trkpt lat="37.06926" lon="-7.9886">
        <ele>41.318</ele>
        <time>2019-10-14T00:51:40Z</time>
      </trkpt>
      <trkpt lat="37.06929" lon="-7.98867">
        <ele>41.515</ele>
        <time>2019-10-14T00:52:00Z</time>
      </trkpt>
      <trkpt lat="37.0693" lon="-7.98876">
        <ele>42.165</ele>
        <time>2019-10-14T00:52:20Z</time>
      </trkpt>
      <trkpt lat="37.0693" lon="-7.98886">
        <ele>42.811</ele>
        <time>2019-10-14T00:52:40Z</time>
      </trkpt>
      <trkpt lat="37.06929" lon="-7.98897">
        <ele>42.908</ele>
        <time>2019-10-14T00:53:00Z</time>
      </trkpt>
      <trkpt lat="37.06928" lon="-7.98907">
        <ele>42.885</ele>
        <time>2019-10-14T00:53:20Z</time>
      </trkpt>
      <trkpt lat="37.06927" lon="-7.98918">
        <ele>42.653</ele>
        <time>2019-10-14T00:53:40Z</time>
      </trkpt>
      <trkpt lat="37.06923" lon="-7.98954">
        <ele>42.245</ele>
        <time>2019-10-14T00:54:00Z</time>
      </trkpt>
      <trkpt lat="37.0692" lon="-7.99003">
        <ele>44.975</ele>
        <time>2019-10-14T00:54:20Z</time>
      </trkpt>
      <trkpt lat="37.06923" lon="-7.99109">
        <ele>45.437</ele>
        <time>2019-10-14T00:54:40Z</time>
      </trkpt>
      <trkpt lat="37.0693" lon="-7.99182">
        <ele>46.798</ele>
        <time>2019-10-14T00:55:00Z</time>
      </trkpt>
      <trkpt lat="37.06932" lon="-7.99187">
        <ele>46.79</ele>
        <time>2019-10-14T00:55:20Z</time>
      </trkpt>
      <trkpt lat="37.06934" lon="-7.99193">
        <ele>46.77</ele>
        <time>2019-10-14T00:55:40Z</time>
      </trkpt>
      <trkpt lat="37.06937" lon="-7.99196">
        <ele>46.661</ele>
        <time>2019-10-14T00:56:00Z</time>
      </trkpt>
      <trkpt lat="37.0694" lon="-7.99199">
        <ele>46.721</ele>
        <time>2019-10-14T00:56:20Z</time>
      </trkpt>
      <trkpt lat="37.06945" lon="-7.99199">
        <ele>46.813</ele>
        <time>2019-10-14T00:56:40Z</time>
      </trkpt>
      <trkpt lat="37.0695" lon="-7.99198">
        <ele>47.308</ele>
        <time>2019-10-14T00:57:00Z</time>
      </trkpt>
      <trkpt lat="37.06957" lon="-7.99194">
        <ele>47.96</ele>
        <time>2019-10-14T00:57:20Z</time>
      </trkpt>
      <trkpt lat="37.06966" lon="-7.9919">
        <ele>48.678</ele>
        <time>2019-10-14T00:57:40Z</time>
      </trkpt>
      <trkpt lat="37.06976" lon="-7.99186">
        <ele>48.96</ele>
        <time>2019-10-14T00:58:00Z</time>
      </trkpt>
      <trkpt lat="37.07088" lon="-7.99141">
        <ele>49.14</ele>
        <time>2019-10-14T00:58:20Z</time>
      </trkpt>
      <trkpt lat="37.07148" lon="-7.9912">
        <ele>48.772</ele>
        <time>2019-10-14T00:58:40Z</time>
      </trkpt>
      <trkpt lat="37.07156" lon="-7.99116">
        <ele>48.453</ele>
        <time>2019-10-14T00:59:00Z</time>
      </trkpt>
      <trkpt lat="37.07165" lon="-7.99114">
        <ele>48.115</ele>
        <time>2019-10-14T00:59:20Z</time>
      </trkpt>
      <trkpt lat="37.07175" lon="-7.99113">
        <ele>48.075</ele>
        <time>2019-10-14T00:59:40Z</time>
      </trkpt>
      <trkpt lat="37.07185" lon="-7.99113">
        <ele>48.044</ele>
        <time>2019-10-14T01:00:00Z</time>
      </trkpt>
      <trkpt lat="37.07232" lon="-7.99113">
        <ele>50.405</ele>
        <time>2019-10-14T01:00:20Z</time>
      </trkpt>
      <trkpt lat="37.07264" lon="-7.99114">
        <ele>51.015</ele>
        <time>2019-10-14T01:00:40Z</time>
      </trkpt>
      <trkpt lat="37.07283" lon="-7.99112">
        <ele>50.408</ele>
        <time>2019-10-14T01:01:00Z</time>
      </trkpt>
      <trkpt lat="37.07338" lon="-7.99118">
        <ele>45.778</ele>
        <time>2019-10-14T01:01:20Z</time>
      </trkpt>
      <trkpt lat="37.07427" lon="-7.99154">
        <ele>47.086</ele>
        <time>2019-10-14T01:01:40Z</time>
      </trkpt>
      <trkpt lat="37.07564" lon="-7.99236">
        <ele>53.218</ele>
        <time>2019-10-14T01:02:00Z</time>
      </trkpt>
      <trkpt lat="37.07574" lon="-7.99247">
        <ele>53.688</ele>
        <time>2019-10-14T01:02:20Z</time>
      </trkpt>
      <trkpt lat="37.07603" lon="-7.99282">
        <ele>55.11</ele>
        <time>2019-10-14T01:02:40Z</time>
      </trkpt>
      <trkpt lat="37.07641" lon="-7.99331">
        <ele>57.631</ele>
        <time>2019-10-14T01:03:00Z</time>
      </trkpt>
      <trkpt lat="37.07673" lon="-7.99378">
        <ele>61.663</ele>
        <time>2019-10-14T01:03:20Z</time>
      </trkpt>
      <trkpt lat="37.07695" lon="-7.99413">
        <ele>59.123</ele>
        <time>2019-10-14T01:03:40Z</time>
      </trkpt>
      <trkpt lat="37.077" lon="-7.99416">
        <ele>58.842</ele>
        <time>2019-10-14T01:04:00Z</time>
      </trkpt>
      <trkpt lat="37.07706" lon="-7.99416">
        <ele>58.622</ele>
        <time>2019-10-14T01:04:20Z</time>
      </trkpt>
      <trkpt lat="37.07714" lon="-7.99413">
        <ele>58.514</ele>
        <time>2019-10-14T01:04:40Z</time>
      </trkpt>
      <trkpt lat="37.07723" lon="-7.99407">
        <ele>58.308</ele>
        <time>2019-10-14T01:05:00Z</time>
      </trkpt>
      <trkpt lat="37.07734" lon="-7.99398">
        <ele>58.178</ele>
        <time>2019-10-14T01:05:20Z</time>
      </trkpt>
      <trkpt lat="37.07826" lon="-7.99326">
        <ele>58.916</ele>
        <time>2019-10-14T01:05:40Z</time>
      </trkpt>
      <trkpt lat="37.07836" lon="-7.99323">
        <ele>59.328</ele>
        <time>2019-10-14T01:06:00Z</time>
      </trkpt>
      <trkpt lat="37.07845" lon="-7.99322">
        <ele>59.088</ele>
        <time>2019-10-14T01:06:20Z</time>
      </trkpt>
      <trkpt lat="37.07855" lon="-7.99324">
        <ele>58.67</ele>
        <time>2019-10-14T01:06:40Z</time>
      </trkpt>
      <trkpt lat="37.07864" lon="-7.99325">
        <ele>58.171</ele>
        <time>2019-10-14T01:07:00Z</time>
      </trkpt>
      <trkpt lat="37.07873" lon="-7.99327">
        <ele>57.453</ele>
        <time>2019-10-14T01:07:20Z</time>
      </trkpt>
      <trkpt lat="37.07881" lon="-7.99327">
        <ele>56.833</ele>
        <time>2019-10-14T01:07:40Z</time>
      </trkpt>
      <trkpt lat="37.0791" lon="-7.99324">
        <ele>54.896</ele>
        <time>2019-10-14T01:08:00Z</time>
      </trkpt>
      <trkpt lat="37.07917" lon="-7.99322">
        <ele>54.431</ele>
        <time>2019-10-14T01:08:20Z</time>
      </trkpt>
      <trkpt lat="37.07918" lon="-7.99323">
        <ele>54.424</ele>
        <time>2019-10-14T01:08:40Z</time>
      </trkpt>
      <trkpt lat="37.0792" lon="-7.99324">
        <ele>54.308</ele>
        <time>2019-10-14T01:09:00Z</time>
      </trkpt>
      <trkpt lat="37.07922" lon="-7.99326">
        <ele>54.263</ele>
        <time>2019-10-14T01:09:20Z</time>
      </trkpt>
      <trkpt lat="37.07925" lon="-7.99331">
        <ele>54.061</ele>
        <time>2019-10-14T01:09:40Z</time>
      </trkpt>
      <trkpt lat="37.07928" lon="-7.9934">
        <ele>53.673</ele>
        <time>2019-10-14T01:10:00Z</time>
      </trkpt>
      <trkpt lat="37.07933" lon="-7.99365">
        <ele>51.743</ele>
        <time>2019-10-14T01:10:20Z</time>
      </trkpt>
      <trkpt lat="37.0796" lon="-7.99517">
        <ele>45.455</ele>
        <time>2019-10-14T01:10:40Z</time>
      </trkpt>
      <trkpt lat="37.07984" lon="-7.99673">
        <ele>41.826</ele>
        <time>2019-10-14T01:11:00Z</time>
      </trkpt>
      <trkpt lat="37.08001" lon="-7.99782">
        <ele>37.828</ele>
        <time>2019-10-14T01:11:20Z</time>
      </trkpt>
      <trkpt lat="37.08011" lon="-7.99847">
        <ele>37.428</ele>
        <time>2019-10-14T01:11:40Z</time>
      </trkpt>
      <trkpt lat="37.08015" lon="-7.99869">
        <ele>37.711</ele>
        <time>2019-10-14T01:12:00Z</time>
      </trkpt>
      <trkpt lat="37.08017" lon="-7.99873">
        <ele>37.921</ele>
        <time>2019-10-14T01:12:20Z</time>
      </trkpt>
      <trkpt lat="37.08018" lon="-7.99876">
        <ele>38.003</ele>
        <time>2019-10-14T01:12:40Z</time>
      </trkpt>
      <trkpt lat="37.08021" lon="-7.99878">
        <ele>38.208</ele>
        <time>2019-10-14T01:13:00Z</time>
      </trkpt>
      <trkpt lat="37.08023" lon="-7.99878">
        <ele>38.315</ele>
        <time>2019-10-14T01:13:20Z</time>
      </trkpt>
      <trkpt lat="37.08024" lon="-7.99878">
        <ele>38.473</ele>
        <time>2019-10-14T01:13:40Z</time>
      </trkpt>
      <trkpt lat="37.08025" lon="-7.99877">
        <ele>38.465</ele>
        <time>2019-10-14T01:14:00Z</time>
      </trkpt>
      <trkpt lat="37.08026" lon="-7.99878">
        <ele>38.535</ele>
        <time>2019-10-14T01:14:20Z</time>
      </trkpt>
      <trkpt lat="37.08028" lon="-7.99878">
        <ele>38.687</ele>
        <time>2019-10-14T01:14:40Z</time>
      </trkpt>
      <trkpt lat="37.08046" lon="-7.99871">
        <ele>39.088</ele>
        <time>2019-10-14T01:15:00Z</time>
      </trkpt>
      <trkpt lat="37.08047" lon="-7.9987">
        <ele>39.01</ele>
        <time>2019-10-14T01:15:20Z</time>
      </trkpt>
      <trkpt lat="37.08047" lon="-7.99869">
        <ele>39.03</ele>
        <time>2019-10-14T01:15:40Z</time>
      </trkpt>
      <trkpt lat="37.08049" lon="-7.99867">
        <ele>39.068</ele>
        <time>2019-10-14T01:16:00Z</time>
      </trkpt>
      <trkpt lat="37.08049" lon="-7.99869">
        <ele>39.042</ele>
        <time>2019-10-14T01:16:20Z</time>
      </trkpt>
      <trkpt lat="37.08049" lon="-7.99871">
        <ele>39.126</ele>
        <time>2019-10-14T01:16:40Z</time>
      </trkpt>
      <trkpt lat="37.08048" lon="-7.99871">
        <ele>39.108</ele>
        <time>2019-10-14T01:17:00Z</time>
      </trkpt>
      <trkpt lat="37.08049" lon="-7.99871">
        <ele>39.12</ele>
        <time>2019-10-14T01:17:20Z</time>
      </trkpt>
      <trkpt lat="37.0805" lon="-7.99867">
        <ele>39.038</ele>
        <time>2019-10-14T01:17:40Z</time>
      </trkpt>
      <trkpt lat="37.08052" lon="-7.99866">
        <ele>39.08</ele>
        <time>2019-10-14T01:18:00Z</time>
      </trkpt>
      <trkpt lat="37.08053" lon="-7.99864">
        <ele>39.01</ele>
        <time>2019-10-14T01:18:20Z</time>
      </trkpt>
      <trkpt lat="37.08054" lon="-7.99863">
        <ele>39.032</ele>
        <time>2019-10-14T01:18:40Z</time>
      </trkpt>
      <trkpt lat="37.08055" lon="-7.99862">
        <ele>39.013</ele>
        <time>2019-10-14T01:19:00Z</time>
      </trkpt>
      <trkpt lat="37.08067" lon="-7.99852">
        <ele>39.185</ele>
        <time>2019-10-14T01:19:20Z</time>
      </trkpt>
      <trkpt lat="37.08076" lon="-7.99847">
        <ele>39.255</ele>
        <time>2019-10-14T01:19:40Z</time>
      </trkpt>
      <trkpt lat="37.08082" lon="-7.99846">
        <ele>39.465</ele>
        <time>2019-10-14T01:20:00Z</time>
      </trkpt>
      <trkpt lat="37.08142" lon="-7.99827">
        <ele>40.968</ele>
        <time>2019-10-14T01:20:20Z</time>
      </trkpt>
      <trkpt lat="37.08153" lon="-7.99825">
        <ele>41.414</ele>
        <time>2019-10-14T01:20:40Z</time>
      </trkpt>
      <trkpt lat="37.08164" lon="-7.99824">
        <ele>41.908</ele>
        <time>2019-10-14T01:21:00Z</time>
      </trkpt>
      <trkpt lat="37.0821" lon="-7.99814">
        <ele>43.01</ele>
        <time>2019-10-14T01:21:20Z</time>
      </trkpt>
      <trkpt lat="37.08221" lon="-7.99809">
        <ele>43.048</ele>
        <time>2019-10-14T01:21:40Z</time>
      </trkpt>
      <trkpt lat="37.08254" lon="-7.99791">
        <ele>41.92</ele>
        <time>2019-10-14T01:22:00Z</time>
      </trkpt>
      <trkpt lat="37.08257" lon="-7.99789">
        <ele>41.85</ele>
        <time>2019-10-14T01:22:20Z</time>
      </trkpt>
      <trkpt lat="37.08262" lon="-7.99787">
        <ele>41.672</ele>
        <time>2019-10-14T01:22:40Z</time>
      </trkpt>
      <trkpt lat="37.08285" lon="-7.99777">
        <ele>41.033</ele>
        <time>2019-10-14T01:23:00Z</time>
      </trkpt>
      <trkpt lat="37.0829" lon="-7.99769">
        <ele>41.165</ele>
        <time>2019-10-14T01:23:20Z</time>
      </trkpt>
      <trkpt lat="37.08292" lon="-7.99759">
        <ele>41.425</ele>
        <time>2019-10-14T01:23:40Z</time>
      </trkpt>
      <trkpt lat="37.08294" lon="-7.99745">
        <ele>41.849</ele>
        <time>2019-10-14T01:24:00Z</time>
      </trkpt>
      <trkpt lat="37.08294" lon="-7.99728">
        <ele>42.402</ele>
        <time>2019-10-14T01:24:20Z</time>
      </trkpt>
      <trkpt lat="37.08294" lon="-7.99708">
        <ele>43.122</ele>
        <time>2019-10-14T01:24:40Z</time>
      </trkpt>
      <trkpt lat="37.08293" lon="-7.99644">
        <ele>45.908</ele>
        <time>2019-10-14T01:25:00Z</time>
      </trkpt>
      <trkpt lat="37.08297" lon="-7.99607">
        <ele>44.848</ele>
        <time>2019-10-14T01:25:20Z</time>
      </trkpt>
      <trkpt lat="37.08301" lon="-7.99589">
        <ele>44.236</ele>
        <time>2019-10-14T01:25:40Z</time>
      </trkpt>
      <trkpt lat="37.08307" lon="-7.99572">
        <ele>44.588</ele>
        <time>2019-10-14T01:26:00Z</time>
      </trkpt>
      <trkpt lat="37.08314" lon="-7.99557">
        <ele>45.028</ele>
        <time>2019-10-14T01:26:20Z</time>
      </trkpt>
      <trkpt lat="37.08323" lon="-7.99544">
        <ele>45.74</ele>
        <time>2019-10-14T01:26:40Z</time>
      </trkpt>
      <trkpt lat="37.08333" lon="-7.99534">
        <ele>46.591</ele>
        <time>2019-10-14T01:27:00Z</time>
      </trkpt>
      <trkpt lat="37.08343" lon="-7.99525">
        <ele>47.183</ele>
        <time>2019-10-14T01:27:20Z</time>
      </trkpt>
      <trkpt lat="37.08355" lon="-7.99518">
        <ele>47.623</ele>
        <time>2019-10-14T01:27:40Z</time>
      </trkpt>
      <trkpt lat="37.08403" lon="-7.99484">
        <ele>48.669</ele>
        <time>2019-10-14T01:28:00Z</time>
      </trkpt>
      <trkpt lat="37.08414" lon="-7.99472">
        <ele>48.204</ele>
        <time>2019-10-14T01:28:20Z</time>
      </trkpt>
      <trkpt lat="37.08423" lon="-7.99459">
        <ele>48.624</ele>
        <time>2019-10-14T01:28:40Z</time>
      </trkpt>
      <trkpt lat="37.08431" lon="-7.99443">
        <ele>49.108</ele>
        <time>2019-10-14T01:29:00Z</time>
      </trkpt>
      <trkpt lat="37.08438" lon="-7.99426">
        <ele>49.75</ele>
        <time>2019-10-14T01:29:20Z</time>
      </trkpt>
      <trkpt lat="37.08454" lon="-7.99394">
        <ele>51.738</ele>
        <time>2019-10-14T01:29:40Z</time>
      </trkpt>
      <trkpt lat="37.08464" lon="-7.99381">
        <ele>52.31</ele>
        <time>2019-10-14T01:30:00Z</time>
      </trkpt>
      <trkpt lat="37.08476" lon="-7.99369">
        <ele>52.67</ele>
        <time>2019-10-14T01:30:20Z</time>
      </trkpt>
      <trkpt lat="37.08489" lon="-7.9936">
        <ele>52.442</ele>
        <time>2019-10-14T01:30:40Z</time>
      </trkpt>
      <trkpt lat="37.08503" lon="-7.99353">
        <ele>52.283</ele>
        <time>2019-10-14T01:31:00Z</time>
      </trkpt>
      <trkpt lat="37.08517" lon="-7.99346">
        <ele>53.245</ele>
        <time>2019-10-14T01:31:20Z</time>
      </trkpt>
      <trkpt lat="37.08566" lon="-7.99322">
        <ele>56.515</ele>
        <time>2019-10-14T01:31:40Z</time>
      </trkpt>
      <trkpt lat="37.08575" lon="-7.99315">
        <ele>57.197</ele>
        <time>2019-10-14T01:32:00Z</time>
      </trkpt>
      <trkpt lat="37.08582" lon="-7.99306">
        <ele>57.923</ele>
        <time>2019-10-14T01:32:20Z</time>
      </trkpt>
      <trkpt lat="37.08587" lon="-7.99294">
        <ele>57.925</ele>
        <time>2019-10-14T01:32:40Z</time>
      </trkpt>
      <trkpt lat="37.08592" lon="-7.9928">
        <ele>58.008</ele>
        <time>2019-10-14T01:33:00Z</time>
      </trkpt>
      <trkpt lat="37.08595" lon="-7.99265">
        <ele>58.033</ele>
        <time>2019-10-14T01:33:20Z</time>
      </trkpt>
      <trkpt lat="37.08629" lon="-7.99118">
        <ele>54.291</ele>
        <time>2019-10-14T01:33:40Z</time>
      </trkpt>
      <trkpt lat="37.08636" lon="-7.99076">
        <ele>51.713</ele>
        <time>2019-10-14T01:34:00Z</time>
      </trkpt>
      <trkpt lat="37.08638" lon="-7.99065">
        <ele>51.363</ele>
        <time>2019-10-14T01:34:20Z</time>
      </trkpt>
      <trkpt lat="37.08643" lon="-7.9904">
        <ele>50.525</ele>
        <time>2019-10-14T01:34:40Z</time>
      </trkpt>
      <trkpt lat="37.08643" lon="-7.99034">
        <ele>50.326</ele>
        <time>2019-10-14T01:35:00Z</time>
      </trkpt>
      <trkpt lat="37.08641" lon="-7.99028">
        <ele>50.138</ele>
        <time>2019-10-14T01:35:20Z</time>
      </trkpt>
      <trkpt lat="37.08639" lon="-7.99021">
        <ele>50.058</ele>
        <time>2019-10-14T01:35:40Z</time>
      </trkpt>
      <trkpt lat="37.08635" lon="-7.99015">
        <ele>50.221</ele>
        <time>2019-10-14T01:36:00Z</time>
      </trkpt>
      <trkpt lat="37.0863" lon="-7.99009">
        <ele>50.341</ele>
        <time>2019-10-14T01:36:20Z</time>
      </trkpt>
      <trkpt lat="37.08626" lon="-7.99002">
        <ele>50.505</ele>
        <time>2019-10-14T01:36:40Z</time>
      </trkpt>
      <trkpt lat="37.08625" lon="-7.98995">
        <ele>50.708</ele>
        <time>2019-10-14T01:37:00Z</time>
      </trkpt>
      <trkpt lat="37.08626" lon="-7.98989">
        <ele>50.966</ele>
        <time>2019-10-14T01:37:20Z</time>
      </trkpt>
      <trkpt lat="37.0863" lon="-7.98985">
        <ele>50.954</ele>
        <time>2019-10-14T01:37:40Z</time>
      </trkpt>
      <trkpt lat="37.08636" lon="-7.98984">
        <ele>50.746</ele>
        <time>2019-10-14T01:38:00Z</time>
      </trkpt>
      <trkpt lat="37.08641" lon="-7.98987">
        <ele>50.496</ele>
        <time>2019-10-14T01:38:20Z</time>
      </trkpt>
      <trkpt lat="37.08645" lon="-7.98993">
        <ele>50.298</ele>
        <time>2019-10-14T01:38:40Z</time>
      </trkpt>
      <trkpt lat="37.08647" lon="-7.99001">
        <ele>50.079</ele>
        <time>2019-10-14T01:39:00Z</time>
      </trkpt>
      <trkpt lat="37.08649" lon="-7.9901">
        <ele>50.121</ele>
        <time>2019-10-14T01:39:20Z</time>
      </trkpt>
      <trkpt lat="37.08651" lon="-7.9902">
        <ele>50.351</ele>
        <time>2019-10-14T01:39:40Z</time>
      </trkpt>
      <trkpt lat="37.08655" lon="-7.99029">
        <ele>50.632</ele>
        <time>2019-10-14T01:40:00Z</time>
      </trkpt>
      <trkpt lat="37.08661" lon="-7.99037">
        <ele>50.992</ele>
        <time>2019-10-14T01:40:20Z</time>
      </trkpt>
      <trkpt lat="37.08669" lon="-7.99044">
        <ele>51.111</ele>
        <time>2019-10-14T01:40:40Z</time>
      </trkpt>
      <trkpt lat="37.08678" lon="-7.99053">
        <ele>51.408</ele>
        <time>2019-10-14T01:41:00Z</time>
      </trkpt>
      <trkpt lat="37.08688" lon="-7.99062">
        <ele>51.857</ele>
        <time>2019-10-14T01:41:20Z</time>
      </trkpt>
      <trkpt lat="37.0875" lon="-7.99119">
        <ele>51.315</ele>
        <time>2019-10-14T01:41:40Z</time>
      </trkpt>
      <trkpt lat="37.08894" lon="-7.9925">
        <ele>52.897</ele>
        <time>2019-10-14T01:42:00Z</time>
      </trkpt>
      <trkpt lat="37.09106" lon="-7.99443">
        <ele>52.757</ele>
        <time>2019-10-14T01:42:20Z</time>
      </trkpt>
      <trkpt lat="37.09151" lon="-7.99485">
        <ele>60.439</ele>
        <time>2019-10-14T01:42:40Z</time>
      </trkpt>
      <trkpt lat="37.09209" lon="-7.99538">
        <ele>64.97</ele>
        <time>2019-10-14T01:43:00Z</time>
      </trkpt>
      <trkpt lat="37.09256" lon="-7.9958">
        <ele>68.282</ele>
        <time>2019-10-14T01:43:20Z</time>
      </trkpt>
      <trkpt lat="37.09302" lon="-7.9962">
        <ele>71.932</ele>
        <time>2019-10-14T01:43:40Z</time>
      </trkpt>
      <trkpt lat="37.09321" lon="-7.99637">
        <ele>70.635</ele>
        <time>2019-10-14T01:44:00Z</time>
      </trkpt>
      <trkpt lat="37.09342" lon="-7.99657">
        <ele>70.286</ele>
        <time>2019-10-14T01:44:20Z</time>
      </trkpt>
      <trkpt lat="37.09345" lon="-7.99662">
        <ele>70.314</ele>
        <time>2019-10-14T01:44:40Z</time>
      </trkpt>
      <trkpt lat="37.09346" lon="-7.99666">
        <ele>70.508</ele>
        <time>2019-10-14T01:45:00Z</time>
      </trkpt>
      <trkpt lat="37.09355" lon="-7.99683">
        <ele>72.757</ele>
        <time>2019-10-14T01:45:20Z</time>
      </trkpt>
      <trkpt lat="37.09398" lon="-7.99728">
        <ele>71.195</ele>
        <time>2019-10-14T01:45:40Z</time>
      </trkpt>
      <trkpt lat="37.09403" lon="-7.99739">
        <ele>71.087</ele>
        <time>2019-10-14T01:46:00Z</time>
      </trkpt>
      <trkpt lat="37.09408" lon="-7.99752">
        <ele>70.777</ele>
        <time>2019-10-14T01:46:20Z</time>
      </trkpt>
      <trkpt lat="37.09424" lon="-7.99803">
        <ele>69.379</ele>
        <time>2019-10-14T01:46:40Z</time>
      </trkpt>
      <trkpt lat="37.09451" lon="-7.99932">
        <ele>72.13</ele>
        <time>2019-10-14T01:47:00Z</time>
      </trkpt>
      <trkpt lat="37.09455" lon="-7.99945">
        <ele>72.072</ele>
        <time>2019-10-14T01:47:20Z</time>
      </trkpt>
      <trkpt lat="37.09459" lon="-7.99959">
        <ele>72.032</ele>
        <time>2019-10-14T01:47:40Z</time>
      </trkpt>
      <trkpt lat="37.09465" lon="-7.99971">
        <ele>72.065</ele>
        <time>2019-10-14T01:48:00Z</time>
      </trkpt>
      <trkpt lat="37.09471" lon="-7.99982">
        <ele>71.668</ele>
        <time>2019-10-14T01:48:20Z</time>
      </trkpt>
      <trkpt lat="37.09477" lon="-7.99993">
        <ele>71.514</ele>
        <time>2019-10-14T01:48:40Z</time>
      </trkpt>
      <trkpt lat="37.09483" lon="-8.00004">
        <ele>71.808</ele>
        <time>2019-10-14T01:49:00Z</time>
      </trkpt>
      <trkpt lat="37.09487" lon="-8.00017">
        <ele>72.14</ele>
        <time>2019-10-14T01:49:20Z</time>
      </trkpt>
      <trkpt lat="37.09494" lon="-8.00044">
        <ele>71.538</ele>
        <time>2019-10-14T01:49:40Z</time>
      </trkpt>
      <trkpt lat="37.09499" lon="-8.00056">
        <ele>70.94</ele>
        <time>2019-10-14T01:50:00Z</time>
      </trkpt>
      <trkpt lat="37.09504" lon="-8.00067">
        <ele>70.33</ele>
        <time>2019-10-14T01:50:20Z</time>
      </trkpt>
      <trkpt lat="37.09509" lon="-8.00075">
        <ele>69.932</ele>
        <time>2019-10-14T01:50:40Z</time>
      </trkpt>
      <trkpt lat="37.09515" lon="-8.0008">
        <ele>69.893</ele>
        <time>2019-10-14T01:51:00Z</time>
      </trkpt>
      <trkpt lat="37.0952" lon="-8.00083">
        <ele>69.815</ele>
        <time>2019-10-14T01:51:20Z</time>
      </trkpt>
      <trkpt lat="37.09523" lon="-8.00085">
        <ele>69.875</ele>
        <time>2019-10-14T01:51:40Z</time>
      </trkpt>
      <trkpt lat="37.09528" lon="-8.00088">
        <ele>69.865</ele>
        <time>2019-10-14T01:52:00Z</time>
      </trkpt>
      <trkpt lat="37.09532" lon="-8.00094">
        <ele>69.968</ele>
        <time>2019-10-14T01:52:20Z</time>
      </trkpt>
      <trkpt lat="37.09533" lon="-8.00098">
        <ele>69.714</ele>
        <time>2019-10-14T01:52:40Z</time>
      </trkpt>
      <trkpt lat="37.09533" lon="-8.00103">
        <ele>69.508</ele>
        <time>2019-10-14T01:53:00Z</time>
      </trkpt>
      <trkpt lat="37.09532" lon="-8.0011">
        <ele>69.25</ele>
        <time>2019-10-14T01:53:20Z</time>
      </trkpt>
      <trkpt lat="37.09531" lon="-8.00117">
        <ele>68.928</ele>
        <time>2019-10-14T01:53:40Z</time>
      </trkpt>
      <trkpt lat="37.09529" lon="-8.00125">
        <ele>68.54</ele>
        <time>2019-10-14T01:54:00Z</time>
      </trkpt>
      <trkpt lat="37.09528" lon="-8.00134">
        <ele>68.22</ele>
        <time>2019-10-14T01:54:20Z</time>
      </trkpt>
      <trkpt lat="37.09528" lon="-8.00145">
        <ele>67.842</ele>
        <time>2019-10-14T01:54:40Z</time>
      </trkpt>
      <trkpt lat="37.09529" lon="-8.00154">
        <ele>67.433</ele>
        <time>2019-10-14T01:55:00Z</time>
      </trkpt>
      <trkpt lat="37.09531" lon="-8.00163">
        <ele>67.145</ele>
        <time>2019-10-14T01:55:20Z</time>
      </trkpt>
      <trkpt lat="37.09534" lon="-8.00171">
        <ele>67.015</ele>
        <time>2019-10-14T01:55:40Z</time>
      </trkpt>
      <trkpt lat="37.09538" lon="-8.00179">
        <ele>67.081</ele>
        <time>2019-10-14T01:56:00Z</time>
      </trkpt>
      <trkpt lat="37.09543" lon="-8.00186">
        <ele>67.061</ele>
        <time>2019-10-14T01:56:20Z</time>
      </trkpt>
      <trkpt lat="37.09549" lon="-8.00193">
        <ele>67.017</ele>
        <time>2019-10-14T01:56:40Z</time>
      </trkpt>
      <trkpt lat="37.0956" lon="-8.00208">
        <ele>67.108</ele>
        <time>2019-10-14T01:57:00Z</time>
      </trkpt>
      <trkpt lat="37.09571" lon="-8.00222">
        <ele>67.582</ele>
        <time>2019-10-14T01:57:20Z</time>
      </trkpt>
      <trkpt lat="37.09616" lon="-8.00291">
        <ele>70.47</ele>
        <time>2019-10-14T01:57:40Z</time>
      </trkpt>
      <trkpt lat="37.09641" lon="-8.00332">
        <ele>72.172</ele>
        <time>2019-10-14T01:58:00Z</time>
      </trkpt>
      <trkpt lat="37.09658" lon="-8.00359">
        <ele>73.092</ele>
        <time>2019-10-14T01:58:20Z</time>
      </trkpt>
      <trkpt lat="37.09666" lon="-8.00374">
        <ele>73.494</ele>
        <time>2019-10-14T01:58:40Z</time>
      </trkpt>
      <trkpt lat="37.09672" lon="-8.00388">
        <ele>74.235</ele>
        <time>2019-10-14T01:59:00Z</time>
      </trkpt>
      <trkpt lat="37.09683" lon="-8.00415">
        <ele>76.587</ele>
        <time>2019-10-14T01:59:20Z</time>
      </trkpt>
      <trkpt lat="37.097" lon="-8.00446">
        <ele>77.077</ele>
        <time>2019-10-14T01:59:40Z</time>
      </trkpt>
      <trkpt lat="37.09708" lon="-8.00452">
        <ele>77.268</ele>
        <time>2019-10-14T02:00:00Z</time>
      </trkpt>
      <trkpt lat="37.09717" lon="-8.00457">
        <ele>77.142</ele>
        <time>2019-10-14T02:00:20Z</time>
      </trkpt>
      <trkpt lat="37.09796" lon="-8.00486">
        <ele>75.226</ele>
        <time>2019-10-14T02:00:40Z</time>
      </trkpt>
      <trkpt lat="37.09864" lon="-8.0051">
        <ele>77.508</ele>
        <time>2019-10-14T02:01:00Z</time>
      </trkpt>
      <trkpt lat="37.0987" lon="-8.00511">
        <ele>77.74</ele>
        <time>2019-10-14T02:01:20Z</time>
      </trkpt>
      <trkpt lat="37.09875" lon="-8.00513">
        <ele>78.098</ele>
        <time>2019-10-14T02:01:40Z</time>
      </trkpt>
      <trkpt lat="37.09879" lon="-8.00516">
        <ele>78.26</ele>
        <time>2019-10-14T02:02:00Z</time>
      </trkpt>
      <trkpt lat="37.09882" lon="-8.0052">
        <ele>78.57</ele>
        <time>2019-10-14T02:02:20Z</time>
      </trkpt>
      <trkpt lat="37.09884" lon="-8.00526">
        <ele>78.872</ele>
        <time>2019-10-14T02:02:40Z</time>
      </trkpt>
      <trkpt lat="37.09886" lon="-8.00535">
        <ele>79.133</ele>
        <time>2019-10-14T02:03:00Z</time>
      </trkpt>
      <trkpt lat="37.09888" lon="-8.00546">
        <ele>79.645</ele>
        <time>2019-10-14T02:03:20Z</time>
      </trkpt>
      <trkpt lat="37.09891" lon="-8.00558">
        <ele>80.285</ele>
        <time>2019-10-14T02:03:40Z</time>
      </trkpt>
      <trkpt lat="37.09901" lon="-8.00608">
        <ele>81.447</ele>
        <time>2019-10-14T02:04:00Z</time>
      </trkpt>
      <trkpt lat="37.09912" lon="-8.00671">
        <ele>83.129</ele>
        <time>2019-10-14T02:04:20Z</time>
      </trkpt>
      <trkpt lat="37.0992" lon="-8.00738">
        <ele>86.121</ele>
        <time>2019-10-14T02:04:40Z</time>
      </trkpt>
      <trkpt lat="37.09922" lon="-8.0077">
        <ele>86.108</ele>
        <time>2019-10-14T02:05:00Z</time>
      </trkpt>
      <trkpt lat="37.09924" lon="-8.00776">
        <ele>86.058</ele>
        <time>2019-10-14T02:05:20Z</time>
      </trkpt>
      <trkpt lat="37.09927" lon="-8.00779">
        <ele>86.116</ele>
        <time>2019-10-14T02:05:40Z</time>
      </trkpt>
      <trkpt lat="37.09932" lon="-8.00781">
        <ele>86.278</ele>
        <time>2019-10-14T02:06:00Z</time>
      </trkpt>
      <trkpt lat="37.09938" lon="-8.0078">
        <ele>86.168</ele>
        <time>2019-10-14T02:06:20Z</time>
      </trkpt>
      <trkpt lat="37.09947" lon="-8.00777">
        <ele>86.26</ele>
        <time>2019-10-14T02:06:40Z</time>
      </trkpt>
      <trkpt lat="37.09981" lon="-8.00768">
        <ele>89.751</ele>
        <time>2019-10-14T02:07:00Z</time>
      </trkpt>
      <trkpt lat="37.10015" lon="-8.00757">
        <ele>94.723</ele>
        <time>2019-10-14T02:07:20Z</time>
      </trkpt>
      <trkpt lat="37.10024" lon="-8.00751">
        <ele>95.713</ele>
        <time>2019-10-14T02:07:40Z</time>
      </trkpt>
      <trkpt lat="37.10033" lon="-8.00742">
        <ele>96.623</ele>
        <time>2019-10-14T02:08:00Z</time>
      </trkpt>
      <trkpt lat="37.10041" lon="-8.00732">
        <ele>97.583</ele>
        <time>2019-10-14T02:08:20Z</time>
      </trkpt>
      <trkpt lat="37.10047" lon="-8.0072">
        <ele>97.911</ele>
        <time>2019-10-14T02:08:40Z</time>
      </trkpt>
      <trkpt lat="37.10052" lon="-8.00704">
        <ele>97.308</ele>
        <time>2019-10-14T02:09:00Z</time>
      </trkpt>
      <trkpt lat="37.10056" lon="-8.00685">
        <ele>97.276</ele>
        <time>2019-10-14T02:09:20Z</time>
      </trkpt>
      <trkpt lat="37.1006" lon="-8.00665">
        <ele>97.894</ele>
        <time>2019-10-14T02:09:40Z</time>
      </trkpt>
      <trkpt lat="37.10066" lon="-8.00624">
        <ele>94.246</ele>
        <time>2019-10-14T02:10:00Z</time>
      </trkpt>
      <trkpt lat="37.10068" lon="-8.00616">
        <ele>93.446</ele>
        <time>2019-10-14T02:10:20Z</time>
      </trkpt>
      <trkpt lat="37.10069" lon="-8.00611">
        <ele>92.988</ele>
        <time>2019-10-14T02:10:40Z</time>
      </trkpt>
      <trkpt lat="37.10071" lon="-8.00607">
        <ele>93.099</ele>
        <time>2019-10-14T02:11:00Z</time>
      </trkpt>
      <trkpt lat="37.10074" lon="-8.00604">
        <ele>93.351</ele>
        <time>2019-10-14T02:11:20Z</time>
      </trkpt>
      <trkpt lat="37.10079" lon="-8.00601">
        <ele>93.961</ele>
        <time>2019-10-14T02:11:40Z</time>
      </trkpt>
      <trkpt lat="37.10084" lon="-8.00598">
        <ele>94.635</ele>
        <time>2019-10-14T02:12:00Z</time>
      </trkpt>
      <trkpt lat="37.10104" lon="-8.00581">
        <ele>97.286</ele>
        <time>2019-10-14T02:12:20Z</time>
      </trkpt>
      <trkpt lat="37.10136" lon="-8.00551">
        <ele>102.714</ele>
        <time>2019-10-14T02:12:40Z</time>
      </trkpt>
      <trkpt lat="37.1016" lon="-8.00531">
        <ele>103.408</ele>
        <time>2019-10-14T02:13:00Z</time>
      </trkpt>
      <trkpt lat="37.10182" lon="-8.00511">
        <ele>101.357</ele>
        <time>2019-10-14T02:13:20Z</time>
      </trkpt>
      <trkpt lat="37.10204" lon="-8.00497">
        <ele>100.485</ele>
        <time>2019-10-14T02:13:40Z</time>
      </trkpt>
      <trkpt lat="37.10212" lon="-8.00495">
        <ele>100.957</ele>
        <time>2019-10-14T02:14:00Z</time>
      </trkpt>
      <trkpt lat="37.10222" lon="-8.00495">
        <ele>101.697</ele>
        <time>2019-10-14T02:14:20Z</time>
      </trkpt>
      <trkpt lat="37.10233" lon="-8.00497">
        <ele>101.899</ele>
        <time>2019-10-14T02:14:40Z</time>
      </trkpt>
      <trkpt lat="37.10246" lon="-8.005">
        <ele>102.08</ele>
        <time>2019-10-14T02:15:00Z</time>
      </trkpt>
      <trkpt lat="37.10335" lon="-8.00523">
        <ele>106.392</ele>
        <time>2019-10-14T02:15:20Z</time>
      </trkpt>
      <trkpt lat="37.10373" lon="-8.00531">
        <ele>111.482</ele>
        <time>2019-10-14T02:15:40Z</time>
      </trkpt>
      <trkpt lat="37.10408" lon="-8.00536">
        <ele>115.133</ele>
        <time>2019-10-14T02:16:00Z</time>
      </trkpt>
      <trkpt lat="37.10417" lon="-8.00535">
        <ele>115.823</ele>
        <time>2019-10-14T02:16:20Z</time>
      </trkpt>
      <trkpt lat="37.10425" lon="-8.00534">
        <ele>115.715</ele>
        <time>2019-10-14T02:16:40Z</time>
      </trkpt>
      <trkpt lat="37.10434" lon="-8.0053">
        <ele>115.308</ele>
        <time>2019-10-14T02:17:00Z</time>
      </trkpt>
      <trkpt lat="37.1048" lon="-8.00505">
        <ele>118.777</ele>
        <time>2019-10-14T02:17:20Z</time>
      </trkpt>
      <trkpt lat="37.10489" lon="-8.00502">
        <ele>119.745</ele>
        <time>2019-10-14T02:17:40Z</time>
      </trkpt>
      <trkpt lat="37.10524" lon="-8.00492">
        <ele>122.797</ele>
        <time>2019-10-14T02:18:00Z</time>
      </trkpt>
      <trkpt lat="37.10536" lon="-8.00487">
        <ele>123.867</ele>
        <time>2019-10-14T02:18:20Z</time>
      </trkpt>
      <trkpt lat="37.10542" lon="-8.00486">
        <ele>124.519</ele>
        <time>2019-10-14T02:18:40Z</time>
      </trkpt>
      <trkpt lat="37.10554" lon="-8.00486">
        <ele>126.21</ele>
        <time>2019-10-14T02:19:00Z</time>
      </trkpt>
      <trkpt lat="37.10565" lon="-8.00488">
        <ele>127.782</ele>
        <time>2019-10-14T02:19:20Z</time>
      </trkpt>
      <trkpt lat="37.1057" lon="-8.00491">
        <ele>128.452</ele>
        <time>2019-10-14T02:19:40Z</time>
      </trkpt>
      <trkpt lat="37.10574" lon="-8.00496">
        <ele>129.152</ele>
        <time>2019-10-14T02:20:00Z</time>
      </trkpt>
      <trkpt lat="37.10578" lon="-8.00504">
        <ele>130.053</ele>
        <time>2019-10-14T02:20:20Z</time>
      </trkpt>
      <trkpt lat="37.10582" lon="-8.00513">
        <ele>131.308</ele>
        <time>2019-10-14T02:20:40Z</time>
      </trkpt>
      <trkpt lat="37.10587" lon="-8.00519">
        <ele>132.008</ele>
        <time>2019-10-14T02:21:00Z</time>
      </trkpt>
      <trkpt lat="37.10591" lon="-8.00524">
        <ele>132.429</ele>
        <time>2019-10-14T02:21:20Z</time>
      </trkpt>
      <trkpt lat="37.10595" lon="-8.00527">
        <ele>132.547</ele>
        <time>2019-10-14T02:21:40Z</time>
      </trkpt>
      <trkpt lat="37.10599" lon="-8.00528">
        <ele>132.489</ele>
        <time>2019-10-14T02:22:00Z</time>
      </trkpt>
      <trkpt lat="37.10603" lon="-8.00528">
        <ele>132.389</ele>
        <time>2019-10-14T02:22:20Z</time>
      </trkpt>
      <trkpt lat="37.10607" lon="-8.00528">
        <ele>132.211</ele>
        <time>2019-10-14T02:22:40Z</time>
      </trkpt>
      <trkpt lat="37.1061" lon="-8.00528">
        <ele>132.182</ele>
        <time>2019-10-14T02:23:00Z</time>
      </trkpt>
      <trkpt lat="37.10638" lon="-8.00529">
        <ele>134.174</ele>
        <time>2019-10-14T02:23:20Z</time>
      </trkpt>
      <trkpt lat="37.10643" lon="-8.0053">
        <ele>134.954</ele>
        <time>2019-10-14T02:23:40Z</time>
      </trkpt>
      <trkpt lat="37.10649" lon="-8.00532">
        <ele>135.921</ele>
        <time>2019-10-14T02:24:00Z</time>
      </trkpt>
      <trkpt lat="37.10657" lon="-8.00532">
        <ele>137.041</ele>
        <time>2019-10-14T02:24:20Z</time>
      </trkpt>
      <trkpt lat="37.10668" lon="-8.00532">
        <ele>138.405</ele>
        <time>2019-10-14T02:24:40Z</time>
      </trkpt>
      <trkpt lat="37.10694" lon="-8.00535">
        <ele>141.208</ele>
        <time>2019-10-14T02:25:00Z</time>
      </trkpt>
      <trkpt lat="37.107" lon="-8.00536">
        <ele>141.326</ele>
        <time>2019-10-14T02:25:20Z</time>
      </trkpt>
      <trkpt lat="37.10706" lon="-8.00538">
        <ele>141.464</ele>
        <time>2019-10-14T02:25:40Z</time>
      </trkpt>
      <trkpt lat="37.10724" lon="-8.00543">
        <ele>141.536</ele>
        <time>2019-10-14T02:26:00Z</time>
      </trkpt>
      <trkpt lat="37.10765" lon="-8.00554">
        <ele>141.096</ele>
        <time>2019-10-14T02:26:20Z</time>
      </trkpt>
      <trkpt lat="37.10771" lon="-8.0056">
        <ele>141.138</ele>
        <time>2019-10-14T02:26:40Z</time>
      </trkpt>
      <trkpt lat="37.10775" lon="-8.00569">
        <ele>141.439</ele>
        <time>2019-10-14T02:27:00Z</time>
      </trkpt>
      <trkpt lat="37.10778" lon="-8.0058">
        <ele>141.961</ele>
        <time>2019-10-14T02:27:20Z</time>
      </trkpt>
      <trkpt lat="37.10781" lon="-8.00591">
        <ele>142.531</ele>
        <time>2019-10-14T02:27:40Z</time>
      </trkpt>
      <trkpt lat="37.10789" lon="-8.00624">
        <ele>144.888</ele>
        <time>2019-10-14T02:28:00Z</time>
      </trkpt>
      <trkpt lat="37.10792" lon="-8.00628">
        <ele>145.224</ele>
        <time>2019-10-14T02:28:20Z</time>
      </trkpt>
      <trkpt lat="37.10797" lon="-8.00628">
        <ele>145.626</ele>
        <time>2019-10-14T02:28:40Z</time>
      </trkpt>
      <trkpt lat="37.10826" lon="-8.00624">
        <ele>147.008</ele>
        <time>2019-10-14T02:29:00Z</time>
      </trkpt>
      <trkpt lat="37.10843" lon="-8.00622">
        <ele>147.712</ele>
        <time>2019-10-14T02:29:20Z</time>
      </trkpt>
      <trkpt lat="37.10849" lon="-8.00618">
        <ele>147.86</ele>
        <time>2019-10-14T02:29:40Z</time>
      </trkpt>
      <trkpt lat="37.10855" lon="-8.00613">
        <ele>147.862</ele>
        <time>2019-10-14T02:30:00Z</time>
      </trkpt>
      <trkpt lat="37.10888" lon="-8.00579">
        <ele>149.942</ele>
        <time>2019-10-14T02:30:20Z</time>
      </trkpt>
      <trkpt lat="37.10905" lon="-8.00561">
        <ele>152.294</ele>
        <time>2019-10-14T02:30:40Z</time>
      </trkpt>
      <trkpt lat="37.10911" lon="-8.00553">
        <ele>153.355</ele>
        <time>2019-10-14T02:31:00Z</time>
      </trkpt>
      <trkpt lat="37.10915" lon="-8.00545">
        <ele>154.287</ele>
        <time>2019-10-14T02:31:20Z</time>
      </trkpt>
      <trkpt lat="37.10918" lon="-8.00536">
        <ele>154.847</ele>
        <time>2019-10-14T02:31:40Z</time>
      </trkpt>
      <trkpt lat="37.10919" lon="-8.00526">
        <ele>155.187</ele>
        <time>2019-10-14T02:32:00Z</time>
      </trkpt>
      <trkpt lat="37.10919" lon="-8.00517">
        <ele>155.242</ele>
        <time>2019-10-14T02:32:20Z</time>
      </trkpt>
      <trkpt lat="37.1092" lon="-8.00488">
        <ele>155.726</ele>
        <time>2019-10-14T02:32:40Z</time>
      </trkpt>
      <trkpt lat="37.10924" lon="-8.00467">
        <ele>157.008</ele>
        <time>2019-10-14T02:33:00Z</time>
      </trkpt>
      <trkpt lat="37.1094" lon="-8.00457">
        <ele>159.142</ele>
        <time>2019-10-14T02:33:20Z</time>
      </trkpt>
      <trkpt lat="37.10945" lon="-8.0046">
        <ele>159.49</ele>
        <time>2019-10-14T02:33:40Z</time>
      </trkpt>
      <trkpt lat="37.10949" lon="-8.00466">
        <ele>160.072</ele>
        <time>2019-10-14T02:34:00Z</time>
      </trkpt>
      <trkpt lat="37.10971" lon="-8.00493">
        <ele>161.492</ele>
        <time>2019-10-14T02:34:20Z</time>
      </trkpt>
      <trkpt lat="37.11019" lon="-8.00547">
        <ele>162.934</ele>
        <time>2019-10-14T02:34:40Z</time>
      </trkpt>
      <trkpt lat="37.11029" lon="-8.00559">
        <ele>162.825</ele>
        <time>2019-10-14T02:35:00Z</time>
      </trkpt>
      <trkpt lat="37.11103" lon="-8.00645">
        <ele>162.897</ele>
        <time>2019-10-14T02:35:20Z</time>
      </trkpt>
      <trkpt lat="37.11166" lon="-8.00719">
        <ele>155.627</ele>
        <time>2019-10-14T02:35:40Z</time>
      </trkpt>
      <trkpt lat="37.11193" lon="-8.00739">
        <ele>154.597</ele>
        <time>2019-10-14T02:36:00Z</time>
      </trkpt>
      <trkpt lat="37.11208" lon="-8.00747">
        <ele>154.123</ele>
        <time>2019-10-14T02:36:20Z</time>
      </trkpt>
      <trkpt lat="37.11225" lon="-8.00754">
        <ele>153.825</ele>
        <time>2019-10-14T02:36:40Z</time>
      </trkpt>
      <trkpt lat="37.11242" lon="-8.0076">
        <ele>153.608</ele>
        <time>2019-10-14T02:37:00Z</time>
      </trkpt>
      <trkpt lat="37.11296" lon="-8.00778">
        <ele>147.793</ele>
        <time>2019-10-14T02:37:20Z</time>
      </trkpt>
      <trkpt lat="37.11333" lon="-8.00791">
        <ele>142.621</ele>
        <time>2019-10-14T02:37:40Z</time>
      </trkpt>
      <trkpt lat="37.11371" lon="-8.00804">
        <ele>138.013</ele>
        <time>2019-10-14T02:38:00Z</time>
      </trkpt>
      <trkpt lat="37.1145" lon="-8.00832">
        <ele>132.973</ele>
        <time>2019-10-14T02:38:20Z</time>
      </trkpt>
      <trkpt lat="37.11506" lon="-8.00851">
        <ele>129.385</ele>
        <time>2019-10-14T02:38:40Z</time>
      </trkpt>
      <trkpt lat="37.1156" lon="-8.0087">
        <ele>128.796</ele>
        <time>2019-10-14T02:39:00Z</time>
      </trkpt>
      <trkpt lat="37.11594" lon="-8.00888">
        <ele>126.398</ele>
        <time>2019-10-14T02:39:20Z</time>
      </trkpt>
      <trkpt lat="37.11723" lon="-8.01">
        <ele>126.058</ele>
        <time>2019-10-14T02:39:40Z</time>
      </trkpt>
      <trkpt lat="37.1187" lon="-8.01132">
        <ele>119.141</ele>
        <time>2019-10-14T02:40:00Z</time>
      </trkpt>
      <trkpt lat="37.1204" lon="-8.0128">
        <ele>129.981</ele>
        <time>2019-10-14T02:40:20Z</time>
      </trkpt>
      <trkpt lat="37.12079" lon="-8.01316">
        <ele>134.209</ele>
        <time>2019-10-14T02:40:40Z</time>
      </trkpt>
      <trkpt lat="37.12134" lon="-8.01365">
        <ele>136.708</ele>
        <time>2019-10-14T02:41:00Z</time>
      </trkpt>
      <trkpt lat="37.12175" lon="-8.01404">
        <ele>141.048</ele>
        <time>2019-10-14T02:41:20Z</time>
      </trkpt>
      <trkpt lat="37.12217" lon="-8.01442">
        <ele>141.916</ele>
        <time>2019-10-14T02:41:40Z</time>
      </trkpt>
      <trkpt lat="37.1226" lon="-8.01481">
        <ele>145.218</ele>
        <time>2019-10-14T02:42:00Z</time>
      </trkpt>
      <trkpt lat="37.12352" lon="-8.01562">
        <ele>145.738</ele>
        <time>2019-10-14T02:42:20Z</time>
      </trkpt>
      <trkpt lat="37.12389" lon="-8.01597">
        <ele>144.07</ele>
        <time>2019-10-14T02:42:40Z</time>
      </trkpt>
      <trkpt lat="37.12407" lon="-8.01616">
        <ele>142.741</ele>
        <time>2019-10-14T02:43:00Z</time>
      </trkpt>
      <trkpt lat="37.12433" lon="-8.01634">
        <ele>142.253</ele>
        <time>2019-10-14T02:43:20Z</time>
      </trkpt>
      <trkpt lat="37.12481" lon="-8.01654">
        <ele>140.593</ele>
        <time>2019-10-14T02:43:40Z</time>
      </trkpt>
      <trkpt lat="37.12553" lon="-8.01686">
        <ele>140.859</ele>
        <time>2019-10-14T02:44:00Z</time>
      </trkpt>
      <trkpt lat="37.12621" lon="-8.01708">
        <ele>142.303</ele>
        <time>2019-10-14T02:44:20Z</time>
      </trkpt>
      <trkpt lat="37.12633" lon="-8.0171">
        <ele>143.523</ele>
        <time>2019-10-14T02:44:40Z</time>
      </trkpt>
      <trkpt lat="37.12644" lon="-8.01709">
        <ele>146.008</ele>
        <time>2019-10-14T02:45:00Z</time>
      </trkpt>
      <trkpt lat="37.12665" lon="-8.01707">
        <ele>153.039</ele>
        <time>2019-10-14T02:45:20Z</time>
      </trkpt>
      <trkpt lat="37.12674" lon="-8.01709">
        <ele>155.137</ele>
        <time>2019-10-14T02:45:40Z</time>
      </trkpt>
      <trkpt lat="37.12682" lon="-8.01714">
        <ele>156.389</ele>
        <time>2019-10-14T02:46:00Z</time>
      </trkpt>
      <trkpt lat="37.12687" lon="-8.01722">
        <ele>156.619</ele>
        <time>2019-10-14T02:46:20Z</time>
      </trkpt>
      <trkpt lat="37.12688" lon="-8.01731">
        <ele>156.051</ele>
        <time>2019-10-14T02:46:40Z</time>
      </trkpt>
      <trkpt lat="37.12687" lon="-8.0174">
        <ele>154.832</ele>
        <time>2019-10-14T02:47:00Z</time>
      </trkpt>
      <trkpt lat="37.12683" lon="-8.01748">
        <ele>153.224</ele>
        <time>2019-10-14T02:47:20Z</time>
      </trkpt>
      <trkpt lat="37.12677" lon="-8.01754">
        <ele>151.214</ele>
        <time>2019-10-14T02:47:40Z</time>
      </trkpt>
      <trkpt lat="37.12669" lon="-8.01756">
        <ele>149.562</ele>
        <time>2019-10-14T02:48:00Z</time>
      </trkpt>
      <trkpt lat="37.1266" lon="-8.01754">
        <ele>147.583</ele>
        <time>2019-10-14T02:48:20Z</time>
      </trkpt>
      <trkpt lat="37.12651" lon="-8.01748">
        <ele>145.711</ele>
        <time>2019-10-14T02:48:40Z</time>
      </trkpt>
      <trkpt lat="37.12644" lon="-8.01739">
        <ele>143.908</ele>
        <time>2019-10-14T02:49:00Z</time>
      </trkpt>
      <trkpt lat="37.12636" lon="-8.0173">
        <ele>142.21</ele>
        <time>2019-10-14T02:49:20Z</time>
      </trkpt>
      <trkpt lat="37.12626" lon="-8.01721">
        <ele>141.338</ele>
        <time>2019-10-14T02:49:40Z</time>
      </trkpt>
      <trkpt lat="37.12616" lon="-8.01715">
        <ele>140.76</ele>
        <time>2019-10-14T02:50:00Z</time>
      </trkpt>
      <trkpt lat="37.12604" lon="-8.01709">
        <ele>140.98</ele>
        <time>2019-10-14T02:50:20Z</time>
      </trkpt>
      <trkpt lat="37.12591" lon="-8.01704">
        <ele>141.482</ele>
        <time>2019-10-14T02:50:40Z</time>
      </trkpt>
      <trkpt lat="37.12577" lon="-8.01699">
        <ele>141.273</ele>
        <time>2019-10-14T02:51:00Z</time>
      </trkpt>
      <trkpt lat="37.12508" lon="-8.01674">
        <ele>139.235</ele>
        <time>2019-10-14T02:51:20Z</time>
      </trkpt>
      <trkpt lat="37.12477" lon="-8.01663">
        <ele>139.465</ele>
        <time>2019-10-14T02:51:40Z</time>
      </trkpt>
      <trkpt lat="37.12465" lon="-8.01661">
        <ele>139.848</ele>
        <time>2019-10-14T02:52:00Z</time>
      </trkpt>
      <trkpt lat="37.12464" lon="-8.01663">
        <ele>139.761</ele>
        <time>2019-10-14T02:52:20Z</time>
      </trkpt>
      <trkpt lat="37.12463" lon="-8.01665">
        <ele>139.517</ele>
        <time>2019-10-14T02:52:40Z</time>
      </trkpt>
      <trkpt lat="37.12464" lon="-8.01666">
        <ele>139.308</ele>
        <time>2019-10-14T02:53:00Z</time>
      </trkpt>
      <trkpt lat="37.12466" lon="-8.01668">
        <ele>139.138</ele>
        <time>2019-10-14T02:53:20Z</time>
      </trkpt>
      <trkpt lat="37.12469" lon="-8.0167">
        <ele>138.976</ele>
        <time>2019-10-14T02:53:40Z</time>
      </trkpt>
      <trkpt lat="37.12472" lon="-8.01671">
        <ele>138.798</ele>
        <time>2019-10-14T02:54:00Z</time>
      </trkpt>
      <trkpt lat="37.12478" lon="-8.01672">
        <ele>138.698</ele>
        <time>2019-10-14T02:54:20Z</time>
      </trkpt>
      <trkpt lat="37.12484" lon="-8.01672">
        <ele>138.66</ele>
        <time>2019-10-14T02:54:40Z</time>
      </trkpt>
      <trkpt lat="37.12491" lon="-8.01673">
        <ele>138.551</ele>
        <time>2019-10-14T02:55:00Z</time>
      </trkpt>
      <trkpt lat="37.12498" lon="-8.01676">
        <ele>138.383</ele>
        <time>2019-10-14T02:55:20Z</time>
      </trkpt>
      <trkpt lat="37.12505" lon="-8.01679">
        <ele>138.523</ele>
        <time>2019-10-14T02:55:40Z</time>
      </trkpt>
      <trkpt lat="37.12518" lon="-8.01687">
        <ele>138.544</ele>
        <time>2019-10-14T02:56:00Z</time>
      </trkpt>
      <trkpt lat="37.12522" lon="-8.01692">
        <ele>138.105</ele>
        <time>2019-10-14T02:56:20Z</time>
      </trkpt>
      <trkpt lat="37.12523" lon="-8.01699">
        <ele>137.515</ele>
        <time>2019-10-14T02:56:40Z</time>
      </trkpt>
      <trkpt lat="37.12522" lon="-8.01706">
        <ele>137.008</ele>
        <time>2019-10-14T02:57:00Z</time>
      </trkpt>
      <trkpt lat="37.12519" lon="-8.01715">
        <ele>136.248</ele>
        <time>2019-10-14T02:57:20Z</time>
      </trkpt>
      <trkpt lat="37.12515" lon="-8.01726">
        <ele>135.526</ele>
        <time>2019-10-14T02:57:40Z</time>
      </trkpt>
      <trkpt lat="37.12513" lon="-8.01736">
        <ele>135.478</ele>
        <time>2019-10-14T02:58:00Z</time>
      </trkpt>
      <trkpt lat="37.1251" lon="-8.01745">
        <ele>135.428</ele>
        <time>2019-10-14T02:58:20Z</time>
      </trkpt>
      <trkpt lat="37.12506" lon="-8.01768">
        <ele>134.62</ele>
        <time>2019-10-14T02:58:40Z</time>
      </trkpt>
      <trkpt lat="37.12504" lon="-8.01774">
        <ele>134.381</ele>
        <time>2019-10-14T02:59:00Z</time>
      </trkpt>
      <trkpt lat="37.12504" lon="-8.01781">
        <ele>133.993</ele>
        <time>2019-10-14T02:59:20Z</time>
      </trkpt>
      <trkpt lat="37.12502" lon="-8.01793">
        <ele>132.993</ele>
        <time>2019-10-14T02:59:40Z</time>
      </trkpt>
      <trkpt lat="37.125" lon="-8.01795">
        <ele>132.789</ele>
        <time>2019-10-14T03:00:00Z</time>
      </trkpt>
      <trkpt lat="37.12497" lon="-8.01796">
        <ele>132.506</ele>
        <time>2019-10-14T03:00:20Z</time>
      </trkpt>
      <trkpt lat="37.12493" lon="-8.01794">
        <ele>132.426</ele>
        <time>2019-10-14T03:00:40Z</time>
      </trkpt>
      <trkpt lat="37.12487" lon="-8.01791">
        <ele>132.308</ele>
        <time>2019-10-14T03:01:00Z</time>
      </trkpt>
      <trkpt lat="37.12463" lon="-8.0178">
        <ele>131.332</ele>
        <time>2019-10-14T03:01:20Z</time>
      </trkpt>
      <trkpt lat="37.12456" lon="-8.01779">
        <ele>130.82</ele>
        <time>2019-10-14T03:01:40Z</time>
      </trkpt>
      <trkpt lat="37.12451" lon="-8.01781">
        <ele>130.492</ele>
        <time>2019-10-14T03:02:00Z</time>
      </trkpt>
      <trkpt lat="37.12446" lon="-8.01787">
        <ele>130.152</ele>
        <time>2019-10-14T03:02:20Z</time>
      </trkpt>
      <trkpt lat="37.12441" lon="-8.01795">
        <ele>129.934</ele>
        <time>2019-10-14T03:02:40Z</time>
      </trkpt>
      <trkpt lat="37.12436" lon="-8.01803">
        <ele>129.785</ele>
        <time>2019-10-14T03:03:00Z</time>
      </trkpt>
      <trkpt lat="37.12432" lon="-8.01811">
        <ele>129.627</ele>
        <time>2019-10-14T03:03:20Z</time>
      </trkpt>
      <trkpt lat="37.12424" lon="-8.01837">
        <ele>129.027</ele>
        <time>2019-10-14T03:03:40Z</time>
      </trkpt>
      <trkpt lat="37.12426" lon="-8.01844">
        <ele>128.528</ele>
        <time>2019-10-14T03:04:00Z</time>
      </trkpt>
      <trkpt lat="37.12431" lon="-8.01853">
        <ele>128.189</ele>
        <time>2019-10-14T03:04:20Z</time>
      </trkpt>
      <trkpt lat="37.12468" lon="-8.01927">
        <ele>121.717</ele>
        <time>2019-10-14T03:04:40Z</time>
      </trkpt>
      <trkpt lat="37.12478" lon="-8.01944">
        <ele>121.208</ele>
        <time>2019-10-14T03:05:00Z</time>
      </trkpt>
      <trkpt lat="37.12484" lon="-8.01951">
        <ele>121.096</ele>
        <time>2019-10-14T03:05:20Z</time>
      </trkpt>
      <trkpt lat="37.1249" lon="-8.01957">
        <ele>120.894</ele>
        <time>2019-10-14T03:05:40Z</time>
      </trkpt>
      <trkpt lat="37.12498" lon="-8.01961">
        <ele>120.796</ele>
        <time>2019-10-14T03:06:00Z</time>
      </trkpt>
      <trkpt lat="37.12505" lon="-8.01965">
        <ele>120.576</ele>
        <time>2019-10-14T03:06:20Z</time>
      </trkpt>
      <trkpt lat="37.12555" lon="-8.02">
        <ele>120.048</ele>
        <time>2019-10-14T03:06:40Z</time>
      </trkpt>
      <trkpt lat="37.1256" lon="-8.02006">
        <ele>119.969</ele>
        <time>2019-10-14T03:07:00Z</time>
      </trkpt>
      <trkpt lat="37.12611" lon="-8.02072">
        <ele>120.411</ele>
        <time>2019-10-14T03:07:20Z</time>
      </trkpt>
      <trkpt lat="37.12639" lon="-8.02107">
        <ele>123.081</ele>
        <time>2019-10-14T03:07:40Z</time>
      </trkpt>
      <trkpt lat="37.12639" lon="-8.02106">
        <ele>123.024</ele>
        <time>2019-10-14T03:08:00Z</time>
      </trkpt>
      <trkpt lat="37.12639" lon="-8.02106">
        <ele>123.004</ele>
        <time>2019-10-14T03:08:20Z</time>
      </trkpt>
      <trkpt lat="37.12639" lon="-8.02106">
        <ele>123.014</ele>
        <time>2019-10-14T03:08:40Z</time>
      </trkpt>
      <trkpt lat="37.12639" lon="-8.02106">
        <ele>123.008</ele>
        <time>2019-10-14T03:09:00Z</time>
      </trkpt>
      <trkpt lat="37.12639" lon="-8.02106">
        <ele>123.026</ele>
        <time>2019-10-14T03:09:20Z</time>
      </trkpt>
      <trkpt lat="37.12639" lon="-8.02106">
        <ele>123.034</ele>
        <time>2019-10-14T03:09:40Z</time>
      </trkpt>
      <trkpt lat="37.12638" lon="-8.02106">
        <ele>122.946</ele>
        <time>2019-10-14T03:10:00Z</time>
      </trkpt>
      <trkpt lat="37.12638" lon="-8.02106">
        <ele>122.916</ele>
        <time>2019-10-14T03:10:20Z</time>
      </trkpt>
      <trkpt lat="37.1264" lon="-8.02105">
        <ele>123.048</ele>
        <time>2019-10-14T03:10:40Z</time>
      </trkpt>
      <trkpt lat="37.1264" lon="-8.02105">
        <ele>123.189</ele>
        <time>2019-10-14T03:11:00Z</time>
      </trkpt>
      <trkpt lat="37.1264" lon="-8.02105">
        <ele>123.051</ele>
        <time>2019-10-14T03:11:20Z</time>
      </trkpt>
      <trkpt lat="37.1264" lon="-8.02105">
        <ele>123.061</ele>
        <time>2019-10-14T03:11:40Z</time>
      </trkpt>
      <trkpt lat="37.12639" lon="-8.02105">
        <ele>123.041</ele>
        <time>2019-10-14T03:12:00Z</time>
      </trkpt>
      <trkpt lat="37.12639" lon="-8.02105">
        <ele>123.081</ele>
        <time>2019-10-14T03:12:20Z</time>
      </trkpt>
      <trkpt lat="37.12639" lon="-8.02105">
        <ele>123.009</ele>
        <time>2019-10-14T03:12:40Z</time>
      </trkpt>
      <trkpt lat="37.12639" lon="-8.02105">
        <ele>123.008</ele>
        <time>2019-10-14T03:13:00Z</time>
      </trkpt>
      <trkpt lat="37.12639" lon="-8.02105">
        <ele>123.098</ele>
        <time>2019-10-14T03:13:20Z</time>
      </trkpt>
      <trkpt lat="37.1264" lon="-8.02105">
        <ele>123.176</ele>
        <time>2019-10-14T03:13:40Z</time>
      </trkpt>
      <trkpt lat="37.12641" lon="-8.02107">
        <ele>123.158</ele>
        <time>2019-10-14T03:14:00Z</time>
      </trkpt>
      <trkpt lat="37.12643" lon="-8.02111">
        <ele>123.358</ele>
        <time>2019-10-14T03:14:20Z</time>
      </trkpt>
      <trkpt lat="37.12645" lon="-8.02117">
        <ele>123.48</ele>
        <time>2019-10-14T03:14:40Z</time>
      </trkpt>
      <trkpt lat="37.12647" lon="-8.02126">
        <ele>123.551</ele>
        <time>2019-10-14T03:15:00Z</time>
      </trkpt>
      <trkpt lat="37.12649" lon="-8.02134">
        <ele>123.413</ele>
        <time>2019-10-14T03:15:20Z</time>
      </trkpt>
      <trkpt lat="37.12648" lon="-8.02142">
        <ele>123.533</ele>
        <time>2019-10-14T03:15:40Z</time>
      </trkpt>
      <trkpt lat="37.12645" lon="-8.0215">
        <ele>123.964</ele>
        <time>2019-10-14T03:16:00Z</time>
      </trkpt>
      <trkpt lat="37.1264" lon="-8.02156">
        <ele>124.206</ele>
        <time>2019-10-14T03:16:20Z</time>
      </trkpt>
      <trkpt lat="37.12632" lon="-8.0216">
        <ele>124.016</ele>
        <time>2019-10-14T03:16:40Z</time>
      </trkpt>
      <trkpt lat="37.12621" lon="-8.02163">
        <ele>123.508</ele>
        <time>2019-10-14T03:17:00Z</time>
      </trkpt>
      <trkpt lat="37.12608" lon="-8.02167">
        <ele>123.15</ele>
        <time>2019-10-14T03:17:20Z</time>
      </trkpt>
      <trkpt lat="37.12596" lon="-8.02171">
        <ele>123.888</ele>
        <time>2019-10-14T03:17:40Z</time>
      </trkpt>
      <trkpt lat="37.12551" lon="-8.02185">
        <ele>126.75</ele>
        <time>2019-10-14T03:18:00Z</time>
      </trkpt>
      <trkpt lat="37.1252" lon="-8.02192">
        <ele>124.75</ele>
        <time>2019-10-14T03:18:20Z</time>
      </trkpt>
      <trkpt lat="37.12511" lon="-8.02191">
        <ele>123.442</ele>
        <time>2019-10-14T03:18:40Z</time>
      </trkpt>
      <trkpt lat="37.12484" lon="-8.0219">
        <ele>120.393</ele>
        <time>2019-10-14T03:19:00Z</time>
      </trkpt>
      <trkpt lat="37.12477" lon="-8.02191">
        <ele>119.615</ele>
        <time>2019-10-14T03:19:20Z</time>
      </trkpt>
      <trkpt lat="37.12471" lon="-8.02192">
        <ele>119.145</ele>
        <time>2019-10-14T03:19:40Z</time>
      </trkpt>
      <trkpt lat="37.12466" lon="-8.02195">
        <ele>119.058</ele>
        <time>2019-10-14T03:20:00Z</time>
      </trkpt>
      <trkpt lat="37.12462" lon="-8.02199">
        <ele>119.252</ele>
        <time>2019-10-14T03:20:20Z</time>
      </trkpt>
      <trkpt lat="37.12459" lon="-8.02206">
        <ele>119.417</ele>
        <time>2019-10-14T03:20:40Z</time>
      </trkpt>
      <trkpt lat="37.12456" lon="-8.02217">
        <ele>119.608</ele>
        <time>2019-10-14T03:21:00Z</time>
      </trkpt>
      <trkpt lat="37.12453" lon="-8.0223">
        <ele>119.679</ele>
        <time>2019-10-14T03:21:20Z</time>
      </trkpt>
      <trkpt lat="37.12449" lon="-8.02245">
        <ele>119.337</ele>
        <time>2019-10-14T03:21:40Z</time>
      </trkpt>
      <trkpt lat="37.12438" lon="-8.02332">
        <ele>115.669</ele>
        <time>2019-10-14T03:22:00Z</time>
      </trkpt>
      <trkpt lat="37.12434" lon="-8.02345">
        <ele>114.819</ele>
        <time>2019-10-14T03:22:20Z</time>
      </trkpt>
      <trkpt lat="37.12429" lon="-8.02356">
        <ele>114.141</ele>
        <time>2019-10-14T03:22:40Z</time>
      </trkpt>
      <trkpt lat="37.12422" lon="-8.02366">
        <ele>113.372</ele>
        <time>2019-10-14T03:23:00Z</time>
      </trkpt>
      <trkpt lat="37.12412" lon="-8.02376">
        <ele>112.884</ele>
        <time>2019-10-14T03:23:20Z</time>
      </trkpt>
      <trkpt lat="37.12402" lon="-8.02387">
        <ele>112.554</ele>
        <time>2019-10-14T03:23:40Z</time>
      </trkpt>
      <trkpt lat="37.12348" lon="-8.02427">
        <ele>109.821</ele>
        <time>2019-10-14T03:24:00Z</time>
      </trkpt>
      <trkpt lat="37.12285" lon="-8.02467">
        <ele>110.141</ele>
        <time>2019-10-14T03:24:20Z</time>
      </trkpt>
      <trkpt lat="37.12277" lon="-8.02476">
        <ele>109.705</ele>
        <time>2019-10-14T03:24:40Z</time>
      </trkpt>
      <trkpt lat="37.1227" lon="-8.02487">
        <ele>108.208</ele>
        <time>2019-10-14T03:25:00Z</time>
      </trkpt>
      <trkpt lat="37.12264" lon="-8.02501">
        <ele>107.076</ele>
        <time>2019-10-14T03:25:20Z</time>
      </trkpt>
      <trkpt lat="37.1226" lon="-8.02515">
        <ele>105.874</ele>
        <time>2019-10-14T03:25:40Z</time>
      </trkpt>
      <trkpt lat="37.12258" lon="-8.02531">
        <ele>104.946</ele>
        <time>2019-10-14T03:26:00Z</time>
      </trkpt>
      <trkpt lat="37.12257" lon="-8.02548">
        <ele>105.096</ele>
        <time>2019-10-14T03:26:20Z</time>
      </trkpt>
      <trkpt lat="37.12258" lon="-8.02567">
        <ele>105.138</ele>
        <time>2019-10-14T03:26:40Z</time>
      </trkpt>
      <trkpt lat="37.1225" lon="-8.02701">
        <ele>102.569</ele>
        <time>2019-10-14T03:27:00Z</time>
      </trkpt>
      <trkpt lat="37.12247" lon="-8.02717">
        <ele>101.561</ele>
        <time>2019-10-14T03:27:20Z</time>
      </trkpt>
      <trkpt lat="37.12244" lon="-8.02731">
        <ele>100.191</ele>
        <time>2019-10-14T03:27:40Z</time>
      </trkpt>
      <trkpt lat="37.12238" lon="-8.02743">
        <ele>98.236</ele>
        <time>2019-10-14T03:28:00Z</time>
      </trkpt>
      <trkpt lat="37.12231" lon="-8.02753">
        <ele>96.217</ele>
        <time>2019-10-14T03:28:20Z</time>
      </trkpt>
      <trkpt lat="37.12223" lon="-8.02762">
        <ele>94.418</ele>
        <time>2019-10-14T03:28:40Z</time>
      </trkpt>
      <trkpt lat="37.12214" lon="-8.0277">
        <ele>92.808</ele>
        <time>2019-10-14T03:29:00Z</time>
      </trkpt>
      <trkpt lat="37.12206" lon="-8.02779">
        <ele>91.497</ele>
        <time>2019-10-14T03:29:20Z</time>
      </trkpt>
      <trkpt lat="37.122" lon="-8.0279">
        <ele>91.175</ele>
        <time>2019-10-14T03:29:40Z</time>
      </trkpt>
      <trkpt lat="37.12196" lon="-8.02801">
        <ele>91.027</ele>
        <time>2019-10-14T03:30:00Z</time>
      </trkpt>
      <trkpt lat="37.12193" lon="-8.02811">
        <ele>91.337</ele>
        <time>2019-10-14T03:30:20Z</time>
      </trkpt>
      <trkpt lat="37.1219" lon="-8.0282">
        <ele>91.839</ele>
        <time>2019-10-14T03:30:40Z</time>
      </trkpt>
      <trkpt lat="37.12185" lon="-8.02845">
        <ele>92.14</ele>
        <time>2019-10-14T03:31:00Z</time>
      </trkpt>
      <trkpt lat="37.12183" lon="-8.02855">
        <ele>91.722</ele>
        <time>2019-10-14T03:31:20Z</time>
      </trkpt>
      <trkpt lat="37.12179" lon="-8.02867">
        <ele>91.252</ele>
        <time>2019-10-14T03:31:40Z</time>
      </trkpt>
      <trkpt lat="37.12174" lon="-8.02901">
        <ele>89.787</ele>
        <time>2019-10-14T03:32:00Z</time>
      </trkpt>
      <trkpt lat="37.12175" lon="-8.02907">
        <ele>89.542</ele>
        <time>2019-10-14T03:32:20Z</time>
      </trkpt>
      <trkpt lat="37.12176" lon="-8.02911">
        <ele>89.526</ele>
        <time>2019-10-14T03:32:40Z</time>
      </trkpt>
      <trkpt lat="37.12178" lon="-8.02914">
        <ele>89.508</ele>
        <time>2019-10-14T03:33:00Z</time>
      </trkpt>
      <trkpt lat="37.12181" lon="-8.02915">
        <ele>89.552</ele>
        <time>2019-10-14T03:33:20Z</time>
      </trkpt>
      <trkpt lat="37.12184" lon="-8.02916">
        <ele>89.61</ele>
        <time>2019-10-14T03:33:40Z</time>
      </trkpt>
      <trkpt lat="37.12188" lon="-8.02916">
        <ele>89.842</ele>
        <time>2019-10-14T03:34:00Z</time>
      </trkpt>
      <trkpt lat="37.12208" lon="-8.02918">
        <ele>90.072</ele>
        <time>2019-10-14T03:34:20Z</time>
      </trkpt>
      <trkpt lat="37.12272" lon="-8.02919">
        <ele>91.194</ele>
        <time>2019-10-14T03:34:40Z</time>
      </trkpt>
      <trkpt lat="37.12298" lon="-8.02916">
        <ele>91.765</ele>
        <time>2019-10-14T03:35:00Z</time>
      </trkpt>
      <trkpt lat="37.12305" lon="-8.02913">
        <ele>91.917</ele>
        <time>2019-10-14T03:35:20Z</time>
      </trkpt>
      <trkpt lat="37.12313" lon="-8.02907">
        <ele>91.727</ele>
        <time>2019-10-14T03:35:40Z</time>
      </trkpt>
      <trkpt lat="37.1232" lon="-8.02899">
        <ele>91.727</ele>
        <time>2019-10-14T03:36:00Z</time>
      </trkpt>
      <trkpt lat="37.12329" lon="-8.02891">
        <ele>91.868</ele>
        <time>2019-10-14T03:36:20Z</time>
      </trkpt>
      <trkpt lat="37.12339" lon="-8.02886">
        <ele>92.414</ele>
        <time>2019-10-14T03:36:40Z</time>
      </trkpt>
      <trkpt lat="37.1235" lon="-8.02883">
        <ele>93.208</ele>
        <time>2019-10-14T03:37:00Z</time>
      </trkpt>
      <trkpt lat="37.12361" lon="-8.02882">
        <ele>94.056</ele>
        <time>2019-10-14T03:37:20Z</time>
      </trkpt>
      <trkpt lat="37.12371" lon="-8.02881">
        <ele>94.574</ele>
        <time>2019-10-14T03:37:40Z</time>
      </trkpt>
      <trkpt lat="37.12408" lon="-8.02869">
        <ele>96.636</ele>
        <time>2019-10-14T03:38:00Z</time>
      </trkpt>
      <trkpt lat="37.12417" lon="-8.02867">
        <ele>97.086</ele>
        <time>2019-10-14T03:38:20Z</time>
      </trkpt>
      <trkpt lat="37.12435" lon="-8.02862">
        <ele>97.028</ele>
        <time>2019-10-14T03:38:40Z</time>
      </trkpt>
      <trkpt lat="37.12444" lon="-8.02857">
        <ele>97.039</ele>
        <time>2019-10-14T03:39:00Z</time>
      </trkpt>
      <trkpt lat="37.12505" lon="-8.02818">
        <ele>100.091</ele>
        <time>2019-10-14T03:39:20Z</time>
      </trkpt>
      <trkpt lat="37.12513" lon="-8.0281">
        <ele>100.031</ele>
        <time>2019-10-14T03:39:40Z</time>
      </trkpt>
      <trkpt lat="37.12568" lon="-8.02755">
        <ele>102.472</ele>
        <time>2019-10-14T03:40:00Z</time>
      </trkpt>
      <trkpt lat="37.12579" lon="-8.02749">
        <ele>103.513</ele>
        <time>2019-10-14T03:40:20Z</time>
      </trkpt>
      <trkpt lat="37.12603" lon="-8.02737">
        <ele>104.614</ele>
        <time>2019-10-14T03:40:40Z</time>
      </trkpt>
      <trkpt lat="37.12614" lon="-8.02729">
        <ele>105.208</ele>
        <time>2019-10-14T03:41:00Z</time>
      </trkpt>
      <trkpt lat="37.12636" lon="-8.02716">
        <ele>106.871</ele>
        <time>2019-10-14T03:41:20Z</time>
      </trkpt>
      <trkpt lat="37.12648" lon="-8.02711">
        <ele>107.819</ele>
        <time>2019-10-14T03:41:40Z</time>
      </trkpt>
      <trkpt lat="37.12659" lon="-8.02708">
        <ele>108.831</ele>
        <time>2019-10-14T03:42:00Z</time>
      </trkpt>
      <trkpt lat="37.12696" lon="-8.027">
        <ele>112.181</ele>
        <time>2019-10-14T03:42:20Z</time>
      </trkpt>
      <trkpt lat="37.12701" lon="-8.02697">
        <ele>112.593</ele>
        <time>2019-10-14T03:42:40Z</time>
      </trkpt>
      <trkpt lat="37.12707" lon="-8.02692">
        <ele>112.844</ele>
        <time>2019-10-14T03:43:00Z</time>
      </trkpt>
      <trkpt lat="37.12714" lon="-8.02684">
        <ele>113.066</ele>
        <time>2019-10-14T03:43:20Z</time>
      </trkpt>
      <trkpt lat="37.1272" lon="-8.02676">
        <ele>113.256</ele>
        <time>2019-10-14T03:43:40Z</time>
      </trkpt>
      <trkpt lat="37.12728" lon="-8.02666">
        <ele>113.492</ele>
        <time>2019-10-14T03:44:00Z</time>
      </trkpt>
      <trkpt lat="37.12755" lon="-8.02636">
        <ele>113.773</ele>
        <time>2019-10-14T03:44:20Z</time>
      </trkpt>
      <trkpt lat="37.12781" lon="-8.02606">
        <ele>117.12</ele>
        <time>2019-10-14T03:44:40Z</time>
      </trkpt>
      <trkpt lat="37.12807" lon="-8.02584">
        <ele>119.108</ele>
        <time>2019-10-14T03:45:00Z</time>
      </trkpt>
      <trkpt lat="37.12815" lon="-8.02579">
        <ele>119.323</ele>
        <time>2019-10-14T03:45:20Z</time>
      </trkpt>
      <trkpt lat="37.12825" lon="-8.02576">
        <ele>119.661</ele>
        <time>2019-10-14T03:45:40Z</time>
      </trkpt>
      <trkpt lat="37.12834" lon="-8.02572">
        <ele>120.013</ele>
        <time>2019-10-14T03:46:00Z</time>
      </trkpt>
      <trkpt lat="37.12844" lon="-8.02568">
        <ele>120.413</ele>
        <time>2019-10-14T03:46:20Z</time>
      </trkpt>
      <trkpt lat="37.12854" lon="-8.02563">
        <ele>120.715</ele>
        <time>2019-10-14T03:46:40Z</time>
      </trkpt>
      <trkpt lat="37.1287" lon="-8.02554">
        <ele>121.456</ele>
        <time>2019-10-14T03:47:00Z</time>
      </trkpt>
      <trkpt lat="37.12879" lon="-8.02551">
        <ele>121.778</ele>
        <time>2019-10-14T03:47:20Z</time>
      </trkpt>
      <trkpt lat="37.12886" lon="-8.02549">
        <ele>122.198</ele>
        <time>2019-10-14T03:47:40Z</time>
      </trkpt>
      <trkpt lat="37.1289" lon="-8.02547">
        <ele>122.366</ele>
        <time>2019-10-14T03:48:00Z</time>
      </trkpt>
      <trkpt lat="37.12914" lon="-8.02529">
        <ele>123.829</ele>
        <time>2019-10-14T03:48:20Z</time>
      </trkpt>
      <trkpt lat="37.12921" lon="-8.02525">
        <ele>124.521</ele>
        <time>2019-10-14T03:48:40Z</time>
      </trkpt>
      <trkpt lat="37.12928" lon="-8.02522">
        <ele>125.108</ele>
        <time>2019-10-14T03:49:00Z</time>
      </trkpt>
      <trkpt lat="37.12936" lon="-8.02522">
        <ele>125.66</ele>
        <time>2019-10-14T03:49:20Z</time>
      </trkpt>
      <trkpt lat="37.12943" lon="-8.02522">
        <ele>126.118</ele>
        <time>2019-10-14T03:49:40Z</time>
      </trkpt>
      <trkpt lat="37.12949" lon="-8.02525">
        <ele>126.37</ele>
        <time>2019-10-14T03:50:00Z</time>
      </trkpt>
      <trkpt lat="37.12957" lon="-8.02527">
        <ele>126.59</ele>
        <time>2019-10-14T03:50:20Z</time>
      </trkpt>
      <trkpt lat="37.12965" lon="-8.02528">
        <ele>126.712</ele>
        <time>2019-10-14T03:50:40Z</time>
      </trkpt>
      <trkpt lat="37.12974" lon="-8.02529">
        <ele>127.083</ele>
        <time>2019-10-14T03:51:00Z</time>
      </trkpt>
      <trkpt lat="37.12984" lon="-8.02529">
        <ele>127.435</ele>
        <time>2019-10-14T03:51:20Z</time>
      </trkpt>
      <trkpt lat="37.13035" lon="-8.02528">
        <ele>129.565</ele>
        <time>2019-10-14T03:51:40Z</time>
      </trkpt>
      <trkpt lat="37.13053" lon="-8.02528">
        <ele>130.855</ele>
        <time>2019-10-14T03:52:00Z</time>
      </trkpt>
      <trkpt lat="37.13096" lon="-8.02523">
        <ele>132.007</ele>
        <time>2019-10-14T03:52:20Z</time>
      </trkpt>
      <trkpt lat="37.13098" lon="-8.02525">
        <ele>132.017</ele>
        <time>2019-10-14T03:52:40Z</time>
      </trkpt>
      <trkpt lat="37.131" lon="-8.02529">
        <ele>132.008</ele>
        <time>2019-10-14T03:53:00Z</time>
      </trkpt>
      <trkpt lat="37.13101" lon="-8.02535">
        <ele>132.099</ele>
        <time>2019-10-14T03:53:20Z</time>
      </trkpt>
      <trkpt lat="37.13104" lon="-8.02543">
        <ele>132.057</ele>
        <time>2019-10-14T03:53:40Z</time>
      </trkpt>
      <trkpt lat="37.13108" lon="-8.02553">
        <ele>132.049</ele>
        <time>2019-10-14T03:54:00Z</time>
      </trkpt>
      <trkpt lat="37.13141" lon="-8.02621">
        <ele>126.699</ele>
        <time>2019-10-14T03:54:20Z</time>
      </trkpt>
      <trkpt lat="37.13144" lon="-8.02626">
        <ele>126.381</ele>
        <time>2019-10-14T03:54:40Z</time>
      </trkpt>
      <trkpt lat="37.13145" lon="-8.02631">
        <ele>126.162</ele>
        <time>2019-10-14T03:55:00Z</time>
      </trkpt>
      <trkpt lat="37.13145" lon="-8.02637">
        <ele>125.924</ele>
        <time>2019-10-14T03:55:20Z</time>
      </trkpt>
      <trkpt lat="37.13143" lon="-8.02645">
        <ele>125.764</ele>
        <time>2019-10-14T03:55:40Z</time>
      </trkpt>
      <trkpt lat="37.13139" lon="-8.02654">
        <ele>125.582</ele>
        <time>2019-10-14T03:56:00Z</time>
      </trkpt>
      <trkpt lat="37.13134" lon="-8.02664">
        <ele>125.443</ele>
        <time>2019-10-14T03:56:20Z</time>
      </trkpt>
      <trkpt lat="37.13124" lon="-8.02688">
        <ele>124.917</ele>
        <time>2019-10-14T03:56:40Z</time>
      </trkpt>
      <trkpt lat="37.13121" lon="-8.027">
        <ele>124.408</ele>
        <time>2019-10-14T03:57:00Z</time>
      </trkpt>
      <trkpt lat="37.13119" lon="-8.02711">
        <ele>124.062</ele>
        <time>2019-10-14T03:57:20Z</time>
      </trkpt>
      <trkpt lat="37.13119" lon="-8.0272">
        <ele>123.65</ele>
        <time>2019-10-14T03:57:40Z</time>
      </trkpt>
      <trkpt lat="37.1312" lon="-8.02731">
        <ele>123.232</ele>
        <time>2019-10-14T03:58:00Z</time>
      </trkpt>
      <trkpt lat="37.13123" lon="-8.02743">
        <ele>122.822</ele>
        <time>2019-10-14T03:58:20Z</time>
      </trkpt>
      <trkpt lat="37.13139" lon="-8.02795">
        <ele>122.354</ele>
        <time>2019-10-14T03:58:40Z</time>
      </trkpt>
      <trkpt lat="37.1315" lon="-8.02832">
        <ele>122.215</ele>
        <time>2019-10-14T03:59:00Z</time>
      </trkpt>
      <trkpt lat="37.13152" lon="-8.02844">
        <ele>122.177</ele>
        <time>2019-10-14T03:59:20Z</time>
      </trkpt>
      <trkpt lat="37.13151" lon="-8.02857">
        <ele>122.197</ele>
        <time>2019-10-14T03:59:40Z</time>
      </trkpt>
      <trkpt lat="37.13147" lon="-8.0287">
        <ele>122.248</ele>
        <time>2019-10-14T04:00:00Z</time>
      </trkpt>
      <trkpt lat="37.13143" lon="-8.02883">
        <ele>122.161</ele>
        <time>2019-10-14T04:00:20Z</time>
      </trkpt>
      <trkpt lat="37.13137" lon="-8.02895">
        <ele>121.917</ele>
        <time>2019-10-14T04:00:40Z</time>
      </trkpt>
      <trkpt lat="37.13125" lon="-8.02923">
        <ele>121.608</ele>
        <time>2019-10-14T04:01:00Z</time>
      </trkpt>
      <trkpt lat="37.13124" lon="-8.02929">
        <ele>121.748</ele>
        <time>2019-10-14T04:01:20Z</time>
      </trkpt>
      <trkpt lat="37.13124" lon="-8.02935">
        <ele>121.866</ele>
        <time>2019-10-14T04:01:40Z</time>
      </trkpt>
      <trkpt lat="37.13125" lon="-8.02942">
        <ele>122.098</ele>
        <time>2019-10-14T04:02:00Z</time>
      </trkpt>
      <trkpt lat="37.13127" lon="-8.02951">
        <ele>122.598</ele>
        <time>2019-10-14T04:02:20Z</time>
      </trkpt>
      <trkpt lat="37.1313" lon="-8.02961">
        <ele>123.26</ele>
        <time>2019-10-14T04:02:40Z</time>
      </trkpt>
      <trkpt lat="37.13136" lon="-8.02985">
        <ele>124.331</ele>
        <time>2019-10-14T04:03:00Z</time>
      </trkpt>
      <trkpt lat="37.13137" lon="-8.02998">
        <ele>124.973</ele>
        <time>2019-10-14T04:03:20Z</time>
      </trkpt>
      <trkpt lat="37.13137" lon="-8.03012">
        <ele>125.363</ele>
        <time>2019-10-14T04:03:40Z</time>
      </trkpt>
      <trkpt lat="37.13134" lon="-8.03061">
        <ele>125.682</ele>
        <time>2019-10-14T04:04:00Z</time>
      </trkpt>
      <trkpt lat="37.13132" lon="-8.03092">
        <ele>125.143</ele>
        <time>2019-10-14T04:04:20Z</time>
      </trkpt>
      <trkpt lat="37.13132" lon="-8.03142">
        <ele>126.917</ele>
        <time>2019-10-14T04:04:40Z</time>
      </trkpt>
      <trkpt lat="37.13133" lon="-8.0315">
        <ele>127.508</ele>
        <time>2019-10-14T04:05:00Z</time>
      </trkpt>
      <trkpt lat="37.13134" lon="-8.03155">
        <ele>127.982</ele>
        <time>2019-10-14T04:05:20Z</time>
      </trkpt>
      <trkpt lat="37.13135" lon="-8.03159">
        <ele>128.29</ele>
        <time>2019-10-14T04:05:40Z</time>
      </trkpt>
      <trkpt lat="37.13136" lon="-8.03161">
        <ele>128.432</ele>
        <time>2019-10-14T04:06:00Z</time>
      </trkpt>
      <trkpt lat="37.13136" lon="-8.03162">
        <ele>128.512</ele>
        <time>2019-10-14T04:06:20Z</time>
      </trkpt>
      <trkpt lat="37.13137" lon="-8.03162">
        <ele>128.554</ele>
        <time>2019-10-14T04:06:40Z</time>
      </trkpt>
      <trkpt lat="37.13138" lon="-8.03163">
        <ele>128.725</ele>
        <time>2019-10-14T04:07:00Z</time>
      </trkpt>
      <trkpt lat="37.13143" lon="-8.03163">
        <ele>128.917</ele>
        <time>2019-10-14T04:07:20Z</time>
      </trkpt>
      <trkpt lat="37.13148" lon="-8.0316">
        <ele>128.937</ele>
        <time>2019-10-14T04:07:40Z</time>
      </trkpt>
      <trkpt lat="37.13153" lon="-8.03156">
        <ele>129.063</ele>
        <time>2019-10-14T04:08:00Z</time>
      </trkpt>
      <trkpt lat="37.13178" lon="-8.03142">
        <ele>129.144</ele>
        <time>2019-10-14T04:08:20Z</time>
      </trkpt>
      <trkpt lat="37.13212" lon="-8.03123">
        <ele>131.118</ele>
        <time>2019-10-14T04:08:40Z</time>
      </trkpt>
      <trkpt lat="37.13245" lon="-8.03106">
        <ele>135.808</ele>
        <time>2019-10-14T04:09:00Z</time>
      </trkpt>
      <trkpt lat="37.1326" lon="-8.03101">
        <ele>137.19</ele>
        <time>2019-10-14T04:09:20Z</time>
      </trkpt>
      <trkpt lat="37.13262" lon="-8.03098">
        <ele>137.298</ele>
        <time>2019-10-14T04:09:40Z</time>
      </trkpt>
      <trkpt lat="37.13287" lon="-8.0308">
        <ele>138.55</ele>
        <time>2019-10-14T04:10:00Z</time>
      </trkpt>
      <trkpt lat="37.13329" lon="-8.03056">
        <ele>140.71</ele>
        <time>2019-10-14T04:10:20Z</time>
      </trkpt>
      <trkpt lat="37.13397" lon="-8.03015">
        <ele>141.552</ele>
        <time>2019-10-14T04:10:40Z</time>
      </trkpt>
      <trkpt lat="37.13406" lon="-8.03007">
        <ele>141.673</ele>
        <time>2019-10-14T04:11:00Z</time>
      </trkpt>
      <trkpt lat="37.13409" lon="-8.03004">
        <ele>141.625</ele>
        <time>2019-10-14T04:11:20Z</time>
      </trkpt>
      <trkpt lat="37.13412" lon="-8.03">
        <ele>141.645</ele>
        <time>2019-10-14T04:11:40Z</time>
      </trkpt>
      <trkpt lat="37.13428" lon="-8.02981">
        <ele>142.896</ele>
        <time>2019-10-14T04:12:00Z</time>
      </trkpt>
      <trkpt lat="37.13466" lon="-8.02964">
        <ele>145.131</ele>
        <time>2019-10-14T04:12:20Z</time>
      </trkpt>
      <trkpt lat="37.13507" lon="-8.02936">
        <ele>148.424</ele>
        <time>2019-10-14T04:12:40Z</time>
      </trkpt>
      <trkpt lat="37.13587" lon="-8.02882">
        <ele>151.908</ele>
        <time>2019-10-14T04:13:00Z</time>
      </trkpt>
      <trkpt lat="37.13603" lon="-8.02872">
        <ele>152.543</ele>
        <time>2019-10-14T04:13:20Z</time>
      </trkpt>
      <trkpt lat="37.13608" lon="-8.02869">
        <ele>152.821</ele>
        <time>2019-10-14T04:13:40Z</time>
      </trkpt>
      <trkpt lat="37.13626" lon="-8.0286">
        <ele>153.053</ele>
        <time>2019-10-14T04:14:00Z</time>
      </trkpt>
      <trkpt lat="37.13632" lon="-8.02856">
        <ele>153.383</ele>
        <time>2019-10-14T04:14:20Z</time>
      </trkpt>
      <trkpt lat="37.13701" lon="-8.02801">
        <ele>157.245</ele>
        <time>2019-10-14T04:14:40Z</time>
      </trkpt>
      <trkpt lat="37.13786" lon="-8.02741">
        <ele>158.586</ele>
        <time>2019-10-14T04:15:00Z</time>
      </trkpt>
      <trkpt lat="37.138" lon="-8.02733">
        <ele>158.918</ele>
        <time>2019-10-14T04:15:20Z</time>
      </trkpt>
      <trkpt lat="37.13804" lon="-8.02735">
        <ele>159.088</ele>
        <time>2019-10-14T04:15:40Z</time>
      </trkpt>
      <trkpt lat="37.13808" lon="-8.02738">
        <ele>159.211</ele>
        <time>2019-10-14T04:16:00Z</time>
      </trkpt>
      <trkpt lat="37.13811" lon="-8.02745">
        <ele>159.421</ele>
        <time>2019-10-14T04:16:20Z</time>
      </trkpt>
      <trkpt lat="37.13814" lon="-8.02753">
        <ele>159.603</ele>
        <time>2019-10-14T04:16:40Z</time>
      </trkpt>
      <trkpt lat="37.13817" lon="-8.02762">
        <ele>159.608</ele>
        <time>2019-10-14T04:17:00Z</time>
      </trkpt>
      <trkpt lat="37.13832" lon="-8.02817">
        <ele>160.655</ele>
        <time>2019-10-14T04:17:20Z</time>
      </trkpt>
      <trkpt lat="37.13861" lon="-8.02874">
        <ele>160.583</ele>
        <time>2019-10-14T04:17:40Z</time>
      </trkpt>
      <trkpt lat="37.13889" lon="-8.02921">
        <ele>160.995</ele>
        <time>2019-10-14T04:18:00Z</time>
      </trkpt>
      <trkpt lat="37.13892" lon="-8.02931">
        <ele>160.695</ele>
        <time>2019-10-14T04:18:20Z</time>
      </trkpt>
      <trkpt lat="37.13893" lon="-8.02943">
        <ele>160.227</ele>
        <time>2019-10-14T04:18:40Z</time>
      </trkpt>
      <trkpt lat="37.13896" lon="-8.02966">
        <ele>158.798</ele>
        <time>2019-10-14T04:19:00Z</time>
      </trkpt>
      <trkpt lat="37.13903" lon="-8.02987">
        <ele>157.76</ele>
        <time>2019-10-14T04:19:20Z</time>
      </trkpt>
      <trkpt lat="37.1391" lon="-8.02996">
        <ele>157.77</ele>
        <time>2019-10-14T04:19:40Z</time>
      </trkpt>
      <trkpt lat="37.13918" lon="-8.03004">
        <ele>157.922</ele>
        <time>2019-10-14T04:20:00Z</time>
      </trkpt>
      <trkpt lat="37.13953" lon="-8.0303">
        <ele>158.662</ele>
        <time>2019-10-14T04:20:20Z</time>
      </trkpt>
      <trkpt lat="37.13963" lon="-8.03034">
        <ele>158.108</ele>
        <time>2019-10-14T04:20:40Z</time>
      </trkpt>
      <trkpt lat="37.13974" lon="-8.03036">
        <ele>157.608</ele>
        <time>2019-10-14T04:21:00Z</time>
      </trkpt>
      <trkpt lat="37.13986" lon="-8.03037">
        <ele>157.276</ele>
        <time>2019-10-14T04:21:20Z</time>
      </trkpt>
      <trkpt lat="37.13998" lon="-8.03037">
        <ele>156.894</ele>
        <time>2019-10-14T04:21:40Z</time>
      </trkpt>
      <trkpt lat="37.1401" lon="-8.03036">
        <ele>157.126</ele>
        <time>2019-10-14T04:22:00Z</time>
      </trkpt>
      <trkpt lat="37.14106" lon="-8.03022">
        <ele>162.666</ele>
        <time>2019-10-14T04:22:20Z</time>
      </trkpt>
      <trkpt lat="37.14111" lon="-8.03025">
        <ele>162.448</ele>
        <time>2019-10-14T04:22:40Z</time>
      </trkpt>
      <trkpt lat="37.14114" lon="-8.0303">
        <ele>162.029</ele>
        <time>2019-10-14T04:23:00Z</time>
      </trkpt>
      <trkpt lat="37.14114" lon="-8.03037">
        <ele>161.551</ele>
        <time>2019-10-14T04:23:20Z</time>
      </trkpt>
      <trkpt lat="37.14114" lon="-8.03047">
        <ele>160.791</ele>
        <time>2019-10-14T04:23:40Z</time>
      </trkpt>
      <trkpt lat="37.14113" lon="-8.03059">
        <ele>159.989</ele>
        <time>2019-10-14T04:24:00Z</time>
      </trkpt>
      <trkpt lat="37.14112" lon="-8.0307">
        <ele>159.506</ele>
        <time>2019-10-14T04:24:20Z</time>
      </trkpt>
      <trkpt lat="37.14116" lon="-8.03109">
        <ele>159.026</ele>
        <time>2019-10-14T04:24:40Z</time>
      </trkpt>
      <trkpt lat="37.14119" lon="-8.03115">
        <ele>158.908</ele>
        <time>2019-10-14T04:25:00Z</time>
      </trkpt>
      <trkpt lat="37.14122" lon="-8.03118">
        <ele>158.892</ele>
        <time>2019-10-14T04:25:20Z</time>
      </trkpt>
      <trkpt lat="37.14128" lon="-8.03119">
        <ele>158.73</ele>
        <time>2019-10-14T04:25:40Z</time>
      </trkpt>
      <trkpt lat="37.14136" lon="-8.03117">
        <ele>158.892</ele>
        <time>2019-10-14T04:26:00Z</time>
      </trkpt>
      <trkpt lat="37.14145" lon="-8.03113">
        <ele>158.782</ele>
        <time>2019-10-14T04:26:20Z</time>
      </trkpt>
      <trkpt lat="37.14154" lon="-8.03107">
        <ele>158.574</ele>
        <time>2019-10-14T04:26:40Z</time>
      </trkpt>
      <trkpt lat="37.14165" lon="-8.03099">
        <ele>158.145</ele>
        <time>2019-10-14T04:27:00Z</time>
      </trkpt>
      <trkpt lat="37.142" lon="-8.03077">
        <ele>157.487</ele>
        <time>2019-10-14T04:27:20Z</time>
      </trkpt>
      <trkpt lat="37.14206" lon="-8.03077">
        <ele>157.427</ele>
        <time>2019-10-14T04:27:40Z</time>
      </trkpt>
      <trkpt lat="37.14212" lon="-8.0308">
        <ele>157.289</ele>
        <time>2019-10-14T04:28:00Z</time>
      </trkpt>
      <trkpt lat="37.14218" lon="-8.03087">
        <ele>156.806</ele>
        <time>2019-10-14T04:28:20Z</time>
      </trkpt>
      <trkpt lat="37.14225" lon="-8.03096">
        <ele>156.026</ele>
        <time>2019-10-14T04:28:40Z</time>
      </trkpt>
      <trkpt lat="37.1427" lon="-8.03166">
        <ele>150.308</ele>
        <time>2019-10-14T04:29:00Z</time>
      </trkpt>
      <trkpt lat="37.14278" lon="-8.03184">
        <ele>148.722</ele>
        <time>2019-10-14T04:29:20Z</time>
      </trkpt>
      <trkpt lat="37.14285" lon="-8.03204">
        <ele>147.66</ele>
        <time>2019-10-14T04:29:40Z</time>
      </trkpt>
      <trkpt lat="37.14307" lon="-8.03278">
        <ele>143.122</ele>
        <time>2019-10-14T04:30:00Z</time>
      </trkpt>
      <trkpt lat="37.14311" lon="-8.03293">
        <ele>143.212</ele>
        <time>2019-10-14T04:30:20Z</time>
      </trkpt>
      <trkpt lat="37.14317" lon="-8.03306">
        <ele>143.054</ele>
        <time>2019-10-14T04:30:40Z</time>
      </trkpt>
      <trkpt lat="37.14324" lon="-8.03317">
        <ele>142.975</ele>
        <time>2019-10-14T04:31:00Z</time>
      </trkpt>
      <trkpt lat="37.14332" lon="-8.03326">
        <ele>143.087</ele>
        <time>2019-10-14T04:31:20Z</time>
      </trkpt>
      <trkpt lat="37.1434" lon="-8.03333">
        <ele>143.227</ele>
        <time>2019-10-14T04:31:40Z</time>
      </trkpt>
      <trkpt lat="37.14346" lon="-8.03337">
        <ele>143.671</ele>
        <time>2019-10-14T04:32:00Z</time>
      </trkpt>
      <trkpt lat="37.14366" lon="-8.0335">
        <ele>144.641</ele>
        <time>2019-10-14T04:32:20Z</time>
      </trkpt>
      <trkpt lat="37.14372" lon="-8.03353">
        <ele>144.515</ele>
        <time>2019-10-14T04:32:40Z</time>
      </trkpt>
      <trkpt lat="37.14398" lon="-8.0336">
        <ele>144.408</ele>
        <time>2019-10-14T04:33:00Z</time>
      </trkpt>
      <trkpt lat="37.14399" lon="-8.03361">
        <ele>144.461</ele>
        <time>2019-10-14T04:33:20Z</time>
      </trkpt>
      <trkpt lat="37.14399" lon="-8.0336">
        <ele>144.459</ele>
        <time>2019-10-14T04:33:40Z</time>
      </trkpt>
      <trkpt lat="37.144" lon="-8.03361">
        <ele>144.441</ele>
        <time>2019-10-14T04:34:00Z</time>
      </trkpt>
      <trkpt lat="37.14413" lon="-8.03368">
        <ele>145.171</ele>
        <time>2019-10-14T04:34:20Z</time>
      </trkpt>
      <trkpt lat="37.14421" lon="-8.0337">
        <ele>145.763</ele>
        <time>2019-10-14T04:34:40Z</time>
      </trkpt>
      <trkpt lat="37.14432" lon="-8.03372">
        <ele>146.514</ele>
        <time>2019-10-14T04:35:00Z</time>
      </trkpt>
      <trkpt lat="37.14467" lon="-8.03381">
        <ele>149.626</ele>
        <time>2019-10-14T04:35:20Z</time>
      </trkpt>
      <trkpt lat="37.14479" lon="-8.03385">
        <ele>150.616</ele>
        <time>2019-10-14T04:35:40Z</time>
      </trkpt>
      <trkpt lat="37.14522" lon="-8.03404">
        <ele>154.967</ele>
        <time>2019-10-14T04:36:00Z</time>
      </trkpt>
      <trkpt lat="37.14532" lon="-8.03409">
        <ele>155.981</ele>
        <time>2019-10-14T04:36:20Z</time>
      </trkpt>
      <trkpt lat="37.14542" lon="-8.03413">
        <ele>156.619</ele>
        <time>2019-10-14T04:36:40Z</time>
      </trkpt>
      <trkpt lat="37.14552" lon="-8.03417">
        <ele>157.008</ele>
        <time>2019-10-14T04:37:00Z</time>
      </trkpt>
      <trkpt lat="37.14562" lon="-8.03421">
        <ele>157.83</ele>
        <time>2019-10-14T04:37:20Z</time>
      </trkpt>
      <trkpt lat="37.14572" lon="-8.03425">
        <ele>159.088</ele>
        <time>2019-10-14T04:37:40Z</time>
      </trkpt>
      <trkpt lat="37.14593" lon="-8.03434">
        <ele>162.36</ele>
        <time>2019-10-14T04:38:00Z</time>
      </trkpt>
      <trkpt lat="37.14603" lon="-8.03439">
        <ele>164.31</ele>
        <time>2019-10-14T04:38:20Z</time>
      </trkpt>
      <trkpt lat="37.14614" lon="-8.03444">
        <ele>166.372</ele>
        <time>2019-10-14T04:38:40Z</time>
      </trkpt>
      <trkpt lat="37.14633" lon="-8.03456">
        <ele>169.283</ele>
        <time>2019-10-14T04:39:00Z</time>
      </trkpt>
      <trkpt lat="37.14641" lon="-8.03464">
        <ele>170.745</ele>
        <time>2019-10-14T04:39:20Z</time>
      </trkpt>
      <trkpt lat="37.14649" lon="-8.03473">
        <ele>172.185</ele>
        <time>2019-10-14T04:39:40Z</time>
      </trkpt>
      <trkpt lat="37.14673" lon="-8.03501">
        <ele>176.266</ele>
        <time>2019-10-14T04:40:00Z</time>
      </trkpt>
      <trkpt lat="37.14682" lon="-8.03509">
        <ele>176.329</ele>
        <time>2019-10-14T04:40:20Z</time>
      </trkpt>
      <trkpt lat="37.14715" lon="-8.03531">
        <ele>178.321</ele>
        <time>2019-10-14T04:40:40Z</time>
      </trkpt>
      <trkpt lat="37.14727" lon="-8.03538">
        <ele>179.708</ele>
        <time>2019-10-14T04:41:00Z</time>
      </trkpt>
      <trkpt lat="37.1474" lon="-8.03545">
        <ele>181.11</ele>
        <time>2019-10-14T04:41:20Z</time>
      </trkpt>
      <trkpt lat="37.14807" lon="-8.0358">
        <ele>188.938</ele>
        <time>2019-10-14T04:41:40Z</time>
      </trkpt>
      <trkpt lat="37.14845" lon="-8.03602">
        <ele>192.12</ele>
        <time>2019-10-14T04:42:00Z</time>
      </trkpt>
      <trkpt lat="37.14869" lon="-8.03613">
        <ele>192.92</ele>
        <time>2019-10-14T04:42:20Z</time>
      </trkpt>
      <trkpt lat="37.14909" lon="-8.03627">
        <ele>194.472</ele>
        <time>2019-10-14T04:42:40Z</time>
      </trkpt>
      <trkpt lat="37.14951" lon="-8.03634">
        <ele>198.743</ele>
        <time>2019-10-14T04:43:00Z</time>
      </trkpt>
      <trkpt lat="37.15012" lon="-8.03639">
        <ele>205.815</ele>
        <time>2019-10-14T04:43:20Z</time>
      </trkpt>
      <trkpt lat="37.1506" lon="-8.03644">
        <ele>211.375</ele>
        <time>2019-10-14T04:43:40Z</time>
      </trkpt>
      <trkpt lat="37.15091" lon="-8.03645">
        <ele>214.459</ele>
        <time>2019-10-14T04:44:00Z</time>
      </trkpt>
      <trkpt lat="37.15129" lon="-8.03645">
        <ele>219.003</ele>
        <time>2019-10-14T04:44:20Z</time>
      </trkpt>
      <trkpt lat="37.15168" lon="-8.03646">
        <ele>224.323</ele>
        <time>2019-10-14T04:44:40Z</time>
      </trkpt>
      <trkpt lat="37.15181" lon="-8.03646">
        <ele>224.908</ele>
        <time>2019-10-14T04:45:00Z</time>
      </trkpt>
      <trkpt lat="37.15193" lon="-8.03647">
        <ele>225.579</ele>
        <time>2019-10-14T04:45:20Z</time>
      </trkpt>
      <trkpt lat="37.15204" lon="-8.03647">
        <ele>226.057</ele>
        <time>2019-10-14T04:45:40Z</time>
      </trkpt>
      <trkpt lat="37.15215" lon="-8.03649">
        <ele>226.589</ele>
        <time>2019-10-14T04:46:00Z</time>
      </trkpt>
      <trkpt lat="37.15226" lon="-8.03653">
        <ele>227.479</ele>
        <time>2019-10-14T04:46:20Z</time>
      </trkpt>
      <trkpt lat="37.15238" lon="-8.0366">
        <ele>228.731</ele>
        <time>2019-10-14T04:46:40Z</time>
      </trkpt>
      <trkpt lat="37.15261" lon="-8.03674">
        <ele>230.922</ele>
        <time>2019-10-14T04:47:00Z</time>
      </trkpt>
      <trkpt lat="37.15306" lon="-8.03701">
        <ele>233.814</ele>
        <time>2019-10-14T04:47:20Z</time>
      </trkpt>
      <trkpt lat="37.15338" lon="-8.03714">
        <ele>236.234</ele>
        <time>2019-10-14T04:47:40Z</time>
      </trkpt>
      <trkpt lat="37.15408" lon="-8.03742">
        <ele>240.637</ele>
        <time>2019-10-14T04:48:00Z</time>
      </trkpt>
      <trkpt lat="37.15419" lon="-8.03749">
        <ele>241.449</ele>
        <time>2019-10-14T04:48:20Z</time>
      </trkpt>
      <trkpt lat="37.15429" lon="-8.03758">
        <ele>243.213</ele>
        <time>2019-10-14T04:48:40Z</time>
      </trkpt>
      <trkpt lat="37.1545" lon="-8.03779">
        <ele>247.808</ele>
        <time>2019-10-14T04:49:00Z</time>
      </trkpt>
      <trkpt lat="37.15482" lon="-8.03811">
        <ele>251.527</ele>
        <time>2019-10-14T04:49:20Z</time>
      </trkpt>
      <trkpt lat="37.15522" lon="-8.03837">
        <ele>252.795</ele>
        <time>2019-10-14T04:49:40Z</time>
      </trkpt>
      <trkpt lat="37.15575" lon="-8.0387">
        <ele>253.857</ele>
        <time>2019-10-14T04:50:00Z</time>
      </trkpt>
      <trkpt lat="37.15587" lon="-8.03877">
        <ele>254.777</ele>
        <time>2019-10-14T04:50:20Z</time>
      </trkpt>
      <trkpt lat="37.15598" lon="-8.03881">
        <ele>255.449</ele>
        <time>2019-10-14T04:50:40Z</time>
      </trkpt>
      <trkpt lat="37.15609" lon="-8.03883">
        <ele>256.12</ele>
        <time>2019-10-14T04:51:00Z</time>
      </trkpt>
      <trkpt lat="37.1562" lon="-8.03884">
        <ele>256.442</ele>
        <time>2019-10-14T04:51:20Z</time>
      </trkpt>
      <trkpt lat="37.1563" lon="-8.03883">
        <ele>256.722</ele>
        <time>2019-10-14T04:51:40Z</time>
      </trkpt>
      <trkpt lat="37.15638" lon="-8.03882">
        <ele>257.028</ele>
        <time>2019-10-14T04:52:00Z</time>
      </trkpt>
      <trkpt lat="37.15645" lon="-8.03879">
        <ele>257.089</ele>
        <time>2019-10-14T04:52:20Z</time>
      </trkpt>
      <trkpt lat="37.15652" lon="-8.03878">
        <ele>257.017</ele>
        <time>2019-10-14T04:52:40Z</time>
      </trkpt>
      <trkpt lat="37.1566" lon="-8.03877">
        <ele>257.008</ele>
        <time>2019-10-14T04:53:00Z</time>
      </trkpt>
      <trkpt lat="37.15668" lon="-8.03877">
        <ele>257.016</ele>
        <time>2019-10-14T04:53:20Z</time>
      </trkpt>
      <trkpt lat="37.15677" lon="-8.0388">
        <ele>257.284</ele>
        <time>2019-10-14T04:53:40Z</time>
      </trkpt>
      <trkpt lat="37.15686" lon="-8.03883">
        <ele>257.646</ele>
        <time>2019-10-14T04:54:00Z</time>
      </trkpt>
      <trkpt lat="37.15696" lon="-8.03887">
        <ele>257.926</ele>
        <time>2019-10-14T04:54:20Z</time>
      </trkpt>
      <trkpt lat="37.1578" lon="-8.03926">
        <ele>261.378</ele>
        <time>2019-10-14T04:54:40Z</time>
      </trkpt>
      <trkpt lat="37.15917" lon="-8.04005">
        <ele>262.759</ele>
        <time>2019-10-14T04:55:00Z</time>
      </trkpt>
      <trkpt lat="37.15978" lon="-8.04053">
        <ele>261.121</ele>
        <time>2019-10-14T04:55:20Z</time>
      </trkpt>
      <trkpt lat="37.15987" lon="-8.04064">
        <ele>260.431</ele>
        <time>2019-10-14T04:55:40Z</time>
      </trkpt>
      <trkpt lat="37.15996" lon="-8.04075">
        <ele>260.071</ele>
        <time>2019-10-14T04:56:00Z</time>
      </trkpt>
      <trkpt lat="37.16012" lon="-8.04101">
        <ele>260.841</ele>
        <time>2019-10-14T04:56:20Z</time>
      </trkpt>
      <trkpt lat="37.1604" lon="-8.04139">
        <ele>259.715</ele>
        <time>2019-10-14T04:56:40Z</time>
      </trkpt>
      <trkpt lat="37.1606" lon="-8.0416">
        <ele>258.108</ele>
        <time>2019-10-14T04:57:00Z</time>
      </trkpt>
      <trkpt lat="37.16072" lon="-8.04169">
        <ele>256.821</ele>
        <time>2019-10-14T04:57:20Z</time>
      </trkpt>
      <trkpt lat="37.16085" lon="-8.04177">
        <ele>256.199</ele>
        <time>2019-10-14T04:57:40Z</time>
      </trkpt>
      <trkpt lat="37.16194" lon="-8.04229">
        <ele>257.341</ele>
        <time>2019-10-14T04:58:00Z</time>
      </trkpt>
      <trkpt lat="37.16206" lon="-8.0423">
        <ele>255.421</ele>
        <time>2019-10-14T04:58:20Z</time>
      </trkpt>
      <trkpt lat="37.16219" lon="-8.0423">
        <ele>253.313</ele>
        <time>2019-10-14T04:58:40Z</time>
      </trkpt>
      <trkpt lat="37.16233" lon="-8.04229">
        <ele>252.174</ele>
        <time>2019-10-14T04:59:00Z</time>
      </trkpt>
      <trkpt lat="37.16247" lon="-8.04227">
        <ele>251.246</ele>
        <time>2019-10-14T04:59:20Z</time>
      </trkpt>
      <trkpt lat="37.16306" lon="-8.04224">
        <ele>253.096</ele>
        <time>2019-10-14T04:59:40Z</time>
      </trkpt>
      <trkpt lat="37.16319" lon="-8.04221">
        <ele>253.541</ele>
        <time>2019-10-14T05:00:00Z</time>
      </trkpt>
      <trkpt lat="37.16332" lon="-8.04217">
        <ele>254.181</ele>
        <time>2019-10-14T05:00:20Z</time>
      </trkpt>
      <trkpt lat="37.16393" lon="-8.04191">
        <ele>254.209</ele>
        <time>2019-10-14T05:00:40Z</time>
      </trkpt>
      <trkpt lat="37.16468" lon="-8.04148">
        <ele>256.708</ele>
        <time>2019-10-14T05:01:00Z</time>
      </trkpt>
      <trkpt lat="37.16479" lon="-8.04147">
        <ele>257.048</ele>
        <time>2019-10-14T05:01:20Z</time>
      </trkpt>
      <trkpt lat="37.1659" lon="-8.04137">
        <ele>250.956</ele>
        <time>2019-10-14T05:01:40Z</time>
      </trkpt>
      <trkpt lat="37.1662" lon="-8.04135">
        <ele>250.868</ele>
        <time>2019-10-14T05:02:00Z</time>
      </trkpt>
      <trkpt lat="37.16627" lon="-8.04133">
        <ele>250.788</ele>
        <time>2019-10-14T05:02:20Z</time>
      </trkpt>
      <trkpt lat="37.16633" lon="-8.04129">
        <ele>250.63</ele>
        <time>2019-10-14T05:02:40Z</time>
      </trkpt>
      <trkpt lat="37.1664" lon="-8.04123">
        <ele>250.331</ele>
        <time>2019-10-14T05:03:00Z</time>
      </trkpt>
      <trkpt lat="37.16648" lon="-8.04115">
        <ele>249.123</ele>
        <time>2019-10-14T05:03:20Z</time>
      </trkpt>
      <trkpt lat="37.1672" lon="-8.04049">
        <ele>240.373</ele>
        <time>2019-10-14T05:03:40Z</time>
      </trkpt>
      <trkpt lat="37.16771" lon="-8.04002">
        <ele>239.139</ele>
        <time>2019-10-14T05:04:00Z</time>
      </trkpt>
      <trkpt lat="37.16878" lon="-8.03912">
        <ele>241.701</ele>
        <time>2019-10-14T05:04:20Z</time>
      </trkpt>
      <trkpt lat="37.16906" lon="-8.03898">
        <ele>242.621</ele>
        <time>2019-10-14T05:04:40Z</time>
      </trkpt>
      <trkpt lat="37.16908" lon="-8.03899">
        <ele>242.708</ele>
        <time>2019-10-14T05:05:00Z</time>
      </trkpt>
      <trkpt lat="37.16915" lon="-8.03904">
        <ele>242.997</ele>
        <time>2019-10-14T05:05:20Z</time>
      </trkpt>
      <trkpt lat="37.1692" lon="-8.03904">
        <ele>243.055</ele>
        <time>2019-10-14T05:05:40Z</time>
      </trkpt>
      <trkpt lat="37.16927" lon="-8.03904">
        <ele>243.027</ele>
        <time>2019-10-14T05:06:00Z</time>
      </trkpt>
      <trkpt lat="37.16965" lon="-8.03896">
        <ele>243.077</ele>
        <time>2019-10-14T05:06:20Z</time>
      </trkpt>
      <trkpt lat="37.16989" lon="-8.03894">
        <ele>244.269</ele>
        <time>2019-10-14T05:06:40Z</time>
      </trkpt>
      <trkpt lat="37.16993" lon="-8.03893">
        <ele>244.56</ele>
        <time>2019-10-14T05:07:00Z</time>
      </trkpt>
      <trkpt lat="37.16995" lon="-8.03892">
        <ele>244.782</ele>
        <time>2019-10-14T05:07:20Z</time>
      </trkpt>
      <trkpt lat="37.16997" lon="-8.03891">
        <ele>244.852</ele>
        <time>2019-10-14T05:07:40Z</time>
      </trkpt>
      <trkpt lat="37.16999" lon="-8.0389">
        <ele>244.999</ele>
        <time>2019-10-14T05:08:00Z</time>
      </trkpt>
      <trkpt lat="37.17" lon="-8.03887">
        <ele>245.007</ele>
        <time>2019-10-14T05:08:20Z</time>
      </trkpt>
      <trkpt lat="37.17004" lon="-8.03879">
        <ele>245.327</ele>
        <time>2019-10-14T05:08:40Z</time>
      </trkpt>
      <trkpt lat="37.17006" lon="-8.03876">
        <ele>245.408</ele>
        <time>2019-10-14T05:09:00Z</time>
      </trkpt>
      <trkpt lat="37.17009" lon="-8.03874">
        <ele>245.753</ele>
        <time>2019-10-14T05:09:20Z</time>
      </trkpt>
      <trkpt lat="37.17014" lon="-8.03872">
        <ele>246.021</ele>
        <time>2019-10-14T05:09:40Z</time>
      </trkpt>
      <trkpt lat="37.1702" lon="-8.0387">
        <ele>246.423</ele>
        <time>2019-10-14T05:10:00Z</time>
      </trkpt>
      <trkpt lat="37.17032" lon="-8.03866">
        <ele>247.033</ele>
        <time>2019-10-14T05:10:20Z</time>
      </trkpt>
      <trkpt lat="37.17039" lon="-8.03861">
        <ele>247.015</ele>
        <time>2019-10-14T05:10:40Z</time>
      </trkpt>
      <trkpt lat="37.17045" lon="-8.03856">
        <ele>246.616</ele>
        <time>2019-10-14T05:11:00Z</time>
      </trkpt>
      <trkpt lat="37.17051" lon="-8.03851">
        <ele>246.268</ele>
        <time>2019-10-14T05:11:20Z</time>
      </trkpt>
      <trkpt lat="37.17058" lon="-8.03846">
        <ele>246.058</ele>
        <time>2019-10-14T05:11:40Z</time>
      </trkpt>
      <trkpt lat="37.17066" lon="-8.03843">
        <ele>246.379</ele>
        <time>2019-10-14T05:12:00Z</time>
      </trkpt>
      <trkpt lat="37.17076" lon="-8.03841">
        <ele>246.805</ele>
        <time>2019-10-14T05:12:20Z</time>
      </trkpt>
      <trkpt lat="37.17128" lon="-8.03824">
        <ele>247.025</ele>
        <time>2019-10-14T05:12:40Z</time>
      </trkpt>
      <trkpt lat="37.17136" lon="-8.0382">
        <ele>247.008</ele>
        <time>2019-10-14T05:13:00Z</time>
      </trkpt>
      <trkpt lat="37.17167" lon="-8.03797">
        <ele>249.081</ele>
        <time>2019-10-14T05:13:20Z</time>
      </trkpt>
      <trkpt lat="37.17172" lon="-8.03789">
        <ele>249.499</ele>
        <time>2019-10-14T05:13:40Z</time>
      </trkpt>
      <trkpt lat="37.17178" lon="-8.0378">
        <ele>249.891</ele>
        <time>2019-10-14T05:14:00Z</time>
      </trkpt>
      <trkpt lat="37.17187" lon="-8.03763">
        <ele>250.261</ele>
        <time>2019-10-14T05:14:20Z</time>
      </trkpt>
      <trkpt lat="37.17192" lon="-8.03756">
        <ele>250.223</ele>
        <time>2019-10-14T05:14:40Z</time>
      </trkpt>
      <trkpt lat="37.17199" lon="-8.0375">
        <ele>250.044</ele>
        <time>2019-10-14T05:15:00Z</time>
      </trkpt>
      <trkpt lat="37.17207" lon="-8.03743">
        <ele>249.776</ele>
        <time>2019-10-14T05:15:20Z</time>
      </trkpt>
      <trkpt lat="37.17217" lon="-8.03736">
        <ele>249.556</ele>
        <time>2019-10-14T05:15:40Z</time>
      </trkpt>
      <trkpt lat="37.17271" lon="-8.03685">
        <ele>248.821</ele>
        <time>2019-10-14T05:16:00Z</time>
      </trkpt>
      <trkpt lat="37.17281" lon="-8.03678">
        <ele>249.041</ele>
        <time>2019-10-14T05:16:20Z</time>
      </trkpt>
      <trkpt lat="37.173" lon="-8.03667">
        <ele>249.005</ele>
        <time>2019-10-14T05:16:40Z</time>
      </trkpt>
      <trkpt lat="37.1731" lon="-8.03663">
        <ele>248.808</ele>
        <time>2019-10-14T05:17:00Z</time>
      </trkpt>
      <trkpt lat="37.17337" lon="-8.03654">
        <ele>248.056</ele>
        <time>2019-10-14T05:17:20Z</time>
      </trkpt>
      <trkpt lat="37.17346" lon="-8.03653">
        <ele>248.054</ele>
        <time>2019-10-14T05:17:40Z</time>
      </trkpt>
      <trkpt lat="37.17356" lon="-8.03653">
        <ele>248.076</ele>
        <time>2019-10-14T05:18:00Z</time>
      </trkpt>
      <trkpt lat="37.17394" lon="-8.03656">
        <ele>248.126</ele>
        <time>2019-10-14T05:18:20Z</time>
      </trkpt>
      <trkpt lat="37.17404" lon="-8.03654">
        <ele>248.238</ele>
        <time>2019-10-14T05:18:40Z</time>
      </trkpt>
      <trkpt lat="37.17414" lon="-8.03651">
        <ele>248.529</ele>
        <time>2019-10-14T05:19:00Z</time>
      </trkpt>
      <trkpt lat="37.17424" lon="-8.03647">
        <ele>249.281</ele>
        <time>2019-10-14T05:19:20Z</time>
      </trkpt>
      <trkpt lat="37.17434" lon="-8.03644">
        <ele>250.061</ele>
        <time>2019-10-14T05:19:40Z</time>
      </trkpt>
      <trkpt lat="37.17445" lon="-8.03643">
        <ele>250.769</ele>
        <time>2019-10-14T05:20:00Z</time>
      </trkpt>
      <trkpt lat="37.17456" lon="-8.03643">
        <ele>250.404</ele>
        <time>2019-10-14T05:20:20Z</time>
      </trkpt>
      <trkpt lat="37.17541" lon="-8.03637">
        <ele>246.524</ele>
        <time>2019-10-14T05:20:40Z</time>
      </trkpt>
      <trkpt lat="37.1755" lon="-8.03633">
        <ele>246.208</ele>
        <time>2019-10-14T05:21:00Z</time>
      </trkpt>
      <trkpt lat="37.17582" lon="-8.03617">
        <ele>243.93</ele>
        <time>2019-10-14T05:21:20Z</time>
      </trkpt>
      <trkpt lat="37.17589" lon="-8.03616">
        <ele>243.498</ele>
        <time>2019-10-14T05:21:40Z</time>
      </trkpt>
      <trkpt lat="37.17595" lon="-8.03616">
        <ele>243.02</ele>
        <time>2019-10-14T05:22:00Z</time>
      </trkpt>
      <trkpt lat="37.176" lon="-8.03617">
        <ele>242.69</ele>
        <time>2019-10-14T05:22:20Z</time>
      </trkpt>
      <trkpt lat="37.17605" lon="-8.0362">
        <ele>242.142</ele>
        <time>2019-10-14T05:22:40Z</time>
      </trkpt>
      <trkpt lat="37.1761" lon="-8.03626">
        <ele>241.583</ele>
        <time>2019-10-14T05:23:00Z</time>
      </trkpt>
      <trkpt lat="37.17615" lon="-8.03633">
        <ele>241.195</ele>
        <time>2019-10-14T05:23:20Z</time>
      </trkpt>
      <trkpt lat="37.1762" lon="-8.03641">
        <ele>240.635</ele>
        <time>2019-10-14T05:23:40Z</time>
      </trkpt>
      <trkpt lat="37.17625" lon="-8.0365">
        <ele>240.194</ele>
        <time>2019-10-14T05:24:00Z</time>
      </trkpt>
      <trkpt lat="37.17628" lon="-8.03657">
        <ele>239.757</ele>
        <time>2019-10-14T05:24:20Z</time>
      </trkpt>
      <trkpt lat="37.17632" lon="-8.03662">
        <ele>239.422</ele>
        <time>2019-10-14T05:24:40Z</time>
      </trkpt>
      <trkpt lat="37.17637" lon="-8.03666">
        <ele>239.108</ele>
        <time>2019-10-14T05:25:00Z</time>
      </trkpt>
      <trkpt lat="37.17644" lon="-8.0367">
        <ele>238.593</ele>
        <time>2019-10-14T05:25:20Z</time>
      </trkpt>
      <trkpt lat="37.17656" lon="-8.03677">
        <ele>237.211</ele>
        <time>2019-10-14T05:25:40Z</time>
      </trkpt>
      <trkpt lat="37.17661" lon="-8.03682">
        <ele>236.413</ele>
        <time>2019-10-14T05:26:00Z</time>
      </trkpt>
      <trkpt lat="37.17667" lon="-8.03687">
        <ele>235.593</ele>
        <time>2019-10-14T05:26:20Z</time>
      </trkpt>
      <trkpt lat="37.17672" lon="-8.03692">
        <ele>234.685</ele>
        <time>2019-10-14T05:26:40Z</time>
      </trkpt>
      <trkpt lat="37.17678" lon="-8.03695">
        <ele>233.826</ele>
        <time>2019-10-14T05:27:00Z</time>
      </trkpt>
      <trkpt lat="37.17684" lon="-8.03699">
        <ele>233.088</ele>
        <time>2019-10-14T05:27:20Z</time>
      </trkpt>
      <trkpt lat="37.1773" lon="-8.03714">
        <ele>228.528</ele>
        <time>2019-10-14T05:27:40Z</time>
      </trkpt>
      <trkpt lat="37.17736" lon="-8.03715">
        <ele>227.666</ele>
        <time>2019-10-14T05:28:00Z</time>
      </trkpt>
      <trkpt lat="37.17741" lon="-8.03718">
        <ele>226.829</ele>
        <time>2019-10-14T05:28:20Z</time>
      </trkpt>
      <trkpt lat="37.17746" lon="-8.03721">
        <ele>225.821</ele>
        <time>2019-10-14T05:28:40Z</time>
      </trkpt>
      <trkpt lat="37.17751" lon="-8.03724">
        <ele>224.708</ele>
        <time>2019-10-14T05:29:00Z</time>
      </trkpt>
      <trkpt lat="37.17756" lon="-8.03729">
        <ele>223.73</ele>
        <time>2019-10-14T05:29:20Z</time>
      </trkpt>
      <trkpt lat="37.17768" lon="-8.03737">
        <ele>220.968</ele>
        <time>2019-10-14T05:29:40Z</time>
      </trkpt>
      <trkpt lat="37.17773" lon="-8.03737">
        <ele>220.22</ele>
        <time>2019-10-14T05:30:00Z</time>
      </trkpt>
      <trkpt lat="37.17777" lon="-8.03736">
        <ele>219.76</ele>
        <time>2019-10-14T05:30:20Z</time>
      </trkpt>
      <trkpt lat="37.1778" lon="-8.03733">
        <ele>219.552</ele>
        <time>2019-10-14T05:30:40Z</time>
      </trkpt>
      <trkpt lat="37.17781" lon="-8.03729">
        <ele>219.613</ele>
        <time>2019-10-14T05:31:00Z</time>
      </trkpt>
      <trkpt lat="37.17782" lon="-8.03724">
        <ele>219.815</ele>
        <time>2019-10-14T05:31:20Z</time>
      </trkpt>
      <trkpt lat="37.17783" lon="-8.03721">
        <ele>220.155</ele>
        <time>2019-10-14T05:31:40Z</time>
      </trkpt>
      <trkpt lat="37.17783" lon="-8.03717">
        <ele>220.321</ele>
        <time>2019-10-14T05:32:00Z</time>
      </trkpt>
      <trkpt lat="37.17783" lon="-8.03714">
        <ele>220.541</ele>
        <time>2019-10-14T05:32:20Z</time>
      </trkpt>
      <trkpt lat="37.17784" lon="-8.03711">
        <ele>220.505</ele>
        <time>2019-10-14T05:32:40Z</time>
      </trkpt>
      <trkpt lat="37.17785" lon="-8.03709">
        <ele>220.408</ele>
        <time>2019-10-14T05:33:00Z</time>
      </trkpt>
      <trkpt lat="37.17786" lon="-8.03706">
        <ele>220.356</ele>
        <time>2019-10-14T05:33:20Z</time>
      </trkpt>
      <trkpt lat="37.1779" lon="-8.03699">
        <ele>220.064</ele>
        <time>2019-10-14T05:33:40Z</time>
      </trkpt>
      <trkpt lat="37.17793" lon="-8.03695">
        <ele>219.756</ele>
        <time>2019-10-14T05:34:00Z</time>
      </trkpt>
      <trkpt lat="37.17798" lon="-8.03691">
        <ele>218.976</ele>
        <time>2019-10-14T05:34:20Z</time>
      </trkpt>
      <trkpt lat="37.17803" lon="-8.03686">
        <ele>217.828</ele>
        <time>2019-10-14T05:34:40Z</time>
      </trkpt>
      <trkpt lat="37.1781" lon="-8.03683">
        <ele>216.639</ele>
        <time>2019-10-14T05:35:00Z</time>
      </trkpt>
      <trkpt lat="37.17818" lon="-8.03679">
        <ele>215.321</ele>
        <time>2019-10-14T05:35:20Z</time>
      </trkpt>
      <trkpt lat="37.17826" lon="-8.03677">
        <ele>214.071</ele>
        <time>2019-10-14T05:35:40Z</time>
      </trkpt>
      <trkpt lat="37.17851" lon="-8.03668">
        <ele>209.732</ele>
        <time>2019-10-14T05:36:00Z</time>
      </trkpt>
      <trkpt lat="37.17878" lon="-8.03656">
        <ele>204.592</ele>
        <time>2019-10-14T05:36:20Z</time>
      </trkpt>
      <trkpt lat="37.17896" lon="-8.03648">
        <ele>200.811</ele>
        <time>2019-10-14T05:36:40Z</time>
      </trkpt>
      <trkpt lat="37.17904" lon="-8.03643">
        <ele>199.308</ele>
        <time>2019-10-14T05:37:00Z</time>
      </trkpt>
      <trkpt lat="37.17921" lon="-8.03633">
        <ele>196.817</ele>
        <time>2019-10-14T05:37:20Z</time>
      </trkpt>
      <trkpt lat="37.17948" lon="-8.0362">
        <ele>194.995</ele>
        <time>2019-10-14T05:37:40Z</time>
      </trkpt>
      <trkpt lat="37.17973" lon="-8.03608">
        <ele>192.077</ele>
        <time>2019-10-14T05:38:00Z</time>
      </trkpt>
      <trkpt lat="37.18007" lon="-8.03592">
        <ele>184.067</ele>
        <time>2019-10-14T05:38:20Z</time>
      </trkpt>
      <trkpt lat="37.18021" lon="-8.03583">
        <ele>180.879</ele>
        <time>2019-10-14T05:38:40Z</time>
      </trkpt>
      <trkpt lat="37.18027" lon="-8.03578">
        <ele>179.62</ele>
        <time>2019-10-14T05:39:00Z</time>
      </trkpt>
      <trkpt lat="37.18034" lon="-8.03572">
        <ele>178.682</ele>
        <time>2019-10-14T05:39:20Z</time>
      </trkpt>
      <trkpt lat="37.1804" lon="-8.03565">
        <ele>177.612</ele>
        <time>2019-10-14T05:39:40Z</time>
      </trkpt>
      <trkpt lat="37.18045" lon="-8.03558">
        <ele>176.636</ele>
        <time>2019-10-14T05:40:00Z</time>
      </trkpt>
      <trkpt lat="37.1805" lon="-8.03551">
        <ele>175.517</ele>
        <time>2019-10-14T05:40:20Z</time>
      </trkpt>
      <trkpt lat="37.18055" lon="-8.03543">
        <ele>174.318</ele>
        <time>2019-10-14T05:40:40Z</time>
      </trkpt>
      <trkpt lat="37.18059" lon="-8.03533">
        <ele>173.308</ele>
        <time>2019-10-14T05:41:00Z</time>
      </trkpt>
      <trkpt lat="37.18063" lon="-8.03524">
        <ele>172.597</ele>
        <time>2019-10-14T05:41:20Z</time>
      </trkpt>
      <trkpt lat="37.18077" lon="-8.03498">
        <ele>169.735</ele>
        <time>2019-10-14T05:41:40Z</time>
      </trkpt>
      <trkpt lat="37.18083" lon="-8.0349">
        <ele>168.927</ele>
        <time>2019-10-14T05:42:00Z</time>
      </trkpt>
      <trkpt lat="37.18088" lon="-8.03483">
        <ele>168.627</ele>
        <time>2019-10-14T05:42:20Z</time>
      </trkpt>
      <trkpt lat="37.1811" lon="-8.03463">
        <ele>166.279</ele>
        <time>2019-10-14T05:42:40Z</time>
      </trkpt>
      <trkpt lat="37.18123" lon="-8.03448">
        <ele>165.18</ele>
        <time>2019-10-14T05:43:00Z</time>
      </trkpt>
      <trkpt lat="37.18129" lon="-8.03441">
        <ele>164.712</ele>
        <time>2019-10-14T05:43:20Z</time>
      </trkpt>
      <trkpt lat="37.18134" lon="-8.03436">
        <ele>164.322</ele>
        <time>2019-10-14T05:43:40Z</time>
      </trkpt>
      <trkpt lat="37.18139" lon="-8.03432">
        <ele>164.053</ele>
        <time>2019-10-14T05:44:00Z</time>
      </trkpt>
      <trkpt lat="37.18151" lon="-8.0342">
        <ele>164.004</ele>
        <time>2019-10-14T05:44:20Z</time>
      </trkpt>
      <trkpt lat="37.18151" lon="-8.03417">
        <ele>164.014</ele>
        <time>2019-10-14T05:44:40Z</time>
      </trkpt>
      <trkpt lat="37.18149" lon="-8.03406">
        <ele>163.808</ele>
        <time>2019-10-14T05:45:00Z</time>
      </trkpt>
      <trkpt lat="37.18149" lon="-8.03401">
        <ele>163.649</ele>
        <time>2019-10-14T05:45:20Z</time>
      </trkpt>
      <trkpt lat="37.18148" lon="-8.03394">
        <ele>163.537</ele>
        <time>2019-10-14T05:45:40Z</time>
      </trkpt>
      <trkpt lat="37.18146" lon="-8.03388">
        <ele>163.359</ele>
        <time>2019-10-14T05:46:00Z</time>
      </trkpt>
      <trkpt lat="37.18144" lon="-8.03381">
        <ele>163.279</ele>
        <time>2019-10-14T05:46:20Z</time>
      </trkpt>
      <trkpt lat="37.1814" lon="-8.03373">
        <ele>163.021</ele>
        <time>2019-10-14T05:46:40Z</time>
      </trkpt>
      <trkpt lat="37.18134" lon="-8.03364">
        <ele>163.472</ele>
        <time>2019-10-14T05:47:00Z</time>
      </trkpt>
      <trkpt lat="37.1813" lon="-8.03356">
        <ele>164.194</ele>
        <time>2019-10-14T05:47:20Z</time>
      </trkpt>
      <trkpt lat="37.18126" lon="-8.03348">
        <ele>164.674</ele>
        <time>2019-10-14T05:47:40Z</time>
      </trkpt>
      <trkpt lat="37.18124" lon="-8.0334">
        <ele>165.174</ele>
        <time>2019-10-14T05:48:00Z</time>
      </trkpt>
      <trkpt lat="37.18123" lon="-8.0333">
        <ele>165.356</ele>
        <time>2019-10-14T05:48:20Z</time>
      </trkpt>
      <trkpt lat="37.18121" lon="-8.03321">
        <ele>165.421</ele>
        <time>2019-10-14T05:48:40Z</time>
      </trkpt>
      <trkpt lat="37.18119" lon="-8.03312">
        <ele>165.608</ele>
        <time>2019-10-14T05:49:00Z</time>
      </trkpt>
      <trkpt lat="37.18117" lon="-8.03302">
        <ele>165.851</ele>
        <time>2019-10-14T05:49:20Z</time>
      </trkpt>
      <trkpt lat="37.18116" lon="-8.0329">
        <ele>165.719</ele>
        <time>2019-10-14T05:49:40Z</time>
      </trkpt>
      <trkpt lat="37.18114" lon="-8.03276">
        <ele>165.481</ele>
        <time>2019-10-14T05:50:00Z</time>
      </trkpt>
      <trkpt lat="37.18107" lon="-8.0321">
        <ele>163.091</ele>
        <time>2019-10-14T05:50:20Z</time>
      </trkpt>
      <trkpt lat="37.18108" lon="-8.03197">
        <ele>162.813</ele>
        <time>2019-10-14T05:50:40Z</time>
      </trkpt>
      <trkpt lat="37.1811" lon="-8.03185">
        <ele>162.834</ele>
        <time>2019-10-14T05:51:00Z</time>
      </trkpt>
      <trkpt lat="37.18116" lon="-8.03162">
        <ele>164.196</ele>
        <time>2019-10-14T05:51:20Z</time>
      </trkpt>
      <trkpt lat="37.18117" lon="-8.03152">
        <ele>165.246</ele>
        <time>2019-10-14T05:51:40Z</time>
      </trkpt>
      <trkpt lat="37.18117" lon="-8.03142">
        <ele>166.384</ele>
        <time>2019-10-14T05:52:00Z</time>
      </trkpt>
      <trkpt lat="37.18115" lon="-8.03131">
        <ele>166.407</ele>
        <time>2019-10-14T05:52:20Z</time>
      </trkpt>
      <trkpt lat="37.18113" lon="-8.03122">
        <ele>166.317</ele>
        <time>2019-10-14T05:52:40Z</time>
      </trkpt>
      <trkpt lat="37.18111" lon="-8.03114">
        <ele>166.108</ele>
        <time>2019-10-14T05:53:00Z</time>
      </trkpt>
      <trkpt lat="37.18111" lon="-8.03105">
        <ele>165.822</ele>
        <time>2019-10-14T05:53:20Z</time>
      </trkpt>
      <trkpt lat="37.18112" lon="-8.03086">
        <ele>164.92</ele>
        <time>2019-10-14T05:53:40Z</time>
      </trkpt>
      <trkpt lat="37.18111" lon="-8.03076">
        <ele>165.342</ele>
        <time>2019-10-14T05:54:00Z</time>
      </trkpt>
      <trkpt lat="37.18109" lon="-8.03067">
        <ele>166.032</ele>
        <time>2019-10-14T05:54:20Z</time>
      </trkpt>
      <trkpt lat="37.18107" lon="-8.03059">
        <ele>166.764</ele>
        <time>2019-10-14T05:54:40Z</time>
      </trkpt>
      <trkpt lat="37.18107" lon="-8.0305">
        <ele>166.795</ele>
        <time>2019-10-14T05:55:00Z</time>
      </trkpt>
      <trkpt lat="37.1811" lon="-8.03039">
        <ele>166.397</ele>
        <time>2019-10-14T05:55:20Z</time>
      </trkpt>
      <trkpt lat="37.18113" lon="-8.03027">
        <ele>165.837</ele>
        <time>2019-10-14T05:55:40Z</time>
      </trkpt>
      <trkpt lat="37.18114" lon="-8.03015">
        <ele>165.044</ele>
        <time>2019-10-14T05:56:00Z</time>
      </trkpt>
      <trkpt lat="37.18116" lon="-8.03003">
        <ele>164.205</ele>
        <time>2019-10-14T05:56:20Z</time>
      </trkpt>
      <trkpt lat="37.18121" lon="-8.02968">
        <ele>164.115</ele>
        <time>2019-10-14T05:56:40Z</time>
      </trkpt>
      <trkpt lat="37.18122" lon="-8.0295">
        <ele>163.308</ele>
        <time>2019-10-14T05:57:00Z</time>
      </trkpt>
      <trkpt lat="37.18125" lon="-8.02931">
        <ele>162.378</ele>
        <time>2019-10-14T05:57:20Z</time>
      </trkpt>
      <trkpt lat="37.18125" lon="-8.02933">
        <ele>162.466</ele>
        <time>2019-10-14T05:57:40Z</time>
      </trkpt>
      <trkpt lat="37.18123" lon="-8.02934">
        <ele>162.598</ele>
        <time>2019-10-14T05:58:00Z</time>
      </trkpt>
      <trkpt lat="37.18124" lon="-8.02933">
        <ele>162.488</ele>
        <time>2019-10-14T05:58:20Z</time>
      </trkpt>
      <trkpt lat="37.18124" lon="-8.02931">
        <ele>162.36</ele>
        <time>2019-10-14T05:58:40Z</time>
      </trkpt>
      <trkpt lat="37.18125" lon="-8.02931">
        <ele>162.321</ele>
        <time>2019-10-14T05:59:00Z</time>
      </trkpt>
      <trkpt lat="37.18127" lon="-8.02933">
        <ele>162.263</ele>
        <time>2019-10-14T05:59:20Z</time>
      </trkpt>
      <trkpt lat="37.18127" lon="-8.02932">
        <ele>162.223</ele>
        <time>2019-10-14T05:59:40Z</time>
      </trkpt>
      <trkpt lat="37.18128" lon="-8.02932">
        <ele>162.227</ele>
        <time>2019-10-14T06:00:00Z</time>
      </trkpt>
      <trkpt lat="37.18125" lon="-8.02932">
        <ele>162.368</ele>
        <time>2019-10-14T06:00:20Z</time>
      </trkpt>
      <trkpt lat="37.18125" lon="-8.02931">
        <ele>162.314</ele>
        <time>2019-10-14T06:00:40Z</time>
      </trkpt>
      <trkpt lat="37.18125" lon="-8.02931">
        <ele>162.308</ele>
        <time>2019-10-14T06:01:00Z</time>
      </trkpt>
      <trkpt lat="37.18125" lon="-8.0293">
        <ele>162.286</ele>
        <time>2019-10-14T06:01:20Z</time>
      </trkpt>
      <trkpt lat="37.18123" lon="-8.02929">
        <ele>162.324</ele>
        <time>2019-10-14T06:01:40Z</time>
      </trkpt>
      <trkpt lat="37.18124" lon="-8.0293">
        <ele>162.326</ele>
        <time>2019-10-14T06:02:00Z</time>
      </trkpt>
      <trkpt lat="37.18125" lon="-8.02922">
        <ele>161.896</ele>
        <time>2019-10-14T06:02:20Z</time>
      </trkpt>
      <trkpt lat="37.18125" lon="-8.02916">
        <ele>161.518</ele>
        <time>2019-10-14T06:02:40Z</time>
      </trkpt>
      <trkpt lat="37.18124" lon="-8.02909">
        <ele>161.749</ele>
        <time>2019-10-14T06:03:00Z</time>
      </trkpt>
      <trkpt lat="37.18122" lon="-8.02901">
        <ele>161.851</ele>
        <time>2019-10-14T06:03:20Z</time>
      </trkpt>
      <trkpt lat="37.18121" lon="-8.02893">
        <ele>161.981</ele>
        <time>2019-10-14T06:03:40Z</time>
      </trkpt>
      <trkpt lat="37.18121" lon="-8.02885">
        <ele>162.161</ele>
        <time>2019-10-14T06:04:00Z</time>
      </trkpt>
      <trkpt lat="37.18122" lon="-8.02875">
        <ele>162.221</ele>
        <time>2019-10-14T06:04:20Z</time>
      </trkpt>
      <trkpt lat="37.18123" lon="-8.02865">
        <ele>162.413</ele>
        <time>2019-10-14T06:04:40Z</time>
      </trkpt>
      <trkpt lat="37.18127" lon="-8.02844">
        <ele>161.508</ele>
        <time>2019-10-14T06:05:00Z</time>
      </trkpt>
      <trkpt lat="37.18132" lon="-8.02832">
        <ele>161.12</ele>
        <time>2019-10-14T06:05:20Z</time>
      </trkpt>
      <trkpt lat="37.18136" lon="-8.02821">
        <ele>160.098</ele>
        <time>2019-10-14T06:05:40Z</time>
      </trkpt>
      <trkpt lat="37.18139" lon="-8.02811">
        <ele>158.86</ele>
        <time>2019-10-14T06:06:00Z</time>
      </trkpt>
      <trkpt lat="37.18141" lon="-8.02802">
        <ele>157.51</ele>
        <time>2019-10-14T06:06:20Z</time>
      </trkpt>
      <trkpt lat="37.18141" lon="-8.02794">
        <ele>156.492</ele>
        <time>2019-10-14T06:06:40Z</time>
      </trkpt>
      <trkpt lat="37.1814" lon="-8.02786">
        <ele>155.263</ele>
        <time>2019-10-14T06:07:00Z</time>
      </trkpt>
      <trkpt lat="37.18137" lon="-8.02779">
        <ele>154.245</ele>
        <time>2019-10-14T06:07:20Z</time>
      </trkpt>
      <trkpt lat="37.18131" lon="-8.02771">
        <ele>153.895</ele>
        <time>2019-10-14T06:07:40Z</time>
      </trkpt>
      <trkpt lat="37.18125" lon="-8.02763">
        <ele>153.788</ele>
        <time>2019-10-14T06:08:00Z</time>
      </trkpt>
      <trkpt lat="37.18119" lon="-8.02754">
        <ele>153.624</ele>
        <time>2019-10-14T06:08:20Z</time>
      </trkpt>
      <trkpt lat="37.18113" lon="-8.02743">
        <ele>153.626</ele>
        <time>2019-10-14T06:08:40Z</time>
      </trkpt>
      <trkpt lat="37.18094" lon="-8.02686">
        <ele>153.508</ele>
        <time>2019-10-14T06:09:00Z</time>
      </trkpt>
      <trkpt lat="37.18091" lon="-8.02671">
        <ele>153.852</ele>
        <time>2019-10-14T06:09:20Z</time>
      </trkpt>
      <trkpt lat="37.1809" lon="-8.02655">
        <ele>154.71</ele>
        <time>2019-10-14T06:09:40Z</time>
      </trkpt>
      <trkpt lat="37.18089" lon="-8.0264">
        <ele>156.032</ele>
        <time>2019-10-14T06:10:00Z</time>
      </trkpt>
      <trkpt lat="37.18087" lon="-8.02625">
        <ele>155.812</ele>
        <time>2019-10-14T06:10:20Z</time>
      </trkpt>
      <trkpt lat="37.18087" lon="-8.02611">
        <ele>155.424</ele>
        <time>2019-10-14T06:10:40Z</time>
      </trkpt>
      <trkpt lat="37.18087" lon="-8.02545">
        <ele>153.135</ele>
        <time>2019-10-14T06:11:00Z</time>
      </trkpt>
      <trkpt lat="37.18089" lon="-8.02532">
        <ele>153.577</ele>
        <time>2019-10-14T06:11:20Z</time>
      </trkpt>
      <trkpt lat="37.18093" lon="-8.02509">
        <ele>155.147</ele>
        <time>2019-10-14T06:11:40Z</time>
      </trkpt>
      <trkpt lat="37.18093" lon="-8.02499">
        <ele>156.082</ele>
        <time>2019-10-14T06:12:00Z</time>
      </trkpt>
      <trkpt lat="37.18092" lon="-8.02489">
        <ele>157.643</ele>
        <time>2019-10-14T06:12:20Z</time>
      </trkpt>
      <trkpt lat="37.18091" lon="-8.02471">
        <ele>160.217</ele>
        <time>2019-10-14T06:12:40Z</time>
      </trkpt>
      <trkpt lat="37.18093" lon="-8.02466">
        <ele>160.108</ele>
        <time>2019-10-14T06:13:00Z</time>
      </trkpt>
      <trkpt lat="37.18096" lon="-8.02461">
        <ele>159.742</ele>
        <time>2019-10-14T06:13:20Z</time>
      </trkpt>
      <trkpt lat="37.18101" lon="-8.02457">
        <ele>159.02</ele>
        <time>2019-10-14T06:13:40Z</time>
      </trkpt>
      <trkpt lat="37.1811" lon="-8.02449">
        <ele>157.462</ele>
        <time>2019-10-14T06:14:00Z</time>
      </trkpt>
      <trkpt lat="37.18117" lon="-8.02443">
        <ele>156.172</ele>
        <time>2019-10-14T06:14:20Z</time>
      </trkpt>
      <trkpt lat="37.18122" lon="-8.0244">
        <ele>155.214</ele>
        <time>2019-10-14T06:14:40Z</time>
      </trkpt>
      <trkpt lat="37.18128" lon="-8.02437">
        <ele>154.165</ele>
        <time>2019-10-14T06:15:00Z</time>
      </trkpt>
      <trkpt lat="37.18135" lon="-8.02435">
        <ele>152.977</ele>
        <time>2019-10-14T06:15:20Z</time>
      </trkpt>
      <trkpt lat="37.18144" lon="-8.02434">
        <ele>152.157</ele>
        <time>2019-10-14T06:15:40Z</time>
      </trkpt>
      <trkpt lat="37.1819" lon="-8.02423">
        <ele>149.463</ele>
        <time>2019-10-14T06:16:00Z</time>
      </trkpt>
      <trkpt lat="37.18203" lon="-8.0242">
        <ele>148.244</ele>
        <time>2019-10-14T06:16:20Z</time>
      </trkpt>
      <trkpt lat="37.18216" lon="-8.02419">
        <ele>146.718</ele>
        <time>2019-10-14T06:16:40Z</time>
      </trkpt>
      <trkpt lat="37.18231" lon="-8.0242">
        <ele>144.308</ele>
        <time>2019-10-14T06:17:00Z</time>
      </trkpt>
      <trkpt lat="37.18246" lon="-8.02423">
        <ele>141.26</ele>
        <time>2019-10-14T06:17:20Z</time>
      </trkpt>
      <trkpt lat="37.18261" lon="-8.02427">
        <ele>138.828</ele>
        <time>2019-10-14T06:17:40Z</time>
      </trkpt>
      <trkpt lat="37.18277" lon="-8.02433">
        <ele>136.71</ele>
        <time>2019-10-14T06:18:00Z</time>
      </trkpt>
      <trkpt lat="37.18328" lon="-8.02454">
        <ele>133.21</ele>
        <time>2019-10-14T06:18:20Z</time>
      </trkpt>
      <trkpt lat="37.18385" lon="-8.02476">
        <ele>129.322</ele>
        <time>2019-10-14T06:18:40Z</time>
      </trkpt>
      <trkpt lat="37.18443" lon="-8.02498">
        <ele>127.943</ele>
        <time>2019-10-14T06:19:00Z</time>
      </trkpt>
      <trkpt lat="37.185" lon="-8.02521">
        <ele>122.025</ele>
        <time>2019-10-14T06:19:20Z</time>
      </trkpt>
      <trkpt lat="37.18555" lon="-8.02541">
        <ele>119.585</ele>
        <time>2019-10-14T06:19:40Z</time>
      </trkpt>
      <trkpt lat="37.18716" lon="-8.02603">
        <ele>120.877</ele>
        <time>2019-10-14T06:20:00Z</time>
      </trkpt>
      <trkpt lat="37.188" lon="-8.02632">
        <ele>120.061</ele>
        <time>2019-10-14T06:20:20Z</time>
      </trkpt>
      <trkpt lat="37.18831" lon="-8.02641">
        <ele>120.827</ele>
        <time>2019-10-14T06:20:40Z</time>
      </trkpt>
      <trkpt lat="37.18834" lon="-8.02645">
        <ele>120.808</ele>
        <time>2019-10-14T06:21:00Z</time>
      </trkpt>
      <trkpt lat="37.18838" lon="-8.02648">
        <ele>120.811</ele>
        <time>2019-10-14T06:21:20Z</time>
      </trkpt>
      <trkpt lat="37.18842" lon="-8.02652">
        <ele>120.929</ele>
        <time>2019-10-14T06:21:40Z</time>
      </trkpt>
      <trkpt lat="37.18848" lon="-8.02655">
        <ele>121.041</ele>
        <time>2019-10-14T06:22:00Z</time>
      </trkpt>
      <trkpt lat="37.18854" lon="-8.02657">
        <ele>121.131</ele>
        <time>2019-10-14T06:22:20Z</time>
      </trkpt>
      <trkpt lat="37.18936" lon="-8.0269">
        <ele>115.553</ele>
        <time>2019-10-14T06:22:40Z</time>
      </trkpt>
      <trkpt lat="37.18998" lon="-8.02716">
        <ele>119.584</ele>
        <time>2019-10-14T06:23:00Z</time>
      </trkpt>
      <trkpt lat="37.19034" lon="-8.0273">
        <ele>122.646</ele>
        <time>2019-10-14T06:23:20Z</time>
      </trkpt>
      <trkpt lat="37.19094" lon="-8.02754">
        <ele>123.416</ele>
        <time>2019-10-14T06:23:40Z</time>
      </trkpt>
      <trkpt lat="37.19097" lon="-8.02757">
        <ele>123.665</ele>
        <time>2019-10-14T06:24:00Z</time>
      </trkpt>
      <trkpt lat="37.19098" lon="-8.02762">
        <ele>123.868</ele>
        <time>2019-10-14T06:24:20Z</time>
      </trkpt>
      <trkpt lat="37.19099" lon="-8.02769">
        <ele>124.014</ele>
        <time>2019-10-14T06:24:40Z</time>
      </trkpt>
      <trkpt lat="37.191" lon="-8.02777">
        <ele>124.208</ele>
        <time>2019-10-14T06:25:00Z</time>
      </trkpt>
      <trkpt lat="37.19101" lon="-8.02788">
        <ele>124.29</ele>
        <time>2019-10-14T06:25:20Z</time>
      </trkpt>
      <trkpt lat="37.19102" lon="-8.02801">
        <ele>124.318</ele>
        <time>2019-10-14T06:25:40Z</time>
      </trkpt>
      <trkpt lat="37.19104" lon="-8.02816">
        <ele>124.39</ele>
        <time>2019-10-14T06:26:00Z</time>
      </trkpt>
      <trkpt lat="37.19108" lon="-8.02831">
        <ele>124.14</ele>
        <time>2019-10-14T06:26:20Z</time>
      </trkpt>
      <trkpt lat="37.19123" lon="-8.02897">
        <ele>125.132</ele>
        <time>2019-10-14T06:26:40Z</time>
      </trkpt>
      <trkpt lat="37.19133" lon="-8.03001">
        <ele>126.893</ele>
        <time>2019-10-14T06:27:00Z</time>
      </trkpt>
      <trkpt lat="37.19132" lon="-8.03019">
        <ele>127.345</ele>
        <time>2019-10-14T06:27:20Z</time>
      </trkpt>
      <trkpt lat="37.19128" lon="-8.03094">
        <ele>127.935</ele>
        <time>2019-10-14T06:27:40Z</time>
      </trkpt>
      <trkpt lat="37.19098" lon="-8.03251">
        <ele>123.684</ele>
        <time>2019-10-14T06:28:00Z</time>
      </trkpt>
      <trkpt lat="37.19062" lon="-8.03414">
        <ele>127.607</ele>
        <time>2019-10-14T06:28:20Z</time>
      </trkpt>
      <trkpt lat="37.19062" lon="-8.035">
        <ele>129.017</ele>
        <time>2019-10-14T06:28:40Z</time>
      </trkpt>
      <trkpt lat="37.19075" lon="-8.03733">
        <ele>124.308</ele>
        <time>2019-10-14T06:29:00Z</time>
      </trkpt>
      <trkpt lat="37.19079" lon="-8.03782">
        <ele>127.482</ele>
        <time>2019-10-14T06:29:20Z</time>
      </trkpt>
      <trkpt lat="37.19083" lon="-8.03796">
        <ele>127.38</ele>
        <time>2019-10-14T06:29:40Z</time>
      </trkpt>
      <trkpt lat="37.19087" lon="-8.03808">
        <ele>126.812</ele>
        <time>2019-10-14T06:30:00Z</time>
      </trkpt>
      <trkpt lat="37.19092" lon="-8.03817">
        <ele>126.232</ele>
        <time>2019-10-14T06:30:20Z</time>
      </trkpt>
      <trkpt lat="37.19097" lon="-8.03824">
        <ele>125.714</ele>
        <time>2019-10-14T06:30:40Z</time>
      </trkpt>
      <trkpt lat="37.19101" lon="-8.03829">
        <ele>125.365</ele>
        <time>2019-10-14T06:31:00Z</time>
      </trkpt>
      <trkpt lat="37.19104" lon="-8.03833">
        <ele>125.067</ele>
        <time>2019-10-14T06:31:20Z</time>
      </trkpt>
      <trkpt lat="37.19109" lon="-8.03835">
        <ele>124.977</ele>
        <time>2019-10-14T06:31:40Z</time>
      </trkpt>
      <trkpt lat="37.19114" lon="-8.03835">
        <ele>124.952</ele>
        <time>2019-10-14T06:32:00Z</time>
      </trkpt>
      <trkpt lat="37.19119" lon="-8.03835">
        <ele>125.053</ele>
        <time>2019-10-14T06:32:20Z</time>
      </trkpt>
      <trkpt lat="37.19125" lon="-8.03834">
        <ele>125.008</ele>
        <time>2019-10-14T06:32:40Z</time>
      </trkpt>
      <trkpt lat="37.1917" lon="-8.03827">
        <ele>126.408</ele>
        <time>2019-10-14T06:33:00Z</time>
      </trkpt>
      <trkpt lat="37.19239" lon="-8.03813">
        <ele>131.669</ele>
        <time>2019-10-14T06:33:20Z</time>
      </trkpt>
      <trkpt lat="37.19253" lon="-8.03812">
        <ele>132.037</ele>
        <time>2019-10-14T06:33:40Z</time>
      </trkpt>
      <trkpt lat="37.19259" lon="-8.0381">
        <ele>132.169</ele>
        <time>2019-10-14T06:34:00Z</time>
      </trkpt>
      <trkpt lat="37.19267" lon="-8.03806">
        <ele>132.039</ele>
        <time>2019-10-14T06:34:20Z</time>
      </trkpt>
      <trkpt lat="37.19325" lon="-8.03778">
        <ele>134.491</ele>
        <time>2019-10-14T06:34:40Z</time>
      </trkpt>
      <trkpt lat="37.19344" lon="-8.03774">
        <ele>135.782</ele>
        <time>2019-10-14T06:35:00Z</time>
      </trkpt>
      <trkpt lat="37.19354" lon="-8.0377">
        <ele>136.234</ele>
        <time>2019-10-14T06:35:20Z</time>
      </trkpt>
      <trkpt lat="37.19434" lon="-8.03743">
        <ele>138.734</ele>
        <time>2019-10-14T06:35:40Z</time>
      </trkpt>
      <trkpt lat="37.19444" lon="-8.03741">
        <ele>139.366</ele>
        <time>2019-10-14T06:36:00Z</time>
      </trkpt>
      <trkpt lat="37.19468" lon="-8.03732">
        <ele>142.529</ele>
        <time>2019-10-14T06:36:20Z</time>
      </trkpt>
      <trkpt lat="37.19479" lon="-8.03728">
        <ele>143.921</ele>
        <time>2019-10-14T06:36:40Z</time>
      </trkpt>
      <trkpt lat="37.19483" lon="-8.03725">
        <ele>144.508</ele>
        <time>2019-10-14T06:37:00Z</time>
      </trkpt>
      <trkpt lat="37.19496" lon="-8.03718">
        <ele>146.75</ele>
        <time>2019-10-14T06:37:20Z</time>
      </trkpt>
      <trkpt lat="37.19501" lon="-8.03716">
        <ele>147.628</ele>
        <time>2019-10-14T06:37:40Z</time>
      </trkpt>
      <trkpt lat="37.19505" lon="-8.03715">
        <ele>148.52</ele>
        <time>2019-10-14T06:38:00Z</time>
      </trkpt>
      <trkpt lat="37.19515" lon="-8.03713">
        <ele>150.44</ele>
        <time>2019-10-14T06:38:20Z</time>
      </trkpt>
      <trkpt lat="37.1952" lon="-8.03712">
        <ele>151.382</ele>
        <time>2019-10-14T06:38:40Z</time>
      </trkpt>
      <trkpt lat="37.19525" lon="-8.03712">
        <ele>152.253</ele>
        <time>2019-10-14T06:39:00Z</time>
      </trkpt>
      <trkpt lat="37.1953" lon="-8.03713">
        <ele>153.175</ele>
        <time>2019-10-14T06:39:20Z</time>
      </trkpt>
      <trkpt lat="37.19535" lon="-8.03714">
        <ele>154.045</ele>
        <time>2019-10-14T06:39:40Z</time>
      </trkpt>
      <trkpt lat="37.19541" lon="-8.03714">
        <ele>155.288</ele>
        <time>2019-10-14T06:40:00Z</time>
      </trkpt>
      <trkpt lat="37.19546" lon="-8.03713">
        <ele>156.124</ele>
        <time>2019-10-14T06:40:20Z</time>
      </trkpt>
      <trkpt lat="37.1955" lon="-8.03713">
        <ele>156.926</ele>
        <time>2019-10-14T06:40:40Z</time>
      </trkpt>
      <trkpt lat="37.19553" lon="-8.03712">
        <ele>157.508</ele>
        <time>2019-10-14T06:41:00Z</time>
      </trkpt>
      <trkpt lat="37.19555" lon="-8.03713">
        <ele>157.812</ele>
        <time>2019-10-14T06:41:20Z</time>
      </trkpt>
      <trkpt lat="37.19556" lon="-8.03713">
        <ele>158.18</ele>
        <time>2019-10-14T06:41:40Z</time>
      </trkpt>
      <trkpt lat="37.19558" lon="-8.03715">
        <ele>158.312</ele>
        <time>2019-10-14T06:42:00Z</time>
      </trkpt>
      <trkpt lat="37.19559" lon="-8.03718">
        <ele>158.542</ele>
        <time>2019-10-14T06:42:20Z</time>
      </trkpt>
      <trkpt lat="37.19559" lon="-8.03723">
        <ele>158.464</ele>
        <time>2019-10-14T06:42:40Z</time>
      </trkpt>
      <trkpt lat="37.19558" lon="-8.0373">
        <ele>157.695</ele>
        <time>2019-10-14T06:43:00Z</time>
      </trkpt>
      <trkpt lat="37.19557" lon="-8.03738">
        <ele>156.737</ele>
        <time>2019-10-14T06:43:20Z</time>
      </trkpt>
      <trkpt lat="37.19558" lon="-8.03748">
        <ele>155.997</ele>
        <time>2019-10-14T06:43:40Z</time>
      </trkpt>
      <trkpt lat="37.19561" lon="-8.03758">
        <ele>155.841</ele>
        <time>2019-10-14T06:44:00Z</time>
      </trkpt>
      <trkpt lat="37.19566" lon="-8.03769">
        <ele>156.381</ele>
        <time>2019-10-14T06:44:20Z</time>
      </trkpt>
      <trkpt lat="37.19572" lon="-8.03779">
        <ele>157.209</ele>
        <time>2019-10-14T06:44:40Z</time>
      </trkpt>
      <trkpt lat="37.19578" lon="-8.0379">
        <ele>158.608</ele>
        <time>2019-10-14T06:45:00Z</time>
      </trkpt>
      <trkpt lat="37.19588" lon="-8.03813">
        <ele>160.778</ele>
        <time>2019-10-14T06:45:20Z</time>
      </trkpt>
      <trkpt lat="37.19606" lon="-8.0385">
        <ele>162.186</ele>
        <time>2019-10-14T06:45:40Z</time>
      </trkpt>
      <trkpt lat="37.19638" lon="-8.03907">
        <ele>164.398</ele>
        <time>2019-10-14T06:46:00Z</time>
      </trkpt>
      <trkpt lat="37.19642" lon="-8.03918">
        <ele>164.058</ele>
        <time>2019-10-14T06:46:20Z</time>
      </trkpt>
      <trkpt lat="37.1964" lon="-8.03924">
        <ele>163.89</ele>
        <time>2019-10-14T06:46:40Z</time>
      </trkpt>
      <trkpt lat="37.19636" lon="-8.03931">
        <ele>162.931</ele>
        <time>2019-10-14T06:47:00Z</time>
      </trkpt>
      <trkpt lat="37.19631" lon="-8.03939">
        <ele>161.853</ele>
        <time>2019-10-14T06:47:20Z</time>
      </trkpt>
      <trkpt lat="37.19626" lon="-8.03948">
        <ele>160.423</ele>
        <time>2019-10-14T06:47:40Z</time>
      </trkpt>
      <trkpt lat="37.19622" lon="-8.03959">
        <ele>159.023</ele>
        <time>2019-10-14T06:48:00Z</time>
      </trkpt>
      <trkpt lat="37.19618" lon="-8.0397">
        <ele>157.983</ele>
        <time>2019-10-14T06:48:20Z</time>
      </trkpt>
      <trkpt lat="37.19612" lon="-8.03993">
        <ele>155.611</ele>
        <time>2019-10-14T06:48:40Z</time>
      </trkpt>
      <trkpt lat="37.19611" lon="-8.04006">
        <ele>154.808</ele>
        <time>2019-10-14T06:49:00Z</time>
      </trkpt>
      <trkpt lat="37.19614" lon="-8.0405">
        <ele>153.486</ele>
        <time>2019-10-14T06:49:20Z</time>
      </trkpt>
      <trkpt lat="37.19614" lon="-8.0408">
        <ele>151.634</ele>
        <time>2019-10-14T06:49:40Z</time>
      </trkpt>
      <trkpt lat="37.19614" lon="-8.04108">
        <ele>150.616</ele>
        <time>2019-10-14T06:50:00Z</time>
      </trkpt>
      <trkpt lat="37.19615" lon="-8.04113">
        <ele>150.476</ele>
        <time>2019-10-14T06:50:20Z</time>
      </trkpt>
      <trkpt lat="37.19617" lon="-8.04117">
        <ele>150.528</ele>
        <time>2019-10-14T06:50:40Z</time>
      </trkpt>
      <trkpt lat="37.19622" lon="-8.0412">
        <ele>151.029</ele>
        <time>2019-10-14T06:51:00Z</time>
      </trkpt>
      <trkpt lat="37.19627" lon="-8.04122">
        <ele>151.871</ele>
        <time>2019-10-14T06:51:20Z</time>
      </trkpt>
      <trkpt lat="37.19633" lon="-8.04127">
        <ele>152.491</ele>
        <time>2019-10-14T06:51:40Z</time>
      </trkpt>
      <trkpt lat="37.19639" lon="-8.04131">
        <ele>153.278</ele>
        <time>2019-10-14T06:52:00Z</time>
      </trkpt>
      <trkpt lat="37.19646" lon="-8.04134">
        <ele>154.333</ele>
        <time>2019-10-14T06:52:20Z</time>
      </trkpt>
      <trkpt lat="37.19653" lon="-8.04136">
        <ele>155.626</ele>
        <time>2019-10-14T06:52:40Z</time>
      </trkpt>
      <trkpt lat="37.1967" lon="-8.0414">
        <ele>158.508</ele>
        <time>2019-10-14T06:53:00Z</time>
      </trkpt>
      <trkpt lat="37.19677" lon="-8.0414">
        <ele>159.871</ele>
        <time>2019-10-14T06:53:20Z</time>
      </trkpt>
      <trkpt lat="37.19684" lon="-8.04139">
        <ele>161.189</ele>
        <time>2019-10-14T06:53:40Z</time>
      </trkpt>
      <trkpt lat="37.19699" lon="-8.04135">
        <ele>163.211</ele>
        <time>2019-10-14T06:54:00Z</time>
      </trkpt>
      <trkpt lat="37.19713" lon="-8.04129">
        <ele>164.351</ele>
        <time>2019-10-14T06:54:20Z</time>
      </trkpt>
      <trkpt lat="37.19725" lon="-8.04122">
        <ele>164.913</ele>
        <time>2019-10-14T06:54:40Z</time>
      </trkpt>
      <trkpt lat="37.19792" lon="-8.041">
        <ele>164.394</ele>
        <time>2019-10-14T06:55:00Z</time>
      </trkpt>
      <trkpt lat="37.198" lon="-8.04096">
        <ele>163.536</ele>
        <time>2019-10-14T06:55:20Z</time>
      </trkpt>
      <trkpt lat="37.19808" lon="-8.04091">
        <ele>162.766</ele>
        <time>2019-10-14T06:55:40Z</time>
      </trkpt>
      <trkpt lat="37.19826" lon="-8.04083">
        <ele>161.339</ele>
        <time>2019-10-14T06:56:00Z</time>
      </trkpt>
      <trkpt lat="37.19835" lon="-8.04081">
        <ele>161.101</ele>
        <time>2019-10-14T06:56:20Z</time>
      </trkpt>
      <trkpt lat="37.19844" lon="-8.04079">
        <ele>161.421</ele>
        <time>2019-10-14T06:56:40Z</time>
      </trkpt>
      <trkpt lat="37.19854" lon="-8.0408">
        <ele>161.708</ele>
        <time>2019-10-14T06:57:00Z</time>
      </trkpt>
      <trkpt lat="37.19863" lon="-8.04082">
        <ele>162.387</ele>
        <time>2019-10-14T06:57:20Z</time>
      </trkpt>
      <trkpt lat="37.19873" lon="-8.04086">
        <ele>163.935</ele>
        <time>2019-10-14T06:57:40Z</time>
      </trkpt>
      <trkpt lat="37.19883" lon="-8.04092">
        <ele>165.587</ele>
        <time>2019-10-14T06:58:00Z</time>
      </trkpt>
      <trkpt lat="37.19893" lon="-8.04098">
        <ele>167.667</ele>
        <time>2019-10-14T06:58:20Z</time>
      </trkpt>
      <trkpt lat="37.19921" lon="-8.04117">
        <ele>176.479</ele>
        <time>2019-10-14T06:58:40Z</time>
      </trkpt>
      <trkpt lat="37.19928" lon="-8.04124">
        <ele>178.59</ele>
        <time>2019-10-14T06:59:00Z</time>
      </trkpt>
      <trkpt lat="37.19933" lon="-8.04134">
        <ele>180.382</ele>
        <time>2019-10-14T06:59:20Z</time>
      </trkpt>
      <trkpt lat="37.19937" lon="-8.04144">
        <ele>181.592</ele>
        <time>2019-10-14T06:59:40Z</time>
      </trkpt>
      <trkpt lat="37.1994" lon="-8.04157">
        <ele>182.299</ele>
        <time>2019-10-14T07:00:00Z</time>
      </trkpt>
      <trkpt lat="37.19942" lon="-8.0417">
        <ele>182.307</ele>
        <time>2019-10-14T07:00:20Z</time>
      </trkpt>
      <trkpt lat="37.1995" lon="-8.04212">
        <ele>183.627</ele>
        <time>2019-10-14T07:00:40Z</time>
      </trkpt>
      <trkpt lat="37.19955" lon="-8.0424">
        <ele>185.708</ele>
        <time>2019-10-14T07:01:00Z</time>
      </trkpt>
      <trkpt lat="37.19966" lon="-8.04296">
        <ele>188.613</ele>
        <time>2019-10-14T07:01:20Z</time>
      </trkpt>
      <trkpt lat="37.19967" lon="-8.04303">
        <ele>189.211</ele>
        <time>2019-10-14T07:01:40Z</time>
      </trkpt>
      <trkpt lat="37.19968" lon="-8.04319">
        <ele>190.773</ele>
        <time>2019-10-14T07:02:00Z</time>
      </trkpt>
      <trkpt lat="37.19969" lon="-8.04324">
        <ele>191.113</ele>
        <time>2019-10-14T07:02:20Z</time>
      </trkpt>
      <trkpt lat="37.1997" lon="-8.04329">
        <ele>191.695</ele>
        <time>2019-10-14T07:02:40Z</time>
      </trkpt>
      <trkpt lat="37.19972" lon="-8.04334">
        <ele>192.096</ele>
        <time>2019-10-14T07:03:00Z</time>
      </trkpt>
      <trkpt lat="37.19974" lon="-8.04339">
        <ele>192.518</ele>
        <time>2019-10-14T07:03:20Z</time>
      </trkpt>
      <trkpt lat="37.19979" lon="-8.0435">
        <ele>193.468</ele>
        <time>2019-10-14T07:03:40Z</time>
      </trkpt>
      <trkpt lat="37.19983" lon="-8.04357">
        <ele>194.065</ele>
        <time>2019-10-14T07:04:00Z</time>
      </trkpt>
      <trkpt lat="37.19997" lon="-8.04374">
        <ele>195.768</ele>
        <time>2019-10-14T07:04:20Z</time>
      </trkpt>
      <trkpt lat="37.20002" lon="-8.04378">
        <ele>196.414</ele>
        <time>2019-10-14T07:04:40Z</time>
      </trkpt>
      <trkpt lat="37.20007" lon="-8.0438">
        <ele>197.608</ele>
        <time>2019-10-14T07:05:00Z</time>
      </trkpt>
      <trkpt lat="37.20011" lon="-8.04381">
        <ele>198.81</ele>
        <time>2019-10-14T07:05:20Z</time>
      </trkpt>
      <trkpt lat="37.20015" lon="-8.0438">
        <ele>199.758</ele>
        <time>2019-10-14T07:05:40Z</time>
      </trkpt>
      <trkpt lat="37.20017" lon="-8.04378">
        <ele>200.43</ele>
        <time>2019-10-14T07:06:00Z</time>
      </trkpt>
      <trkpt lat="37.2002" lon="-8.04375">
        <ele>201.01</ele>
        <time>2019-10-14T07:06:20Z</time>
      </trkpt>
      <trkpt lat="37.20023" lon="-8.04371">
        <ele>201.872</ele>
        <time>2019-10-14T07:06:40Z</time>
      </trkpt>
      <trkpt lat="37.20034" lon="-8.04358">
        <ele>204.883</ele>
        <time>2019-10-14T07:07:00Z</time>
      </trkpt>
      <trkpt lat="37.20037" lon="-8.04355">
        <ele>205.675</ele>
        <time>2019-10-14T07:07:20Z</time>
      </trkpt>
      <trkpt lat="37.20039" lon="-8.04354">
        <ele>206.395</ele>
        <time>2019-10-14T07:07:40Z</time>
      </trkpt>
      <trkpt lat="37.20041" lon="-8.04354">
        <ele>207.045</ele>
        <time>2019-10-14T07:08:00Z</time>
      </trkpt>
      <trkpt lat="37.20043" lon="-8.04355">
        <ele>207.847</ele>
        <time>2019-10-14T07:08:20Z</time>
      </trkpt>
      <trkpt lat="37.20046" lon="-8.04357">
        <ele>208.811</ele>
        <time>2019-10-14T07:08:40Z</time>
      </trkpt>
      <trkpt lat="37.2005" lon="-8.04359">
        <ele>210.208</ele>
        <time>2019-10-14T07:09:00Z</time>
      </trkpt>
      <trkpt lat="37.20055" lon="-8.04362">
        <ele>211.778</ele>
        <time>2019-10-14T07:09:20Z</time>
      </trkpt>
      <trkpt lat="37.20064" lon="-8.04368">
        <ele>213.486</ele>
        <time>2019-10-14T07:09:40Z</time>
      </trkpt>
      <trkpt lat="37.20077" lon="-8.04376">
        <ele>215.838</ele>
        <time>2019-10-14T07:10:00Z</time>
      </trkpt>
      <trkpt lat="37.20081" lon="-8.04378">
        <ele>216.688</ele>
        <time>2019-10-14T07:10:20Z</time>
      </trkpt>
      <trkpt lat="37.20085" lon="-8.04382">
        <ele>217.14</ele>
        <time>2019-10-14T07:10:40Z</time>
      </trkpt>
      <trkpt lat="37.20088" lon="-8.04386">
        <ele>217.461</ele>
        <time>2019-10-14T07:11:00Z</time>
      </trkpt>
      <trkpt lat="37.20092" lon="-8.04392">
        <ele>217.843</ele>
        <time>2019-10-14T07:11:20Z</time>
      </trkpt>
      <trkpt lat="37.20095" lon="-8.04396">
        <ele>218.183</ele>
        <time>2019-10-14T07:11:40Z</time>
      </trkpt>
      <trkpt lat="37.20108" lon="-8.04416">
        <ele>218.511</ele>
        <time>2019-10-14T07:12:00Z</time>
      </trkpt>
      <trkpt lat="37.20123" lon="-8.04448">
        <ele>221.521</ele>
        <time>2019-10-14T07:12:20Z</time>
      </trkpt>
      <trkpt lat="37.20128" lon="-8.04454">
        <ele>222.703</ele>
        <time>2019-10-14T07:12:40Z</time>
      </trkpt>
      <trkpt lat="37.20142" lon="-8.04475">
        <ele>226.608</ele>
        <time>2019-10-14T07:13:00Z</time>
      </trkpt>
      <trkpt lat="37.20144" lon="-8.04482">
        <ele>227.275</ele>
        <time>2019-10-14T07:13:20Z</time>
      </trkpt>
      <trkpt lat="37.20146" lon="-8.04488">
        <ele>227.533</ele>
        <time>2019-10-14T07:13:40Z</time>
      </trkpt>
      <trkpt lat="37.20147" lon="-8.04494">
        <ele>227.845</ele>
        <time>2019-10-14T07:14:00Z</time>
      </trkpt>
      <trkpt lat="37.20148" lon="-8.04499">
        <ele>228.085</ele>
        <time>2019-10-14T07:14:20Z</time>
      </trkpt>
      <trkpt lat="37.2015" lon="-8.04502">
        <ele>228.377</ele>
        <time>2019-10-14T07:14:40Z</time>
      </trkpt>
      <trkpt lat="37.20151" lon="-8.04504">
        <ele>228.618</ele>
        <time>2019-10-14T07:15:00Z</time>
      </trkpt>
      <trkpt lat="37.20152" lon="-8.04506">
        <ele>228.94</ele>
        <time>2019-10-14T07:15:20Z</time>
      </trkpt>
      <trkpt lat="37.20153" lon="-8.04505">
        <ele>229.28</ele>
        <time>2019-10-14T07:15:40Z</time>
      </trkpt>
      <trkpt lat="37.20152" lon="-8.04504">
        <ele>228.938</ele>
        <time>2019-10-14T07:16:00Z</time>
      </trkpt>
      <trkpt lat="37.20151" lon="-8.04502">
        <ele>228.87</ele>
        <time>2019-10-14T07:16:20Z</time>
      </trkpt>
      <trkpt lat="37.20151" lon="-8.04503">
        <ele>228.717</ele>
        <time>2019-10-14T07:16:40Z</time>
      </trkpt>
      <trkpt lat="37.20151" lon="-8.04504">
        <ele>228.708</ele>
        <time>2019-10-14T07:17:00Z</time>
      </trkpt>
      <trkpt lat="37.20151" lon="-8.04504">
        <ele>228.667</ele>
        <time>2019-10-14T07:17:20Z</time>
      </trkpt>
      <trkpt lat="37.20151" lon="-8.04505">
        <ele>228.795</ele>
        <time>2019-10-14T07:17:40Z</time>
      </trkpt>
      <trkpt lat="37.20151" lon="-8.04504">
        <ele>228.747</ele>
        <time>2019-10-14T07:18:00Z</time>
      </trkpt>
      <trkpt lat="37.2015" lon="-8.04503">
        <ele>228.487</ele>
        <time>2019-10-14T07:18:20Z</time>
      </trkpt>
      <trkpt lat="37.2015" lon="-8.04503">
        <ele>228.549</ele>
        <time>2019-10-14T07:18:40Z</time>
      </trkpt>
      <trkpt lat="37.20151" lon="-8.04505">
        <ele>228.53</ele>
        <time>2019-10-14T07:19:00Z</time>
      </trkpt>
      <trkpt lat="37.2015" lon="-8.04504">
        <ele>228.432</ele>
        <time>2019-10-14T07:19:20Z</time>
      </trkpt>
      <trkpt lat="37.2015" lon="-8.04505">
        <ele>228.432</ele>
        <time>2019-10-14T07:19:40Z</time>
      </trkpt>
      <trkpt lat="37.2015" lon="-8.04506">
        <ele>228.222</ele>
        <time>2019-10-14T07:20:00Z</time>
      </trkpt>
      <trkpt lat="37.2015" lon="-8.04505">
        <ele>228.162</ele>
        <time>2019-10-14T07:20:20Z</time>
      </trkpt>
      <trkpt lat="37.2015" lon="-8.04505">
        <ele>228.108</ele>
        <time>2019-10-14T07:20:40Z</time>
      </trkpt>
      <trkpt lat="37.2015" lon="-8.04504">
        <ele>228.208</ele>
        <time>2019-10-14T07:21:00Z</time>
      </trkpt>
      <trkpt lat="37.2015" lon="-8.04504">
        <ele>228.366</ele>
        <time>2019-10-14T07:21:20Z</time>
      </trkpt>
      <trkpt lat="37.2015" lon="-8.04506">
        <ele>228.234</ele>
        <time>2019-10-14T07:21:40Z</time>
      </trkpt>
      <trkpt lat="37.20151" lon="-8.04508">
        <ele>228.326</ele>
        <time>2019-10-14T07:22:00Z</time>
      </trkpt>
      <trkpt lat="37.20151" lon="-8.04508">
        <ele>228.446</ele>
        <time>2019-10-14T07:22:20Z</time>
      </trkpt>
      <trkpt lat="37.20153" lon="-8.04512">
        <ele>229.048</ele>
        <time>2019-10-14T07:22:40Z</time>
      </trkpt>
      <trkpt lat="37.20155" lon="-8.04514">
        <ele>229.789</ele>
        <time>2019-10-14T07:23:00Z</time>
      </trkpt>
      <trkpt lat="37.20158" lon="-8.04516">
        <ele>230.511</ele>
        <time>2019-10-14T07:23:20Z</time>
      </trkpt>
      <trkpt lat="37.20161" lon="-8.04518">
        <ele>231.741</ele>
        <time>2019-10-14T07:23:40Z</time>
      </trkpt>
      <trkpt lat="37.20164" lon="-8.0452">
        <ele>233.127</ele>
        <time>2019-10-14T07:24:00Z</time>
      </trkpt>
      <trkpt lat="37.20176" lon="-8.04528">
        <ele>236.368</ele>
        <time>2019-10-14T07:24:20Z</time>
      </trkpt>
      <trkpt lat="37.2018" lon="-8.04533">
        <ele>237.014</ele>
        <time>2019-10-14T07:24:40Z</time>
      </trkpt>
      <trkpt lat="37.20185" lon="-8.0454">
        <ele>237.508</ele>
        <time>2019-10-14T07:25:00Z</time>
      </trkpt>
      <trkpt lat="37.20201" lon="-8.04563">
        <ele>239.246</ele>
        <time>2019-10-14T07:25:20Z</time>
      </trkpt>
      <trkpt lat="37.20206" lon="-8.04569">
        <ele>240.124</ele>
        <time>2019-10-14T07:25:40Z</time>
      </trkpt>
      <trkpt lat="37.20212" lon="-8.04574">
        <ele>241.486</ele>
        <time>2019-10-14T07:26:00Z</time>
      </trkpt>
      <trkpt lat="37.20219" lon="-8.04577">
        <ele>242.956</ele>
        <time>2019-10-14T07:26:20Z</time>
      </trkpt>
      <trkpt lat="37.20225" lon="-8.04579">
        <ele>244.418</ele>
        <time>2019-10-14T07:26:40Z</time>
      </trkpt>
      <trkpt lat="37.20231" lon="-8.0458">
        <ele>246.039</ele>
        <time>2019-10-14T07:27:00Z</time>
      </trkpt>
      <trkpt lat="37.20236" lon="-8.0458">
        <ele>247.371</ele>
        <time>2019-10-14T07:27:20Z</time>
      </trkpt>
      <trkpt lat="37.2024" lon="-8.04581">
        <ele>248.351</ele>
        <time>2019-10-14T07:27:40Z</time>
      </trkpt>
      <trkpt lat="37.20244" lon="-8.04584">
        <ele>249.155</ele>
        <time>2019-10-14T07:28:00Z</time>
      </trkpt>
      <trkpt lat="37.20248" lon="-8.04587">
        <ele>250.107</ele>
        <time>2019-10-14T07:28:20Z</time>
      </trkpt>
      <trkpt lat="37.20267" lon="-8.046">
        <ele>252.617</ele>
        <time>2019-10-14T07:28:40Z</time>
      </trkpt>
      <trkpt lat="37.20282" lon="-8.04607">
        <ele>254.908</ele>
        <time>2019-10-14T07:29:00Z</time>
      </trkpt>
      <trkpt lat="37.20289" lon="-8.04609">
        <ele>256.079</ele>
        <time>2019-10-14T07:29:20Z</time>
      </trkpt>
      <trkpt lat="37.20295" lon="-8.0461">
        <ele>257.237</ele>
        <time>2019-10-14T07:29:40Z</time>
      </trkpt>
      <trkpt lat="37.20302" lon="-8.0461">
        <ele>258.479</ele>
        <time>2019-10-14T07:30:00Z</time>
      </trkpt>
      <trkpt lat="37.20318" lon="-8.0461">
        <ele>260.499</ele>
        <time>2019-10-14T07:30:20Z</time>
      </trkpt>
      <trkpt lat="37.20327" lon="-8.04609">
        <ele>261.481</ele>
        <time>2019-10-14T07:30:40Z</time>
      </trkpt>
      <trkpt lat="37.20346" lon="-8.0461">
        <ele>263.142</ele>
        <time>2019-10-14T07:31:00Z</time>
      </trkpt>
      <trkpt lat="37.20385" lon="-8.04611">
        <ele>265.754</ele>
        <time>2019-10-14T07:31:20Z</time>
      </trkpt>
      <trkpt lat="37.20393" lon="-8.04611">
        <ele>266.524</ele>
        <time>2019-10-14T07:31:40Z</time>
      </trkpt>
      <trkpt lat="37.20402" lon="-8.0461">
        <ele>267.576</ele>
        <time>2019-10-14T07:32:00Z</time>
      </trkpt>
      <trkpt lat="37.20402" lon="-8.04611">
        <ele>267.49</ele>
        <time>2019-10-14T07:32:20Z</time>
      </trkpt>
      <trkpt lat="37.20403" lon="-8.04611">
        <ele>267.519</ele>
        <time>2019-10-14T07:32:40Z</time>
      </trkpt>
      <trkpt lat="37.20404" lon="-8.04613">
        <ele>267.608</ele>
        <time>2019-10-14T07:33:00Z</time>
      </trkpt>
      <trkpt lat="37.20404" lon="-8.04614">
        <ele>267.711</ele>
        <time>2019-10-14T07:33:20Z</time>
      </trkpt>
      <trkpt lat="37.20405" lon="-8.04617">
        <ele>267.799</ele>
        <time>2019-10-14T07:33:40Z</time>
      </trkpt>
      <trkpt lat="37.20405" lon="-8.04619">
        <ele>267.731</ele>
        <time>2019-10-14T07:34:00Z</time>
      </trkpt>
      <trkpt lat="37.20406" lon="-8.04623">
        <ele>267.851</ele>
        <time>2019-10-14T07:34:20Z</time>
      </trkpt>
      <trkpt lat="37.20407" lon="-8.04629">
        <ele>267.933</ele>
        <time>2019-10-14T07:34:40Z</time>
      </trkpt>
      <trkpt lat="37.20409" lon="-8.04657">
        <ele>268.364</ele>
        <time>2019-10-14T07:35:00Z</time>
      </trkpt>
      <trkpt lat="37.20408" lon="-8.04666">
        <ele>268.436</ele>
        <time>2019-10-14T07:35:20Z</time>
      </trkpt>
      <trkpt lat="37.20405" lon="-8.04675">
        <ele>268.216</ele>
        <time>2019-10-14T07:35:40Z</time>
      </trkpt>
      <trkpt lat="37.20402" lon="-8.04685">
        <ele>267.954</ele>
        <time>2019-10-14T07:36:00Z</time>
      </trkpt>
      <trkpt lat="37.20397" lon="-8.04695">
        <ele>267.756</ele>
        <time>2019-10-14T07:36:20Z</time>
      </trkpt>
      <trkpt lat="37.20392" lon="-8.04706">
        <ele>268.111</ele>
        <time>2019-10-14T07:36:40Z</time>
      </trkpt>
      <trkpt lat="37.20388" lon="-8.04718">
        <ele>268.608</ele>
        <time>2019-10-14T07:37:00Z</time>
      </trkpt>
      <trkpt lat="37.20374" lon="-8.04764">
        <ele>272.589</ele>
        <time>2019-10-14T07:37:20Z</time>
      </trkpt>
      <trkpt lat="37.20363" lon="-8.04807">
        <ele>274.117</ele>
        <time>2019-10-14T07:37:40Z</time>
      </trkpt>
      <trkpt lat="37.20362" lon="-8.04816">
        <ele>274.119</ele>
        <time>2019-10-14T07:38:00Z</time>
      </trkpt>
      <trkpt lat="37.20362" lon="-8.04825">
        <ele>274.099</ele>
        <time>2019-10-14T07:38:20Z</time>
      </trkpt>
      <trkpt lat="37.20364" lon="-8.04833">
        <ele>274.231</ele>
        <time>2019-10-14T07:38:40Z</time>
      </trkpt>
      <trkpt lat="37.20379" lon="-8.0487">
        <ele>277.452</ele>
        <time>2019-10-14T07:39:00Z</time>
      </trkpt>
      <trkpt lat="37.20381" lon="-8.04882">
        <ele>278.494</ele>
        <time>2019-10-14T07:39:20Z</time>
      </trkpt>
      <trkpt lat="37.20384" lon="-8.04906">
        <ele>279.044</ele>
        <time>2019-10-14T07:39:40Z</time>
      </trkpt>
      <trkpt lat="37.20387" lon="-8.04917">
        <ele>279.028</ele>
        <time>2019-10-14T07:40:00Z</time>
      </trkpt>
      <trkpt lat="37.20391" lon="-8.04926">
        <ele>278.989</ele>
        <time>2019-10-14T07:40:20Z</time>
      </trkpt>
      <trkpt lat="37.20396" lon="-8.04932">
        <ele>278.917</ele>
        <time>2019-10-14T07:40:40Z</time>
      </trkpt>
      <trkpt lat="37.20402" lon="-8.04937">
        <ele>278.908</ele>
        <time>2019-10-14T07:41:00Z</time>
      </trkpt>
      <trkpt lat="37.2041" lon="-8.04941">
        <ele>278.966</ele>
        <time>2019-10-14T07:41:20Z</time>
      </trkpt>
      <trkpt lat="37.20418" lon="-8.04946">
        <ele>278.994</ele>
        <time>2019-10-14T07:41:40Z</time>
      </trkpt>
      <trkpt lat="37.20425" lon="-8.04952">
        <ele>278.596</ele>
        <time>2019-10-14T07:42:00Z</time>
      </trkpt>
      <trkpt lat="37.20431" lon="-8.0496">
        <ele>278.346</ele>
        <time>2019-10-14T07:42:20Z</time>
      </trkpt>
      <trkpt lat="37.20435" lon="-8.04969">
        <ele>278.518</ele>
        <time>2019-10-14T07:42:40Z</time>
      </trkpt>
      <trkpt lat="37.20439" lon="-8.0498">
        <ele>278.459</ele>
        <time>2019-10-14T07:43:00Z</time>
      </trkpt>
      <trkpt lat="37.20442" lon="-8.04992">
        <ele>278.261</ele>
        <time>2019-10-14T07:43:20Z</time>
      </trkpt>
      <trkpt lat="37.20448" lon="-8.05015">
        <ele>277.641</ele>
        <time>2019-10-14T07:43:40Z</time>
      </trkpt>
      <trkpt lat="37.2045" lon="-8.05026">
        <ele>277.438</ele>
        <time>2019-10-14T07:44:00Z</time>
      </trkpt>
      <trkpt lat="37.20451" lon="-8.05038">
        <ele>277.37</ele>
        <time>2019-10-14T07:44:20Z</time>
      </trkpt>
      <trkpt lat="37.20451" lon="-8.0505">
        <ele>277.317</ele>
        <time>2019-10-14T07:44:40Z</time>
      </trkpt>
      <trkpt lat="37.2045" lon="-8.05061">
        <ele>277.308</ele>
        <time>2019-10-14T07:45:00Z</time>
      </trkpt>
      <trkpt lat="37.20449" lon="-8.05071">
        <ele>277.257</ele>
        <time>2019-10-14T07:45:20Z</time>
      </trkpt>
      <trkpt lat="37.20446" lon="-8.0508">
        <ele>277.195</ele>
        <time>2019-10-14T07:45:40Z</time>
      </trkpt>
      <trkpt lat="37.20442" lon="-8.0509">
        <ele>276.857</ele>
        <time>2019-10-14T07:46:00Z</time>
      </trkpt>
      <trkpt lat="37.20439" lon="-8.05101">
        <ele>276.417</ele>
        <time>2019-10-14T07:46:20Z</time>
      </trkpt>
      <trkpt lat="37.20436" lon="-8.05113">
        <ele>275.999</ele>
        <time>2019-10-14T07:46:40Z</time>
      </trkpt>
      <trkpt lat="37.20432" lon="-8.05125">
        <ele>275.06</ele>
        <time>2019-10-14T07:47:00Z</time>
      </trkpt>
      <trkpt lat="37.20427" lon="-8.05137">
        <ele>274.132</ele>
        <time>2019-10-14T07:47:20Z</time>
      </trkpt>
      <trkpt lat="37.20411" lon="-8.05174">
        <ele>270.962</ele>
        <time>2019-10-14T07:47:40Z</time>
      </trkpt>
      <trkpt lat="37.20407" lon="-8.05185">
        <ele>270.886</ele>
        <time>2019-10-14T07:48:00Z</time>
      </trkpt>
      <trkpt lat="37.20404" lon="-8.05196">
        <ele>270.76</ele>
        <time>2019-10-14T07:48:20Z</time>
      </trkpt>
      <trkpt lat="37.20401" lon="-8.05208">
        <ele>270.826</ele>
        <time>2019-10-14T07:48:40Z</time>
      </trkpt>
      <trkpt lat="37.20397" lon="-8.05221">
        <ele>270.808</ele>
        <time>2019-10-14T07:49:00Z</time>
      </trkpt>
      <trkpt lat="37.20391" lon="-8.05234">
        <ele>270.372</ele>
        <time>2019-10-14T07:49:20Z</time>
      </trkpt>
      <trkpt lat="37.20378" lon="-8.05266">
        <ele>269.98</ele>
        <time>2019-10-14T07:49:40Z</time>
      </trkpt>
      <trkpt lat="37.20371" lon="-8.05274">
        <ele>269.692</ele>
        <time>2019-10-14T07:50:00Z</time>
      </trkpt>
      <trkpt lat="37.20364" lon="-8.05282">
        <ele>269.352</ele>
        <time>2019-10-14T07:50:20Z</time>
      </trkpt>
      <trkpt lat="37.20358" lon="-8.0529">
        <ele>269.384</ele>
        <time>2019-10-14T07:50:40Z</time>
      </trkpt>
      <trkpt lat="37.20354" lon="-8.053">
        <ele>269.315</ele>
        <time>2019-10-14T07:51:00Z</time>
      </trkpt>
      <trkpt lat="37.2035" lon="-8.05311">
        <ele>269.457</ele>
        <time>2019-10-14T07:51:20Z</time>
      </trkpt>
      <trkpt lat="37.20347" lon="-8.0532">
        <ele>269.547</ele>
        <time>2019-10-14T07:51:40Z</time>
      </trkpt>
      <trkpt lat="37.20343" lon="-8.05329">
        <ele>269.559</ele>
        <time>2019-10-14T07:52:00Z</time>
      </trkpt>
      <trkpt lat="37.20338" lon="-8.05337">
        <ele>269.303</ele>
        <time>2019-10-14T07:52:20Z</time>
      </trkpt>
      <trkpt lat="37.20332" lon="-8.05343">
        <ele>268.923</ele>
        <time>2019-10-14T07:52:40Z</time>
      </trkpt>
      <trkpt lat="37.20325" lon="-8.05349">
        <ele>268.308</ele>
        <time>2019-10-14T07:53:00Z</time>
      </trkpt>
      <trkpt lat="37.20317" lon="-8.05355">
        <ele>267.719</ele>
        <time>2019-10-14T07:53:20Z</time>
      </trkpt>
      <trkpt lat="37.20309" lon="-8.05361">
        <ele>267.237</ele>
        <time>2019-10-14T07:53:40Z</time>
      </trkpt>
      <trkpt lat="37.203" lon="-8.05365">
        <ele>267.019</ele>
        <time>2019-10-14T07:54:00Z</time>
      </trkpt>
      <trkpt lat="37.20294" lon="-8.05369">
        <ele>266.839</ele>
        <time>2019-10-14T07:54:20Z</time>
      </trkpt>
      <trkpt lat="37.20289" lon="-8.05374">
        <ele>266.691</ele>
        <time>2019-10-14T07:54:40Z</time>
      </trkpt>
      <trkpt lat="37.20286" lon="-8.0538">
        <ele>266.722</ele>
        <time>2019-10-14T07:55:00Z</time>
      </trkpt>
      <trkpt lat="37.20284" lon="-8.05389">
        <ele>266.854</ele>
        <time>2019-10-14T07:55:20Z</time>
      </trkpt>
      <trkpt lat="37.20282" lon="-8.05399">
        <ele>267.494</ele>
        <time>2019-10-14T07:55:40Z</time>
      </trkpt>
      <trkpt lat="37.2028" lon="-8.0541">
        <ele>267.978</ele>
        <time>2019-10-14T07:56:00Z</time>
      </trkpt>
      <trkpt lat="37.20277" lon="-8.0542">
        <ele>268.133</ele>
        <time>2019-10-14T07:56:20Z</time>
      </trkpt>
      <trkpt lat="37.20272" lon="-8.05432">
        <ele>268.026</ele>
        <time>2019-10-14T07:56:40Z</time>
      </trkpt>
      <trkpt lat="37.20267" lon="-8.05444">
        <ele>267.708</ele>
        <time>2019-10-14T07:57:00Z</time>
      </trkpt>
      <trkpt lat="37.20264" lon="-8.05456">
        <ele>267.381</ele>
        <time>2019-10-14T07:57:20Z</time>
      </trkpt>
      <trkpt lat="37.20261" lon="-8.05469">
        <ele>267.249</ele>
        <time>2019-10-14T07:57:40Z</time>
      </trkpt>
      <trkpt lat="37.20244" lon="-8.05548">
        <ele>269.361</ele>
        <time>2019-10-14T07:58:00Z</time>
      </trkpt>
      <trkpt lat="37.20243" lon="-8.05558">
        <ele>270.111</ele>
        <time>2019-10-14T07:58:20Z</time>
      </trkpt>
      <trkpt lat="37.20243" lon="-8.05567">
        <ele>270.863</ele>
        <time>2019-10-14T07:58:40Z</time>
      </trkpt>
      <trkpt lat="37.20245" lon="-8.05576">
        <ele>271.614</ele>
        <time>2019-10-14T07:59:00Z</time>
      </trkpt>
      <trkpt lat="37.20247" lon="-8.05584">
        <ele>272.456</ele>
        <time>2019-10-14T07:59:20Z</time>
      </trkpt>
      <trkpt lat="37.2025" lon="-8.05591">
        <ele>272.916</ele>
        <time>2019-10-14T07:59:40Z</time>
      </trkpt>
      <trkpt lat="37.20253" lon="-8.05599">
        <ele>273.453</ele>
        <time>2019-10-14T08:00:00Z</time>
      </trkpt>
      <trkpt lat="37.20256" lon="-8.05608">
        <ele>273.904</ele>
        <time>2019-10-14T08:00:20Z</time>
      </trkpt>
      <trkpt lat="37.20259" lon="-8.05617">
        <ele>274.114</ele>
        <time>2019-10-14T08:00:40Z</time>
      </trkpt>
      <trkpt lat="37.20262" lon="-8.05625">
        <ele>274.308</ele>
        <time>2019-10-14T08:01:00Z</time>
      </trkpt>
      <trkpt lat="37.20266" lon="-8.05633">
        <ele>274.479</ele>
        <time>2019-10-14T08:01:20Z</time>
      </trkpt>
      <trkpt lat="37.20272" lon="-8.05642">
        <ele>274.557</ele>
        <time>2019-10-14T08:01:40Z</time>
      </trkpt>
      <trkpt lat="37.20298" lon="-8.05691">
        <ele>276.669</ele>
        <time>2019-10-14T08:02:00Z</time>
      </trkpt>
      <trkpt lat="37.20304" lon="-8.05704">
        <ele>276.999</ele>
        <time>2019-10-14T08:02:20Z</time>
      </trkpt>
      <trkpt lat="37.20333" lon="-8.05764">
        <ele>282.461</ele>
        <time>2019-10-14T08:02:40Z</time>
      </trkpt>
      <trkpt lat="37.20365" lon="-8.05829">
        <ele>285.612</ele>
        <time>2019-10-14T08:03:00Z</time>
      </trkpt>
      <trkpt lat="37.20376" lon="-8.05851">
        <ele>286.984</ele>
        <time>2019-10-14T08:03:20Z</time>
      </trkpt>
      <trkpt lat="37.20379" lon="-8.05862">
        <ele>287.364</ele>
        <time>2019-10-14T08:03:40Z</time>
      </trkpt>
      <trkpt lat="37.2038" lon="-8.05872">
        <ele>287.332</ele>
        <time>2019-10-14T08:04:00Z</time>
      </trkpt>
      <trkpt lat="37.2038" lon="-8.05881">
        <ele>287.192</ele>
        <time>2019-10-14T08:04:20Z</time>
      </trkpt>
      <trkpt lat="37.20378" lon="-8.05889">
        <ele>286.811</ele>
        <time>2019-10-14T08:04:40Z</time>
      </trkpt>
      <trkpt lat="37.20375" lon="-8.05897">
        <ele>285.908</ele>
        <time>2019-10-14T08:05:00Z</time>
      </trkpt>
      <trkpt lat="37.20364" lon="-8.0593">
        <ele>282.537</ele>
        <time>2019-10-14T08:05:20Z</time>
      </trkpt>
      <trkpt lat="37.20356" lon="-8.05957">
        <ele>280.355</ele>
        <time>2019-10-14T08:05:40Z</time>
      </trkpt>
      <trkpt lat="37.20352" lon="-8.05974">
        <ele>279.747</ele>
        <time>2019-10-14T08:06:00Z</time>
      </trkpt>
      <trkpt lat="37.20344" lon="-8.05999">
        <ele>279.597</ele>
        <time>2019-10-14T08:06:20Z</time>
      </trkpt>
      <trkpt lat="37.20343" lon="-8.05999">
        <ele>279.479</ele>
        <time>2019-10-14T08:06:40Z</time>
      </trkpt>
      <trkpt lat="37.20342" lon="-8.06003">
        <ele>279.37</ele>
        <time>2019-10-14T08:07:00Z</time>
      </trkpt>
      <trkpt lat="37.20341" lon="-8.0601">
        <ele>279.392</ele>
        <time>2019-10-14T08:07:20Z</time>
      </trkpt>
      <trkpt lat="37.2034" lon="-8.0602">
        <ele>279.482</ele>
        <time>2019-10-14T08:07:40Z</time>
      </trkpt>
      <trkpt lat="37.2034" lon="-8.06032">
        <ele>279.664</ele>
        <time>2019-10-14T08:08:00Z</time>
      </trkpt>
      <trkpt lat="37.20341" lon="-8.06041">
        <ele>279.906</ele>
        <time>2019-10-14T08:08:20Z</time>
      </trkpt>
      <trkpt lat="37.20343" lon="-8.06051">
        <ele>280.216</ele>
        <time>2019-10-14T08:08:40Z</time>
      </trkpt>
      <trkpt lat="37.20346" lon="-8.06059">
        <ele>280.608</ele>
        <time>2019-10-14T08:09:00Z</time>
      </trkpt>
      <trkpt lat="37.2035" lon="-8.06069">
        <ele>281.13</ele>
        <time>2019-10-14T08:09:20Z</time>
      </trkpt>
      <trkpt lat="37.20383" lon="-8.0616">
        <ele>282.458</ele>
        <time>2019-10-14T08:09:40Z</time>
      </trkpt>
      <trkpt lat="37.20399" lon="-8.06207">
        <ele>284.33</ele>
        <time>2019-10-14T08:10:00Z</time>
      </trkpt>
      <trkpt lat="37.2042" lon="-8.06307">
        <ele>284.12</ele>
        <time>2019-10-14T08:10:20Z</time>
      </trkpt>
      <trkpt lat="37.20419" lon="-8.06318">
        <ele>284.192</ele>
        <time>2019-10-14T08:10:40Z</time>
      </trkpt>
      <trkpt lat="37.20416" lon="-8.0633">
        <ele>284.023</ele>
        <time>2019-10-14T08:11:00Z</time>
      </trkpt>
      <trkpt lat="37.20389" lon="-8.06444">
        <ele>284.035</ele>
        <time>2019-10-14T08:11:20Z</time>
      </trkpt>
      <trkpt lat="37.20377" lon="-8.06531">
        <ele>282.645</ele>
        <time>2019-10-14T08:11:40Z</time>
      </trkpt>
      <trkpt lat="37.20363" lon="-8.06665">
        <ele>282.188</ele>
        <time>2019-10-14T08:12:00Z</time>
      </trkpt>
      <trkpt lat="37.20363" lon="-8.06802">
        <ele>281.224</ele>
        <time>2019-10-14T08:12:20Z</time>
      </trkpt>
      <trkpt lat="37.20364" lon="-8.06842">
        <ele>280.226</ele>
        <time>2019-10-14T08:12:40Z</time>
      </trkpt>
      <trkpt lat="37.20366" lon="-8.06852">
        <ele>280.408</ele>
        <time>2019-10-14T08:13:00Z</time>
      </trkpt>
      <trkpt lat="37.20369" lon="-8.06862">
        <ele>280.632</ele>
        <time>2019-10-14T08:13:20Z</time>
      </trkpt>
      <trkpt lat="37.20372" lon="-8.06873">
        <ele>281.08</ele>
        <time>2019-10-14T08:13:40Z</time>
      </trkpt>
      <trkpt lat="37.20373" lon="-8.06886">
        <ele>281.452</ele>
        <time>2019-10-14T08:14:00Z</time>
      </trkpt>
      <trkpt lat="37.20375" lon="-8.06901">
        <ele>281.532</ele>
        <time>2019-10-14T08:14:20Z</time>
      </trkpt>
      <trkpt lat="37.20382" lon="-8.06942">
        <ele>281.714</ele>
        <time>2019-10-14T08:14:40Z</time>
      </trkpt>
      <trkpt lat="37.20395" lon="-8.0698">
        <ele>280.935</ele>
        <time>2019-10-14T08:15:00Z</time>
      </trkpt>
      <trkpt lat="37.20398" lon="-8.06989">
        <ele>280.767</ele>
        <time>2019-10-14T08:15:20Z</time>
      </trkpt>
      <trkpt lat="37.204" lon="-8.06999">
        <ele>280.497</ele>
        <time>2019-10-14T08:15:40Z</time>
      </trkpt>
      <trkpt lat="37.20399" lon="-8.07008">
        <ele>280.716</ele>
        <time>2019-10-14T08:16:00Z</time>
      </trkpt>
      <trkpt lat="37.20396" lon="-8.07019">
        <ele>280.976</ele>
        <time>2019-10-14T08:16:20Z</time>
      </trkpt>
      <trkpt lat="37.20394" lon="-8.07029">
        <ele>281.213</ele>
        <time>2019-10-14T08:16:40Z</time>
      </trkpt>
      <trkpt lat="37.20394" lon="-8.07037">
        <ele>281.308</ele>
        <time>2019-10-14T08:17:00Z</time>
      </trkpt>
      <trkpt lat="37.20395" lon="-8.07045">
        <ele>281.515</ele>
        <time>2019-10-14T08:17:20Z</time>
      </trkpt>
      <trkpt lat="37.20399" lon="-8.07055">
        <ele>282.053</ele>
        <time>2019-10-14T08:17:40Z</time>
      </trkpt>
      <trkpt lat="37.20402" lon="-8.07067">
        <ele>282.065</ele>
        <time>2019-10-14T08:18:00Z</time>
      </trkpt>
      <trkpt lat="37.20405" lon="-8.0708">
        <ele>281.775</ele>
        <time>2019-10-14T08:18:20Z</time>
      </trkpt>
      <trkpt lat="37.20424" lon="-8.07143">
        <ele>278.277</ele>
        <time>2019-10-14T08:18:40Z</time>
      </trkpt>
      <trkpt lat="37.20438" lon="-8.07176">
        <ele>277.098</ele>
        <time>2019-10-14T08:19:00Z</time>
      </trkpt>
      <trkpt lat="37.2045" lon="-8.07197">
        <ele>275.92</ele>
        <time>2019-10-14T08:19:20Z</time>
      </trkpt>
      <trkpt lat="37.20457" lon="-8.07207">
        <ele>275.85</ele>
        <time>2019-10-14T08:19:40Z</time>
      </trkpt>
      <trkpt lat="37.20488" lon="-8.07253">
        <ele>275.789</ele>
        <time>2019-10-14T08:20:00Z</time>
      </trkpt>
      <trkpt lat="37.2049" lon="-8.0726">
        <ele>276.006</ele>
        <time>2019-10-14T08:20:20Z</time>
      </trkpt>
      <trkpt lat="37.20491" lon="-8.07266">
        <ele>276.226</ele>
        <time>2019-10-14T08:20:40Z</time>
      </trkpt>
      <trkpt lat="37.2049" lon="-8.07272">
        <ele>276.408</ele>
        <time>2019-10-14T08:21:00Z</time>
      </trkpt>
      <trkpt lat="37.20488" lon="-8.0728">
        <ele>276.632</ele>
        <time>2019-10-14T08:21:20Z</time>
      </trkpt>
      <trkpt lat="37.20485" lon="-8.07289">
        <ele>276.74</ele>
        <time>2019-10-14T08:21:40Z</time>
      </trkpt>
      <trkpt lat="37.20484" lon="-8.07296">
        <ele>276.872</ele>
        <time>2019-10-14T08:22:00Z</time>
      </trkpt>
      <trkpt lat="37.20484" lon="-8.07303">
        <ele>276.992</ele>
        <time>2019-10-14T08:22:20Z</time>
      </trkpt>
      <trkpt lat="37.20486" lon="-8.07313">
        <ele>277.364</ele>
        <time>2019-10-14T08:22:40Z</time>
      </trkpt>
      <trkpt lat="37.20489" lon="-8.0735">
        <ele>278.235</ele>
        <time>2019-10-14T08:23:00Z</time>
      </trkpt>
      <trkpt lat="37.20491" lon="-8.07362">
        <ele>278.337</ele>
        <time>2019-10-14T08:23:20Z</time>
      </trkpt>
      <trkpt lat="37.20497" lon="-8.07392">
        <ele>279.257</ele>
        <time>2019-10-14T08:23:40Z</time>
      </trkpt>
      <trkpt lat="37.20497" lon="-8.07398">
        <ele>279.445</ele>
        <time>2019-10-14T08:24:00Z</time>
      </trkpt>
      <trkpt lat="37.20497" lon="-8.07405">
        <ele>279.647</ele>
        <time>2019-10-14T08:24:20Z</time>
      </trkpt>
      <trkpt lat="37.20495" lon="-8.07428">
        <ele>280.311</ele>
        <time>2019-10-14T08:24:40Z</time>
      </trkpt>
      <trkpt lat="37.20497" lon="-8.0743">
        <ele>280.408</ele>
        <time>2019-10-14T08:25:00Z</time>
      </trkpt>
      <trkpt lat="37.20498" lon="-8.07432">
        <ele>280.578</ele>
        <time>2019-10-14T08:25:20Z</time>
      </trkpt>
      <trkpt lat="37.205" lon="-8.07432">
        <ele>280.626</ele>
        <time>2019-10-14T08:25:40Z</time>
      </trkpt>
      <trkpt lat="37.205" lon="-8.07431">
        <ele>280.598</ele>
        <time>2019-10-14T08:26:00Z</time>
      </trkpt>
      <trkpt lat="37.205" lon="-8.07432">
        <ele>280.548</ele>
        <time>2019-10-14T08:26:20Z</time>
      </trkpt>
      <trkpt lat="37.20509" lon="-8.07429">
        <ele>280.19</ele>
        <time>2019-10-14T08:26:40Z</time>
      </trkpt>
      <trkpt lat="37.20515" lon="-8.07426">
        <ele>279.651</ele>
        <time>2019-10-14T08:27:00Z</time>
      </trkpt>
      <trkpt lat="37.20521" lon="-8.0742">
        <ele>278.833</ele>
        <time>2019-10-14T08:27:20Z</time>
      </trkpt>
      <trkpt lat="37.20528" lon="-8.07413">
        <ele>277.753</ele>
        <time>2019-10-14T08:27:40Z</time>
      </trkpt>
      <trkpt lat="37.20537" lon="-8.07404">
        <ele>276.821</ele>
        <time>2019-10-14T08:28:00Z</time>
      </trkpt>
      <trkpt lat="37.20553" lon="-8.0739">
        <ele>275.241</ele>
        <time>2019-10-14T08:28:20Z</time>
      </trkpt>
      <trkpt lat="37.20561" lon="-8.07385">
        <ele>274.705</ele>
        <time>2019-10-14T08:28:40Z</time>
      </trkpt>
      <trkpt lat="37.20569" lon="-8.0738">
        <ele>274.508</ele>
        <time>2019-10-14T08:29:00Z</time>
      </trkpt>
      <trkpt lat="37.2062" lon="-8.0735">
        <ele>270.136</ele>
        <time>2019-10-14T08:29:20Z</time>
      </trkpt>
      <trkpt lat="37.20633" lon="-8.07341">
        <ele>268.084</ele>
        <time>2019-10-14T08:29:40Z</time>
      </trkpt>
      <trkpt lat="37.20639" lon="-8.07336">
        <ele>267.086</ele>
        <time>2019-10-14T08:30:00Z</time>
      </trkpt>
      <trkpt lat="37.20649" lon="-8.07325">
        <ele>264.946</ele>
        <time>2019-10-14T08:30:20Z</time>
      </trkpt>
      <trkpt lat="37.20652" lon="-8.07319">
        <ele>264.178</ele>
        <time>2019-10-14T08:30:40Z</time>
      </trkpt>
      <trkpt lat="37.20659" lon="-8.07308">
        <ele>262.759</ele>
        <time>2019-10-14T08:31:00Z</time>
      </trkpt>
      <trkpt lat="37.20663" lon="-8.07304">
        <ele>261.811</ele>
        <time>2019-10-14T08:31:20Z</time>
      </trkpt>
      <trkpt lat="37.20668" lon="-8.07303">
        <ele>260.931</ele>
        <time>2019-10-14T08:31:40Z</time>
      </trkpt>
      <trkpt lat="37.20672" lon="-8.07302">
        <ele>259.873</ele>
        <time>2019-10-14T08:32:00Z</time>
      </trkpt>
      <trkpt lat="37.20677" lon="-8.07303">
        <ele>258.685</ele>
        <time>2019-10-14T08:32:20Z</time>
      </trkpt>
      <trkpt lat="37.20681" lon="-8.07306">
        <ele>257.413</ele>
        <time>2019-10-14T08:32:40Z</time>
      </trkpt>
      <trkpt lat="37.20685" lon="-8.0731">
        <ele>256.608</ele>
        <time>2019-10-14T08:33:00Z</time>
      </trkpt>
      <trkpt lat="37.20688" lon="-8.07316">
        <ele>255.931</ele>
        <time>2019-10-14T08:33:20Z</time>
      </trkpt>
      <trkpt lat="37.20691" lon="-8.07323">
        <ele>255.459</ele>
        <time>2019-10-14T08:33:40Z</time>
      </trkpt>
      <trkpt lat="37.20699" lon="-8.07338">
        <ele>253.331</ele>
        <time>2019-10-14T08:34:00Z</time>
      </trkpt>
      <trkpt lat="37.20718" lon="-8.07367">
        <ele>248.521</ele>
        <time>2019-10-14T08:34:20Z</time>
      </trkpt>
      <trkpt lat="37.20726" lon="-8.0738">
        <ele>247.123</ele>
        <time>2019-10-14T08:34:40Z</time>
      </trkpt>
      <trkpt lat="37.20731" lon="-8.07386">
        <ele>246.194</ele>
        <time>2019-10-14T08:35:00Z</time>
      </trkpt>
      <trkpt lat="37.20739" lon="-8.07398">
        <ele>243.566</ele>
        <time>2019-10-14T08:35:20Z</time>
      </trkpt>
      <trkpt lat="37.20753" lon="-8.07416">
        <ele>239.266</ele>
        <time>2019-10-14T08:35:40Z</time>
      </trkpt>
      <trkpt lat="37.20769" lon="-8.07433">
        <ele>236.312</ele>
        <time>2019-10-14T08:36:00Z</time>
      </trkpt>
      <trkpt lat="37.20774" lon="-8.07439">
        <ele>235.532</ele>
        <time>2019-10-14T08:36:20Z</time>
      </trkpt>
      <trkpt lat="37.20779" lon="-8.07443">
        <ele>234.605</ele>
        <time>2019-10-14T08:36:40Z</time>
      </trkpt>
      <trkpt lat="37.20784" lon="-8.07447">
        <ele>233.708</ele>
        <time>2019-10-14T08:37:00Z</time>
      </trkpt>
      <trkpt lat="37.20797" lon="-8.07455">
        <ele>230.845</ele>
        <time>2019-10-14T08:37:20Z</time>
      </trkpt>
      <trkpt lat="37.20814" lon="-8.0746">
        <ele>227.683</ele>
        <time>2019-10-14T08:37:40Z</time>
      </trkpt>
      <trkpt lat="37.20828" lon="-8.07463">
        <ele>225.655</ele>
        <time>2019-10-14T08:38:00Z</time>
      </trkpt>
      <trkpt lat="37.20839" lon="-8.07465">
        <ele>224.455</ele>
        <time>2019-10-14T08:38:20Z</time>
      </trkpt>
      <trkpt lat="37.20843" lon="-8.07463">
        <ele>223.947</ele>
        <time>2019-10-14T08:38:40Z</time>
      </trkpt>
      <trkpt lat="37.20848" lon="-8.07461">
        <ele>223.188</ele>
        <time>2019-10-14T08:39:00Z</time>
      </trkpt>
      <trkpt lat="37.20852" lon="-8.07456">
        <ele>221.94</ele>
        <time>2019-10-14T08:39:20Z</time>
      </trkpt>
      <trkpt lat="37.20856" lon="-8.0745">
        <ele>220.44</ele>
        <time>2019-10-14T08:39:40Z</time>
      </trkpt>
      <trkpt lat="37.20861" lon="-8.07443">
        <ele>218.855</ele>
        <time>2019-10-14T08:40:00Z</time>
      </trkpt>
      <trkpt lat="37.20865" lon="-8.07435">
        <ele>217.807</ele>
        <time>2019-10-14T08:40:20Z</time>
      </trkpt>
      <trkpt lat="37.20868" lon="-8.07427">
        <ele>216.717</ele>
        <time>2019-10-14T08:40:40Z</time>
      </trkpt>
      <trkpt lat="37.2088" lon="-8.07391">
        <ele>214.108</ele>
        <time>2019-10-14T08:41:00Z</time>
      </trkpt>
      <trkpt lat="37.20886" lon="-8.07366">
        <ele>211.769</ele>
        <time>2019-10-14T08:41:20Z</time>
      </trkpt>
      <trkpt lat="37.20888" lon="-8.07357">
        <ele>210.797</ele>
        <time>2019-10-14T08:41:40Z</time>
      </trkpt>
      <trkpt lat="37.20892" lon="-8.07349">
        <ele>209.349</ele>
        <time>2019-10-14T08:42:00Z</time>
      </trkpt>
      <trkpt lat="37.20895" lon="-8.07348">
        <ele>208.999</ele>
        <time>2019-10-14T08:42:20Z</time>
      </trkpt>
      <trkpt lat="37.20898" lon="-8.07348">
        <ele>208.661</ele>
        <time>2019-10-14T08:42:40Z</time>
      </trkpt>
      <trkpt lat="37.20901" lon="-8.07348">
        <ele>208.222</ele>
        <time>2019-10-14T08:43:00Z</time>
      </trkpt>
      <trkpt lat="37.20906" lon="-8.07349">
        <ele>207.814</ele>
        <time>2019-10-14T08:43:20Z</time>
      </trkpt>
      <trkpt lat="37.20911" lon="-8.07351">
        <ele>207.314</ele>
        <time>2019-10-14T08:43:40Z</time>
      </trkpt>
      <trkpt lat="37.20928" lon="-8.07357">
        <ele>205.684</ele>
        <time>2019-10-14T08:44:00Z</time>
      </trkpt>
      <trkpt lat="37.20934" lon="-8.07359">
        <ele>205.107</ele>
        <time>2019-10-14T08:44:20Z</time>
      </trkpt>
      <trkpt lat="37.20939" lon="-8.07361">
        <ele>204.617</ele>
        <time>2019-10-14T08:44:40Z</time>
      </trkpt>
      <trkpt lat="37.20945" lon="-8.07362">
        <ele>204.008</ele>
        <time>2019-10-14T08:45:00Z</time>
      </trkpt>
      <trkpt lat="37.20951" lon="-8.07363">
        <ele>203.052</ele>
        <time>2019-10-14T08:45:20Z</time>
      </trkpt>
      <trkpt lat="37.20957" lon="-8.07364">
        <ele>201.96</ele>
        <time>2019-10-14T08:45:40Z</time>
      </trkpt>
      <trkpt lat="37.20969" lon="-8.07365">
        <ele>199.812</ele>
        <time>2019-10-14T08:46:00Z</time>
      </trkpt>
      <trkpt lat="37.20975" lon="-8.07366">
        <ele>198.832</ele>
        <time>2019-10-14T08:46:20Z</time>
      </trkpt>
      <trkpt lat="37.20992" lon="-8.07368">
        <ele>196.174</ele>
        <time>2019-10-14T08:46:40Z</time>
      </trkpt>
      <trkpt lat="37.21004" lon="-8.07371">
        <ele>194.765</ele>
        <time>2019-10-14T08:47:00Z</time>
      </trkpt>
      <trkpt lat="37.2101" lon="-8.07373">
        <ele>194.257</ele>
        <time>2019-10-14T08:47:20Z</time>
      </trkpt>
      <trkpt lat="37.21023" lon="-8.07377">
        <ele>193.167</ele>
        <time>2019-10-14T08:47:40Z</time>
      </trkpt>
      <trkpt lat="37.21039" lon="-8.07379">
        <ele>191.685</ele>
        <time>2019-10-14T08:48:00Z</time>
      </trkpt>
      <trkpt lat="37.2105" lon="-8.07379">
        <ele>190.589</ele>
        <time>2019-10-14T08:48:20Z</time>
      </trkpt>
      <trkpt lat="37.21056" lon="-8.0738">
        <ele>190.017</ele>
        <time>2019-10-14T08:48:40Z</time>
      </trkpt>
      <trkpt lat="37.21068" lon="-8.07385">
        <ele>189.208</ele>
        <time>2019-10-14T08:49:00Z</time>
      </trkpt>
      <trkpt lat="37.21111" lon="-8.07395">
        <ele>187.072</ele>
        <time>2019-10-14T08:49:20Z</time>
      </trkpt>
      <trkpt lat="37.21118" lon="-8.07397">
        <ele>186.54</ele>
        <time>2019-10-14T08:49:40Z</time>
      </trkpt>
      <trkpt lat="37.2114" lon="-8.07402">
        <ele>184.952</ele>
        <time>2019-10-14T08:50:00Z</time>
      </trkpt>
      <trkpt lat="37.21147" lon="-8.07403">
        <ele>184.112</ele>
        <time>2019-10-14T08:50:20Z</time>
      </trkpt>
      <trkpt lat="37.21161" lon="-8.07404">
        <ele>182.784</ele>
        <time>2019-10-14T08:50:40Z</time>
      </trkpt>
      <trkpt lat="37.21222" lon="-8.07417">
        <ele>180.095</ele>
        <time>2019-10-14T08:51:00Z</time>
      </trkpt>
      <trkpt lat="37.21275" lon="-8.07427">
        <ele>179.197</ele>
        <time>2019-10-14T08:51:20Z</time>
      </trkpt>
      <trkpt lat="37.21312" lon="-8.07436">
        <ele>175.657</ele>
        <time>2019-10-14T08:51:40Z</time>
      </trkpt>
      <trkpt lat="37.21316" lon="-8.07438">
        <ele>175.358</ele>
        <time>2019-10-14T08:52:00Z</time>
      </trkpt>
      <trkpt lat="37.21319" lon="-8.0744">
        <ele>175.152</ele>
        <time>2019-10-14T08:52:20Z</time>
      </trkpt>
      <trkpt lat="37.21322" lon="-8.07443">
        <ele>174.917</ele>
        <time>2019-10-14T08:52:40Z</time>
      </trkpt>
      <trkpt lat="37.21324" lon="-8.07448">
        <ele>174.708</ele>
        <time>2019-10-14T08:53:00Z</time>
      </trkpt>
      <trkpt lat="37.21326" lon="-8.07453">
        <ele>174.529</ele>
        <time>2019-10-14T08:53:20Z</time>
      </trkpt>
      <trkpt lat="37.21329" lon="-8.07458">
        <ele>174.327</ele>
        <time>2019-10-14T08:53:40Z</time>
      </trkpt>
      <trkpt lat="37.21334" lon="-8.07463">
        <ele>174.019</ele>
        <time>2019-10-14T08:54:00Z</time>
      </trkpt>
      <trkpt lat="37.2134" lon="-8.07467">
        <ele>173.579</ele>
        <time>2019-10-14T08:54:20Z</time>
      </trkpt>
      <trkpt lat="37.21349" lon="-8.07471">
        <ele>172.971</ele>
        <time>2019-10-14T08:54:40Z</time>
      </trkpt>
      <trkpt lat="37.21374" lon="-8.07478">
        <ele>172.282</ele>
        <time>2019-10-14T08:55:00Z</time>
      </trkpt>
      <trkpt lat="37.21388" lon="-8.07481">
        <ele>172.064</ele>
        <time>2019-10-14T08:55:20Z</time>
      </trkpt>
      <trkpt lat="37.21401" lon="-8.07484">
        <ele>172.974</ele>
        <time>2019-10-14T08:55:40Z</time>
      </trkpt>
      <trkpt lat="37.21408" lon="-8.07484">
        <ele>173.317</ele>
        <time>2019-10-14T08:56:00Z</time>
      </trkpt>
      <trkpt lat="37.21414" lon="-8.07484">
        <ele>173.587</ele>
        <time>2019-10-14T08:56:20Z</time>
      </trkpt>
      <trkpt lat="37.21421" lon="-8.07482">
        <ele>173.615</ele>
        <time>2019-10-14T08:56:40Z</time>
      </trkpt>
      <trkpt lat="37.21428" lon="-8.07482">
        <ele>173.908</ele>
        <time>2019-10-14T08:57:00Z</time>
      </trkpt>
      <trkpt lat="37.21436" lon="-8.07483">
        <ele>174.215</ele>
        <time>2019-10-14T08:57:20Z</time>
      </trkpt>
      <trkpt lat="37.21457" lon="-8.07484">
        <ele>174.513</ele>
        <time>2019-10-14T08:57:40Z</time>
      </trkpt>
      <trkpt lat="37.21488" lon="-8.07492">
        <ele>175.325</ele>
        <time>2019-10-14T08:58:00Z</time>
      </trkpt>
      <trkpt lat="37.21495" lon="-8.07497">
        <ele>175.785</ele>
        <time>2019-10-14T08:58:20Z</time>
      </trkpt>
      <trkpt lat="37.21501" lon="-8.07501">
        <ele>176.147</ele>
        <time>2019-10-14T08:58:40Z</time>
      </trkpt>
      <trkpt lat="37.21508" lon="-8.07503">
        <ele>176.688</ele>
        <time>2019-10-14T08:59:00Z</time>
      </trkpt>
      <trkpt lat="37.21515" lon="-8.07505">
        <ele>177.02</ele>
        <time>2019-10-14T08:59:20Z</time>
      </trkpt>
      <trkpt lat="37.21522" lon="-8.07506">
        <ele>177.48</ele>
        <time>2019-10-14T08:59:40Z</time>
      </trkpt>
      <trkpt lat="37.21534" lon="-8.07509">
        <ele>177.821</ele>
        <time>2019-10-14T09:00:00Z</time>
      </trkpt>
      <trkpt lat="37.2154" lon="-8.07514">
        <ele>178.041</ele>
        <time>2019-10-14T09:00:20Z</time>
      </trkpt>
      <trkpt lat="37.21545" lon="-8.0752">
        <ele>178.505</ele>
        <time>2019-10-14T09:00:40Z</time>
      </trkpt>
      <trkpt lat="37.21549" lon="-8.07528">
        <ele>179.208</ele>
        <time>2019-10-14T09:01:00Z</time>
      </trkpt>
      <trkpt lat="37.21552" lon="-8.07536">
        <ele>179.476</ele>
        <time>2019-10-14T09:01:20Z</time>
      </trkpt>
      <trkpt lat="37.21554" lon="-8.07546">
        <ele>179.744</ele>
        <time>2019-10-14T09:01:40Z</time>
      </trkpt>
      <trkpt lat="37.21555" lon="-8.07557">
        <ele>180.146</ele>
        <time>2019-10-14T09:02:00Z</time>
      </trkpt>
      <trkpt lat="37.21556" lon="-8.07565">
        <ele>181.166</ele>
        <time>2019-10-14T09:02:20Z</time>
      </trkpt>
      <trkpt lat="37.21563" lon="-8.07586">
        <ele>182.998</ele>
        <time>2019-10-14T09:02:40Z</time>
      </trkpt>
      <trkpt lat="37.21566" lon="-8.07587">
        <ele>182.889</ele>
        <time>2019-10-14T09:03:00Z</time>
      </trkpt>
      <trkpt lat="37.21577" lon="-8.0759">
        <ele>182.491</ele>
        <time>2019-10-14T09:03:20Z</time>
      </trkpt>
      <trkpt lat="37.21587" lon="-8.07594">
        <ele>181.881</ele>
        <time>2019-10-14T09:03:40Z</time>
      </trkpt>
      <trkpt lat="37.21593" lon="-8.07595">
        <ele>181.589</ele>
        <time>2019-10-14T09:04:00Z</time>
      </trkpt>
      <trkpt lat="37.216" lon="-8.07596">
        <ele>181.106</ele>
        <time>2019-10-14T09:04:20Z</time>
      </trkpt>
      <trkpt lat="37.21615" lon="-8.07596">
        <ele>180.426</ele>
        <time>2019-10-14T09:04:40Z</time>
      </trkpt>
      <trkpt lat="37.21622" lon="-8.07597">
        <ele>180.108</ele>
        <time>2019-10-14T09:05:00Z</time>
      </trkpt>
      <trkpt lat="37.21665" lon="-8.07609">
        <ele>179.012</ele>
        <time>2019-10-14T09:05:20Z</time>
      </trkpt>
      <trkpt lat="37.21671" lon="-8.07613">
        <ele>178.97</ele>
        <time>2019-10-14T09:05:40Z</time>
      </trkpt>
      <trkpt lat="37.21696" lon="-8.07628">
        <ele>177.882</ele>
        <time>2019-10-14T09:06:00Z</time>
      </trkpt>
      <trkpt lat="37.21703" lon="-8.07631">
        <ele>177.082</ele>
        <time>2019-10-14T09:06:20Z</time>
      </trkpt>
      <trkpt lat="37.21709" lon="-8.07632">
        <ele>176.244</ele>
        <time>2019-10-14T09:06:40Z</time>
      </trkpt>
      <trkpt lat="37.21716" lon="-8.07631">
        <ele>175.555</ele>
        <time>2019-10-14T09:07:00Z</time>
      </trkpt>
      <trkpt lat="37.21722" lon="-8.07631">
        <ele>174.767</ele>
        <time>2019-10-14T09:07:20Z</time>
      </trkpt>
      <trkpt lat="37.21728" lon="-8.0763">
        <ele>173.727</ele>
        <time>2019-10-14T09:07:40Z</time>
      </trkpt>
      <trkpt lat="37.21746" lon="-8.07628">
        <ele>170.717</ele>
        <time>2019-10-14T09:08:00Z</time>
      </trkpt>
      <trkpt lat="37.2176" lon="-8.07627">
        <ele>168.887</ele>
        <time>2019-10-14T09:08:20Z</time>
      </trkpt>
      <trkpt lat="37.21769" lon="-8.07629">
        <ele>167.715</ele>
        <time>2019-10-14T09:08:40Z</time>
      </trkpt>
      <trkpt lat="37.21797" lon="-8.07633">
        <ele>166.108</ele>
        <time>2019-10-14T09:09:00Z</time>
      </trkpt>
      <trkpt lat="37.21806" lon="-8.07634">
        <ele>165.885</ele>
        <time>2019-10-14T09:09:20Z</time>
      </trkpt>
      <trkpt lat="37.21839" lon="-8.07637">
        <ele>164.893</ele>
        <time>2019-10-14T09:09:40Z</time>
      </trkpt>
      <trkpt lat="37.21855" lon="-8.07636">
        <ele>164.245</ele>
        <time>2019-10-14T09:10:00Z</time>
      </trkpt>
      <trkpt lat="37.21894" lon="-8.07642">
        <ele>164.225</ele>
        <time>2019-10-14T09:10:20Z</time>
      </trkpt>
      <trkpt lat="37.21917" lon="-8.07644">
        <ele>165.047</ele>
        <time>2019-10-14T09:10:40Z</time>
      </trkpt>
      <trkpt lat="37.21988" lon="-8.07643">
        <ele>164.478</ele>
        <time>2019-10-14T09:11:00Z</time>
      </trkpt>
      <trkpt lat="37.21998" lon="-8.07646">
        <ele>164.18</ele>
        <time>2019-10-14T09:11:20Z</time>
      </trkpt>
      <trkpt lat="37.21999" lon="-8.0765">
        <ele>164.05</ele>
        <time>2019-10-14T09:11:40Z</time>
      </trkpt>
      <trkpt lat="37.21999" lon="-8.07655">
        <ele>164.021</ele>
        <time>2019-10-14T09:12:00Z</time>
      </trkpt>
      <trkpt lat="37.21998" lon="-8.07661">
        <ele>164.041</ele>
        <time>2019-10-14T09:12:20Z</time>
      </trkpt>
      <trkpt lat="37.21995" lon="-8.07668">
        <ele>164.005</ele>
        <time>2019-10-14T09:12:40Z</time>
      </trkpt>
      <trkpt lat="37.21991" lon="-8.07677">
        <ele>164.308</ele>
        <time>2019-10-14T09:13:00Z</time>
      </trkpt>
      <trkpt lat="37.21987" lon="-8.07688">
        <ele>164.486</ele>
        <time>2019-10-14T09:13:20Z</time>
      </trkpt>
      <trkpt lat="37.21983" lon="-8.077">
        <ele>164.764</ele>
        <time>2019-10-14T09:13:40Z</time>
      </trkpt>
      <trkpt lat="37.21965" lon="-8.07759">
        <ele>167.886</ele>
        <time>2019-10-14T09:14:00Z</time>
      </trkpt>
      <trkpt lat="37.21962" lon="-8.07771">
        <ele>169.196</ele>
        <time>2019-10-14T09:14:20Z</time>
      </trkpt>
      <trkpt lat="37.21961" lon="-8.07785">
        <ele>170.248</ele>
        <time>2019-10-14T09:14:40Z</time>
      </trkpt>
      <trkpt lat="37.21963" lon="-8.07799">
        <ele>170.939</ele>
        <time>2019-10-14T09:15:00Z</time>
      </trkpt>
      <trkpt lat="37.21966" lon="-8.07812">
        <ele>171.081</ele>
        <time>2019-10-14T09:15:20Z</time>
      </trkpt>
      <trkpt lat="37.2197" lon="-8.07824">
        <ele>170.911</ele>
        <time>2019-10-14T09:15:40Z</time>
      </trkpt>
      <trkpt lat="37.22" lon="-8.07919">
        <ele>174.167</ele>
        <time>2019-10-14T09:16:00Z</time>
      </trkpt>
      <trkpt lat="37.22022" lon="-8.07998">
        <ele>176.381</ele>
        <time>2019-10-14T09:16:20Z</time>
      </trkpt>
      <trkpt lat="37.22041" lon="-8.08055">
        <ele>180.519</ele>
        <time>2019-10-14T09:16:40Z</time>
      </trkpt>
      <trkpt lat="37.22044" lon="-8.0807">
        <ele>181.708</ele>
        <time>2019-10-14T09:17:00Z</time>
      </trkpt>
      <trkpt lat="37.22046" lon="-8.08086">
        <ele>182.74</ele>
        <time>2019-10-14T09:17:20Z</time>
      </trkpt>
      <trkpt lat="37.22047" lon="-8.08102">
        <ele>182.868</ele>
        <time>2019-10-14T09:17:40Z</time>
      </trkpt>
      <trkpt lat="37.22048" lon="-8.08119">
        <ele>183.27</ele>
        <time>2019-10-14T09:18:00Z</time>
      </trkpt>
      <trkpt lat="37.2205" lon="-8.08136">
        <ele>183.77</ele>
        <time>2019-10-14T09:18:20Z</time>
      </trkpt>
      <trkpt lat="37.22052" lon="-8.08153">
        <ele>184.122</ele>
        <time>2019-10-14T09:18:40Z</time>
      </trkpt>
      <trkpt lat="37.22052" lon="-8.08171">
        <ele>185.013</ele>
        <time>2019-10-14T09:19:00Z</time>
      </trkpt>
      <trkpt lat="37.2205" lon="-8.08187">
        <ele>186.995</ele>
        <time>2019-10-14T09:19:20Z</time>
      </trkpt>
      <trkpt lat="37.22048" lon="-8.08204">
        <ele>188.735</ele>
        <time>2019-10-14T09:19:40Z</time>
      </trkpt>
      <trkpt lat="37.22045" lon="-8.08236">
        <ele>190.946</ele>
        <time>2019-10-14T09:20:00Z</time>
      </trkpt>
      <trkpt lat="37.22036" lon="-8.08297">
        <ele>194.888</ele>
        <time>2019-10-14T09:20:20Z</time>
      </trkpt>
      <trkpt lat="37.22027" lon="-8.08339">
        <ele>198.516</ele>
        <time>2019-10-14T09:20:40Z</time>
      </trkpt>
      <trkpt lat="37.22026" lon="-8.08351">
        <ele>199.408</ele>
        <time>2019-10-14T09:21:00Z</time>
      </trkpt>
      <trkpt lat="37.22027" lon="-8.08394">
        <ele>203.618</ele>
        <time>2019-10-14T09:21:20Z</time>
      </trkpt>
      <trkpt lat="37.22029" lon="-8.0841">
        <ele>205.286</ele>
        <time>2019-10-14T09:21:40Z</time>
      </trkpt>
      <trkpt lat="37.22031" lon="-8.08427">
        <ele>206.818</ele>
        <time>2019-10-14T09:22:00Z</time>
      </trkpt>
      <trkpt lat="37.2203" lon="-8.08445">
        <ele>208.788</ele>
        <time>2019-10-14T09:22:20Z</time>
      </trkpt>
      <trkpt lat="37.22027" lon="-8.08462">
        <ele>209.78</ele>
        <time>2019-10-14T09:22:40Z</time>
      </trkpt>
      <trkpt lat="37.22021" lon="-8.08478">
        <ele>210.851</ele>
        <time>2019-10-14T09:23:00Z</time>
      </trkpt>
      <trkpt lat="37.22014" lon="-8.08493">
        <ele>212.133</ele>
        <time>2019-10-14T09:23:20Z</time>
      </trkpt>
      <trkpt lat="37.21997" lon="-8.08526">
        <ele>214.373</ele>
        <time>2019-10-14T09:23:40Z</time>
      </trkpt>
      <trkpt lat="37.2199" lon="-8.08546">
        <ele>215.592</ele>
        <time>2019-10-14T09:24:00Z</time>
      </trkpt>
      <trkpt lat="37.21978" lon="-8.08587">
        <ele>218.073</ele>
        <time>2019-10-14T09:24:20Z</time>
      </trkpt>
      <trkpt lat="37.21971" lon="-8.08608">
        <ele>219.12</ele>
        <time>2019-10-14T09:24:40Z</time>
      </trkpt>
      <trkpt lat="37.21962" lon="-8.08628">
        <ele>220.508</ele>
        <time>2019-10-14T09:25:00Z</time>
      </trkpt>
      <trkpt lat="37.21942" lon="-8.08669">
        <ele>222.423</ele>
        <time>2019-10-14T09:25:20Z</time>
      </trkpt>
      <trkpt lat="37.21935" lon="-8.08687">
        <ele>223.811</ele>
        <time>2019-10-14T09:25:40Z</time>
      </trkpt>
      <trkpt lat="37.21935" lon="-8.08695">
        <ele>224.073</ele>
        <time>2019-10-14T09:26:00Z</time>
      </trkpt>
      <trkpt lat="37.21937" lon="-8.08703">
        <ele>224.523</ele>
        <time>2019-10-14T09:26:20Z</time>
      </trkpt>
      <trkpt lat="37.2194" lon="-8.08709">
        <ele>224.885</ele>
        <time>2019-10-14T09:26:40Z</time>
      </trkpt>
      <trkpt lat="37.21943" lon="-8.08714">
        <ele>225.156</ele>
        <time>2019-10-14T09:27:00Z</time>
      </trkpt>
      <trkpt lat="37.21946" lon="-8.08717">
        <ele>225.488</ele>
        <time>2019-10-14T09:27:20Z</time>
      </trkpt>
      <trkpt lat="37.21947" lon="-8.0872">
        <ele>225.888</ele>
        <time>2019-10-14T09:27:40Z</time>
      </trkpt>
      <trkpt lat="37.21966" lon="-8.08735">
        <ele>227.255</ele>
        <time>2019-10-14T09:28:00Z</time>
      </trkpt>
      <trkpt lat="37.21972" lon="-8.08734">
        <ele>227.407</ele>
        <time>2019-10-14T09:28:20Z</time>
      </trkpt>
      <trkpt lat="37.2198" lon="-8.08733">
        <ele>227.817</ele>
        <time>2019-10-14T09:28:40Z</time>
      </trkpt>
      <trkpt lat="37.21993" lon="-8.0873">
        <ele>228.308</ele>
        <time>2019-10-14T09:29:00Z</time>
      </trkpt>
      <trkpt lat="37.21998" lon="-8.08726">
        <ele>228.279</ele>
        <time>2019-10-14T09:29:20Z</time>
      </trkpt>
      <trkpt lat="37.22002" lon="-8.0872">
        <ele>227.827</ele>
        <time>2019-10-14T09:29:40Z</time>
      </trkpt>
      <trkpt lat="37.22009" lon="-8.08713">
        <ele>227.339</ele>
        <time>2019-10-14T09:30:00Z</time>
      </trkpt>
      <trkpt lat="37.22016" lon="-8.08707">
        <ele>226.929</ele>
        <time>2019-10-14T09:30:20Z</time>
      </trkpt>
      <trkpt lat="37.22023" lon="-8.08703">
        <ele>226.661</ele>
        <time>2019-10-14T09:30:40Z</time>
      </trkpt>
      <trkpt lat="37.22031" lon="-8.08701">
        <ele>226.522</ele>
        <time>2019-10-14T09:31:00Z</time>
      </trkpt>
      <trkpt lat="37.22038" lon="-8.08699">
        <ele>226.744</ele>
        <time>2019-10-14T09:31:20Z</time>
      </trkpt>
      <trkpt lat="37.22045" lon="-8.08699">
        <ele>226.924</ele>
        <time>2019-10-14T09:31:40Z</time>
      </trkpt>
      <trkpt lat="37.22052" lon="-8.087">
        <ele>227.175</ele>
        <time>2019-10-14T09:32:00Z</time>
      </trkpt>
      <trkpt lat="37.2206" lon="-8.08701">
        <ele>227.328</ele>
        <time>2019-10-14T09:32:20Z</time>
      </trkpt>
      <trkpt lat="37.22072" lon="-8.087">
        <ele>227.42</ele>
        <time>2019-10-14T09:32:40Z</time>
      </trkpt>
      <trkpt lat="37.22084" lon="-8.08699">
        <ele>227.508</ele>
        <time>2019-10-14T09:33:00Z</time>
      </trkpt>
      <trkpt lat="37.22159" lon="-8.08684">
        <ele>232.021</ele>
        <time>2019-10-14T09:33:20Z</time>
      </trkpt>
      <trkpt lat="37.22178" lon="-8.08681">
        <ele>232.969</ele>
        <time>2019-10-14T09:33:40Z</time>
      </trkpt>
      <trkpt lat="37.22211" lon="-8.08679">
        <ele>234.691</ele>
        <time>2019-10-14T09:34:00Z</time>
      </trkpt>
      <trkpt lat="37.22248" lon="-8.08674">
        <ele>238.821</ele>
        <time>2019-10-14T09:34:20Z</time>
      </trkpt>
      <trkpt lat="37.22255" lon="-8.0867">
        <ele>239.793</ele>
        <time>2019-10-14T09:34:40Z</time>
      </trkpt>
      <trkpt lat="37.22275" lon="-8.08656">
        <ele>242.624</ele>
        <time>2019-10-14T09:35:00Z</time>
      </trkpt>
      <trkpt lat="37.22299" lon="-8.08642">
        <ele>246.896</ele>
        <time>2019-10-14T09:35:20Z</time>
      </trkpt>
      <trkpt lat="37.22306" lon="-8.08637">
        <ele>248.136</ele>
        <time>2019-10-14T09:35:40Z</time>
      </trkpt>
      <trkpt lat="37.22331" lon="-8.08623">
        <ele>252.934</ele>
        <time>2019-10-14T09:36:00Z</time>
      </trkpt>
      <trkpt lat="37.22337" lon="-8.0862">
        <ele>254.155</ele>
        <time>2019-10-14T09:36:20Z</time>
      </trkpt>
      <trkpt lat="37.22361" lon="-8.08616">
        <ele>260.11</ele>
        <time>2019-10-14T09:36:40Z</time>
      </trkpt>
      <trkpt lat="37.22381" lon="-8.08624">
        <ele>264.308</ele>
        <time>2019-10-14T09:37:00Z</time>
      </trkpt>
      <trkpt lat="37.22393" lon="-8.08638">
        <ele>266.857</ele>
        <time>2019-10-14T09:37:20Z</time>
      </trkpt>
      <trkpt lat="37.22414" lon="-8.08662">
        <ele>271.395</ele>
        <time>2019-10-14T09:37:40Z</time>
      </trkpt>
      <trkpt lat="37.22433" lon="-8.0867">
        <ele>275.997</ele>
        <time>2019-10-14T09:38:00Z</time>
      </trkpt>
      <trkpt lat="37.22439" lon="-8.08673">
        <ele>277.717</ele>
        <time>2019-10-14T09:38:20Z</time>
      </trkpt>
      <trkpt lat="37.2246" lon="-8.08688">
        <ele>283.499</ele>
        <time>2019-10-14T09:38:40Z</time>
      </trkpt>
      <trkpt lat="37.22476" lon="-8.08703">
        <ele>287.62</ele>
        <time>2019-10-14T09:39:00Z</time>
      </trkpt>
      <trkpt lat="37.22501" lon="-8.08721">
        <ele>293.412</ele>
        <time>2019-10-14T09:39:20Z</time>
      </trkpt>
      <trkpt lat="37.22516" lon="-8.08732">
        <ele>296.692</ele>
        <time>2019-10-14T09:39:40Z</time>
      </trkpt>
      <trkpt lat="37.2253" lon="-8.08744">
        <ele>299.833</ele>
        <time>2019-10-14T09:40:00Z</time>
      </trkpt>
      <trkpt lat="37.22536" lon="-8.08748">
        <ele>300.923</ele>
        <time>2019-10-14T09:40:20Z</time>
      </trkpt>
      <trkpt lat="37.22549" lon="-8.08751">
        <ele>303.515</ele>
        <time>2019-10-14T09:40:40Z</time>
      </trkpt>
      <trkpt lat="37.22551" lon="-8.08748">
        <ele>304.108</ele>
        <time>2019-10-14T09:41:00Z</time>
      </trkpt>
      <trkpt lat="37.22552" lon="-8.08744">
        <ele>304.637</ele>
        <time>2019-10-14T09:41:20Z</time>
      </trkpt>
      <trkpt lat="37.22552" lon="-8.08739">
        <ele>305.015</ele>
        <time>2019-10-14T09:41:40Z</time>
      </trkpt>
      <trkpt lat="37.22552" lon="-8.08732">
        <ele>305.597</ele>
        <time>2019-10-14T09:42:00Z</time>
      </trkpt>
      <trkpt lat="37.22555" lon="-8.08696">
        <ele>307.037</ele>
        <time>2019-10-14T09:42:20Z</time>
      </trkpt>
      <trkpt lat="37.22558" lon="-8.08686">
        <ele>307.459</ele>
        <time>2019-10-14T09:42:40Z</time>
      </trkpt>
      <trkpt lat="37.22572" lon="-8.08632">
        <ele>308.19</ele>
        <time>2019-10-14T09:43:00Z</time>
      </trkpt>
      <trkpt lat="37.22587" lon="-8.08566">
        <ele>310.242</ele>
        <time>2019-10-14T09:43:20Z</time>
      </trkpt>
      <trkpt lat="37.22587" lon="-8.08555">
        <ele>310.612</ele>
        <time>2019-10-14T09:43:40Z</time>
      </trkpt>
      <trkpt lat="37.22585" lon="-8.08544">
        <ele>310.864</ele>
        <time>2019-10-14T09:44:00Z</time>
      </trkpt>
      <trkpt lat="37.2258" lon="-8.08499">
        <ele>310.306</ele>
        <time>2019-10-14T09:44:20Z</time>
      </trkpt>
      <trkpt lat="37.2258" lon="-8.08492">
        <ele>310.016</ele>
        <time>2019-10-14T09:44:40Z</time>
      </trkpt>
      <trkpt lat="37.22581" lon="-8.08485">
        <ele>310.008</ele>
        <time>2019-10-14T09:45:00Z</time>
      </trkpt>
      <trkpt lat="37.22584" lon="-8.08477">
        <ele>310.36</ele>
        <time>2019-10-14T09:45:20Z</time>
      </trkpt>
      <trkpt lat="37.22588" lon="-8.08466">
        <ele>310.598</ele>
        <time>2019-10-14T09:45:40Z</time>
      </trkpt>
      <trkpt lat="37.22591" lon="-8.08453">
        <ele>310.97</ele>
        <time>2019-10-14T09:46:00Z</time>
      </trkpt>
      <trkpt lat="37.22603" lon="-8.08399">
        <ele>312.42</ele>
        <time>2019-10-14T09:46:20Z</time>
      </trkpt>
      <trkpt lat="37.22604" lon="-8.08395">
        <ele>312.492</ele>
        <time>2019-10-14T09:46:40Z</time>
      </trkpt>
      <trkpt lat="37.22606" lon="-8.08394">
        <ele>312.523</ele>
        <time>2019-10-14T09:47:00Z</time>
      </trkpt>
      <trkpt lat="37.22609" lon="-8.08392">
        <ele>312.995</ele>
        <time>2019-10-14T09:47:20Z</time>
      </trkpt>
      <trkpt lat="37.22642" lon="-8.08401">
        <ele>316.955</ele>
        <time>2019-10-14T09:47:40Z</time>
      </trkpt>
      <trkpt lat="37.22668" lon="-8.08403">
        <ele>319.679</ele>
        <time>2019-10-14T09:48:00Z</time>
      </trkpt>
      <trkpt lat="37.22675" lon="-8.08402">
        <ele>320.505</ele>
        <time>2019-10-14T09:48:20Z</time>
      </trkpt>
      <trkpt lat="37.22682" lon="-8.08399">
        <ele>321.325</ele>
        <time>2019-10-14T09:48:40Z</time>
      </trkpt>
      <trkpt lat="37.22689" lon="-8.08398">
        <ele>322.108</ele>
        <time>2019-10-14T09:49:00Z</time>
      </trkpt>
      <trkpt lat="37.22696" lon="-8.08399">
        <ele>322.871</ele>
        <time>2019-10-14T09:49:20Z</time>
      </trkpt>
      <trkpt lat="37.22704" lon="-8.084">
        <ele>323.489</ele>
        <time>2019-10-14T09:49:40Z</time>
      </trkpt>
      <trkpt lat="37.22713" lon="-8.084">
        <ele>324.281</ele>
        <time>2019-10-14T09:50:00Z</time>
      </trkpt>
      <trkpt lat="37.22723" lon="-8.084">
        <ele>325.121</ele>
        <time>2019-10-14T09:50:20Z</time>
      </trkpt>
      <trkpt lat="37.22753" lon="-8.08399">
        <ele>327.573</ele>
        <time>2019-10-14T09:50:40Z</time>
      </trkpt>
      <trkpt lat="37.22772" lon="-8.08397">
        <ele>328.724</ele>
        <time>2019-10-14T09:51:00Z</time>
      </trkpt>
      <trkpt lat="37.22781" lon="-8.08398">
        <ele>329.196</ele>
        <time>2019-10-14T09:51:20Z</time>
      </trkpt>
      <trkpt lat="37.2279" lon="-8.08398">
        <ele>329.436</ele>
        <time>2019-10-14T09:51:40Z</time>
      </trkpt>
      <trkpt lat="37.22797" lon="-8.08397">
        <ele>329.789</ele>
        <time>2019-10-14T09:52:00Z</time>
      </trkpt>
      <trkpt lat="37.22805" lon="-8.08395">
        <ele>330.006</ele>
        <time>2019-10-14T09:52:20Z</time>
      </trkpt>
      <trkpt lat="37.22841" lon="-8.08383">
        <ele>330.726</ele>
        <time>2019-10-14T09:52:40Z</time>
      </trkpt>
      <trkpt lat="37.22849" lon="-8.08382">
        <ele>330.108</ele>
        <time>2019-10-14T09:53:00Z</time>
      </trkpt>
      <trkpt lat="37.22857" lon="-8.08383">
        <ele>329.552</ele>
        <time>2019-10-14T09:53:20Z</time>
      </trkpt>
      <trkpt lat="37.22871" lon="-8.08384">
        <ele>327.71</ele>
        <time>2019-10-14T09:53:40Z</time>
      </trkpt>
      <trkpt lat="37.22878" lon="-8.08383">
        <ele>326.722</ele>
        <time>2019-10-14T09:54:00Z</time>
      </trkpt>
      <trkpt lat="37.22884" lon="-8.08378">
        <ele>325.862</ele>
        <time>2019-10-14T09:54:20Z</time>
      </trkpt>
      <trkpt lat="37.2289" lon="-8.08371">
        <ele>324.874</ele>
        <time>2019-10-14T09:54:40Z</time>
      </trkpt>
      <trkpt lat="37.22896" lon="-8.08363">
        <ele>323.695</ele>
        <time>2019-10-14T09:55:00Z</time>
      </trkpt>
      <trkpt lat="37.22911" lon="-8.08338">
        <ele>321.057</ele>
        <time>2019-10-14T09:55:20Z</time>
      </trkpt>
      <trkpt lat="37.22916" lon="-8.08332">
        <ele>320.517</ele>
        <time>2019-10-14T09:55:40Z</time>
      </trkpt>
      <trkpt lat="37.2292" lon="-8.08326">
        <ele>320.368</ele>
        <time>2019-10-14T09:56:00Z</time>
      </trkpt>
      <trkpt lat="37.22925" lon="-8.08322">
        <ele>320.042</ele>
        <time>2019-10-14T09:56:20Z</time>
      </trkpt>
      <trkpt lat="37.2293" lon="-8.0832">
        <ele>319.326</ele>
        <time>2019-10-14T09:56:40Z</time>
      </trkpt>
      <trkpt lat="37.22935" lon="-8.08319">
        <ele>318.408</ele>
        <time>2019-10-14T09:57:00Z</time>
      </trkpt>
      <trkpt lat="37.22941" lon="-8.08319">
        <ele>317.28</ele>
        <time>2019-10-14T09:57:20Z</time>
      </trkpt>
      <trkpt lat="37.22947" lon="-8.08321">
        <ele>315.918</ele>
        <time>2019-10-14T09:57:40Z</time>
      </trkpt>
      <trkpt lat="37.22955" lon="-8.08323">
        <ele>314.46</ele>
        <time>2019-10-14T09:58:00Z</time>
      </trkpt>
      <trkpt lat="37.22963" lon="-8.08324">
        <ele>312.94</ele>
        <time>2019-10-14T09:58:20Z</time>
      </trkpt>
      <trkpt lat="37.22972" lon="-8.08325">
        <ele>311.362</ele>
        <time>2019-10-14T09:58:40Z</time>
      </trkpt>
      <trkpt lat="37.22981" lon="-8.08326">
        <ele>309.463</ele>
        <time>2019-10-14T09:59:00Z</time>
      </trkpt>
      <trkpt lat="37.23008" lon="-8.08327">
        <ele>304.625</ele>
        <time>2019-10-14T09:59:20Z</time>
      </trkpt>
      <trkpt lat="37.23035" lon="-8.08328">
        <ele>300.255</ele>
        <time>2019-10-14T09:59:40Z</time>
      </trkpt>
      <trkpt lat="37.23054" lon="-8.08332">
        <ele>296.468</ele>
        <time>2019-10-14T10:00:00Z</time>
      </trkpt>
      <trkpt lat="37.23064" lon="-8.08334">
        <ele>295.242</ele>
        <time>2019-10-14T10:00:20Z</time>
      </trkpt>
      <trkpt lat="37.23072" lon="-8.08334">
        <ele>294.226</ele>
        <time>2019-10-14T10:00:40Z</time>
      </trkpt>
      <trkpt lat="37.2308" lon="-8.08332">
        <ele>293.408</ele>
        <time>2019-10-14T10:01:00Z</time>
      </trkpt>
      <trkpt lat="37.23086" lon="-8.08328">
        <ele>292.72</ele>
        <time>2019-10-14T10:01:20Z</time>
      </trkpt>
      <trkpt lat="37.23092" lon="-8.08321">
        <ele>291.778</ele>
        <time>2019-10-14T10:01:40Z</time>
      </trkpt>
      <trkpt lat="37.23098" lon="-8.08314">
        <ele>291.09</ele>
        <time>2019-10-14T10:02:00Z</time>
      </trkpt>
      <trkpt lat="37.23108" lon="-8.08302">
        <ele>290.04</ele>
        <time>2019-10-14T10:02:20Z</time>
      </trkpt>
      <trkpt lat="37.23113" lon="-8.08299">
        <ele>289.332</ele>
        <time>2019-10-14T10:02:40Z</time>
      </trkpt>
      <trkpt lat="37.2312" lon="-8.08295">
        <ele>288.223</ele>
        <time>2019-10-14T10:03:00Z</time>
      </trkpt>
      <trkpt lat="37.23146" lon="-8.08284">
        <ele>283.765</ele>
        <time>2019-10-14T10:03:20Z</time>
      </trkpt>
      <trkpt lat="37.23163" lon="-8.08277">
        <ele>280.085</ele>
        <time>2019-10-14T10:03:40Z</time>
      </trkpt>
      <trkpt lat="37.23181" lon="-8.08271">
        <ele>273.683</ele>
        <time>2019-10-14T10:04:00Z</time>
      </trkpt>
      <trkpt lat="37.232" lon="-8.08264">
        <ele>268.025</ele>
        <time>2019-10-14T10:04:20Z</time>
      </trkpt>
      <trkpt lat="37.23227" lon="-8.08251">
        <ele>260.417</ele>
        <time>2019-10-14T10:04:40Z</time>
      </trkpt>
      <trkpt lat="37.23246" lon="-8.08243">
        <ele>256.908</ele>
        <time>2019-10-14T10:05:00Z</time>
      </trkpt>
      <trkpt lat="37.23265" lon="-8.08234">
        <ele>253.112</ele>
        <time>2019-10-14T10:05:20Z</time>
      </trkpt>
      <trkpt lat="37.23294" lon="-8.0822">
        <ele>246.14</ele>
        <time>2019-10-14T10:05:40Z</time>
      </trkpt>
      <trkpt lat="37.23304" lon="-8.08215">
        <ele>243.672</ele>
        <time>2019-10-14T10:06:00Z</time>
      </trkpt>
      <trkpt lat="37.23323" lon="-8.08203">
        <ele>239.962</ele>
        <time>2019-10-14T10:06:20Z</time>
      </trkpt>
      <trkpt lat="37.23342" lon="-8.0819">
        <ele>236.974</ele>
        <time>2019-10-14T10:06:40Z</time>
      </trkpt>
      <trkpt lat="37.23357" lon="-8.08177">
        <ele>235.575</ele>
        <time>2019-10-14T10:07:00Z</time>
      </trkpt>
      <trkpt lat="37.23363" lon="-8.08172">
        <ele>234.977</ele>
        <time>2019-10-14T10:07:20Z</time>
      </trkpt>
      <trkpt lat="37.23369" lon="-8.08169">
        <ele>234.177</ele>
        <time>2019-10-14T10:07:40Z</time>
      </trkpt>
      <trkpt lat="37.23375" lon="-8.08167">
        <ele>232.911</ele>
        <time>2019-10-14T10:08:00Z</time>
      </trkpt>
      <trkpt lat="37.23382" lon="-8.08168">
        <ele>231.421</ele>
        <time>2019-10-14T10:08:20Z</time>
      </trkpt>
      <trkpt lat="37.2339" lon="-8.0817">
        <ele>229.703</ele>
        <time>2019-10-14T10:08:40Z</time>
      </trkpt>
      <trkpt lat="37.23399" lon="-8.08173">
        <ele>228.908</ele>
        <time>2019-10-14T10:09:00Z</time>
      </trkpt>
      <trkpt lat="37.23427" lon="-8.08181">
        <ele>227.715</ele>
        <time>2019-10-14T10:09:20Z</time>
      </trkpt>
      <trkpt lat="37.23439" lon="-8.08182">
        <ele>227.983</ele>
        <time>2019-10-14T10:09:40Z</time>
      </trkpt>
      <trkpt lat="37.23458" lon="-8.08185">
        <ele>228.775</ele>
        <time>2019-10-14T10:10:00Z</time>
      </trkpt>
      <trkpt lat="37.23466" lon="-8.08185">
        <ele>229.045</ele>
        <time>2019-10-14T10:10:20Z</time>
      </trkpt>
      <trkpt lat="37.23472" lon="-8.08187">
        <ele>229.467</ele>
        <time>2019-10-14T10:10:40Z</time>
      </trkpt>
      <trkpt lat="37.23488" lon="-8.08193">
        <ele>228.878</ele>
        <time>2019-10-14T10:11:00Z</time>
      </trkpt>
      <trkpt lat="37.23497" lon="-8.08194">
        <ele>228.24</ele>
        <time>2019-10-14T10:11:20Z</time>
      </trkpt>
      <trkpt lat="37.23566" lon="-8.08191">
        <ele>229.99</ele>
        <time>2019-10-14T10:11:40Z</time>
      </trkpt>
      <trkpt lat="37.23577" lon="-8.08194">
        <ele>230.686</ele>
        <time>2019-10-14T10:12:00Z</time>
      </trkpt>
      <trkpt lat="37.23589" lon="-8.08196">
        <ele>231.06</ele>
        <time>2019-10-14T10:12:20Z</time>
      </trkpt>
      <trkpt lat="37.23601" lon="-8.08197">
        <ele>231.026</ele>
        <time>2019-10-14T10:12:40Z</time>
      </trkpt>
      <trkpt lat="37.23613" lon="-8.08198">
        <ele>230.908</ele>
        <time>2019-10-14T10:13:00Z</time>
      </trkpt>
      <trkpt lat="37.2368" lon="-8.08205">
        <ele>231.292</ele>
        <time>2019-10-14T10:13:20Z</time>
      </trkpt>
      <trkpt lat="37.23684" lon="-8.08207">
        <ele>231.65</ele>
        <time>2019-10-14T10:13:40Z</time>
      </trkpt>
      <trkpt lat="37.23687" lon="-8.0821">
        <ele>231.862</ele>
        <time>2019-10-14T10:14:00Z</time>
      </trkpt>
      <trkpt lat="37.23688" lon="-8.08214">
        <ele>231.862</ele>
        <time>2019-10-14T10:14:20Z</time>
      </trkpt>
      <trkpt lat="37.23689" lon="-8.08221">
        <ele>231.674</ele>
        <time>2019-10-14T10:14:40Z</time>
      </trkpt>
      <trkpt lat="37.2369" lon="-8.0823">
        <ele>231.485</ele>
        <time>2019-10-14T10:15:00Z</time>
      </trkpt>
      <trkpt lat="37.23692" lon="-8.08239">
        <ele>231.387</ele>
        <time>2019-10-14T10:15:20Z</time>
      </trkpt>
      <trkpt lat="37.23697" lon="-8.08248">
        <ele>231.237</ele>
        <time>2019-10-14T10:15:40Z</time>
      </trkpt>
      <trkpt lat="37.23702" lon="-8.0826">
        <ele>231.643</ele>
        <time>2019-10-14T10:16:00Z</time>
      </trkpt>
      <trkpt lat="37.23708" lon="-8.08271">
        <ele>232.064</ele>
        <time>2019-10-14T10:16:20Z</time>
      </trkpt>
      <trkpt lat="37.23715" lon="-8.08281">
        <ele>232.41</ele>
        <time>2019-10-14T10:16:40Z</time>
      </trkpt>
      <trkpt lat="37.23722" lon="-8.0829">
        <ele>232.508</ele>
        <time>2019-10-14T10:17:00Z</time>
      </trkpt>
      <trkpt lat="37.23727" lon="-8.08299">
        <ele>232.648</ele>
        <time>2019-10-14T10:17:20Z</time>
      </trkpt>
      <trkpt lat="37.23732" lon="-8.08307">
        <ele>232.766</ele>
        <time>2019-10-14T10:17:40Z</time>
      </trkpt>
      <trkpt lat="37.23736" lon="-8.08314">
        <ele>233.348</ele>
        <time>2019-10-14T10:18:00Z</time>
      </trkpt>
      <trkpt lat="37.23742" lon="-8.08318">
        <ele>233.928</ele>
        <time>2019-10-14T10:18:20Z</time>
      </trkpt>
      <trkpt lat="37.23747" lon="-8.08318">
        <ele>234.22</ele>
        <time>2019-10-14T10:18:40Z</time>
      </trkpt>
      <trkpt lat="37.23753" lon="-8.08315">
        <ele>234.651</ele>
        <time>2019-10-14T10:19:00Z</time>
      </trkpt>
      <trkpt lat="37.23759" lon="-8.0831">
        <ele>235.123</ele>
        <time>2019-10-14T10:19:20Z</time>
      </trkpt>
      <trkpt lat="37.23765" lon="-8.08306">
        <ele>235.733</ele>
        <time>2019-10-14T10:19:40Z</time>
      </trkpt>
      <trkpt lat="37.23771" lon="-8.08304">
        <ele>236.318</ele>
        <time>2019-10-14T10:20:00Z</time>
      </trkpt>
      <trkpt lat="37.23776" lon="-8.08304">
        <ele>236.898</ele>
        <time>2019-10-14T10:20:20Z</time>
      </trkpt>
      <trkpt lat="37.23781" lon="-8.08307">
        <ele>237.317</ele>
        <time>2019-10-14T10:20:40Z</time>
      </trkpt>
      <trkpt lat="37.23784" lon="-8.08312">
        <ele>237.608</ele>
        <time>2019-10-14T10:21:00Z</time>
      </trkpt>
      <trkpt lat="37.23787" lon="-8.08319">
        <ele>237.865</ele>
        <time>2019-10-14T10:21:20Z</time>
      </trkpt>
      <trkpt lat="37.23791" lon="-8.08326">
        <ele>238.143</ele>
        <time>2019-10-14T10:21:40Z</time>
      </trkpt>
      <trkpt lat="37.23796" lon="-8.08332">
        <ele>238.375</ele>
        <time>2019-10-14T10:22:00Z</time>
      </trkpt>
      <trkpt lat="37.23801" lon="-8.08339">
        <ele>238.395</ele>
        <time>2019-10-14T10:22:20Z</time>
      </trkpt>
      <trkpt lat="37.23806" lon="-8.08347">
        <ele>238.027</ele>
        <time>2019-10-14T10:22:40Z</time>
      </trkpt>
      <trkpt lat="37.2381" lon="-8.08356">
        <ele>237.868</ele>
        <time>2019-10-14T10:23:00Z</time>
      </trkpt>
      <trkpt lat="37.23813" lon="-8.08366">
        <ele>237.86</ele>
        <time>2019-10-14T10:23:20Z</time>
      </trkpt>
      <trkpt lat="37.23817" lon="-8.08376">
        <ele>238.25</ele>
        <time>2019-10-14T10:23:40Z</time>
      </trkpt>
      <trkpt lat="37.23821" lon="-8.08386">
        <ele>238.758</ele>
        <time>2019-10-14T10:24:00Z</time>
      </trkpt>
      <trkpt lat="37.23826" lon="-8.08394">
        <ele>239.452</ele>
        <time>2019-10-14T10:24:20Z</time>
      </trkpt>
      <trkpt lat="37.23831" lon="-8.08403">
        <ele>240.217</ele>
        <time>2019-10-14T10:24:40Z</time>
      </trkpt>
      <trkpt lat="37.23836" lon="-8.08412">
        <ele>241.108</ele>
        <time>2019-10-14T10:25:00Z</time>
      </trkpt>
      <trkpt lat="37.2384" lon="-8.08423">
        <ele>241.989</ele>
        <time>2019-10-14T10:25:20Z</time>
      </trkpt>
      <trkpt lat="37.23842" lon="-8.08433">
        <ele>242.457</ele>
        <time>2019-10-14T10:25:40Z</time>
      </trkpt>
      <trkpt lat="37.23844" lon="-8.08442">
        <ele>242.849</ele>
        <time>2019-10-14T10:26:00Z</time>
      </trkpt>
      <trkpt lat="37.23847" lon="-8.0845">
        <ele>243.219</ele>
        <time>2019-10-14T10:26:20Z</time>
      </trkpt>
      <trkpt lat="37.2385" lon="-8.08457">
        <ele>243.861</ele>
        <time>2019-10-14T10:26:40Z</time>
      </trkpt>
      <trkpt lat="37.23855" lon="-8.08465">
        <ele>244.512</ele>
        <time>2019-10-14T10:27:00Z</time>
      </trkpt>
      <trkpt lat="37.2386" lon="-8.08475">
        <ele>245.144</ele>
        <time>2019-10-14T10:27:20Z</time>
      </trkpt>
      <trkpt lat="37.23874" lon="-8.085">
        <ele>246.514</ele>
        <time>2019-10-14T10:27:40Z</time>
      </trkpt>
      <trkpt lat="37.23879" lon="-8.08504">
        <ele>246.682</ele>
        <time>2019-10-14T10:28:00Z</time>
      </trkpt>
      <trkpt lat="37.23885" lon="-8.08507">
        <ele>246.943</ele>
        <time>2019-10-14T10:28:20Z</time>
      </trkpt>
      <trkpt lat="37.23893" lon="-8.08508">
        <ele>247.217</ele>
        <time>2019-10-14T10:28:40Z</time>
      </trkpt>
      <trkpt lat="37.23903" lon="-8.08508">
        <ele>247.508</ele>
        <time>2019-10-14T10:29:00Z</time>
      </trkpt>
      <trkpt lat="37.23934" lon="-8.08505">
        <ele>248.782</ele>
        <time>2019-10-14T10:29:20Z</time>
      </trkpt>
      <trkpt lat="37.23943" lon="-8.08502">
        <ele>249.06</ele>
        <time>2019-10-14T10:29:40Z</time>
      </trkpt>
      <trkpt lat="37.23957" lon="-8.08497">
        <ele>249.922</ele>
        <time>2019-10-14T10:30:00Z</time>
      </trkpt>
      <trkpt lat="37.23962" lon="-8.08498">
        <ele>250.342</ele>
        <time>2019-10-14T10:30:20Z</time>
      </trkpt>
      <trkpt lat="37.23967" lon="-8.08501">
        <ele>250.644</ele>
        <time>2019-10-14T10:30:40Z</time>
      </trkpt>
      <trkpt lat="37.23972" lon="-8.08507">
        <ele>251.035</ele>
        <time>2019-10-14T10:31:00Z</time>
      </trkpt>
      <trkpt lat="37.23979" lon="-8.08514">
        <ele>251.837</ele>
        <time>2019-10-14T10:31:20Z</time>
      </trkpt>
      <trkpt lat="37.23986" lon="-8.08521">
        <ele>252.997</ele>
        <time>2019-10-14T10:31:40Z</time>
      </trkpt>
      <trkpt lat="37.24" lon="-8.08534">
        <ele>255.221</ele>
        <time>2019-10-14T10:32:00Z</time>
      </trkpt>
      <trkpt lat="37.24006" lon="-8.08536">
        <ele>256.341</ele>
        <time>2019-10-14T10:32:20Z</time>
      </trkpt>
      <trkpt lat="37.24012" lon="-8.08536">
        <ele>257.205</ele>
        <time>2019-10-14T10:32:40Z</time>
      </trkpt>
      <trkpt lat="37.24023" lon="-8.08533">
        <ele>259.008</ele>
        <time>2019-10-14T10:33:00Z</time>
      </trkpt>
      <trkpt lat="37.24028" lon="-8.08533">
        <ele>259.926</ele>
        <time>2019-10-14T10:33:20Z</time>
      </trkpt>
      <trkpt lat="37.24031" lon="-8.08533">
        <ele>260.324</ele>
        <time>2019-10-14T10:33:40Z</time>
      </trkpt>
      <trkpt lat="37.24032" lon="-8.08534">
        <ele>260.526</ele>
        <time>2019-10-14T10:34:00Z</time>
      </trkpt>
      <trkpt lat="37.24033" lon="-8.08535">
        <ele>260.546</ele>
        <time>2019-10-14T10:34:20Z</time>
      </trkpt>
      <trkpt lat="37.24036" lon="-8.08545">
        <ele>260.898</ele>
        <time>2019-10-14T10:34:40Z</time>
      </trkpt>
      <trkpt lat="37.24037" lon="-8.08543">
        <ele>260.969</ele>
        <time>2019-10-14T10:35:00Z</time>
      </trkpt>
      <trkpt lat="37.24042" lon="-8.08569">
        <ele>260.861</ele>
        <time>2019-10-14T10:35:20Z</time>
      </trkpt>
      <trkpt lat="37.24044" lon="-8.08578">
        <ele>260.711</ele>
        <time>2019-10-14T10:35:40Z</time>
      </trkpt>
      <trkpt lat="37.24047" lon="-8.08587">
        <ele>260.851</ele>
        <time>2019-10-14T10:36:00Z</time>
      </trkpt>
      <trkpt lat="37.24054" lon="-8.08602">
        <ele>261.801</ele>
        <time>2019-10-14T10:36:20Z</time>
      </trkpt>
      <trkpt lat="37.24058" lon="-8.08609">
        <ele>262.311</ele>
        <time>2019-10-14T10:36:40Z</time>
      </trkpt>
      <trkpt lat="37.24074" lon="-8.08643">
        <ele>262.908</ele>
        <time>2019-10-14T10:37:00Z</time>
      </trkpt>
      <trkpt lat="37.24085" lon="-8.08663">
        <ele>264.189</ele>
        <time>2019-10-14T10:37:20Z</time>
      </trkpt>
      <trkpt lat="37.24088" lon="-8.08664">
        <ele>264.197</ele>
        <time>2019-10-14T10:37:40Z</time>
      </trkpt>
      <trkpt lat="37.24091" lon="-8.08664">
        <ele>264.269</ele>
        <time>2019-10-14T10:38:00Z</time>
      </trkpt>
      <trkpt lat="37.24093" lon="-8.08665">
        <ele>264.399</ele>
        <time>2019-10-14T10:38:20Z</time>
      </trkpt>
      <trkpt lat="37.24095" lon="-8.08668">
        <ele>264.531</ele>
        <time>2019-10-14T10:38:40Z</time>
      </trkpt>
      <trkpt lat="37.24097" lon="-8.08674">
        <ele>264.882</ele>
        <time>2019-10-14T10:39:00Z</time>
      </trkpt>
      <trkpt lat="37.24099" lon="-8.08682">
        <ele>265.124</ele>
        <time>2019-10-14T10:39:20Z</time>
      </trkpt>
      <trkpt lat="37.24102" lon="-8.08689">
        <ele>265.584</ele>
        <time>2019-10-14T10:39:40Z</time>
      </trkpt>
      <trkpt lat="37.24106" lon="-8.08696">
        <ele>266.041</ele>
        <time>2019-10-14T10:40:00Z</time>
      </trkpt>
      <trkpt lat="37.24111" lon="-8.08705">
        <ele>267.181</ele>
        <time>2019-10-14T10:40:20Z</time>
      </trkpt>
      <trkpt lat="37.24117" lon="-8.08713">
        <ele>267.009</ele>
        <time>2019-10-14T10:40:40Z</time>
      </trkpt>
      <trkpt lat="37.24135" lon="-8.08739">
        <ele>268.208</ele>
        <time>2019-10-14T10:41:00Z</time>
      </trkpt>
      <trkpt lat="37.24139" lon="-8.08744">
        <ele>268.628</ele>
        <time>2019-10-14T10:41:20Z</time>
      </trkpt>
      <trkpt lat="37.24144" lon="-8.08749">
        <ele>268.116</ele>
        <time>2019-10-14T10:41:40Z</time>
      </trkpt>
      <trkpt lat="37.24149" lon="-8.08754">
        <ele>267.398</ele>
        <time>2019-10-14T10:42:00Z</time>
      </trkpt>
      <trkpt lat="37.24154" lon="-8.0876">
        <ele>266.988</ele>
        <time>2019-10-14T10:42:20Z</time>
      </trkpt>
      <trkpt lat="37.24159" lon="-8.08767">
        <ele>267.29</ele>
        <time>2019-10-14T10:42:40Z</time>
      </trkpt>
      <trkpt lat="37.24173" lon="-8.08787">
        <ele>268.271</ele>
        <time>2019-10-14T10:43:00Z</time>
      </trkpt>
      <trkpt lat="37.24177" lon="-8.08791">
        <ele>268.013</ele>
        <time>2019-10-14T10:43:20Z</time>
      </trkpt>
      <trkpt lat="37.24181" lon="-8.08793">
        <ele>267.513</ele>
        <time>2019-10-14T10:43:40Z</time>
      </trkpt>
      <trkpt lat="37.24184" lon="-8.08795">
        <ele>267.175</ele>
        <time>2019-10-14T10:44:00Z</time>
      </trkpt>
      <trkpt lat="37.24188" lon="-8.08798">
        <ele>266.928</ele>
        <time>2019-10-14T10:44:20Z</time>
      </trkpt>
      <trkpt lat="37.24191" lon="-8.08802">
        <ele>266.92</ele>
        <time>2019-10-14T10:44:40Z</time>
      </trkpt>
      <trkpt lat="37.24195" lon="-8.08807">
        <ele>267.208</ele>
        <time>2019-10-14T10:45:00Z</time>
      </trkpt>
      <trkpt lat="37.24197" lon="-8.08813">
        <ele>267.641</ele>
        <time>2019-10-14T10:45:20Z</time>
      </trkpt>
      <trkpt lat="37.24224" lon="-8.08869">
        <ele>269.179</ele>
        <time>2019-10-14T10:45:40Z</time>
      </trkpt>
      <trkpt lat="37.24244" lon="-8.08913">
        <ele>272.071</ele>
        <time>2019-10-14T10:46:00Z</time>
      </trkpt>
      <trkpt lat="37.24275" lon="-8.0898">
        <ele>272.561</ele>
        <time>2019-10-14T10:46:20Z</time>
      </trkpt>
      <trkpt lat="37.24274" lon="-8.08977">
        <ele>272.413</ele>
        <time>2019-10-14T10:46:40Z</time>
      </trkpt>
      <trkpt lat="37.24276" lon="-8.08976">
        <ele>271.964</ele>
        <time>2019-10-14T10:47:00Z</time>
      </trkpt>
      <trkpt lat="37.24279" lon="-8.08975">
        <ele>271.026</ele>
        <time>2019-10-14T10:47:20Z</time>
      </trkpt>
      <trkpt lat="37.24295" lon="-8.0897">
        <ele>268.316</ele>
        <time>2019-10-14T10:47:40Z</time>
      </trkpt>
      <trkpt lat="37.24312" lon="-8.08965">
        <ele>265.623</ele>
        <time>2019-10-14T10:48:00Z</time>
      </trkpt>
      <trkpt lat="37.24322" lon="-8.08962">
        <ele>264.483</ele>
        <time>2019-10-14T10:48:20Z</time>
      </trkpt>
      <trkpt lat="37.2433" lon="-8.08963">
        <ele>263.711</ele>
        <time>2019-10-14T10:48:40Z</time>
      </trkpt>
      <trkpt lat="37.24333" lon="-8.08964">
        <ele>263.408</ele>
        <time>2019-10-14T10:49:00Z</time>
      </trkpt>
      <trkpt lat="37.24345" lon="-8.08964">
        <ele>260.976</ele>
        <time>2019-10-14T10:49:20Z</time>
      </trkpt>
      <trkpt lat="37.24347" lon="-8.08962">
        <ele>260.314</ele>
        <time>2019-10-14T10:49:40Z</time>
      </trkpt>
      <trkpt lat="37.24347" lon="-8.08959">
        <ele>260.016</ele>
        <time>2019-10-14T10:50:00Z</time>
      </trkpt>
      <trkpt lat="37.24346" lon="-8.08955">
        <ele>260.056</ele>
        <time>2019-10-14T10:50:20Z</time>
      </trkpt>
      <trkpt lat="37.24344" lon="-8.0895">
        <ele>260.188</ele>
        <time>2019-10-14T10:50:40Z</time>
      </trkpt>
      <trkpt lat="37.24341" lon="-8.08944">
        <ele>260.349</ele>
        <time>2019-10-14T10:51:00Z</time>
      </trkpt>
      <trkpt lat="37.24332" lon="-8.08928">
        <ele>259.191</ele>
        <time>2019-10-14T10:51:20Z</time>
      </trkpt>
      <trkpt lat="37.2433" lon="-8.08924">
        <ele>258.961</ele>
        <time>2019-10-14T10:51:40Z</time>
      </trkpt>
      <trkpt lat="37.2433" lon="-8.0892">
        <ele>258.251</ele>
        <time>2019-10-14T10:52:00Z</time>
      </trkpt>
      <trkpt lat="37.24332" lon="-8.08915">
        <ele>256.801</ele>
        <time>2019-10-14T10:52:20Z</time>
      </trkpt>
      <trkpt lat="37.24337" lon="-8.08911">
        <ele>255.211</ele>
        <time>2019-10-14T10:52:40Z</time>
      </trkpt>
      <trkpt lat="37.24344" lon="-8.08907">
        <ele>253.508</ele>
        <time>2019-10-14T10:53:00Z</time>
      </trkpt>
      <trkpt lat="37.24408" lon="-8.08872">
        <ele>241.059</ele>
        <time>2019-10-14T10:53:20Z</time>
      </trkpt>
      <trkpt lat="37.24415" lon="-8.08871">
        <ele>239.957</ele>
        <time>2019-10-14T10:53:40Z</time>
      </trkpt>
      <trkpt lat="37.24423" lon="-8.08873">
        <ele>239.069</ele>
        <time>2019-10-14T10:54:00Z</time>
      </trkpt>
      <trkpt lat="37.2443" lon="-8.08877">
        <ele>238.559</ele>
        <time>2019-10-14T10:54:20Z</time>
      </trkpt>
      <trkpt lat="37.24437" lon="-8.08885">
        <ele>238.411</ele>
        <time>2019-10-14T10:54:40Z</time>
      </trkpt>
      <trkpt lat="37.24442" lon="-8.08893">
        <ele>238.812</ele>
        <time>2019-10-14T10:55:00Z</time>
      </trkpt>
      <trkpt lat="37.24447" lon="-8.08899">
        <ele>239.374</ele>
        <time>2019-10-14T10:55:20Z</time>
      </trkpt>
      <trkpt lat="37.24452" lon="-8.08902">
        <ele>239.434</ele>
        <time>2019-10-14T10:55:40Z</time>
      </trkpt>
      <trkpt lat="37.24457" lon="-8.08902">
        <ele>239.013</ele>
        <time>2019-10-14T10:56:00Z</time>
      </trkpt>
      <trkpt lat="37.24463" lon="-8.089">
        <ele>238.443</ele>
        <time>2019-10-14T10:56:20Z</time>
      </trkpt>
      <trkpt lat="37.24469" lon="-8.08896">
        <ele>237.707</ele>
        <time>2019-10-14T10:56:40Z</time>
      </trkpt>
      <trkpt lat="37.24475" lon="-8.08892">
        <ele>237.208</ele>
        <time>2019-10-14T10:57:00Z</time>
      </trkpt>
      <trkpt lat="37.24481" lon="-8.08887">
        <ele>236.815</ele>
        <time>2019-10-14T10:57:20Z</time>
      </trkpt>
      <trkpt lat="37.24489" lon="-8.08882">
        <ele>236.413</ele>
        <time>2019-10-14T10:57:40Z</time>
      </trkpt>
      <trkpt lat="37.24519" lon="-8.08869">
        <ele>234.045</ele>
        <time>2019-10-14T10:58:00Z</time>
      </trkpt>
      <trkpt lat="37.2456" lon="-8.08848">
        <ele>232.595</ele>
        <time>2019-10-14T10:58:20Z</time>
      </trkpt>
      <trkpt lat="37.24596" lon="-8.08827">
        <ele>232.097</ele>
        <time>2019-10-14T10:58:40Z</time>
      </trkpt>
      <trkpt lat="37.24601" lon="-8.08822">
        <ele>232.128</ele>
        <time>2019-10-14T10:59:00Z</time>
      </trkpt>
      <trkpt lat="37.24605" lon="-8.08814">
        <ele>232.45</ele>
        <time>2019-10-14T10:59:20Z</time>
      </trkpt>
      <trkpt lat="37.24606" lon="-8.08805">
        <ele>232.67</ele>
        <time>2019-10-14T10:59:40Z</time>
      </trkpt>
      <trkpt lat="37.24605" lon="-8.08794">
        <ele>233.293</ele>
        <time>2019-10-14T11:00:00Z</time>
      </trkpt>
      <trkpt lat="37.24604" lon="-8.08782">
        <ele>233.765</ele>
        <time>2019-10-14T11:00:20Z</time>
      </trkpt>
      <trkpt lat="37.24603" lon="-8.0877">
        <ele>234.321</ele>
        <time>2019-10-14T11:00:40Z</time>
      </trkpt>
      <trkpt lat="37.24603" lon="-8.08756">
        <ele>235.108</ele>
        <time>2019-10-14T11:01:00Z</time>
      </trkpt>
      <trkpt lat="37.24601" lon="-8.08716">
        <ele>236.413</ele>
        <time>2019-10-14T11:01:20Z</time>
      </trkpt>
      <trkpt lat="37.24603" lon="-8.08695">
        <ele>237.191</ele>
        <time>2019-10-14T11:01:40Z</time>
      </trkpt>
      <trkpt lat="37.24606" lon="-8.08689">
        <ele>237.733</ele>
        <time>2019-10-14T11:02:00Z</time>
      </trkpt>
      <trkpt lat="37.24612" lon="-8.08685">
        <ele>238.593</ele>
        <time>2019-10-14T11:02:20Z</time>
      </trkpt>
      <trkpt lat="37.2462" lon="-8.08684">
        <ele>240.125</ele>
        <time>2019-10-14T11:02:40Z</time>
      </trkpt>
      <trkpt lat="37.24628" lon="-8.08682">
        <ele>241.946</ele>
        <time>2019-10-14T11:03:00Z</time>
      </trkpt>
      <trkpt lat="37.24671" lon="-8.08676">
        <ele>247.528</ele>
        <time>2019-10-14T11:03:20Z</time>
      </trkpt>
      <trkpt lat="37.24677" lon="-8.08674">
        <ele>247.738</ele>
        <time>2019-10-14T11:03:40Z</time>
      </trkpt>
      <trkpt lat="37.24681" lon="-8.08671">
        <ele>247.711</ele>
        <time>2019-10-14T11:04:00Z</time>
      </trkpt>
      <trkpt lat="37.24683" lon="-8.08665">
        <ele>247.621</ele>
        <time>2019-10-14T11:04:20Z</time>
      </trkpt>
      <trkpt lat="37.24686" lon="-8.08656">
        <ele>247.803</ele>
        <time>2019-10-14T11:04:40Z</time>
      </trkpt>
      <trkpt lat="37.24687" lon="-8.08646">
        <ele>247.908</ele>
        <time>2019-10-14T11:05:00Z</time>
      </trkpt>
      <trkpt lat="37.2469" lon="-8.08633">
        <ele>248.235</ele>
        <time>2019-10-14T11:05:20Z</time>
      </trkpt>
      <trkpt lat="37.24697" lon="-8.0857">
        <ele>248.813</ele>
        <time>2019-10-14T11:05:40Z</time>
      </trkpt>
      <trkpt lat="37.24696" lon="-8.08552">
        <ele>248.575</ele>
        <time>2019-10-14T11:06:00Z</time>
      </trkpt>
      <trkpt lat="37.24693" lon="-8.08533">
        <ele>249.415</ele>
        <time>2019-10-14T11:06:20Z</time>
      </trkpt>
      <trkpt lat="37.24676" lon="-8.08443">
        <ele>247.237</ele>
        <time>2019-10-14T11:06:40Z</time>
      </trkpt>
      <trkpt lat="37.24675" lon="-8.08425">
        <ele>246.158</ele>
        <time>2019-10-14T11:07:00Z</time>
      </trkpt>
      <trkpt lat="37.24674" lon="-8.08348">
        <ele>242.84</ele>
        <time>2019-10-14T11:07:20Z</time>
      </trkpt>
      <trkpt lat="37.24669" lon="-8.0829">
        <ele>241.41</ele>
        <time>2019-10-14T11:07:40Z</time>
      </trkpt>
      <trkpt lat="37.24649" lon="-8.08159">
        <ele>245.238</ele>
        <time>2019-10-14T11:08:00Z</time>
      </trkpt>
      <trkpt lat="37.24649" lon="-8.08152">
        <ele>245.37</ele>
        <time>2019-10-14T11:08:20Z</time>
      </trkpt>
      <trkpt lat="37.24652" lon="-8.08148">
        <ele>245.417</ele>
        <time>2019-10-14T11:08:40Z</time>
      </trkpt>
      <trkpt lat="37.24655" lon="-8.08147">
        <ele>245.608</ele>
        <time>2019-10-14T11:09:00Z</time>
      </trkpt>
      <trkpt lat="37.24661" lon="-8.08149">
        <ele>246.087</ele>
        <time>2019-10-14T11:09:20Z</time>
      </trkpt>
      <trkpt lat="37.24667" lon="-8.08152">
        <ele>246.555</ele>
        <time>2019-10-14T11:09:40Z</time>
      </trkpt>
      <trkpt lat="37.24679" lon="-8.08158">
        <ele>248.227</ele>
        <time>2019-10-14T11:10:00Z</time>
      </trkpt>
      <trkpt lat="37.24686" lon="-8.08162">
        <ele>249.427</ele>
        <time>2019-10-14T11:10:20Z</time>
      </trkpt>
      <trkpt lat="37.24693" lon="-8.08166">
        <ele>250.719</ele>
        <time>2019-10-14T11:10:40Z</time>
      </trkpt>
      <trkpt lat="37.247" lon="-8.08172">
        <ele>251.74</ele>
        <time>2019-10-14T11:11:00Z</time>
      </trkpt>
      <trkpt lat="37.24707" lon="-8.08178">
        <ele>252.912</ele>
        <time>2019-10-14T11:11:20Z</time>
      </trkpt>
      <trkpt lat="37.24725" lon="-8.08196">
        <ele>257.612</ele>
        <time>2019-10-14T11:11:40Z</time>
      </trkpt>
      <trkpt lat="37.24744" lon="-8.08217">
        <ele>261.872</ele>
        <time>2019-10-14T11:12:00Z</time>
      </trkpt>
      <trkpt lat="37.2477" lon="-8.08245">
        <ele>263.713</ele>
        <time>2019-10-14T11:12:20Z</time>
      </trkpt>
      <trkpt lat="37.24778" lon="-8.08255">
        <ele>264.014</ele>
        <time>2019-10-14T11:12:40Z</time>
      </trkpt>
      <trkpt lat="37.24783" lon="-8.08258">
        <ele>264.408</ele>
        <time>2019-10-14T11:13:00Z</time>
      </trkpt>
      <trkpt lat="37.24793" lon="-8.08261">
        <ele>265.371</ele>
        <time>2019-10-14T11:13:20Z</time>
      </trkpt>
      <trkpt lat="37.24797" lon="-8.08265">
        <ele>265.749</ele>
        <time>2019-10-14T11:13:40Z</time>
      </trkpt>
      <trkpt lat="37.248" lon="-8.0827">
        <ele>266.221</ele>
        <time>2019-10-14T11:14:00Z</time>
      </trkpt>
      <trkpt lat="37.24802" lon="-8.08276">
        <ele>266.651</ele>
        <time>2019-10-14T11:14:20Z</time>
      </trkpt>
      <trkpt lat="37.24803" lon="-8.08284">
        <ele>267.133</ele>
        <time>2019-10-14T11:14:40Z</time>
      </trkpt>
      <trkpt lat="37.24804" lon="-8.08292">
        <ele>267.814</ele>
        <time>2019-10-14T11:15:00Z</time>
      </trkpt>
      <trkpt lat="37.24806" lon="-8.08311">
        <ele>268.956</ele>
        <time>2019-10-14T11:15:20Z</time>
      </trkpt>
      <trkpt lat="37.24809" lon="-8.0832">
        <ele>269.026</ele>
        <time>2019-10-14T11:15:40Z</time>
      </trkpt>
      <trkpt lat="37.24812" lon="-8.08326">
        <ele>269.265</ele>
        <time>2019-10-14T11:16:00Z</time>
      </trkpt>
      <trkpt lat="37.24815" lon="-8.08328">
        <ele>269.568</ele>
        <time>2019-10-14T11:16:20Z</time>
      </trkpt>
      <trkpt lat="37.24817" lon="-8.0833">
        <ele>269.714</ele>
        <time>2019-10-14T11:16:40Z</time>
      </trkpt>
      <trkpt lat="37.24823" lon="-8.08337">
        <ele>270.108</ele>
        <time>2019-10-14T11:17:00Z</time>
      </trkpt>
      <trkpt lat="37.24828" lon="-8.08341">
        <ele>270.28</ele>
        <time>2019-10-14T11:17:20Z</time>
      </trkpt>
      <trkpt lat="37.24834" lon="-8.08344">
        <ele>270.718</ele>
        <time>2019-10-14T11:17:40Z</time>
      </trkpt>
      <trkpt lat="37.24842" lon="-8.08345">
        <ele>272.14</ele>
        <time>2019-10-14T11:18:00Z</time>
      </trkpt>
      <trkpt lat="37.24852" lon="-8.08346">
        <ele>274.26</ele>
        <time>2019-10-14T11:18:20Z</time>
      </trkpt>
      <trkpt lat="37.24874" lon="-8.08346">
        <ele>280.122</ele>
        <time>2019-10-14T11:18:40Z</time>
      </trkpt>
      <trkpt lat="37.24894" lon="-8.08347">
        <ele>285.473</ele>
        <time>2019-10-14T11:19:00Z</time>
      </trkpt>
      <trkpt lat="37.24915" lon="-8.08349">
        <ele>287.965</ele>
        <time>2019-10-14T11:19:20Z</time>
      </trkpt>
      <trkpt lat="37.24934" lon="-8.08352">
        <ele>291.595</ele>
        <time>2019-10-14T11:19:40Z</time>
      </trkpt>
      <trkpt lat="37.24954" lon="-8.08355">
        <ele>294.656</ele>
        <time>2019-10-14T11:20:00Z</time>
      </trkpt>
      <trkpt lat="37.24975" lon="-8.08358">
        <ele>297.659</ele>
        <time>2019-10-14T11:20:20Z</time>
      </trkpt>
      <trkpt lat="37.24995" lon="-8.0836">
        <ele>302.814</ele>
        <time>2019-10-14T11:20:40Z</time>
      </trkpt>
      <trkpt lat="37.25014" lon="-8.0836">
        <ele>309.108</ele>
        <time>2019-10-14T11:21:00Z</time>
      </trkpt>
      <trkpt lat="37.25023" lon="-8.08359">
        <ele>312.829</ele>
        <time>2019-10-14T11:21:20Z</time>
      </trkpt>
      <trkpt lat="37.25033" lon="-8.08357">
        <ele>316.157</ele>
        <time>2019-10-14T11:21:40Z</time>
      </trkpt>
      <trkpt lat="37.25043" lon="-8.08356">
        <ele>318.969</ele>
        <time>2019-10-14T11:22:00Z</time>
      </trkpt>
      <trkpt lat="37.25054" lon="-8.08356">
        <ele>321.769</ele>
        <time>2019-10-14T11:22:20Z</time>
      </trkpt>
      <trkpt lat="37.25076" lon="-8.08354">
        <ele>325.711</ele>
        <time>2019-10-14T11:22:40Z</time>
      </trkpt>
      <trkpt lat="37.25096" lon="-8.08354">
        <ele>327.452</ele>
        <time>2019-10-14T11:23:00Z</time>
      </trkpt>
      <trkpt lat="37.25113" lon="-8.08352">
        <ele>328.954</ele>
        <time>2019-10-14T11:23:20Z</time>
      </trkpt>
      <trkpt lat="37.25121" lon="-8.08349">
        <ele>331.274</ele>
        <time>2019-10-14T11:23:40Z</time>
      </trkpt>
      <trkpt lat="37.25129" lon="-8.08344">
        <ele>333.665</ele>
        <time>2019-10-14T11:24:00Z</time>
      </trkpt>
      <trkpt lat="37.25137" lon="-8.08338">
        <ele>336.068</ele>
        <time>2019-10-14T11:24:20Z</time>
      </trkpt>
      <trkpt lat="37.25145" lon="-8.0833">
        <ele>338.114</ele>
        <time>2019-10-14T11:24:40Z</time>
      </trkpt>
      <trkpt lat="37.25152" lon="-8.08323">
        <ele>340.208</ele>
        <time>2019-10-14T11:25:00Z</time>
      </trkpt>
      <trkpt lat="37.25158" lon="-8.08316">
        <ele>342.06</ele>
        <time>2019-10-14T11:25:20Z</time>
      </trkpt>
      <trkpt lat="37.25162" lon="-8.08308">
        <ele>343.698</ele>
        <time>2019-10-14T11:25:40Z</time>
      </trkpt>
      <trkpt lat="37.25166" lon="-8.08299">
        <ele>344.77</ele>
        <time>2019-10-14T11:26:00Z</time>
      </trkpt>
      <trkpt lat="37.25169" lon="-8.0829">
        <ele>346.01</ele>
        <time>2019-10-14T11:26:20Z</time>
      </trkpt>
      <trkpt lat="37.25171" lon="-8.0828">
        <ele>347.432</ele>
        <time>2019-10-14T11:26:40Z</time>
      </trkpt>
      <trkpt lat="37.25173" lon="-8.0827">
        <ele>348.043</ele>
        <time>2019-10-14T11:27:00Z</time>
      </trkpt>
      <trkpt lat="37.25174" lon="-8.08262">
        <ele>348.345</ele>
        <time>2019-10-14T11:27:20Z</time>
      </trkpt>
      <trkpt lat="37.25176" lon="-8.08254">
        <ele>348.635</ele>
        <time>2019-10-14T11:27:40Z</time>
      </trkpt>
      <trkpt lat="37.25179" lon="-8.08248">
        <ele>348.652</ele>
        <time>2019-10-14T11:28:00Z</time>
      </trkpt>
      <trkpt lat="37.25183" lon="-8.08245">
        <ele>348.253</ele>
        <time>2019-10-14T11:28:20Z</time>
      </trkpt>
      <trkpt lat="37.25188" lon="-8.08244">
        <ele>348.308</ele>
        <time>2019-10-14T11:28:40Z</time>
      </trkpt>
      <trkpt lat="37.25192" lon="-8.08245">
        <ele>348.708</ele>
        <time>2019-10-14T11:29:00Z</time>
      </trkpt>
      <trkpt lat="37.25197" lon="-8.08248">
        <ele>349.849</ele>
        <time>2019-10-14T11:29:20Z</time>
      </trkpt>
      <trkpt lat="37.25202" lon="-8.08254">
        <ele>350.747</ele>
        <time>2019-10-14T11:29:40Z</time>
      </trkpt>
      <trkpt lat="37.25207" lon="-8.08262">
        <ele>351.719</ele>
        <time>2019-10-14T11:30:00Z</time>
      </trkpt>
      <trkpt lat="37.25214" lon="-8.08271">
        <ele>353.299</ele>
        <time>2019-10-14T11:30:20Z</time>
      </trkpt>
      <trkpt lat="37.2523" lon="-8.0829">
        <ele>356.011</ele>
        <time>2019-10-14T11:30:40Z</time>
      </trkpt>
      <trkpt lat="37.25238" lon="-8.083">
        <ele>357.182</ele>
        <time>2019-10-14T11:31:00Z</time>
      </trkpt>
      <trkpt lat="37.25244" lon="-8.08311">
        <ele>358.134</ele>
        <time>2019-10-14T11:31:20Z</time>
      </trkpt>
      <trkpt lat="37.25249" lon="-8.08321">
        <ele>359.224</ele>
        <time>2019-10-14T11:31:40Z</time>
      </trkpt>
      <trkpt lat="37.25253" lon="-8.08333">
        <ele>360.157</ele>
        <time>2019-10-14T11:32:00Z</time>
      </trkpt>
      <trkpt lat="37.25256" lon="-8.08347">
        <ele>360.2</ele>
        <time>2019-10-14T11:32:20Z</time>
      </trkpt>
      <trkpt lat="37.25259" lon="-8.08361">
        <ele>360.32</ele>
        <time>2019-10-14T11:32:40Z</time>
      </trkpt>
      <trkpt lat="37.25261" lon="-8.08375">
        <ele>360.208</ele>
        <time>2019-10-14T11:33:00Z</time>
      </trkpt>
      <trkpt lat="37.25262" lon="-8.08387">
        <ele>360.079</ele>
        <time>2019-10-14T11:33:20Z</time>
      </trkpt>
      <trkpt lat="37.25261" lon="-8.08399">
        <ele>359.777</ele>
        <time>2019-10-14T11:33:40Z</time>
      </trkpt>
      <trkpt lat="37.25259" lon="-8.08412">
        <ele>359.429</ele>
        <time>2019-10-14T11:34:00Z</time>
      </trkpt>
      <trkpt lat="37.25257" lon="-8.08425">
        <ele>359.819</ele>
        <time>2019-10-14T11:34:20Z</time>
      </trkpt>
      <trkpt lat="37.25254" lon="-8.08438">
        <ele>360.551</ele>
        <time>2019-10-14T11:34:40Z</time>
      </trkpt>
      <trkpt lat="37.25251" lon="-8.0847">
        <ele>362.752</ele>
        <time>2019-10-14T11:35:00Z</time>
      </trkpt>
      <trkpt lat="37.25253" lon="-8.08502">
        <ele>362.274</ele>
        <time>2019-10-14T11:35:20Z</time>
      </trkpt>
      <trkpt lat="37.25254" lon="-8.08522">
        <ele>363.794</ele>
        <time>2019-10-14T11:35:40Z</time>
      </trkpt>
      <trkpt lat="37.25256" lon="-8.08532">
        <ele>364.527</ele>
        <time>2019-10-14T11:36:00Z</time>
      </trkpt>
      <trkpt lat="37.25263" lon="-8.08561">
        <ele>366.768</ele>
        <time>2019-10-14T11:36:20Z</time>
      </trkpt>
      <trkpt lat="37.25267" lon="-8.08592">
        <ele>367.214</ele>
        <time>2019-10-14T11:36:40Z</time>
      </trkpt>
      <trkpt lat="37.25269" lon="-8.086">
        <ele>366.808</ele>
        <time>2019-10-14T11:37:00Z</time>
      </trkpt>
      <trkpt lat="37.25272" lon="-8.08608">
        <ele>366.476</ele>
        <time>2019-10-14T11:37:20Z</time>
      </trkpt>
      <trkpt lat="37.25276" lon="-8.08615">
        <ele>365.964</ele>
        <time>2019-10-14T11:37:40Z</time>
      </trkpt>
      <trkpt lat="37.25282" lon="-8.08623">
        <ele>364.766</ele>
        <time>2019-10-14T11:38:00Z</time>
      </trkpt>
      <trkpt lat="37.25287" lon="-8.08633">
        <ele>363.456</ele>
        <time>2019-10-14T11:38:20Z</time>
      </trkpt>
      <trkpt lat="37.25292" lon="-8.08644">
        <ele>363.338</ele>
        <time>2019-10-14T11:38:40Z</time>
      </trkpt>
      <trkpt lat="37.25299" lon="-8.08654">
        <ele>364.229</ele>
        <time>2019-10-14T11:39:00Z</time>
      </trkpt>
      <trkpt lat="37.25305" lon="-8.08662">
        <ele>365.021</ele>
        <time>2019-10-14T11:39:20Z</time>
      </trkpt>
      <trkpt lat="37.25312" lon="-8.08666">
        <ele>365.931</ele>
        <time>2019-10-14T11:39:40Z</time>
      </trkpt>
      <trkpt lat="37.25319" lon="-8.08668">
        <ele>366.268</ele>
        <time>2019-10-14T11:40:00Z</time>
      </trkpt>
      <trkpt lat="37.25328" lon="-8.08666">
        <ele>365.842</ele>
        <time>2019-10-14T11:40:20Z</time>
      </trkpt>
      <trkpt lat="37.25337" lon="-8.08663">
        <ele>364.526</ele>
        <time>2019-10-14T11:40:40Z</time>
      </trkpt>
      <trkpt lat="37.25365" lon="-8.08656">
        <ele>358.608</ele>
        <time>2019-10-14T11:41:00Z</time>
      </trkpt>
      <trkpt lat="37.25375" lon="-8.08656">
        <ele>355.89</ele>
        <time>2019-10-14T11:41:20Z</time>
      </trkpt>
      <trkpt lat="37.25384" lon="-8.08658">
        <ele>353.498</ele>
        <time>2019-10-14T11:41:40Z</time>
      </trkpt>
      <trkpt lat="37.25395" lon="-8.08661">
        <ele>351.41</ele>
        <time>2019-10-14T11:42:00Z</time>
      </trkpt>
      <trkpt lat="37.25406" lon="-8.08666">
        <ele>349.38</ele>
        <time>2019-10-14T11:42:20Z</time>
      </trkpt>
      <trkpt lat="37.2543" lon="-8.08678">
        <ele>345.362</ele>
        <time>2019-10-14T11:42:40Z</time>
      </trkpt>
      <trkpt lat="37.25454" lon="-8.08693">
        <ele>340.743</ele>
        <time>2019-10-14T11:43:00Z</time>
      </trkpt>
      <trkpt lat="37.25478" lon="-8.08706">
        <ele>337.085</ele>
        <time>2019-10-14T11:43:20Z</time>
      </trkpt>
      <trkpt lat="37.25513" lon="-8.08725">
        <ele>334.485</ele>
        <time>2019-10-14T11:43:40Z</time>
      </trkpt>
      <trkpt lat="37.25525" lon="-8.08728">
        <ele>334.115</ele>
        <time>2019-10-14T11:44:00Z</time>
      </trkpt>
      <trkpt lat="37.25537" lon="-8.08731">
        <ele>332.165</ele>
        <time>2019-10-14T11:44:20Z</time>
      </trkpt>
      <trkpt lat="37.2556" lon="-8.08737">
        <ele>327.511</ele>
        <time>2019-10-14T11:44:40Z</time>
      </trkpt>
      <trkpt lat="37.2557" lon="-8.08742">
        <ele>325.108</ele>
        <time>2019-10-14T11:45:00Z</time>
      </trkpt>
      <trkpt lat="37.25579" lon="-8.0875">
        <ele>322.675</ele>
        <time>2019-10-14T11:45:20Z</time>
      </trkpt>
      <trkpt lat="37.25588" lon="-8.08758">
        <ele>322.323</ele>
        <time>2019-10-14T11:45:40Z</time>
      </trkpt>
      <trkpt lat="37.25598" lon="-8.08765">
        <ele>321.865</ele>
        <time>2019-10-14T11:46:00Z</time>
      </trkpt>
      <trkpt lat="37.25609" lon="-8.08768">
        <ele>320.145</ele>
        <time>2019-10-14T11:46:20Z</time>
      </trkpt>
      <trkpt lat="37.25621" lon="-8.0877">
        <ele>319.067</ele>
        <time>2019-10-14T11:46:40Z</time>
      </trkpt>
      <trkpt lat="37.25634" lon="-8.08769">
        <ele>317.988</ele>
        <time>2019-10-14T11:47:00Z</time>
      </trkpt>
      <trkpt lat="37.25647" lon="-8.08768">
        <ele>316.41</ele>
        <time>2019-10-14T11:47:20Z</time>
      </trkpt>
      <trkpt lat="37.25689" lon="-8.08767">
        <ele>311.65</ele>
        <time>2019-10-14T11:47:40Z</time>
      </trkpt>
      <trkpt lat="37.25715" lon="-8.08766">
        <ele>305.515</ele>
        <time>2019-10-14T11:48:00Z</time>
      </trkpt>
      <trkpt lat="37.25738" lon="-8.08762">
        <ele>300.665</ele>
        <time>2019-10-14T11:48:20Z</time>
      </trkpt>
      <trkpt lat="37.25748" lon="-8.08759">
        <ele>298.911</ele>
        <time>2019-10-14T11:48:40Z</time>
      </trkpt>
      <trkpt lat="37.25757" lon="-8.08755">
        <ele>297.608</ele>
        <time>2019-10-14T11:49:00Z</time>
      </trkpt>
      <trkpt lat="37.25765" lon="-8.08748">
        <ele>296.435</ele>
        <time>2019-10-14T11:49:20Z</time>
      </trkpt>
      <trkpt lat="37.2577" lon="-8.08741">
        <ele>295.813</ele>
        <time>2019-10-14T11:49:40Z</time>
      </trkpt>
      <trkpt lat="37.25773" lon="-8.08735">
        <ele>295.225</ele>
        <time>2019-10-14T11:50:00Z</time>
      </trkpt>
      <trkpt lat="37.25774" lon="-8.08728">
        <ele>294.785</ele>
        <time>2019-10-14T11:50:20Z</time>
      </trkpt>
      <trkpt lat="37.25773" lon="-8.08722">
        <ele>294.437</ele>
        <time>2019-10-14T11:50:40Z</time>
      </trkpt>
      <trkpt lat="37.25769" lon="-8.08715">
        <ele>294.668</ele>
        <time>2019-10-14T11:51:00Z</time>
      </trkpt>
      <trkpt lat="37.25765" lon="-8.08709">
        <ele>294.72</ele>
        <time>2019-10-14T11:51:20Z</time>
      </trkpt>
      <trkpt lat="37.25764" lon="-8.08701">
        <ele>294.65</ele>
        <time>2019-10-14T11:51:40Z</time>
      </trkpt>
      <trkpt lat="37.25764" lon="-8.08695">
        <ele>294.518</ele>
        <time>2019-10-14T11:52:00Z</time>
      </trkpt>
      <trkpt lat="37.25766" lon="-8.08688">
        <ele>293.798</ele>
        <time>2019-10-14T11:52:20Z</time>
      </trkpt>
      <trkpt lat="37.25766" lon="-8.08682">
        <ele>292.917</ele>
        <time>2019-10-14T11:52:40Z</time>
      </trkpt>
      <trkpt lat="37.25765" lon="-8.08678">
        <ele>292.308</ele>
        <time>2019-10-14T11:53:00Z</time>
      </trkpt>
      <trkpt lat="37.25767" lon="-8.08674">
        <ele>291.835</ele>
        <time>2019-10-14T11:53:20Z</time>
      </trkpt>
      <trkpt lat="37.2577" lon="-8.08673">
        <ele>291.413</ele>
        <time>2019-10-14T11:53:40Z</time>
      </trkpt>
      <trkpt lat="37.25774" lon="-8.08672">
        <ele>291.055</ele>
        <time>2019-10-14T11:54:00Z</time>
      </trkpt>
      <trkpt lat="37.2578" lon="-8.08673">
        <ele>290.785</ele>
        <time>2019-10-14T11:54:20Z</time>
      </trkpt>
      <trkpt lat="37.25786" lon="-8.08675">
        <ele>290.287</ele>
        <time>2019-10-14T11:54:40Z</time>
      </trkpt>
      <trkpt lat="37.25821" lon="-8.08698">
        <ele>287.038</ele>
        <time>2019-10-14T11:55:00Z</time>
      </trkpt>
      <trkpt lat="37.25827" lon="-8.08705">
        <ele>286.76</ele>
        <time>2019-10-14T11:55:20Z</time>
      </trkpt>
      <trkpt lat="37.25846" lon="-8.0873">
        <ele>285.72</ele>
        <time>2019-10-14T11:55:40Z</time>
      </trkpt>
      <trkpt lat="37.25858" lon="-8.0874">
        <ele>283.914</ele>
        <time>2019-10-14T11:56:00Z</time>
      </trkpt>
      <trkpt lat="37.25859" lon="-8.08741">
        <ele>283.654</ele>
        <time>2019-10-14T11:56:20Z</time>
      </trkpt>
      <trkpt lat="37.25892" lon="-8.08765">
        <ele>281.709</ele>
        <time>2019-10-14T11:56:40Z</time>
      </trkpt>
      <trkpt lat="37.25901" lon="-8.08766">
        <ele>281.008</ele>
        <time>2019-10-14T11:57:00Z</time>
      </trkpt>
      <trkpt lat="37.25911" lon="-8.08766">
        <ele>280.275</ele>
        <time>2019-10-14T11:57:20Z</time>
      </trkpt>
      <trkpt lat="37.25922" lon="-8.08765">
        <ele>279.353</ele>
        <time>2019-10-14T11:57:40Z</time>
      </trkpt>
      <trkpt lat="37.25932" lon="-8.08762">
        <ele>278.045</ele>
        <time>2019-10-14T11:58:00Z</time>
      </trkpt>
      <trkpt lat="37.25943" lon="-8.08757">
        <ele>276.545</ele>
        <time>2019-10-14T11:58:20Z</time>
      </trkpt>
      <trkpt lat="37.25953" lon="-8.08749">
        <ele>275.187</ele>
        <time>2019-10-14T11:58:40Z</time>
      </trkpt>
      <trkpt lat="37.25963" lon="-8.0874">
        <ele>273.818</ele>
        <time>2019-10-14T11:59:00Z</time>
      </trkpt>
      <trkpt lat="37.25973" lon="-8.0873">
        <ele>272.23</ele>
        <time>2019-10-14T11:59:20Z</time>
      </trkpt>
      <trkpt lat="37.25993" lon="-8.08708">
        <ele>267.96</ele>
        <time>2019-10-14T11:59:40Z</time>
      </trkpt>
      <trkpt lat="37.26002" lon="-8.08696">
        <ele>265.098</ele>
        <time>2019-10-14T12:00:00Z</time>
      </trkpt>
      <trkpt lat="37.26018" lon="-8.08671">
        <ele>260.515</ele>
        <time>2019-10-14T12:00:20Z</time>
      </trkpt>
      <trkpt lat="37.26034" lon="-8.08647">
        <ele>256.426</ele>
        <time>2019-10-14T12:00:40Z</time>
      </trkpt>
      <trkpt lat="37.2605" lon="-8.08627">
        <ele>253.708</ele>
        <time>2019-10-14T12:01:00Z</time>
      </trkpt>
      <trkpt lat="37.26059" lon="-8.08619">
        <ele>253.193</ele>
        <time>2019-10-14T12:01:20Z</time>
      </trkpt>
      <trkpt lat="37.26071" lon="-8.08614">
        <ele>253.561</ele>
        <time>2019-10-14T12:01:40Z</time>
      </trkpt>
      <trkpt lat="37.26083" lon="-8.08609">
        <ele>254.143</ele>
        <time>2019-10-14T12:02:00Z</time>
      </trkpt>
      <trkpt lat="37.26096" lon="-8.08605">
        <ele>254.883</ele>
        <time>2019-10-14T12:02:20Z</time>
      </trkpt>
      <trkpt lat="37.26145" lon="-8.0859">
        <ele>261.075</ele>
        <time>2019-10-14T12:02:40Z</time>
      </trkpt>
      <trkpt lat="37.26179" lon="-8.08576">
        <ele>267.836</ele>
        <time>2019-10-14T12:03:00Z</time>
      </trkpt>
      <trkpt lat="37.26198" lon="-8.08563">
        <ele>270.898</ele>
        <time>2019-10-14T12:03:20Z</time>
      </trkpt>
      <trkpt lat="37.26216" lon="-8.08555">
        <ele>272.678</ele>
        <time>2019-10-14T12:03:40Z</time>
      </trkpt>
      <trkpt lat="37.26225" lon="-8.08553">
        <ele>273.483</ele>
        <time>2019-10-14T12:04:00Z</time>
      </trkpt>
      <trkpt lat="37.2626" lon="-8.08547">
        <ele>276.025</ele>
        <time>2019-10-14T12:04:20Z</time>
      </trkpt>
      <trkpt lat="37.26272" lon="-8.08541">
        <ele>276.417</ele>
        <time>2019-10-14T12:04:40Z</time>
      </trkpt>
      <trkpt lat="37.2632" lon="-8.08515">
        <ele>277.208</ele>
        <time>2019-10-14T12:05:00Z</time>
      </trkpt>
      <trkpt lat="37.26354" lon="-8.08497">
        <ele>281.152</ele>
        <time>2019-10-14T12:05:20Z</time>
      </trkpt>
      <trkpt lat="37.26385" lon="-8.0848">
        <ele>286.97</ele>
        <time>2019-10-14T12:05:40Z</time>
      </trkpt>
      <trkpt lat="37.26427" lon="-8.08466">
        <ele>290.442</ele>
        <time>2019-10-14T12:06:00Z</time>
      </trkpt>
      <trkpt lat="37.26438" lon="-8.08465">
        <ele>290.862</ele>
        <time>2019-10-14T12:06:20Z</time>
      </trkpt>
      <trkpt lat="37.26449" lon="-8.08465">
        <ele>291.024</ele>
        <time>2019-10-14T12:06:40Z</time>
      </trkpt>
      <trkpt lat="37.26543" lon="-8.08461">
        <ele>279.295</ele>
        <time>2019-10-14T12:07:00Z</time>
      </trkpt>
      <trkpt lat="37.26556" lon="-8.08462">
        <ele>277.777</ele>
        <time>2019-10-14T12:07:20Z</time>
      </trkpt>
      <trkpt lat="37.2657" lon="-8.08467">
        <ele>275.327</ele>
        <time>2019-10-14T12:07:40Z</time>
      </trkpt>
      <trkpt lat="37.26584" lon="-8.08474">
        <ele>273.224</ele>
        <time>2019-10-14T12:08:00Z</time>
      </trkpt>
      <trkpt lat="37.26597" lon="-8.08482">
        <ele>271.904</ele>
        <time>2019-10-14T12:08:20Z</time>
      </trkpt>
      <trkpt lat="37.26625" lon="-8.08499">
        <ele>271.314</ele>
        <time>2019-10-14T12:08:40Z</time>
      </trkpt>
      <trkpt lat="37.26657" lon="-8.08517">
        <ele>271.108</ele>
        <time>2019-10-14T12:09:00Z</time>
      </trkpt>
      <trkpt lat="37.26672" lon="-8.08524">
        <ele>270.766</ele>
        <time>2019-10-14T12:09:20Z</time>
      </trkpt>
      <trkpt lat="37.26676" lon="-8.08524">
        <ele>270.554</ele>
        <time>2019-10-14T12:09:40Z</time>
      </trkpt>
      <trkpt lat="37.26679" lon="-8.0852">
        <ele>270.216</ele>
        <time>2019-10-14T12:10:00Z</time>
      </trkpt>
      <trkpt lat="37.2668" lon="-8.08515">
        <ele>269.816</ele>
        <time>2019-10-14T12:10:20Z</time>
      </trkpt>
      <trkpt lat="37.26677" lon="-8.08506">
        <ele>269.528</ele>
        <time>2019-10-14T12:10:40Z</time>
      </trkpt>
      <trkpt lat="37.26673" lon="-8.08494">
        <ele>269.249</ele>
        <time>2019-10-14T12:11:00Z</time>
      </trkpt>
      <trkpt lat="37.2665" lon="-8.08425">
        <ele>266.641</ele>
        <time>2019-10-14T12:11:20Z</time>
      </trkpt>
      <trkpt lat="37.26644" lon="-8.08407">
        <ele>266.751</ele>
        <time>2019-10-14T12:11:40Z</time>
      </trkpt>
      <trkpt lat="37.26644" lon="-8.08399">
        <ele>267.077</ele>
        <time>2019-10-14T12:12:00Z</time>
      </trkpt>
      <trkpt lat="37.26647" lon="-8.08393">
        <ele>267.461</ele>
        <time>2019-10-14T12:12:20Z</time>
      </trkpt>
      <trkpt lat="37.26653" lon="-8.08387">
        <ele>268.127</ele>
        <time>2019-10-14T12:12:40Z</time>
      </trkpt>
      <trkpt lat="37.26663" lon="-8.0838">
        <ele>268.808</ele>
        <time>2019-10-14T12:13:00Z</time>
      </trkpt>
      <trkpt lat="37.26673" lon="-8.08372">
        <ele>269.051</ele>
        <time>2019-10-14T12:13:20Z</time>
      </trkpt>
      <trkpt lat="37.26684" lon="-8.08361">
        <ele>269.089</ele>
        <time>2019-10-14T12:13:40Z</time>
      </trkpt>
      <trkpt lat="37.26696" lon="-8.08347">
        <ele>269.051</ele>
        <time>2019-10-14T12:14:00Z</time>
      </trkpt>
      <trkpt lat="37.26708" lon="-8.08331">
        <ele>269.021</ele>
        <time>2019-10-14T12:14:20Z</time>
      </trkpt>
      <trkpt lat="37.26718" lon="-8.08315">
        <ele>269.683</ele>
        <time>2019-10-14T12:14:40Z</time>
      </trkpt>
      <trkpt lat="37.26729" lon="-8.083">
        <ele>270.964</ele>
        <time>2019-10-14T12:15:00Z</time>
      </trkpt>
      <trkpt lat="37.2674" lon="-8.08287">
        <ele>272.616</ele>
        <time>2019-10-14T12:15:20Z</time>
      </trkpt>
      <trkpt lat="37.26752" lon="-8.08275">
        <ele>274.216</ele>
        <time>2019-10-14T12:15:40Z</time>
      </trkpt>
      <trkpt lat="37.26785" lon="-8.0824">
        <ele>276.737</ele>
        <time>2019-10-14T12:16:00Z</time>
      </trkpt>
      <trkpt lat="37.26793" lon="-8.08227">
        <ele>276.849</ele>
        <time>2019-10-14T12:16:20Z</time>
      </trkpt>
      <trkpt lat="37.2683" lon="-8.08164">
        <ele>275.713</ele>
        <time>2019-10-14T12:16:40Z</time>
      </trkpt>
      <trkpt lat="37.26838" lon="-8.08157">
        <ele>276.008</ele>
        <time>2019-10-14T12:17:00Z</time>
      </trkpt>
      <trkpt lat="37.26848" lon="-8.08155">
        <ele>276.637</ele>
        <time>2019-10-14T12:17:20Z</time>
      </trkpt>
      <trkpt lat="37.2686" lon="-8.08155">
        <ele>277.515</ele>
        <time>2019-10-14T12:17:40Z</time>
      </trkpt>
      <trkpt lat="37.26873" lon="-8.08155">
        <ele>279.077</ele>
        <time>2019-10-14T12:18:00Z</time>
      </trkpt>
      <trkpt lat="37.26886" lon="-8.08154">
        <ele>280.647</ele>
        <time>2019-10-14T12:18:20Z</time>
      </trkpt>
      <trkpt lat="37.2691" lon="-8.08149">
        <ele>282.529</ele>
        <time>2019-10-14T12:18:40Z</time>
      </trkpt>
      <trkpt lat="37.2692" lon="-8.08143">
        <ele>283.06</ele>
        <time>2019-10-14T12:19:00Z</time>
      </trkpt>
      <trkpt lat="37.26929" lon="-8.08133">
        <ele>282.612</ele>
        <time>2019-10-14T12:19:20Z</time>
      </trkpt>
      <trkpt lat="37.26947" lon="-8.08111">
        <ele>281.262</ele>
        <time>2019-10-14T12:19:40Z</time>
      </trkpt>
      <trkpt lat="37.26964" lon="-8.08089">
        <ele>281.689</ele>
        <time>2019-10-14T12:20:00Z</time>
      </trkpt>
      <trkpt lat="37.2697" lon="-8.08074">
        <ele>282.206</ele>
        <time>2019-10-14T12:20:20Z</time>
      </trkpt>
      <trkpt lat="37.26974" lon="-8.08057">
        <ele>283.126</ele>
        <time>2019-10-14T12:20:40Z</time>
      </trkpt>
      <trkpt lat="37.26987" lon="-8.08009">
        <ele>286.608</ele>
        <time>2019-10-14T12:21:00Z</time>
      </trkpt>
      <trkpt lat="37.26994" lon="-8.07995">
        <ele>287.572</ele>
        <time>2019-10-14T12:21:20Z</time>
      </trkpt>
      <trkpt lat="37.27002" lon="-8.07981">
        <ele>288.88</ele>
        <time>2019-10-14T12:21:40Z</time>
      </trkpt>
      <trkpt lat="37.27008" lon="-8.07965">
        <ele>289.962</ele>
        <time>2019-10-14T12:22:00Z</time>
      </trkpt>
      <trkpt lat="37.27012" lon="-8.07949">
        <ele>291.122</ele>
        <time>2019-10-14T12:22:20Z</time>
      </trkpt>
      <trkpt lat="37.27016" lon="-8.07935">
        <ele>292.254</ele>
        <time>2019-10-14T12:22:40Z</time>
      </trkpt>
      <trkpt lat="37.2702" lon="-8.07924">
        <ele>293.125</ele>
        <time>2019-10-14T12:23:00Z</time>
      </trkpt>
      <trkpt lat="37.27022" lon="-8.07917">
        <ele>293.687</ele>
        <time>2019-10-14T12:23:20Z</time>
      </trkpt>
      <trkpt lat="37.27023" lon="-8.07912">
        <ele>293.517</ele>
        <time>2019-10-14T12:23:40Z</time>
      </trkpt>
      <trkpt lat="37.27021" lon="-8.07908">
        <ele>293.463</ele>
        <time>2019-10-14T12:24:00Z</time>
      </trkpt>
      <trkpt lat="37.2702" lon="-8.07903">
        <ele>293.444</ele>
        <time>2019-10-14T12:24:20Z</time>
      </trkpt>
      <trkpt lat="37.27017" lon="-8.07898">
        <ele>293.318</ele>
        <time>2019-10-14T12:24:40Z</time>
      </trkpt>
      <trkpt lat="37.27012" lon="-8.07884">
        <ele>293.308</ele>
        <time>2019-10-14T12:25:00Z</time>
      </trkpt>
      <trkpt lat="37.27011" lon="-8.07879">
        <ele>293.15</ele>
        <time>2019-10-14T12:25:20Z</time>
      </trkpt>
      <trkpt lat="37.27013" lon="-8.07874">
        <ele>292.848</ele>
        <time>2019-10-14T12:25:40Z</time>
      </trkpt>
      <trkpt lat="37.27016" lon="-8.07869">
        <ele>292.37</ele>
        <time>2019-10-14T12:26:00Z</time>
      </trkpt>
      <trkpt lat="37.2702" lon="-8.07865">
        <ele>291.83</ele>
        <time>2019-10-14T12:26:20Z</time>
      </trkpt>
      <trkpt lat="37.27023" lon="-8.07857">
        <ele>291.122</ele>
        <time>2019-10-14T12:26:40Z</time>
      </trkpt>
      <trkpt lat="37.27024" lon="-8.07846">
        <ele>290.233</ele>
        <time>2019-10-14T12:27:00Z</time>
      </trkpt>
      <trkpt lat="37.27026" lon="-8.07833">
        <ele>289.165</ele>
        <time>2019-10-14T12:27:20Z</time>
      </trkpt>
      <trkpt lat="37.27026" lon="-8.07817">
        <ele>288.585</ele>
        <time>2019-10-14T12:27:40Z</time>
      </trkpt>
      <trkpt lat="37.27027" lon="-8.07783">
        <ele>287.294</ele>
        <time>2019-10-14T12:28:00Z</time>
      </trkpt>
      <trkpt lat="37.27029" lon="-8.07767">
        <ele>286.057</ele>
        <time>2019-10-14T12:28:20Z</time>
      </trkpt>
      <trkpt lat="37.27034" lon="-8.0775">
        <ele>284.922</ele>
        <time>2019-10-14T12:28:40Z</time>
      </trkpt>
      <trkpt lat="37.27045" lon="-8.07715">
        <ele>284.208</ele>
        <time>2019-10-14T12:29:00Z</time>
      </trkpt>
      <trkpt lat="37.27049" lon="-8.07708">
        <ele>284.993</ele>
        <time>2019-10-14T12:29:20Z</time>
      </trkpt>
      <trkpt lat="37.27054" lon="-8.07701">
        <ele>285.661</ele>
        <time>2019-10-14T12:29:40Z</time>
      </trkpt>
      <trkpt lat="37.27061" lon="-8.07695">
        <ele>286.493</ele>
        <time>2019-10-14T12:30:00Z</time>
      </trkpt>
      <trkpt lat="37.27069" lon="-8.07688">
        <ele>287.053</ele>
        <time>2019-10-14T12:30:20Z</time>
      </trkpt>
      <trkpt lat="37.27078" lon="-8.07682">
        <ele>287.685</ele>
        <time>2019-10-14T12:30:40Z</time>
      </trkpt>
      <trkpt lat="37.27088" lon="-8.07676">
        <ele>288.626</ele>
        <time>2019-10-14T12:31:00Z</time>
      </trkpt>
      <trkpt lat="37.27118" lon="-8.07665">
        <ele>291.788</ele>
        <time>2019-10-14T12:31:20Z</time>
      </trkpt>
      <trkpt lat="37.27127" lon="-8.07663">
        <ele>292.448</ele>
        <time>2019-10-14T12:31:40Z</time>
      </trkpt>
      <trkpt lat="37.27135" lon="-8.07664">
        <ele>293.195</ele>
        <time>2019-10-14T12:32:00Z</time>
      </trkpt>
      <trkpt lat="37.27144" lon="-8.07665">
        <ele>293.449</ele>
        <time>2019-10-14T12:32:20Z</time>
      </trkpt>
      <trkpt lat="37.27152" lon="-8.07667">
        <ele>293.523</ele>
        <time>2019-10-14T12:32:40Z</time>
      </trkpt>
      <trkpt lat="37.27162" lon="-8.07667">
        <ele>293.908</ele>
        <time>2019-10-14T12:33:00Z</time>
      </trkpt>
      <trkpt lat="37.27172" lon="-8.07667">
        <ele>295.113</ele>
        <time>2019-10-14T12:33:20Z</time>
      </trkpt>
      <trkpt lat="37.272" lon="-8.07668">
        <ele>301.351</ele>
        <time>2019-10-14T12:33:40Z</time>
      </trkpt>
      <trkpt lat="37.27209" lon="-8.0767">
        <ele>302.893</ele>
        <time>2019-10-14T12:34:00Z</time>
      </trkpt>
      <trkpt lat="37.27217" lon="-8.07674">
        <ele>304.073</ele>
        <time>2019-10-14T12:34:20Z</time>
      </trkpt>
      <trkpt lat="37.27226" lon="-8.07678">
        <ele>304.765</ele>
        <time>2019-10-14T12:34:40Z</time>
      </trkpt>
      <trkpt lat="37.27235" lon="-8.07682">
        <ele>305.576</ele>
        <time>2019-10-14T12:35:00Z</time>
      </trkpt>
      <trkpt lat="37.27244" lon="-8.07684">
        <ele>306.638</ele>
        <time>2019-10-14T12:35:20Z</time>
      </trkpt>
      <trkpt lat="37.27254" lon="-8.07685">
        <ele>307.688</ele>
        <time>2019-10-14T12:35:40Z</time>
      </trkpt>
      <trkpt lat="37.27284" lon="-8.07689">
        <ele>310.089</ele>
        <time>2019-10-14T12:36:00Z</time>
      </trkpt>
      <trkpt lat="37.27302" lon="-8.07693">
        <ele>311.806</ele>
        <time>2019-10-14T12:36:20Z</time>
      </trkpt>
      <trkpt lat="37.2731" lon="-8.07696">
        <ele>313.026</ele>
        <time>2019-10-14T12:36:40Z</time>
      </trkpt>
      <trkpt lat="37.27335" lon="-8.07709">
        <ele>317.608</ele>
        <time>2019-10-14T12:37:00Z</time>
      </trkpt>
      <trkpt lat="37.27344" lon="-8.07713">
        <ele>318.152</ele>
        <time>2019-10-14T12:37:20Z</time>
      </trkpt>
      <trkpt lat="37.27354" lon="-8.07716">
        <ele>318.57</ele>
        <time>2019-10-14T12:37:40Z</time>
      </trkpt>
      <trkpt lat="37.27376" lon="-8.07721">
        <ele>320.382</ele>
        <time>2019-10-14T12:38:00Z</time>
      </trkpt>
      <trkpt lat="37.27383" lon="-8.0772">
        <ele>321.432</ele>
        <time>2019-10-14T12:38:20Z</time>
      </trkpt>
      <trkpt lat="37.27391" lon="-8.07718">
        <ele>322.874</ele>
        <time>2019-10-14T12:38:40Z</time>
      </trkpt>
      <trkpt lat="37.27401" lon="-8.07714">
        <ele>324.745</ele>
        <time>2019-10-14T12:39:00Z</time>
      </trkpt>
      <trkpt lat="37.27422" lon="-8.07706">
        <ele>327.187</ele>
        <time>2019-10-14T12:39:20Z</time>
      </trkpt>
      <trkpt lat="37.27441" lon="-8.07699">
        <ele>326.967</ele>
        <time>2019-10-14T12:39:40Z</time>
      </trkpt>
      <trkpt lat="37.27448" lon="-8.07697">
        <ele>326.788</ele>
        <time>2019-10-14T12:40:00Z</time>
      </trkpt>
      <trkpt lat="37.27456" lon="-8.07697">
        <ele>326.624</ele>
        <time>2019-10-14T12:40:20Z</time>
      </trkpt>
      <trkpt lat="37.27466" lon="-8.07698">
        <ele>326.826</ele>
        <time>2019-10-14T12:40:40Z</time>
      </trkpt>
      <trkpt lat="37.27486" lon="-8.07699">
        <ele>327.408</ele>
        <time>2019-10-14T12:41:00Z</time>
      </trkpt>
      <trkpt lat="37.27503" lon="-8.077">
        <ele>327.442</ele>
        <time>2019-10-14T12:41:20Z</time>
      </trkpt>
      <trkpt lat="37.27509" lon="-8.07702">
        <ele>327.71</ele>
        <time>2019-10-14T12:41:40Z</time>
      </trkpt>
      <trkpt lat="37.27514" lon="-8.07707">
        <ele>328.722</ele>
        <time>2019-10-14T12:42:00Z</time>
      </trkpt>
      <trkpt lat="37.27519" lon="-8.07714">
        <ele>330.352</ele>
        <time>2019-10-14T12:42:20Z</time>
      </trkpt>
      <trkpt lat="37.27524" lon="-8.0772">
        <ele>331.634</ele>
        <time>2019-10-14T12:42:40Z</time>
      </trkpt>
      <trkpt lat="37.27531" lon="-8.07723">
        <ele>332.055</ele>
        <time>2019-10-14T12:43:00Z</time>
      </trkpt>
      <trkpt lat="37.27539" lon="-8.07724">
        <ele>331.587</ele>
        <time>2019-10-14T12:43:20Z</time>
      </trkpt>
      <trkpt lat="37.27546" lon="-8.07724">
        <ele>330.947</ele>
        <time>2019-10-14T12:43:40Z</time>
      </trkpt>
      <trkpt lat="37.27552" lon="-8.07725">
        <ele>330.623</ele>
        <time>2019-10-14T12:44:00Z</time>
      </trkpt>
      <trkpt lat="37.27557" lon="-8.07728">
        <ele>330.883</ele>
        <time>2019-10-14T12:44:20Z</time>
      </trkpt>
      <trkpt lat="37.27561" lon="-8.07731">
        <ele>331.311</ele>
        <time>2019-10-14T12:44:40Z</time>
      </trkpt>
      <trkpt lat="37.27566" lon="-8.07735">
        <ele>331.608</ele>
        <time>2019-10-14T12:45:00Z</time>
      </trkpt>
      <trkpt lat="37.27572" lon="-8.07739">
        <ele>331.716</ele>
        <time>2019-10-14T12:45:20Z</time>
      </trkpt>
      <trkpt lat="37.27584" lon="-8.07746">
        <ele>331.194</ele>
        <time>2019-10-14T12:45:40Z</time>
      </trkpt>
      <trkpt lat="37.2759" lon="-8.07749">
        <ele>330.936</ele>
        <time>2019-10-14T12:46:00Z</time>
      </trkpt>
      <trkpt lat="37.27596" lon="-8.07748">
        <ele>330.296</ele>
        <time>2019-10-14T12:46:20Z</time>
      </trkpt>
      <trkpt lat="37.276" lon="-8.07745">
        <ele>329.238</ele>
        <time>2019-10-14T12:46:40Z</time>
      </trkpt>
      <trkpt lat="37.27603" lon="-8.07743">
        <ele>328.319</ele>
        <time>2019-10-14T12:47:00Z</time>
      </trkpt>
      <trkpt lat="37.27605" lon="-8.07741">
        <ele>327.761</ele>
        <time>2019-10-14T12:47:20Z</time>
      </trkpt>
      <trkpt lat="37.2761" lon="-8.07739">
        <ele>326.761</ele>
        <time>2019-10-14T12:47:40Z</time>
      </trkpt>
      <trkpt lat="37.27609" lon="-8.07738">
        <ele>326.795</ele>
        <time>2019-10-14T12:48:00Z</time>
      </trkpt>
      <trkpt lat="37.27609" lon="-8.07737">
        <ele>326.549</ele>
        <time>2019-10-14T12:48:20Z</time>
      </trkpt>
      <trkpt lat="37.2761" lon="-8.07738">
        <ele>326.523</ele>
        <time>2019-10-14T12:48:40Z</time>
      </trkpt>
      <trkpt lat="37.27631" lon="-8.07747">
        <ele>326.208</ele>
        <time>2019-10-14T12:49:00Z</time>
      </trkpt>
      <trkpt lat="37.2765" lon="-8.07756">
        <ele>328.493</ele>
        <time>2019-10-14T12:49:20Z</time>
      </trkpt>
      <trkpt lat="37.27661" lon="-8.07758">
        <ele>328.971</ele>
        <time>2019-10-14T12:49:40Z</time>
      </trkpt>
      <trkpt lat="37.27719" lon="-8.07766">
        <ele>333.133</ele>
        <time>2019-10-14T12:50:00Z</time>
      </trkpt>
      <trkpt lat="37.27731" lon="-8.07765">
        <ele>332.593</ele>
        <time>2019-10-14T12:50:20Z</time>
      </trkpt>
      <trkpt lat="37.27749" lon="-8.07764">
        <ele>331.065</ele>
        <time>2019-10-14T12:50:40Z</time>
      </trkpt>
      <trkpt lat="37.27755" lon="-8.07766">
        <ele>330.546</ele>
        <time>2019-10-14T12:51:00Z</time>
      </trkpt>
      <trkpt lat="37.27761" lon="-8.0777">
        <ele>329.848</ele>
        <time>2019-10-14T12:51:20Z</time>
      </trkpt>
      <trkpt lat="37.27768" lon="-8.07776">
        <ele>328.828</ele>
        <time>2019-10-14T12:51:40Z</time>
      </trkpt>
      <trkpt lat="37.27776" lon="-8.07784">
        <ele>328.447</ele>
        <time>2019-10-14T12:52:00Z</time>
      </trkpt>
      <trkpt lat="37.27783" lon="-8.07793">
        <ele>328.929</ele>
        <time>2019-10-14T12:52:20Z</time>
      </trkpt>
      <trkpt lat="37.2779" lon="-8.07801">
        <ele>329.721</ele>
        <time>2019-10-14T12:52:40Z</time>
      </trkpt>
      <trkpt lat="37.27799" lon="-8.07818">
        <ele>331.108</ele>
        <time>2019-10-14T12:53:00Z</time>
      </trkpt>
      <trkpt lat="37.27802" lon="-8.07826">
        <ele>331.638</ele>
        <time>2019-10-14T12:53:20Z</time>
      </trkpt>
      <trkpt lat="37.27802" lon="-8.07835">
        <ele>331.836</ele>
        <time>2019-10-14T12:53:40Z</time>
      </trkpt>
      <trkpt lat="37.27801" lon="-8.07845">
        <ele>331.178</ele>
        <time>2019-10-14T12:54:00Z</time>
      </trkpt>
      <trkpt lat="37.278" lon="-8.07857">
        <ele>330.428</ele>
        <time>2019-10-14T12:54:20Z</time>
      </trkpt>
      <trkpt lat="37.27801" lon="-8.07868">
        <ele>328.99</ele>
        <time>2019-10-14T12:54:40Z</time>
      </trkpt>
      <trkpt lat="37.27801" lon="-8.07877">
        <ele>327.341</ele>
        <time>2019-10-14T12:55:00Z</time>
      </trkpt>
      <trkpt lat="37.27803" lon="-8.07883">
        <ele>326.133</ele>
        <time>2019-10-14T12:55:20Z</time>
      </trkpt>
      <trkpt lat="37.27805" lon="-8.07888">
        <ele>325.263</ele>
        <time>2019-10-14T12:55:40Z</time>
      </trkpt>
      <trkpt lat="37.27809" lon="-8.07891">
        <ele>325.353</ele>
        <time>2019-10-14T12:56:00Z</time>
      </trkpt>
      <trkpt lat="37.27813" lon="-8.07893">
        <ele>325.804</ele>
        <time>2019-10-14T12:56:20Z</time>
      </trkpt>
      <trkpt lat="37.27819" lon="-8.07893">
        <ele>326.414</ele>
        <time>2019-10-14T12:56:40Z</time>
      </trkpt>
      <trkpt lat="37.27826" lon="-8.07894">
        <ele>327.308</ele>
        <time>2019-10-14T12:57:00Z</time>
      </trkpt>
      <trkpt lat="37.2786" lon="-8.07902">
        <ele>327.629</ele>
        <time>2019-10-14T12:57:20Z</time>
      </trkpt>
      <trkpt lat="37.27867" lon="-8.07902">
        <ele>327.127</ele>
        <time>2019-10-14T12:57:40Z</time>
      </trkpt>
      <trkpt lat="37.27876" lon="-8.079">
        <ele>326.739</ele>
        <time>2019-10-14T12:58:00Z</time>
      </trkpt>
      <trkpt lat="37.27914" lon="-8.07892">
        <ele>322.599</ele>
        <time>2019-10-14T12:58:20Z</time>
      </trkpt>
      <trkpt lat="37.27918" lon="-8.07892">
        <ele>322.171</ele>
        <time>2019-10-14T12:58:40Z</time>
      </trkpt>
      <trkpt lat="37.27922" lon="-8.07894">
        <ele>322.082</ele>
        <time>2019-10-14T12:59:00Z</time>
      </trkpt>
      <trkpt lat="37.27926" lon="-8.07897">
        <ele>322.014</ele>
        <time>2019-10-14T12:59:20Z</time>
      </trkpt>
      <trkpt lat="37.27929" lon="-8.079">
        <ele>322.044</ele>
        <time>2019-10-14T12:59:40Z</time>
      </trkpt>
      <trkpt lat="37.27933" lon="-8.07902">
        <ele>321.945</ele>
        <time>2019-10-14T13:00:00Z</time>
      </trkpt>
      <trkpt lat="37.27933" lon="-8.07904">
        <ele>321.947</ele>
        <time>2019-10-14T13:00:20Z</time>
      </trkpt>
      <trkpt lat="37.27934" lon="-8.07905">
        <ele>322.011</ele>
        <time>2019-10-14T13:00:40Z</time>
      </trkpt>
      <trkpt lat="37.27934" lon="-8.07906">
        <ele>322.008</ele>
        <time>2019-10-14T13:01:00Z</time>
      </trkpt>
      <trkpt lat="37.27933" lon="-8.07907">
        <ele>322.138</ele>
        <time>2019-10-14T13:01:20Z</time>
      </trkpt>
      <trkpt lat="37.27934" lon="-8.07904">
        <ele>321.926</ele>
        <time>2019-10-14T13:01:40Z</time>
      </trkpt>
      <trkpt lat="37.27934" lon="-8.07904">
        <ele>321.928</ele>
        <time>2019-10-14T13:02:00Z</time>
      </trkpt>
      <trkpt lat="37.27934" lon="-8.07905">
        <ele>322.098</ele>
        <time>2019-10-14T13:02:20Z</time>
      </trkpt>
      <trkpt lat="37.27932" lon="-8.07905">
        <ele>322.05</ele>
        <time>2019-10-14T13:02:40Z</time>
      </trkpt>
      <trkpt lat="37.27932" lon="-8.07904">
        <ele>322.031</ele>
        <time>2019-10-14T13:03:00Z</time>
      </trkpt>
      <trkpt lat="37.27933" lon="-8.07897">
        <ele>321.793</ele>
        <time>2019-10-14T13:03:20Z</time>
      </trkpt>
      <trkpt lat="37.27935" lon="-8.07895">
        <ele>321.673</ele>
        <time>2019-10-14T13:03:40Z</time>
      </trkpt>
      <trkpt lat="37.2794" lon="-8.07894">
        <ele>321.431</ele>
        <time>2019-10-14T13:04:00Z</time>
      </trkpt>
      <trkpt lat="37.27954" lon="-8.07893">
        <ele>322.261</ele>
        <time>2019-10-14T13:04:20Z</time>
      </trkpt>
      <trkpt lat="37.27966" lon="-8.0789">
        <ele>323.307</ele>
        <time>2019-10-14T13:04:40Z</time>
      </trkpt>
      <trkpt lat="37.27978" lon="-8.07885">
        <ele>324.708</ele>
        <time>2019-10-14T13:05:00Z</time>
      </trkpt>
      <trkpt lat="37.28005" lon="-8.07873">
        <ele>327.127</ele>
        <time>2019-10-14T13:05:20Z</time>
      </trkpt>
      <trkpt lat="37.28017" lon="-8.07868">
        <ele>328.455</ele>
        <time>2019-10-14T13:05:40Z</time>
      </trkpt>
      <trkpt lat="37.28057" lon="-8.0785">
        <ele>331.257</ele>
        <time>2019-10-14T13:06:00Z</time>
      </trkpt>
      <trkpt lat="37.28065" lon="-8.07844">
        <ele>331.497</ele>
        <time>2019-10-14T13:06:20Z</time>
      </trkpt>
      <trkpt lat="37.28072" lon="-8.07835">
        <ele>331.299</ele>
        <time>2019-10-14T13:06:40Z</time>
      </trkpt>
      <trkpt lat="37.28081" lon="-8.07827">
        <ele>331.39</ele>
        <time>2019-10-14T13:07:00Z</time>
      </trkpt>
      <trkpt lat="37.28091" lon="-8.07821">
        <ele>332.622</ele>
        <time>2019-10-14T13:07:20Z</time>
      </trkpt>
      <trkpt lat="37.28102" lon="-8.07816">
        <ele>333.622</ele>
        <time>2019-10-14T13:07:40Z</time>
      </trkpt>
      <trkpt lat="37.28113" lon="-8.07813">
        <ele>334.361</ele>
        <time>2019-10-14T13:08:00Z</time>
      </trkpt>
      <trkpt lat="37.28126" lon="-8.07811">
        <ele>335.221</ele>
        <time>2019-10-14T13:08:20Z</time>
      </trkpt>
      <trkpt lat="37.2814" lon="-8.0781">
        <ele>335.913</ele>
        <time>2019-10-14T13:08:40Z</time>
      </trkpt>
      <trkpt lat="37.28184" lon="-8.07805">
        <ele>338.108</ele>
        <time>2019-10-14T13:09:00Z</time>
      </trkpt>
      <trkpt lat="37.28221" lon="-8.07805">
        <ele>337.26</ele>
        <time>2019-10-14T13:09:20Z</time>
      </trkpt>
      <trkpt lat="37.28232" lon="-8.07805">
        <ele>336.988</ele>
        <time>2019-10-14T13:09:40Z</time>
      </trkpt>
      <trkpt lat="37.28242" lon="-8.07803">
        <ele>336.89</ele>
        <time>2019-10-14T13:10:00Z</time>
      </trkpt>
      <trkpt lat="37.28293" lon="-8.07794">
        <ele>342.54</ele>
        <time>2019-10-14T13:10:20Z</time>
      </trkpt>
      <trkpt lat="37.28308" lon="-8.07794">
        <ele>345.232</ele>
        <time>2019-10-14T13:10:40Z</time>
      </trkpt>
      <trkpt lat="37.28321" lon="-8.07796">
        <ele>347.393</ele>
        <time>2019-10-14T13:11:00Z</time>
      </trkpt>
      <trkpt lat="37.28332" lon="-8.07798">
        <ele>348.975</ele>
        <time>2019-10-14T13:11:20Z</time>
      </trkpt>
      <trkpt lat="37.28342" lon="-8.078">
        <ele>349.935</ele>
        <time>2019-10-14T13:11:40Z</time>
      </trkpt>
      <trkpt lat="37.28352" lon="-8.078">
        <ele>351.122</ele>
        <time>2019-10-14T13:12:00Z</time>
      </trkpt>
      <trkpt lat="37.28364" lon="-8.07799">
        <ele>352.662</ele>
        <time>2019-10-14T13:12:20Z</time>
      </trkpt>
      <trkpt lat="37.28378" lon="-8.07798">
        <ele>353.808</ele>
        <time>2019-10-14T13:12:40Z</time>
      </trkpt>
      <trkpt lat="37.28407" lon="-8.07796">
        <ele>357.608</ele>
        <time>2019-10-14T13:13:00Z</time>
      </trkpt>
      <trkpt lat="37.28448" lon="-8.07789">
        <ele>363.316</ele>
        <time>2019-10-14T13:13:20Z</time>
      </trkpt>
      <trkpt lat="37.2847" lon="-8.07785">
        <ele>364.884</ele>
        <time>2019-10-14T13:13:40Z</time>
      </trkpt>
      <trkpt lat="37.28482" lon="-8.07786">
        <ele>365.896</ele>
        <time>2019-10-14T13:14:00Z</time>
      </trkpt>
      <trkpt lat="37.28501" lon="-8.07788">
        <ele>367.286</ele>
        <time>2019-10-14T13:14:20Z</time>
      </trkpt>
      <trkpt lat="37.28511" lon="-8.07786">
        <ele>367.718</ele>
        <time>2019-10-14T13:14:40Z</time>
      </trkpt>
      <trkpt lat="37.28521" lon="-8.07783">
        <ele>368.049</ele>
        <time>2019-10-14T13:15:00Z</time>
      </trkpt>
      <trkpt lat="37.28532" lon="-8.07778">
        <ele>368.621</ele>
        <time>2019-10-14T13:15:20Z</time>
      </trkpt>
      <trkpt lat="37.28552" lon="-8.07772">
        <ele>372.491</ele>
        <time>2019-10-14T13:15:40Z</time>
      </trkpt>
      <trkpt lat="37.28564" lon="-8.07771">
        <ele>374.683</ele>
        <time>2019-10-14T13:16:00Z</time>
      </trkpt>
      <trkpt lat="37.28576" lon="-8.07773">
        <ele>377.325</ele>
        <time>2019-10-14T13:16:20Z</time>
      </trkpt>
      <trkpt lat="37.28602" lon="-8.07778">
        <ele>381.717</ele>
        <time>2019-10-14T13:16:40Z</time>
      </trkpt>
      <trkpt lat="37.28612" lon="-8.07781">
        <ele>383.308</ele>
        <time>2019-10-14T13:17:00Z</time>
      </trkpt>
      <trkpt lat="37.28619" lon="-8.07786">
        <ele>384.212</ele>
        <time>2019-10-14T13:17:20Z</time>
      </trkpt>
      <trkpt lat="37.28626" lon="-8.07792">
        <ele>384.84</ele>
        <time>2019-10-14T13:17:40Z</time>
      </trkpt>
      <trkpt lat="37.28633" lon="-8.07799">
        <ele>385.142</ele>
        <time>2019-10-14T13:18:00Z</time>
      </trkpt>
      <trkpt lat="37.2864" lon="-8.07807">
        <ele>385.222</ele>
        <time>2019-10-14T13:18:20Z</time>
      </trkpt>
      <trkpt lat="37.28648" lon="-8.07814">
        <ele>386.254</ele>
        <time>2019-10-14T13:18:40Z</time>
      </trkpt>
      <trkpt lat="37.28655" lon="-8.07818">
        <ele>386.795</ele>
        <time>2019-10-14T13:19:00Z</time>
      </trkpt>
      <trkpt lat="37.28663" lon="-8.07821">
        <ele>386.927</ele>
        <time>2019-10-14T13:19:20Z</time>
      </trkpt>
      <trkpt lat="37.28671" lon="-8.07823">
        <ele>386.217</ele>
        <time>2019-10-14T13:19:40Z</time>
      </trkpt>
      <trkpt lat="37.2868" lon="-8.07824">
        <ele>384.618</ele>
        <time>2019-10-14T13:20:00Z</time>
      </trkpt>
      <trkpt lat="37.2869" lon="-8.07825">
        <ele>382.898</ele>
        <time>2019-10-14T13:20:20Z</time>
      </trkpt>
      <trkpt lat="37.28707" lon="-8.07825">
        <ele>378.017</ele>
        <time>2019-10-14T13:20:40Z</time>
      </trkpt>
      <trkpt lat="37.28721" lon="-8.07824">
        <ele>374.208</ele>
        <time>2019-10-14T13:21:00Z</time>
      </trkpt>
      <trkpt lat="37.28725" lon="-8.07824">
        <ele>373.525</ele>
        <time>2019-10-14T13:21:20Z</time>
      </trkpt>
      <trkpt lat="37.28728" lon="-8.07826">
        <ele>372.963</ele>
        <time>2019-10-14T13:21:40Z</time>
      </trkpt>
      <trkpt lat="37.28732" lon="-8.07831">
        <ele>371.845</ele>
        <time>2019-10-14T13:22:00Z</time>
      </trkpt>
      <trkpt lat="37.28745" lon="-8.07845">
        <ele>370.295</ele>
        <time>2019-10-14T13:22:20Z</time>
      </trkpt>
      <trkpt lat="37.28754" lon="-8.07851">
        <ele>369.457</ele>
        <time>2019-10-14T13:22:40Z</time>
      </trkpt>
      <trkpt lat="37.28773" lon="-8.07862">
        <ele>369.078</ele>
        <time>2019-10-14T13:23:00Z</time>
      </trkpt>
      <trkpt lat="37.28783" lon="-8.0787">
        <ele>368.62</ele>
        <time>2019-10-14T13:23:20Z</time>
      </trkpt>
      <trkpt lat="37.28792" lon="-8.0788">
        <ele>368.02</ele>
        <time>2019-10-14T13:23:40Z</time>
      </trkpt>
      <trkpt lat="37.288" lon="-8.07891">
        <ele>366.753</ele>
        <time>2019-10-14T13:24:00Z</time>
      </trkpt>
      <trkpt lat="37.28853" lon="-8.07956">
        <ele>354.104</ele>
        <time>2019-10-14T13:24:20Z</time>
      </trkpt>
      <trkpt lat="37.28868" lon="-8.07973">
        <ele>350.514</ele>
        <time>2019-10-14T13:24:40Z</time>
      </trkpt>
      <trkpt lat="37.28867" lon="-8.07973">
        <ele>350.408</ele>
        <time>2019-10-14T13:25:00Z</time>
      </trkpt>
      <trkpt lat="37.28868" lon="-8.07971">
        <ele>350.729</ele>
        <time>2019-10-14T13:25:20Z</time>
      </trkpt>
      <trkpt lat="37.28872" lon="-8.07975">
        <ele>350.717</ele>
        <time>2019-10-14T13:25:40Z</time>
      </trkpt>
      <trkpt lat="37.28868" lon="-8.07975">
        <ele>350.519</ele>
        <time>2019-10-14T13:26:00Z</time>
      </trkpt>
      <trkpt lat="37.28869" lon="-8.07976">
        <ele>350.529</ele>
        <time>2019-10-14T13:26:20Z</time>
      </trkpt>
      <trkpt lat="37.2887" lon="-8.07975">
        <ele>350.651</ele>
        <time>2019-10-14T13:26:40Z</time>
      </trkpt>
      <trkpt lat="37.2887" lon="-8.07974">
        <ele>350.692</ele>
        <time>2019-10-14T13:27:00Z</time>
      </trkpt>
      <trkpt lat="37.28869" lon="-8.07973">
        <ele>350.574</ele>
        <time>2019-10-14T13:27:20Z</time>
      </trkpt>
      <trkpt lat="37.28865" lon="-8.07972">
        <ele>350.444</ele>
        <time>2019-10-14T13:27:40Z</time>
      </trkpt>
      <trkpt lat="37.28866" lon="-8.07973">
        <ele>350.437</ele>
        <time>2019-10-14T13:28:00Z</time>
      </trkpt>
      <trkpt lat="37.28869" lon="-8.07974">
        <ele>350.549</ele>
        <time>2019-10-14T13:28:20Z</time>
      </trkpt>
      <trkpt lat="37.2887" lon="-8.07976">
        <ele>350.613</ele>
        <time>2019-10-14T13:28:40Z</time>
      </trkpt>
      <trkpt lat="37.28871" lon="-8.07976">
        <ele>350.608</ele>
        <time>2019-10-14T13:29:00Z</time>
      </trkpt>
      <trkpt lat="37.28871" lon="-8.07974">
        <ele>350.687</ele>
        <time>2019-10-14T13:29:20Z</time>
      </trkpt>
      <trkpt lat="37.2887" lon="-8.07976">
        <ele>350.695</ele>
        <time>2019-10-14T13:29:40Z</time>
      </trkpt>
      <trkpt lat="37.2887" lon="-8.07974">
        <ele>350.657</ele>
        <time>2019-10-14T13:30:00Z</time>
      </trkpt>
      <trkpt lat="37.28869" lon="-8.07974">
        <ele>350.547</ele>
        <time>2019-10-14T13:30:20Z</time>
      </trkpt>
      <trkpt lat="37.2887" lon="-8.07972">
        <ele>350.619</ele>
        <time>2019-10-14T13:30:40Z</time>
      </trkpt>
      <trkpt lat="37.28869" lon="-8.07972">
        <ele>350.68</ele>
        <time>2019-10-14T13:31:00Z</time>
      </trkpt>
      <trkpt lat="37.28871" lon="-8.07973">
        <ele>350.742</ele>
        <time>2019-10-14T13:31:20Z</time>
      </trkpt>
      <trkpt lat="37.2887" lon="-8.07973">
        <ele>350.612</ele>
        <time>2019-10-14T13:31:40Z</time>
      </trkpt>
      <trkpt lat="37.2887" lon="-8.07973">
        <ele>350.615</ele>
        <time>2019-10-14T13:32:00Z</time>
      </trkpt>
      <trkpt lat="37.2887" lon="-8.07974">
        <ele>350.665</ele>
        <time>2019-10-14T13:32:20Z</time>
      </trkpt>
      <trkpt lat="37.28868" lon="-8.07974">
        <ele>350.511</ele>
        <time>2019-10-14T13:32:40Z</time>
      </trkpt>
      <trkpt lat="37.2887" lon="-8.07974">
        <ele>350.608</ele>
        <time>2019-10-14T13:33:00Z</time>
      </trkpt>
      <trkpt lat="37.28871" lon="-8.07974">
        <ele>350.635</ele>
        <time>2019-10-14T13:33:20Z</time>
      </trkpt>
      <trkpt lat="37.28879" lon="-8.07985">
        <ele>350.373</ele>
        <time>2019-10-14T13:33:40Z</time>
      </trkpt>
      <trkpt lat="37.28903" lon="-8.08007">
        <ele>350.225</ele>
        <time>2019-10-14T13:34:00Z</time>
      </trkpt>
      <trkpt lat="37.28914" lon="-8.08018">
        <ele>350.875</ele>
        <time>2019-10-14T13:34:20Z</time>
      </trkpt>
      <trkpt lat="37.28919" lon="-8.08025">
        <ele>350.837</ele>
        <time>2019-10-14T13:34:40Z</time>
      </trkpt>
      <trkpt lat="37.28923" lon="-8.08033">
        <ele>351.358</ele>
        <time>2019-10-14T13:35:00Z</time>
      </trkpt>
      <trkpt lat="37.28925" lon="-8.08042">
        <ele>351.75</ele>
        <time>2019-10-14T13:35:20Z</time>
      </trkpt>
      <trkpt lat="37.28926" lon="-8.08052">
        <ele>351.75</ele>
        <time>2019-10-14T13:35:40Z</time>
      </trkpt>
      <trkpt lat="37.28926" lon="-8.08063">
        <ele>351.112</ele>
        <time>2019-10-14T13:36:00Z</time>
      </trkpt>
      <trkpt lat="37.28925" lon="-8.08074">
        <ele>350.232</ele>
        <time>2019-10-14T13:36:20Z</time>
      </trkpt>
      <trkpt lat="37.28925" lon="-8.08084">
        <ele>349.505</ele>
        <time>2019-10-14T13:36:40Z</time>
      </trkpt>
      <trkpt lat="37.28927" lon="-8.08094">
        <ele>348.208</ele>
        <time>2019-10-14T13:37:00Z</time>
      </trkpt>
      <trkpt lat="37.2893" lon="-8.08104">
        <ele>347.075</ele>
        <time>2019-10-14T13:37:20Z</time>
      </trkpt>
      <trkpt lat="37.28934" lon="-8.08115">
        <ele>346.293</ele>
        <time>2019-10-14T13:37:40Z</time>
      </trkpt>
      <trkpt lat="37.28938" lon="-8.08124">
        <ele>346.045</ele>
        <time>2019-10-14T13:38:00Z</time>
      </trkpt>
      <trkpt lat="37.28944" lon="-8.08132">
        <ele>345.775</ele>
        <time>2019-10-14T13:38:20Z</time>
      </trkpt>
      <trkpt lat="37.2895" lon="-8.08139">
        <ele>345.877</ele>
        <time>2019-10-14T13:38:40Z</time>
      </trkpt>
      <trkpt lat="37.28958" lon="-8.08146">
        <ele>346.248</ele>
        <time>2019-10-14T13:39:00Z</time>
      </trkpt>
      <trkpt lat="37.28978" lon="-8.08169">
        <ele>344.62</ele>
        <time>2019-10-14T13:39:20Z</time>
      </trkpt>
      <trkpt lat="37.28994" lon="-8.08186">
        <ele>340.57</ele>
        <time>2019-10-14T13:39:40Z</time>
      </trkpt>
      <trkpt lat="37.28997" lon="-8.08191">
        <ele>339.037</ele>
        <time>2019-10-14T13:40:00Z</time>
      </trkpt>
      <trkpt lat="37.28999" lon="-8.08198">
        <ele>337.749</ele>
        <time>2019-10-14T13:40:20Z</time>
      </trkpt>
      <trkpt lat="37.29" lon="-8.08206">
        <ele>336.713</ele>
        <time>2019-10-14T13:40:40Z</time>
      </trkpt>
      <trkpt lat="37.28999" lon="-8.08216">
        <ele>335.808</ele>
        <time>2019-10-14T13:41:00Z</time>
      </trkpt>
      <trkpt lat="37.28998" lon="-8.08225">
        <ele>335.017</ele>
        <time>2019-10-14T13:41:20Z</time>
      </trkpt>
      <trkpt lat="37.28998" lon="-8.08233">
        <ele>334.565</ele>
        <time>2019-10-14T13:41:40Z</time>
      </trkpt>
      <trkpt lat="37.28998" lon="-8.08238">
        <ele>334.247</ele>
        <time>2019-10-14T13:42:00Z</time>
      </trkpt>
      <trkpt lat="37.28999" lon="-8.0824">
        <ele>333.947</ele>
        <time>2019-10-14T13:42:20Z</time>
      </trkpt>
      <trkpt lat="37.29001" lon="-8.0824">
        <ele>333.969</ele>
        <time>2019-10-14T13:42:40Z</time>
      </trkpt>
      <trkpt lat="37.29003" lon="-8.08239">
        <ele>334.26</ele>
        <time>2019-10-14T13:43:00Z</time>
      </trkpt>
      <trkpt lat="37.29004" lon="-8.08236">
        <ele>334.552</ele>
        <time>2019-10-14T13:43:20Z</time>
      </trkpt>
      <trkpt lat="37.29006" lon="-8.08233">
        <ele>335.092</ele>
        <time>2019-10-14T13:43:40Z</time>
      </trkpt>
      <trkpt lat="37.29008" lon="-8.0823">
        <ele>335.489</ele>
        <time>2019-10-14T13:44:00Z</time>
      </trkpt>
      <trkpt lat="37.29011" lon="-8.08229">
        <ele>335.706</ele>
        <time>2019-10-14T13:44:20Z</time>
      </trkpt>
      <trkpt lat="37.29013" lon="-8.0823">
        <ele>336.026</ele>
        <time>2019-10-14T13:44:40Z</time>
      </trkpt>
      <trkpt lat="37.29015" lon="-8.08231">
        <ele>336.208</ele>
        <time>2019-10-14T13:45:00Z</time>
      </trkpt>
      <trkpt lat="37.29017" lon="-8.08234">
        <ele>336.272</ele>
        <time>2019-10-14T13:45:20Z</time>
      </trkpt>
      <trkpt lat="37.29018" lon="-8.08238">
        <ele>336.22</ele>
        <time>2019-10-14T13:45:40Z</time>
      </trkpt>
      <trkpt lat="37.29018" lon="-8.08242">
        <ele>336.052</ele>
        <time>2019-10-14T13:46:00Z</time>
      </trkpt>
      <trkpt lat="37.29018" lon="-8.08246">
        <ele>335.832</ele>
        <time>2019-10-14T13:46:20Z</time>
      </trkpt>
      <trkpt lat="37.29018" lon="-8.0825">
        <ele>335.684</ele>
        <time>2019-10-14T13:46:40Z</time>
      </trkpt>
      <trkpt lat="37.29019" lon="-8.08252">
        <ele>335.595</ele>
        <time>2019-10-14T13:47:00Z</time>
      </trkpt>
      <trkpt lat="37.29019" lon="-8.08252">
        <ele>335.667</ele>
        <time>2019-10-14T13:47:20Z</time>
      </trkpt>
      <trkpt lat="37.29019" lon="-8.08253">
        <ele>335.547</ele>
        <time>2019-10-14T13:47:40Z</time>
      </trkpt>
      <trkpt lat="37.29022" lon="-8.08263">
        <ele>335.246</ele>
        <time>2019-10-14T13:48:00Z</time>
      </trkpt>
      <trkpt lat="37.29029" lon="-8.08279">
        <ele>335.288</ele>
        <time>2019-10-14T13:48:20Z</time>
      </trkpt>
      <trkpt lat="37.29034" lon="-8.08286">
        <ele>335.716</ele>
        <time>2019-10-14T13:48:40Z</time>
      </trkpt>
      <trkpt lat="37.29039" lon="-8.08292">
        <ele>336.608</ele>
        <time>2019-10-14T13:49:00Z</time>
      </trkpt>
      <trkpt lat="37.29047" lon="-8.08297">
        <ele>338.228</ele>
        <time>2019-10-14T13:49:20Z</time>
      </trkpt>
      <trkpt lat="37.29055" lon="-8.08302">
        <ele>340.046</ele>
        <time>2019-10-14T13:49:40Z</time>
      </trkpt>
      <trkpt lat="37.29061" lon="-8.08305">
        <ele>341.518</ele>
        <time>2019-10-14T13:50:00Z</time>
      </trkpt>
      <trkpt lat="37.29072" lon="-8.0831">
        <ele>343.988</ele>
        <time>2019-10-14T13:50:20Z</time>
      </trkpt>
      <trkpt lat="37.29076" lon="-8.08314">
        <ele>344.62</ele>
        <time>2019-10-14T13:50:40Z</time>
      </trkpt>
      <trkpt lat="37.29078" lon="-8.08318">
        <ele>344.711</ele>
        <time>2019-10-14T13:51:00Z</time>
      </trkpt>
      <trkpt lat="37.29078" lon="-8.08325">
        <ele>344.583</ele>
        <time>2019-10-14T13:51:20Z</time>
      </trkpt>
      <trkpt lat="37.29079" lon="-8.08333">
        <ele>344.053</ele>
        <time>2019-10-14T13:51:40Z</time>
      </trkpt>
      <trkpt lat="37.29079" lon="-8.0834">
        <ele>343.997</ele>
        <time>2019-10-14T13:52:00Z</time>
      </trkpt>
      <trkpt lat="37.29081" lon="-8.08346">
        <ele>344.123</ele>
        <time>2019-10-14T13:52:20Z</time>
      </trkpt>
      <trkpt lat="37.29085" lon="-8.08352">
        <ele>344.725</ele>
        <time>2019-10-14T13:52:40Z</time>
      </trkpt>
      <trkpt lat="37.2909" lon="-8.08358">
        <ele>345.608</ele>
        <time>2019-10-14T13:53:00Z</time>
      </trkpt>
      <trkpt lat="37.29096" lon="-8.08364">
        <ele>346.293</ele>
        <time>2019-10-14T13:53:20Z</time>
      </trkpt>
      <trkpt lat="37.29103" lon="-8.08368">
        <ele>346.611</ele>
        <time>2019-10-14T13:53:40Z</time>
      </trkpt>
      <trkpt lat="37.29112" lon="-8.08371">
        <ele>347.233</ele>
        <time>2019-10-14T13:54:00Z</time>
      </trkpt>
      <trkpt lat="37.29121" lon="-8.08373">
        <ele>347.883</ele>
        <time>2019-10-14T13:54:20Z</time>
      </trkpt>
      <trkpt lat="37.29131" lon="-8.08376">
        <ele>348.325</ele>
        <time>2019-10-14T13:54:40Z</time>
      </trkpt>
      <trkpt lat="37.29138" lon="-8.08377">
        <ele>348.816</ele>
        <time>2019-10-14T13:55:00Z</time>
      </trkpt>
      <trkpt lat="37.29145" lon="-8.08377">
        <ele>348.878</ele>
        <time>2019-10-14T13:55:20Z</time>
      </trkpt>
      <trkpt lat="37.29151" lon="-8.08374">
        <ele>349.588</ele>
        <time>2019-10-14T13:55:40Z</time>
      </trkpt>
      <trkpt lat="37.29158" lon="-8.0837">
        <ele>350.625</ele>
        <time>2019-10-14T13:56:00Z</time>
      </trkpt>
      <trkpt lat="37.29164" lon="-8.08365">
        <ele>351.926</ele>
        <time>2019-10-14T13:56:20Z</time>
      </trkpt>
      <trkpt lat="37.29171" lon="-8.08361">
        <ele>353.008</ele>
        <time>2019-10-14T13:56:40Z</time>
      </trkpt>
      <trkpt lat="37.29179" lon="-8.08357">
        <ele>353.508</ele>
        <time>2019-10-14T13:57:00Z</time>
      </trkpt>
      <trkpt lat="37.29187" lon="-8.08353">
        <ele>353.936</ele>
        <time>2019-10-14T13:57:20Z</time>
      </trkpt>
      <trkpt lat="37.29195" lon="-8.08348">
        <ele>354.514</ele>
        <time>2019-10-14T13:57:40Z</time>
      </trkpt>
      <trkpt lat="37.29202" lon="-8.08344">
        <ele>356.976</ele>
        <time>2019-10-14T13:58:00Z</time>
      </trkpt>
      <trkpt lat="37.29207" lon="-8.08342">
        <ele>358.666</ele>
        <time>2019-10-14T13:58:20Z</time>
      </trkpt>
      <trkpt lat="37.29212" lon="-8.08344">
        <ele>359.618</ele>
        <time>2019-10-14T13:58:40Z</time>
      </trkpt>
      <trkpt lat="37.29215" lon="-8.08347">
        <ele>359.759</ele>
        <time>2019-10-14T13:59:00Z</time>
      </trkpt>
      <trkpt lat="37.29216" lon="-8.08352">
        <ele>359.021</ele>
        <time>2019-10-14T13:59:20Z</time>
      </trkpt>
      <trkpt lat="37.29215" lon="-8.0836">
        <ele>357.571</ele>
        <time>2019-10-14T13:59:40Z</time>
      </trkpt>
      <trkpt lat="37.29213" lon="-8.08371">
        <ele>356.141</ele>
        <time>2019-10-14T14:00:00Z</time>
      </trkpt>
      <trkpt lat="37.29207" lon="-8.08412">
        <ele>350.881</ele>
        <time>2019-10-14T14:00:20Z</time>
      </trkpt>
      <trkpt lat="37.29208" lon="-8.0842">
        <ele>349.809</ele>
        <time>2019-10-14T14:00:40Z</time>
      </trkpt>
      <trkpt lat="37.2921" lon="-8.08426">
        <ele>349.408</ele>
        <time>2019-10-14T14:01:00Z</time>
      </trkpt>
      <trkpt lat="37.29214" lon="-8.08431">
        <ele>349.558</ele>
        <time>2019-10-14T14:01:20Z</time>
      </trkpt>
      <trkpt lat="37.29219" lon="-8.08435">
        <ele>350.096</ele>
        <time>2019-10-14T14:01:40Z</time>
      </trkpt>
      <trkpt lat="37.29226" lon="-8.08438">
        <ele>350.578</ele>
        <time>2019-10-14T14:02:00Z</time>
      </trkpt>
      <trkpt lat="37.29234" lon="-8.0844">
        <ele>350.848</ele>
        <time>2019-10-14T14:02:20Z</time>
      </trkpt>
      <trkpt lat="37.29242" lon="-8.08441">
        <ele>351.46</ele>
        <time>2019-10-14T14:02:40Z</time>
      </trkpt>
      <trkpt lat="37.2925" lon="-8.08439">
        <ele>352.511</ele>
        <time>2019-10-14T14:03:00Z</time>
      </trkpt>
      <trkpt lat="37.29257" lon="-8.08435">
        <ele>354.393</ele>
        <time>2019-10-14T14:03:20Z</time>
      </trkpt>
      <trkpt lat="37.29265" lon="-8.0843">
        <ele>356.633</ele>
        <time>2019-10-14T14:03:40Z</time>
      </trkpt>
      <trkpt lat="37.29272" lon="-8.08422">
        <ele>359.391</ele>
        <time>2019-10-14T14:04:00Z</time>
      </trkpt>
      <trkpt lat="37.29278" lon="-8.08412">
        <ele>362.581</ele>
        <time>2019-10-14T14:04:20Z</time>
      </trkpt>
      <trkpt lat="37.29284" lon="-8.08402">
        <ele>366.419</ele>
        <time>2019-10-14T14:04:40Z</time>
      </trkpt>
      <trkpt lat="37.29294" lon="-8.08386">
        <ele>372.508</ele>
        <time>2019-10-14T14:05:00Z</time>
      </trkpt>
      <trkpt lat="37.29299" lon="-8.08382">
        <ele>374.373</ele>
        <time>2019-10-14T14:05:20Z</time>
      </trkpt>
      <trkpt lat="37.29304" lon="-8.0838">
        <ele>375.391</ele>
        <time>2019-10-14T14:05:40Z</time>
      </trkpt>
      <trkpt lat="37.29308" lon="-8.08381">
        <ele>375.893</ele>
        <time>2019-10-14T14:06:00Z</time>
      </trkpt>
      <trkpt lat="37.29312" lon="-8.08385">
        <ele>375.453</ele>
        <time>2019-10-14T14:06:20Z</time>
      </trkpt>
      <trkpt lat="37.29314" lon="-8.08392">
        <ele>374.085</ele>
        <time>2019-10-14T14:06:40Z</time>
      </trkpt>
      <trkpt lat="37.29316" lon="-8.08402">
        <ele>371.646</ele>
        <time>2019-10-14T14:07:00Z</time>
      </trkpt>
      <trkpt lat="37.29319" lon="-8.08413">
        <ele>368.968</ele>
        <time>2019-10-14T14:07:20Z</time>
      </trkpt>
      <trkpt lat="37.29322" lon="-8.08422">
        <ele>367.658</ele>
        <time>2019-10-14T14:07:40Z</time>
      </trkpt>
      <trkpt lat="37.29326" lon="-8.0843">
        <ele>367.526</ele>
        <time>2019-10-14T14:08:00Z</time>
      </trkpt>
      <trkpt lat="37.29332" lon="-8.08437">
        <ele>368.047</ele>
        <time>2019-10-14T14:08:20Z</time>
      </trkpt>
      <trkpt lat="37.29339" lon="-8.08443">
        <ele>369.211</ele>
        <time>2019-10-14T14:08:40Z</time>
      </trkpt>
      <trkpt lat="37.29343" lon="-8.08449">
        <ele>370.408</ele>
        <time>2019-10-14T14:09:00Z</time>
      </trkpt>
      <trkpt lat="37.29344" lon="-8.08454">
        <ele>370.786</ele>
        <time>2019-10-14T14:09:20Z</time>
      </trkpt>
      <trkpt lat="37.29343" lon="-8.0846">
        <ele>370.234</ele>
        <time>2019-10-14T14:09:40Z</time>
      </trkpt>
      <trkpt lat="37.29341" lon="-8.08466">
        <ele>369.196</ele>
        <time>2019-10-14T14:10:00Z</time>
      </trkpt>
      <trkpt lat="37.29337" lon="-8.08473">
        <ele>367.996</ele>
        <time>2019-10-14T14:10:20Z</time>
      </trkpt>
      <trkpt lat="37.29334" lon="-8.08481">
        <ele>367.378</ele>
        <time>2019-10-14T14:10:40Z</time>
      </trkpt>
      <trkpt lat="37.29332" lon="-8.0849">
        <ele>367.249</ele>
        <time>2019-10-14T14:11:00Z</time>
      </trkpt>
      <trkpt lat="37.29332" lon="-8.085">
        <ele>367.641</ele>
        <time>2019-10-14T14:11:20Z</time>
      </trkpt>
      <trkpt lat="37.29335" lon="-8.0851">
        <ele>367.971</ele>
        <time>2019-10-14T14:11:40Z</time>
      </trkpt>
      <trkpt lat="37.29339" lon="-8.0852">
        <ele>368.467</ele>
        <time>2019-10-14T14:12:00Z</time>
      </trkpt>
      <trkpt lat="37.29345" lon="-8.08531">
        <ele>368.781</ele>
        <time>2019-10-14T14:12:20Z</time>
      </trkpt>
      <trkpt lat="37.29351" lon="-8.08539">
        <ele>368.219</ele>
        <time>2019-10-14T14:12:40Z</time>
      </trkpt>
      <trkpt lat="37.29357" lon="-8.08545">
        <ele>368.208</ele>
        <time>2019-10-14T14:13:00Z</time>
      </trkpt>
      <trkpt lat="37.29363" lon="-8.08549">
        <ele>368.25</ele>
        <time>2019-10-14T14:13:20Z</time>
      </trkpt>
      <trkpt lat="37.29369" lon="-8.0855">
        <ele>367.928</ele>
        <time>2019-10-14T14:13:40Z</time>
      </trkpt>
      <trkpt lat="37.29374" lon="-8.08548">
        <ele>368.22</ele>
        <time>2019-10-14T14:14:00Z</time>
      </trkpt>
      <trkpt lat="37.29379" lon="-8.08543">
        <ele>369.24</ele>
        <time>2019-10-14T14:14:20Z</time>
      </trkpt>
      <trkpt lat="37.29382" lon="-8.08536">
        <ele>370.932</ele>
        <time>2019-10-14T14:14:40Z</time>
      </trkpt>
      <trkpt lat="37.29385" lon="-8.08526">
        <ele>373.133</ele>
        <time>2019-10-14T14:15:00Z</time>
      </trkpt>
      <trkpt lat="37.29388" lon="-8.08513">
        <ele>374.585</ele>
        <time>2019-10-14T14:15:20Z</time>
      </trkpt>
      <trkpt lat="37.29393" lon="-8.08499">
        <ele>375.545</ele>
        <time>2019-10-14T14:15:40Z</time>
      </trkpt>
      <trkpt lat="37.29399" lon="-8.08487">
        <ele>377.472</ele>
        <time>2019-10-14T14:16:00Z</time>
      </trkpt>
      <trkpt lat="37.29414" lon="-8.08455">
        <ele>383.313</ele>
        <time>2019-10-14T14:16:20Z</time>
      </trkpt>
      <trkpt lat="37.29417" lon="-8.08445">
        <ele>385.714</ele>
        <time>2019-10-14T14:16:40Z</time>
      </trkpt>
      <trkpt lat="37.29421" lon="-8.08433">
        <ele>387.608</ele>
        <time>2019-10-14T14:17:00Z</time>
      </trkpt>
      <trkpt lat="37.29431" lon="-8.08398">
        <ele>396.021</ele>
        <time>2019-10-14T14:17:20Z</time>
      </trkpt>
      <trkpt lat="37.29436" lon="-8.08387">
        <ele>399.239</ele>
        <time>2019-10-14T14:17:40Z</time>
      </trkpt>
      <trkpt lat="37.29441" lon="-8.08378">
        <ele>402.271</ele>
        <time>2019-10-14T14:18:00Z</time>
      </trkpt>
      <trkpt lat="37.29447" lon="-8.0837">
        <ele>404.831</ele>
        <time>2019-10-14T14:18:20Z</time>
      </trkpt>
      <trkpt lat="37.29454" lon="-8.08364">
        <ele>406.773</ele>
        <time>2019-10-14T14:18:40Z</time>
      </trkpt>
      <trkpt lat="37.2946" lon="-8.08361">
        <ele>407.424</ele>
        <time>2019-10-14T14:19:00Z</time>
      </trkpt>
      <trkpt lat="37.29467" lon="-8.08361">
        <ele>407.146</ele>
        <time>2019-10-14T14:19:20Z</time>
      </trkpt>
      <trkpt lat="37.29474" lon="-8.08364">
        <ele>406.066</ele>
        <time>2019-10-14T14:19:40Z</time>
      </trkpt>
      <trkpt lat="37.29481" lon="-8.08369">
        <ele>405.449</ele>
        <time>2019-10-14T14:20:00Z</time>
      </trkpt>
      <trkpt lat="37.29489" lon="-8.08375">
        <ele>404.402</ele>
        <time>2019-10-14T14:20:20Z</time>
      </trkpt>
      <trkpt lat="37.29499" lon="-8.08381">
        <ele>403.322</ele>
        <time>2019-10-14T14:20:40Z</time>
      </trkpt>
      <trkpt lat="37.29508" lon="-8.08385">
        <ele>404.208</ele>
        <time>2019-10-14T14:21:00Z</time>
      </trkpt>
      <trkpt lat="37.29518" lon="-8.08387">
        <ele>406.518</ele>
        <time>2019-10-14T14:21:20Z</time>
      </trkpt>
      <trkpt lat="37.29529" lon="-8.08388">
        <ele>409.386</ele>
        <time>2019-10-14T14:21:40Z</time>
      </trkpt>
      <trkpt lat="37.2954" lon="-8.08388">
        <ele>410.398</ele>
        <time>2019-10-14T14:22:00Z</time>
      </trkpt>
      <trkpt lat="37.2955" lon="-8.08387">
        <ele>411.678</ele>
        <time>2019-10-14T14:22:20Z</time>
      </trkpt>
      <trkpt lat="37.2956" lon="-8.08384">
        <ele>414.09</ele>
        <time>2019-10-14T14:22:40Z</time>
      </trkpt>
      <trkpt lat="37.29569" lon="-8.08379">
        <ele>417.541</ele>
        <time>2019-10-14T14:23:00Z</time>
      </trkpt>
      <trkpt lat="37.29577" lon="-8.08374">
        <ele>420.383</ele>
        <time>2019-10-14T14:23:20Z</time>
      </trkpt>
      <trkpt lat="37.29584" lon="-8.08373">
        <ele>421.993</ele>
        <time>2019-10-14T14:23:40Z</time>
      </trkpt>
      <trkpt lat="37.29589" lon="-8.08373">
        <ele>423.121</ele>
        <time>2019-10-14T14:24:00Z</time>
      </trkpt>
      <trkpt lat="37.29593" lon="-8.08376">
        <ele>423.241</ele>
        <time>2019-10-14T14:24:20Z</time>
      </trkpt>
      <trkpt lat="37.29596" lon="-8.08383">
        <ele>422.005</ele>
        <time>2019-10-14T14:24:40Z</time>
      </trkpt>
      <trkpt lat="37.296" lon="-8.08394">
        <ele>420.308</ele>
        <time>2019-10-14T14:25:00Z</time>
      </trkpt>
      <trkpt lat="37.29603" lon="-8.08408">
        <ele>419.066</ele>
        <time>2019-10-14T14:25:20Z</time>
      </trkpt>
      <trkpt lat="37.29611" lon="-8.08432">
        <ele>417.294</ele>
        <time>2019-10-14T14:25:40Z</time>
      </trkpt>
      <trkpt lat="37.29616" lon="-8.08441">
        <ele>416.326</ele>
        <time>2019-10-14T14:26:00Z</time>
      </trkpt>
      <trkpt lat="37.29621" lon="-8.08447">
        <ele>415.966</ele>
        <time>2019-10-14T14:26:20Z</time>
      </trkpt>
      <trkpt lat="37.29626" lon="-8.0845">
        <ele>416.068</ele>
        <time>2019-10-14T14:26:40Z</time>
      </trkpt>
      <trkpt lat="37.29632" lon="-8.08451">
        <ele>417.299</ele>
        <time>2019-10-14T14:27:00Z</time>
      </trkpt>
      <trkpt lat="37.29639" lon="-8.0845">
        <ele>419.481</ele>
        <time>2019-10-14T14:27:20Z</time>
      </trkpt>
      <trkpt lat="37.29648" lon="-8.08447">
        <ele>420.841</ele>
        <time>2019-10-14T14:27:40Z</time>
      </trkpt>
      <trkpt lat="37.29658" lon="-8.08442">
        <ele>423.015</ele>
        <time>2019-10-14T14:28:00Z</time>
      </trkpt>
      <trkpt lat="37.29668" lon="-8.08436">
        <ele>426.165</ele>
        <time>2019-10-14T14:28:20Z</time>
      </trkpt>
      <trkpt lat="37.29676" lon="-8.08431">
        <ele>429.011</ele>
        <time>2019-10-14T14:28:40Z</time>
      </trkpt>
      <trkpt lat="37.29684" lon="-8.08428">
        <ele>430.908</ele>
        <time>2019-10-14T14:29:00Z</time>
      </trkpt>
      <trkpt lat="37.29691" lon="-8.08427">
        <ele>431.835</ele>
        <time>2019-10-14T14:29:20Z</time>
      </trkpt>
      <trkpt lat="37.29698" lon="-8.08428">
        <ele>432.763</ele>
        <time>2019-10-14T14:29:40Z</time>
      </trkpt>
      <trkpt lat="37.29706" lon="-8.08432">
        <ele>434.195</ele>
        <time>2019-10-14T14:30:00Z</time>
      </trkpt>
      <trkpt lat="37.29714" lon="-8.08438">
        <ele>435.165</ele>
        <time>2019-10-14T14:30:20Z</time>
      </trkpt>
      <trkpt lat="37.2972" lon="-8.08443">
        <ele>435.757</ele>
        <time>2019-10-14T14:30:40Z</time>
      </trkpt>
      <trkpt lat="37.29725" lon="-8.08449">
        <ele>435.788</ele>
        <time>2019-10-14T14:31:00Z</time>
      </trkpt>
      <trkpt lat="37.29728" lon="-8.08456">
        <ele>435.15</ele>
        <time>2019-10-14T14:31:20Z</time>
      </trkpt>
      <trkpt lat="37.29729" lon="-8.08463">
        <ele>433.71</ele>
        <time>2019-10-14T14:31:40Z</time>
      </trkpt>
      <trkpt lat="37.29729" lon="-8.0847">
        <ele>431.794</ele>
        <time>2019-10-14T14:32:00Z</time>
      </trkpt>
      <trkpt lat="37.29729" lon="-8.08479">
        <ele>429.757</ele>
        <time>2019-10-14T14:32:20Z</time>
      </trkpt>
      <trkpt lat="37.2973" lon="-8.08488">
        <ele>427.922</ele>
        <time>2019-10-14T14:32:40Z</time>
      </trkpt>
      <trkpt lat="37.29733" lon="-8.08497">
        <ele>427.008</ele>
        <time>2019-10-14T14:33:00Z</time>
      </trkpt>
      <trkpt lat="37.29737" lon="-8.08505">
        <ele>426.833</ele>
        <time>2019-10-14T14:33:20Z</time>
      </trkpt>
      <trkpt lat="37.29743" lon="-8.08512">
        <ele>427.431</ele>
        <time>2019-10-14T14:33:40Z</time>
      </trkpt>
      <trkpt lat="37.2975" lon="-8.08517">
        <ele>429.153</ele>
        <time>2019-10-14T14:34:00Z</time>
      </trkpt>
      <trkpt lat="37.29758" lon="-8.08521">
        <ele>429.463</ele>
        <time>2019-10-14T14:34:20Z</time>
      </trkpt>
      <trkpt lat="37.29766" lon="-8.08525">
        <ele>429.795</ele>
        <time>2019-10-14T14:34:40Z</time>
      </trkpt>
      <trkpt lat="37.29774" lon="-8.08527">
        <ele>430.416</ele>
        <time>2019-10-14T14:35:00Z</time>
      </trkpt>
      <trkpt lat="37.2978" lon="-8.08527">
        <ele>431.328</ele>
        <time>2019-10-14T14:35:20Z</time>
      </trkpt>
      <trkpt lat="37.29787" lon="-8.08525">
        <ele>432.338</ele>
        <time>2019-10-14T14:35:40Z</time>
      </trkpt>
      <trkpt lat="37.29794" lon="-8.08521">
        <ele>433.644</ele>
        <time>2019-10-14T14:36:00Z</time>
      </trkpt>
      <trkpt lat="37.29802" lon="-8.08516">
        <ele>435.005</ele>
        <time>2019-10-14T14:36:20Z</time>
      </trkpt>
      <trkpt lat="37.29818" lon="-8.08506">
        <ele>437.715</ele>
        <time>2019-10-14T14:36:40Z</time>
      </trkpt>
      <trkpt lat="37.29828" lon="-8.08502">
        <ele>439.208</ele>
        <time>2019-10-14T14:37:00Z</time>
      </trkpt>
      <trkpt lat="37.29839" lon="-8.08499">
        <ele>440.628</ele>
        <time>2019-10-14T14:37:20Z</time>
      </trkpt>
      <trkpt lat="37.29861" lon="-8.08495">
        <ele>443.126</ele>
        <time>2019-10-14T14:37:40Z</time>
      </trkpt>
      <trkpt lat="37.29871" lon="-8.08491">
        <ele>444.658</ele>
        <time>2019-10-14T14:38:00Z</time>
      </trkpt>
      <trkpt lat="37.29881" lon="-8.08485">
        <ele>447.148</ele>
        <time>2019-10-14T14:38:20Z</time>
      </trkpt>
      <trkpt lat="37.29889" lon="-8.08478">
        <ele>450.19</ele>
        <time>2019-10-14T14:38:40Z</time>
      </trkpt>
      <trkpt lat="37.29896" lon="-8.08473">
        <ele>453.371</ele>
        <time>2019-10-14T14:39:00Z</time>
      </trkpt>
      <trkpt lat="37.29902" lon="-8.08469">
        <ele>455.283</ele>
        <time>2019-10-14T14:39:20Z</time>
      </trkpt>
      <trkpt lat="37.29907" lon="-8.08468">
        <ele>456.183</ele>
        <time>2019-10-14T14:39:40Z</time>
      </trkpt>
      <trkpt lat="37.29912" lon="-8.08469">
        <ele>456.122</ele>
        <time>2019-10-14T14:40:00Z</time>
      </trkpt>
      <trkpt lat="37.29917" lon="-8.08471">
        <ele>455.462</ele>
        <time>2019-10-14T14:40:20Z</time>
      </trkpt>
      <trkpt lat="37.29923" lon="-8.08475">
        <ele>453.708</ele>
        <time>2019-10-14T14:40:40Z</time>
      </trkpt>
      <trkpt lat="37.29929" lon="-8.08476">
        <ele>452.908</ele>
        <time>2019-10-14T14:41:00Z</time>
      </trkpt>
      <trkpt lat="37.29936" lon="-8.08476">
        <ele>453.256</ele>
        <time>2019-10-14T14:41:20Z</time>
      </trkpt>
      <trkpt lat="37.29944" lon="-8.08475">
        <ele>453.854</ele>
        <time>2019-10-14T14:41:40Z</time>
      </trkpt>
      <trkpt lat="37.2997" lon="-8.08475">
        <ele>460.596</ele>
        <time>2019-10-14T14:42:00Z</time>
      </trkpt>
      <trkpt lat="37.29979" lon="-8.08478">
        <ele>461.166</ele>
        <time>2019-10-14T14:42:20Z</time>
      </trkpt>
      <trkpt lat="37.29986" lon="-8.08483">
        <ele>461.018</ele>
        <time>2019-10-14T14:42:40Z</time>
      </trkpt>
      <trkpt lat="37.29993" lon="-8.0849">
        <ele>461.099</ele>
        <time>2019-10-14T14:43:00Z</time>
      </trkpt>
      <trkpt lat="37.3" lon="-8.08497">
        <ele>461.491</ele>
        <time>2019-10-14T14:43:20Z</time>
      </trkpt>
      <trkpt lat="37.30006" lon="-8.08504">
        <ele>461.281</ele>
        <time>2019-10-14T14:43:40Z</time>
      </trkpt>
      <trkpt lat="37.30013" lon="-8.08511">
        <ele>461.646</ele>
        <time>2019-10-14T14:44:00Z</time>
      </trkpt>
      <trkpt lat="37.30021" lon="-8.08516">
        <ele>463.088</ele>
        <time>2019-10-14T14:44:20Z</time>
      </trkpt>
      <trkpt lat="37.30028" lon="-8.08519">
        <ele>464.916</ele>
        <time>2019-10-14T14:44:40Z</time>
      </trkpt>
      <trkpt lat="37.30034" lon="-8.08519">
        <ele>465.908</ele>
        <time>2019-10-14T14:45:00Z</time>
      </trkpt>
      <trkpt lat="37.3004" lon="-8.08519">
        <ele>466.858</ele>
        <time>2019-10-14T14:45:20Z</time>
      </trkpt>
      <trkpt lat="37.30048" lon="-8.0852">
        <ele>468.026</ele>
        <time>2019-10-14T14:45:40Z</time>
      </trkpt>
      <trkpt lat="37.30057" lon="-8.08522">
        <ele>469.358</ele>
        <time>2019-10-14T14:46:00Z</time>
      </trkpt>
      <trkpt lat="37.30124" lon="-8.08549">
        <ele>467.488</ele>
        <time>2019-10-14T14:46:20Z</time>
      </trkpt>
      <trkpt lat="37.30131" lon="-8.08552">
        <ele>466.74</ele>
        <time>2019-10-14T14:46:40Z</time>
      </trkpt>
      <trkpt lat="37.30142" lon="-8.08555">
        <ele>465.971</ele>
        <time>2019-10-14T14:47:00Z</time>
      </trkpt>
      <trkpt lat="37.30143" lon="-8.08556">
        <ele>465.943</ele>
        <time>2019-10-14T14:47:20Z</time>
      </trkpt>
      <trkpt lat="37.30144" lon="-8.08556">
        <ele>465.823</ele>
        <time>2019-10-14T14:47:40Z</time>
      </trkpt>
      <trkpt lat="37.30161" lon="-8.0857">
        <ele>466.436</ele>
        <time>2019-10-14T14:48:00Z</time>
      </trkpt>
      <trkpt lat="37.30167" lon="-8.08573">
        <ele>466.317</ele>
        <time>2019-10-14T14:48:20Z</time>
      </trkpt>
      <trkpt lat="37.30194" lon="-8.08565">
        <ele>468.018</ele>
        <time>2019-10-14T14:48:40Z</time>
      </trkpt>
      <trkpt lat="37.30206" lon="-8.08544">
        <ele>465.008</ele>
        <time>2019-10-14T14:49:00Z</time>
      </trkpt>
      <trkpt lat="37.30249" lon="-8.08522">
        <ele>459.497</ele>
        <time>2019-10-14T14:49:20Z</time>
      </trkpt>
      <trkpt lat="37.30303" lon="-8.0851">
        <ele>458.025</ele>
        <time>2019-10-14T14:49:40Z</time>
      </trkpt>
      <trkpt lat="37.30336" lon="-8.08518">
        <ele>461.177</ele>
        <time>2019-10-14T14:50:00Z</time>
      </trkpt>
      <trkpt lat="37.30415" lon="-8.08572">
        <ele>465.017</ele>
        <time>2019-10-14T14:50:20Z</time>
      </trkpt>
      <trkpt lat="37.30426" lon="-8.08579">
        <ele>465.019</ele>
        <time>2019-10-14T14:50:40Z</time>
      </trkpt>
      <trkpt lat="37.30456" lon="-8.08596">
        <ele>465.29</ele>
        <time>2019-10-14T14:51:00Z</time>
      </trkpt>
      <trkpt lat="37.30468" lon="-8.08604">
        <ele>464.282</ele>
        <time>2019-10-14T14:51:20Z</time>
      </trkpt>
      <trkpt lat="37.30485" lon="-8.08627">
        <ele>461.162</ele>
        <time>2019-10-14T14:51:40Z</time>
      </trkpt>
      <trkpt lat="37.30497" lon="-8.08704">
        <ele>456.798</ele>
        <time>2019-10-14T14:52:00Z</time>
      </trkpt>
      <trkpt lat="37.30478" lon="-8.08733">
        <ele>458.715</ele>
        <time>2019-10-14T14:52:20Z</time>
      </trkpt>
      <trkpt lat="37.30457" lon="-8.0875">
        <ele>459.726</ele>
        <time>2019-10-14T14:52:40Z</time>
      </trkpt>
      <trkpt lat="37.30447" lon="-8.08759">
        <ele>460.608</ele>
        <time>2019-10-14T14:53:00Z</time>
      </trkpt>
      <trkpt lat="37.30433" lon="-8.0881">
        <ele>461.573</ele>
        <time>2019-10-14T14:53:20Z</time>
      </trkpt>
      <trkpt lat="37.30455" lon="-8.08864">
        <ele>462.771</ele>
        <time>2019-10-14T14:53:40Z</time>
      </trkpt>
      <trkpt lat="37.30464" lon="-8.08873">
        <ele>463.193</ele>
        <time>2019-10-14T14:54:00Z</time>
      </trkpt>
      <trkpt lat="37.30513" lon="-8.08938">
        <ele>468.343</ele>
        <time>2019-10-14T14:54:20Z</time>
      </trkpt>
      <trkpt lat="37.30542" lon="-8.08985">
        <ele>472.115</ele>
        <time>2019-10-14T14:54:40Z</time>
      </trkpt>
      <trkpt lat="37.30558" lon="-8.09008">
        <ele>472.036</ele>
        <time>2019-10-14T14:55:00Z</time>
      </trkpt>
      <trkpt lat="37.30597" lon="-8.09045">
        <ele>476.798</ele>
        <time>2019-10-14T14:55:20Z</time>
      </trkpt>
      <trkpt lat="37.30581" lon="-8.09088">
        <ele>476.288</ele>
        <time>2019-10-14T14:55:40Z</time>
      </trkpt>
      <trkpt lat="37.30584" lon="-8.091">
        <ele>477.324</ele>
        <time>2019-10-14T14:56:00Z</time>
      </trkpt>
      <trkpt lat="37.30591" lon="-8.09121">
        <ele>479.804</ele>
        <time>2019-10-14T14:56:20Z</time>
      </trkpt>
      <trkpt lat="37.30618" lon="-8.09158">
        <ele>484.114</ele>
        <time>2019-10-14T14:56:40Z</time>
      </trkpt>
      <trkpt lat="37.3063" lon="-8.0917">
        <ele>485.408</ele>
        <time>2019-10-14T14:57:00Z</time>
      </trkpt>
      <trkpt lat="37.30634" lon="-8.09175">
        <ele>485.686</ele>
        <time>2019-10-14T14:57:20Z</time>
      </trkpt>
      <trkpt lat="37.30637" lon="-8.09183">
        <ele>485.964</ele>
        <time>2019-10-14T14:57:40Z</time>
      </trkpt>
      <trkpt lat="37.3064" lon="-8.09194">
        <ele>486.166</ele>
        <time>2019-10-14T14:58:00Z</time>
      </trkpt>
      <trkpt lat="37.30643" lon="-8.09207">
        <ele>486.336</ele>
        <time>2019-10-14T14:58:20Z</time>
      </trkpt>
      <trkpt lat="37.30645" lon="-8.09224">
        <ele>486.578</ele>
        <time>2019-10-14T14:58:40Z</time>
      </trkpt>
      <trkpt lat="37.30661" lon="-8.09302">
        <ele>489.059</ele>
        <time>2019-10-14T14:59:00Z</time>
      </trkpt>
      <trkpt lat="37.30685" lon="-8.09418">
        <ele>485.691</ele>
        <time>2019-10-14T14:59:20Z</time>
      </trkpt>
      <trkpt lat="37.30699" lon="-8.09495">
        <ele>482.971</ele>
        <time>2019-10-14T14:59:40Z</time>
      </trkpt>
      <trkpt lat="37.30701" lon="-8.09505">
        <ele>482.557</ele>
        <time>2019-10-14T15:00:00Z</time>
      </trkpt>
      <trkpt lat="37.30706" lon="-8.09546">
        <ele>482.9</ele>
        <time>2019-10-14T15:00:20Z</time>
      </trkpt>
      <trkpt lat="37.30707" lon="-8.09558">
        <ele>483.62</ele>
        <time>2019-10-14T15:00:40Z</time>
      </trkpt>
      <trkpt lat="37.30708" lon="-8.09569">
        <ele>484.208</ele>
        <time>2019-10-14T15:01:00Z</time>
      </trkpt>
      <trkpt lat="37.30709" lon="-8.09578">
        <ele>484.679</ele>
        <time>2019-10-14T15:01:20Z</time>
      </trkpt>
      <trkpt lat="37.30711" lon="-8.09585">
        <ele>484.977</ele>
        <time>2019-10-14T15:01:40Z</time>
      </trkpt>
      <trkpt lat="37.30714" lon="-8.09591">
        <ele>484.929</ele>
        <time>2019-10-14T15:02:00Z</time>
      </trkpt>
      <trkpt lat="37.30718" lon="-8.09594">
        <ele>484.779</ele>
        <time>2019-10-14T15:02:20Z</time>
      </trkpt>
      <trkpt lat="37.30723" lon="-8.09595">
        <ele>484.321</ele>
        <time>2019-10-14T15:02:40Z</time>
      </trkpt>
      <trkpt lat="37.3073" lon="-8.09594">
        <ele>483.682</ele>
        <time>2019-10-14T15:03:00Z</time>
      </trkpt>
      <trkpt lat="37.30736" lon="-8.09593">
        <ele>482.934</ele>
        <time>2019-10-14T15:03:20Z</time>
      </trkpt>
      <trkpt lat="37.30742" lon="-8.09591">
        <ele>482.194</ele>
        <time>2019-10-14T15:03:40Z</time>
      </trkpt>
      <trkpt lat="37.30748" lon="-8.09589">
        <ele>481.484</ele>
        <time>2019-10-14T15:04:00Z</time>
      </trkpt>
      <trkpt lat="37.30755" lon="-8.09589">
        <ele>480.507</ele>
        <time>2019-10-14T15:04:20Z</time>
      </trkpt>
      <trkpt lat="37.30763" lon="-8.09589">
        <ele>479.517</ele>
        <time>2019-10-14T15:04:40Z</time>
      </trkpt>
      <trkpt lat="37.30779" lon="-8.09592">
        <ele>477.608</ele>
        <time>2019-10-14T15:05:00Z</time>
      </trkpt>
      <trkpt lat="37.308" lon="-8.09599">
        <ele>476.572</ele>
        <time>2019-10-14T15:05:20Z</time>
      </trkpt>
      <trkpt lat="37.30804" lon="-8.09602">
        <ele>476.14</ele>
        <time>2019-10-14T15:05:40Z</time>
      </trkpt>
      <trkpt lat="37.30808" lon="-8.09606">
        <ele>476.172</ele>
        <time>2019-10-14T15:06:00Z</time>
      </trkpt>
      <trkpt lat="37.30815" lon="-8.09619">
        <ele>476.322</ele>
        <time>2019-10-14T15:06:20Z</time>
      </trkpt>
      <trkpt lat="37.30819" lon="-8.09626">
        <ele>476.284</ele>
        <time>2019-10-14T15:06:40Z</time>
      </trkpt>
      <trkpt lat="37.30825" lon="-8.09632">
        <ele>475.965</ele>
        <time>2019-10-14T15:07:00Z</time>
      </trkpt>
      <trkpt lat="37.30835" lon="-8.09642">
        <ele>475.217</ele>
        <time>2019-10-14T15:07:20Z</time>
      </trkpt>
      <trkpt lat="37.30838" lon="-8.09648">
        <ele>475.357</ele>
        <time>2019-10-14T15:07:40Z</time>
      </trkpt>
      <trkpt lat="37.30838" lon="-8.09656">
        <ele>475.212</ele>
        <time>2019-10-14T15:08:00Z</time>
      </trkpt>
      <trkpt lat="37.30837" lon="-8.09675">
        <ele>474.332</ele>
        <time>2019-10-14T15:08:20Z</time>
      </trkpt>
      <trkpt lat="37.30838" lon="-8.09687">
        <ele>473.405</ele>
        <time>2019-10-14T15:08:40Z</time>
      </trkpt>
      <trkpt lat="37.30839" lon="-8.09697">
        <ele>472.308</ele>
        <time>2019-10-14T15:09:00Z</time>
      </trkpt>
      <trkpt lat="37.30842" lon="-8.09706">
        <ele>471.195</ele>
        <time>2019-10-14T15:09:20Z</time>
      </trkpt>
      <trkpt lat="37.30845" lon="-8.09715">
        <ele>470.013</ele>
        <time>2019-10-14T15:09:40Z</time>
      </trkpt>
      <trkpt lat="37.30848" lon="-8.09721">
        <ele>469.135</ele>
        <time>2019-10-14T15:10:00Z</time>
      </trkpt>
      <trkpt lat="37.30852" lon="-8.09725">
        <ele>468.645</ele>
        <time>2019-10-14T15:10:20Z</time>
      </trkpt>
      <trkpt lat="37.30856" lon="-8.09728">
        <ele>468.317</ele>
        <time>2019-10-14T15:10:40Z</time>
      </trkpt>
      <trkpt lat="37.30862" lon="-8.09728">
        <ele>467.828</ele>
        <time>2019-10-14T15:11:00Z</time>
      </trkpt>
      <trkpt lat="37.30869" lon="-8.09727">
        <ele>467.02</ele>
        <time>2019-10-14T15:11:20Z</time>
      </trkpt>
      <trkpt lat="37.30875" lon="-8.09727">
        <ele>466.16</ele>
        <time>2019-10-14T15:11:40Z</time>
      </trkpt>
      <trkpt lat="37.30896" lon="-8.09726">
        <ele>463.455</ele>
        <time>2019-10-14T15:12:00Z</time>
      </trkpt>
      <trkpt lat="37.30905" lon="-8.09729">
        <ele>462.707</ele>
        <time>2019-10-14T15:12:20Z</time>
      </trkpt>
      <trkpt lat="37.30944" lon="-8.09745">
        <ele>464.417</ele>
        <time>2019-10-14T15:12:40Z</time>
      </trkpt>
      <trkpt lat="37.30954" lon="-8.09746">
        <ele>465.908</ele>
        <time>2019-10-14T15:13:00Z</time>
      </trkpt>
      <trkpt lat="37.30965" lon="-8.09745">
        <ele>467.119</ele>
        <time>2019-10-14T15:13:20Z</time>
      </trkpt>
      <trkpt lat="37.30976" lon="-8.09742">
        <ele>467.847</ele>
        <time>2019-10-14T15:13:40Z</time>
      </trkpt>
      <trkpt lat="37.30986" lon="-8.09739">
        <ele>467.889</ele>
        <time>2019-10-14T15:14:00Z</time>
      </trkpt>
      <trkpt lat="37.30996" lon="-8.09736">
        <ele>467.899</ele>
        <time>2019-10-14T15:14:20Z</time>
      </trkpt>
      <trkpt lat="37.31006" lon="-8.09735">
        <ele>467.641</ele>
        <time>2019-10-14T15:14:40Z</time>
      </trkpt>
      <trkpt lat="37.31016" lon="-8.09734">
        <ele>467.052</ele>
        <time>2019-10-14T15:15:00Z</time>
      </trkpt>
      <trkpt lat="37.31026" lon="-8.09732">
        <ele>466.424</ele>
        <time>2019-10-14T15:15:20Z</time>
      </trkpt>
      <trkpt lat="37.31033" lon="-8.09727">
        <ele>466.084</ele>
        <time>2019-10-14T15:15:40Z</time>
      </trkpt>
      <trkpt lat="37.31038" lon="-8.0972">
        <ele>465.646</ele>
        <time>2019-10-14T15:16:00Z</time>
      </trkpt>
      <trkpt lat="37.31041" lon="-8.09712">
        <ele>465.288</ele>
        <time>2019-10-14T15:16:20Z</time>
      </trkpt>
      <trkpt lat="37.31043" lon="-8.09702">
        <ele>464.616</ele>
        <time>2019-10-14T15:16:40Z</time>
      </trkpt>
      <trkpt lat="37.31045" lon="-8.0969">
        <ele>463.908</ele>
        <time>2019-10-14T15:17:00Z</time>
      </trkpt>
      <trkpt lat="37.31049" lon="-8.09677">
        <ele>463.378</ele>
        <time>2019-10-14T15:17:20Z</time>
      </trkpt>
      <trkpt lat="37.31054" lon="-8.09664">
        <ele>462.656</ele>
        <time>2019-10-14T15:17:40Z</time>
      </trkpt>
      <trkpt lat="37.31061" lon="-8.09651">
        <ele>462.188</ele>
        <time>2019-10-14T15:18:00Z</time>
      </trkpt>
      <trkpt lat="37.3107" lon="-8.09637">
        <ele>461.888</ele>
        <time>2019-10-14T15:18:20Z</time>
      </trkpt>
      <trkpt lat="37.31086" lon="-8.0961">
        <ele>460.17</ele>
        <time>2019-10-14T15:18:40Z</time>
      </trkpt>
      <trkpt lat="37.31097" lon="-8.09584">
        <ele>459.051</ele>
        <time>2019-10-14T15:19:00Z</time>
      </trkpt>
      <trkpt lat="37.31111" lon="-8.09562">
        <ele>457.723</ele>
        <time>2019-10-14T15:19:20Z</time>
      </trkpt>
      <trkpt lat="37.31119" lon="-8.09553">
        <ele>458.213</ele>
        <time>2019-10-14T15:19:40Z</time>
      </trkpt>
      <trkpt lat="37.3113" lon="-8.09545">
        <ele>458.738</ele>
        <time>2019-10-14T15:20:00Z</time>
      </trkpt>
      <trkpt lat="37.31209" lon="-8.09473">
        <ele>455.17</ele>
        <time>2019-10-14T15:20:20Z</time>
      </trkpt>
      <trkpt lat="37.31256" lon="-8.09439">
        <ele>453.117</ele>
        <time>2019-10-14T15:20:40Z</time>
      </trkpt>
      <trkpt lat="37.31322" lon="-8.09389">
        <ele>451.108</ele>
        <time>2019-10-14T15:21:00Z</time>
      </trkpt>
      <trkpt lat="37.31328" lon="-8.0938">
        <ele>451.187</ele>
        <time>2019-10-14T15:21:20Z</time>
      </trkpt>
      <trkpt lat="37.31334" lon="-8.09371">
        <ele>450.765</ele>
        <time>2019-10-14T15:21:40Z</time>
      </trkpt>
      <trkpt lat="37.31338" lon="-8.0936">
        <ele>450.147</ele>
        <time>2019-10-14T15:22:00Z</time>
      </trkpt>
      <trkpt lat="37.31342" lon="-8.09348">
        <ele>449.537</ele>
        <time>2019-10-14T15:22:20Z</time>
      </trkpt>
      <trkpt lat="37.31344" lon="-8.09336">
        <ele>448.929</ele>
        <time>2019-10-14T15:22:40Z</time>
      </trkpt>
      <trkpt lat="37.31345" lon="-8.09325">
        <ele>448.81</ele>
        <time>2019-10-14T15:23:00Z</time>
      </trkpt>
      <trkpt lat="37.31346" lon="-8.09317">
        <ele>448.952</ele>
        <time>2019-10-14T15:23:20Z</time>
      </trkpt>
      <trkpt lat="37.3135" lon="-8.09311">
        <ele>449.322</ele>
        <time>2019-10-14T15:23:40Z</time>
      </trkpt>
      <trkpt lat="37.31354" lon="-8.09307">
        <ele>450.027</ele>
        <time>2019-10-14T15:24:00Z</time>
      </trkpt>
      <trkpt lat="37.31359" lon="-8.09306">
        <ele>450.768</ele>
        <time>2019-10-14T15:24:20Z</time>
      </trkpt>
      <trkpt lat="37.31365" lon="-8.09307">
        <ele>451.414</ele>
        <time>2019-10-14T15:24:40Z</time>
      </trkpt>
      <trkpt lat="37.31371" lon="-8.0931">
        <ele>451.808</ele>
        <time>2019-10-14T15:25:00Z</time>
      </trkpt>
      <trkpt lat="37.31377" lon="-8.09315">
        <ele>452.246</ele>
        <time>2019-10-14T15:25:20Z</time>
      </trkpt>
      <trkpt lat="37.31384" lon="-8.09321">
        <ele>452.544</ele>
        <time>2019-10-14T15:25:40Z</time>
      </trkpt>
      <trkpt lat="37.31393" lon="-8.09327">
        <ele>452.926</ele>
        <time>2019-10-14T15:26:00Z</time>
      </trkpt>
      <trkpt lat="37.31403" lon="-8.09332">
        <ele>453.716</ele>
        <time>2019-10-14T15:26:20Z</time>
      </trkpt>
      <trkpt lat="37.31415" lon="-8.09336">
        <ele>454.688</ele>
        <time>2019-10-14T15:26:40Z</time>
      </trkpt>
      <trkpt lat="37.31427" lon="-8.09338">
        <ele>455.899</ele>
        <time>2019-10-14T15:27:00Z</time>
      </trkpt>
      <trkpt lat="37.31439" lon="-8.09339">
        <ele>457.211</ele>
        <time>2019-10-14T15:27:20Z</time>
      </trkpt>
      <trkpt lat="37.31451" lon="-8.09335">
        <ele>458.621</ele>
        <time>2019-10-14T15:27:40Z</time>
      </trkpt>
      <trkpt lat="37.31463" lon="-8.0933">
        <ele>460.159</ele>
        <time>2019-10-14T15:28:00Z</time>
      </trkpt>
      <trkpt lat="37.31475" lon="-8.09325">
        <ele>461.103</ele>
        <time>2019-10-14T15:28:20Z</time>
      </trkpt>
      <trkpt lat="37.31487" lon="-8.09323">
        <ele>461.723</ele>
        <time>2019-10-14T15:28:40Z</time>
      </trkpt>
      <trkpt lat="37.31501" lon="-8.09324">
        <ele>462.408</ele>
        <time>2019-10-14T15:29:00Z</time>
      </trkpt>
      <trkpt lat="37.31514" lon="-8.09327">
        <ele>464.459</ele>
        <time>2019-10-14T15:29:20Z</time>
      </trkpt>
      <trkpt lat="37.31528" lon="-8.09331">
        <ele>466.787</ele>
        <time>2019-10-14T15:29:40Z</time>
      </trkpt>
      <trkpt lat="37.31539" lon="-8.09336">
        <ele>467.119</ele>
        <time>2019-10-14T15:30:00Z</time>
      </trkpt>
      <trkpt lat="37.31549" lon="-8.09342">
        <ele>468.379</ele>
        <time>2019-10-14T15:30:20Z</time>
      </trkpt>
      <trkpt lat="37.31559" lon="-8.09349">
        <ele>469.691</ele>
        <time>2019-10-14T15:30:40Z</time>
      </trkpt>
      <trkpt lat="37.31632" lon="-8.09419">
        <ele>464.152</ele>
        <time>2019-10-14T15:31:00Z</time>
      </trkpt>
      <trkpt lat="37.31638" lon="-8.09428">
        <ele>463.164</ele>
        <time>2019-10-14T15:31:20Z</time>
      </trkpt>
      <trkpt lat="37.31643" lon="-8.09439">
        <ele>462.614</ele>
        <time>2019-10-14T15:31:40Z</time>
      </trkpt>
      <trkpt lat="37.31646" lon="-8.0945">
        <ele>462.762</ele>
        <time>2019-10-14T15:32:00Z</time>
      </trkpt>
      <trkpt lat="37.31649" lon="-8.09461">
        <ele>463.183</ele>
        <time>2019-10-14T15:32:20Z</time>
      </trkpt>
      <trkpt lat="37.31652" lon="-8.09472">
        <ele>463.111</ele>
        <time>2019-10-14T15:32:40Z</time>
      </trkpt>
      <trkpt lat="37.31657" lon="-8.09481">
        <ele>462.608</ele>
        <time>2019-10-14T15:33:00Z</time>
      </trkpt>
      <trkpt lat="37.31664" lon="-8.09489">
        <ele>461.35</ele>
        <time>2019-10-14T15:33:20Z</time>
      </trkpt>
      <trkpt lat="37.31672" lon="-8.09495">
        <ele>460.328</ele>
        <time>2019-10-14T15:33:40Z</time>
      </trkpt>
      <trkpt lat="37.31683" lon="-8.09501">
        <ele>459.15</ele>
        <time>2019-10-14T15:34:00Z</time>
      </trkpt>
      <trkpt lat="37.31726" lon="-8.09528">
        <ele>455.49</ele>
        <time>2019-10-14T15:34:20Z</time>
      </trkpt>
      <trkpt lat="37.31751" lon="-8.0955">
        <ele>449.522</ele>
        <time>2019-10-14T15:34:40Z</time>
      </trkpt>
      <trkpt lat="37.31759" lon="-8.09555">
        <ele>448.723</ele>
        <time>2019-10-14T15:35:00Z</time>
      </trkpt>
      <trkpt lat="37.31768" lon="-8.09558">
        <ele>448.185</ele>
        <time>2019-10-14T15:35:20Z</time>
      </trkpt>
      <trkpt lat="37.31778" lon="-8.09558">
        <ele>447.815</ele>
        <time>2019-10-14T15:35:40Z</time>
      </trkpt>
      <trkpt lat="37.31788" lon="-8.09555">
        <ele>448.095</ele>
        <time>2019-10-14T15:36:00Z</time>
      </trkpt>
      <trkpt lat="37.31799" lon="-8.09548">
        <ele>448.649</ele>
        <time>2019-10-14T15:36:20Z</time>
      </trkpt>
      <trkpt lat="37.31811" lon="-8.0954">
        <ele>449.623</ele>
        <time>2019-10-14T15:36:40Z</time>
      </trkpt>
      <trkpt lat="37.31823" lon="-8.09533">
        <ele>451.308</ele>
        <time>2019-10-14T15:37:00Z</time>
      </trkpt>
      <trkpt lat="37.31836" lon="-8.09529">
        <ele>453.253</ele>
        <time>2019-10-14T15:37:20Z</time>
      </trkpt>
      <trkpt lat="37.31849" lon="-8.09527">
        <ele>455.831</ele>
        <time>2019-10-14T15:37:40Z</time>
      </trkpt>
      <trkpt lat="37.31861" lon="-8.09527">
        <ele>458.093</ele>
        <time>2019-10-14T15:38:00Z</time>
      </trkpt>
      <trkpt lat="37.31874" lon="-8.0953">
        <ele>459.683</ele>
        <time>2019-10-14T15:38:20Z</time>
      </trkpt>
      <trkpt lat="37.31886" lon="-8.09535">
        <ele>461.045</ele>
        <time>2019-10-14T15:38:40Z</time>
      </trkpt>
      <trkpt lat="37.31898" lon="-8.09543">
        <ele>462.166</ele>
        <time>2019-10-14T15:39:00Z</time>
      </trkpt>
      <trkpt lat="37.31909" lon="-8.09549">
        <ele>463.318</ele>
        <time>2019-10-14T15:39:20Z</time>
      </trkpt>
      <trkpt lat="37.31922" lon="-8.09552">
        <ele>464.698</ele>
        <time>2019-10-14T15:39:40Z</time>
      </trkpt>
      <trkpt lat="37.31935" lon="-8.09553">
        <ele>466.021</ele>
        <time>2019-10-14T15:40:00Z</time>
      </trkpt>
      <trkpt lat="37.31949" lon="-8.09553">
        <ele>467.241</ele>
        <time>2019-10-14T15:40:20Z</time>
      </trkpt>
      <trkpt lat="37.31964" lon="-8.09551">
        <ele>467.805</ele>
        <time>2019-10-14T15:40:40Z</time>
      </trkpt>
      <trkpt lat="37.3198" lon="-8.09549">
        <ele>468.808</ele>
        <time>2019-10-14T15:41:00Z</time>
      </trkpt>
      <trkpt lat="37.32037" lon="-8.0954">
        <ele>469.826</ele>
        <time>2019-10-14T15:41:20Z</time>
      </trkpt>
      <trkpt lat="37.32122" lon="-8.09549">
        <ele>467.564</ele>
        <time>2019-10-14T15:41:40Z</time>
      </trkpt>
      <trkpt lat="37.32139" lon="-8.09555">
        <ele>469.936</ele>
        <time>2019-10-14T15:42:00Z</time>
      </trkpt>
      <trkpt lat="37.32155" lon="-8.09562">
        <ele>473.046</ele>
        <time>2019-10-14T15:42:20Z</time>
      </trkpt>
      <trkpt lat="37.32169" lon="-8.0957">
        <ele>474.988</ele>
        <time>2019-10-14T15:42:40Z</time>
      </trkpt>
      <trkpt lat="37.32183" lon="-8.09575">
        <ele>477.289</ele>
        <time>2019-10-14T15:43:00Z</time>
      </trkpt>
      <trkpt lat="37.32197" lon="-8.09579">
        <ele>479.881</ele>
        <time>2019-10-14T15:43:20Z</time>
      </trkpt>
      <trkpt lat="37.32212" lon="-8.09582">
        <ele>482.291</ele>
        <time>2019-10-14T15:43:40Z</time>
      </trkpt>
      <trkpt lat="37.32251" lon="-8.09587">
        <ele>490.194</ele>
        <time>2019-10-14T15:44:00Z</time>
      </trkpt>
      <trkpt lat="37.32264" lon="-8.0959">
        <ele>490.457</ele>
        <time>2019-10-14T15:44:20Z</time>
      </trkpt>
      <trkpt lat="37.32268" lon="-8.09593">
        <ele>490.622</ele>
        <time>2019-10-14T15:44:40Z</time>
      </trkpt>
      <trkpt lat="37.32271" lon="-8.09598">
        <ele>490.908</ele>
        <time>2019-10-14T15:45:00Z</time>
      </trkpt>
      <trkpt lat="37.32274" lon="-8.09606">
        <ele>491.683</ele>
        <time>2019-10-14T15:45:20Z</time>
      </trkpt>
      <trkpt lat="37.32278" lon="-8.09618">
        <ele>492.051</ele>
        <time>2019-10-14T15:45:40Z</time>
      </trkpt>
      <trkpt lat="37.32282" lon="-8.09633">
        <ele>491.663</ele>
        <time>2019-10-14T15:46:00Z</time>
      </trkpt>
      <trkpt lat="37.32285" lon="-8.09652">
        <ele>491.333</ele>
        <time>2019-10-14T15:46:20Z</time>
      </trkpt>
      <trkpt lat="37.32297" lon="-8.09733">
        <ele>495.915</ele>
        <time>2019-10-14T15:46:40Z</time>
      </trkpt>
      <trkpt lat="37.32299" lon="-8.09753">
        <ele>499.476</ele>
        <time>2019-10-14T15:47:00Z</time>
      </trkpt>
      <trkpt lat="37.32303" lon="-8.09845">
        <ele>502.018</ele>
        <time>2019-10-14T15:47:20Z</time>
      </trkpt>
      <trkpt lat="37.32306" lon="-8.09859">
        <ele>501.118</ele>
        <time>2019-10-14T15:47:40Z</time>
      </trkpt>
      <trkpt lat="37.32311" lon="-8.09872">
        <ele>501.424</ele>
        <time>2019-10-14T15:48:00Z</time>
      </trkpt>
      <trkpt lat="37.32319" lon="-8.09884">
        <ele>502.104</ele>
        <time>2019-10-14T15:48:20Z</time>
      </trkpt>
      <trkpt lat="37.32329" lon="-8.09895">
        <ele>503.214</ele>
        <time>2019-10-14T15:48:40Z</time>
      </trkpt>
      <trkpt lat="37.32339" lon="-8.09905">
        <ele>504.008</ele>
        <time>2019-10-14T15:49:00Z</time>
      </trkpt>
      <trkpt lat="37.32367" lon="-8.09938">
        <ele>504.066</ele>
        <time>2019-10-14T15:49:20Z</time>
      </trkpt>
      <trkpt lat="37.32375" lon="-8.09948">
        <ele>503.524</ele>
        <time>2019-10-14T15:49:40Z</time>
      </trkpt>
      <trkpt lat="37.32391" lon="-8.09969">
        <ele>501.536</ele>
        <time>2019-10-14T15:50:00Z</time>
      </trkpt>
      <trkpt lat="37.32398" lon="-8.09981">
        <ele>500.116</ele>
        <time>2019-10-14T15:50:20Z</time>
      </trkpt>
      <trkpt lat="37.32404" lon="-8.09995">
        <ele>498.888</ele>
        <time>2019-10-14T15:50:40Z</time>
      </trkpt>
      <trkpt lat="37.32409" lon="-8.10011">
        <ele>498.349</ele>
        <time>2019-10-14T15:51:00Z</time>
      </trkpt>
      <trkpt lat="37.32415" lon="-8.10027">
        <ele>498.331</ele>
        <time>2019-10-14T15:51:20Z</time>
      </trkpt>
      <trkpt lat="37.3243" lon="-8.10082">
        <ele>494.291</ele>
        <time>2019-10-14T15:51:40Z</time>
      </trkpt>
      <trkpt lat="37.32434" lon="-8.10092">
        <ele>493.465</ele>
        <time>2019-10-14T15:52:00Z</time>
      </trkpt>
      <trkpt lat="37.3244" lon="-8.10101">
        <ele>492.068</ele>
        <time>2019-10-14T15:52:20Z</time>
      </trkpt>
      <trkpt lat="37.32457" lon="-8.10122">
        <ele>491.014</ele>
        <time>2019-10-14T15:52:40Z</time>
      </trkpt>
      <trkpt lat="37.32476" lon="-8.10143">
        <ele>491.908</ele>
        <time>2019-10-14T15:53:00Z</time>
      </trkpt>
      <trkpt lat="37.32487" lon="-8.10151">
        <ele>491.14</ele>
        <time>2019-10-14T15:53:20Z</time>
      </trkpt>
      <trkpt lat="37.325" lon="-8.10157">
        <ele>489.888</ele>
        <time>2019-10-14T15:53:40Z</time>
      </trkpt>
      <trkpt lat="37.32514" lon="-8.10161">
        <ele>488.04</ele>
        <time>2019-10-14T15:54:00Z</time>
      </trkpt>
      <trkpt lat="37.32537" lon="-8.10171">
        <ele>486.45</ele>
        <time>2019-10-14T15:54:20Z</time>
      </trkpt>
      <trkpt lat="37.32547" lon="-8.10178">
        <ele>486.862</ele>
        <time>2019-10-14T15:54:40Z</time>
      </trkpt>
      <trkpt lat="37.32555" lon="-8.10186">
        <ele>487.163</ele>
        <time>2019-10-14T15:55:00Z</time>
      </trkpt>
      <trkpt lat="37.32581" lon="-8.10216">
        <ele>484.065</ele>
        <time>2019-10-14T15:55:20Z</time>
      </trkpt>
      <trkpt lat="37.32591" lon="-8.10226">
        <ele>482.495</ele>
        <time>2019-10-14T15:55:40Z</time>
      </trkpt>
      <trkpt lat="37.32601" lon="-8.10235">
        <ele>480.665</ele>
        <time>2019-10-14T15:56:00Z</time>
      </trkpt>
      <trkpt lat="37.32612" lon="-8.10243">
        <ele>479.468</ele>
        <time>2019-10-14T15:56:20Z</time>
      </trkpt>
      <trkpt lat="37.32624" lon="-8.1025">
        <ele>479.114</ele>
        <time>2019-10-14T15:56:40Z</time>
      </trkpt>
      <trkpt lat="37.32636" lon="-8.10254">
        <ele>478.108</ele>
        <time>2019-10-14T15:57:00Z</time>
      </trkpt>
      <trkpt lat="37.32648" lon="-8.10254">
        <ele>477.86</ele>
        <time>2019-10-14T15:57:20Z</time>
      </trkpt>
      <trkpt lat="37.32661" lon="-8.10252">
        <ele>477.988</ele>
        <time>2019-10-14T15:57:40Z</time>
      </trkpt>
      <trkpt lat="37.32673" lon="-8.10249">
        <ele>477.79</ele>
        <time>2019-10-14T15:58:00Z</time>
      </trkpt>
      <trkpt lat="37.32684" lon="-8.10247">
        <ele>476.94</ele>
        <time>2019-10-14T15:58:20Z</time>
      </trkpt>
      <trkpt lat="37.32694" lon="-8.10246">
        <ele>476.392</ele>
        <time>2019-10-14T15:58:40Z</time>
      </trkpt>
      <trkpt lat="37.32702" lon="-8.10246">
        <ele>475.663</ele>
        <time>2019-10-14T15:59:00Z</time>
      </trkpt>
      <trkpt lat="37.32709" lon="-8.10248">
        <ele>475.165</ele>
        <time>2019-10-14T15:59:20Z</time>
      </trkpt>
      <trkpt lat="37.32717" lon="-8.10251">
        <ele>474.725</ele>
        <time>2019-10-14T15:59:40Z</time>
      </trkpt>
      <trkpt lat="37.32725" lon="-8.10255">
        <ele>474.615</ele>
        <time>2019-10-14T16:00:00Z</time>
      </trkpt>
      <trkpt lat="37.3275" lon="-8.10268">
        <ele>476.565</ele>
        <time>2019-10-14T16:00:20Z</time>
      </trkpt>
      <trkpt lat="37.32758" lon="-8.10269">
        <ele>476.111</ele>
        <time>2019-10-14T16:00:40Z</time>
      </trkpt>
      <trkpt lat="37.32824" lon="-8.10271">
        <ele>469.108</ele>
        <time>2019-10-14T16:01:00Z</time>
      </trkpt>
      <trkpt lat="37.32836" lon="-8.10268">
        <ele>468.485</ele>
        <time>2019-10-14T16:01:20Z</time>
      </trkpt>
      <trkpt lat="37.32846" lon="-8.10265">
        <ele>468.733</ele>
        <time>2019-10-14T16:01:40Z</time>
      </trkpt>
      <trkpt lat="37.32855" lon="-8.10261">
        <ele>469.175</ele>
        <time>2019-10-14T16:02:00Z</time>
      </trkpt>
      <trkpt lat="37.32862" lon="-8.10255">
        <ele>469.625</ele>
        <time>2019-10-14T16:02:20Z</time>
      </trkpt>
      <trkpt lat="37.32867" lon="-8.10247">
        <ele>469.997</ele>
        <time>2019-10-14T16:02:40Z</time>
      </trkpt>
      <trkpt lat="37.3287" lon="-8.10236">
        <ele>470.438</ele>
        <time>2019-10-14T16:03:00Z</time>
      </trkpt>
      <trkpt lat="37.32873" lon="-8.10225">
        <ele>470.96</ele>
        <time>2019-10-14T16:03:20Z</time>
      </trkpt>
      <trkpt lat="37.32877" lon="-8.10216">
        <ele>471.07</ele>
        <time>2019-10-14T16:03:40Z</time>
      </trkpt>
      <trkpt lat="37.32883" lon="-8.10208">
        <ele>471.391</ele>
        <time>2019-10-14T16:04:00Z</time>
      </trkpt>
      <trkpt lat="37.32891" lon="-8.10201">
        <ele>471.881</ele>
        <time>2019-10-14T16:04:20Z</time>
      </trkpt>
      <trkpt lat="37.329" lon="-8.10195">
        <ele>472.419</ele>
        <time>2019-10-14T16:04:40Z</time>
      </trkpt>
      <trkpt lat="37.3291" lon="-8.10187">
        <ele>472.608</ele>
        <time>2019-10-14T16:05:00Z</time>
      </trkpt>
      <trkpt lat="37.3292" lon="-8.10178">
        <ele>472.873</ele>
        <time>2019-10-14T16:05:20Z</time>
      </trkpt>
      <trkpt lat="37.32928" lon="-8.10166">
        <ele>472.631</ele>
        <time>2019-10-14T16:05:40Z</time>
      </trkpt>
      <trkpt lat="37.3296" lon="-8.10122">
        <ele>474.673</ele>
        <time>2019-10-14T16:06:00Z</time>
      </trkpt>
      <trkpt lat="37.3297" lon="-8.10114">
        <ele>475.533</ele>
        <time>2019-10-14T16:06:20Z</time>
      </trkpt>
      <trkpt lat="37.3298" lon="-8.10109">
        <ele>475.015</ele>
        <time>2019-10-14T16:06:40Z</time>
      </trkpt>
      <trkpt lat="37.32988" lon="-8.10106">
        <ele>473.936</ele>
        <time>2019-10-14T16:07:00Z</time>
      </trkpt>
      <trkpt lat="37.32997" lon="-8.10102">
        <ele>473.128</ele>
        <time>2019-10-14T16:07:20Z</time>
      </trkpt>
      <trkpt lat="37.33005" lon="-8.10097">
        <ele>472.968</ele>
        <time>2019-10-14T16:07:40Z</time>
      </trkpt>
      <trkpt lat="37.33013" lon="-8.10091">
        <ele>472.943</ele>
        <time>2019-10-14T16:08:00Z</time>
      </trkpt>
      <trkpt lat="37.33029" lon="-8.10076">
        <ele>472.364</ele>
        <time>2019-10-14T16:08:20Z</time>
      </trkpt>
      <trkpt lat="37.33037" lon="-8.10066">
        <ele>472.21</ele>
        <time>2019-10-14T16:08:40Z</time>
      </trkpt>
      <trkpt lat="37.33052" lon="-8.10043">
        <ele>472.508</ele>
        <time>2019-10-14T16:09:00Z</time>
      </trkpt>
      <trkpt lat="37.33059" lon="-8.1003">
        <ele>473.238</ele>
        <time>2019-10-14T16:09:20Z</time>
      </trkpt>
      <trkpt lat="37.33075" lon="-8.1">
        <ele>473.886</ele>
        <time>2019-10-14T16:09:40Z</time>
      </trkpt>
      <trkpt lat="37.33082" lon="-8.09996">
        <ele>474.578</ele>
        <time>2019-10-14T16:10:00Z</time>
      </trkpt>
      <trkpt lat="37.33089" lon="-8.09995">
        <ele>475.528</ele>
        <time>2019-10-14T16:10:20Z</time>
      </trkpt>
      <trkpt lat="37.33098" lon="-8.09996">
        <ele>476.85</ele>
        <time>2019-10-14T16:10:40Z</time>
      </trkpt>
      <trkpt lat="37.33107" lon="-8.09997">
        <ele>478.281</ele>
        <time>2019-10-14T16:11:00Z</time>
      </trkpt>
      <trkpt lat="37.33117" lon="-8.09997">
        <ele>479.633</ele>
        <time>2019-10-14T16:11:20Z</time>
      </trkpt>
      <trkpt lat="37.33126" lon="-8.09993">
        <ele>480.773</ele>
        <time>2019-10-14T16:11:40Z</time>
      </trkpt>
      <trkpt lat="37.33134" lon="-8.09987">
        <ele>481.498</ele>
        <time>2019-10-14T16:12:00Z</time>
      </trkpt>
      <trkpt lat="37.33141" lon="-8.09982">
        <ele>481.915</ele>
        <time>2019-10-14T16:12:20Z</time>
      </trkpt>
      <trkpt lat="37.33148" lon="-8.09978">
        <ele>482.326</ele>
        <time>2019-10-14T16:12:40Z</time>
      </trkpt>
      <trkpt lat="37.33157" lon="-8.09977">
        <ele>482.808</ele>
        <time>2019-10-14T16:13:00Z</time>
      </trkpt>
      <trkpt lat="37.33167" lon="-8.09976">
        <ele>483.673</ele>
        <time>2019-10-14T16:13:20Z</time>
      </trkpt>
      <trkpt lat="37.33212" lon="-8.0997">
        <ele>487.091</ele>
        <time>2019-10-14T16:13:40Z</time>
      </trkpt>
      <trkpt lat="37.33221" lon="-8.09965">
        <ele>487.453</ele>
        <time>2019-10-14T16:14:00Z</time>
      </trkpt>
      <trkpt lat="37.3323" lon="-8.0996">
        <ele>487.123</ele>
        <time>2019-10-14T16:14:20Z</time>
      </trkpt>
      <trkpt lat="37.3324" lon="-8.09953">
        <ele>486.915</ele>
        <time>2019-10-14T16:14:40Z</time>
      </trkpt>
      <trkpt lat="37.33251" lon="-8.09947">
        <ele>487.096</ele>
        <time>2019-10-14T16:15:00Z</time>
      </trkpt>
      <trkpt lat="37.33279" lon="-8.09927">
        <ele>485.628</ele>
        <time>2019-10-14T16:15:20Z</time>
      </trkpt>
      <trkpt lat="37.33285" lon="-8.09918">
        <ele>485.928</ele>
        <time>2019-10-14T16:15:40Z</time>
      </trkpt>
      <trkpt lat="37.3329" lon="-8.09907">
        <ele>485.864</ele>
        <time>2019-10-14T16:16:00Z</time>
      </trkpt>
      <trkpt lat="37.33295" lon="-8.09894">
        <ele>485.806</ele>
        <time>2019-10-14T16:16:20Z</time>
      </trkpt>
      <trkpt lat="37.33297" lon="-8.09881">
        <ele>485.816</ele>
        <time>2019-10-14T16:16:40Z</time>
      </trkpt>
      <trkpt lat="37.33298" lon="-8.09868">
        <ele>485.608</ele>
        <time>2019-10-14T16:17:00Z</time>
      </trkpt>
      <trkpt lat="37.33299" lon="-8.09858">
        <ele>485.32</ele>
        <time>2019-10-14T16:17:20Z</time>
      </trkpt>
      <trkpt lat="37.33302" lon="-8.0985">
        <ele>484.848</ele>
        <time>2019-10-14T16:17:40Z</time>
      </trkpt>
      <trkpt lat="37.33307" lon="-8.09844">
        <ele>484.59</ele>
        <time>2019-10-14T16:18:00Z</time>
      </trkpt>
      <trkpt lat="37.33313" lon="-8.09839">
        <ele>483.89</ele>
        <time>2019-10-14T16:18:20Z</time>
      </trkpt>
      <trkpt lat="37.33321" lon="-8.09835">
        <ele>483.362</ele>
        <time>2019-10-14T16:18:40Z</time>
      </trkpt>
      <trkpt lat="37.3333" lon="-8.09832">
        <ele>482.723</ele>
        <time>2019-10-14T16:19:00Z</time>
      </trkpt>
      <trkpt lat="37.3334" lon="-8.09829">
        <ele>481.075</ele>
        <time>2019-10-14T16:19:20Z</time>
      </trkpt>
      <trkpt lat="37.33349" lon="-8.09824">
        <ele>478.885</ele>
        <time>2019-10-14T16:19:40Z</time>
      </trkpt>
      <trkpt lat="37.33358" lon="-8.09819">
        <ele>476.771</ele>
        <time>2019-10-14T16:20:00Z</time>
      </trkpt>
      <trkpt lat="37.33385" lon="-8.09806">
        <ele>473.241</ele>
        <time>2019-10-14T16:20:20Z</time>
      </trkpt>
      <trkpt lat="37.33411" lon="-8.09794">
        <ele>471.815</ele>
        <time>2019-10-14T16:20:40Z</time>
      </trkpt>
      <trkpt lat="37.33417" lon="-8.09789">
        <ele>471.308</ele>
        <time>2019-10-14T16:21:00Z</time>
      </trkpt>
      <trkpt lat="37.33422" lon="-8.09782">
        <ele>470.181</ele>
        <time>2019-10-14T16:21:20Z</time>
      </trkpt>
      <trkpt lat="37.33423" lon="-8.09774">
        <ele>469.769</ele>
        <time>2019-10-14T16:21:40Z</time>
      </trkpt>
      <trkpt lat="37.33422" lon="-8.09763">
        <ele>470.271</ele>
        <time>2019-10-14T16:22:00Z</time>
      </trkpt>
      <trkpt lat="37.3342" lon="-8.09749">
        <ele>471.181</ele>
        <time>2019-10-14T16:22:20Z</time>
      </trkpt>
      <trkpt lat="37.33411" lon="-8.09697">
        <ele>468.923</ele>
        <time>2019-10-14T16:22:40Z</time>
      </trkpt>
      <trkpt lat="37.33383" lon="-8.09594">
        <ele>471.614</ele>
        <time>2019-10-14T16:23:00Z</time>
      </trkpt>
      <trkpt lat="37.33374" lon="-8.09566">
        <ele>473.596</ele>
        <time>2019-10-14T16:23:20Z</time>
      </trkpt>
      <trkpt lat="37.3337" lon="-8.09554">
        <ele>474.316</ele>
        <time>2019-10-14T16:23:40Z</time>
      </trkpt>
      <trkpt lat="37.33367" lon="-8.09542">
        <ele>474.335</ele>
        <time>2019-10-14T16:24:00Z</time>
      </trkpt>
      <trkpt lat="37.33366" lon="-8.09529">
        <ele>474.386</ele>
        <time>2019-10-14T16:24:20Z</time>
      </trkpt>
      <trkpt lat="37.33367" lon="-8.09516">
        <ele>473.414</ele>
        <time>2019-10-14T16:24:40Z</time>
      </trkpt>
      <trkpt lat="37.3337" lon="-8.09503">
        <ele>472.208</ele>
        <time>2019-10-14T16:25:00Z</time>
      </trkpt>
      <trkpt lat="37.33375" lon="-8.0949">
        <ele>470.697</ele>
        <time>2019-10-14T16:25:20Z</time>
      </trkpt>
      <trkpt lat="37.33381" lon="-8.09476">
        <ele>469.275</ele>
        <time>2019-10-14T16:25:40Z</time>
      </trkpt>
      <trkpt lat="37.33388" lon="-8.09462">
        <ele>468.397</ele>
        <time>2019-10-14T16:26:00Z</time>
      </trkpt>
      <trkpt lat="37.33396" lon="-8.09449">
        <ele>466.727</ele>
        <time>2019-10-14T16:26:20Z</time>
      </trkpt>
      <trkpt lat="37.33405" lon="-8.09437">
        <ele>466.269</ele>
        <time>2019-10-14T16:26:40Z</time>
      </trkpt>
      <trkpt lat="37.33414" lon="-8.09425">
        <ele>466.46</ele>
        <time>2019-10-14T16:27:00Z</time>
      </trkpt>
      <trkpt lat="37.33422" lon="-8.09413">
        <ele>466.742</ele>
        <time>2019-10-14T16:27:20Z</time>
      </trkpt>
      <trkpt lat="37.33429" lon="-8.09398">
        <ele>466.962</ele>
        <time>2019-10-14T16:27:40Z</time>
      </trkpt>
      <trkpt lat="37.33444" lon="-8.09356">
        <ele>470.217</ele>
        <time>2019-10-14T16:28:00Z</time>
      </trkpt>
      <trkpt lat="37.33454" lon="-8.09333">
        <ele>468.687</ele>
        <time>2019-10-14T16:28:20Z</time>
      </trkpt>
      <trkpt lat="37.33461" lon="-8.09322">
        <ele>469.215</ele>
        <time>2019-10-14T16:28:40Z</time>
      </trkpt>
      <trkpt lat="37.3347" lon="-8.09313">
        <ele>468.908</ele>
        <time>2019-10-14T16:29:00Z</time>
      </trkpt>
      <trkpt lat="37.33481" lon="-8.09305">
        <ele>468.125</ele>
        <time>2019-10-14T16:29:20Z</time>
      </trkpt>
      <trkpt lat="37.3349" lon="-8.09297">
        <ele>467.713</ele>
        <time>2019-10-14T16:29:40Z</time>
      </trkpt>
      <trkpt lat="37.33499" lon="-8.09288">
        <ele>467.995</ele>
        <time>2019-10-14T16:30:00Z</time>
      </trkpt>
      <trkpt lat="37.33505" lon="-8.09276">
        <ele>468.855</ele>
        <time>2019-10-14T16:30:20Z</time>
      </trkpt>
      <trkpt lat="37.33509" lon="-8.09263">
        <ele>469.947</ele>
        <time>2019-10-14T16:30:40Z</time>
      </trkpt>
      <trkpt lat="37.33512" lon="-8.09248">
        <ele>471.528</ele>
        <time>2019-10-14T16:31:00Z</time>
      </trkpt>
      <trkpt lat="37.33513" lon="-8.09232">
        <ele>472.35</ele>
        <time>2019-10-14T16:31:20Z</time>
      </trkpt>
      <trkpt lat="37.33514" lon="-8.09216">
        <ele>473.39</ele>
        <time>2019-10-14T16:31:40Z</time>
      </trkpt>
      <trkpt lat="37.33516" lon="-8.092">
        <ele>473.816</ele>
        <time>2019-10-14T16:32:00Z</time>
      </trkpt>
      <trkpt lat="37.33518" lon="-8.09185">
        <ele>474.276</ele>
        <time>2019-10-14T16:32:20Z</time>
      </trkpt>
      <trkpt lat="37.33527" lon="-8.09152">
        <ele>474.213</ele>
        <time>2019-10-14T16:32:40Z</time>
      </trkpt>
      <trkpt lat="37.3353" lon="-8.09147">
        <ele>473.808</ele>
        <time>2019-10-14T16:33:00Z</time>
      </trkpt>
      <trkpt lat="37.33535" lon="-8.09144">
        <ele>473.525</ele>
        <time>2019-10-14T16:33:20Z</time>
      </trkpt>
      <trkpt lat="37.33539" lon="-8.09143">
        <ele>473.233</ele>
        <time>2019-10-14T16:33:40Z</time>
      </trkpt>
      <trkpt lat="37.33543" lon="-8.09144">
        <ele>472.945</ele>
        <time>2019-10-14T16:34:00Z</time>
      </trkpt>
      <trkpt lat="37.33546" lon="-8.09147">
        <ele>472.735</ele>
        <time>2019-10-14T16:34:20Z</time>
      </trkpt>
      <trkpt lat="37.33548" lon="-8.09151">
        <ele>472.587</ele>
        <time>2019-10-14T16:34:40Z</time>
      </trkpt>
      <trkpt lat="37.33557" lon="-8.09161">
        <ele>472.048</ele>
        <time>2019-10-14T16:35:00Z</time>
      </trkpt>
      <trkpt lat="37.33557" lon="-8.09161">
        <ele>472.06</ele>
        <time>2019-10-14T16:35:20Z</time>
      </trkpt>
      <trkpt lat="37.33557" lon="-8.09162">
        <ele>472.09</ele>
        <time>2019-10-14T16:35:40Z</time>
      </trkpt>
      <trkpt lat="37.33567" lon="-8.09173">
        <ele>472.094</ele>
        <time>2019-10-14T16:36:00Z</time>
      </trkpt>
      <trkpt lat="37.33574" lon="-8.09179">
        <ele>472.157</ele>
        <time>2019-10-14T16:36:20Z</time>
      </trkpt>
      <trkpt lat="37.33583" lon="-8.09185">
        <ele>472.622</ele>
        <time>2019-10-14T16:36:40Z</time>
      </trkpt>
      <trkpt lat="37.33593" lon="-8.0919">
        <ele>472.808</ele>
        <time>2019-10-14T16:37:00Z</time>
      </trkpt>
      <trkpt lat="37.33603" lon="-8.09193">
        <ele>472.963</ele>
        <time>2019-10-14T16:37:20Z</time>
      </trkpt>
      <trkpt lat="37.33613" lon="-8.09194">
        <ele>472.971</ele>
        <time>2019-10-14T16:37:40Z</time>
      </trkpt>
      <trkpt lat="37.33622" lon="-8.09192">
        <ele>472.433</ele>
        <time>2019-10-14T16:38:00Z</time>
      </trkpt>
      <trkpt lat="37.3363" lon="-8.09188">
        <ele>471.993</ele>
        <time>2019-10-14T16:38:20Z</time>
      </trkpt>
      <trkpt lat="37.33636" lon="-8.09181">
        <ele>471.175</ele>
        <time>2019-10-14T16:38:40Z</time>
      </trkpt>
      <trkpt lat="37.33643" lon="-8.09173">
        <ele>470.516</ele>
        <time>2019-10-14T16:39:00Z</time>
      </trkpt>
      <trkpt lat="37.3365" lon="-8.09164">
        <ele>469.848</ele>
        <time>2019-10-14T16:39:20Z</time>
      </trkpt>
      <trkpt lat="37.33657" lon="-8.09155">
        <ele>469.138</ele>
        <time>2019-10-14T16:39:40Z</time>
      </trkpt>
      <trkpt lat="37.33663" lon="-8.09144">
        <ele>468.341</ele>
        <time>2019-10-14T16:40:00Z</time>
      </trkpt>
      <trkpt lat="37.33668" lon="-8.09131">
        <ele>467.581</ele>
        <time>2019-10-14T16:40:20Z</time>
      </trkpt>
      <trkpt lat="37.33672" lon="-8.09117">
        <ele>466.809</ele>
        <time>2019-10-14T16:40:40Z</time>
      </trkpt>
      <trkpt lat="37.33692" lon="-8.09046">
        <ele>460.308</ele>
        <time>2019-10-14T16:41:00Z</time>
      </trkpt>
      <trkpt lat="37.33698" lon="-8.09034">
        <ele>459.488</ele>
        <time>2019-10-14T16:41:20Z</time>
      </trkpt>
      <trkpt lat="37.33704" lon="-8.09021">
        <ele>459.046</ele>
        <time>2019-10-14T16:41:40Z</time>
      </trkpt>
      <trkpt lat="37.33712" lon="-8.09009">
        <ele>459.698</ele>
        <time>2019-10-14T16:42:00Z</time>
      </trkpt>
      <trkpt lat="37.3372" lon="-8.08998">
        <ele>460.898</ele>
        <time>2019-10-14T16:42:20Z</time>
      </trkpt>
      <trkpt lat="37.33729" lon="-8.0899">
        <ele>462.14</ele>
        <time>2019-10-14T16:42:40Z</time>
      </trkpt>
      <trkpt lat="37.33739" lon="-8.08984">
        <ele>463.161</ele>
        <time>2019-10-14T16:43:00Z</time>
      </trkpt>
      <trkpt lat="37.33749" lon="-8.08982">
        <ele>463.943</ele>
        <time>2019-10-14T16:43:20Z</time>
      </trkpt>
      <trkpt lat="37.33758" lon="-8.08979">
        <ele>463.533</ele>
        <time>2019-10-14T16:43:40Z</time>
      </trkpt>
      <trkpt lat="37.33765" lon="-8.08975">
        <ele>463.549</ele>
        <time>2019-10-14T16:44:00Z</time>
      </trkpt>
      <trkpt lat="37.33771" lon="-8.08969">
        <ele>464.002</ele>
        <time>2019-10-14T16:44:20Z</time>
      </trkpt>
      <trkpt lat="37.33777" lon="-8.08959">
        <ele>464.922</ele>
        <time>2019-10-14T16:44:40Z</time>
      </trkpt>
      <trkpt lat="37.33783" lon="-8.08949">
        <ele>465.308</ele>
        <time>2019-10-14T16:45:00Z</time>
      </trkpt>
      <trkpt lat="37.33789" lon="-8.08938">
        <ele>465.678</ele>
        <time>2019-10-14T16:45:20Z</time>
      </trkpt>
      <trkpt lat="37.33792" lon="-8.08926">
        <ele>465.956</ele>
        <time>2019-10-14T16:45:40Z</time>
      </trkpt>
      <trkpt lat="37.33792" lon="-8.08914">
        <ele>466.618</ele>
        <time>2019-10-14T16:46:00Z</time>
      </trkpt>
      <trkpt lat="37.33789" lon="-8.08903">
        <ele>467.528</ele>
        <time>2019-10-14T16:46:20Z</time>
      </trkpt>
      <trkpt lat="37.33784" lon="-8.0889">
        <ele>468.86</ele>
        <time>2019-10-14T16:46:40Z</time>
      </trkpt>
      <trkpt lat="37.33778" lon="-8.08877">
        <ele>469.931</ele>
        <time>2019-10-14T16:47:00Z</time>
      </trkpt>
      <trkpt lat="37.33773" lon="-8.08861">
        <ele>470.743</ele>
        <time>2019-10-14T16:47:20Z</time>
      </trkpt>
      <trkpt lat="37.33768" lon="-8.08845">
        <ele>470.513</ele>
        <time>2019-10-14T16:47:40Z</time>
      </trkpt>
      <trkpt lat="37.33746" lon="-8.08771">
        <ele>471.169</ele>
        <time>2019-10-14T16:48:00Z</time>
      </trkpt>
      <trkpt lat="37.33747" lon="-8.08767">
        <ele>471.004</ele>
        <time>2019-10-14T16:48:20Z</time>
      </trkpt>
      <trkpt lat="37.3375" lon="-8.08765">
        <ele>471.024</ele>
        <time>2019-10-14T16:48:40Z</time>
      </trkpt>
      <trkpt lat="37.33753" lon="-8.08765">
        <ele>470.908</ele>
        <time>2019-10-14T16:49:00Z</time>
      </trkpt>
      <trkpt lat="37.33756" lon="-8.08767">
        <ele>470.79</ele>
        <time>2019-10-14T16:49:20Z</time>
      </trkpt>
      <trkpt lat="37.3376" lon="-8.08772">
        <ele>470.578</ele>
        <time>2019-10-14T16:49:40Z</time>
      </trkpt>
      <trkpt lat="37.33766" lon="-8.08778">
        <ele>469.94</ele>
        <time>2019-10-14T16:50:00Z</time>
      </trkpt>
      <trkpt lat="37.33788" lon="-8.08804">
        <ele>467.05</ele>
        <time>2019-10-14T16:50:20Z</time>
      </trkpt>
      <trkpt lat="37.33797" lon="-8.0881">
        <ele>465.752</ele>
        <time>2019-10-14T16:50:40Z</time>
      </trkpt>
      <trkpt lat="37.33807" lon="-8.08815">
        <ele>464.293</ele>
        <time>2019-10-14T16:51:00Z</time>
      </trkpt>
      <trkpt lat="37.33817" lon="-8.08817">
        <ele>463.025</ele>
        <time>2019-10-14T16:51:20Z</time>
      </trkpt>
      <trkpt lat="37.33828" lon="-8.08817">
        <ele>461.835</ele>
        <time>2019-10-14T16:51:40Z</time>
      </trkpt>
      <trkpt lat="37.33841" lon="-8.08814">
        <ele>461.095</ele>
        <time>2019-10-14T16:52:00Z</time>
      </trkpt>
      <trkpt lat="37.33856" lon="-8.0881">
        <ele>460.749</ele>
        <time>2019-10-14T16:52:20Z</time>
      </trkpt>
      <trkpt lat="37.33975" lon="-8.08793">
        <ele>459.023</ele>
        <time>2019-10-14T16:52:40Z</time>
      </trkpt>
      <trkpt lat="37.33987" lon="-8.08799">
        <ele>458.808</ele>
        <time>2019-10-14T16:53:00Z</time>
      </trkpt>
      <trkpt lat="37.33998" lon="-8.08806">
        <ele>459.113</ele>
        <time>2019-10-14T16:53:20Z</time>
      </trkpt>
      <trkpt lat="37.34009" lon="-8.08815">
        <ele>460.281</ele>
        <time>2019-10-14T16:53:40Z</time>
      </trkpt>
      <trkpt lat="37.34018" lon="-8.08825">
        <ele>462.143</ele>
        <time>2019-10-14T16:54:00Z</time>
      </trkpt>
      <trkpt lat="37.34026" lon="-8.08837">
        <ele>464.153</ele>
        <time>2019-10-14T16:54:20Z</time>
      </trkpt>
      <trkpt lat="37.34033" lon="-8.08849">
        <ele>465.385</ele>
        <time>2019-10-14T16:54:40Z</time>
      </trkpt>
      <trkpt lat="37.34046" lon="-8.08867">
        <ele>466.256</ele>
        <time>2019-10-14T16:55:00Z</time>
      </trkpt>
      <trkpt lat="37.34053" lon="-8.08872">
        <ele>466.138</ele>
        <time>2019-10-14T16:55:20Z</time>
      </trkpt>
      <trkpt lat="37.34061" lon="-8.08873">
        <ele>467.188</ele>
        <time>2019-10-14T16:55:40Z</time>
      </trkpt>
      <trkpt lat="37.34078" lon="-8.08872">
        <ele>470.382</ele>
        <time>2019-10-14T16:56:00Z</time>
      </trkpt>
      <trkpt lat="37.34086" lon="-8.08875">
        <ele>471.443</ele>
        <time>2019-10-14T16:56:20Z</time>
      </trkpt>
      <trkpt lat="37.34093" lon="-8.08881">
        <ele>472.217</ele>
        <time>2019-10-14T16:56:40Z</time>
      </trkpt>
      <trkpt lat="37.34099" lon="-8.0889">
        <ele>472.708</ele>
        <time>2019-10-14T16:57:00Z</time>
      </trkpt>
      <trkpt lat="37.34106" lon="-8.08898">
        <ele>472.612</ele>
        <time>2019-10-14T16:57:20Z</time>
      </trkpt>
      <trkpt lat="37.34114" lon="-8.08906">
        <ele>472.95</ele>
        <time>2019-10-14T16:57:40Z</time>
      </trkpt>
      <trkpt lat="37.34124" lon="-8.08913">
        <ele>473.312</ele>
        <time>2019-10-14T16:58:00Z</time>
      </trkpt>
      <trkpt lat="37.34135" lon="-8.08919">
        <ele>474.012</ele>
        <time>2019-10-14T16:58:20Z</time>
      </trkpt>
      <trkpt lat="37.34147" lon="-8.08925">
        <ele>474.944</ele>
        <time>2019-10-14T16:58:40Z</time>
      </trkpt>
      <trkpt lat="37.34159" lon="-8.0893">
        <ele>475.925</ele>
        <time>2019-10-14T16:59:00Z</time>
      </trkpt>
      <trkpt lat="37.34184" lon="-8.08937">
        <ele>478.357</ele>
        <time>2019-10-14T16:59:20Z</time>
      </trkpt>
      <trkpt lat="37.34226" lon="-8.08942">
        <ele>478.387</ele>
        <time>2019-10-14T16:59:40Z</time>
      </trkpt>
      <trkpt lat="37.34296" lon="-8.0896">
        <ele>481.571</ele>
        <time>2019-10-14T17:00:00Z</time>
      </trkpt>
      <trkpt lat="37.34316" lon="-8.08972">
        <ele>483.941</ele>
        <time>2019-10-14T17:00:20Z</time>
      </trkpt>
      <trkpt lat="37.34325" lon="-8.0898">
        <ele>484.515</ele>
        <time>2019-10-14T17:00:40Z</time>
      </trkpt>
      <trkpt lat="37.34335" lon="-8.0899">
        <ele>484.908</ele>
        <time>2019-10-14T17:01:00Z</time>
      </trkpt>
      <trkpt lat="37.34385" lon="-8.09047">
        <ele>477.841</ele>
        <time>2019-10-14T17:01:20Z</time>
      </trkpt>
      <trkpt lat="37.34396" lon="-8.09055">
        <ele>477.529</ele>
        <time>2019-10-14T17:01:40Z</time>
      </trkpt>
      <trkpt lat="37.34409" lon="-8.09062">
        <ele>476.261</ele>
        <time>2019-10-14T17:02:00Z</time>
      </trkpt>
      <trkpt lat="37.34473" lon="-8.09089">
        <ele>477.071</ele>
        <time>2019-10-14T17:02:20Z</time>
      </trkpt>
      <trkpt lat="37.34486" lon="-8.09091">
        <ele>476.733</ele>
        <time>2019-10-14T17:02:40Z</time>
      </trkpt>
      <trkpt lat="37.34499" lon="-8.09093">
        <ele>476.424</ele>
        <time>2019-10-14T17:03:00Z</time>
      </trkpt>
      <trkpt lat="37.34513" lon="-8.09092">
        <ele>476.336</ele>
        <time>2019-10-14T17:03:20Z</time>
      </trkpt>
      <trkpt lat="37.34528" lon="-8.0909">
        <ele>476.276</ele>
        <time>2019-10-14T17:03:40Z</time>
      </trkpt>
      <trkpt lat="37.34542" lon="-8.09085">
        <ele>477.626</ele>
        <time>2019-10-14T17:04:00Z</time>
      </trkpt>
      <trkpt lat="37.34555" lon="-8.09081">
        <ele>478.447</ele>
        <time>2019-10-14T17:04:20Z</time>
      </trkpt>
      <trkpt lat="37.34566" lon="-8.09077">
        <ele>479.011</ele>
        <time>2019-10-14T17:04:40Z</time>
      </trkpt>
      <trkpt lat="37.34577" lon="-8.09076">
        <ele>479.908</ele>
        <time>2019-10-14T17:05:00Z</time>
      </trkpt>
      <trkpt lat="37.34586" lon="-8.09077">
        <ele>480.656</ele>
        <time>2019-10-14T17:05:20Z</time>
      </trkpt>
      <trkpt lat="37.34596" lon="-8.09081">
        <ele>480.264</ele>
        <time>2019-10-14T17:05:40Z</time>
      </trkpt>
      <trkpt lat="37.34607" lon="-8.09087">
        <ele>479.746</ele>
        <time>2019-10-14T17:06:00Z</time>
      </trkpt>
      <trkpt lat="37.34696" lon="-8.09118">
        <ele>478.026</ele>
        <time>2019-10-14T17:06:20Z</time>
      </trkpt>
      <trkpt lat="37.34706" lon="-8.09124">
        <ele>478.448</ele>
        <time>2019-10-14T17:06:40Z</time>
      </trkpt>
      <trkpt lat="37.34716" lon="-8.09134">
        <ele>479.219</ele>
        <time>2019-10-14T17:07:00Z</time>
      </trkpt>
      <trkpt lat="37.34754" lon="-8.09181">
        <ele>480.961</ele>
        <time>2019-10-14T17:07:20Z</time>
      </trkpt>
      <trkpt lat="37.34761" lon="-8.09193">
        <ele>481.051</ele>
        <time>2019-10-14T17:07:40Z</time>
      </trkpt>
      <trkpt lat="37.34811" lon="-8.0931">
        <ele>472.661</ele>
        <time>2019-10-14T17:08:00Z</time>
      </trkpt>
      <trkpt lat="37.34824" lon="-8.09342">
        <ele>472.721</ele>
        <time>2019-10-14T17:08:20Z</time>
      </trkpt>
      <trkpt lat="37.34832" lon="-8.09356">
        <ele>474.413</ele>
        <time>2019-10-14T17:08:40Z</time>
      </trkpt>
      <trkpt lat="37.3484" lon="-8.09367">
        <ele>475.308</ele>
        <time>2019-10-14T17:09:00Z</time>
      </trkpt>
      <trkpt lat="37.34848" lon="-8.09376">
        <ele>475.84</ele>
        <time>2019-10-14T17:09:20Z</time>
      </trkpt>
      <trkpt lat="37.34857" lon="-8.09383">
        <ele>476.478</ele>
        <time>2019-10-14T17:09:40Z</time>
      </trkpt>
      <trkpt lat="37.34867" lon="-8.09387">
        <ele>476.23</ele>
        <time>2019-10-14T17:10:00Z</time>
      </trkpt>
      <trkpt lat="37.34878" lon="-8.09388">
        <ele>475.12</ele>
        <time>2019-10-14T17:10:20Z</time>
      </trkpt>
      <trkpt lat="37.3489" lon="-8.09387">
        <ele>473.612</ele>
        <time>2019-10-14T17:10:40Z</time>
      </trkpt>
      <trkpt lat="37.34904" lon="-8.09383">
        <ele>472.693</ele>
        <time>2019-10-14T17:11:00Z</time>
      </trkpt>
      <trkpt lat="37.34917" lon="-8.09377">
        <ele>471.235</ele>
        <time>2019-10-14T17:11:20Z</time>
      </trkpt>
      <trkpt lat="37.34931" lon="-8.09369">
        <ele>470.795</ele>
        <time>2019-10-14T17:11:40Z</time>
      </trkpt>
      <trkpt lat="37.34944" lon="-8.0936">
        <ele>470.646</ele>
        <time>2019-10-14T17:12:00Z</time>
      </trkpt>
      <trkpt lat="37.34956" lon="-8.09349">
        <ele>469.388</ele>
        <time>2019-10-14T17:12:20Z</time>
      </trkpt>
      <trkpt lat="37.34967" lon="-8.09338">
        <ele>468.816</ele>
        <time>2019-10-14T17:12:40Z</time>
      </trkpt>
      <trkpt lat="37.34994" lon="-8.09314">
        <ele>470.008</ele>
        <time>2019-10-14T17:13:00Z</time>
      </trkpt>
      <trkpt lat="37.35003" lon="-8.09309">
        <ele>470.898</ele>
        <time>2019-10-14T17:13:20Z</time>
      </trkpt>
      <trkpt lat="37.35014" lon="-8.09305">
        <ele>471.566</ele>
        <time>2019-10-14T17:13:40Z</time>
      </trkpt>
      <trkpt lat="37.35083" lon="-8.09287">
        <ele>466.758</ele>
        <time>2019-10-14T17:14:00Z</time>
      </trkpt>
      <trkpt lat="37.35091" lon="-8.09283">
        <ele>465.448</ele>
        <time>2019-10-14T17:14:20Z</time>
      </trkpt>
      <trkpt lat="37.35099" lon="-8.09275">
        <ele>464.52</ele>
        <time>2019-10-14T17:14:40Z</time>
      </trkpt>
      <trkpt lat="37.35105" lon="-8.09264">
        <ele>464.131</ele>
        <time>2019-10-14T17:15:00Z</time>
      </trkpt>
      <trkpt lat="37.35121" lon="-8.09236">
        <ele>462.583</ele>
        <time>2019-10-14T17:15:20Z</time>
      </trkpt>
      <trkpt lat="37.35128" lon="-8.09229">
        <ele>461.373</ele>
        <time>2019-10-14T17:15:40Z</time>
      </trkpt>
      <trkpt lat="37.35135" lon="-8.09226">
        <ele>459.829</ele>
        <time>2019-10-14T17:16:00Z</time>
      </trkpt>
      <trkpt lat="37.35144" lon="-8.09227">
        <ele>458.6</ele>
        <time>2019-10-14T17:16:20Z</time>
      </trkpt>
      <trkpt lat="37.35152" lon="-8.0923">
        <ele>458.02</ele>
        <time>2019-10-14T17:16:40Z</time>
      </trkpt>
      <trkpt lat="37.3516" lon="-8.09237">
        <ele>457.508</ele>
        <time>2019-10-14T17:17:00Z</time>
      </trkpt>
      <trkpt lat="37.35167" lon="-8.09247">
        <ele>457.076</ele>
        <time>2019-10-14T17:17:20Z</time>
      </trkpt>
      <trkpt lat="37.35175" lon="-8.0926">
        <ele>455.914</ele>
        <time>2019-10-14T17:17:40Z</time>
      </trkpt>
      <trkpt lat="37.35182" lon="-8.09275">
        <ele>455.186</ele>
        <time>2019-10-14T17:18:00Z</time>
      </trkpt>
      <trkpt lat="37.35222" lon="-8.0936">
        <ele>454.936</ele>
        <time>2019-10-14T17:18:20Z</time>
      </trkpt>
      <trkpt lat="37.35244" lon="-8.09402">
        <ele>459.588</ele>
        <time>2019-10-14T17:18:40Z</time>
      </trkpt>
      <trkpt lat="37.35257" lon="-8.09423">
        <ele>461.559</ele>
        <time>2019-10-14T17:19:00Z</time>
      </trkpt>
      <trkpt lat="37.35264" lon="-8.0943">
        <ele>462.051</ele>
        <time>2019-10-14T17:19:20Z</time>
      </trkpt>
      <trkpt lat="37.35271" lon="-8.09435">
        <ele>462.431</ele>
        <time>2019-10-14T17:19:40Z</time>
      </trkpt>
      <trkpt lat="37.3528" lon="-8.09436">
        <ele>462.581</ele>
        <time>2019-10-14T17:20:00Z</time>
      </trkpt>
      <trkpt lat="37.35288" lon="-8.09436">
        <ele>461.761</ele>
        <time>2019-10-14T17:20:20Z</time>
      </trkpt>
      <trkpt lat="37.35297" lon="-8.09434">
        <ele>460.817</ele>
        <time>2019-10-14T17:20:40Z</time>
      </trkpt>
      <trkpt lat="37.35305" lon="-8.09429">
        <ele>460.008</ele>
        <time>2019-10-14T17:21:00Z</time>
      </trkpt>
      <trkpt lat="37.35314" lon="-8.09425">
        <ele>460.112</ele>
        <time>2019-10-14T17:21:20Z</time>
      </trkpt>
      <trkpt lat="37.35323" lon="-8.0942">
        <ele>460.18</ele>
        <time>2019-10-14T17:21:40Z</time>
      </trkpt>
      <trkpt lat="37.35363" lon="-8.09403">
        <ele>460.012</ele>
        <time>2019-10-14T17:22:00Z</time>
      </trkpt>
      <trkpt lat="37.35373" lon="-8.09395">
        <ele>459.692</ele>
        <time>2019-10-14T17:22:20Z</time>
      </trkpt>
      <trkpt lat="37.35383" lon="-8.09385">
        <ele>459.834</ele>
        <time>2019-10-14T17:22:40Z</time>
      </trkpt>
      <trkpt lat="37.35402" lon="-8.09365">
        <ele>459.955</ele>
        <time>2019-10-14T17:23:00Z</time>
      </trkpt>
      <trkpt lat="37.35411" lon="-8.0936">
        <ele>460.067</ele>
        <time>2019-10-14T17:23:20Z</time>
      </trkpt>
      <trkpt lat="37.35422" lon="-8.09359">
        <ele>459.667</ele>
        <time>2019-10-14T17:23:40Z</time>
      </trkpt>
      <trkpt lat="37.35433" lon="-8.09364">
        <ele>458.874</ele>
        <time>2019-10-14T17:24:00Z</time>
      </trkpt>
      <trkpt lat="37.35443" lon="-8.09372">
        <ele>458.156</ele>
        <time>2019-10-14T17:24:20Z</time>
      </trkpt>
      <trkpt lat="37.35452" lon="-8.09384">
        <ele>458.021</ele>
        <time>2019-10-14T17:24:40Z</time>
      </trkpt>
      <trkpt lat="37.35461" lon="-8.09397">
        <ele>457.908</ele>
        <time>2019-10-14T17:25:00Z</time>
      </trkpt>
      <trkpt lat="37.3547" lon="-8.09411">
        <ele>457.921</ele>
        <time>2019-10-14T17:25:20Z</time>
      </trkpt>
      <trkpt lat="37.35499" lon="-8.09463">
        <ele>456.319</ele>
        <time>2019-10-14T17:25:40Z</time>
      </trkpt>
      <trkpt lat="37.35505" lon="-8.0948">
        <ele>455.341</ele>
        <time>2019-10-14T17:26:00Z</time>
      </trkpt>
      <trkpt lat="37.35506" lon="-8.09485">
        <ele>455.181</ele>
        <time>2019-10-14T17:26:20Z</time>
      </trkpt>
      <trkpt lat="37.35505" lon="-8.09489">
        <ele>454.923</ele>
        <time>2019-10-14T17:26:40Z</time>
      </trkpt>
      <trkpt lat="37.35505" lon="-8.09494">
        <ele>454.584</ele>
        <time>2019-10-14T17:27:00Z</time>
      </trkpt>
      <trkpt lat="37.35505" lon="-8.09501">
        <ele>454.216</ele>
        <time>2019-10-14T17:27:20Z</time>
      </trkpt>
      <trkpt lat="37.35508" lon="-8.09509">
        <ele>454.026</ele>
        <time>2019-10-14T17:27:40Z</time>
      </trkpt>
      <trkpt lat="37.35511" lon="-8.09517">
        <ele>454.088</ele>
        <time>2019-10-14T17:28:00Z</time>
      </trkpt>
      <trkpt lat="37.35514" lon="-8.09526">
        <ele>454.024</ele>
        <time>2019-10-14T17:28:20Z</time>
      </trkpt>
      <trkpt lat="37.35514" lon="-8.09536">
        <ele>453.126</ele>
        <time>2019-10-14T17:28:40Z</time>
      </trkpt>
      <trkpt lat="37.35513" lon="-8.09558">
        <ele>450.608</ele>
        <time>2019-10-14T17:29:00Z</time>
      </trkpt>
      <trkpt lat="37.35514" lon="-8.09569">
        <ele>449.342</ele>
        <time>2019-10-14T17:29:20Z</time>
      </trkpt>
      <trkpt lat="37.35516" lon="-8.09579">
        <ele>448.11</ele>
        <time>2019-10-14T17:29:40Z</time>
      </trkpt>
      <trkpt lat="37.35518" lon="-8.09589">
        <ele>447.082</ele>
        <time>2019-10-14T17:30:00Z</time>
      </trkpt>
      <trkpt lat="37.3552" lon="-8.09598">
        <ele>446.062</ele>
        <time>2019-10-14T17:30:20Z</time>
      </trkpt>
      <trkpt lat="37.35526" lon="-8.09616">
        <ele>444.454</ele>
        <time>2019-10-14T17:30:40Z</time>
      </trkpt>
      <trkpt lat="37.35532" lon="-8.09623">
        <ele>443.615</ele>
        <time>2019-10-14T17:31:00Z</time>
      </trkpt>
      <trkpt lat="37.35554" lon="-8.0964">
        <ele>442.097</ele>
        <time>2019-10-14T17:31:20Z</time>
      </trkpt>
      <trkpt lat="37.35636" lon="-8.09665">
        <ele>438.967</ele>
        <time>2019-10-14T17:31:40Z</time>
      </trkpt>
      <trkpt lat="37.35663" lon="-8.09659">
        <ele>437.221</ele>
        <time>2019-10-14T17:32:00Z</time>
      </trkpt>
      <trkpt lat="37.35708" lon="-8.09642">
        <ele>429.341</ele>
        <time>2019-10-14T17:32:20Z</time>
      </trkpt>
      <trkpt lat="37.35726" lon="-8.09635">
        <ele>426.705</ele>
        <time>2019-10-14T17:32:40Z</time>
      </trkpt>
      <trkpt lat="37.35736" lon="-8.09631">
        <ele>425.908</ele>
        <time>2019-10-14T17:33:00Z</time>
      </trkpt>
      <trkpt lat="37.35773" lon="-8.09627">
        <ele>422.176</ele>
        <time>2019-10-14T17:33:20Z</time>
      </trkpt>
      <trkpt lat="37.35782" lon="-8.09626">
        <ele>421.124</ele>
        <time>2019-10-14T17:33:40Z</time>
      </trkpt>
      <trkpt lat="37.35803" lon="-8.09614">
        <ele>421.176</ele>
        <time>2019-10-14T17:34:00Z</time>
      </trkpt>
      <trkpt lat="37.35835" lon="-8.0961">
        <ele>415.766</ele>
        <time>2019-10-14T17:34:20Z</time>
      </trkpt>
      <trkpt lat="37.35854" lon="-8.09618">
        <ele>406.688</ele>
        <time>2019-10-14T17:34:40Z</time>
      </trkpt>
      <trkpt lat="37.35878" lon="-8.09616">
        <ele>401.179</ele>
        <time>2019-10-14T17:35:00Z</time>
      </trkpt>
      <trkpt lat="37.35884" lon="-8.09591">
        <ele>404.511</ele>
        <time>2019-10-14T17:35:20Z</time>
      </trkpt>
      <trkpt lat="37.3589" lon="-8.09556">
        <ele>405.511</ele>
        <time>2019-10-14T17:35:40Z</time>
      </trkpt>
      <trkpt lat="37.35901" lon="-8.09521">
        <ele>399.692</ele>
        <time>2019-10-14T17:36:00Z</time>
      </trkpt>
      <trkpt lat="37.35906" lon="-8.0951">
        <ele>397.673</ele>
        <time>2019-10-14T17:36:20Z</time>
      </trkpt>
      <trkpt lat="37.35926" lon="-8.09481">
        <ele>390.52</ele>
        <time>2019-10-14T17:36:40Z</time>
      </trkpt>
      <trkpt lat="37.35934" lon="-8.09472">
        <ele>388.708</ele>
        <time>2019-10-14T17:37:00Z</time>
      </trkpt>
      <trkpt lat="37.35969" lon="-8.09445">
        <ele>381.773</ele>
        <time>2019-10-14T17:37:20Z</time>
      </trkpt>
      <trkpt lat="37.35987" lon="-8.09419">
        <ele>377.551</ele>
        <time>2019-10-14T17:37:40Z</time>
      </trkpt>
      <trkpt lat="37.35975" lon="-8.09411">
        <ele>378.243</ele>
        <time>2019-10-14T17:38:00Z</time>
      </trkpt>
      <trkpt lat="37.35954" lon="-8.0939">
        <ele>381.023</ele>
        <time>2019-10-14T17:38:20Z</time>
      </trkpt>
      <trkpt lat="37.35958" lon="-8.09387">
        <ele>380.195</ele>
        <time>2019-10-14T17:38:40Z</time>
      </trkpt>
      <trkpt lat="37.35999" lon="-8.09356">
        <ele>369.176</ele>
        <time>2019-10-14T17:39:00Z</time>
      </trkpt>
      <trkpt lat="37.36008" lon="-8.09343">
        <ele>366.328</ele>
        <time>2019-10-14T17:39:20Z</time>
      </trkpt>
      <trkpt lat="37.36011" lon="-8.09322">
        <ele>363.928</ele>
        <time>2019-10-14T17:39:40Z</time>
      </trkpt>
      <trkpt lat="37.3601" lon="-8.09313">
        <ele>363.695</ele>
        <time>2019-10-14T17:40:00Z</time>
      </trkpt>
      <trkpt lat="37.36004" lon="-8.09288">
        <ele>361.949</ele>
        <time>2019-10-14T17:40:20Z</time>
      </trkpt>
      <trkpt lat="37.36009" lon="-8.09262">
        <ele>359.823</ele>
        <time>2019-10-14T17:40:40Z</time>
      </trkpt>
      <trkpt lat="37.36027" lon="-8.09247">
        <ele>360.308</ele>
        <time>2019-10-14T17:41:00Z</time>
      </trkpt>
      <trkpt lat="37.36049" lon="-8.0924">
        <ele>364.493</ele>
        <time>2019-10-14T17:41:20Z</time>
      </trkpt>
      <trkpt lat="37.36084" lon="-8.09221">
        <ele>373.191</ele>
        <time>2019-10-14T17:41:40Z</time>
      </trkpt>
      <trkpt lat="37.36112" lon="-8.09196">
        <ele>376.893</ele>
        <time>2019-10-14T17:42:00Z</time>
      </trkpt>
      <trkpt lat="37.36128" lon="-8.09187">
        <ele>381.723</ele>
        <time>2019-10-14T17:42:20Z</time>
      </trkpt>
      <trkpt lat="37.36145" lon="-8.09183">
        <ele>387.065</ele>
        <time>2019-10-14T17:42:40Z</time>
      </trkpt>
      <trkpt lat="37.36181" lon="-8.09186">
        <ele>396.726</ele>
        <time>2019-10-14T17:43:00Z</time>
      </trkpt>
      <trkpt lat="37.36192" lon="-8.09192">
        <ele>400.168</ele>
        <time>2019-10-14T17:43:20Z</time>
      </trkpt>
      <trkpt lat="37.36206" lon="-8.09211">
        <ele>404.438</ele>
        <time>2019-10-14T17:43:40Z</time>
      </trkpt>
      <trkpt lat="37.36218" lon="-8.09231">
        <ele>407.943</ele>
        <time>2019-10-14T17:44:00Z</time>
      </trkpt>
      <trkpt lat="37.36198" lon="-8.09232">
        <ele>405.064</ele>
        <time>2019-10-14T17:44:20Z</time>
      </trkpt>
      <trkpt lat="37.36165" lon="-8.09226">
        <ele>399.41</ele>
        <time>2019-10-14T17:44:40Z</time>
      </trkpt>
      <trkpt lat="37.36156" lon="-8.09235">
        <ele>399.108</ele>
        <time>2019-10-14T17:45:00Z</time>
      </trkpt>
      <trkpt lat="37.36156" lon="-8.09258">
        <ele>402.068</ele>
        <time>2019-10-14T17:45:20Z</time>
      </trkpt>
      <trkpt lat="37.3617" lon="-8.09274">
        <ele>406.466</ele>
        <time>2019-10-14T17:45:40Z</time>
      </trkpt>
      <trkpt lat="37.36188" lon="-8.09284">
        <ele>411.788</ele>
        <time>2019-10-14T17:46:00Z</time>
      </trkpt>
      <trkpt lat="37.36221" lon="-8.09296">
        <ele>419.778</ele>
        <time>2019-10-14T17:46:20Z</time>
      </trkpt>
      <trkpt lat="37.3625" lon="-8.09311">
        <ele>422.63</ele>
        <time>2019-10-14T17:46:40Z</time>
      </trkpt>
      <trkpt lat="37.36291" lon="-8.09322">
        <ele>432.541</ele>
        <time>2019-10-14T17:47:00Z</time>
      </trkpt>
      <trkpt lat="37.36318" lon="-8.09309">
        <ele>438.293</ele>
        <time>2019-10-14T17:47:20Z</time>
      </trkpt>
      <trkpt lat="37.36326" lon="-8.09288">
        <ele>438.913</ele>
        <time>2019-10-14T17:47:40Z</time>
      </trkpt>
      <trkpt lat="37.36329" lon="-8.09228">
        <ele>439.499</ele>
        <time>2019-10-14T17:48:00Z</time>
      </trkpt>
      <trkpt lat="37.36348" lon="-8.092">
        <ele>441.207</ele>
        <time>2019-10-14T17:48:20Z</time>
      </trkpt>
      <trkpt lat="37.36374" lon="-8.09194">
        <ele>445.627</ele>
        <time>2019-10-14T17:48:40Z</time>
      </trkpt>
      <trkpt lat="37.36384" lon="-8.0919">
        <ele>446.108</ele>
        <time>2019-10-14T17:49:00Z</time>
      </trkpt>
      <trkpt lat="37.36403" lon="-8.0918">
        <ele>446.583</ele>
        <time>2019-10-14T17:49:20Z</time>
      </trkpt>
      <trkpt lat="37.36444" lon="-8.09176">
        <ele>450.341</ele>
        <time>2019-10-14T17:49:40Z</time>
      </trkpt>
      <trkpt lat="37.3648" lon="-8.09177">
        <ele>454.943</ele>
        <time>2019-10-14T17:50:00Z</time>
      </trkpt>
      <trkpt lat="37.36524" lon="-8.09164">
        <ele>462.583</ele>
        <time>2019-10-14T17:50:20Z</time>
      </trkpt>
      <trkpt lat="37.36534" lon="-8.0916">
        <ele>463.945</ele>
        <time>2019-10-14T17:50:40Z</time>
      </trkpt>
      <trkpt lat="37.36555" lon="-8.09154">
        <ele>466.846</ele>
        <time>2019-10-14T17:51:00Z</time>
      </trkpt>
      <trkpt lat="37.36587" lon="-8.09142">
        <ele>469.898</ele>
        <time>2019-10-14T17:51:20Z</time>
      </trkpt>
      <trkpt lat="37.36605" lon="-8.09135">
        <ele>469.778</ele>
        <time>2019-10-14T17:51:40Z</time>
      </trkpt>
      <trkpt lat="37.36623" lon="-8.09131">
        <ele>469.654</ele>
        <time>2019-10-14T17:52:00Z</time>
      </trkpt>
      <trkpt lat="37.3671" lon="-8.0913">
        <ele>473.656</ele>
        <time>2019-10-14T17:52:20Z</time>
      </trkpt>
      <trkpt lat="37.36771" lon="-8.09164">
        <ele>483.211</ele>
        <time>2019-10-14T17:52:40Z</time>
      </trkpt>
      <trkpt lat="37.3681" lon="-8.09172">
        <ele>482.508</ele>
        <time>2019-10-14T17:53:00Z</time>
      </trkpt>
      <trkpt lat="37.36824" lon="-8.09154">
        <ele>483.389</ele>
        <time>2019-10-14T17:53:20Z</time>
      </trkpt>
      <trkpt lat="37.36825" lon="-8.09144">
        <ele>484.687</ele>
        <time>2019-10-14T17:53:40Z</time>
      </trkpt>
      <trkpt lat="37.36824" lon="-8.09131">
        <ele>486.229</ele>
        <time>2019-10-14T17:54:00Z</time>
      </trkpt>
      <trkpt lat="37.36819" lon="-8.09099">
        <ele>488.889</ele>
        <time>2019-10-14T17:54:20Z</time>
      </trkpt>
      <trkpt lat="37.36839" lon="-8.09029">
        <ele>490.541</ele>
        <time>2019-10-14T17:54:40Z</time>
      </trkpt>
      <trkpt lat="37.36865" lon="-8.09003">
        <ele>493.092</ele>
        <time>2019-10-14T17:55:00Z</time>
      </trkpt>
      <trkpt lat="37.36873" lon="-8.08992">
        <ele>492.694</ele>
        <time>2019-10-14T17:55:20Z</time>
      </trkpt>
      <trkpt lat="37.36916" lon="-8.08965">
        <ele>494.834</ele>
        <time>2019-10-14T17:55:40Z</time>
      </trkpt>
      <trkpt lat="37.36974" lon="-8.08949">
        <ele>500.737</ele>
        <time>2019-10-14T17:56:00Z</time>
      </trkpt>
      <trkpt lat="37.37" lon="-8.08942">
        <ele>505.549</ele>
        <time>2019-10-14T17:56:20Z</time>
      </trkpt>
      <trkpt lat="37.3703" lon="-8.0892">
        <ele>507.913</ele>
        <time>2019-10-14T17:56:40Z</time>
      </trkpt>
      <trkpt lat="37.37037" lon="-8.08912">
        <ele>508.308</ele>
        <time>2019-10-14T17:57:00Z</time>
      </trkpt>
      <trkpt lat="37.37066" lon="-8.08897">
        <ele>511.657</ele>
        <time>2019-10-14T17:57:20Z</time>
      </trkpt>
      <trkpt lat="37.37097" lon="-8.08887">
        <ele>514.875</ele>
        <time>2019-10-14T17:57:40Z</time>
      </trkpt>
      <trkpt lat="37.37146" lon="-8.08853">
        <ele>519.617</ele>
        <time>2019-10-14T17:58:00Z</time>
      </trkpt>
      <trkpt lat="37.37167" lon="-8.08838">
        <ele>520.287</ele>
        <time>2019-10-14T17:58:20Z</time>
      </trkpt>
      <trkpt lat="37.37187" lon="-8.08813">
        <ele>521.629</ele>
        <time>2019-10-14T17:58:40Z</time>
      </trkpt>
      <trkpt lat="37.37193" lon="-8.08803">
        <ele>522.83</ele>
        <time>2019-10-14T17:59:00Z</time>
      </trkpt>
      <trkpt lat="37.37209" lon="-8.08765">
        <ele>530.212</ele>
        <time>2019-10-14T17:59:20Z</time>
      </trkpt>
      <trkpt lat="37.37215" lon="-8.08752">
        <ele>532.992</ele>
        <time>2019-10-14T17:59:40Z</time>
      </trkpt>
      <trkpt lat="37.3722" lon="-8.08699">
        <ele>538.555</ele>
        <time>2019-10-14T18:00:00Z</time>
      </trkpt>
      <trkpt lat="37.37216" lon="-8.08656">
        <ele>542.407</ele>
        <time>2019-10-14T18:00:20Z</time>
      </trkpt>
      <trkpt lat="37.3721" lon="-8.08615">
        <ele>546.317</ele>
        <time>2019-10-14T18:00:40Z</time>
      </trkpt>
      <trkpt lat="37.37207" lon="-8.08564">
        <ele>552.308</ele>
        <time>2019-10-14T18:01:00Z</time>
      </trkpt>
      <trkpt lat="37.37207" lon="-8.08545">
        <ele>554.179</ele>
        <time>2019-10-14T18:01:20Z</time>
      </trkpt>
      <trkpt lat="37.37206" lon="-8.0854">
        <ele>554.537</ele>
        <time>2019-10-14T18:01:40Z</time>
      </trkpt>
      <trkpt lat="37.37206" lon="-8.08536">
        <ele>554.839</ele>
        <time>2019-10-14T18:02:00Z</time>
      </trkpt>
      <trkpt lat="37.37205" lon="-8.08533">
        <ele>555.039</ele>
        <time>2019-10-14T18:02:20Z</time>
      </trkpt>
      <trkpt lat="37.37204" lon="-8.0853">
        <ele>555.161</ele>
        <time>2019-10-14T18:02:40Z</time>
      </trkpt>
      <trkpt lat="37.37202" lon="-8.0853">
        <ele>555.152</ele>
        <time>2019-10-14T18:03:00Z</time>
      </trkpt>
      <trkpt lat="37.37201" lon="-8.08529">
        <ele>555.164</ele>
        <time>2019-10-14T18:03:20Z</time>
      </trkpt>
      <trkpt lat="37.37171" lon="-8.085">
        <ele>555.054</ele>
        <time>2019-10-14T18:03:40Z</time>
      </trkpt>
      <trkpt lat="37.37143" lon="-8.08474">
        <ele>555.923</ele>
        <time>2019-10-14T18:04:00Z</time>
      </trkpt>
      <trkpt lat="37.37112" lon="-8.08443">
        <ele>556.183</ele>
        <time>2019-10-14T18:04:20Z</time>
      </trkpt>
      <trkpt lat="37.37103" lon="-8.0843">
        <ele>556.411</ele>
        <time>2019-10-14T18:04:40Z</time>
      </trkpt>
      <trkpt lat="37.37094" lon="-8.08416">
        <ele>558.008</ele>
        <time>2019-10-14T18:05:00Z</time>
      </trkpt>
      <trkpt lat="37.37037" lon="-8.08299">
        <ele>555.586</ele>
        <time>2019-10-14T18:05:20Z</time>
      </trkpt>
      <trkpt lat="37.37025" lon="-8.08268">
        <ele>556.194</ele>
        <time>2019-10-14T18:05:40Z</time>
      </trkpt>
      <trkpt lat="37.37022" lon="-8.08253">
        <ele>556.056</ele>
        <time>2019-10-14T18:06:00Z</time>
      </trkpt>
      <trkpt lat="37.37022" lon="-8.0824">
        <ele>556.156</ele>
        <time>2019-10-14T18:06:20Z</time>
      </trkpt>
      <trkpt lat="37.37026" lon="-8.08227">
        <ele>556.768</ele>
        <time>2019-10-14T18:06:40Z</time>
      </trkpt>
      <trkpt lat="37.37033" lon="-8.08214">
        <ele>557.239</ele>
        <time>2019-10-14T18:07:00Z</time>
      </trkpt>
      <trkpt lat="37.37039" lon="-8.082">
        <ele>558.051</ele>
        <time>2019-10-14T18:07:20Z</time>
      </trkpt>
      <trkpt lat="37.37067" lon="-8.08143">
        <ele>564.141</ele>
        <time>2019-10-14T18:07:40Z</time>
      </trkpt>
      <trkpt lat="37.37088" lon="-8.08098">
        <ele>568.568</ele>
        <time>2019-10-14T18:08:00Z</time>
      </trkpt>
      <trkpt lat="37.37101" lon="-8.08067">
        <ele>569.642</ele>
        <time>2019-10-14T18:08:20Z</time>
      </trkpt>
      <trkpt lat="37.37118" lon="-8.07981">
        <ele>563.926</ele>
        <time>2019-10-14T18:08:40Z</time>
      </trkpt>
      <trkpt lat="37.37117" lon="-8.07971">
        <ele>563.708</ele>
        <time>2019-10-14T18:09:00Z</time>
      </trkpt>
      <trkpt lat="37.37116" lon="-8.07962">
        <ele>563.89</ele>
        <time>2019-10-14T18:09:20Z</time>
      </trkpt>
      <trkpt lat="37.37113" lon="-8.07944">
        <ele>563.828</ele>
        <time>2019-10-14T18:09:40Z</time>
      </trkpt>
      <trkpt lat="37.37113" lon="-8.07939">
        <ele>563.39</ele>
        <time>2019-10-14T18:10:00Z</time>
      </trkpt>
      <trkpt lat="37.37114" lon="-8.07937">
        <ele>563.18</ele>
        <time>2019-10-14T18:10:20Z</time>
      </trkpt>
      <trkpt lat="37.37116" lon="-8.07934">
        <ele>562.742</ele>
        <time>2019-10-14T18:10:40Z</time>
      </trkpt>
      <trkpt lat="37.37119" lon="-8.07931">
        <ele>562.463</ele>
        <time>2019-10-14T18:11:00Z</time>
      </trkpt>
      <trkpt lat="37.37124" lon="-8.0793">
        <ele>562.225</ele>
        <time>2019-10-14T18:11:20Z</time>
      </trkpt>
      <trkpt lat="37.37131" lon="-8.0793">
        <ele>562.255</ele>
        <time>2019-10-14T18:11:40Z</time>
      </trkpt>
      <trkpt lat="37.37141" lon="-8.07929">
        <ele>562.188</ele>
        <time>2019-10-14T18:12:00Z</time>
      </trkpt>
      <trkpt lat="37.37152" lon="-8.07927">
        <ele>562.324</ele>
        <time>2019-10-14T18:12:20Z</time>
      </trkpt>
      <trkpt lat="37.37166" lon="-8.07925">
        <ele>562.826</ele>
        <time>2019-10-14T18:12:40Z</time>
      </trkpt>
      <trkpt lat="37.37198" lon="-8.07919">
        <ele>563.908</ele>
        <time>2019-10-14T18:13:00Z</time>
      </trkpt>
      <trkpt lat="37.37233" lon="-8.07912">
        <ele>565.682</ele>
        <time>2019-10-14T18:13:20Z</time>
      </trkpt>
      <trkpt lat="37.37262" lon="-8.07908">
        <ele>566.28</ele>
        <time>2019-10-14T18:13:40Z</time>
      </trkpt>
      <trkpt lat="37.37276" lon="-8.0791">
        <ele>566.062</ele>
        <time>2019-10-14T18:14:00Z</time>
      </trkpt>
      <trkpt lat="37.37289" lon="-8.07915">
        <ele>565.552</ele>
        <time>2019-10-14T18:14:20Z</time>
      </trkpt>
      <trkpt lat="37.37302" lon="-8.07923">
        <ele>565.534</ele>
        <time>2019-10-14T18:14:40Z</time>
      </trkpt>
      <trkpt lat="37.37315" lon="-8.07933">
        <ele>565.435</ele>
        <time>2019-10-14T18:15:00Z</time>
      </trkpt>
      <trkpt lat="37.37329" lon="-8.07945">
        <ele>565.437</ele>
        <time>2019-10-14T18:15:20Z</time>
      </trkpt>
      <trkpt lat="37.37416" lon="-8.08018">
        <ele>555.777</ele>
        <time>2019-10-14T18:15:40Z</time>
      </trkpt>
      <trkpt lat="37.37436" lon="-8.08028">
        <ele>553.388</ele>
        <time>2019-10-14T18:16:00Z</time>
      </trkpt>
      <trkpt lat="37.375" lon="-8.08054">
        <ele>551.124</ele>
        <time>2019-10-14T18:16:20Z</time>
      </trkpt>
      <trkpt lat="37.37602" lon="-8.08094">
        <ele>551.026</ele>
        <time>2019-10-14T18:16:40Z</time>
      </trkpt>
      <trkpt lat="37.37621" lon="-8.08101">
        <ele>551.508</ele>
        <time>2019-10-14T18:17:00Z</time>
      </trkpt>
      <trkpt lat="37.37689" lon="-8.08125">
        <ele>551.652</ele>
        <time>2019-10-14T18:17:20Z</time>
      </trkpt>
      <trkpt lat="37.37703" lon="-8.08126">
        <ele>551.72</ele>
        <time>2019-10-14T18:17:40Z</time>
      </trkpt>
      <trkpt lat="37.37717" lon="-8.08124">
        <ele>551.852</ele>
        <time>2019-10-14T18:18:00Z</time>
      </trkpt>
      <trkpt lat="37.37729" lon="-8.08117">
        <ele>551.172</ele>
        <time>2019-10-14T18:18:20Z</time>
      </trkpt>
      <trkpt lat="37.37741" lon="-8.08106">
        <ele>549.764</ele>
        <time>2019-10-14T18:18:40Z</time>
      </trkpt>
      <trkpt lat="37.37754" lon="-8.08093">
        <ele>547.875</ele>
        <time>2019-10-14T18:19:00Z</time>
      </trkpt>
      <trkpt lat="37.37767" lon="-8.08078">
        <ele>546.167</ele>
        <time>2019-10-14T18:19:20Z</time>
      </trkpt>
      <trkpt lat="37.37809" lon="-8.08032">
        <ele>543.087</ele>
        <time>2019-10-14T18:19:40Z</time>
      </trkpt>
      <trkpt lat="37.37848" lon="-8.0799">
        <ele>535.868</ele>
        <time>2019-10-14T18:20:00Z</time>
      </trkpt>
      <trkpt lat="37.37874" lon="-8.07969">
        <ele>532.042</ele>
        <time>2019-10-14T18:20:20Z</time>
      </trkpt>
      <trkpt lat="37.37889" lon="-8.07961">
        <ele>531.626</ele>
        <time>2019-10-14T18:20:40Z</time>
      </trkpt>
      <trkpt lat="37.37905" lon="-8.07956">
        <ele>530.308</ele>
        <time>2019-10-14T18:21:00Z</time>
      </trkpt>
      <trkpt lat="37.37922" lon="-8.07954">
        <ele>529.07</ele>
        <time>2019-10-14T18:21:20Z</time>
      </trkpt>
      <trkpt lat="37.3794" lon="-8.07954">
        <ele>527.938</ele>
        <time>2019-10-14T18:21:40Z</time>
      </trkpt>
      <trkpt lat="37.38017" lon="-8.07951">
        <ele>529.83</ele>
        <time>2019-10-14T18:22:00Z</time>
      </trkpt>
      <trkpt lat="37.38053" lon="-8.07949">
        <ele>530.77</ele>
        <time>2019-10-14T18:22:20Z</time>
      </trkpt>
      <trkpt lat="37.38084" lon="-8.07945">
        <ele>530.042</ele>
        <time>2019-10-14T18:22:40Z</time>
      </trkpt>
      <trkpt lat="37.38098" lon="-8.07939">
        <ele>531.113</ele>
        <time>2019-10-14T18:23:00Z</time>
      </trkpt>
      <trkpt lat="37.3811" lon="-8.0793">
        <ele>531.525</ele>
        <time>2019-10-14T18:23:20Z</time>
      </trkpt>
      <trkpt lat="37.38121" lon="-8.07919">
        <ele>532.185</ele>
        <time>2019-10-14T18:23:40Z</time>
      </trkpt>
      <trkpt lat="37.38129" lon="-8.07905">
        <ele>532.384</ele>
        <time>2019-10-14T18:24:00Z</time>
      </trkpt>
      <trkpt lat="37.38135" lon="-8.07888">
        <ele>531.807</ele>
        <time>2019-10-14T18:24:20Z</time>
      </trkpt>
      <trkpt lat="37.3814" lon="-8.07869">
        <ele>530.017</ele>
        <time>2019-10-14T18:24:40Z</time>
      </trkpt>
      <trkpt lat="37.38159" lon="-8.07806">
        <ele>518.808</ele>
        <time>2019-10-14T18:25:00Z</time>
      </trkpt>
      <trkpt lat="37.38174" lon="-8.07766">
        <ele>513.842</ele>
        <time>2019-10-14T18:25:20Z</time>
      </trkpt>
      <trkpt lat="37.38183" lon="-8.07748">
        <ele>511.02</ele>
        <time>2019-10-14T18:25:40Z</time>
      </trkpt>
      <trkpt lat="37.38193" lon="-8.07731">
        <ele>509.442</ele>
        <time>2019-10-14T18:26:00Z</time>
      </trkpt>
      <trkpt lat="37.38229" lon="-8.07678">
        <ele>504.082</ele>
        <time>2019-10-14T18:26:20Z</time>
      </trkpt>
      <trkpt lat="37.38266" lon="-8.0762">
        <ele>502.054</ele>
        <time>2019-10-14T18:26:40Z</time>
      </trkpt>
      <trkpt lat="37.38291" lon="-8.07583">
        <ele>499.745</ele>
        <time>2019-10-14T18:27:00Z</time>
      </trkpt>
      <trkpt lat="37.38322" lon="-8.07531">
        <ele>495.977</ele>
        <time>2019-10-14T18:27:20Z</time>
      </trkpt>
      <trkpt lat="37.38329" lon="-8.07512">
        <ele>494.537</ele>
        <time>2019-10-14T18:27:40Z</time>
      </trkpt>
      <trkpt lat="37.38333" lon="-8.07493">
        <ele>493.591</ele>
        <time>2019-10-14T18:28:00Z</time>
      </trkpt>
      <trkpt lat="37.38342" lon="-8.0744">
        <ele>491.081</ele>
        <time>2019-10-14T18:28:20Z</time>
      </trkpt>
      <trkpt lat="37.38347" lon="-8.07427">
        <ele>491.819</ele>
        <time>2019-10-14T18:28:40Z</time>
      </trkpt>
      <trkpt lat="37.38354" lon="-8.07417">
        <ele>492.208</ele>
        <time>2019-10-14T18:29:00Z</time>
      </trkpt>
      <trkpt lat="37.38364" lon="-8.07411">
        <ele>492.573</ele>
        <time>2019-10-14T18:29:20Z</time>
      </trkpt>
      <trkpt lat="37.38375" lon="-8.0741">
        <ele>492.381</ele>
        <time>2019-10-14T18:29:40Z</time>
      </trkpt>
      <trkpt lat="37.38387" lon="-8.07411">
        <ele>491.773</ele>
        <time>2019-10-14T18:30:00Z</time>
      </trkpt>
      <trkpt lat="37.38401" lon="-8.07414">
        <ele>491.363</ele>
        <time>2019-10-14T18:30:20Z</time>
      </trkpt>
      <trkpt lat="37.38415" lon="-8.07417">
        <ele>490.935</ele>
        <time>2019-10-14T18:30:40Z</time>
      </trkpt>
      <trkpt lat="37.38543" lon="-8.07441">
        <ele>483.886</ele>
        <time>2019-10-14T18:31:00Z</time>
      </trkpt>
      <trkpt lat="37.38575" lon="-8.07444">
        <ele>485.458</ele>
        <time>2019-10-14T18:31:20Z</time>
      </trkpt>
      <trkpt lat="37.38645" lon="-8.07447">
        <ele>479.238</ele>
        <time>2019-10-14T18:31:40Z</time>
      </trkpt>
      <trkpt lat="37.38681" lon="-8.07447">
        <ele>473.643</ele>
        <time>2019-10-14T18:32:00Z</time>
      </trkpt>
      <trkpt lat="37.38716" lon="-8.07447">
        <ele>469.664</ele>
        <time>2019-10-14T18:32:20Z</time>
      </trkpt>
      <trkpt lat="37.38733" lon="-8.07445">
        <ele>469.01</ele>
        <time>2019-10-14T18:32:40Z</time>
      </trkpt>
      <trkpt lat="37.3875" lon="-8.0744">
        <ele>468.708</ele>
        <time>2019-10-14T18:33:00Z</time>
      </trkpt>
      <trkpt lat="37.38766" lon="-8.07433">
        <ele>468.168</ele>
        <time>2019-10-14T18:33:20Z</time>
      </trkpt>
      <trkpt lat="37.38781" lon="-8.07424">
        <ele>468.036</ele>
        <time>2019-10-14T18:33:40Z</time>
      </trkpt>
      <trkpt lat="37.38796" lon="-8.07416">
        <ele>467.968</ele>
        <time>2019-10-14T18:34:00Z</time>
      </trkpt>
      <trkpt lat="37.38811" lon="-8.0741">
        <ele>468.638</ele>
        <time>2019-10-14T18:34:20Z</time>
      </trkpt>
      <trkpt lat="37.38828" lon="-8.07407">
        <ele>470.83</ele>
        <time>2019-10-14T18:34:40Z</time>
      </trkpt>
      <trkpt lat="37.38844" lon="-8.07407">
        <ele>473.471</ele>
        <time>2019-10-14T18:35:00Z</time>
      </trkpt>
      <trkpt lat="37.38861" lon="-8.07408">
        <ele>476.363</ele>
        <time>2019-10-14T18:35:20Z</time>
      </trkpt>
      <trkpt lat="37.38893" lon="-8.0741">
        <ele>481.523</ele>
        <time>2019-10-14T18:35:40Z</time>
      </trkpt>
      <trkpt lat="37.38909" lon="-8.07412">
        <ele>482.957</ele>
        <time>2019-10-14T18:36:00Z</time>
      </trkpt>
      <trkpt lat="37.38923" lon="-8.07417">
        <ele>484.2</ele>
        <time>2019-10-14T18:36:20Z</time>
      </trkpt>
      <trkpt lat="37.38935" lon="-8.07425">
        <ele>485.32</ele>
        <time>2019-10-14T18:36:40Z</time>
      </trkpt>
      <trkpt lat="37.38947" lon="-8.07435">
        <ele>486.908</ele>
        <time>2019-10-14T18:37:00Z</time>
      </trkpt>
      <trkpt lat="37.38959" lon="-8.07447">
        <ele>487.649</ele>
        <time>2019-10-14T18:37:20Z</time>
      </trkpt>
      <trkpt lat="37.38971" lon="-8.07458">
        <ele>488.037</ele>
        <time>2019-10-14T18:37:40Z</time>
      </trkpt>
      <trkpt lat="37.38985" lon="-8.07467">
        <ele>488.319</ele>
        <time>2019-10-14T18:38:00Z</time>
      </trkpt>
      <trkpt lat="37.39029" lon="-8.07492">
        <ele>490.899</ele>
        <time>2019-10-14T18:38:20Z</time>
      </trkpt>
      <trkpt lat="37.39045" lon="-8.07499">
        <ele>492.621</ele>
        <time>2019-10-14T18:38:40Z</time>
      </trkpt>
      <trkpt lat="37.39061" lon="-8.07502">
        <ele>494.992</ele>
        <time>2019-10-14T18:39:00Z</time>
      </trkpt>
      <trkpt lat="37.39078" lon="-8.07504">
        <ele>497.944</ele>
        <time>2019-10-14T18:39:20Z</time>
      </trkpt>
      <trkpt lat="37.39129" lon="-8.0751">
        <ele>500.014</ele>
        <time>2019-10-14T18:39:40Z</time>
      </trkpt>
      <trkpt lat="37.39145" lon="-8.07517">
        <ele>498.713</ele>
        <time>2019-10-14T18:40:00Z</time>
      </trkpt>
      <trkpt lat="37.39159" lon="-8.07525">
        <ele>496.843</ele>
        <time>2019-10-14T18:40:20Z</time>
      </trkpt>
      <trkpt lat="37.39172" lon="-8.07535">
        <ele>495.707</ele>
        <time>2019-10-14T18:40:40Z</time>
      </trkpt>
      <trkpt lat="37.39183" lon="-8.07547">
        <ele>494.908</ele>
        <time>2019-10-14T18:41:00Z</time>
      </trkpt>
      <trkpt lat="37.39193" lon="-8.07563">
        <ele>494.775</ele>
        <time>2019-10-14T18:41:20Z</time>
      </trkpt>
      <trkpt lat="37.39202" lon="-8.0758">
        <ele>494.413</ele>
        <time>2019-10-14T18:41:40Z</time>
      </trkpt>
      <trkpt lat="37.39211" lon="-8.07598">
        <ele>494.295</ele>
        <time>2019-10-14T18:42:00Z</time>
      </trkpt>
      <trkpt lat="37.39222" lon="-8.07615">
        <ele>494.435</ele>
        <time>2019-10-14T18:42:20Z</time>
      </trkpt>
      <trkpt lat="37.39235" lon="-8.0763">
        <ele>496.187</ele>
        <time>2019-10-14T18:42:40Z</time>
      </trkpt>
      <trkpt lat="37.39249" lon="-8.07646">
        <ele>498.288</ele>
        <time>2019-10-14T18:43:00Z</time>
      </trkpt>
      <trkpt lat="37.39403" lon="-8.0782">
        <ele>500.53</ele>
        <time>2019-10-14T18:43:20Z</time>
      </trkpt>
      <trkpt lat="37.39414" lon="-8.07839">
        <ele>500.12</ele>
        <time>2019-10-14T18:43:40Z</time>
      </trkpt>
      <trkpt lat="37.39424" lon="-8.07859">
        <ele>498.924</ele>
        <time>2019-10-14T18:44:00Z</time>
      </trkpt>
      <trkpt lat="37.39434" lon="-8.07878">
        <ele>497.804</ele>
        <time>2019-10-14T18:44:20Z</time>
      </trkpt>
      <trkpt lat="37.39451" lon="-8.07912">
        <ele>497.714</ele>
        <time>2019-10-14T18:44:40Z</time>
      </trkpt>
      <trkpt lat="37.39461" lon="-8.07925">
        <ele>497.808</ele>
        <time>2019-10-14T18:45:00Z</time>
      </trkpt>
      <trkpt lat="37.39473" lon="-8.07937">
        <ele>498.356</ele>
        <time>2019-10-14T18:45:20Z</time>
      </trkpt>
      <trkpt lat="37.39488" lon="-8.07947">
        <ele>498.184</ele>
        <time>2019-10-14T18:45:40Z</time>
      </trkpt>
      <trkpt lat="37.39503" lon="-8.07956">
        <ele>497.976</ele>
        <time>2019-10-14T18:46:00Z</time>
      </trkpt>
      <trkpt lat="37.39544" lon="-8.07985">
        <ele>494.026</ele>
        <time>2019-10-14T18:46:20Z</time>
      </trkpt>
      <trkpt lat="37.39555" lon="-8.07999">
        <ele>492.928</ele>
        <time>2019-10-14T18:46:40Z</time>
      </trkpt>
      <trkpt lat="37.39566" lon="-8.08016">
        <ele>491.849</ele>
        <time>2019-10-14T18:47:00Z</time>
      </trkpt>
      <trkpt lat="37.39595" lon="-8.08065">
        <ele>490.951</ele>
        <time>2019-10-14T18:47:20Z</time>
      </trkpt>
      <trkpt lat="37.39606" lon="-8.08078">
        <ele>491.021</ele>
        <time>2019-10-14T18:47:40Z</time>
      </trkpt>
      <trkpt lat="37.39617" lon="-8.08086">
        <ele>490.783</ele>
        <time>2019-10-14T18:48:00Z</time>
      </trkpt>
      <trkpt lat="37.39629" lon="-8.08092">
        <ele>490.225</ele>
        <time>2019-10-14T18:48:20Z</time>
      </trkpt>
      <trkpt lat="37.3964" lon="-8.08095">
        <ele>489.717</ele>
        <time>2019-10-14T18:48:40Z</time>
      </trkpt>
      <trkpt lat="37.39652" lon="-8.08098">
        <ele>488.608</ele>
        <time>2019-10-14T18:49:00Z</time>
      </trkpt>
      <trkpt lat="37.39665" lon="-8.081">
        <ele>487.372</ele>
        <time>2019-10-14T18:49:20Z</time>
      </trkpt>
      <trkpt lat="37.39678" lon="-8.08101">
        <ele>487.19</ele>
        <time>2019-10-14T18:49:40Z</time>
      </trkpt>
      <trkpt lat="37.3969" lon="-8.08101">
        <ele>487.072</ele>
        <time>2019-10-14T18:50:00Z</time>
      </trkpt>
      <trkpt lat="37.39702" lon="-8.081">
        <ele>487.922</ele>
        <time>2019-10-14T18:50:20Z</time>
      </trkpt>
      <trkpt lat="37.39712" lon="-8.08097">
        <ele>489.334</ele>
        <time>2019-10-14T18:50:40Z</time>
      </trkpt>
      <trkpt lat="37.39723" lon="-8.08093">
        <ele>490.445</ele>
        <time>2019-10-14T18:51:00Z</time>
      </trkpt>
      <trkpt lat="37.39732" lon="-8.08086">
        <ele>490.977</ele>
        <time>2019-10-14T18:51:20Z</time>
      </trkpt>
      <trkpt lat="37.39742" lon="-8.08079">
        <ele>490.977</ele>
        <time>2019-10-14T18:51:40Z</time>
      </trkpt>
      <trkpt lat="37.39774" lon="-8.0806">
        <ele>487.194</ele>
        <time>2019-10-14T18:52:00Z</time>
      </trkpt>
      <trkpt lat="37.39784" lon="-8.08055">
        <ele>485.557</ele>
        <time>2019-10-14T18:52:20Z</time>
      </trkpt>
      <trkpt lat="37.39795" lon="-8.08048">
        <ele>484.422</ele>
        <time>2019-10-14T18:52:40Z</time>
      </trkpt>
      <trkpt lat="37.39805" lon="-8.0804">
        <ele>483.408</ele>
        <time>2019-10-14T18:53:00Z</time>
      </trkpt>
      <trkpt lat="37.39816" lon="-8.0803">
        <ele>482.363</ele>
        <time>2019-10-14T18:53:20Z</time>
      </trkpt>
      <trkpt lat="37.39853" lon="-8.07995">
        <ele>479.171</ele>
        <time>2019-10-14T18:53:40Z</time>
      </trkpt>
      <trkpt lat="37.39862" lon="-8.07989">
        <ele>478.143</ele>
        <time>2019-10-14T18:54:00Z</time>
      </trkpt>
      <trkpt lat="37.39871" lon="-8.07986">
        <ele>477.183</ele>
        <time>2019-10-14T18:54:20Z</time>
      </trkpt>
      <trkpt lat="37.3988" lon="-8.07984">
        <ele>476.285</ele>
        <time>2019-10-14T18:54:40Z</time>
      </trkpt>
      <trkpt lat="37.3989" lon="-8.07985">
        <ele>475.486</ele>
        <time>2019-10-14T18:55:00Z</time>
      </trkpt>
      <trkpt lat="37.39899" lon="-8.07988">
        <ele>474.888</ele>
        <time>2019-10-14T18:55:20Z</time>
      </trkpt>
      <trkpt lat="37.39909" lon="-8.07991">
        <ele>474.238</ele>
        <time>2019-10-14T18:55:40Z</time>
      </trkpt>
      <trkpt lat="37.39919" lon="-8.07994">
        <ele>473.681</ele>
        <time>2019-10-14T18:56:00Z</time>
      </trkpt>
      <trkpt lat="37.3997" lon="-8.08008">
        <ele>470.161</ele>
        <time>2019-10-14T18:56:20Z</time>
      </trkpt>
      <trkpt lat="37.3998" lon="-8.08006">
        <ele>469.817</ele>
        <time>2019-10-14T18:56:40Z</time>
      </trkpt>
      <trkpt lat="37.3999" lon="-8.08">
        <ele>469.408</ele>
        <time>2019-10-14T18:57:00Z</time>
      </trkpt>
      <trkpt lat="37.4" lon="-8.07992">
        <ele>467.992</ele>
        <time>2019-10-14T18:57:20Z</time>
      </trkpt>
      <trkpt lat="37.40011" lon="-8.07982">
        <ele>466.62</ele>
        <time>2019-10-14T18:57:40Z</time>
      </trkpt>
      <trkpt lat="37.40021" lon="-8.07972">
        <ele>464.982</ele>
        <time>2019-10-14T18:58:00Z</time>
      </trkpt>
      <trkpt lat="37.40031" lon="-8.07962">
        <ele>462.692</ele>
        <time>2019-10-14T18:58:20Z</time>
      </trkpt>
      <trkpt lat="37.40043" lon="-8.07955">
        <ele>461.194</ele>
        <time>2019-10-14T18:58:40Z</time>
      </trkpt>
      <trkpt lat="37.40055" lon="-8.0795">
        <ele>460.325</ele>
        <time>2019-10-14T18:59:00Z</time>
      </trkpt>
      <trkpt lat="37.40111" lon="-8.07931">
        <ele>457.017</ele>
        <time>2019-10-14T18:59:20Z</time>
      </trkpt>
      <trkpt lat="37.40136" lon="-8.07924">
        <ele>454.767</ele>
        <time>2019-10-14T18:59:40Z</time>
      </trkpt>
      <trkpt lat="37.40149" lon="-8.07924">
        <ele>453.111</ele>
        <time>2019-10-14T19:00:00Z</time>
      </trkpt>
      <trkpt lat="37.40162" lon="-8.07926">
        <ele>451.321</ele>
        <time>2019-10-14T19:00:20Z</time>
      </trkpt>
      <trkpt lat="37.40175" lon="-8.0793">
        <ele>449.803</ele>
        <time>2019-10-14T19:00:40Z</time>
      </trkpt>
      <trkpt lat="37.40188" lon="-8.07934">
        <ele>448.208</ele>
        <time>2019-10-14T19:01:00Z</time>
      </trkpt>
      <trkpt lat="37.40216" lon="-8.0794">
        <ele>444.645</ele>
        <time>2019-10-14T19:01:20Z</time>
      </trkpt>
      <trkpt lat="37.40263" lon="-8.07943">
        <ele>441.493</ele>
        <time>2019-10-14T19:01:40Z</time>
      </trkpt>
      <trkpt lat="37.4032" lon="-8.07943">
        <ele>440.195</ele>
        <time>2019-10-14T19:02:00Z</time>
      </trkpt>
      <trkpt lat="37.40331" lon="-8.0794">
        <ele>439.795</ele>
        <time>2019-10-14T19:02:20Z</time>
      </trkpt>
      <trkpt lat="37.40341" lon="-8.07933">
        <ele>440.067</ele>
        <time>2019-10-14T19:02:40Z</time>
      </trkpt>
      <trkpt lat="37.4035" lon="-8.07924">
        <ele>440.668</ele>
        <time>2019-10-14T19:03:00Z</time>
      </trkpt>
      <trkpt lat="37.40357" lon="-8.07913">
        <ele>441.11</ele>
        <time>2019-10-14T19:03:20Z</time>
      </trkpt>
      <trkpt lat="37.40362" lon="-8.079">
        <ele>440.86</ele>
        <time>2019-10-14T19:03:40Z</time>
      </trkpt>
      <trkpt lat="37.40366" lon="-8.07885">
        <ele>440.019</ele>
        <time>2019-10-14T19:04:00Z</time>
      </trkpt>
      <trkpt lat="37.40369" lon="-8.07869">
        <ele>438.809</ele>
        <time>2019-10-14T19:04:20Z</time>
      </trkpt>
      <trkpt lat="37.40401" lon="-8.07724">
        <ele>442.219</ele>
        <time>2019-10-14T19:04:40Z</time>
      </trkpt>
      <trkpt lat="37.40414" lon="-8.07679">
        <ele>441.008</ele>
        <time>2019-10-14T19:05:00Z</time>
      </trkpt>
      <trkpt lat="37.40414" lon="-8.07677">
        <ele>441.065</ele>
        <time>2019-10-14T19:05:20Z</time>
      </trkpt>
      <trkpt lat="37.40414" lon="-8.07678">
        <ele>441.083</ele>
        <time>2019-10-14T19:05:40Z</time>
      </trkpt>
      <trkpt lat="37.40414" lon="-8.07678">
        <ele>441.055</ele>
        <time>2019-10-14T19:06:00Z</time>
      </trkpt>
      <trkpt lat="37.40414" lon="-8.07678">
        <ele>441.055</ele>
        <time>2019-10-14T19:06:20Z</time>
      </trkpt>
      <trkpt lat="37.40414" lon="-8.07678">
        <ele>441.087</ele>
        <time>2019-10-14T19:06:40Z</time>
      </trkpt>
      <trkpt lat="37.40414" lon="-8.07678">
        <ele>441.098</ele>
        <time>2019-10-14T19:07:00Z</time>
      </trkpt>
      <trkpt lat="37.40414" lon="-8.07678">
        <ele>441.03</ele>
        <time>2019-10-14T19:07:20Z</time>
      </trkpt>
      <trkpt lat="37.40414" lon="-8.07678">
        <ele>441.07</ele>
        <time>2019-10-14T19:07:40Z</time>
      </trkpt>
      <trkpt lat="37.40414" lon="-8.07678">
        <ele>441.074</ele>
        <time>2019-10-14T19:08:00Z</time>
      </trkpt>
      <trkpt lat="37.40418" lon="-8.07671">
        <ele>441.156</ele>
        <time>2019-10-14T19:08:20Z</time>
      </trkpt>
      <trkpt lat="37.40422" lon="-8.07663">
        <ele>441.121</ele>
        <time>2019-10-14T19:08:40Z</time>
      </trkpt>
      <trkpt lat="37.40426" lon="-8.07653">
        <ele>441.008</ele>
        <time>2019-10-14T19:09:00Z</time>
      </trkpt>
      <trkpt lat="37.40432" lon="-8.07643">
        <ele>441.391</ele>
        <time>2019-10-14T19:09:20Z</time>
      </trkpt>
      <trkpt lat="37.4044" lon="-8.07631">
        <ele>442.229</ele>
        <time>2019-10-14T19:09:40Z</time>
      </trkpt>
      <trkpt lat="37.40449" lon="-8.0762">
        <ele>443.661</ele>
        <time>2019-10-14T19:10:00Z</time>
      </trkpt>
      <trkpt lat="37.40459" lon="-8.07609">
        <ele>444.961</ele>
        <time>2019-10-14T19:10:20Z</time>
      </trkpt>
      <trkpt lat="37.40469" lon="-8.07598">
        <ele>446.493</ele>
        <time>2019-10-14T19:10:40Z</time>
      </trkpt>
      <trkpt lat="37.40498" lon="-8.07566">
        <ele>451.154</ele>
        <time>2019-10-14T19:11:00Z</time>
      </trkpt>
      <trkpt lat="37.40504" lon="-8.07554">
        <ele>452.516</ele>
        <time>2019-10-14T19:11:20Z</time>
      </trkpt>
      <trkpt lat="37.40509" lon="-8.07542">
        <ele>453.456</ele>
        <time>2019-10-14T19:11:40Z</time>
      </trkpt>
      <trkpt lat="37.40512" lon="-8.07531">
        <ele>454.276</ele>
        <time>2019-10-14T19:12:00Z</time>
      </trkpt>
      <trkpt lat="37.40514" lon="-8.07519">
        <ele>454.09</ele>
        <time>2019-10-14T19:12:20Z</time>
      </trkpt>
      <trkpt lat="37.40518" lon="-8.07509">
        <ele>453.819</ele>
        <time>2019-10-14T19:12:40Z</time>
      </trkpt>
      <trkpt lat="37.40524" lon="-8.07499">
        <ele>454.208</ele>
        <time>2019-10-14T19:13:00Z</time>
      </trkpt>
      <trkpt lat="37.40532" lon="-8.0749">
        <ele>453.661</ele>
        <time>2019-10-14T19:13:20Z</time>
      </trkpt>
      <trkpt lat="37.40541" lon="-8.07482">
        <ele>453.269</ele>
        <time>2019-10-14T19:13:40Z</time>
      </trkpt>
      <trkpt lat="37.40551" lon="-8.07473">
        <ele>453.471</ele>
        <time>2019-10-14T19:14:00Z</time>
      </trkpt>
      <trkpt lat="37.40572" lon="-8.07454">
        <ele>451.441</ele>
        <time>2019-10-14T19:14:20Z</time>
      </trkpt>
      <trkpt lat="37.40583" lon="-8.07444">
        <ele>450.863</ele>
        <time>2019-10-14T19:14:40Z</time>
      </trkpt>
      <trkpt lat="37.40629" lon="-8.074">
        <ele>445.584</ele>
        <time>2019-10-14T19:15:00Z</time>
      </trkpt>
      <trkpt lat="37.40653" lon="-8.07373">
        <ele>446.816</ele>
        <time>2019-10-14T19:15:20Z</time>
      </trkpt>
      <trkpt lat="37.40721" lon="-8.07293">
        <ele>443.936</ele>
        <time>2019-10-14T19:15:40Z</time>
      </trkpt>
      <trkpt lat="37.40765" lon="-8.07237">
        <ele>439.798</ele>
        <time>2019-10-14T19:16:00Z</time>
      </trkpt>
      <trkpt lat="37.40792" lon="-8.07195">
        <ele>438.415</ele>
        <time>2019-10-14T19:16:20Z</time>
      </trkpt>
      <trkpt lat="37.40799" lon="-8.07181">
        <ele>437.926</ele>
        <time>2019-10-14T19:16:40Z</time>
      </trkpt>
      <trkpt lat="37.40801" lon="-8.07169">
        <ele>438.008</ele>
        <time>2019-10-14T19:17:00Z</time>
      </trkpt>
      <trkpt lat="37.40801" lon="-8.07156">
        <ele>437.133</ele>
        <time>2019-10-14T19:17:20Z</time>
      </trkpt>
      <trkpt lat="37.40799" lon="-8.07143">
        <ele>435.911</ele>
        <time>2019-10-14T19:17:40Z</time>
      </trkpt>
      <trkpt lat="37.40797" lon="-8.0713">
        <ele>434.093</ele>
        <time>2019-10-14T19:18:00Z</time>
      </trkpt>
      <trkpt lat="37.40796" lon="-8.07117">
        <ele>431.633</ele>
        <time>2019-10-14T19:18:20Z</time>
      </trkpt>
      <trkpt lat="37.40795" lon="-8.07103">
        <ele>429.795</ele>
        <time>2019-10-14T19:18:40Z</time>
      </trkpt>
      <trkpt lat="37.40797" lon="-8.07089">
        <ele>428.396</ele>
        <time>2019-10-14T19:19:00Z</time>
      </trkpt>
      <trkpt lat="37.40801" lon="-8.07076">
        <ele>427.118</ele>
        <time>2019-10-14T19:19:20Z</time>
      </trkpt>
      <trkpt lat="37.40807" lon="-8.07066">
        <ele>426.198</ele>
        <time>2019-10-14T19:19:40Z</time>
      </trkpt>
      <trkpt lat="37.40816" lon="-8.07059">
        <ele>425.145</ele>
        <time>2019-10-14T19:20:00Z</time>
      </trkpt>
      <trkpt lat="37.40827" lon="-8.07056">
        <ele>424.347</ele>
        <time>2019-10-14T19:20:20Z</time>
      </trkpt>
      <trkpt lat="37.40838" lon="-8.07057">
        <ele>423.911</ele>
        <time>2019-10-14T19:20:40Z</time>
      </trkpt>
      <trkpt lat="37.40849" lon="-8.0706">
        <ele>423.508</ele>
        <time>2019-10-14T19:21:00Z</time>
      </trkpt>
      <trkpt lat="37.40861" lon="-8.07065">
        <ele>423.168</ele>
        <time>2019-10-14T19:21:20Z</time>
      </trkpt>
      <trkpt lat="37.40872" lon="-8.07072">
        <ele>422.236</ele>
        <time>2019-10-14T19:21:40Z</time>
      </trkpt>
      <trkpt lat="37.40882" lon="-8.07079">
        <ele>421.028</ele>
        <time>2019-10-14T19:22:00Z</time>
      </trkpt>
      <trkpt lat="37.40921" lon="-8.0711">
        <ele>415.538</ele>
        <time>2019-10-14T19:22:20Z</time>
      </trkpt>
      <trkpt lat="37.40939" lon="-8.07123">
        <ele>412.71</ele>
        <time>2019-10-14T19:22:40Z</time>
      </trkpt>
      <trkpt lat="37.40967" lon="-8.07136">
        <ele>411.231</ele>
        <time>2019-10-14T19:23:00Z</time>
      </trkpt>
      <trkpt lat="37.40978" lon="-8.07136">
        <ele>411.333</ele>
        <time>2019-10-14T19:23:20Z</time>
      </trkpt>
      <trkpt lat="37.40989" lon="-8.07134">
        <ele>411.883</ele>
        <time>2019-10-14T19:23:40Z</time>
      </trkpt>
      <trkpt lat="37.41" lon="-8.07131">
        <ele>411.871</ele>
        <time>2019-10-14T19:24:00Z</time>
      </trkpt>
      <trkpt lat="37.41012" lon="-8.07126">
        <ele>411.841</ele>
        <time>2019-10-14T19:24:20Z</time>
      </trkpt>
      <trkpt lat="37.41092" lon="-8.07092">
        <ele>407.215</ele>
        <time>2019-10-14T19:24:40Z</time>
      </trkpt>
      <trkpt lat="37.41125" lon="-8.07074">
        <ele>407.508</ele>
        <time>2019-10-14T19:25:00Z</time>
      </trkpt>
      <trkpt lat="37.41147" lon="-8.07066">
        <ele>407.441</ele>
        <time>2019-10-14T19:25:20Z</time>
      </trkpt>
      <trkpt lat="37.41175" lon="-8.07056">
        <ele>404.959</ele>
        <time>2019-10-14T19:25:40Z</time>
      </trkpt>
      <trkpt lat="37.41182" lon="-8.07053">
        <ele>404.061</ele>
        <time>2019-10-14T19:26:00Z</time>
      </trkpt>
      <trkpt lat="37.41198" lon="-8.07047">
        <ele>402.881</ele>
        <time>2019-10-14T19:26:20Z</time>
      </trkpt>
      <trkpt lat="37.41224" lon="-8.07035">
        <ele>401.673</ele>
        <time>2019-10-14T19:26:40Z</time>
      </trkpt>
      <trkpt lat="37.41286" lon="-8.07011">
        <ele>397.784</ele>
        <time>2019-10-14T19:27:00Z</time>
      </trkpt>
      <trkpt lat="37.41372" lon="-8.06992">
        <ele>393.876</ele>
        <time>2019-10-14T19:27:20Z</time>
      </trkpt>
      <trkpt lat="37.41395" lon="-8.06987">
        <ele>392.576</ele>
        <time>2019-10-14T19:27:40Z</time>
      </trkpt>
      <trkpt lat="37.41408" lon="-8.06985">
        <ele>391.636</ele>
        <time>2019-10-14T19:28:00Z</time>
      </trkpt>
      <trkpt lat="37.41431" lon="-8.06981">
        <ele>390.717</ele>
        <time>2019-10-14T19:28:20Z</time>
      </trkpt>
      <trkpt lat="37.41449" lon="-8.06982">
        <ele>390.518</ele>
        <time>2019-10-14T19:28:40Z</time>
      </trkpt>
      <trkpt lat="37.41457" lon="-8.06985">
        <ele>390.908</ele>
        <time>2019-10-14T19:29:00Z</time>
      </trkpt>
      <trkpt lat="37.41464" lon="-8.0699">
        <ele>391.337</ele>
        <time>2019-10-14T19:29:20Z</time>
      </trkpt>
      <trkpt lat="37.41468" lon="-8.06997">
        <ele>391.745</ele>
        <time>2019-10-14T19:29:40Z</time>
      </trkpt>
      <trkpt lat="37.41467" lon="-8.0704">
        <ele>391.447</ele>
        <time>2019-10-14T19:30:00Z</time>
      </trkpt>
      <trkpt lat="37.41502" lon="-8.07061">
        <ele>393.877</ele>
        <time>2019-10-14T19:30:20Z</time>
      </trkpt>
      <trkpt lat="37.41544" lon="-8.07073">
        <ele>398.969</ele>
        <time>2019-10-14T19:30:40Z</time>
      </trkpt>
      <trkpt lat="37.41555" lon="-8.07079">
        <ele>400.51</ele>
        <time>2019-10-14T19:31:00Z</time>
      </trkpt>
      <trkpt lat="37.41592" lon="-8.0711">
        <ele>402.392</ele>
        <time>2019-10-14T19:31:20Z</time>
      </trkpt>
      <trkpt lat="37.41619" lon="-8.07137">
        <ele>403.852</ele>
        <time>2019-10-14T19:31:40Z</time>
      </trkpt>
      <trkpt lat="37.41631" lon="-8.07154">
        <ele>406.198</ele>
        <time>2019-10-14T19:32:00Z</time>
      </trkpt>
      <trkpt lat="37.41634" lon="-8.07162">
        <ele>407.415</ele>
        <time>2019-10-14T19:32:20Z</time>
      </trkpt>
      <trkpt lat="37.41635" lon="-8.07172">
        <ele>408.426</ele>
        <time>2019-10-14T19:32:40Z</time>
      </trkpt>
      <trkpt lat="37.41635" lon="-8.07183">
        <ele>409.108</ele>
        <time>2019-10-14T19:33:00Z</time>
      </trkpt>
      <trkpt lat="37.41635" lon="-8.07195">
        <ele>409.943</ele>
        <time>2019-10-14T19:33:20Z</time>
      </trkpt>
      <trkpt lat="37.41633" lon="-8.07302">
        <ele>411.271</ele>
        <time>2019-10-14T19:33:40Z</time>
      </trkpt>
      <trkpt lat="37.41632" lon="-8.07335">
        <ele>410.823</ele>
        <time>2019-10-14T19:34:00Z</time>
      </trkpt>
      <trkpt lat="37.41629" lon="-8.07349">
        <ele>411.643</ele>
        <time>2019-10-14T19:34:20Z</time>
      </trkpt>
      <trkpt lat="37.41622" lon="-8.07379">
        <ele>413.795</ele>
        <time>2019-10-14T19:34:40Z</time>
      </trkpt>
      <trkpt lat="37.41621" lon="-8.07394">
        <ele>414.576</ele>
        <time>2019-10-14T19:35:00Z</time>
      </trkpt>
      <trkpt lat="37.41619" lon="-8.07409">
        <ele>415.218</ele>
        <time>2019-10-14T19:35:20Z</time>
      </trkpt>
      <trkpt lat="37.41615" lon="-8.07424">
        <ele>415.798</ele>
        <time>2019-10-14T19:35:40Z</time>
      </trkpt>
      <trkpt lat="37.41608" lon="-8.07438">
        <ele>415.988</ele>
        <time>2019-10-14T19:36:00Z</time>
      </trkpt>
      <trkpt lat="37.41599" lon="-8.07452">
        <ele>415.524</ele>
        <time>2019-10-14T19:36:20Z</time>
      </trkpt>
      <trkpt lat="37.41588" lon="-8.07467">
        <ele>415.626</ele>
        <time>2019-10-14T19:36:40Z</time>
      </trkpt>
      <trkpt lat="37.41579" lon="-8.07483">
        <ele>415.208</ele>
        <time>2019-10-14T19:37:00Z</time>
      </trkpt>
      <trkpt lat="37.4157" lon="-8.075">
        <ele>415.062</ele>
        <time>2019-10-14T19:37:20Z</time>
      </trkpt>
      <trkpt lat="37.41535" lon="-8.07569">
        <ele>421.05</ele>
        <time>2019-10-14T19:37:40Z</time>
      </trkpt>
      <trkpt lat="37.41528" lon="-8.07586">
        <ele>423.272</ele>
        <time>2019-10-14T19:38:00Z</time>
      </trkpt>
      <trkpt lat="37.41517" lon="-8.07618">
        <ele>424.942</ele>
        <time>2019-10-14T19:38:20Z</time>
      </trkpt>
      <trkpt lat="37.4151" lon="-8.07633">
        <ele>425.694</ele>
        <time>2019-10-14T19:38:40Z</time>
      </trkpt>
      <trkpt lat="37.4149" lon="-8.07675">
        <ele>427.665</ele>
        <time>2019-10-14T19:39:00Z</time>
      </trkpt>
      <trkpt lat="37.41482" lon="-8.07687">
        <ele>427.677</ele>
        <time>2019-10-14T19:39:20Z</time>
      </trkpt>
      <trkpt lat="37.41472" lon="-8.07698">
        <ele>428.197</ele>
        <time>2019-10-14T19:39:40Z</time>
      </trkpt>
      <trkpt lat="37.4146" lon="-8.07708">
        <ele>429.432</ele>
        <time>2019-10-14T19:40:00Z</time>
      </trkpt>
      <trkpt lat="37.41448" lon="-8.07718">
        <ele>431.292</ele>
        <time>2019-10-14T19:40:20Z</time>
      </trkpt>
      <trkpt lat="37.41438" lon="-8.07728">
        <ele>433.011</ele>
        <time>2019-10-14T19:40:40Z</time>
      </trkpt>
      <trkpt lat="37.41429" lon="-8.0774">
        <ele>434.708</ele>
        <time>2019-10-14T19:41:00Z</time>
      </trkpt>
      <trkpt lat="37.41421" lon="-8.07754">
        <ele>436.377</ele>
        <time>2019-10-14T19:41:20Z</time>
      </trkpt>
      <trkpt lat="37.41415" lon="-8.07768">
        <ele>437.165</ele>
        <time>2019-10-14T19:41:40Z</time>
      </trkpt>
      <trkpt lat="37.41411" lon="-8.07782">
        <ele>437.317</ele>
        <time>2019-10-14T19:42:00Z</time>
      </trkpt>
      <trkpt lat="37.41408" lon="-8.07796">
        <ele>437.087</ele>
        <time>2019-10-14T19:42:20Z</time>
      </trkpt>
      <trkpt lat="37.41405" lon="-8.07811">
        <ele>436.639</ele>
        <time>2019-10-14T19:42:40Z</time>
      </trkpt>
      <trkpt lat="37.41401" lon="-8.07863">
        <ele>434.62</ele>
        <time>2019-10-14T19:43:00Z</time>
      </trkpt>
      <trkpt lat="37.41404" lon="-8.07947">
        <ele>434.732</ele>
        <time>2019-10-14T19:43:20Z</time>
      </trkpt>
      <trkpt lat="37.41408" lon="-8.07961">
        <ele>435.522</ele>
        <time>2019-10-14T19:43:40Z</time>
      </trkpt>
      <trkpt lat="37.41413" lon="-8.07973">
        <ele>436.018</ele>
        <time>2019-10-14T19:44:00Z</time>
      </trkpt>
      <trkpt lat="37.41418" lon="-8.07982">
        <ele>436.498</ele>
        <time>2019-10-14T19:44:20Z</time>
      </trkpt>
      <trkpt lat="37.41424" lon="-8.07989">
        <ele>436.617</ele>
        <time>2019-10-14T19:44:40Z</time>
      </trkpt>
      <trkpt lat="37.4143" lon="-8.07994">
        <ele>436.808</ele>
        <time>2019-10-14T19:45:00Z</time>
      </trkpt>
      <trkpt lat="37.41436" lon="-8.07999">
        <ele>437.035</ele>
        <time>2019-10-14T19:45:20Z</time>
      </trkpt>
      <trkpt lat="37.41444" lon="-8.08004">
        <ele>437.123</ele>
        <time>2019-10-14T19:45:40Z</time>
      </trkpt>
      <trkpt lat="37.41453" lon="-8.08007">
        <ele>437.715</ele>
        <time>2019-10-14T19:46:00Z</time>
      </trkpt>
      <trkpt lat="37.41464" lon="-8.08011">
        <ele>438.245</ele>
        <time>2019-10-14T19:46:20Z</time>
      </trkpt>
      <trkpt lat="37.41476" lon="-8.08014">
        <ele>438.617</ele>
        <time>2019-10-14T19:46:40Z</time>
      </trkpt>
      <trkpt lat="37.41513" lon="-8.08025">
        <ele>438.848</ele>
        <time>2019-10-14T19:47:00Z</time>
      </trkpt>
      <trkpt lat="37.41523" lon="-8.08027">
        <ele>438.97</ele>
        <time>2019-10-14T19:47:20Z</time>
      </trkpt>
      <trkpt lat="37.41532" lon="-8.08031">
        <ele>438.98</ele>
        <time>2019-10-14T19:47:40Z</time>
      </trkpt>
      <trkpt lat="37.4154" lon="-8.08038">
        <ele>439.285</ele>
        <time>2019-10-14T19:48:00Z</time>
      </trkpt>
      <trkpt lat="37.41546" lon="-8.08047">
        <ele>440.289</ele>
        <time>2019-10-14T19:48:20Z</time>
      </trkpt>
      <trkpt lat="37.41551" lon="-8.08058">
        <ele>441.717</ele>
        <time>2019-10-14T19:48:40Z</time>
      </trkpt>
      <trkpt lat="37.41556" lon="-8.08071">
        <ele>443.108</ele>
        <time>2019-10-14T19:49:00Z</time>
      </trkpt>
      <trkpt lat="37.41561" lon="-8.08087">
        <ele>443.922</ele>
        <time>2019-10-14T19:49:20Z</time>
      </trkpt>
      <trkpt lat="37.41567" lon="-8.08105">
        <ele>444.43</ele>
        <time>2019-10-14T19:49:40Z</time>
      </trkpt>
      <trkpt lat="37.41582" lon="-8.08136">
        <ele>443.992</ele>
        <time>2019-10-14T19:50:00Z</time>
      </trkpt>
      <trkpt lat="37.41592" lon="-8.08149">
        <ele>443.752</ele>
        <time>2019-10-14T19:50:20Z</time>
      </trkpt>
      <trkpt lat="37.416" lon="-8.0816">
        <ele>443.414</ele>
        <time>2019-10-14T19:50:40Z</time>
      </trkpt>
      <trkpt lat="37.41607" lon="-8.08173">
        <ele>443.125</ele>
        <time>2019-10-14T19:51:00Z</time>
      </trkpt>
      <trkpt lat="37.41614" lon="-8.08187">
        <ele>442.827</ele>
        <time>2019-10-14T19:51:20Z</time>
      </trkpt>
      <trkpt lat="37.41645" lon="-8.08249">
        <ele>438.647</ele>
        <time>2019-10-14T19:51:40Z</time>
      </trkpt>
      <trkpt lat="37.41661" lon="-8.08276">
        <ele>437.489</ele>
        <time>2019-10-14T19:52:00Z</time>
      </trkpt>
      <trkpt lat="37.41686" lon="-8.08329">
        <ele>435.206</ele>
        <time>2019-10-14T19:52:20Z</time>
      </trkpt>
      <trkpt lat="37.41694" lon="-8.08348">
        <ele>435.026</ele>
        <time>2019-10-14T19:52:40Z</time>
      </trkpt>
      <trkpt lat="37.41706" lon="-8.08381">
        <ele>436.908</ele>
        <time>2019-10-14T19:53:00Z</time>
      </trkpt>
      <trkpt lat="37.4171" lon="-8.08397">
        <ele>438.132</ele>
        <time>2019-10-14T19:53:20Z</time>
      </trkpt>
      <trkpt lat="37.41712" lon="-8.08411">
        <ele>439.21</ele>
        <time>2019-10-14T19:53:40Z</time>
      </trkpt>
      <trkpt lat="37.41715" lon="-8.08423">
        <ele>439.342</ele>
        <time>2019-10-14T19:54:00Z</time>
      </trkpt>
      <trkpt lat="37.4172" lon="-8.08431">
        <ele>438.562</ele>
        <time>2019-10-14T19:54:20Z</time>
      </trkpt>
      <trkpt lat="37.41726" lon="-8.08436">
        <ele>438.184</ele>
        <time>2019-10-14T19:54:40Z</time>
      </trkpt>
      <trkpt lat="37.41732" lon="-8.08438">
        <ele>438.325</ele>
        <time>2019-10-14T19:55:00Z</time>
      </trkpt>
      <trkpt lat="37.41741" lon="-8.08437">
        <ele>438.827</ele>
        <time>2019-10-14T19:55:20Z</time>
      </trkpt>
      <trkpt lat="37.41751" lon="-8.08434">
        <ele>439.477</ele>
        <time>2019-10-14T19:55:40Z</time>
      </trkpt>
      <trkpt lat="37.41763" lon="-8.08432">
        <ele>439.799</ele>
        <time>2019-10-14T19:56:00Z</time>
      </trkpt>
      <trkpt lat="37.41776" lon="-8.08431">
        <ele>440.007</ele>
        <time>2019-10-14T19:56:20Z</time>
      </trkpt>
      <trkpt lat="37.41787" lon="-8.08433">
        <ele>439.727</ele>
        <time>2019-10-14T19:56:40Z</time>
      </trkpt>
      <trkpt lat="37.41797" lon="-8.08439">
        <ele>439.308</ele>
        <time>2019-10-14T19:57:00Z</time>
      </trkpt>
      <trkpt lat="37.41806" lon="-8.08448">
        <ele>439.153</ele>
        <time>2019-10-14T19:57:20Z</time>
      </trkpt>
      <trkpt lat="37.41814" lon="-8.08457">
        <ele>439.331</ele>
        <time>2019-10-14T19:57:40Z</time>
      </trkpt>
      <trkpt lat="37.41819" lon="-8.08468">
        <ele>439.883</ele>
        <time>2019-10-14T19:58:00Z</time>
      </trkpt>
      <trkpt lat="37.41825" lon="-8.08482">
        <ele>440.683</ele>
        <time>2019-10-14T19:58:20Z</time>
      </trkpt>
      <trkpt lat="37.41832" lon="-8.08498">
        <ele>441.875</ele>
        <time>2019-10-14T19:58:40Z</time>
      </trkpt>
      <trkpt lat="37.4184" lon="-8.08512">
        <ele>442.476</ele>
        <time>2019-10-14T19:59:00Z</time>
      </trkpt>
      <trkpt lat="37.41848" lon="-8.08525">
        <ele>442.768</ele>
        <time>2019-10-14T19:59:20Z</time>
      </trkpt>
      <trkpt lat="37.41857" lon="-8.08535">
        <ele>442.588</ele>
        <time>2019-10-14T19:59:40Z</time>
      </trkpt>
      <trkpt lat="37.41867" lon="-8.08545">
        <ele>442.584</ele>
        <time>2019-10-14T20:00:00Z</time>
      </trkpt>
      <trkpt lat="37.41877" lon="-8.08558">
        <ele>443.707</ele>
        <time>2019-10-14T20:00:20Z</time>
      </trkpt>
      <trkpt lat="37.41942" lon="-8.08668">
        <ele>448.917</ele>
        <time>2019-10-14T20:00:40Z</time>
      </trkpt>
      <trkpt lat="37.4195" lon="-8.08681">
        <ele>449.908</ele>
        <time>2019-10-14T20:01:00Z</time>
      </trkpt>
      <trkpt lat="37.41955" lon="-8.08695">
        <ele>450.612</ele>
        <time>2019-10-14T20:01:20Z</time>
      </trkpt>
      <trkpt lat="37.4197" lon="-8.08737">
        <ele>454.47</ele>
        <time>2019-10-14T20:01:40Z</time>
      </trkpt>
      <trkpt lat="37.41981" lon="-8.08765">
        <ele>455.052</ele>
        <time>2019-10-14T20:02:00Z</time>
      </trkpt>
      <trkpt lat="37.42019" lon="-8.08831">
        <ele>451.732</ele>
        <time>2019-10-14T20:02:20Z</time>
      </trkpt>
      <trkpt lat="37.42025" lon="-8.08844">
        <ele>451.234</ele>
        <time>2019-10-14T20:02:40Z</time>
      </trkpt>
      <trkpt lat="37.42053" lon="-8.08905">
        <ele>446.275</ele>
        <time>2019-10-14T20:03:00Z</time>
      </trkpt>
      <trkpt lat="37.4206" lon="-8.08913">
        <ele>445.747</ele>
        <time>2019-10-14T20:03:20Z</time>
      </trkpt>
      <trkpt lat="37.4207" lon="-8.08919">
        <ele>444.827</ele>
        <time>2019-10-14T20:03:40Z</time>
      </trkpt>
      <trkpt lat="37.42092" lon="-8.08935">
        <ele>444.072</ele>
        <time>2019-10-14T20:04:00Z</time>
      </trkpt>
      <trkpt lat="37.42103" lon="-8.08943">
        <ele>444.413</ele>
        <time>2019-10-14T20:04:20Z</time>
      </trkpt>
      <trkpt lat="37.42112" lon="-8.08954">
        <ele>444.714</ele>
        <time>2019-10-14T20:04:40Z</time>
      </trkpt>
      <trkpt lat="37.42121" lon="-8.08966">
        <ele>445.108</ele>
        <time>2019-10-14T20:05:00Z</time>
      </trkpt>
      <trkpt lat="37.4213" lon="-8.08979">
        <ele>446.181</ele>
        <time>2019-10-14T20:05:20Z</time>
      </trkpt>
      <trkpt lat="37.4214" lon="-8.08991">
        <ele>447.069</ele>
        <time>2019-10-14T20:05:40Z</time>
      </trkpt>
      <trkpt lat="37.42151" lon="-8.09002">
        <ele>447.321</ele>
        <time>2019-10-14T20:06:00Z</time>
      </trkpt>
      <trkpt lat="37.42162" lon="-8.09011">
        <ele>447.411</ele>
        <time>2019-10-14T20:06:20Z</time>
      </trkpt>
      <trkpt lat="37.42173" lon="-8.09019">
        <ele>446.963</ele>
        <time>2019-10-14T20:06:40Z</time>
      </trkpt>
      <trkpt lat="37.42184" lon="-8.09025">
        <ele>445.864</ele>
        <time>2019-10-14T20:07:00Z</time>
      </trkpt>
      <trkpt lat="37.42195" lon="-8.09032">
        <ele>444.856</ele>
        <time>2019-10-14T20:07:20Z</time>
      </trkpt>
      <trkpt lat="37.42228" lon="-8.09055">
        <ele>442.236</ele>
        <time>2019-10-14T20:07:40Z</time>
      </trkpt>
      <trkpt lat="37.42239" lon="-8.09066">
        <ele>440.574</ele>
        <time>2019-10-14T20:08:00Z</time>
      </trkpt>
      <trkpt lat="37.42263" lon="-8.09093">
        <ele>439.256</ele>
        <time>2019-10-14T20:08:20Z</time>
      </trkpt>
      <trkpt lat="37.42294" lon="-8.09133">
        <ele>438.721</ele>
        <time>2019-10-14T20:08:40Z</time>
      </trkpt>
      <trkpt lat="37.4232" lon="-8.09168">
        <ele>438.508</ele>
        <time>2019-10-14T20:09:00Z</time>
      </trkpt>
      <trkpt lat="37.42338" lon="-8.09198">
        <ele>439.231</ele>
        <time>2019-10-14T20:09:20Z</time>
      </trkpt>
      <trkpt lat="37.42391" lon="-8.09272">
        <ele>443.369</ele>
        <time>2019-10-14T20:09:40Z</time>
      </trkpt>
      <trkpt lat="37.42399" lon="-8.09278">
        <ele>443.411</ele>
        <time>2019-10-14T20:10:00Z</time>
      </trkpt>
      <trkpt lat="37.42408" lon="-8.0928">
        <ele>443.511</ele>
        <time>2019-10-14T20:10:20Z</time>
      </trkpt>
      <trkpt lat="37.42417" lon="-8.09279">
        <ele>443.823</ele>
        <time>2019-10-14T20:10:40Z</time>
      </trkpt>
      <trkpt lat="37.42429" lon="-8.09278">
        <ele>441.834</ele>
        <time>2019-10-14T20:11:00Z</time>
      </trkpt>
      <trkpt lat="37.42464" lon="-8.09278">
        <ele>435.586</ele>
        <time>2019-10-14T20:11:20Z</time>
      </trkpt>
      <trkpt lat="37.42488" lon="-8.0928">
        <ele>433.586</ele>
        <time>2019-10-14T20:11:40Z</time>
      </trkpt>
      <trkpt lat="37.425" lon="-8.09283">
        <ele>433.265</ele>
        <time>2019-10-14T20:12:00Z</time>
      </trkpt>
      <trkpt lat="37.42511" lon="-8.09288">
        <ele>433.768</ele>
        <time>2019-10-14T20:12:20Z</time>
      </trkpt>
      <trkpt lat="37.4252" lon="-8.09294">
        <ele>434.314</ele>
        <time>2019-10-14T20:12:40Z</time>
      </trkpt>
      <trkpt lat="37.42529" lon="-8.093">
        <ele>434.808</ele>
        <time>2019-10-14T20:13:00Z</time>
      </trkpt>
      <trkpt lat="37.42536" lon="-8.09306">
        <ele>435.09</ele>
        <time>2019-10-14T20:13:20Z</time>
      </trkpt>
      <trkpt lat="37.42543" lon="-8.09312">
        <ele>435.038</ele>
        <time>2019-10-14T20:13:40Z</time>
      </trkpt>
      <trkpt lat="37.42558" lon="-8.09327">
        <ele>435.97</ele>
        <time>2019-10-14T20:14:00Z</time>
      </trkpt>
      <trkpt lat="37.42561" lon="-8.09332">
        <ele>436.36</ele>
        <time>2019-10-14T20:14:20Z</time>
      </trkpt>
      <trkpt lat="37.42563" lon="-8.09338">
        <ele>436.512</ele>
        <time>2019-10-14T20:14:40Z</time>
      </trkpt>
      <trkpt lat="37.4257" lon="-8.09369">
        <ele>437.423</ele>
        <time>2019-10-14T20:15:00Z</time>
      </trkpt>
      <trkpt lat="37.42574" lon="-8.09379">
        <ele>437.515</ele>
        <time>2019-10-14T20:15:20Z</time>
      </trkpt>
      <trkpt lat="37.42579" lon="-8.09389">
        <ele>437.745</ele>
        <time>2019-10-14T20:15:40Z</time>
      </trkpt>
      <trkpt lat="37.42585" lon="-8.09397">
        <ele>436.941</ele>
        <time>2019-10-14T20:16:00Z</time>
      </trkpt>
      <trkpt lat="37.42593" lon="-8.09405">
        <ele>435.981</ele>
        <time>2019-10-14T20:16:20Z</time>
      </trkpt>
      <trkpt lat="37.42601" lon="-8.09413">
        <ele>435.109</ele>
        <time>2019-10-14T20:16:40Z</time>
      </trkpt>
      <trkpt lat="37.4261" lon="-8.09422">
        <ele>434.608</ele>
        <time>2019-10-14T20:17:00Z</time>
      </trkpt>
      <trkpt lat="37.42635" lon="-8.09446">
        <ele>434.018</ele>
        <time>2019-10-14T20:17:20Z</time>
      </trkpt>
      <trkpt lat="37.42644" lon="-8.0945">
        <ele>434.766</ele>
        <time>2019-10-14T20:17:40Z</time>
      </trkpt>
      <trkpt lat="37.42653" lon="-8.09451">
        <ele>435.638</ele>
        <time>2019-10-14T20:18:00Z</time>
      </trkpt>
      <trkpt lat="37.42661" lon="-8.09453">
        <ele>436.598</ele>
        <time>2019-10-14T20:18:20Z</time>
      </trkpt>
      <trkpt lat="37.42669" lon="-8.09457">
        <ele>437.54</ele>
        <time>2019-10-14T20:18:40Z</time>
      </trkpt>
      <trkpt lat="37.42675" lon="-8.09462">
        <ele>438.581</ele>
        <time>2019-10-14T20:19:00Z</time>
      </trkpt>
      <trkpt lat="37.4268" lon="-8.09469">
        <ele>439.663</ele>
        <time>2019-10-14T20:19:20Z</time>
      </trkpt>
      <trkpt lat="37.42686" lon="-8.09477">
        <ele>440.263</ele>
        <time>2019-10-14T20:19:40Z</time>
      </trkpt>
      <trkpt lat="37.42739" lon="-8.0955">
        <ele>434.665</ele>
        <time>2019-10-14T20:20:00Z</time>
      </trkpt>
      <trkpt lat="37.42745" lon="-8.09563">
        <ele>435.068</ele>
        <time>2019-10-14T20:20:20Z</time>
      </trkpt>
      <trkpt lat="37.4275" lon="-8.09576">
        <ele>435.714</ele>
        <time>2019-10-14T20:20:40Z</time>
      </trkpt>
      <trkpt lat="37.42754" lon="-8.09588">
        <ele>435.708</ele>
        <time>2019-10-14T20:21:00Z</time>
      </trkpt>
      <trkpt lat="37.42757" lon="-8.09599">
        <ele>435.79</ele>
        <time>2019-10-14T20:21:20Z</time>
      </trkpt>
      <trkpt lat="37.42757" lon="-8.09609">
        <ele>435.718</ele>
        <time>2019-10-14T20:21:40Z</time>
      </trkpt>
      <trkpt lat="37.42756" lon="-8.09619">
        <ele>435.61</ele>
        <time>2019-10-14T20:22:00Z</time>
      </trkpt>
      <trkpt lat="37.42752" lon="-8.09628">
        <ele>435.48</ele>
        <time>2019-10-14T20:22:20Z</time>
      </trkpt>
      <trkpt lat="37.42746" lon="-8.09638">
        <ele>434.742</ele>
        <time>2019-10-14T20:22:40Z</time>
      </trkpt>
      <trkpt lat="37.42739" lon="-8.09649">
        <ele>433.813</ele>
        <time>2019-10-14T20:23:00Z</time>
      </trkpt>
      <trkpt lat="37.42727" lon="-8.09669">
        <ele>433.095</ele>
        <time>2019-10-14T20:23:20Z</time>
      </trkpt>
      <trkpt lat="37.42723" lon="-8.09679">
        <ele>433.065</ele>
        <time>2019-10-14T20:23:40Z</time>
      </trkpt>
      <trkpt lat="37.42722" lon="-8.09689">
        <ele>433.019</ele>
        <time>2019-10-14T20:24:00Z</time>
      </trkpt>
      <trkpt lat="37.42724" lon="-8.09697">
        <ele>432.709</ele>
        <time>2019-10-14T20:24:20Z</time>
      </trkpt>
      <trkpt lat="37.42728" lon="-8.09706">
        <ele>432.119</ele>
        <time>2019-10-14T20:24:40Z</time>
      </trkpt>
      <trkpt lat="37.42735" lon="-8.09714">
        <ele>431.508</ele>
        <time>2019-10-14T20:25:00Z</time>
      </trkpt>
      <trkpt lat="37.42743" lon="-8.09722">
        <ele>431.025</ele>
        <time>2019-10-14T20:25:20Z</time>
      </trkpt>
      <trkpt lat="37.4277" lon="-8.09751">
        <ele>430.683</ele>
        <time>2019-10-14T20:25:40Z</time>
      </trkpt>
      <trkpt lat="37.42784" lon="-8.09772">
        <ele>430.455</ele>
        <time>2019-10-14T20:26:00Z</time>
      </trkpt>
      <trkpt lat="37.42793" lon="-8.0978">
        <ele>430.415</ele>
        <time>2019-10-14T20:26:20Z</time>
      </trkpt>
      <trkpt lat="37.42804" lon="-8.09788">
        <ele>430.697</ele>
        <time>2019-10-14T20:26:40Z</time>
      </trkpt>
      <trkpt lat="37.42817" lon="-8.09795">
        <ele>430.698</ele>
        <time>2019-10-14T20:27:00Z</time>
      </trkpt>
      <trkpt lat="37.42831" lon="-8.09802">
        <ele>430.94</ele>
        <time>2019-10-14T20:27:20Z</time>
      </trkpt>
      <trkpt lat="37.42876" lon="-8.09825">
        <ele>432.99</ele>
        <time>2019-10-14T20:27:40Z</time>
      </trkpt>
      <trkpt lat="37.42931" lon="-8.09862">
        <ele>430.566</ele>
        <time>2019-10-14T20:28:00Z</time>
      </trkpt>
      <trkpt lat="37.4296" lon="-8.09874">
        <ele>429.529</ele>
        <time>2019-10-14T20:28:20Z</time>
      </trkpt>
      <trkpt lat="37.42966" lon="-8.0988">
        <ele>429.321</ele>
        <time>2019-10-14T20:28:40Z</time>
      </trkpt>
      <trkpt lat="37.42972" lon="-8.09888">
        <ele>429.008</ele>
        <time>2019-10-14T20:29:00Z</time>
      </trkpt>
      <trkpt lat="37.42977" lon="-8.09898">
        <ele>428.96</ele>
        <time>2019-10-14T20:29:20Z</time>
      </trkpt>
      <trkpt lat="37.42982" lon="-8.09909">
        <ele>428.918</ele>
        <time>2019-10-14T20:29:40Z</time>
      </trkpt>
      <trkpt lat="37.42987" lon="-8.09917">
        <ele>429.01</ele>
        <time>2019-10-14T20:30:00Z</time>
      </trkpt>
      <trkpt lat="37.42992" lon="-8.09922">
        <ele>429.19</ele>
        <time>2019-10-14T20:30:20Z</time>
      </trkpt>
      <trkpt lat="37.42997" lon="-8.09923">
        <ele>429.252</ele>
        <time>2019-10-14T20:30:40Z</time>
      </trkpt>
      <trkpt lat="37.43003" lon="-8.09922">
        <ele>429.293</ele>
        <time>2019-10-14T20:31:00Z</time>
      </trkpt>
      <trkpt lat="37.43011" lon="-8.09919">
        <ele>429.155</ele>
        <time>2019-10-14T20:31:20Z</time>
      </trkpt>
      <trkpt lat="37.43019" lon="-8.09914">
        <ele>428.925</ele>
        <time>2019-10-14T20:31:40Z</time>
      </trkpt>
      <trkpt lat="37.43027" lon="-8.09907">
        <ele>428.623</ele>
        <time>2019-10-14T20:32:00Z</time>
      </trkpt>
      <trkpt lat="37.43033" lon="-8.09897">
        <ele>428.383</ele>
        <time>2019-10-14T20:32:20Z</time>
      </trkpt>
      <trkpt lat="37.43037" lon="-8.09886">
        <ele>427.711</ele>
        <time>2019-10-14T20:32:40Z</time>
      </trkpt>
      <trkpt lat="37.43041" lon="-8.09876">
        <ele>426.908</ele>
        <time>2019-10-14T20:33:00Z</time>
      </trkpt>
      <trkpt lat="37.43048" lon="-8.09868">
        <ele>426.336</ele>
        <time>2019-10-14T20:33:20Z</time>
      </trkpt>
      <trkpt lat="37.43056" lon="-8.09861">
        <ele>425.964</ele>
        <time>2019-10-14T20:33:40Z</time>
      </trkpt>
      <trkpt lat="37.43066" lon="-8.09855">
        <ele>425.236</ele>
        <time>2019-10-14T20:34:00Z</time>
      </trkpt>
      <trkpt lat="37.43077" lon="-8.09851">
        <ele>425.086</ele>
        <time>2019-10-14T20:34:20Z</time>
      </trkpt>
      <trkpt lat="37.43088" lon="-8.09847">
        <ele>424.978</ele>
        <time>2019-10-14T20:34:40Z</time>
      </trkpt>
      <trkpt lat="37.431" lon="-8.09842">
        <ele>424.889</ele>
        <time>2019-10-14T20:35:00Z</time>
      </trkpt>
      <trkpt lat="37.43138" lon="-8.09818">
        <ele>422.651</ele>
        <time>2019-10-14T20:35:20Z</time>
      </trkpt>
      <trkpt lat="37.43162" lon="-8.09806">
        <ele>418.811</ele>
        <time>2019-10-14T20:35:40Z</time>
      </trkpt>
      <trkpt lat="37.43174" lon="-8.09803">
        <ele>418.081</ele>
        <time>2019-10-14T20:36:00Z</time>
      </trkpt>
      <trkpt lat="37.43187" lon="-8.09802">
        <ele>417.961</ele>
        <time>2019-10-14T20:36:20Z</time>
      </trkpt>
      <trkpt lat="37.43201" lon="-8.09803">
        <ele>417.917</ele>
        <time>2019-10-14T20:36:40Z</time>
      </trkpt>
      <trkpt lat="37.43214" lon="-8.09806">
        <ele>418.008</ele>
        <time>2019-10-14T20:37:00Z</time>
      </trkpt>
      <trkpt lat="37.43228" lon="-8.0981">
        <ele>418.032</ele>
        <time>2019-10-14T20:37:20Z</time>
      </trkpt>
      <trkpt lat="37.43242" lon="-8.09816">
        <ele>418.32</ele>
        <time>2019-10-14T20:37:40Z</time>
      </trkpt>
      <trkpt lat="37.43256" lon="-8.09823">
        <ele>418.622</ele>
        <time>2019-10-14T20:38:00Z</time>
      </trkpt>
      <trkpt lat="37.43294" lon="-8.09849">
        <ele>418.732</ele>
        <time>2019-10-14T20:38:20Z</time>
      </trkpt>
      <trkpt lat="37.43305" lon="-8.0986">
        <ele>418.154</ele>
        <time>2019-10-14T20:38:40Z</time>
      </trkpt>
      <trkpt lat="37.43315" lon="-8.09873">
        <ele>418.765</ele>
        <time>2019-10-14T20:39:00Z</time>
      </trkpt>
      <trkpt lat="37.43325" lon="-8.09886">
        <ele>419.477</ele>
        <time>2019-10-14T20:39:20Z</time>
      </trkpt>
      <trkpt lat="37.43333" lon="-8.09901">
        <ele>420.027</ele>
        <time>2019-10-14T20:39:40Z</time>
      </trkpt>
      <trkpt lat="37.43342" lon="-8.09916">
        <ele>420.359</ele>
        <time>2019-10-14T20:40:00Z</time>
      </trkpt>
      <trkpt lat="37.43351" lon="-8.0993">
        <ele>420.003</ele>
        <time>2019-10-14T20:40:20Z</time>
      </trkpt>
      <trkpt lat="37.43438" lon="-8.10031">
        <ele>419.123</ele>
        <time>2019-10-14T20:40:40Z</time>
      </trkpt>
      <trkpt lat="37.43447" lon="-8.10036">
        <ele>419.208</ele>
        <time>2019-10-14T20:41:00Z</time>
      </trkpt>
      <trkpt lat="37.43458" lon="-8.10039">
        <ele>418.979</ele>
        <time>2019-10-14T20:41:20Z</time>
      </trkpt>
      <trkpt lat="37.43469" lon="-8.10039">
        <ele>418.527</ele>
        <time>2019-10-14T20:41:40Z</time>
      </trkpt>
      <trkpt lat="37.43481" lon="-8.1004">
        <ele>418.069</ele>
        <time>2019-10-14T20:42:00Z</time>
      </trkpt>
      <trkpt lat="37.43503" lon="-8.10039">
        <ele>417.059</ele>
        <time>2019-10-14T20:42:20Z</time>
      </trkpt>
      <trkpt lat="37.43512" lon="-8.10036">
        <ele>417.091</ele>
        <time>2019-10-14T20:42:40Z</time>
      </trkpt>
      <trkpt lat="37.4352" lon="-8.1003">
        <ele>417.072</ele>
        <time>2019-10-14T20:43:00Z</time>
      </trkpt>
      <trkpt lat="37.43528" lon="-8.1002">
        <ele>416.414</ele>
        <time>2019-10-14T20:43:20Z</time>
      </trkpt>
      <trkpt lat="37.43534" lon="-8.10006">
        <ele>415.494</ele>
        <time>2019-10-14T20:43:40Z</time>
      </trkpt>
      <trkpt lat="37.43541" lon="-8.09992">
        <ele>414.343</ele>
        <time>2019-10-14T20:44:00Z</time>
      </trkpt>
      <trkpt lat="37.43553" lon="-8.09971">
        <ele>412.864</ele>
        <time>2019-10-14T20:44:20Z</time>
      </trkpt>
      <trkpt lat="37.43561" lon="-8.09964">
        <ele>412.51</ele>
        <time>2019-10-14T20:44:40Z</time>
      </trkpt>
      <trkpt lat="37.4357" lon="-8.09961">
        <ele>412.608</ele>
        <time>2019-10-14T20:45:00Z</time>
      </trkpt>
      <trkpt lat="37.4358" lon="-8.09959">
        <ele>412.988</ele>
        <time>2019-10-14T20:45:20Z</time>
      </trkpt>
      <trkpt lat="37.4359" lon="-8.09959">
        <ele>412.856</ele>
        <time>2019-10-14T20:45:40Z</time>
      </trkpt>
      <trkpt lat="37.43605" lon="-8.09958">
        <ele>412.228</ele>
        <time>2019-10-14T20:46:00Z</time>
      </trkpt>
      <trkpt lat="37.43611" lon="-8.09955">
        <ele>412.088</ele>
        <time>2019-10-14T20:46:20Z</time>
      </trkpt>
      <trkpt lat="37.43617" lon="-8.09951">
        <ele>411.93</ele>
        <time>2019-10-14T20:46:40Z</time>
      </trkpt>
      <trkpt lat="37.43625" lon="-8.09946">
        <ele>412.011</ele>
        <time>2019-10-14T20:47:00Z</time>
      </trkpt>
      <trkpt lat="37.43632" lon="-8.09937">
        <ele>411.783</ele>
        <time>2019-10-14T20:47:20Z</time>
      </trkpt>
      <trkpt lat="37.43639" lon="-8.09926">
        <ele>411.353</ele>
        <time>2019-10-14T20:47:40Z</time>
      </trkpt>
      <trkpt lat="37.43644" lon="-8.09916">
        <ele>411.123</ele>
        <time>2019-10-14T20:48:00Z</time>
      </trkpt>
      <trkpt lat="37.43651" lon="-8.09908">
        <ele>410.883</ele>
        <time>2019-10-14T20:48:20Z</time>
      </trkpt>
      <trkpt lat="37.43659" lon="-8.09902">
        <ele>410.711</ele>
        <time>2019-10-14T20:48:40Z</time>
      </trkpt>
      <trkpt lat="37.43668" lon="-8.09898">
        <ele>410.708</ele>
        <time>2019-10-14T20:49:00Z</time>
      </trkpt>
      <trkpt lat="37.43677" lon="-8.09894">
        <ele>410.436</ele>
        <time>2019-10-14T20:49:20Z</time>
      </trkpt>
      <trkpt lat="37.43685" lon="-8.09889">
        <ele>410.044</ele>
        <time>2019-10-14T20:49:40Z</time>
      </trkpt>
      <trkpt lat="37.43692" lon="-8.09881">
        <ele>409.776</ele>
        <time>2019-10-14T20:50:00Z</time>
      </trkpt>
      <trkpt lat="37.43698" lon="-8.09871">
        <ele>409.116</ele>
        <time>2019-10-14T20:50:20Z</time>
      </trkpt>
      <trkpt lat="37.43704" lon="-8.0986">
        <ele>408.378</ele>
        <time>2019-10-14T20:50:40Z</time>
      </trkpt>
      <trkpt lat="37.4371" lon="-8.09851">
        <ele>407.999</ele>
        <time>2019-10-14T20:51:00Z</time>
      </trkpt>
      <trkpt lat="37.43717" lon="-8.09843">
        <ele>407.861</ele>
        <time>2019-10-14T20:51:20Z</time>
      </trkpt>
      <trkpt lat="37.43726" lon="-8.09837">
        <ele>407.971</ele>
        <time>2019-10-14T20:51:40Z</time>
      </trkpt>
      <trkpt lat="37.43736" lon="-8.09834">
        <ele>408.033</ele>
        <time>2019-10-14T20:52:00Z</time>
      </trkpt>
      <trkpt lat="37.43746" lon="-8.09834">
        <ele>407.923</ele>
        <time>2019-10-14T20:52:20Z</time>
      </trkpt>
      <trkpt lat="37.43756" lon="-8.09834">
        <ele>407.515</ele>
        <time>2019-10-14T20:52:40Z</time>
      </trkpt>
      <trkpt lat="37.43764" lon="-8.09832">
        <ele>407.108</ele>
        <time>2019-10-14T20:53:00Z</time>
      </trkpt>
      <trkpt lat="37.43771" lon="-8.09826">
        <ele>407.037</ele>
        <time>2019-10-14T20:53:20Z</time>
      </trkpt>
      <trkpt lat="37.43777" lon="-8.09817">
        <ele>407.355</ele>
        <time>2019-10-14T20:53:40Z</time>
      </trkpt>
      <trkpt lat="37.43782" lon="-8.09805">
        <ele>407.947</ele>
        <time>2019-10-14T20:54:00Z</time>
      </trkpt>
      <trkpt lat="37.43794" lon="-8.09779">
        <ele>408.417</ele>
        <time>2019-10-14T20:54:20Z</time>
      </trkpt>
      <trkpt lat="37.43798" lon="-8.09776">
        <ele>408.299</ele>
        <time>2019-10-14T20:54:40Z</time>
      </trkpt>
      <trkpt lat="37.43803" lon="-8.09775">
        <ele>408.02</ele>
        <time>2019-10-14T20:55:00Z</time>
      </trkpt>
      <trkpt lat="37.43808" lon="-8.09776">
        <ele>407.822</ele>
        <time>2019-10-14T20:55:20Z</time>
      </trkpt>
      <trkpt lat="37.43814" lon="-8.09781">
        <ele>407.362</ele>
        <time>2019-10-14T20:55:40Z</time>
      </trkpt>
      <trkpt lat="37.43821" lon="-8.09789">
        <ele>406.571</ele>
        <time>2019-10-14T20:56:00Z</time>
      </trkpt>
      <trkpt lat="37.4384" lon="-8.09808">
        <ele>404.841</ele>
        <time>2019-10-14T20:56:20Z</time>
      </trkpt>
      <trkpt lat="37.43848" lon="-8.0982">
        <ele>404.515</ele>
        <time>2019-10-14T20:56:40Z</time>
      </trkpt>
      <trkpt lat="37.43854" lon="-8.09835">
        <ele>404.208</ele>
        <time>2019-10-14T20:57:00Z</time>
      </trkpt>
      <trkpt lat="37.43882" lon="-8.09894">
        <ele>403.131</ele>
        <time>2019-10-14T20:57:20Z</time>
      </trkpt>
      <trkpt lat="37.43891" lon="-8.09906">
        <ele>402.759</ele>
        <time>2019-10-14T20:57:40Z</time>
      </trkpt>
      <trkpt lat="37.43902" lon="-8.09916">
        <ele>402.051</ele>
        <time>2019-10-14T20:58:00Z</time>
      </trkpt>
      <trkpt lat="37.43925" lon="-8.09937">
        <ele>401.951</ele>
        <time>2019-10-14T20:58:20Z</time>
      </trkpt>
      <trkpt lat="37.43935" lon="-8.0995">
        <ele>402.623</ele>
        <time>2019-10-14T20:58:40Z</time>
      </trkpt>
      <trkpt lat="37.43967" lon="-8.09997">
        <ele>407.794</ele>
        <time>2019-10-14T20:59:00Z</time>
      </trkpt>
      <trkpt lat="37.43974" lon="-8.10004">
        <ele>407.986</ele>
        <time>2019-10-14T20:59:20Z</time>
      </trkpt>
      <trkpt lat="37.43982" lon="-8.10006">
        <ele>407.786</ele>
        <time>2019-10-14T20:59:40Z</time>
      </trkpt>
      <trkpt lat="37.43991" lon="-8.10005">
        <ele>407.365</ele>
        <time>2019-10-14T21:00:00Z</time>
      </trkpt>
      <trkpt lat="37.44002" lon="-8.10001">
        <ele>406.968</ele>
        <time>2019-10-14T21:00:20Z</time>
      </trkpt>
      <trkpt lat="37.44014" lon="-8.09995">
        <ele>406.514</ele>
        <time>2019-10-14T21:00:40Z</time>
      </trkpt>
      <trkpt lat="37.44038" lon="-8.09982">
        <ele>405.908</ele>
        <time>2019-10-14T21:01:00Z</time>
      </trkpt>
      <trkpt lat="37.44049" lon="-8.09973">
        <ele>406.03</ele>
        <time>2019-10-14T21:01:20Z</time>
      </trkpt>
      <trkpt lat="37.44091" lon="-8.09943">
        <ele>403.478</ele>
        <time>2019-10-14T21:01:40Z</time>
      </trkpt>
      <trkpt lat="37.44102" lon="-8.09939">
        <ele>402.66</ele>
        <time>2019-10-14T21:02:00Z</time>
      </trkpt>
      <trkpt lat="37.44116" lon="-8.09938">
        <ele>401.83</ele>
        <time>2019-10-14T21:02:20Z</time>
      </trkpt>
      <trkpt lat="37.4413" lon="-8.09937">
        <ele>401.382</ele>
        <time>2019-10-14T21:02:40Z</time>
      </trkpt>
      <trkpt lat="37.44169" lon="-8.09937">
        <ele>400.463</ele>
        <time>2019-10-14T21:03:00Z</time>
      </trkpt>
      <trkpt lat="37.44183" lon="-8.0994">
        <ele>401.215</ele>
        <time>2019-10-14T21:03:20Z</time>
      </trkpt>
      <trkpt lat="37.44218" lon="-8.0995">
        <ele>399.475</ele>
        <time>2019-10-14T21:03:40Z</time>
      </trkpt>
      <trkpt lat="37.44229" lon="-8.09955">
        <ele>398.848</ele>
        <time>2019-10-14T21:04:00Z</time>
      </trkpt>
      <trkpt lat="37.44239" lon="-8.09962">
        <ele>398.461</ele>
        <time>2019-10-14T21:04:20Z</time>
      </trkpt>
      <trkpt lat="37.44249" lon="-8.0997">
        <ele>398.017</ele>
        <time>2019-10-14T21:04:40Z</time>
      </trkpt>
      <trkpt lat="37.44259" lon="-8.09979">
        <ele>397.108</ele>
        <time>2019-10-14T21:05:00Z</time>
      </trkpt>
      <trkpt lat="37.44361" lon="-8.10074">
        <ele>399.048</ele>
        <time>2019-10-14T21:05:20Z</time>
      </trkpt>
      <trkpt lat="37.4445" lon="-8.10175">
        <ele>400.716</ele>
        <time>2019-10-14T21:05:40Z</time>
      </trkpt>
      <trkpt lat="37.44538" lon="-8.10252">
        <ele>398.448</ele>
        <time>2019-10-14T21:06:00Z</time>
      </trkpt>
      <trkpt lat="37.44549" lon="-8.10256">
        <ele>398.888</ele>
        <time>2019-10-14T21:06:20Z</time>
      </trkpt>
      <trkpt lat="37.44561" lon="-8.10258">
        <ele>399.22</ele>
        <time>2019-10-14T21:06:40Z</time>
      </trkpt>
      <trkpt lat="37.44571" lon="-8.10259">
        <ele>399.891</ele>
        <time>2019-10-14T21:07:00Z</time>
      </trkpt>
      <trkpt lat="37.44583" lon="-8.10261">
        <ele>400.423</ele>
        <time>2019-10-14T21:07:20Z</time>
      </trkpt>
      <trkpt lat="37.44595" lon="-8.10265">
        <ele>399.953</ele>
        <time>2019-10-14T21:07:40Z</time>
      </trkpt>
      <trkpt lat="37.44633" lon="-8.10278">
        <ele>397.722</ele>
        <time>2019-10-14T21:08:00Z</time>
      </trkpt>
      <trkpt lat="37.44671" lon="-8.1029">
        <ele>395.762</ele>
        <time>2019-10-14T21:08:20Z</time>
      </trkpt>
      <trkpt lat="37.44708" lon="-8.103">
        <ele>395.708</ele>
        <time>2019-10-14T21:08:40Z</time>
      </trkpt>
      <trkpt lat="37.44714" lon="-8.10298">
        <ele>395.708</ele>
        <time>2019-10-14T21:09:00Z</time>
      </trkpt>
      <trkpt lat="37.44719" lon="-8.10292">
        <ele>395.576</ele>
        <time>2019-10-14T21:09:20Z</time>
      </trkpt>
      <trkpt lat="37.44723" lon="-8.10283">
        <ele>395.374</ele>
        <time>2019-10-14T21:09:40Z</time>
      </trkpt>
      <trkpt lat="37.44727" lon="-8.10271">
        <ele>394.836</ele>
        <time>2019-10-14T21:10:00Z</time>
      </trkpt>
      <trkpt lat="37.44742" lon="-8.10234">
        <ele>392.066</ele>
        <time>2019-10-14T21:10:20Z</time>
      </trkpt>
      <trkpt lat="37.44747" lon="-8.10224">
        <ele>391.148</ele>
        <time>2019-10-14T21:10:40Z</time>
      </trkpt>
      <trkpt lat="37.44752" lon="-8.10215">
        <ele>390.399</ele>
        <time>2019-10-14T21:11:00Z</time>
      </trkpt>
      <trkpt lat="37.44759" lon="-8.10208">
        <ele>389.311</ele>
        <time>2019-10-14T21:11:20Z</time>
      </trkpt>
      <trkpt lat="37.44766" lon="-8.10203">
        <ele>388.721</ele>
        <time>2019-10-14T21:11:40Z</time>
      </trkpt>
      <trkpt lat="37.44775" lon="-8.10202">
        <ele>388.256</ele>
        <time>2019-10-14T21:12:00Z</time>
      </trkpt>
      <trkpt lat="37.44784" lon="-8.10203">
        <ele>387.959</ele>
        <time>2019-10-14T21:12:20Z</time>
      </trkpt>
      <trkpt lat="37.44795" lon="-8.10206">
        <ele>387.714</ele>
        <time>2019-10-14T21:12:40Z</time>
      </trkpt>
      <trkpt lat="37.44807" lon="-8.10211">
        <ele>387.408</ele>
        <time>2019-10-14T21:13:00Z</time>
      </trkpt>
      <trkpt lat="37.44821" lon="-8.10215">
        <ele>387.149</ele>
        <time>2019-10-14T21:13:20Z</time>
      </trkpt>
      <trkpt lat="37.44909" lon="-8.10241">
        <ele>390.537</ele>
        <time>2019-10-14T21:13:40Z</time>
      </trkpt>
      <trkpt lat="37.44949" lon="-8.10257">
        <ele>393.619</ele>
        <time>2019-10-14T21:14:00Z</time>
      </trkpt>
      <trkpt lat="37.44973" lon="-8.10268">
        <ele>395.679</ele>
        <time>2019-10-14T21:14:20Z</time>
      </trkpt>
      <trkpt lat="37.44983" lon="-8.10275">
        <ele>396.281</ele>
        <time>2019-10-14T21:14:40Z</time>
      </trkpt>
      <trkpt lat="37.44992" lon="-8.10283">
        <ele>396.392</ele>
        <time>2019-10-14T21:15:00Z</time>
      </trkpt>
      <trkpt lat="37.45" lon="-8.10293">
        <ele>396.064</ele>
        <time>2019-10-14T21:15:20Z</time>
      </trkpt>
      <trkpt lat="37.45006" lon="-8.10304">
        <ele>395.344</ele>
        <time>2019-10-14T21:15:40Z</time>
      </trkpt>
      <trkpt lat="37.45012" lon="-8.10316">
        <ele>394.716</ele>
        <time>2019-10-14T21:16:00Z</time>
      </trkpt>
      <trkpt lat="37.45016" lon="-8.10327">
        <ele>394.276</ele>
        <time>2019-10-14T21:16:20Z</time>
      </trkpt>
      <trkpt lat="37.4502" lon="-8.10336">
        <ele>393.813</ele>
        <time>2019-10-14T21:16:40Z</time>
      </trkpt>
      <trkpt lat="37.45035" lon="-8.10366">
        <ele>392.308</ele>
        <time>2019-10-14T21:17:00Z</time>
      </trkpt>
      <trkpt lat="37.45039" lon="-8.10372">
        <ele>391.685</ele>
        <time>2019-10-14T21:17:20Z</time>
      </trkpt>
      <trkpt lat="37.45045" lon="-8.10377">
        <ele>391.053</ele>
        <time>2019-10-14T21:17:40Z</time>
      </trkpt>
      <trkpt lat="37.45106" lon="-8.10429">
        <ele>393.255</ele>
        <time>2019-10-14T21:18:00Z</time>
      </trkpt>
      <trkpt lat="37.45163" lon="-8.10476">
        <ele>389.625</ele>
        <time>2019-10-14T21:18:20Z</time>
      </trkpt>
      <trkpt lat="37.4517" lon="-8.10479">
        <ele>389.137</ele>
        <time>2019-10-14T21:18:40Z</time>
      </trkpt>
      <trkpt lat="37.45176" lon="-8.10479">
        <ele>388.918</ele>
        <time>2019-10-14T21:19:00Z</time>
      </trkpt>
      <trkpt lat="37.45181" lon="-8.10475">
        <ele>388.69</ele>
        <time>2019-10-14T21:19:20Z</time>
      </trkpt>
      <trkpt lat="37.45184" lon="-8.1047">
        <ele>388.23</ele>
        <time>2019-10-14T21:19:40Z</time>
      </trkpt>
      <trkpt lat="37.45185" lon="-8.10463">
        <ele>387.622</ele>
        <time>2019-10-14T21:20:00Z</time>
      </trkpt>
      <trkpt lat="37.45185" lon="-8.10456">
        <ele>387.062</ele>
        <time>2019-10-14T21:20:20Z</time>
      </trkpt>
      <trkpt lat="37.45185" lon="-8.1044">
        <ele>385.708</ele>
        <time>2019-10-14T21:20:40Z</time>
      </trkpt>
      <trkpt lat="37.45187" lon="-8.10429">
        <ele>384.908</ele>
        <time>2019-10-14T21:21:00Z</time>
      </trkpt>
      <trkpt lat="37.45192" lon="-8.10418">
        <ele>384.176</ele>
        <time>2019-10-14T21:21:20Z</time>
      </trkpt>
      <trkpt lat="37.45198" lon="-8.10407">
        <ele>384.134</ele>
        <time>2019-10-14T21:21:40Z</time>
      </trkpt>
      <trkpt lat="37.45206" lon="-8.10396">
        <ele>384.496</ele>
        <time>2019-10-14T21:22:00Z</time>
      </trkpt>
      <trkpt lat="37.45214" lon="-8.10385">
        <ele>384.696</ele>
        <time>2019-10-14T21:22:20Z</time>
      </trkpt>
      <trkpt lat="37.45223" lon="-8.10377">
        <ele>384.678</ele>
        <time>2019-10-14T21:22:40Z</time>
      </trkpt>
      <trkpt lat="37.45231" lon="-8.10372">
        <ele>384.149</ele>
        <time>2019-10-14T21:23:00Z</time>
      </trkpt>
      <trkpt lat="37.45241" lon="-8.10371">
        <ele>383.791</ele>
        <time>2019-10-14T21:23:20Z</time>
      </trkpt>
      <trkpt lat="37.45251" lon="-8.10371">
        <ele>383.411</ele>
        <time>2019-10-14T21:23:40Z</time>
      </trkpt>
      <trkpt lat="37.45261" lon="-8.10372">
        <ele>383.689</ele>
        <time>2019-10-14T21:24:00Z</time>
      </trkpt>
      <trkpt lat="37.45272" lon="-8.10374">
        <ele>383.906</ele>
        <time>2019-10-14T21:24:20Z</time>
      </trkpt>
      <trkpt lat="37.45282" lon="-8.10378">
        <ele>384.426</ele>
        <time>2019-10-14T21:24:40Z</time>
      </trkpt>
      <trkpt lat="37.45293" lon="-8.10383">
        <ele>385.508</ele>
        <time>2019-10-14T21:25:00Z</time>
      </trkpt>
      <trkpt lat="37.45303" lon="-8.10389">
        <ele>386.792</ele>
        <time>2019-10-14T21:25:20Z</time>
      </trkpt>
      <trkpt lat="37.45313" lon="-8.10397">
        <ele>386.49</ele>
        <time>2019-10-14T21:25:40Z</time>
      </trkpt>
      <trkpt lat="37.45364" lon="-8.10439">
        <ele>384.412</ele>
        <time>2019-10-14T21:26:00Z</time>
      </trkpt>
      <trkpt lat="37.45379" lon="-8.10449">
        <ele>383.662</ele>
        <time>2019-10-14T21:26:20Z</time>
      </trkpt>
      <trkpt lat="37.45386" lon="-8.10452">
        <ele>383.444</ele>
        <time>2019-10-14T21:26:40Z</time>
      </trkpt>
      <trkpt lat="37.45398" lon="-8.10458">
        <ele>382.775</ele>
        <time>2019-10-14T21:27:00Z</time>
      </trkpt>
      <trkpt lat="37.45403" lon="-8.10461">
        <ele>382.447</ele>
        <time>2019-10-14T21:27:20Z</time>
      </trkpt>
      <trkpt lat="37.45405" lon="-8.10466">
        <ele>382.237</ele>
        <time>2019-10-14T21:27:40Z</time>
      </trkpt>
      <trkpt lat="37.45407" lon="-8.10472">
        <ele>382.058</ele>
        <time>2019-10-14T21:28:00Z</time>
      </trkpt>
      <trkpt lat="37.45407" lon="-8.1048">
        <ele>381.952</ele>
        <time>2019-10-14T21:28:20Z</time>
      </trkpt>
      <trkpt lat="37.45407" lon="-8.1049">
        <ele>381.817</ele>
        <time>2019-10-14T21:28:40Z</time>
      </trkpt>
      <trkpt lat="37.45405" lon="-8.10503">
        <ele>381.608</ele>
        <time>2019-10-14T21:29:00Z</time>
      </trkpt>
      <trkpt lat="37.45402" lon="-8.10516">
        <ele>381.589</ele>
        <time>2019-10-14T21:29:20Z</time>
      </trkpt>
      <trkpt lat="37.45397" lon="-8.10531">
        <ele>381.367</ele>
        <time>2019-10-14T21:29:40Z</time>
      </trkpt>
      <trkpt lat="37.45391" lon="-8.10545">
        <ele>381.159</ele>
        <time>2019-10-14T21:30:00Z</time>
      </trkpt>
      <trkpt lat="37.45384" lon="-8.10559">
        <ele>380.949</ele>
        <time>2019-10-14T21:30:20Z</time>
      </trkpt>
      <trkpt lat="37.4537" lon="-8.10583">
        <ele>380.681</ele>
        <time>2019-10-14T21:30:40Z</time>
      </trkpt>
      <trkpt lat="37.45361" lon="-8.10593">
        <ele>379.332</ele>
        <time>2019-10-14T21:31:00Z</time>
      </trkpt>
      <trkpt lat="37.4535" lon="-8.10601">
        <ele>378.314</ele>
        <time>2019-10-14T21:31:20Z</time>
      </trkpt>
      <trkpt lat="37.4534" lon="-8.10609">
        <ele>377.494</ele>
        <time>2019-10-14T21:31:40Z</time>
      </trkpt>
      <trkpt lat="37.4533" lon="-8.10616">
        <ele>376.314</ele>
        <time>2019-10-14T21:32:00Z</time>
      </trkpt>
      <trkpt lat="37.45322" lon="-8.10624">
        <ele>374.954</ele>
        <time>2019-10-14T21:32:20Z</time>
      </trkpt>
      <trkpt lat="37.45316" lon="-8.10633">
        <ele>373.509</ele>
        <time>2019-10-14T21:32:40Z</time>
      </trkpt>
      <trkpt lat="37.45312" lon="-8.10645">
        <ele>372.508</ele>
        <time>2019-10-14T21:33:00Z</time>
      </trkpt>
      <trkpt lat="37.45309" lon="-8.10659">
        <ele>371.665</ele>
        <time>2019-10-14T21:33:20Z</time>
      </trkpt>
      <trkpt lat="37.45289" lon="-8.1079">
        <ele>368.483</ele>
        <time>2019-10-14T21:33:40Z</time>
      </trkpt>
      <trkpt lat="37.45292" lon="-8.10806">
        <ele>369.055</ele>
        <time>2019-10-14T21:34:00Z</time>
      </trkpt>
      <trkpt lat="37.45296" lon="-8.10823">
        <ele>369.265</ele>
        <time>2019-10-14T21:34:20Z</time>
      </trkpt>
      <trkpt lat="37.4533" lon="-8.10913">
        <ele>369.647</ele>
        <time>2019-10-14T21:34:40Z</time>
      </trkpt>
      <trkpt lat="37.45334" lon="-8.10925">
        <ele>369.988</ele>
        <time>2019-10-14T21:35:00Z</time>
      </trkpt>
      <trkpt lat="37.45337" lon="-8.10939">
        <ele>369.58</ele>
        <time>2019-10-14T21:35:20Z</time>
      </trkpt>
      <trkpt lat="37.45347" lon="-8.11001">
        <ele>364.59</ele>
        <time>2019-10-14T21:35:40Z</time>
      </trkpt>
      <trkpt lat="37.45351" lon="-8.11015">
        <ele>363.244</ele>
        <time>2019-10-14T21:36:00Z</time>
      </trkpt>
      <trkpt lat="37.45356" lon="-8.11029">
        <ele>362.205</ele>
        <time>2019-10-14T21:36:20Z</time>
      </trkpt>
      <trkpt lat="37.45362" lon="-8.11043">
        <ele>361.915</ele>
        <time>2019-10-14T21:36:40Z</time>
      </trkpt>
      <trkpt lat="37.45377" lon="-8.11074">
        <ele>361.108</ele>
        <time>2019-10-14T21:37:00Z</time>
      </trkpt>
      <trkpt lat="37.45402" lon="-8.11129">
        <ele>363.718</ele>
        <time>2019-10-14T21:37:20Z</time>
      </trkpt>
      <trkpt lat="37.45404" lon="-8.11143">
        <ele>363.966</ele>
        <time>2019-10-14T21:37:40Z</time>
      </trkpt>
      <trkpt lat="37.45406" lon="-8.11157">
        <ele>363.598</ele>
        <time>2019-10-14T21:38:00Z</time>
      </trkpt>
      <trkpt lat="37.45406" lon="-8.112">
        <ele>363.258</ele>
        <time>2019-10-14T21:38:20Z</time>
      </trkpt>
      <trkpt lat="37.45404" lon="-8.11215">
        <ele>363.02</ele>
        <time>2019-10-14T21:38:40Z</time>
      </trkpt>
      <trkpt lat="37.45396" lon="-8.11271">
        <ele>362.241</ele>
        <time>2019-10-14T21:39:00Z</time>
      </trkpt>
      <trkpt lat="37.45396" lon="-8.11276">
        <ele>362.063</ele>
        <time>2019-10-14T21:39:20Z</time>
      </trkpt>
      <trkpt lat="37.45398" lon="-8.11281">
        <ele>362.093</ele>
        <time>2019-10-14T21:39:40Z</time>
      </trkpt>
      <trkpt lat="37.45402" lon="-8.11285">
        <ele>361.945</ele>
        <time>2019-10-14T21:40:00Z</time>
      </trkpt>
      <trkpt lat="37.45408" lon="-8.11288">
        <ele>361.847</ele>
        <time>2019-10-14T21:40:20Z</time>
      </trkpt>
      <trkpt lat="37.45414" lon="-8.11292">
        <ele>361.511</ele>
        <time>2019-10-14T21:40:40Z</time>
      </trkpt>
      <trkpt lat="37.45422" lon="-8.11299">
        <ele>360.908</ele>
        <time>2019-10-14T21:41:00Z</time>
      </trkpt>
      <trkpt lat="37.45431" lon="-8.11306">
        <ele>359.968</ele>
        <time>2019-10-14T21:41:20Z</time>
      </trkpt>
      <trkpt lat="37.45439" lon="-8.11315">
        <ele>358.766</ele>
        <time>2019-10-14T21:41:40Z</time>
      </trkpt>
      <trkpt lat="37.45453" lon="-8.11328">
        <ele>356.858</ele>
        <time>2019-10-14T21:42:00Z</time>
      </trkpt>
      <trkpt lat="37.4546" lon="-8.11331">
        <ele>356.118</ele>
        <time>2019-10-14T21:42:20Z</time>
      </trkpt>
      <trkpt lat="37.45468" lon="-8.11331">
        <ele>355.59</ele>
        <time>2019-10-14T21:42:40Z</time>
      </trkpt>
      <trkpt lat="37.45477" lon="-8.11329">
        <ele>354.361</ele>
        <time>2019-10-14T21:43:00Z</time>
      </trkpt>
      <trkpt lat="37.45486" lon="-8.11326">
        <ele>352.253</ele>
        <time>2019-10-14T21:43:20Z</time>
      </trkpt>
      <trkpt lat="37.45503" lon="-8.1132">
        <ele>348.583</ele>
        <time>2019-10-14T21:43:40Z</time>
      </trkpt>
      <trkpt lat="37.45509" lon="-8.11314">
        <ele>347.335</ele>
        <time>2019-10-14T21:44:00Z</time>
      </trkpt>
      <trkpt lat="37.45515" lon="-8.11306">
        <ele>346.386</ele>
        <time>2019-10-14T21:44:20Z</time>
      </trkpt>
      <trkpt lat="37.45519" lon="-8.11297">
        <ele>345.214</ele>
        <time>2019-10-14T21:44:40Z</time>
      </trkpt>
      <trkpt lat="37.45521" lon="-8.11287">
        <ele>344.508</ele>
        <time>2019-10-14T21:45:00Z</time>
      </trkpt>
      <trkpt lat="37.45521" lon="-8.11278">
        <ele>344.257</ele>
        <time>2019-10-14T21:45:20Z</time>
      </trkpt>
      <trkpt lat="37.4552" lon="-8.11268">
        <ele>344.055</ele>
        <time>2019-10-14T21:45:40Z</time>
      </trkpt>
      <trkpt lat="37.45517" lon="-8.11261">
        <ele>344.117</ele>
        <time>2019-10-14T21:46:00Z</time>
      </trkpt>
      <trkpt lat="37.45515" lon="-8.11256">
        <ele>344.137</ele>
        <time>2019-10-14T21:46:20Z</time>
      </trkpt>
      <trkpt lat="37.45515" lon="-8.11251">
        <ele>343.979</ele>
        <time>2019-10-14T21:46:40Z</time>
      </trkpt>
      <trkpt lat="37.45517" lon="-8.11247">
        <ele>343.17</ele>
        <time>2019-10-14T21:47:00Z</time>
      </trkpt>
      <trkpt lat="37.4552" lon="-8.11246">
        <ele>342.322</ele>
        <time>2019-10-14T21:47:20Z</time>
      </trkpt>
      <trkpt lat="37.45524" lon="-8.11246">
        <ele>341.822</ele>
        <time>2019-10-14T21:47:40Z</time>
      </trkpt>
      <trkpt lat="37.45529" lon="-8.11249">
        <ele>341.799</ele>
        <time>2019-10-14T21:48:00Z</time>
      </trkpt>
      <trkpt lat="37.45534" lon="-8.11256">
        <ele>340.907</ele>
        <time>2019-10-14T21:48:20Z</time>
      </trkpt>
      <trkpt lat="37.4554" lon="-8.11265">
        <ele>340.127</ele>
        <time>2019-10-14T21:48:40Z</time>
      </trkpt>
      <trkpt lat="37.45547" lon="-8.11277">
        <ele>339.508</ele>
        <time>2019-10-14T21:49:00Z</time>
      </trkpt>
      <trkpt lat="37.45554" lon="-8.1129">
        <ele>338.723</ele>
        <time>2019-10-14T21:49:20Z</time>
      </trkpt>
      <trkpt lat="37.4557" lon="-8.11329">
        <ele>333.511</ele>
        <time>2019-10-14T21:49:40Z</time>
      </trkpt>
      <trkpt lat="37.45576" lon="-8.11349">
        <ele>330.333</ele>
        <time>2019-10-14T21:50:00Z</time>
      </trkpt>
      <trkpt lat="37.45577" lon="-8.11358">
        <ele>329.453</ele>
        <time>2019-10-14T21:50:20Z</time>
      </trkpt>
      <trkpt lat="37.45576" lon="-8.11367">
        <ele>329.475</ele>
        <time>2019-10-14T21:50:40Z</time>
      </trkpt>
      <trkpt lat="37.45572" lon="-8.11374">
        <ele>330.216</ele>
        <time>2019-10-14T21:51:00Z</time>
      </trkpt>
      <trkpt lat="37.45569" lon="-8.11381">
        <ele>331.048</ele>
        <time>2019-10-14T21:51:20Z</time>
      </trkpt>
      <trkpt lat="37.45566" lon="-8.11386">
        <ele>331.528</ele>
        <time>2019-10-14T21:51:40Z</time>
      </trkpt>
      <trkpt lat="37.45565" lon="-8.11392">
        <ele>331.842</ele>
        <time>2019-10-14T21:52:00Z</time>
      </trkpt>
      <trkpt lat="37.45567" lon="-8.11396">
        <ele>331.822</ele>
        <time>2019-10-14T21:52:20Z</time>
      </trkpt>
      <trkpt lat="37.45571" lon="-8.11397">
        <ele>331.114</ele>
        <time>2019-10-14T21:52:40Z</time>
      </trkpt>
      <trkpt lat="37.45575" lon="-8.11397">
        <ele>329.908</ele>
        <time>2019-10-14T21:53:00Z</time>
      </trkpt>
      <trkpt lat="37.45581" lon="-8.11393">
        <ele>328.138</ele>
        <time>2019-10-14T21:53:20Z</time>
      </trkpt>
      <trkpt lat="37.45588" lon="-8.11388">
        <ele>325.716</ele>
        <time>2019-10-14T21:53:40Z</time>
      </trkpt>
      <trkpt lat="37.45596" lon="-8.11382">
        <ele>323.398</ele>
        <time>2019-10-14T21:54:00Z</time>
      </trkpt>
      <trkpt lat="37.45614" lon="-8.11369">
        <ele>318.678</ele>
        <time>2019-10-14T21:54:20Z</time>
      </trkpt>
      <trkpt lat="37.45624" lon="-8.11365">
        <ele>317.16</ele>
        <time>2019-10-14T21:54:40Z</time>
      </trkpt>
      <trkpt lat="37.45634" lon="-8.11362">
        <ele>315.761</ele>
        <time>2019-10-14T21:55:00Z</time>
      </trkpt>
      <trkpt lat="37.45644" lon="-8.11362">
        <ele>315.073</ele>
        <time>2019-10-14T21:55:20Z</time>
      </trkpt>
      <trkpt lat="37.45654" lon="-8.11364">
        <ele>314.853</ele>
        <time>2019-10-14T21:55:40Z</time>
      </trkpt>
      <trkpt lat="37.45664" lon="-8.11367">
        <ele>314.615</ele>
        <time>2019-10-14T21:56:00Z</time>
      </trkpt>
      <trkpt lat="37.45698" lon="-8.11378">
        <ele>314.765</ele>
        <time>2019-10-14T21:56:20Z</time>
      </trkpt>
      <trkpt lat="37.45706" lon="-8.11384">
        <ele>315.411</ele>
        <time>2019-10-14T21:56:40Z</time>
      </trkpt>
      <trkpt lat="37.45713" lon="-8.11391">
        <ele>316.108</ele>
        <time>2019-10-14T21:57:00Z</time>
      </trkpt>
      <trkpt lat="37.45718" lon="-8.11401">
        <ele>317.055</ele>
        <time>2019-10-14T21:57:20Z</time>
      </trkpt>
      <trkpt lat="37.45722" lon="-8.11413">
        <ele>317.813</ele>
        <time>2019-10-14T21:57:40Z</time>
      </trkpt>
      <trkpt lat="37.45725" lon="-8.11426">
        <ele>319.055</ele>
        <time>2019-10-14T21:58:00Z</time>
      </trkpt>
      <trkpt lat="37.45731" lon="-8.11453">
        <ele>321.665</ele>
        <time>2019-10-14T21:58:20Z</time>
      </trkpt>
      <trkpt lat="37.45739" lon="-8.11478">
        <ele>324.257</ele>
        <time>2019-10-14T21:58:40Z</time>
      </trkpt>
      <trkpt lat="37.45744" lon="-8.1149">
        <ele>325.648</ele>
        <time>2019-10-14T21:59:00Z</time>
      </trkpt>
      <trkpt lat="37.45751" lon="-8.115">
        <ele>327.18</ele>
        <time>2019-10-14T21:59:20Z</time>
      </trkpt>
      <trkpt lat="37.45759" lon="-8.1151">
        <ele>327.82</ele>
        <time>2019-10-14T21:59:40Z</time>
      </trkpt>
      <trkpt lat="37.45767" lon="-8.11518">
        <ele>329.058</ele>
        <time>2019-10-14T22:00:00Z</time>
      </trkpt>
      <trkpt lat="37.45776" lon="-8.11523">
        <ele>330.452</ele>
        <time>2019-10-14T22:00:20Z</time>
      </trkpt>
      <trkpt lat="37.45786" lon="-8.11527">
        <ele>331.917</ele>
        <time>2019-10-14T22:00:40Z</time>
      </trkpt>
      <trkpt lat="37.45797" lon="-8.1153">
        <ele>333.208</ele>
        <time>2019-10-14T22:01:00Z</time>
      </trkpt>
      <trkpt lat="37.45809" lon="-8.11531">
        <ele>334.429</ele>
        <time>2019-10-14T22:01:20Z</time>
      </trkpt>
      <trkpt lat="37.45821" lon="-8.11531">
        <ele>335.337</ele>
        <time>2019-10-14T22:01:40Z</time>
      </trkpt>
      <trkpt lat="37.45832" lon="-8.11529">
        <ele>335.979</ele>
        <time>2019-10-14T22:02:00Z</time>
      </trkpt>
      <trkpt lat="37.45842" lon="-8.11525">
        <ele>335.529</ele>
        <time>2019-10-14T22:02:20Z</time>
      </trkpt>
      <trkpt lat="37.4585" lon="-8.11522">
        <ele>334.951</ele>
        <time>2019-10-14T22:02:40Z</time>
      </trkpt>
      <trkpt lat="37.4586" lon="-8.11519">
        <ele>334.462</ele>
        <time>2019-10-14T22:03:00Z</time>
      </trkpt>
      <trkpt lat="37.45869" lon="-8.11518">
        <ele>334.574</ele>
        <time>2019-10-14T22:03:20Z</time>
      </trkpt>
      <trkpt lat="37.4588" lon="-8.1152">
        <ele>334.934</ele>
        <time>2019-10-14T22:03:40Z</time>
      </trkpt>
      <trkpt lat="37.45892" lon="-8.11523">
        <ele>335.748</ele>
        <time>2019-10-14T22:04:00Z</time>
      </trkpt>
      <trkpt lat="37.45905" lon="-8.11526">
        <ele>337.561</ele>
        <time>2019-10-14T22:04:20Z</time>
      </trkpt>
      <trkpt lat="37.45953" lon="-8.11537">
        <ele>339.717</ele>
        <time>2019-10-14T22:04:40Z</time>
      </trkpt>
      <trkpt lat="37.45963" lon="-8.11537">
        <ele>339.308</ele>
        <time>2019-10-14T22:05:00Z</time>
      </trkpt>
      <trkpt lat="37.45973" lon="-8.11535">
        <ele>338.718</ele>
        <time>2019-10-14T22:05:20Z</time>
      </trkpt>
      <trkpt lat="37.45983" lon="-8.11532">
        <ele>337.616</ele>
        <time>2019-10-14T22:05:40Z</time>
      </trkpt>
      <trkpt lat="37.45994" lon="-8.11528">
        <ele>336.438</ele>
        <time>2019-10-14T22:06:00Z</time>
      </trkpt>
      <trkpt lat="37.46006" lon="-8.11524">
        <ele>335.178</ele>
        <time>2019-10-14T22:06:20Z</time>
      </trkpt>
      <trkpt lat="37.46043" lon="-8.11506">
        <ele>336.07</ele>
        <time>2019-10-14T22:06:40Z</time>
      </trkpt>
      <trkpt lat="37.46088" lon="-8.11481">
        <ele>341.241</ele>
        <time>2019-10-14T22:07:00Z</time>
      </trkpt>
      <trkpt lat="37.46122" lon="-8.11471">
        <ele>341.793</ele>
        <time>2019-10-14T22:07:20Z</time>
      </trkpt>
      <trkpt lat="37.46134" lon="-8.11471">
        <ele>341.783</ele>
        <time>2019-10-14T22:07:40Z</time>
      </trkpt>
      <trkpt lat="37.46147" lon="-8.11473">
        <ele>342.684</ele>
        <time>2019-10-14T22:08:00Z</time>
      </trkpt>
      <trkpt lat="37.46189" lon="-8.11479">
        <ele>346.307</ele>
        <time>2019-10-14T22:08:20Z</time>
      </trkpt>
      <trkpt lat="37.46232" lon="-8.11484">
        <ele>351.917</ele>
        <time>2019-10-14T22:08:40Z</time>
      </trkpt>
      <trkpt lat="37.46275" lon="-8.11493">
        <ele>355.708</ele>
        <time>2019-10-14T22:09:00Z</time>
      </trkpt>
      <trkpt lat="37.46318" lon="-8.11503">
        <ele>356.812</ele>
        <time>2019-10-14T22:09:20Z</time>
      </trkpt>
      <trkpt lat="37.46414" lon="-8.11542">
        <ele>360.67</ele>
        <time>2019-10-14T22:09:40Z</time>
      </trkpt>
      <trkpt lat="37.46427" lon="-8.1155">
        <ele>360.042</ele>
        <time>2019-10-14T22:10:00Z</time>
      </trkpt>
      <trkpt lat="37.46471" lon="-8.1158">
        <ele>354.412</ele>
        <time>2019-10-14T22:10:20Z</time>
      </trkpt>
      <trkpt lat="37.46482" lon="-8.11586">
        <ele>353.634</ele>
        <time>2019-10-14T22:10:40Z</time>
      </trkpt>
      <trkpt lat="37.46493" lon="-8.1159">
        <ele>353.245</ele>
        <time>2019-10-14T22:11:00Z</time>
      </trkpt>
      <trkpt lat="37.46505" lon="-8.11593">
        <ele>353.127</ele>
        <time>2019-10-14T22:11:20Z</time>
      </trkpt>
      <trkpt lat="37.46534" lon="-8.11598">
        <ele>353.137</ele>
        <time>2019-10-14T22:11:40Z</time>
      </trkpt>
      <trkpt lat="37.46579" lon="-8.11606">
        <ele>350.482</ele>
        <time>2019-10-14T22:12:00Z</time>
      </trkpt>
      <trkpt lat="37.46633" lon="-8.11619">
        <ele>349.743</ele>
        <time>2019-10-14T22:12:20Z</time>
      </trkpt>
      <trkpt lat="37.46667" lon="-8.1162">
        <ele>348.717</ele>
        <time>2019-10-14T22:12:40Z</time>
      </trkpt>
      <trkpt lat="37.46676" lon="-8.11617">
        <ele>348.508</ele>
        <time>2019-10-14T22:13:00Z</time>
      </trkpt>
      <trkpt lat="37.46682" lon="-8.1161">
        <ele>349.032</ele>
        <time>2019-10-14T22:13:20Z</time>
      </trkpt>
      <trkpt lat="37.46689" lon="-8.11601">
        <ele>349.63</ele>
        <time>2019-10-14T22:13:40Z</time>
      </trkpt>
      <trkpt lat="37.46695" lon="-8.11589">
        <ele>350.432</ele>
        <time>2019-10-14T22:14:00Z</time>
      </trkpt>
      <trkpt lat="37.46701" lon="-8.11576">
        <ele>351.722</ele>
        <time>2019-10-14T22:14:20Z</time>
      </trkpt>
      <trkpt lat="37.46709" lon="-8.11564">
        <ele>352.344</ele>
        <time>2019-10-14T22:14:40Z</time>
      </trkpt>
      <trkpt lat="37.46719" lon="-8.11555">
        <ele>352.385</ele>
        <time>2019-10-14T22:15:00Z</time>
      </trkpt>
      <trkpt lat="37.4673" lon="-8.11546">
        <ele>353.187</ele>
        <time>2019-10-14T22:15:20Z</time>
      </trkpt>
      <trkpt lat="37.46742" lon="-8.11539">
        <ele>354.277</ele>
        <time>2019-10-14T22:15:40Z</time>
      </trkpt>
      <trkpt lat="37.46754" lon="-8.11533">
        <ele>355.232</ele>
        <time>2019-10-14T22:16:00Z</time>
      </trkpt>
      <trkpt lat="37.46766" lon="-8.11528">
        <ele>356.792</ele>
        <time>2019-10-14T22:16:20Z</time>
      </trkpt>
      <trkpt lat="37.46792" lon="-8.11521">
        <ele>361.011</ele>
        <time>2019-10-14T22:16:40Z</time>
      </trkpt>
      <trkpt lat="37.46818" lon="-8.11511">
        <ele>364.708</ele>
        <time>2019-10-14T22:17:00Z</time>
      </trkpt>
      <trkpt lat="37.46845" lon="-8.11501">
        <ele>367.277</ele>
        <time>2019-10-14T22:17:20Z</time>
      </trkpt>
      <trkpt lat="37.46857" lon="-8.11494">
        <ele>368.455</ele>
        <time>2019-10-14T22:17:40Z</time>
      </trkpt>
      <trkpt lat="37.4687" lon="-8.11485">
        <ele>369.567</ele>
        <time>2019-10-14T22:18:00Z</time>
      </trkpt>
      <trkpt lat="37.46882" lon="-8.11474">
        <ele>371.027</ele>
        <time>2019-10-14T22:18:20Z</time>
      </trkpt>
      <trkpt lat="37.46892" lon="-8.11463">
        <ele>372.989</ele>
        <time>2019-10-14T22:18:40Z</time>
      </trkpt>
      <trkpt lat="37.469" lon="-8.11451">
        <ele>374.83</ele>
        <time>2019-10-14T22:19:00Z</time>
      </trkpt>
      <trkpt lat="37.46907" lon="-8.1144">
        <ele>376.472</ele>
        <time>2019-10-14T22:19:20Z</time>
      </trkpt>
      <trkpt lat="37.46915" lon="-8.11431">
        <ele>377.892</ele>
        <time>2019-10-14T22:19:40Z</time>
      </trkpt>
      <trkpt lat="37.46925" lon="-8.11423">
        <ele>379.274</ele>
        <time>2019-10-14T22:20:00Z</time>
      </trkpt>
      <trkpt lat="37.46936" lon="-8.11417">
        <ele>380.756</ele>
        <time>2019-10-14T22:20:20Z</time>
      </trkpt>
      <trkpt lat="37.46947" lon="-8.11412">
        <ele>382.121</ele>
        <time>2019-10-14T22:20:40Z</time>
      </trkpt>
      <trkpt lat="37.46959" lon="-8.11408">
        <ele>382.308</ele>
        <time>2019-10-14T22:21:00Z</time>
      </trkpt>
      <trkpt lat="37.4697" lon="-8.11405">
        <ele>382.511</ele>
        <time>2019-10-14T22:21:20Z</time>
      </trkpt>
      <trkpt lat="37.47002" lon="-8.11395">
        <ele>379.879</ele>
        <time>2019-10-14T22:21:40Z</time>
      </trkpt>
      <trkpt lat="37.47094" lon="-8.11387">
        <ele>376.921</ele>
        <time>2019-10-14T22:22:00Z</time>
      </trkpt>
      <trkpt lat="37.47109" lon="-8.11391">
        <ele>376.981</ele>
        <time>2019-10-14T22:22:20Z</time>
      </trkpt>
      <trkpt lat="37.47124" lon="-8.11398">
        <ele>377.153</ele>
        <time>2019-10-14T22:22:40Z</time>
      </trkpt>
      <trkpt lat="37.4719" lon="-8.11442">
        <ele>382.864</ele>
        <time>2019-10-14T22:23:00Z</time>
      </trkpt>
      <trkpt lat="37.47199" lon="-8.11453">
        <ele>383.096</ele>
        <time>2019-10-14T22:23:20Z</time>
      </trkpt>
      <trkpt lat="37.47207" lon="-8.11465">
        <ele>382.816</ele>
        <time>2019-10-14T22:23:40Z</time>
      </trkpt>
      <trkpt lat="37.47215" lon="-8.1148">
        <ele>382.991</ele>
        <time>2019-10-14T22:24:00Z</time>
      </trkpt>
      <trkpt lat="37.47223" lon="-8.11496">
        <ele>383.681</ele>
        <time>2019-10-14T22:24:20Z</time>
      </trkpt>
      <trkpt lat="37.47262" lon="-8.11593">
        <ele>377.719</ele>
        <time>2019-10-14T22:24:40Z</time>
      </trkpt>
      <trkpt lat="37.47263" lon="-8.11603">
        <ele>377.608</ele>
        <time>2019-10-14T22:25:00Z</time>
      </trkpt>
      <trkpt lat="37.47262" lon="-8.11616">
        <ele>377.443</ele>
        <time>2019-10-14T22:25:20Z</time>
      </trkpt>
      <trkpt lat="37.47258" lon="-8.11631">
        <ele>376.761</ele>
        <time>2019-10-14T22:25:40Z</time>
      </trkpt>
      <trkpt lat="37.47252" lon="-8.11649">
        <ele>375.883</ele>
        <time>2019-10-14T22:26:00Z</time>
      </trkpt>
      <trkpt lat="37.47234" lon="-8.11707">
        <ele>369.643</ele>
        <time>2019-10-14T22:26:20Z</time>
      </trkpt>
      <trkpt lat="37.47224" lon="-8.11741">
        <ele>364.765</ele>
        <time>2019-10-14T22:26:40Z</time>
      </trkpt>
      <trkpt lat="37.47222" lon="-8.11757">
        <ele>364.376</ele>
        <time>2019-10-14T22:27:00Z</time>
      </trkpt>
      <trkpt lat="37.47221" lon="-8.11772">
        <ele>365.068</ele>
        <time>2019-10-14T22:27:20Z</time>
      </trkpt>
      <trkpt lat="37.47223" lon="-8.11787">
        <ele>365.948</ele>
        <time>2019-10-14T22:27:40Z</time>
      </trkpt>
      <trkpt lat="37.47227" lon="-8.118">
        <ele>366.348</ele>
        <time>2019-10-14T22:28:00Z</time>
      </trkpt>
      <trkpt lat="37.47232" lon="-8.11813">
        <ele>366.161</ele>
        <time>2019-10-14T22:28:20Z</time>
      </trkpt>
      <trkpt lat="37.47235" lon="-8.11827">
        <ele>366.117</ele>
        <time>2019-10-14T22:28:40Z</time>
      </trkpt>
      <trkpt lat="37.47236" lon="-8.11842">
        <ele>366.608</ele>
        <time>2019-10-14T22:29:00Z</time>
      </trkpt>
      <trkpt lat="37.47236" lon="-8.11856">
        <ele>367.388</ele>
        <time>2019-10-14T22:29:20Z</time>
      </trkpt>
      <trkpt lat="37.47237" lon="-8.11869">
        <ele>368.146</ele>
        <time>2019-10-14T22:29:40Z</time>
      </trkpt>
      <trkpt lat="37.47241" lon="-8.1188">
        <ele>368.798</ele>
        <time>2019-10-14T22:30:00Z</time>
      </trkpt>
      <trkpt lat="37.47247" lon="-8.1189">
        <ele>368.718</ele>
        <time>2019-10-14T22:30:20Z</time>
      </trkpt>
      <trkpt lat="37.47255" lon="-8.11899">
        <ele>368.58</ele>
        <time>2019-10-14T22:30:40Z</time>
      </trkpt>
      <trkpt lat="37.47264" lon="-8.11906">
        <ele>368.691</ele>
        <time>2019-10-14T22:31:00Z</time>
      </trkpt>
      <trkpt lat="37.47272" lon="-8.11913">
        <ele>368.933</ele>
        <time>2019-10-14T22:31:20Z</time>
      </trkpt>
      <trkpt lat="37.4728" lon="-8.11921">
        <ele>368.933</ele>
        <time>2019-10-14T22:31:40Z</time>
      </trkpt>
      <trkpt lat="37.47286" lon="-8.1193">
        <ele>368.627</ele>
        <time>2019-10-14T22:32:00Z</time>
      </trkpt>
      <trkpt lat="37.47293" lon="-8.1194">
        <ele>368.668</ele>
        <time>2019-10-14T22:32:20Z</time>
      </trkpt>
      <trkpt lat="37.47299" lon="-8.11951">
        <ele>368.714</ele>
        <time>2019-10-14T22:32:40Z</time>
      </trkpt>
      <trkpt lat="37.47304" lon="-8.11963">
        <ele>369.308</ele>
        <time>2019-10-14T22:33:00Z</time>
      </trkpt>
      <trkpt lat="37.47309" lon="-8.11976">
        <ele>369.726</ele>
        <time>2019-10-14T22:33:20Z</time>
      </trkpt>
      <trkpt lat="37.47352" lon="-8.12091">
        <ele>362.354</ele>
        <time>2019-10-14T22:33:40Z</time>
      </trkpt>
      <trkpt lat="37.47379" lon="-8.1214">
        <ele>364.176</ele>
        <time>2019-10-14T22:34:00Z</time>
      </trkpt>
      <trkpt lat="37.47417" lon="-8.12209">
        <ele>360.586</ele>
        <time>2019-10-14T22:34:20Z</time>
      </trkpt>
      <trkpt lat="37.47438" lon="-8.12239">
        <ele>359.748</ele>
        <time>2019-10-14T22:34:40Z</time>
      </trkpt>
      <trkpt lat="37.4747" lon="-8.12274">
        <ele>363.519</ele>
        <time>2019-10-14T22:35:00Z</time>
      </trkpt>
      <trkpt lat="37.47481" lon="-8.12284">
        <ele>364.131</ele>
        <time>2019-10-14T22:35:20Z</time>
      </trkpt>
      <trkpt lat="37.47543" lon="-8.12337">
        <ele>366.581</ele>
        <time>2019-10-14T22:35:40Z</time>
      </trkpt>
      <trkpt lat="37.47551" lon="-8.1235">
        <ele>367.229</ele>
        <time>2019-10-14T22:36:00Z</time>
      </trkpt>
      <trkpt lat="37.47558" lon="-8.12363">
        <ele>367.4</ele>
        <time>2019-10-14T22:36:20Z</time>
      </trkpt>
      <trkpt lat="37.47563" lon="-8.12378">
        <ele>364.42</ele>
        <time>2019-10-14T22:36:40Z</time>
      </trkpt>
      <trkpt lat="37.47567" lon="-8.12393">
        <ele>362.108</ele>
        <time>2019-10-14T22:37:00Z</time>
      </trkpt>
      <trkpt lat="37.47569" lon="-8.12409">
        <ele>360.426</ele>
        <time>2019-10-14T22:37:20Z</time>
      </trkpt>
      <trkpt lat="37.47571" lon="-8.12423">
        <ele>359.184</ele>
        <time>2019-10-14T22:37:40Z</time>
      </trkpt>
      <trkpt lat="37.47573" lon="-8.12437">
        <ele>358.136</ele>
        <time>2019-10-14T22:38:00Z</time>
      </trkpt>
      <trkpt lat="37.47579" lon="-8.12463">
        <ele>356.516</ele>
        <time>2019-10-14T22:38:20Z</time>
      </trkpt>
      <trkpt lat="37.47585" lon="-8.12473">
        <ele>355.928</ele>
        <time>2019-10-14T22:38:40Z</time>
      </trkpt>
      <trkpt lat="37.47591" lon="-8.12481">
        <ele>355.339</ele>
        <time>2019-10-14T22:39:00Z</time>
      </trkpt>
      <trkpt lat="37.47599" lon="-8.12486">
        <ele>354.991</ele>
        <time>2019-10-14T22:39:20Z</time>
      </trkpt>
      <trkpt lat="37.47607" lon="-8.12488">
        <ele>354.711</ele>
        <time>2019-10-14T22:39:40Z</time>
      </trkpt>
      <trkpt lat="37.47618" lon="-8.12486">
        <ele>354.362</ele>
        <time>2019-10-14T22:40:00Z</time>
      </trkpt>
      <trkpt lat="37.47628" lon="-8.12483">
        <ele>353.783</ele>
        <time>2019-10-14T22:40:20Z</time>
      </trkpt>
      <trkpt lat="37.47638" lon="-8.12481">
        <ele>353.011</ele>
        <time>2019-10-14T22:40:40Z</time>
      </trkpt>
      <trkpt lat="37.47648" lon="-8.12481">
        <ele>352.308</ele>
        <time>2019-10-14T22:41:00Z</time>
      </trkpt>
      <trkpt lat="37.47658" lon="-8.12483">
        <ele>351.87</ele>
        <time>2019-10-14T22:41:20Z</time>
      </trkpt>
      <trkpt lat="37.47669" lon="-8.12487">
        <ele>351.518</ele>
        <time>2019-10-14T22:41:40Z</time>
      </trkpt>
      <trkpt lat="37.4768" lon="-8.1249">
        <ele>351.01</ele>
        <time>2019-10-14T22:42:00Z</time>
      </trkpt>
      <trkpt lat="37.47692" lon="-8.1249">
        <ele>350.29</ele>
        <time>2019-10-14T22:42:20Z</time>
      </trkpt>
      <trkpt lat="37.47704" lon="-8.12488">
        <ele>348.832</ele>
        <time>2019-10-14T22:42:40Z</time>
      </trkpt>
      <trkpt lat="37.47718" lon="-8.12483">
        <ele>347.083</ele>
        <time>2019-10-14T22:43:00Z</time>
      </trkpt>
      <trkpt lat="37.47732" lon="-8.12478">
        <ele>345.145</ele>
        <time>2019-10-14T22:43:20Z</time>
      </trkpt>
      <trkpt lat="37.47775" lon="-8.12461">
        <ele>342.225</ele>
        <time>2019-10-14T22:43:40Z</time>
      </trkpt>
      <trkpt lat="37.4782" lon="-8.1244">
        <ele>341.793</ele>
        <time>2019-10-14T22:44:00Z</time>
      </trkpt>
      <trkpt lat="37.4783" lon="-8.12438">
        <ele>341.565</ele>
        <time>2019-10-14T22:44:20Z</time>
      </trkpt>
      <trkpt lat="37.47839" lon="-8.12438">
        <ele>341.321</ele>
        <time>2019-10-14T22:44:40Z</time>
      </trkpt>
      <trkpt lat="37.47847" lon="-8.12441">
        <ele>341.208</ele>
        <time>2019-10-14T22:45:00Z</time>
      </trkpt>
      <trkpt lat="37.47856" lon="-8.12447">
        <ele>341.123</ele>
        <time>2019-10-14T22:45:20Z</time>
      </trkpt>
      <trkpt lat="37.47864" lon="-8.12455">
        <ele>340.661</ele>
        <time>2019-10-14T22:45:40Z</time>
      </trkpt>
      <trkpt lat="37.47871" lon="-8.12467">
        <ele>340.513</ele>
        <time>2019-10-14T22:46:00Z</time>
      </trkpt>
      <trkpt lat="37.47878" lon="-8.12479">
        <ele>339.733</ele>
        <time>2019-10-14T22:46:20Z</time>
      </trkpt>
      <trkpt lat="37.47886" lon="-8.1249">
        <ele>338.475</ele>
        <time>2019-10-14T22:46:40Z</time>
      </trkpt>
      <trkpt lat="37.47894" lon="-8.12499">
        <ele>337.156</ele>
        <time>2019-10-14T22:47:00Z</time>
      </trkpt>
      <trkpt lat="37.47903" lon="-8.12506">
        <ele>336.248</ele>
        <time>2019-10-14T22:47:20Z</time>
      </trkpt>
      <trkpt lat="37.47912" lon="-8.12511">
        <ele>335.588</ele>
        <time>2019-10-14T22:47:40Z</time>
      </trkpt>
      <trkpt lat="37.47922" lon="-8.12513">
        <ele>335.117</ele>
        <time>2019-10-14T22:48:00Z</time>
      </trkpt>
      <trkpt lat="37.47933" lon="-8.12515">
        <ele>334.987</ele>
        <time>2019-10-14T22:48:20Z</time>
      </trkpt>
      <trkpt lat="37.47943" lon="-8.12518">
        <ele>335.015</ele>
        <time>2019-10-14T22:48:40Z</time>
      </trkpt>
      <trkpt lat="37.47952" lon="-8.12524">
        <ele>334.908</ele>
        <time>2019-10-14T22:49:00Z</time>
      </trkpt>
      <trkpt lat="37.47961" lon="-8.12532">
        <ele>335.065</ele>
        <time>2019-10-14T22:49:20Z</time>
      </trkpt>
      <trkpt lat="37.47968" lon="-8.12543">
        <ele>335.493</ele>
        <time>2019-10-14T22:49:40Z</time>
      </trkpt>
      <trkpt lat="37.47974" lon="-8.12556">
        <ele>336.195</ele>
        <time>2019-10-14T22:50:00Z</time>
      </trkpt>
      <trkpt lat="37.4798" lon="-8.1257">
        <ele>336.995</ele>
        <time>2019-10-14T22:50:20Z</time>
      </trkpt>
      <trkpt lat="37.48014" lon="-8.12665">
        <ele>338.637</ele>
        <time>2019-10-14T22:50:40Z</time>
      </trkpt>
      <trkpt lat="37.48017" lon="-8.12684">
        <ele>339.678</ele>
        <time>2019-10-14T22:51:00Z</time>
      </trkpt>
      <trkpt lat="37.4803" lon="-8.12752">
        <ele>340.09</ele>
        <time>2019-10-14T22:51:20Z</time>
      </trkpt>
      <trkpt lat="37.48048" lon="-8.12806">
        <ele>338.79</ele>
        <time>2019-10-14T22:51:40Z</time>
      </trkpt>
      <trkpt lat="37.48058" lon="-8.12825">
        <ele>338.354</ele>
        <time>2019-10-14T22:52:00Z</time>
      </trkpt>
      <trkpt lat="37.48069" lon="-8.12843">
        <ele>337.856</ele>
        <time>2019-10-14T22:52:20Z</time>
      </trkpt>
      <trkpt lat="37.4808" lon="-8.1286">
        <ele>338.611</ele>
        <time>2019-10-14T22:52:40Z</time>
      </trkpt>
      <trkpt lat="37.48092" lon="-8.12875">
        <ele>339.308</ele>
        <time>2019-10-14T22:53:00Z</time>
      </trkpt>
      <trkpt lat="37.48117" lon="-8.12907">
        <ele>339.669</ele>
        <time>2019-10-14T22:53:20Z</time>
      </trkpt>
      <trkpt lat="37.48119" lon="-8.12908">
        <ele>339.487</ele>
        <time>2019-10-14T22:53:40Z</time>
      </trkpt>
      <trkpt lat="37.48122" lon="-8.12908">
        <ele>339.249</ele>
        <time>2019-10-14T22:54:00Z</time>
      </trkpt>
      <trkpt lat="37.48125" lon="-8.12907">
        <ele>339.059</ele>
        <time>2019-10-14T22:54:20Z</time>
      </trkpt>
      <trkpt lat="37.48129" lon="-8.12905">
        <ele>338.741</ele>
        <time>2019-10-14T22:54:40Z</time>
      </trkpt>
      <trkpt lat="37.48136" lon="-8.12902">
        <ele>338.272</ele>
        <time>2019-10-14T22:55:00Z</time>
      </trkpt>
      <trkpt lat="37.48149" lon="-8.12891">
        <ele>337.254</ele>
        <time>2019-10-14T22:55:20Z</time>
      </trkpt>
      <trkpt lat="37.48155" lon="-8.12887">
        <ele>336.774</ele>
        <time>2019-10-14T22:55:40Z</time>
      </trkpt>
      <trkpt lat="37.48154" lon="-8.12886">
        <ele>336.815</ele>
        <time>2019-10-14T22:56:00Z</time>
      </trkpt>
      <trkpt lat="37.48154" lon="-8.12887">
        <ele>336.865</ele>
        <time>2019-10-14T22:56:20Z</time>
      </trkpt>
      <trkpt lat="37.48153" lon="-8.12888">
        <ele>336.911</ele>
        <time>2019-10-14T22:56:40Z</time>
      </trkpt>
      <trkpt lat="37.48169" lon="-8.12879">
        <ele>335.708</ele>
        <time>2019-10-14T22:57:00Z</time>
      </trkpt>
      <trkpt lat="37.48173" lon="-8.12877">
        <ele>335.745</ele>
        <time>2019-10-14T22:57:20Z</time>
      </trkpt>
      <trkpt lat="37.48178" lon="-8.12877">
        <ele>335.723</ele>
        <time>2019-10-14T22:57:40Z</time>
      </trkpt>
      <trkpt lat="37.48183" lon="-8.12877">
        <ele>335.825</ele>
        <time>2019-10-14T22:58:00Z</time>
      </trkpt>
      <trkpt lat="37.48188" lon="-8.12877">
        <ele>335.985</ele>
        <time>2019-10-14T22:58:20Z</time>
      </trkpt>
      <trkpt lat="37.48193" lon="-8.12877">
        <ele>336.057</ele>
        <time>2019-10-14T22:58:40Z</time>
      </trkpt>
      <trkpt lat="37.48198" lon="-8.12876">
        <ele>335.888</ele>
        <time>2019-10-14T22:59:00Z</time>
      </trkpt>
      <trkpt lat="37.48203" lon="-8.12875">
        <ele>335.57</ele>
        <time>2019-10-14T22:59:20Z</time>
      </trkpt>
      <trkpt lat="37.48208" lon="-8.12872">
        <ele>335.32</ele>
        <time>2019-10-14T22:59:40Z</time>
      </trkpt>
      <trkpt lat="37.48211" lon="-8.12868">
        <ele>335.297</ele>
        <time>2019-10-14T23:00:00Z</time>
      </trkpt>
      <trkpt lat="37.48214" lon="-8.12863">
        <ele>335.323</ele>
        <time>2019-10-14T23:00:20Z</time>
      </trkpt>
      <trkpt lat="37.48215" lon="-8.12857">
        <ele>334.925</ele>
        <time>2019-10-14T23:00:40Z</time>
      </trkpt>
      <trkpt lat="37.48216" lon="-8.12849">
        <ele>334.308</ele>
        <time>2019-10-14T23:01:00Z</time>
      </trkpt>
      <trkpt lat="37.48217" lon="-8.12839">
        <ele>333.633</ele>
        <time>2019-10-14T23:01:20Z</time>
      </trkpt>
      <trkpt lat="37.48219" lon="-8.1283">
        <ele>332.921</ele>
        <time>2019-10-14T23:01:40Z</time>
      </trkpt>
      <trkpt lat="37.48224" lon="-8.12812">
        <ele>332.153</ele>
        <time>2019-10-14T23:02:00Z</time>
      </trkpt>
      <trkpt lat="37.48227" lon="-8.12804">
        <ele>331.773</ele>
        <time>2019-10-14T23:02:20Z</time>
      </trkpt>
      <trkpt lat="37.48231" lon="-8.12795">
        <ele>331.395</ele>
        <time>2019-10-14T23:02:40Z</time>
      </trkpt>
      <trkpt lat="37.48236" lon="-8.12787">
        <ele>331.296</ele>
        <time>2019-10-14T23:03:00Z</time>
      </trkpt>
      <trkpt lat="37.48243" lon="-8.12779">
        <ele>331.528</ele>
        <time>2019-10-14T23:03:20Z</time>
      </trkpt>
      <trkpt lat="37.48252" lon="-8.12772">
        <ele>331.798</ele>
        <time>2019-10-14T23:03:40Z</time>
      </trkpt>
      <trkpt lat="37.48262" lon="-8.12766">
        <ele>330.789</ele>
        <time>2019-10-14T23:04:00Z</time>
      </trkpt>
      <trkpt lat="37.48273" lon="-8.12761">
        <ele>329.706</ele>
        <time>2019-10-14T23:04:20Z</time>
      </trkpt>
      <trkpt lat="37.48302" lon="-8.12742">
        <ele>324.926</ele>
        <time>2019-10-14T23:04:40Z</time>
      </trkpt>
      <trkpt lat="37.48332" lon="-8.12718">
        <ele>321.008</ele>
        <time>2019-10-14T23:05:00Z</time>
      </trkpt>
      <trkpt lat="37.48374" lon="-8.12673">
        <ele>320.632</ele>
        <time>2019-10-14T23:05:20Z</time>
      </trkpt>
      <trkpt lat="37.48381" lon="-8.12661">
        <ele>320.06</ele>
        <time>2019-10-14T23:05:40Z</time>
      </trkpt>
      <trkpt lat="37.48386" lon="-8.12649">
        <ele>319.472</ele>
        <time>2019-10-14T23:06:00Z</time>
      </trkpt>
      <trkpt lat="37.48389" lon="-8.12638">
        <ele>318.832</ele>
        <time>2019-10-14T23:06:20Z</time>
      </trkpt>
      <trkpt lat="37.48392" lon="-8.12627">
        <ele>317.844</ele>
        <time>2019-10-14T23:06:40Z</time>
      </trkpt>
      <trkpt lat="37.48401" lon="-8.1259">
        <ele>316.065</ele>
        <time>2019-10-14T23:07:00Z</time>
      </trkpt>
      <trkpt lat="37.48403" lon="-8.12556">
        <ele>315.077</ele>
        <time>2019-10-14T23:07:20Z</time>
      </trkpt>
      <trkpt lat="37.48402" lon="-8.12548">
        <ele>314.427</ele>
        <time>2019-10-14T23:07:40Z</time>
      </trkpt>
      <trkpt lat="37.48401" lon="-8.12524">
        <ele>312.564</ele>
        <time>2019-10-14T23:08:00Z</time>
      </trkpt>
      <trkpt lat="37.48404" lon="-8.12518">
        <ele>311.606</ele>
        <time>2019-10-14T23:08:20Z</time>
      </trkpt>
      <trkpt lat="37.48407" lon="-8.12513">
        <ele>310.916</ele>
        <time>2019-10-14T23:08:40Z</time>
      </trkpt>
      <trkpt lat="37.48415" lon="-8.12501">
        <ele>309.208</ele>
        <time>2019-10-14T23:09:00Z</time>
      </trkpt>
      <trkpt lat="37.48432" lon="-8.12475">
        <ele>304.91</ele>
        <time>2019-10-14T23:09:20Z</time>
      </trkpt>
      <trkpt lat="37.48438" lon="-8.12466">
        <ele>303.488</ele>
        <time>2019-10-14T23:09:40Z</time>
      </trkpt>
      <trkpt lat="37.48457" lon="-8.12445">
        <ele>300.04</ele>
        <time>2019-10-14T23:10:00Z</time>
      </trkpt>
      <trkpt lat="37.48463" lon="-8.12439">
        <ele>299.31</ele>
        <time>2019-10-14T23:10:20Z</time>
      </trkpt>
      <trkpt lat="37.4847" lon="-8.12435">
        <ele>298.662</ele>
        <time>2019-10-14T23:10:40Z</time>
      </trkpt>
      <trkpt lat="37.48478" lon="-8.12432">
        <ele>297.713</ele>
        <time>2019-10-14T23:11:00Z</time>
      </trkpt>
      <trkpt lat="37.48486" lon="-8.12429">
        <ele>296.615</ele>
        <time>2019-10-14T23:11:20Z</time>
      </trkpt>
      <trkpt lat="37.4851" lon="-8.12421">
        <ele>293.475</ele>
        <time>2019-10-14T23:11:40Z</time>
      </trkpt>
      <trkpt lat="37.48518" lon="-8.12419">
        <ele>292.712</ele>
        <time>2019-10-14T23:12:00Z</time>
      </trkpt>
      <trkpt lat="37.48526" lon="-8.12418">
        <ele>292.232</ele>
        <time>2019-10-14T23:12:20Z</time>
      </trkpt>
      <trkpt lat="37.48562" lon="-8.12417">
        <ele>291.605</ele>
        <time>2019-10-14T23:12:40Z</time>
      </trkpt>
      <trkpt lat="37.48614" lon="-8.12412">
        <ele>290.008</ele>
        <time>2019-10-14T23:13:00Z</time>
      </trkpt>
      <trkpt lat="37.48639" lon="-8.12406">
        <ele>290.635</ele>
        <time>2019-10-14T23:13:20Z</time>
      </trkpt>
      <trkpt lat="37.48644" lon="-8.12405">
        <ele>290.263</ele>
        <time>2019-10-14T23:13:40Z</time>
      </trkpt>
      <trkpt lat="37.48649" lon="-8.12405">
        <ele>289.885</ele>
        <time>2019-10-14T23:14:00Z</time>
      </trkpt>
      <trkpt lat="37.48653" lon="-8.12405">
        <ele>289.595</ele>
        <time>2019-10-14T23:14:20Z</time>
      </trkpt>
      <trkpt lat="37.48658" lon="-8.12406">
        <ele>289.327</ele>
        <time>2019-10-14T23:14:40Z</time>
      </trkpt>
      <trkpt lat="37.48663" lon="-8.12409">
        <ele>289.098</ele>
        <time>2019-10-14T23:15:00Z</time>
      </trkpt>
      <trkpt lat="37.48667" lon="-8.12413">
        <ele>288.97</ele>
        <time>2019-10-14T23:15:20Z</time>
      </trkpt>
      <trkpt lat="37.4867" lon="-8.12418">
        <ele>288.94</ele>
        <time>2019-10-14T23:15:40Z</time>
      </trkpt>
      <trkpt lat="37.48674" lon="-8.12424">
        <ele>289.185</ele>
        <time>2019-10-14T23:16:00Z</time>
      </trkpt>
      <trkpt lat="37.48688" lon="-8.12453">
        <ele>289.389</ele>
        <time>2019-10-14T23:16:20Z</time>
      </trkpt>
      <trkpt lat="37.48691" lon="-8.12463">
        <ele>289.317</ele>
        <time>2019-10-14T23:16:40Z</time>
      </trkpt>
      <trkpt lat="37.487" lon="-8.12493">
        <ele>288.508</ele>
        <time>2019-10-14T23:17:00Z</time>
      </trkpt>
      <trkpt lat="37.48706" lon="-8.12501">
        <ele>287.832</ele>
        <time>2019-10-14T23:17:20Z</time>
      </trkpt>
      <trkpt lat="37.48725" lon="-8.12528">
        <ele>284.95</ele>
        <time>2019-10-14T23:17:40Z</time>
      </trkpt>
      <trkpt lat="37.4873" lon="-8.12538">
        <ele>285.072</ele>
        <time>2019-10-14T23:18:00Z</time>
      </trkpt>
      <trkpt lat="37.48734" lon="-8.12548">
        <ele>285.022</ele>
        <time>2019-10-14T23:18:20Z</time>
      </trkpt>
      <trkpt lat="37.48738" lon="-8.12558">
        <ele>285.194</ele>
        <time>2019-10-14T23:18:40Z</time>
      </trkpt>
      <trkpt lat="37.4873" lon="-8.12573">
        <ele>286.915</ele>
        <time>2019-10-14T23:19:00Z</time>
      </trkpt>
      <trkpt lat="37.48722" lon="-8.1261">
        <ele>289.927</ele>
        <time>2019-10-14T23:19:20Z</time>
      </trkpt>
      <trkpt lat="37.48714" lon="-8.12663">
        <ele>291.347</ele>
        <time>2019-10-14T23:19:40Z</time>
      </trkpt>
      <trkpt lat="37.48798" lon="-8.12913">
        <ele>299.016</ele>
        <time>2019-10-14T23:20:00Z</time>
      </trkpt>
      <trkpt lat="37.48908" lon="-8.13013">
        <ele>289.976</ele>
        <time>2019-10-14T23:20:20Z</time>
      </trkpt>
      <trkpt lat="37.48984" lon="-8.13203">
        <ele>288.813</ele>
        <time>2019-10-14T23:20:40Z</time>
      </trkpt>
      <trkpt lat="37.49" lon="-8.13416">
        <ele>298.008</ele>
        <time>2019-10-14T23:21:00Z</time>
      </trkpt>
      <trkpt lat="37.48973" lon="-8.13453">
        <ele>297.115</ele>
        <time>2019-10-14T23:21:20Z</time>
      </trkpt>
      <trkpt lat="37.49024" lon="-8.13546">
        <ele>293.683</ele>
        <time>2019-10-14T23:21:40Z</time>
      </trkpt>
      <trkpt lat="37.48935" lon="-8.13836">
        <ele>309.955</ele>
        <time>2019-10-14T23:22:00Z</time>
      </trkpt>
      <trkpt lat="37.48935" lon="-8.13926">
        <ele>309.215</ele>
        <time>2019-10-14T23:22:20Z</time>
      </trkpt>
      <trkpt lat="37.48825" lon="-8.14076">
        <ele>306.957</ele>
        <time>2019-10-14T23:22:40Z</time>
      </trkpt>
      <trkpt lat="37.48905" lon="-8.14139">
        <ele>302.848</ele>
        <time>2019-10-14T23:23:00Z</time>
      </trkpt>
      <trkpt lat="37.49159" lon="-8.14202">
        <ele>294.05</ele>
        <time>2019-10-14T23:23:20Z</time>
      </trkpt>
      <trkpt lat="37.49196" lon="-8.14269">
        <ele>292.94</ele>
        <time>2019-10-14T23:23:40Z</time>
      </trkpt>
      <trkpt lat="37.49194" lon="-8.14356">
        <ele>297.685</ele>
        <time>2019-10-14T23:24:00Z</time>
      </trkpt>
      <trkpt lat="37.49275" lon="-8.14399">
        <ele>299.189</ele>
        <time>2019-10-14T23:24:20Z</time>
      </trkpt>
      <trkpt lat="37.49323" lon="-8.14479">
        <ele>306.717</ele>
        <time>2019-10-14T23:24:40Z</time>
      </trkpt>
      <trkpt lat="37.49358" lon="-8.14592">
        <ele>304.508</ele>
        <time>2019-10-14T23:25:00Z</time>
      </trkpt>
      <trkpt lat="37.49463" lon="-8.14522">
        <ele>297.512</ele>
        <time>2019-10-14T23:25:20Z</time>
      </trkpt>
      <trkpt lat="37.49514" lon="-8.14519">
        <ele>297.52</ele>
        <time>2019-10-14T23:25:40Z</time>
      </trkpt>
      <trkpt lat="37.49663" lon="-8.14622">
        <ele>290.122</ele>
        <time>2019-10-14T23:26:00Z</time>
      </trkpt>
      <trkpt lat="37.49908" lon="-8.14942">
        <ele>280.262</ele>
        <time>2019-10-14T23:26:20Z</time>
      </trkpt>
      <trkpt lat="37.50212" lon="-8.15079">
        <ele>277.234</ele>
        <time>2019-10-14T23:26:40Z</time>
      </trkpt>
      <trkpt lat="37.50307" lon="-8.15062">
        <ele>274.295</ele>
        <time>2019-10-14T23:27:00Z</time>
      </trkpt>
      <trkpt lat="37.50471" lon="-8.14769">
        <ele>279.727</ele>
        <time>2019-10-14T23:27:20Z</time>
      </trkpt>
      <trkpt lat="37.50514" lon="-8.14749">
        <ele>275.937</ele>
        <time>2019-10-14T23:27:40Z</time>
      </trkpt>
      <trkpt lat="37.50595" lon="-8.14732">
        <ele>275.098</ele>
        <time>2019-10-14T23:28:00Z</time>
      </trkpt>
      <trkpt lat="37.50592" lon="-8.14652">
        <ele>270.015</ele>
        <time>2019-10-14T23:28:20Z</time>
      </trkpt>
      <trkpt lat="37.5066" lon="-8.14502">
        <ele>270.826</ele>
        <time>2019-10-14T23:28:40Z</time>
      </trkpt>
      <trkpt lat="37.5087" lon="-8.14102">
        <ele>278.508</ele>
        <time>2019-10-14T23:29:00Z</time>
      </trkpt>
      <trkpt lat="37.50959" lon="-8.13899">
        <ele>284.513</ele>
        <time>2019-10-14T23:29:20Z</time>
      </trkpt>
      <trkpt lat="37.51005" lon="-8.13749">
        <ele>287.271</ele>
        <time>2019-10-14T23:29:40Z</time>
      </trkpt>
      <trkpt lat="37.50991" lon="-8.13479">
        <ele>296.523</ele>
        <time>2019-10-14T23:30:00Z</time>
      </trkpt>
      <trkpt lat="37.51005" lon="-8.13336">
        <ele>302.113</ele>
        <time>2019-10-14T23:30:20Z</time>
      </trkpt>
      <trkpt lat="37.5103" lon="-8.13187">
        <ele>306.175</ele>
        <time>2019-10-14T23:30:40Z</time>
      </trkpt>
      <trkpt lat="37.51073" lon="-8.13242">
        <ele>305.216</ele>
        <time>2019-10-14T23:31:00Z</time>
      </trkpt>
      <trkpt lat="37.51083" lon="-8.13253">
        <ele>305.198</ele>
        <time>2019-10-14T23:31:20Z</time>
      </trkpt>
      <trkpt lat="37.51171" lon="-8.13302">
        <ele>308.078</ele>
        <time>2019-10-14T23:31:40Z</time>
      </trkpt>
      <trkpt lat="37.5127" lon="-8.13402">
        <ele>305.265</ele>
        <time>2019-10-14T23:32:00Z</time>
      </trkpt>
      <trkpt lat="37.51408" lon="-8.13501">
        <ele>303.368</ele>
        <time>2019-10-14T23:32:20Z</time>
      </trkpt>
      <trkpt lat="37.51539" lon="-8.13568">
        <ele>307.514</ele>
        <time>2019-10-14T23:32:40Z</time>
      </trkpt>
      <trkpt lat="37.51613" lon="-8.13625">
        <ele>309.108</ele>
        <time>2019-10-14T23:33:00Z</time>
      </trkpt>
      <trkpt lat="37.51633" lon="-8.13641">
        <ele>310.63</ele>
        <time>2019-10-14T23:33:20Z</time>
      </trkpt>
      <trkpt lat="37.51748" lon="-8.13675">
        <ele>306.078</ele>
        <time>2019-10-14T23:33:40Z</time>
      </trkpt>
      <trkpt lat="37.51827" lon="-8.13685">
        <ele>305.27</ele>
        <time>2019-10-14T23:34:00Z</time>
      </trkpt>
      <trkpt lat="37.51985" lon="-8.13724">
        <ele>302.15</ele>
        <time>2019-10-14T23:34:20Z</time>
      </trkpt>
      <trkpt lat="37.52006" lon="-8.13727">
        <ele>302.342</ele>
        <time>2019-10-14T23:34:40Z</time>
      </trkpt>
      <trkpt lat="37.52045" lon="-8.13749">
        <ele>302.373</ele>
        <time>2019-10-14T23:35:00Z</time>
      </trkpt>
      <trkpt lat="37.52176" lon="-8.13829">
        <ele>298.575</ele>
        <time>2019-10-14T23:35:20Z</time>
      </trkpt>
      <trkpt lat="37.52329" lon="-8.13922">
        <ele>297.055</ele>
        <time>2019-10-14T23:35:40Z</time>
      </trkpt>
      <trkpt lat="37.52341" lon="-8.13928">
        <ele>296.748</ele>
        <time>2019-10-14T23:36:00Z</time>
      </trkpt>
      <trkpt lat="37.52461" lon="-8.1395">
        <ele>298.461</ele>
        <time>2019-10-14T23:36:20Z</time>
      </trkpt>
      <trkpt lat="37.52547" lon="-8.13975">
        <ele>291.617</ele>
        <time>2019-10-14T23:36:40Z</time>
      </trkpt>
      <trkpt lat="37.52591" lon="-8.13993">
        <ele>288.708</ele>
        <time>2019-10-14T23:37:00Z</time>
      </trkpt>
      <trkpt lat="37.52635" lon="-8.14013">
        <ele>287.588</ele>
        <time>2019-10-14T23:37:20Z</time>
      </trkpt>
      <trkpt lat="37.52693" lon="-8.14042">
        <ele>289.046</ele>
        <time>2019-10-14T23:37:40Z</time>
      </trkpt>
      <trkpt lat="37.52906" lon="-8.14108">
        <ele>289.438</ele>
        <time>2019-10-14T23:38:00Z</time>
      </trkpt>
      <trkpt lat="37.5298" lon="-8.14124">
        <ele>287.848</ele>
        <time>2019-10-14T23:38:20Z</time>
      </trkpt>
      <trkpt lat="37.52992" lon="-8.14127">
        <ele>287.77</ele>
        <time>2019-10-14T23:38:40Z</time>
      </trkpt>
      <trkpt lat="37.53034" lon="-8.14157">
        <ele>289.751</ele>
        <time>2019-10-14T23:39:00Z</time>
      </trkpt>
      <trkpt lat="37.53065" lon="-8.14189">
        <ele>290.093</ele>
        <time>2019-10-14T23:39:20Z</time>
      </trkpt>
      <trkpt lat="37.53087" lon="-8.14205">
        <ele>289.983</ele>
        <time>2019-10-14T23:39:40Z</time>
      </trkpt>
      <trkpt lat="37.53147" lon="-8.14232">
        <ele>288.492</ele>
        <time>2019-10-14T23:40:00Z</time>
      </trkpt>
      <trkpt lat="37.53189" lon="-8.14222">
        <ele>286.473</ele>
        <time>2019-10-14T23:40:20Z</time>
      </trkpt>
      <trkpt lat="37.5324" lon="-8.1419">
        <ele>285.02</ele>
        <time>2019-10-14T23:40:40Z</time>
      </trkpt>
      <trkpt lat="37.53267" lon="-8.14188">
        <ele>286.508</ele>
        <time>2019-10-14T23:41:00Z</time>
      </trkpt>
      <trkpt lat="37.53313" lon="-8.14222">
        <ele>290.283</ele>
        <time>2019-10-14T23:41:20Z</time>
      </trkpt>
      <trkpt lat="37.53324" lon="-8.14241">
        <ele>288.691</ele>
        <time>2019-10-14T23:41:40Z</time>
      </trkpt>
      <trkpt lat="37.53333" lon="-8.14264">
        <ele>287.593</ele>
        <time>2019-10-14T23:42:00Z</time>
      </trkpt>
      <trkpt lat="37.53337" lon="-8.14275">
        <ele>286.943</ele>
        <time>2019-10-14T23:42:20Z</time>
      </trkpt>
      <trkpt lat="37.5334" lon="-8.14298">
        <ele>286.895</ele>
        <time>2019-10-14T23:42:40Z</time>
      </trkpt>
      <trkpt lat="37.53345" lon="-8.14324">
        <ele>287.536</ele>
        <time>2019-10-14T23:43:00Z</time>
      </trkpt>
      <trkpt lat="37.53355" lon="-8.14359">
        <ele>287.618</ele>
        <time>2019-10-14T23:43:20Z</time>
      </trkpt>
      <trkpt lat="37.53382" lon="-8.14401">
        <ele>284.178</ele>
        <time>2019-10-14T23:43:40Z</time>
      </trkpt>
      <trkpt lat="37.53428" lon="-8.14431">
        <ele>281.766</ele>
        <time>2019-10-14T23:44:00Z</time>
      </trkpt>
      <trkpt lat="37.53455" lon="-8.14459">
        <ele>282.529</ele>
        <time>2019-10-14T23:44:20Z</time>
      </trkpt>
      <trkpt lat="37.53555" lon="-8.14583">
        <ele>280.021</ele>
        <time>2019-10-14T23:44:40Z</time>
      </trkpt>
      <trkpt lat="37.5359" lon="-8.14633">
        <ele>282.608</ele>
        <time>2019-10-14T23:45:00Z</time>
      </trkpt>
      <trkpt lat="37.53704" lon="-8.14759">
        <ele>280.98</ele>
        <time>2019-10-14T23:45:20Z</time>
      </trkpt>
      <trkpt lat="37.53769" lon="-8.14833">
        <ele>287.398</ele>
        <time>2019-10-14T23:45:40Z</time>
      </trkpt>
      <trkpt lat="37.53822" lon="-8.14852">
        <ele>288.16</ele>
        <time>2019-10-14T23:46:00Z</time>
      </trkpt>
      <trkpt lat="37.53851" lon="-8.14866">
        <ele>287.25</ele>
        <time>2019-10-14T23:46:20Z</time>
      </trkpt>
      <trkpt lat="37.5393" lon="-8.14913">
        <ele>282.792</ele>
        <time>2019-10-14T23:46:40Z</time>
      </trkpt>
      <trkpt lat="37.53944" lon="-8.14919">
        <ele>282.033</ele>
        <time>2019-10-14T23:47:00Z</time>
      </trkpt>
      <trkpt lat="37.54077" lon="-8.14947">
        <ele>280.485</ele>
        <time>2019-10-14T23:47:20Z</time>
      </trkpt>
      <trkpt lat="37.54119" lon="-8.14953">
        <ele>280.385</ele>
        <time>2019-10-14T23:47:40Z</time>
      </trkpt>
      <trkpt lat="37.54163" lon="-8.14979">
        <ele>281.273</ele>
        <time>2019-10-14T23:48:00Z</time>
      </trkpt>
      <trkpt lat="37.54183" lon="-8.15002">
        <ele>280.885</ele>
        <time>2019-10-14T23:48:20Z</time>
      </trkpt>
      <trkpt lat="37.54209" lon="-8.15038">
        <ele>278.713</ele>
        <time>2019-10-14T23:48:40Z</time>
      </trkpt>
      <trkpt lat="37.5427" lon="-8.1508">
        <ele>276.508</ele>
        <time>2019-10-14T23:49:00Z</time>
      </trkpt>
      <trkpt lat="37.54336" lon="-8.15112">
        <ele>276.741</ele>
        <time>2019-10-14T23:49:20Z</time>
      </trkpt>
      <trkpt lat="37.54365" lon="-8.15121">
        <ele>274.089</ele>
        <time>2019-10-14T23:49:40Z</time>
      </trkpt>
      <trkpt lat="37.54434" lon="-8.15144">
        <ele>274.161</ele>
        <time>2019-10-14T23:50:00Z</time>
      </trkpt>
      <trkpt lat="37.5453" lon="-8.15215">
        <ele>272.941</ele>
        <time>2019-10-14T23:50:20Z</time>
      </trkpt>
      <trkpt lat="37.54558" lon="-8.15236">
        <ele>271.693</ele>
        <time>2019-10-14T23:50:40Z</time>
      </trkpt>
      <trkpt lat="37.54594" lon="-8.15267">
        <ele>273.994</ele>
        <time>2019-10-14T23:51:00Z</time>
      </trkpt>
      <trkpt lat="37.54611" lon="-8.15277">
        <ele>275.086</ele>
        <time>2019-10-14T23:51:20Z</time>
      </trkpt>
      <trkpt lat="37.54619" lon="-8.15279">
        <ele>275.566</ele>
        <time>2019-10-14T23:51:40Z</time>
      </trkpt>
      <trkpt lat="37.54637" lon="-8.15274">
        <ele>277.088</ele>
        <time>2019-10-14T23:52:00Z</time>
      </trkpt>
      <trkpt lat="37.54649" lon="-8.15269">
        <ele>277.724</ele>
        <time>2019-10-14T23:52:20Z</time>
      </trkpt>
      <trkpt lat="37.54677" lon="-8.15253">
        <ele>278.926</ele>
        <time>2019-10-14T23:52:40Z</time>
      </trkpt>
      <trkpt lat="37.54681" lon="-8.1525">
        <ele>279.008</ele>
        <time>2019-10-14T23:53:00Z</time>
      </trkpt>
      <trkpt lat="37.54684" lon="-8.15247">
        <ele>279.112</ele>
        <time>2019-10-14T23:53:20Z</time>
      </trkpt>
      <trkpt lat="37.54687" lon="-8.15244">
        <ele>279.11</ele>
        <time>2019-10-14T23:53:40Z</time>
      </trkpt>
      <trkpt lat="37.54691" lon="-8.15242">
        <ele>279.392</ele>
        <time>2019-10-14T23:54:00Z</time>
      </trkpt>
      <trkpt lat="37.54695" lon="-8.15241">
        <ele>279.432</ele>
        <time>2019-10-14T23:54:20Z</time>
      </trkpt>
      <trkpt lat="37.54699" lon="-8.1524">
        <ele>279.594</ele>
        <time>2019-10-14T23:54:40Z</time>
      </trkpt>
      <trkpt lat="37.54703" lon="-8.15241">
        <ele>279.515</ele>
        <time>2019-10-14T23:55:00Z</time>
      </trkpt>
      <trkpt lat="37.54707" lon="-8.15244">
        <ele>279.657</ele>
        <time>2019-10-14T23:55:20Z</time>
      </trkpt>
      <trkpt lat="37.54713" lon="-8.15248">
        <ele>279.727</ele>
        <time>2019-10-14T23:55:40Z</time>
      </trkpt>
      <trkpt lat="37.54778" lon="-8.15303">
        <ele>278.068</ele>
        <time>2019-10-14T23:56:00Z</time>
      </trkpt>
      <trkpt lat="37.54861" lon="-8.15362">
        <ele>276.042</ele>
        <time>2019-10-14T23:56:20Z</time>
      </trkpt>
      <trkpt lat="37.5487" lon="-8.15369">
        <ele>275.526</ele>
        <time>2019-10-14T23:56:40Z</time>
      </trkpt>
      <trkpt lat="37.54886" lon="-8.15393">
        <ele>275.008</ele>
        <time>2019-10-14T23:57:00Z</time>
      </trkpt>
      <trkpt lat="37.54894" lon="-8.15437">
        <ele>275.13</ele>
        <time>2019-10-14T23:57:20Z</time>
      </trkpt>
      <trkpt lat="37.54901" lon="-8.15464">
        <ele>275.458</ele>
        <time>2019-10-14T23:57:40Z</time>
      </trkpt>
      <trkpt lat="37.5494" lon="-8.15636">
        <ele>277.38</ele>
        <time>2019-10-14T23:58:00Z</time>
      </trkpt>
      <trkpt lat="37.54981" lon="-8.15818">
        <ele>275.51</ele>
        <time>2019-10-14T23:58:20Z</time>
      </trkpt>
      <trkpt lat="37.55008" lon="-8.15899">
        <ele>274.572</ele>
        <time>2019-10-14T23:58:40Z</time>
      </trkpt>
      <trkpt lat="37.55011" lon="-8.15943">
        <ele>274.873</ele>
        <time>2019-10-14T23:59:00Z</time>
      </trkpt>
      <trkpt lat="37.55002" lon="-8.15985">
        <ele>272.235</ele>
        <time>2019-10-14T23:59:20Z</time>
      </trkpt>
      <trkpt lat="37.54987" lon="-8.1607">
        <ele>270.365</ele>
        <time>2019-10-14T23:59:40Z</time>
      </trkpt>
      <trkpt lat="37.54976" lon="-8.1612">
        <ele>270.766</ele>
        <time>2019-10-15T00:00:00Z</time>
      </trkpt>
      <trkpt lat="37.54952" lon="-8.16197">
        <ele>267.929</ele>
        <time>2019-10-15T00:00:20Z</time>
      </trkpt>
      <trkpt lat="37.54968" lon="-8.16251">
        <ele>266.821</ele>
        <time>2019-10-15T00:00:40Z</time>
      </trkpt>
      <trkpt lat="37.55039" lon="-8.16363">
        <ele>267.908</ele>
        <time>2019-10-15T00:01:00Z</time>
      </trkpt>
      <trkpt lat="37.55103" lon="-8.16466">
        <ele>263.08</ele>
        <time>2019-10-15T00:01:20Z</time>
      </trkpt>
      <trkpt lat="37.55111" lon="-8.16479">
        <ele>263.288</ele>
        <time>2019-10-15T00:01:40Z</time>
      </trkpt>
      <trkpt lat="37.55148" lon="-8.1651">
        <ele>262.26</ele>
        <time>2019-10-15T00:02:00Z</time>
      </trkpt>
      <trkpt lat="37.55196" lon="-8.16528">
        <ele>259.93</ele>
        <time>2019-10-15T00:02:20Z</time>
      </trkpt>
      <trkpt lat="37.55206" lon="-8.16534">
        <ele>259.192</ele>
        <time>2019-10-15T00:02:40Z</time>
      </trkpt>
      <trkpt lat="37.55206" lon="-8.16534">
        <ele>259.083</ele>
        <time>2019-10-15T00:03:00Z</time>
      </trkpt>
      <trkpt lat="37.55206" lon="-8.16534">
        <ele>259.085</ele>
        <time>2019-10-15T00:03:20Z</time>
      </trkpt>
      <trkpt lat="37.55205" lon="-8.16533">
        <ele>259.135</ele>
        <time>2019-10-15T00:03:40Z</time>
      </trkpt>
      <trkpt lat="37.55205" lon="-8.16533">
        <ele>259.139</ele>
        <time>2019-10-15T00:04:00Z</time>
      </trkpt>
      <trkpt lat="37.55206" lon="-8.16534">
        <ele>259.101</ele>
        <time>2019-10-15T00:04:20Z</time>
      </trkpt>
      <trkpt lat="37.55206" lon="-8.16534">
        <ele>259.021</ele>
        <time>2019-10-15T00:04:40Z</time>
      </trkpt>
      <trkpt lat="37.55205" lon="-8.16534">
        <ele>259.108</ele>
        <time>2019-10-15T00:05:00Z</time>
      </trkpt>
      <trkpt lat="37.55205" lon="-8.16533">
        <ele>259.157</ele>
        <time>2019-10-15T00:05:20Z</time>
      </trkpt>
      <trkpt lat="37.55205" lon="-8.16534">
        <ele>259.195</ele>
        <time>2019-10-15T00:05:40Z</time>
      </trkpt>
      <trkpt lat="37.55235" lon="-8.16556">
        <ele>256.647</ele>
        <time>2019-10-15T00:06:00Z</time>
      </trkpt>
      <trkpt lat="37.55323" lon="-8.1663">
        <ele>256.027</ele>
        <time>2019-10-15T00:06:20Z</time>
      </trkpt>
      <trkpt lat="37.55419" lon="-8.16757">
        <ele>254.599</ele>
        <time>2019-10-15T00:06:40Z</time>
      </trkpt>
      <trkpt lat="37.55521" lon="-8.1689">
        <ele>253.81</ele>
        <time>2019-10-15T00:07:00Z</time>
      </trkpt>
      <trkpt lat="37.55529" lon="-8.16898">
        <ele>254.152</ele>
        <time>2019-10-15T00:07:20Z</time>
      </trkpt>
      <trkpt lat="37.55544" lon="-8.16913">
        <ele>255.142</ele>
        <time>2019-10-15T00:07:40Z</time>
      </trkpt>
      <trkpt lat="37.55587" lon="-8.16996">
        <ele>255.923</ele>
        <time>2019-10-15T00:08:00Z</time>
      </trkpt>
      <trkpt lat="37.5561" lon="-8.17034">
        <ele>254.383</ele>
        <time>2019-10-15T00:08:20Z</time>
      </trkpt>
      <trkpt lat="37.55627" lon="-8.17077">
        <ele>255.211</ele>
        <time>2019-10-15T00:08:40Z</time>
      </trkpt>
      <trkpt lat="37.5569" lon="-8.17172">
        <ele>256.708</ele>
        <time>2019-10-15T00:09:00Z</time>
      </trkpt>
      <trkpt lat="37.55783" lon="-8.17266">
        <ele>254.926</ele>
        <time>2019-10-15T00:09:20Z</time>
      </trkpt>
      <trkpt lat="37.55887" lon="-8.17366">
        <ele>253.894</ele>
        <time>2019-10-15T00:09:40Z</time>
      </trkpt>
      <trkpt lat="37.55973" lon="-8.17453">
        <ele>259.066</ele>
        <time>2019-10-15T00:10:00Z</time>
      </trkpt>
      <trkpt lat="37.56071" lon="-8.17544">
        <ele>253.666</ele>
        <time>2019-10-15T00:10:20Z</time>
      </trkpt>
      <trkpt lat="37.56125" lon="-8.17599">
        <ele>255.318</ele>
        <time>2019-10-15T00:10:40Z</time>
      </trkpt>
      <trkpt lat="37.56224" lon="-8.17705">
        <ele>257.659</ele>
        <time>2019-10-15T00:11:00Z</time>
      </trkpt>
      <trkpt lat="37.56295" lon="-8.17781">
        <ele>254.981</ele>
        <time>2019-10-15T00:11:20Z</time>
      </trkpt>
      <trkpt lat="37.56328" lon="-8.17811">
        <ele>254.641</ele>
        <time>2019-10-15T00:11:40Z</time>
      </trkpt>
      <trkpt lat="37.56333" lon="-8.17806">
        <ele>255.093</ele>
        <time>2019-10-15T00:12:00Z</time>
      </trkpt>
      <trkpt lat="37.56337" lon="-8.17803">
        <ele>254.965</ele>
        <time>2019-10-15T00:12:20Z</time>
      </trkpt>
      <trkpt lat="37.56341" lon="-8.17799">
        <ele>254.821</ele>
        <time>2019-10-15T00:12:40Z</time>
      </trkpt>
      <trkpt lat="37.56348" lon="-8.17791">
        <ele>254.708</ele>
        <time>2019-10-15T00:13:00Z</time>
      </trkpt>
      <trkpt lat="37.56361" lon="-8.17782">
        <ele>255.063</ele>
        <time>2019-10-15T00:13:20Z</time>
      </trkpt>
      <trkpt lat="37.56408" lon="-8.17751">
        <ele>255.021</ele>
        <time>2019-10-15T00:13:40Z</time>
      </trkpt>
      <trkpt lat="37.56514" lon="-8.17677">
        <ele>251.253</ele>
        <time>2019-10-15T00:14:00Z</time>
      </trkpt>
      <trkpt lat="37.56532" lon="-8.17663">
        <ele>250.773</ele>
        <time>2019-10-15T00:14:20Z</time>
      </trkpt>
      <trkpt lat="37.56541" lon="-8.17659">
        <ele>250.485</ele>
        <time>2019-10-15T00:14:40Z</time>
      </trkpt>
      <trkpt lat="37.5655" lon="-8.17657">
        <ele>250.146</ele>
        <time>2019-10-15T00:15:00Z</time>
      </trkpt>
      <trkpt lat="37.5656" lon="-8.17658">
        <ele>249.898</ele>
        <time>2019-10-15T00:15:20Z</time>
      </trkpt>
      <trkpt lat="37.56571" lon="-8.17659">
        <ele>249.358</ele>
        <time>2019-10-15T00:15:40Z</time>
      </trkpt>
      <trkpt lat="37.56681" lon="-8.17668">
        <ele>246.077</ele>
        <time>2019-10-15T00:16:00Z</time>
      </trkpt>
      <trkpt lat="37.56762" lon="-8.17675">
        <ele>245.761</ele>
        <time>2019-10-15T00:16:20Z</time>
      </trkpt>
      <trkpt lat="37.56776" lon="-8.17679">
        <ele>245.527</ele>
        <time>2019-10-15T00:16:40Z</time>
      </trkpt>
      <trkpt lat="37.56857" lon="-8.17708">
        <ele>243.408</ele>
        <time>2019-10-15T00:17:00Z</time>
      </trkpt>
      <trkpt lat="37.56953" lon="-8.1774">
        <ele>240.851</ele>
        <time>2019-10-15T00:17:20Z</time>
      </trkpt>
      <trkpt lat="37.56964" lon="-8.17743">
        <ele>239.819</ele>
        <time>2019-10-15T00:17:40Z</time>
      </trkpt>
      <trkpt lat="37.56978" lon="-8.17748">
        <ele>238.661</ele>
        <time>2019-10-15T00:18:00Z</time>
      </trkpt>
      <trkpt lat="37.56983" lon="-8.17751">
        <ele>238.361</ele>
        <time>2019-10-15T00:18:20Z</time>
      </trkpt>
      <trkpt lat="37.56985" lon="-8.17755">
        <ele>238.193</ele>
        <time>2019-10-15T00:18:40Z</time>
      </trkpt>
      <trkpt lat="37.56986" lon="-8.17759">
        <ele>238.234</ele>
        <time>2019-10-15T00:19:00Z</time>
      </trkpt>
      <trkpt lat="37.56985" lon="-8.17765">
        <ele>238.316</ele>
        <time>2019-10-15T00:19:20Z</time>
      </trkpt>
      <trkpt lat="37.56982" lon="-8.17774">
        <ele>238.686</ele>
        <time>2019-10-15T00:19:40Z</time>
      </trkpt>
      <trkpt lat="37.56979" lon="-8.17786">
        <ele>238.868</ele>
        <time>2019-10-15T00:20:00Z</time>
      </trkpt>
      <trkpt lat="37.56969" lon="-8.17815">
        <ele>239.042</ele>
        <time>2019-10-15T00:20:20Z</time>
      </trkpt>
      <trkpt lat="37.56935" lon="-8.17947">
        <ele>239.726</ele>
        <time>2019-10-15T00:20:40Z</time>
      </trkpt>
      <trkpt lat="37.56889" lon="-8.1808">
        <ele>243.908</ele>
        <time>2019-10-15T00:21:00Z</time>
      </trkpt>
      <trkpt lat="37.56872" lon="-8.18125">
        <ele>244.69</ele>
        <time>2019-10-15T00:21:20Z</time>
      </trkpt>
      <trkpt lat="37.5687" lon="-8.18139">
        <ele>244.718</ele>
        <time>2019-10-15T00:21:40Z</time>
      </trkpt>
      <trkpt lat="37.56872" lon="-8.18152">
        <ele>245.18</ele>
        <time>2019-10-15T00:22:00Z</time>
      </trkpt>
      <trkpt lat="37.56876" lon="-8.18166">
        <ele>245.49</ele>
        <time>2019-10-15T00:22:20Z</time>
      </trkpt>
      <trkpt lat="37.56881" lon="-8.18181">
        <ele>245.832</ele>
        <time>2019-10-15T00:22:40Z</time>
      </trkpt>
      <trkpt lat="37.56897" lon="-8.1823">
        <ele>245.153</ele>
        <time>2019-10-15T00:23:00Z</time>
      </trkpt>
      <trkpt lat="37.56906" lon="-8.18259">
        <ele>243.975</ele>
        <time>2019-10-15T00:23:20Z</time>
      </trkpt>
      <trkpt lat="37.56908" lon="-8.18273">
        <ele>243.075</ele>
        <time>2019-10-15T00:23:40Z</time>
      </trkpt>
      <trkpt lat="37.56908" lon="-8.18288">
        <ele>242.756</ele>
        <time>2019-10-15T00:24:00Z</time>
      </trkpt>
      <trkpt lat="37.56906" lon="-8.18303">
        <ele>242.959</ele>
        <time>2019-10-15T00:24:20Z</time>
      </trkpt>
      <trkpt lat="37.56903" lon="-8.18318">
        <ele>242.914</ele>
        <time>2019-10-15T00:24:40Z</time>
      </trkpt>
      <trkpt lat="37.56896" lon="-8.18364">
        <ele>244.108</ele>
        <time>2019-10-15T00:25:00Z</time>
      </trkpt>
      <trkpt lat="37.5689" lon="-8.18378">
        <ele>244.329</ele>
        <time>2019-10-15T00:25:20Z</time>
      </trkpt>
      <trkpt lat="37.56883" lon="-8.18391">
        <ele>244.757</ele>
        <time>2019-10-15T00:25:40Z</time>
      </trkpt>
      <trkpt lat="37.5687" lon="-8.18414">
        <ele>245.769</ele>
        <time>2019-10-15T00:26:00Z</time>
      </trkpt>
      <trkpt lat="37.56867" lon="-8.18426">
        <ele>245.939</ele>
        <time>2019-10-15T00:26:20Z</time>
      </trkpt>
      <trkpt lat="37.56866" lon="-8.18439">
        <ele>246.051</ele>
        <time>2019-10-15T00:26:40Z</time>
      </trkpt>
      <trkpt lat="37.56865" lon="-8.18506">
        <ele>247.992</ele>
        <time>2019-10-15T00:27:00Z</time>
      </trkpt>
      <trkpt lat="37.56862" lon="-8.18561">
        <ele>248.054</ele>
        <time>2019-10-15T00:27:20Z</time>
      </trkpt>
      <trkpt lat="37.5686" lon="-8.18571">
        <ele>248.144</ele>
        <time>2019-10-15T00:27:40Z</time>
      </trkpt>
      <trkpt lat="37.56856" lon="-8.1858">
        <ele>248.667</ele>
        <time>2019-10-15T00:28:00Z</time>
      </trkpt>
      <trkpt lat="37.5685" lon="-8.18585">
        <ele>249.381</ele>
        <time>2019-10-15T00:28:20Z</time>
      </trkpt>
      <trkpt lat="37.56842" lon="-8.18588">
        <ele>250.219</ele>
        <time>2019-10-15T00:28:40Z</time>
      </trkpt>
      <trkpt lat="37.56832" lon="-8.18592">
        <ele>251.108</ele>
        <time>2019-10-15T00:29:00Z</time>
      </trkpt>
      <trkpt lat="37.56788" lon="-8.1861">
        <ele>253.62</ele>
        <time>2019-10-15T00:29:20Z</time>
      </trkpt>
      <trkpt lat="37.56762" lon="-8.18621">
        <ele>255.148</ele>
        <time>2019-10-15T00:29:40Z</time>
      </trkpt>
      <trkpt lat="37.56686" lon="-8.18661">
        <ele>256.31</ele>
        <time>2019-10-15T00:30:00Z</time>
      </trkpt>
      <trkpt lat="37.56645" lon="-8.1869">
        <ele>256.04</ele>
        <time>2019-10-15T00:30:20Z</time>
      </trkpt>
      <trkpt lat="37.56632" lon="-8.18702">
        <ele>254.862</ele>
        <time>2019-10-15T00:30:40Z</time>
      </trkpt>
      <trkpt lat="37.5662" lon="-8.18717">
        <ele>252.933</ele>
        <time>2019-10-15T00:31:00Z</time>
      </trkpt>
      <trkpt lat="37.56556" lon="-8.18805">
        <ele>251.975</ele>
        <time>2019-10-15T00:31:20Z</time>
      </trkpt>
      <trkpt lat="37.56494" lon="-8.18896">
        <ele>253.195</ele>
        <time>2019-10-15T00:31:40Z</time>
      </trkpt>
      <trkpt lat="37.56489" lon="-8.18909">
        <ele>253.311</ele>
        <time>2019-10-15T00:32:00Z</time>
      </trkpt>
      <trkpt lat="37.56485" lon="-8.18923">
        <ele>253.621</ele>
        <time>2019-10-15T00:32:20Z</time>
      </trkpt>
      <trkpt lat="37.56483" lon="-8.18938">
        <ele>254.003</ele>
        <time>2019-10-15T00:32:40Z</time>
      </trkpt>
      <trkpt lat="37.56483" lon="-8.18955">
        <ele>254.008</ele>
        <time>2019-10-15T00:33:00Z</time>
      </trkpt>
      <trkpt lat="37.56485" lon="-8.18973">
        <ele>253.585</ele>
        <time>2019-10-15T00:33:20Z</time>
      </trkpt>
      <trkpt lat="37.56487" lon="-8.18991">
        <ele>253.173</ele>
        <time>2019-10-15T00:33:40Z</time>
      </trkpt>
      <trkpt lat="37.56493" lon="-8.19041">
        <ele>251.075</ele>
        <time>2019-10-15T00:34:00Z</time>
      </trkpt>
      <trkpt lat="37.56498" lon="-8.19092">
        <ele>247.885</ele>
        <time>2019-10-15T00:34:20Z</time>
      </trkpt>
      <trkpt lat="37.565" lon="-8.19096">
        <ele>247.547</ele>
        <time>2019-10-15T00:34:40Z</time>
      </trkpt>
      <trkpt lat="37.56501" lon="-8.19099">
        <ele>247.458</ele>
        <time>2019-10-15T00:35:00Z</time>
      </trkpt>
      <trkpt lat="37.56503" lon="-8.19101">
        <ele>247.33</ele>
        <time>2019-10-15T00:35:20Z</time>
      </trkpt>
      <trkpt lat="37.56504" lon="-8.19106">
        <ele>247.15</ele>
        <time>2019-10-15T00:35:40Z</time>
      </trkpt>
      <trkpt lat="37.56515" lon="-8.1918">
        <ele>249.524</ele>
        <time>2019-10-15T00:36:00Z</time>
      </trkpt>
      <trkpt lat="37.56518" lon="-8.19223">
        <ele>250.304</ele>
        <time>2019-10-15T00:36:20Z</time>
      </trkpt>
      <trkpt lat="37.5652" lon="-8.19236">
        <ele>250.314</ele>
        <time>2019-10-15T00:36:40Z</time>
      </trkpt>
      <trkpt lat="37.56521" lon="-8.19242">
        <ele>250.308</ele>
        <time>2019-10-15T00:37:00Z</time>
      </trkpt>
      <trkpt lat="37.56523" lon="-8.19271">
        <ele>250.946</ele>
        <time>2019-10-15T00:37:20Z</time>
      </trkpt>
      <trkpt lat="37.56523" lon="-8.19283">
        <ele>251.214</ele>
        <time>2019-10-15T00:37:40Z</time>
      </trkpt>
      <trkpt lat="37.56521" lon="-8.19295">
        <ele>251.156</ele>
        <time>2019-10-15T00:38:00Z</time>
      </trkpt>
      <trkpt lat="37.56519" lon="-8.19306">
        <ele>250.976</ele>
        <time>2019-10-15T00:38:20Z</time>
      </trkpt>
      <trkpt lat="37.56517" lon="-8.19317">
        <ele>250.048</ele>
        <time>2019-10-15T00:38:40Z</time>
      </trkpt>
      <trkpt lat="37.56515" lon="-8.19337">
        <ele>248.449</ele>
        <time>2019-10-15T00:39:00Z</time>
      </trkpt>
      <trkpt lat="37.56517" lon="-8.19346">
        <ele>248.251</ele>
        <time>2019-10-15T00:39:20Z</time>
      </trkpt>
      <trkpt lat="37.5652" lon="-8.19356">
        <ele>248.311</ele>
        <time>2019-10-15T00:39:40Z</time>
      </trkpt>
      <trkpt lat="37.56526" lon="-8.19366">
        <ele>248.854</ele>
        <time>2019-10-15T00:40:00Z</time>
      </trkpt>
      <trkpt lat="37.56532" lon="-8.19377">
        <ele>249.456</ele>
        <time>2019-10-15T00:40:20Z</time>
      </trkpt>
      <trkpt lat="37.56544" lon="-8.194">
        <ele>250.311</ele>
        <time>2019-10-15T00:40:40Z</time>
      </trkpt>
      <trkpt lat="37.56584" lon="-8.19482">
        <ele>256.008</ele>
        <time>2019-10-15T00:41:00Z</time>
      </trkpt>
      <trkpt lat="37.56679" lon="-8.19655">
        <ele>249.799</ele>
        <time>2019-10-15T00:41:20Z</time>
      </trkpt>
      <trkpt lat="37.56756" lon="-8.19806">
        <ele>248.577</ele>
        <time>2019-10-15T00:41:40Z</time>
      </trkpt>
      <trkpt lat="37.5679" lon="-8.19871">
        <ele>243.929</ele>
        <time>2019-10-15T00:42:00Z</time>
      </trkpt>
      <trkpt lat="37.56861" lon="-8.19989">
        <ele>245.429</ele>
        <time>2019-10-15T00:42:20Z</time>
      </trkpt>
      <trkpt lat="37.56907" lon="-8.20084">
        <ele>241.391</ele>
        <time>2019-10-15T00:42:40Z</time>
      </trkpt>
      <trkpt lat="37.56922" lon="-8.20111">
        <ele>240.022</ele>
        <time>2019-10-15T00:43:00Z</time>
      </trkpt>
      <trkpt lat="37.56945" lon="-8.20162">
        <ele>238.274</ele>
        <time>2019-10-15T00:43:20Z</time>
      </trkpt>
      <trkpt lat="37.5698" lon="-8.20235">
        <ele>234.414</ele>
        <time>2019-10-15T00:43:40Z</time>
      </trkpt>
      <trkpt lat="37.56988" lon="-8.20244">
        <ele>234.027</ele>
        <time>2019-10-15T00:44:00Z</time>
      </trkpt>
      <trkpt lat="37.56996" lon="-8.2025">
        <ele>233.968</ele>
        <time>2019-10-15T00:44:20Z</time>
      </trkpt>
      <trkpt lat="37.57006" lon="-8.20253">
        <ele>234.914</ele>
        <time>2019-10-15T00:44:40Z</time>
      </trkpt>
      <trkpt lat="37.57018" lon="-8.20254">
        <ele>236.508</ele>
        <time>2019-10-15T00:45:00Z</time>
      </trkpt>
      <trkpt lat="37.57031" lon="-8.20255">
        <ele>238.046</ele>
        <time>2019-10-15T00:45:20Z</time>
      </trkpt>
      <trkpt lat="37.57111" lon="-8.20257">
        <ele>241.084</ele>
        <time>2019-10-15T00:45:40Z</time>
      </trkpt>
      <trkpt lat="37.57204" lon="-8.20261">
        <ele>239.356</ele>
        <time>2019-10-15T00:46:00Z</time>
      </trkpt>
      <trkpt lat="37.57296" lon="-8.20267">
        <ele>238.096</ele>
        <time>2019-10-15T00:46:20Z</time>
      </trkpt>
      <trkpt lat="37.57463" lon="-8.20274">
        <ele>240.728</ele>
        <time>2019-10-15T00:46:40Z</time>
      </trkpt>
      <trkpt lat="37.57575" lon="-8.20279">
        <ele>241.389</ele>
        <time>2019-10-15T00:47:00Z</time>
      </trkpt>
      <trkpt lat="37.57606" lon="-8.20277">
        <ele>241.861</ele>
        <time>2019-10-15T00:47:20Z</time>
      </trkpt>
      <trkpt lat="37.57634" lon="-8.20306">
        <ele>242.021</ele>
        <time>2019-10-15T00:47:40Z</time>
      </trkpt>
      <trkpt lat="37.5771" lon="-8.20423">
        <ele>244.377</ele>
        <time>2019-10-15T00:48:00Z</time>
      </trkpt>
      <trkpt lat="37.57792" lon="-8.20525">
        <ele>245.161</ele>
        <time>2019-10-15T00:48:20Z</time>
      </trkpt>
      <trkpt lat="37.5781" lon="-8.20545">
        <ele>244.127</ele>
        <time>2019-10-15T00:48:40Z</time>
      </trkpt>
      <trkpt lat="37.57866" lon="-8.20557">
        <ele>242.108</ele>
        <time>2019-10-15T00:49:00Z</time>
      </trkpt>
      <trkpt lat="37.57897" lon="-8.20576">
        <ele>241.691</ele>
        <time>2019-10-15T00:49:20Z</time>
      </trkpt>
      <trkpt lat="37.57905" lon="-8.20586">
        <ele>241.569</ele>
        <time>2019-10-15T00:49:40Z</time>
      </trkpt>
      <trkpt lat="37.57922" lon="-8.20609">
        <ele>241.531</ele>
        <time>2019-10-15T00:50:00Z</time>
      </trkpt>
      <trkpt lat="37.57954" lon="-8.2064">
        <ele>240.451</ele>
        <time>2019-10-15T00:50:20Z</time>
      </trkpt>
      <trkpt lat="37.58038" lon="-8.20682">
        <ele>238.763</ele>
        <time>2019-10-15T00:50:40Z</time>
      </trkpt>
      <trkpt lat="37.5807" lon="-8.20704">
        <ele>239.044</ele>
        <time>2019-10-15T00:51:00Z</time>
      </trkpt>
      <trkpt lat="37.58096" lon="-8.20745">
        <ele>241.326</ele>
        <time>2019-10-15T00:51:20Z</time>
      </trkpt>
      <trkpt lat="37.58113" lon="-8.20801">
        <ele>240.326</ele>
        <time>2019-10-15T00:51:40Z</time>
      </trkpt>
      <trkpt lat="37.58143" lon="-8.20854">
        <ele>235.125</ele>
        <time>2019-10-15T00:52:00Z</time>
      </trkpt>
      <trkpt lat="37.5829" lon="-8.21029">
        <ele>237.326</ele>
        <time>2019-10-15T00:52:20Z</time>
      </trkpt>
      <trkpt lat="37.58389" lon="-8.21145">
        <ele>236.008</ele>
        <time>2019-10-15T00:52:40Z</time>
      </trkpt>
      <trkpt lat="37.5843" lon="-8.212">
        <ele>236.608</ele>
        <time>2019-10-15T00:53:00Z</time>
      </trkpt>
      <trkpt lat="37.58509" lon="-8.21338">
        <ele>229.816</ele>
        <time>2019-10-15T00:53:20Z</time>
      </trkpt>
      <trkpt lat="37.58563" lon="-8.21446">
        <ele>228.274</ele>
        <time>2019-10-15T00:53:40Z</time>
      </trkpt>
      <trkpt lat="37.58573" lon="-8.21465">
        <ele>228.616</ele>
        <time>2019-10-15T00:54:00Z</time>
      </trkpt>
      <trkpt lat="37.58628" lon="-8.21564">
        <ele>225.046</ele>
        <time>2019-10-15T00:54:20Z</time>
      </trkpt>
      <trkpt lat="37.58665" lon="-8.21633">
        <ele>222.348</ele>
        <time>2019-10-15T00:54:40Z</time>
      </trkpt>
      <trkpt lat="37.58675" lon="-8.21651">
        <ele>222.669</ele>
        <time>2019-10-15T00:55:00Z</time>
      </trkpt>
      <trkpt lat="37.58753" lon="-8.21822">
        <ele>224.091</ele>
        <time>2019-10-15T00:55:20Z</time>
      </trkpt>
      <trkpt lat="37.58761" lon="-8.21854">
        <ele>222.671</ele>
        <time>2019-10-15T00:55:40Z</time>
      </trkpt>
      <trkpt lat="37.58797" lon="-8.2192">
        <ele>222.437</ele>
        <time>2019-10-15T00:56:00Z</time>
      </trkpt>
      <trkpt lat="37.58848" lon="-8.21944">
        <ele>221.049</ele>
        <time>2019-10-15T00:56:20Z</time>
      </trkpt>
      <trkpt lat="37.58921" lon="-8.21952">
        <ele>221.413</ele>
        <time>2019-10-15T00:56:40Z</time>
      </trkpt>
      <trkpt lat="37.58969" lon="-8.21937">
        <ele>220.508</ele>
        <time>2019-10-15T00:57:00Z</time>
      </trkpt>
      <trkpt lat="37.5898" lon="-8.21931">
        <ele>219.067</ele>
        <time>2019-10-15T00:57:20Z</time>
      </trkpt>
      <trkpt lat="37.59037" lon="-8.21929">
        <ele>214.045</ele>
        <time>2019-10-15T00:57:40Z</time>
      </trkpt>
      <trkpt lat="37.59064" lon="-8.21937">
        <ele>211.747</ele>
        <time>2019-10-15T00:58:00Z</time>
      </trkpt>
      <trkpt lat="37.59091" lon="-8.21943">
        <ele>208.967</ele>
        <time>2019-10-15T00:58:20Z</time>
      </trkpt>
      <trkpt lat="37.59155" lon="-8.21931">
        <ele>206.719</ele>
        <time>2019-10-15T00:58:40Z</time>
      </trkpt>
      <trkpt lat="37.59193" lon="-8.21927">
        <ele>205.15</ele>
        <time>2019-10-15T00:59:00Z</time>
      </trkpt>
      <trkpt lat="37.59219" lon="-8.21926">
        <ele>202.462</ele>
        <time>2019-10-15T00:59:20Z</time>
      </trkpt>
      <trkpt lat="37.59243" lon="-8.21919">
        <ele>200.492</ele>
        <time>2019-10-15T00:59:40Z</time>
      </trkpt>
      <trkpt lat="37.59266" lon="-8.21915">
        <ele>199.749</ele>
        <time>2019-10-15T01:00:00Z</time>
      </trkpt>
      <trkpt lat="37.5929" lon="-8.21917">
        <ele>199.002</ele>
        <time>2019-10-15T01:00:20Z</time>
      </trkpt>
      <trkpt lat="37.59332" lon="-8.2191">
        <ele>198.622</ele>
        <time>2019-10-15T01:00:40Z</time>
      </trkpt>
      <trkpt lat="37.59346" lon="-8.21895">
        <ele>197.908</ele>
        <time>2019-10-15T01:01:00Z</time>
      </trkpt>
      <trkpt lat="37.59414" lon="-8.218">
        <ele>199.678</ele>
        <time>2019-10-15T01:01:20Z</time>
      </trkpt>
      <trkpt lat="37.59505" lon="-8.21733">
        <ele>194.086</ele>
        <time>2019-10-15T01:01:40Z</time>
      </trkpt>
      <trkpt lat="37.59564" lon="-8.21711">
        <ele>196.688</ele>
        <time>2019-10-15T01:02:00Z</time>
      </trkpt>
      <trkpt lat="37.59591" lon="-8.21732">
        <ele>199.138</ele>
        <time>2019-10-15T01:02:20Z</time>
      </trkpt>
      <trkpt lat="37.59612" lon="-8.21776">
        <ele>201.29</ele>
        <time>2019-10-15T01:02:40Z</time>
      </trkpt>
      <trkpt lat="37.59633" lon="-8.21811">
        <ele>205.581</ele>
        <time>2019-10-15T01:03:00Z</time>
      </trkpt>
      <trkpt lat="37.59655" lon="-8.2184">
        <ele>208.553</ele>
        <time>2019-10-15T01:03:20Z</time>
      </trkpt>
      <trkpt lat="37.59672" lon="-8.21894">
        <ele>212.473</ele>
        <time>2019-10-15T01:03:40Z</time>
      </trkpt>
      <trkpt lat="37.59673" lon="-8.21938">
        <ele>211.551</ele>
        <time>2019-10-15T01:04:00Z</time>
      </trkpt>
      <trkpt lat="37.5969" lon="-8.21986">
        <ele>208.901</ele>
        <time>2019-10-15T01:04:20Z</time>
      </trkpt>
      <trkpt lat="37.59702" lon="-8.22015">
        <ele>208.311</ele>
        <time>2019-10-15T01:04:40Z</time>
      </trkpt>
      <trkpt lat="37.59705" lon="-8.22022">
        <ele>208.108</ele>
        <time>2019-10-15T01:05:00Z</time>
      </trkpt>
      <trkpt lat="37.59713" lon="-8.22039">
        <ele>207.929</ele>
        <time>2019-10-15T01:05:20Z</time>
      </trkpt>
      <trkpt lat="37.59718" lon="-8.22054">
        <ele>207.917</ele>
        <time>2019-10-15T01:05:40Z</time>
      </trkpt>
      <trkpt lat="37.59718" lon="-8.22057">
        <ele>207.939</ele>
        <time>2019-10-15T01:06:00Z</time>
      </trkpt>
      <trkpt lat="37.59727" lon="-8.22077">
        <ele>208.249</ele>
        <time>2019-10-15T01:06:20Z</time>
      </trkpt>
      <trkpt lat="37.59732" lon="-8.22085">
        <ele>208.361</ele>
        <time>2019-10-15T01:06:40Z</time>
      </trkpt>
      <trkpt lat="37.59734" lon="-8.22087">
        <ele>208.332</ele>
        <time>2019-10-15T01:07:00Z</time>
      </trkpt>
      <trkpt lat="37.59737" lon="-8.22087">
        <ele>208.334</ele>
        <time>2019-10-15T01:07:20Z</time>
      </trkpt>
      <trkpt lat="37.5974" lon="-8.22088">
        <ele>208.484</ele>
        <time>2019-10-15T01:07:40Z</time>
      </trkpt>
      <trkpt lat="37.59744" lon="-8.22086">
        <ele>208.657</ele>
        <time>2019-10-15T01:08:00Z</time>
      </trkpt>
      <trkpt lat="37.59749" lon="-8.22084">
        <ele>209</ele>
        <time>2019-10-15T01:08:20Z</time>
      </trkpt>
      <trkpt lat="37.59755" lon="-8.22079">
        <ele>209.52</ele>
        <time>2019-10-15T01:08:40Z</time>
      </trkpt>
      <trkpt lat="37.59762" lon="-8.22073">
        <ele>210.308</ele>
        <time>2019-10-15T01:09:00Z</time>
      </trkpt>
      <trkpt lat="37.59778" lon="-8.22061">
        <ele>212.089</ele>
        <time>2019-10-15T01:09:20Z</time>
      </trkpt>
      <trkpt lat="37.59787" lon="-8.22058">
        <ele>212.687</ele>
        <time>2019-10-15T01:09:40Z</time>
      </trkpt>
      <trkpt lat="37.59796" lon="-8.22057">
        <ele>213.339</ele>
        <time>2019-10-15T01:10:00Z</time>
      </trkpt>
      <trkpt lat="37.59827" lon="-8.22055">
        <ele>212.529</ele>
        <time>2019-10-15T01:10:20Z</time>
      </trkpt>
      <trkpt lat="37.59923" lon="-8.22049">
        <ele>208.331</ele>
        <time>2019-10-15T01:10:40Z</time>
      </trkpt>
      <trkpt lat="37.59931" lon="-8.22048">
        <ele>207.842</ele>
        <time>2019-10-15T01:11:00Z</time>
      </trkpt>
      <trkpt lat="37.59939" lon="-8.22048">
        <ele>207.284</ele>
        <time>2019-10-15T01:11:20Z</time>
      </trkpt>
      <trkpt lat="37.59948" lon="-8.22047">
        <ele>207.064</ele>
        <time>2019-10-15T01:11:40Z</time>
      </trkpt>
      <trkpt lat="37.59956" lon="-8.22047">
        <ele>207.245</ele>
        <time>2019-10-15T01:12:00Z</time>
      </trkpt>
      <trkpt lat="37.59985" lon="-8.22045">
        <ele>207.747</ele>
        <time>2019-10-15T01:12:20Z</time>
      </trkpt>
      <trkpt lat="37.59995" lon="-8.22046">
        <ele>207.711</ele>
        <time>2019-10-15T01:12:40Z</time>
      </trkpt>
      <trkpt lat="37.60006" lon="-8.22048">
        <ele>207.508</ele>
        <time>2019-10-15T01:13:00Z</time>
      </trkpt>
      <trkpt lat="37.60018" lon="-8.22052">
        <ele>207.228</ele>
        <time>2019-10-15T01:13:20Z</time>
      </trkpt>
      <trkpt lat="37.60029" lon="-8.22059">
        <ele>206.816</ele>
        <time>2019-10-15T01:13:40Z</time>
      </trkpt>
      <trkpt lat="37.60041" lon="-8.22066">
        <ele>207.148</ele>
        <time>2019-10-15T01:14:00Z</time>
      </trkpt>
      <trkpt lat="37.60052" lon="-8.22073">
        <ele>207.728</ele>
        <time>2019-10-15T01:14:20Z</time>
      </trkpt>
      <trkpt lat="37.60063" lon="-8.22077">
        <ele>208.99</ele>
        <time>2019-10-15T01:14:40Z</time>
      </trkpt>
      <trkpt lat="37.60074" lon="-8.2208">
        <ele>210.081</ele>
        <time>2019-10-15T01:15:00Z</time>
      </trkpt>
      <trkpt lat="37.60083" lon="-8.22079">
        <ele>211.143</ele>
        <time>2019-10-15T01:15:20Z</time>
      </trkpt>
      <trkpt lat="37.60092" lon="-8.22077">
        <ele>211.673</ele>
        <time>2019-10-15T01:15:40Z</time>
      </trkpt>
      <trkpt lat="37.60101" lon="-8.22071">
        <ele>212.114</ele>
        <time>2019-10-15T01:16:00Z</time>
      </trkpt>
      <trkpt lat="37.6011" lon="-8.22065">
        <ele>212.654</ele>
        <time>2019-10-15T01:16:20Z</time>
      </trkpt>
      <trkpt lat="37.60118" lon="-8.22058">
        <ele>212.409</ele>
        <time>2019-10-15T01:16:40Z</time>
      </trkpt>
      <trkpt lat="37.60126" lon="-8.2205">
        <ele>212.008</ele>
        <time>2019-10-15T01:17:00Z</time>
      </trkpt>
      <trkpt lat="37.60165" lon="-8.22007">
        <ele>211.845</ele>
        <time>2019-10-15T01:17:20Z</time>
      </trkpt>
      <trkpt lat="37.60167" lon="-8.22003">
        <ele>211.953</ele>
        <time>2019-10-15T01:17:40Z</time>
      </trkpt>
      <trkpt lat="37.60168" lon="-8.21999">
        <ele>212.015</ele>
        <time>2019-10-15T01:18:00Z</time>
      </trkpt>
      <trkpt lat="37.60167" lon="-8.21995">
        <ele>212.275</ele>
        <time>2019-10-15T01:18:20Z</time>
      </trkpt>
      <trkpt lat="37.60164" lon="-8.21992">
        <ele>212.437</ele>
        <time>2019-10-15T01:18:40Z</time>
      </trkpt>
      <trkpt lat="37.60162" lon="-8.2199">
        <ele>212.618</ele>
        <time>2019-10-15T01:19:00Z</time>
      </trkpt>
      <trkpt lat="37.6016" lon="-8.21988">
        <ele>212.88</ele>
        <time>2019-10-15T01:19:20Z</time>
      </trkpt>
      <trkpt lat="37.60158" lon="-8.21989">
        <ele>212.83</ele>
        <time>2019-10-15T01:19:40Z</time>
      </trkpt>
      <trkpt lat="37.60158" lon="-8.21988">
        <ele>212.938</ele>
        <time>2019-10-15T01:20:00Z</time>
      </trkpt>
      <trkpt lat="37.60156" lon="-8.21982">
        <ele>213.37</ele>
        <time>2019-10-15T01:20:20Z</time>
      </trkpt>
      <trkpt lat="37.60156" lon="-8.21978">
        <ele>213.517</ele>
        <time>2019-10-15T01:20:40Z</time>
      </trkpt>
      <trkpt lat="37.60157" lon="-8.21972">
        <ele>213.708</ele>
        <time>2019-10-15T01:21:00Z</time>
      </trkpt>
      <trkpt lat="37.60158" lon="-8.21968">
        <ele>213.937</ele>
        <time>2019-10-15T01:21:20Z</time>
      </trkpt>
      <trkpt lat="37.60162" lon="-8.21953">
        <ele>214.685</ele>
        <time>2019-10-15T01:21:40Z</time>
      </trkpt>
      <trkpt lat="37.60161" lon="-8.21951">
        <ele>214.867</ele>
        <time>2019-10-15T01:22:00Z</time>
      </trkpt>
      <trkpt lat="37.6016" lon="-8.21952">
        <ele>214.717</ele>
        <time>2019-10-15T01:22:20Z</time>
      </trkpt>
      <trkpt lat="37.60159" lon="-8.21953">
        <ele>214.859</ele>
        <time>2019-10-15T01:22:40Z</time>
      </trkpt>
      <trkpt lat="37.60161" lon="-8.21952">
        <ele>214.79</ele>
        <time>2019-10-15T01:23:00Z</time>
      </trkpt>
      <trkpt lat="37.60161" lon="-8.21954">
        <ele>214.622</ele>
        <time>2019-10-15T01:23:20Z</time>
      </trkpt>
      <trkpt lat="37.60161" lon="-8.21955">
        <ele>214.572</ele>
        <time>2019-10-15T01:23:40Z</time>
      </trkpt>
      <trkpt lat="37.60163" lon="-8.21954">
        <ele>214.559</ele>
        <time>2019-10-15T01:24:00Z</time>
      </trkpt>
      <trkpt lat="37.60163" lon="-8.21952">
        <ele>214.703</ele>
        <time>2019-10-15T01:24:20Z</time>
      </trkpt>
      <trkpt lat="37.60163" lon="-8.2195">
        <ele>214.723</ele>
        <time>2019-10-15T01:24:40Z</time>
      </trkpt>
      <trkpt lat="37.60162" lon="-8.21951">
        <ele>214.708</ele>
        <time>2019-10-15T01:25:00Z</time>
      </trkpt>
      <trkpt lat="37.60161" lon="-8.21954">
        <ele>214.639</ele>
        <time>2019-10-15T01:25:20Z</time>
      </trkpt>
      <trkpt lat="37.60161" lon="-8.21955">
        <ele>214.547</ele>
        <time>2019-10-15T01:25:40Z</time>
      </trkpt>
      <trkpt lat="37.60161" lon="-8.21955">
        <ele>214.599</ele>
        <time>2019-10-15T01:26:00Z</time>
      </trkpt>
      <trkpt lat="37.6016" lon="-8.21955">
        <ele>214.689</ele>
        <time>2019-10-15T01:26:20Z</time>
      </trkpt>
      <trkpt lat="37.60158" lon="-8.21953">
        <ele>214.841</ele>
        <time>2019-10-15T01:26:40Z</time>
      </trkpt>
      <trkpt lat="37.60158" lon="-8.21954">
        <ele>214.712</ele>
        <time>2019-10-15T01:27:00Z</time>
      </trkpt>
      <trkpt lat="37.60158" lon="-8.21955">
        <ele>214.774</ele>
        <time>2019-10-15T01:27:20Z</time>
      </trkpt>
      <trkpt lat="37.60158" lon="-8.21955">
        <ele>214.794</ele>
        <time>2019-10-15T01:27:40Z</time>
      </trkpt>
      <trkpt lat="37.60159" lon="-8.21957">
        <ele>214.564</ele>
        <time>2019-10-15T01:28:00Z</time>
      </trkpt>
      <trkpt lat="37.60162" lon="-8.21957">
        <ele>214.406</ele>
        <time>2019-10-15T01:28:20Z</time>
      </trkpt>
      <trkpt lat="37.60162" lon="-8.21955">
        <ele>214.516</ele>
        <time>2019-10-15T01:28:40Z</time>
      </trkpt>
      <trkpt lat="37.60162" lon="-8.21953">
        <ele>214.608</ele>
        <time>2019-10-15T01:29:00Z</time>
      </trkpt>
      <trkpt lat="37.60162" lon="-8.21955">
        <ele>214.55</ele>
        <time>2019-10-15T01:29:20Z</time>
      </trkpt>
      <trkpt lat="37.60163" lon="-8.21954">
        <ele>214.568</ele>
        <time>2019-10-15T01:29:40Z</time>
      </trkpt>
      <trkpt lat="37.60163" lon="-8.21953">
        <ele>214.64</ele>
        <time>2019-10-15T01:30:00Z</time>
      </trkpt>
      <trkpt lat="37.60158" lon="-8.21952">
        <ele>214.98</ele>
        <time>2019-10-15T01:30:20Z</time>
      </trkpt>
      <trkpt lat="37.60158" lon="-8.21952">
        <ele>214.982</ele>
        <time>2019-10-15T01:30:40Z</time>
      </trkpt>
      <trkpt lat="37.60157" lon="-8.21952">
        <ele>214.943</ele>
        <time>2019-10-15T01:31:00Z</time>
      </trkpt>
      <trkpt lat="37.60159" lon="-8.2195">
        <ele>214.965</ele>
        <time>2019-10-15T01:31:20Z</time>
      </trkpt>
      <trkpt lat="37.6016" lon="-8.21952">
        <ele>214.845</ele>
        <time>2019-10-15T01:31:40Z</time>
      </trkpt>
      <trkpt lat="37.6016" lon="-8.21951">
        <ele>214.844</ele>
        <time>2019-10-15T01:32:00Z</time>
      </trkpt>
      <trkpt lat="37.60159" lon="-8.21953">
        <ele>214.805</ele>
        <time>2019-10-15T01:32:20Z</time>
      </trkpt>
      <trkpt lat="37.60159" lon="-8.21956">
        <ele>214.615</ele>
        <time>2019-10-15T01:32:40Z</time>
      </trkpt>
      <trkpt lat="37.60159" lon="-8.21955">
        <ele>214.608</ele>
        <time>2019-10-15T01:33:00Z</time>
      </trkpt>
      <trkpt lat="37.60159" lon="-8.21954">
        <ele>214.748</ele>
        <time>2019-10-15T01:33:20Z</time>
      </trkpt>
      <trkpt lat="37.60159" lon="-8.21953">
        <ele>214.836</ele>
        <time>2019-10-15T01:33:40Z</time>
      </trkpt>
      <trkpt lat="37.60159" lon="-8.21952">
        <ele>214.818</ele>
        <time>2019-10-15T01:34:00Z</time>
      </trkpt>
      <trkpt lat="37.60158" lon="-8.21952">
        <ele>214.858</ele>
        <time>2019-10-15T01:34:20Z</time>
      </trkpt>
      <trkpt lat="37.60157" lon="-8.21952">
        <ele>214.99</ele>
        <time>2019-10-15T01:34:40Z</time>
      </trkpt>
      <trkpt lat="37.60158" lon="-8.2195">
        <ele>215.021</ele>
        <time>2019-10-15T01:35:00Z</time>
      </trkpt>
      <trkpt lat="37.60158" lon="-8.21951">
        <ele>214.973</ele>
        <time>2019-10-15T01:35:20Z</time>
      </trkpt>
      <trkpt lat="37.60159" lon="-8.2195">
        <ele>214.943</ele>
        <time>2019-10-15T01:35:40Z</time>
      </trkpt>
      <trkpt lat="37.60157" lon="-8.21951">
        <ele>215.086</ele>
        <time>2019-10-15T01:36:00Z</time>
      </trkpt>
      <trkpt lat="37.60158" lon="-8.21951">
        <ele>215.06</ele>
        <time>2019-10-15T01:36:20Z</time>
      </trkpt>
      <trkpt lat="37.6016" lon="-8.21952">
        <ele>214.826</ele>
        <time>2019-10-15T01:36:40Z</time>
      </trkpt>
      <trkpt lat="37.60158" lon="-8.21952">
        <ele>214.908</ele>
        <time>2019-10-15T01:37:00Z</time>
      </trkpt>
      <trkpt lat="37.60158" lon="-8.21951">
        <ele>214.932</ele>
        <time>2019-10-15T01:37:20Z</time>
      </trkpt>
      <trkpt lat="37.60159" lon="-8.21951">
        <ele>214.93</ele>
        <time>2019-10-15T01:37:40Z</time>
      </trkpt>
      <trkpt lat="37.60159" lon="-8.21955">
        <ele>214.772</ele>
        <time>2019-10-15T01:38:00Z</time>
      </trkpt>
      <trkpt lat="37.60161" lon="-8.21954">
        <ele>214.632</ele>
        <time>2019-10-15T01:38:20Z</time>
      </trkpt>
      <trkpt lat="37.60161" lon="-8.21954">
        <ele>214.624</ele>
        <time>2019-10-15T01:38:40Z</time>
      </trkpt>
      <trkpt lat="37.60161" lon="-8.21954">
        <ele>214.655</ele>
        <time>2019-10-15T01:39:00Z</time>
      </trkpt>
      <trkpt lat="37.60161" lon="-8.21954">
        <ele>214.627</ele>
        <time>2019-10-15T01:39:20Z</time>
      </trkpt>
      <trkpt lat="37.60161" lon="-8.21954">
        <ele>214.617</ele>
        <time>2019-10-15T01:39:40Z</time>
      </trkpt>
      <trkpt lat="37.60161" lon="-8.21953">
        <ele>214.731</ele>
        <time>2019-10-15T01:40:00Z</time>
      </trkpt>
      <trkpt lat="37.60161" lon="-8.21951">
        <ele>214.861</ele>
        <time>2019-10-15T01:40:20Z</time>
      </trkpt>
      <trkpt lat="37.6016" lon="-8.21952">
        <ele>214.707</ele>
        <time>2019-10-15T01:40:40Z</time>
      </trkpt>
      <trkpt lat="37.60159" lon="-8.21953">
        <ele>214.808</ele>
        <time>2019-10-15T01:41:00Z</time>
      </trkpt>
      <trkpt lat="37.60158" lon="-8.21954">
        <ele>214.767</ele>
        <time>2019-10-15T01:41:20Z</time>
      </trkpt>
      <trkpt lat="37.60159" lon="-8.21956">
        <ele>214.645</ele>
        <time>2019-10-15T01:41:40Z</time>
      </trkpt>
      <trkpt lat="37.60161" lon="-8.21956">
        <ele>214.597</ele>
        <time>2019-10-15T01:42:00Z</time>
      </trkpt>
      <trkpt lat="37.6016" lon="-8.21954">
        <ele>214.717</ele>
        <time>2019-10-15T01:42:20Z</time>
      </trkpt>
      <trkpt lat="37.6016" lon="-8.21954">
        <ele>214.719</ele>
        <time>2019-10-15T01:42:40Z</time>
      </trkpt>
      <trkpt lat="37.60156" lon="-8.21951">
        <ele>215.06</ele>
        <time>2019-10-15T01:43:00Z</time>
      </trkpt>
      <trkpt lat="37.60151" lon="-8.21967">
        <ele>214.452</ele>
        <time>2019-10-15T01:43:20Z</time>
      </trkpt>
      <trkpt lat="37.60149" lon="-8.21967">
        <ele>214.692</ele>
        <time>2019-10-15T01:43:40Z</time>
      </trkpt>
      <trkpt lat="37.60145" lon="-8.21966">
        <ele>214.837</ele>
        <time>2019-10-15T01:44:00Z</time>
      </trkpt>
      <trkpt lat="37.60142" lon="-8.21963">
        <ele>215.149</ele>
        <time>2019-10-15T01:44:20Z</time>
      </trkpt>
      <trkpt lat="37.60139" lon="-8.2196">
        <ele>215.413</ele>
        <time>2019-10-15T01:44:40Z</time>
      </trkpt>
      <trkpt lat="37.60135" lon="-8.21956">
        <ele>215.508</ele>
        <time>2019-10-15T01:45:00Z</time>
      </trkpt>
      <trkpt lat="37.60132" lon="-8.21951">
        <ele>215.687</ele>
        <time>2019-10-15T01:45:20Z</time>
      </trkpt>
      <trkpt lat="37.60124" lon="-8.2194">
        <ele>215.445</ele>
        <time>2019-10-15T01:45:40Z</time>
      </trkpt>
      <trkpt lat="37.60119" lon="-8.21934">
        <ele>215.347</ele>
        <time>2019-10-15T01:46:00Z</time>
      </trkpt>
      <trkpt lat="37.60082" lon="-8.21884">
        <ele>217.437</ele>
        <time>2019-10-15T01:46:20Z</time>
      </trkpt>
      <trkpt lat="37.60037" lon="-8.21822">
        <ele>218.729</ele>
        <time>2019-10-15T01:46:40Z</time>
      </trkpt>
      <trkpt lat="37.59995" lon="-8.21763">
        <ele>220.33</ele>
        <time>2019-10-15T01:47:00Z</time>
      </trkpt>
      <trkpt lat="37.59994" lon="-8.21757">
        <ele>220.412</ele>
        <time>2019-10-15T01:47:20Z</time>
      </trkpt>
      <trkpt lat="37.59995" lon="-8.21756">
        <ele>220.422</ele>
        <time>2019-10-15T01:47:40Z</time>
      </trkpt>
      <trkpt lat="37.59996" lon="-8.2175">
        <ele>220.797</ele>
        <time>2019-10-15T01:48:00Z</time>
      </trkpt>
      <trkpt lat="37.59999" lon="-8.21734">
        <ele>221.523</ele>
        <time>2019-10-15T01:48:20Z</time>
      </trkpt>
      <trkpt lat="37.60017" lon="-8.21701">
        <ele>224.025</ele>
        <time>2019-10-15T01:48:40Z</time>
      </trkpt>
      <trkpt lat="37.60065" lon="-8.21647">
        <ele>227.208</ele>
        <time>2019-10-15T01:49:00Z</time>
      </trkpt>
      <trkpt lat="37.60092" lon="-8.21617">
        <ele>228.833</ele>
        <time>2019-10-15T01:49:20Z</time>
      </trkpt>
      <trkpt lat="37.60158" lon="-8.21593">
        <ele>228.241</ele>
        <time>2019-10-15T01:49:40Z</time>
      </trkpt>
      <trkpt lat="37.60186" lon="-8.21593">
        <ele>230.133</ele>
        <time>2019-10-15T01:50:00Z</time>
      </trkpt>
      <trkpt lat="37.60263" lon="-8.21569">
        <ele>228.143</ele>
        <time>2019-10-15T01:50:20Z</time>
      </trkpt>
      <trkpt lat="37.60289" lon="-8.21534">
        <ele>227.365</ele>
        <time>2019-10-15T01:50:40Z</time>
      </trkpt>
      <trkpt lat="37.60347" lon="-8.21345">
        <ele>233.066</ele>
        <time>2019-10-15T01:51:00Z</time>
      </trkpt>
      <trkpt lat="37.60411" lon="-8.21113">
        <ele>231.958</ele>
        <time>2019-10-15T01:51:20Z</time>
      </trkpt>
      <trkpt lat="37.60447" lon="-8.20988">
        <ele>232.698</ele>
        <time>2019-10-15T01:51:40Z</time>
      </trkpt>
      <trkpt lat="37.6045" lon="-8.20976">
        <ele>233.221</ele>
        <time>2019-10-15T01:52:00Z</time>
      </trkpt>
      <trkpt lat="37.6046" lon="-8.20972">
        <ele>234.141</ele>
        <time>2019-10-15T01:52:20Z</time>
      </trkpt>
      <trkpt lat="37.60481" lon="-8.20982">
        <ele>234.405</ele>
        <time>2019-10-15T01:52:40Z</time>
      </trkpt>
      <trkpt lat="37.60492" lon="-8.20987">
        <ele>234.308</ele>
        <time>2019-10-15T01:53:00Z</time>
      </trkpt>
      <trkpt lat="37.60508" lon="-8.20993">
        <ele>234.716</ele>
        <time>2019-10-15T01:53:20Z</time>
      </trkpt>
      <trkpt lat="37.60528" lon="-8.20997">
        <ele>236.074</ele>
        <time>2019-10-15T01:53:40Z</time>
      </trkpt>
      <trkpt lat="37.60598" lon="-8.2099">
        <ele>234.746</ele>
        <time>2019-10-15T01:54:00Z</time>
      </trkpt>
      <trkpt lat="37.60662" lon="-8.2098">
        <ele>233.366</ele>
        <time>2019-10-15T01:54:20Z</time>
      </trkpt>
      <trkpt lat="37.60678" lon="-8.20979">
        <ele>234.388</ele>
        <time>2019-10-15T01:54:40Z</time>
      </trkpt>
      <trkpt lat="37.60746" lon="-8.20957">
        <ele>235.319</ele>
        <time>2019-10-15T01:55:00Z</time>
      </trkpt>
      <trkpt lat="37.60831" lon="-8.2091">
        <ele>235.131</ele>
        <time>2019-10-15T01:55:20Z</time>
      </trkpt>
      <trkpt lat="37.60886" lon="-8.20914">
        <ele>231.451</ele>
        <time>2019-10-15T01:55:40Z</time>
      </trkpt>
      <trkpt lat="37.60899" lon="-8.20919">
        <ele>230.699</ele>
        <time>2019-10-15T01:56:00Z</time>
      </trkpt>
      <trkpt lat="37.61038" lon="-8.20989">
        <ele>228.007</ele>
        <time>2019-10-15T01:56:20Z</time>
      </trkpt>
      <trkpt lat="37.61053" lon="-8.20995">
        <ele>228.027</ele>
        <time>2019-10-15T01:56:40Z</time>
      </trkpt>
      <trkpt lat="37.61082" lon="-8.21006">
        <ele>229.708</ele>
        <time>2019-10-15T01:57:00Z</time>
      </trkpt>
      <trkpt lat="37.61178" lon="-8.21007">
        <ele>227.523</ele>
        <time>2019-10-15T01:57:20Z</time>
      </trkpt>
      <trkpt lat="37.61202" lon="-8.21012">
        <ele>227.461</ele>
        <time>2019-10-15T01:57:40Z</time>
      </trkpt>
      <trkpt lat="37.61252" lon="-8.21034">
        <ele>231.633</ele>
        <time>2019-10-15T01:58:00Z</time>
      </trkpt>
      <trkpt lat="37.61365" lon="-8.21091">
        <ele>229.763</ele>
        <time>2019-10-15T01:58:20Z</time>
      </trkpt>
      <trkpt lat="37.61449" lon="-8.21123">
        <ele>230.665</ele>
        <time>2019-10-15T01:58:40Z</time>
      </trkpt>
      <trkpt lat="37.61465" lon="-8.21132">
        <ele>230.286</ele>
        <time>2019-10-15T01:59:00Z</time>
      </trkpt>
      <trkpt lat="37.61533" lon="-8.21142">
        <ele>230.338</ele>
        <time>2019-10-15T01:59:20Z</time>
      </trkpt>
      <trkpt lat="37.61554" lon="-8.21147">
        <ele>231.318</ele>
        <time>2019-10-15T01:59:40Z</time>
      </trkpt>
      <trkpt lat="37.61606" lon="-8.21143">
        <ele>230.943</ele>
        <time>2019-10-15T02:00:00Z</time>
      </trkpt>
      <trkpt lat="37.61629" lon="-8.2113">
        <ele>231.164</ele>
        <time>2019-10-15T02:00:20Z</time>
      </trkpt>
      <trkpt lat="37.61652" lon="-8.21121">
        <ele>231.01</ele>
        <time>2019-10-15T02:00:40Z</time>
      </trkpt>
      <trkpt lat="37.61674" lon="-8.21111">
        <ele>230.708</ele>
        <time>2019-10-15T02:01:00Z</time>
      </trkpt>
      <trkpt lat="37.61749" lon="-8.21114">
        <ele>230.018</ele>
        <time>2019-10-15T02:01:20Z</time>
      </trkpt>
      <trkpt lat="37.61842" lon="-8.21124">
        <ele>232.096</ele>
        <time>2019-10-15T02:01:40Z</time>
      </trkpt>
      <trkpt lat="37.61998" lon="-8.21125">
        <ele>232.918</ele>
        <time>2019-10-15T02:02:00Z</time>
      </trkpt>
      <trkpt lat="37.62025" lon="-8.21131">
        <ele>236.978</ele>
        <time>2019-10-15T02:02:20Z</time>
      </trkpt>
      <trkpt lat="37.62175" lon="-8.21185">
        <ele>234.89</ele>
        <time>2019-10-15T02:02:40Z</time>
      </trkpt>
      <trkpt lat="37.62363" lon="-8.21216">
        <ele>232.691</ele>
        <time>2019-10-15T02:03:00Z</time>
      </trkpt>
      <trkpt lat="37.62401" lon="-8.21222">
        <ele>229.163</ele>
        <time>2019-10-15T02:03:20Z</time>
      </trkpt>
      <trkpt lat="37.62437" lon="-8.21215">
        <ele>228.053</ele>
        <time>2019-10-15T02:03:40Z</time>
      </trkpt>
      <trkpt lat="37.62453" lon="-8.21225">
        <ele>228.668</ele>
        <time>2019-10-15T02:04:00Z</time>
      </trkpt>
      <trkpt lat="37.62538" lon="-8.21294">
        <ele>230.042</ele>
        <time>2019-10-15T02:04:20Z</time>
      </trkpt>
      <trkpt lat="37.62668" lon="-8.21357">
        <ele>236.926</ele>
        <time>2019-10-15T02:04:40Z</time>
      </trkpt>
      <trkpt lat="37.62743" lon="-8.21417">
        <ele>238.008</ele>
        <time>2019-10-15T02:05:00Z</time>
      </trkpt>
      <trkpt lat="37.62802" lon="-8.21493">
        <ele>234.58</ele>
        <time>2019-10-15T02:05:20Z</time>
      </trkpt>
      <trkpt lat="37.62862" lon="-8.21527">
        <ele>229.098</ele>
        <time>2019-10-15T02:05:40Z</time>
      </trkpt>
      <trkpt lat="37.62902" lon="-8.21545">
        <ele>226.14</ele>
        <time>2019-10-15T02:06:00Z</time>
      </trkpt>
      <trkpt lat="37.62916" lon="-8.21552">
        <ele>225.99</ele>
        <time>2019-10-15T02:06:20Z</time>
      </trkpt>
      <trkpt lat="37.62978" lon="-8.21602">
        <ele>231.042</ele>
        <time>2019-10-15T02:06:40Z</time>
      </trkpt>
      <trkpt lat="37.63028" lon="-8.21624">
        <ele>226.443</ele>
        <time>2019-10-15T02:07:00Z</time>
      </trkpt>
      <trkpt lat="37.63054" lon="-8.21628">
        <ele>225.715</ele>
        <time>2019-10-15T02:07:20Z</time>
      </trkpt>
      <trkpt lat="37.63111" lon="-8.21648">
        <ele>223.755</ele>
        <time>2019-10-15T02:07:40Z</time>
      </trkpt>
      <trkpt lat="37.63137" lon="-8.21657">
        <ele>221.572</ele>
        <time>2019-10-15T02:08:00Z</time>
      </trkpt>
      <trkpt lat="37.63204" lon="-8.21654">
        <ele>220.313</ele>
        <time>2019-10-15T02:08:20Z</time>
      </trkpt>
      <trkpt lat="37.63244" lon="-8.21646">
        <ele>218.714</ele>
        <time>2019-10-15T02:08:40Z</time>
      </trkpt>
      <trkpt lat="37.63285" lon="-8.21623">
        <ele>214.508</ele>
        <time>2019-10-15T02:09:00Z</time>
      </trkpt>
      <trkpt lat="37.63319" lon="-8.21583">
        <ele>214.011</ele>
        <time>2019-10-15T02:09:20Z</time>
      </trkpt>
      <trkpt lat="37.63329" lon="-8.21579">
        <ele>214.329</ele>
        <time>2019-10-15T02:09:40Z</time>
      </trkpt>
      <trkpt lat="37.63328" lon="-8.21579">
        <ele>214.311</ele>
        <time>2019-10-15T02:10:00Z</time>
      </trkpt>
      <trkpt lat="37.63341" lon="-8.21575">
        <ele>214.041</ele>
        <time>2019-10-15T02:10:20Z</time>
      </trkpt>
      <trkpt lat="37.6335" lon="-8.21572">
        <ele>213.353</ele>
        <time>2019-10-15T02:10:40Z</time>
      </trkpt>
      <trkpt lat="37.634" lon="-8.21575">
        <ele>209.254</ele>
        <time>2019-10-15T02:11:00Z</time>
      </trkpt>
      <trkpt lat="37.6355" lon="-8.21603">
        <ele>212.486</ele>
        <time>2019-10-15T02:11:20Z</time>
      </trkpt>
      <trkpt lat="37.63696" lon="-8.21619">
        <ele>204.786</ele>
        <time>2019-10-15T02:11:40Z</time>
      </trkpt>
      <trkpt lat="37.63713" lon="-8.21621">
        <ele>203.988</ele>
        <time>2019-10-15T02:12:00Z</time>
      </trkpt>
      <trkpt lat="37.63773" lon="-8.21628">
        <ele>204.424</ele>
        <time>2019-10-15T02:12:20Z</time>
      </trkpt>
      <trkpt lat="37.63877" lon="-8.2169">
        <ele>200.026</ele>
        <time>2019-10-15T02:12:40Z</time>
      </trkpt>
      <trkpt lat="37.63927" lon="-8.2173">
        <ele>200.308</ele>
        <time>2019-10-15T02:13:00Z</time>
      </trkpt>
      <trkpt lat="37.63967" lon="-8.21746">
        <ele>202.022</ele>
        <time>2019-10-15T02:13:20Z</time>
      </trkpt>
      <trkpt lat="37.63982" lon="-8.21748">
        <ele>201.97</ele>
        <time>2019-10-15T02:13:40Z</time>
      </trkpt>
      <trkpt lat="37.64072" lon="-8.21762">
        <ele>200.142</ele>
        <time>2019-10-15T02:14:00Z</time>
      </trkpt>
      <trkpt lat="37.64116" lon="-8.21805">
        <ele>197.582</ele>
        <time>2019-10-15T02:14:20Z</time>
      </trkpt>
      <trkpt lat="37.64165" lon="-8.21916">
        <ele>200.314</ele>
        <time>2019-10-15T02:14:40Z</time>
      </trkpt>
      <trkpt lat="37.64173" lon="-8.21936">
        <ele>197.625</ele>
        <time>2019-10-15T02:15:00Z</time>
      </trkpt>
      <trkpt lat="37.64197" lon="-8.21954">
        <ele>195.657</ele>
        <time>2019-10-15T02:15:20Z</time>
      </trkpt>
      <trkpt lat="37.64207" lon="-8.21958">
        <ele>195.587</ele>
        <time>2019-10-15T02:15:40Z</time>
      </trkpt>
      <trkpt lat="37.64238" lon="-8.21975">
        <ele>196.232</ele>
        <time>2019-10-15T02:16:00Z</time>
      </trkpt>
      <trkpt lat="37.64256" lon="-8.21998">
        <ele>197.292</ele>
        <time>2019-10-15T02:16:20Z</time>
      </trkpt>
      <trkpt lat="37.64302" lon="-8.2204">
        <ele>198.911</ele>
        <time>2019-10-15T02:16:40Z</time>
      </trkpt>
      <trkpt lat="37.64338" lon="-8.22054">
        <ele>202.508</ele>
        <time>2019-10-15T02:17:00Z</time>
      </trkpt>
      <trkpt lat="37.64426" lon="-8.22059">
        <ele>208.077</ele>
        <time>2019-10-15T02:17:20Z</time>
      </trkpt>
      <trkpt lat="37.64462" lon="-8.22059">
        <ele>211.275</ele>
        <time>2019-10-15T02:17:40Z</time>
      </trkpt>
      <trkpt lat="37.64514" lon="-8.22054">
        <ele>212.827</ele>
        <time>2019-10-15T02:18:00Z</time>
      </trkpt>
      <trkpt lat="37.64554" lon="-8.22049">
        <ele>212.977</ele>
        <time>2019-10-15T02:18:20Z</time>
      </trkpt>
      <trkpt lat="37.64572" lon="-8.22053">
        <ele>213.169</ele>
        <time>2019-10-15T02:18:40Z</time>
      </trkpt>
      <trkpt lat="37.64578" lon="-8.22058">
        <ele>213.52</ele>
        <time>2019-10-15T02:19:00Z</time>
      </trkpt>
      <trkpt lat="37.64582" lon="-8.22061">
        <ele>213.862</ele>
        <time>2019-10-15T02:19:20Z</time>
      </trkpt>
      <trkpt lat="37.64586" lon="-8.22059">
        <ele>213.532</ele>
        <time>2019-10-15T02:19:40Z</time>
      </trkpt>
      <trkpt lat="37.64574" lon="-8.22027">
        <ele>209.337</ele>
        <time>2019-10-15T02:20:00Z</time>
      </trkpt>
      <trkpt lat="37.6465" lon="-8.21981">
        <ele>207.649</ele>
        <time>2019-10-15T02:20:20Z</time>
      </trkpt>
      <trkpt lat="37.64776" lon="-8.21965">
        <ele>197.713</ele>
        <time>2019-10-15T02:20:40Z</time>
      </trkpt>
      <trkpt lat="37.64833" lon="-8.21977">
        <ele>199.308</ele>
        <time>2019-10-15T02:21:00Z</time>
      </trkpt>
      <trkpt lat="37.6491" lon="-8.2199">
        <ele>199.817</ele>
        <time>2019-10-15T02:21:20Z</time>
      </trkpt>
      <trkpt lat="37.65009" lon="-8.21997">
        <ele>193.645</ele>
        <time>2019-10-15T02:21:40Z</time>
      </trkpt>
      <trkpt lat="37.65039" lon="-8.22008">
        <ele>191.197</ele>
        <time>2019-10-15T02:22:00Z</time>
      </trkpt>
      <trkpt lat="37.6507" lon="-8.22052">
        <ele>194.047</ele>
        <time>2019-10-15T02:22:20Z</time>
      </trkpt>
      <trkpt lat="37.65099" lon="-8.2209">
        <ele>195.849</ele>
        <time>2019-10-15T02:22:40Z</time>
      </trkpt>
      <trkpt lat="37.65115" lon="-8.22094">
        <ele>194.44</ele>
        <time>2019-10-15T02:23:00Z</time>
      </trkpt>
      <trkpt lat="37.65288" lon="-8.2229">
        <ele>198.762</ele>
        <time>2019-10-15T02:23:20Z</time>
      </trkpt>
      <trkpt lat="37.65223" lon="-8.22347">
        <ele>214.412</ele>
        <time>2019-10-15T02:23:40Z</time>
      </trkpt>
      <trkpt lat="37.65122" lon="-8.22345">
        <ele>218.836</ele>
        <time>2019-10-15T02:24:00Z</time>
      </trkpt>
      <trkpt lat="37.65102" lon="-8.22401">
        <ele>221.517</ele>
        <time>2019-10-15T02:24:20Z</time>
      </trkpt>
      <trkpt lat="37.65128" lon="-8.22438">
        <ele>223.418</ele>
        <time>2019-10-15T02:24:40Z</time>
      </trkpt>
      <trkpt lat="37.65176" lon="-8.22489">
        <ele>221.108</ele>
        <time>2019-10-15T02:25:00Z</time>
      </trkpt>
      <trkpt lat="37.65237" lon="-8.22597">
        <ele>217.627</ele>
        <time>2019-10-15T02:25:20Z</time>
      </trkpt>
      <trkpt lat="37.65229" lon="-8.22624">
        <ele>215.745</ele>
        <time>2019-10-15T02:25:40Z</time>
      </trkpt>
      <trkpt lat="37.65141" lon="-8.22771">
        <ele>206.357</ele>
        <time>2019-10-15T02:26:00Z</time>
      </trkpt>
      <trkpt lat="37.65188" lon="-8.23084">
        <ele>199.037</ele>
        <time>2019-10-15T02:26:20Z</time>
      </trkpt>
      <trkpt lat="37.65235" lon="-8.2325">
        <ele>192.499</ele>
        <time>2019-10-15T02:26:40Z</time>
      </trkpt>
      <trkpt lat="37.65305" lon="-8.2334">
        <ele>188.54</ele>
        <time>2019-10-15T02:27:00Z</time>
      </trkpt>
      <trkpt lat="37.65209" lon="-8.23326">
        <ele>188.342</ele>
        <time>2019-10-15T02:27:20Z</time>
      </trkpt>
      <trkpt lat="37.6518" lon="-8.23372">
        <ele>186.722</ele>
        <time>2019-10-15T02:27:40Z</time>
      </trkpt>
      <trkpt lat="37.65189" lon="-8.2345">
        <ele>184.587</ele>
        <time>2019-10-15T02:28:00Z</time>
      </trkpt>
      <trkpt lat="37.65196" lon="-8.23573">
        <ele>188.042</ele>
        <time>2019-10-15T02:28:20Z</time>
      </trkpt>
      <trkpt lat="37.65043" lon="-8.23741">
        <ele>175.726</ele>
        <time>2019-10-15T02:28:40Z</time>
      </trkpt>
      <trkpt lat="37.64999" lon="-8.23798">
        <ele>179.308</ele>
        <time>2019-10-15T02:29:00Z</time>
      </trkpt>
      <trkpt lat="37.64983" lon="-8.23667">
        <ele>177.032</ele>
        <time>2019-10-15T02:29:20Z</time>
      </trkpt>
      <trkpt lat="37.64907" lon="-8.23728">
        <ele>178.65</ele>
        <time>2019-10-15T02:29:40Z</time>
      </trkpt>
      <trkpt lat="37.64755" lon="-8.23747">
        <ele>172.772</ele>
        <time>2019-10-15T02:30:00Z</time>
      </trkpt>
      <trkpt lat="37.64452" lon="-8.23476">
        <ele>178.522</ele>
        <time>2019-10-15T02:30:20Z</time>
      </trkpt>
      <trkpt lat="37.64284" lon="-8.2335">
        <ele>183.614</ele>
        <time>2019-10-15T02:30:40Z</time>
      </trkpt>
      <trkpt lat="37.64193" lon="-8.23425">
        <ele>186.815</ele>
        <time>2019-10-15T02:31:00Z</time>
      </trkpt>
      <trkpt lat="37.64179" lon="-8.23458">
        <ele>186.677</ele>
        <time>2019-10-15T02:31:20Z</time>
      </trkpt>
      <trkpt lat="37.64135" lon="-8.23729">
        <ele>200.797</ele>
        <time>2019-10-15T02:31:40Z</time>
      </trkpt>
      <trkpt lat="37.6412" lon="-8.23803">
        <ele>201.293</ele>
        <time>2019-10-15T02:32:00Z</time>
      </trkpt>
      <trkpt lat="37.63994" lon="-8.24103">
        <ele>198.665</ele>
        <time>2019-10-15T02:32:20Z</time>
      </trkpt>
      <trkpt lat="37.63818" lon="-8.24574">
        <ele>180.221</ele>
        <time>2019-10-15T02:32:40Z</time>
      </trkpt>
      <trkpt lat="37.63778" lon="-8.24767">
        <ele>171.808</ele>
        <time>2019-10-15T02:33:00Z</time>
      </trkpt>
      <trkpt lat="37.63665" lon="-8.24933">
        <ele>174.563</ele>
        <time>2019-10-15T02:33:20Z</time>
      </trkpt>
      <trkpt lat="37.63601" lon="-8.25036">
        <ele>181.991</ele>
        <time>2019-10-15T02:33:40Z</time>
      </trkpt>
      <trkpt lat="37.63618" lon="-8.25135">
        <ele>185.523</ele>
        <time>2019-10-15T02:34:00Z</time>
      </trkpt>
      <trkpt lat="37.63515" lon="-8.25179">
        <ele>183.663</ele>
        <time>2019-10-15T02:34:20Z</time>
      </trkpt>
      <trkpt lat="37.63331" lon="-8.2533">
        <ele>176.325</ele>
        <time>2019-10-15T02:34:40Z</time>
      </trkpt>
      <trkpt lat="37.63037" lon="-8.25475">
        <ele>180.746</ele>
        <time>2019-10-15T02:35:00Z</time>
      </trkpt>
      <trkpt lat="37.62859" lon="-8.25787">
        <ele>194.758</ele>
        <time>2019-10-15T02:35:20Z</time>
      </trkpt>
      <trkpt lat="37.62725" lon="-8.26043">
        <ele>196.468</ele>
        <time>2019-10-15T02:35:40Z</time>
      </trkpt>
      <trkpt lat="37.62733" lon="-8.26067">
        <ele>196.813</ele>
        <time>2019-10-15T02:36:00Z</time>
      </trkpt>
      <trkpt lat="37.62807" lon="-8.26168">
        <ele>191.943</ele>
        <time>2019-10-15T02:36:20Z</time>
      </trkpt>
      <trkpt lat="37.62856" lon="-8.26334">
        <ele>188.707</ele>
        <time>2019-10-15T02:36:40Z</time>
      </trkpt>
      <trkpt lat="37.62919" lon="-8.26459">
        <ele>175.408</ele>
        <time>2019-10-15T02:37:00Z</time>
      </trkpt>
      <trkpt lat="37.62876" lon="-8.26576">
        <ele>170.775</ele>
        <time>2019-10-15T02:37:20Z</time>
      </trkpt>
      <trkpt lat="37.62775" lon="-8.26717">
        <ele>166.043</ele>
        <time>2019-10-15T02:37:40Z</time>
      </trkpt>
      <trkpt lat="37.62674" lon="-8.26839">
        <ele>172.435</ele>
        <time>2019-10-15T02:38:00Z</time>
      </trkpt>
      <trkpt lat="37.62669" lon="-8.26884">
        <ele>174.835</ele>
        <time>2019-10-15T02:38:20Z</time>
      </trkpt>
      <trkpt lat="37.62661" lon="-8.26976">
        <ele>173.097</ele>
        <time>2019-10-15T02:38:40Z</time>
      </trkpt>
      <trkpt lat="37.6268" lon="-8.2719">
        <ele>173.478</ele>
        <time>2019-10-15T02:39:00Z</time>
      </trkpt>
      <trkpt lat="37.62729" lon="-8.27302">
        <ele>174.28</ele>
        <time>2019-10-15T02:39:20Z</time>
      </trkpt>
      <trkpt lat="37.62765" lon="-8.27345">
        <ele>178.85</ele>
        <time>2019-10-15T02:39:40Z</time>
      </trkpt>
      <trkpt lat="37.62748" lon="-8.27441">
        <ele>177.016</ele>
        <time>2019-10-15T02:40:00Z</time>
      </trkpt>
      <trkpt lat="37.627" lon="-8.27653">
        <ele>178.176</ele>
        <time>2019-10-15T02:40:20Z</time>
      </trkpt>
      <trkpt lat="37.62705" lon="-8.27871">
        <ele>182.013</ele>
        <time>2019-10-15T02:40:40Z</time>
      </trkpt>
      <trkpt lat="37.62646" lon="-8.28035">
        <ele>188.508</ele>
        <time>2019-10-15T02:41:00Z</time>
      </trkpt>
      <trkpt lat="37.62631" lon="-8.28191">
        <ele>187.155</ele>
        <time>2019-10-15T02:41:20Z</time>
      </trkpt>
      <trkpt lat="37.62633" lon="-8.28201">
        <ele>187.233</ele>
        <time>2019-10-15T02:41:40Z</time>
      </trkpt>
      <trkpt lat="37.6253" lon="-8.28222">
        <ele>191.065</ele>
        <time>2019-10-15T02:42:00Z</time>
      </trkpt>
      <trkpt lat="37.62476" lon="-8.28158">
        <ele>196.775</ele>
        <time>2019-10-15T02:42:20Z</time>
      </trkpt>
      <trkpt lat="37.62461" lon="-8.28014">
        <ele>191.717</ele>
        <time>2019-10-15T02:42:40Z</time>
      </trkpt>
      <trkpt lat="37.62456" lon="-8.28004">
        <ele>190.938</ele>
        <time>2019-10-15T02:43:00Z</time>
      </trkpt>
      <trkpt lat="37.62196" lon="-8.27982">
        <ele>188.12</ele>
        <time>2019-10-15T02:43:20Z</time>
      </trkpt>
      <trkpt lat="37.62174" lon="-8.27983">
        <ele>186.17</ele>
        <time>2019-10-15T02:43:40Z</time>
      </trkpt>
      <trkpt lat="37.62103" lon="-8.28271">
        <ele>189.583</ele>
        <time>2019-10-15T02:44:00Z</time>
      </trkpt>
      <trkpt lat="37.6213" lon="-8.28521">
        <ele>196.725</ele>
        <time>2019-10-15T02:44:20Z</time>
      </trkpt>
      <trkpt lat="37.62075" lon="-8.28913">
        <ele>213.617</ele>
        <time>2019-10-15T02:44:40Z</time>
      </trkpt>
      <trkpt lat="37.6203" lon="-8.2905">
        <ele>221.308</ele>
        <time>2019-10-15T02:45:00Z</time>
      </trkpt>
      <trkpt lat="37.62099" lon="-8.29151">
        <ele>228.372</ele>
        <time>2019-10-15T02:45:20Z</time>
      </trkpt>
      <trkpt lat="37.62136" lon="-8.29216">
        <ele>224.67</ele>
        <time>2019-10-15T02:45:40Z</time>
      </trkpt>
      <trkpt lat="37.62144" lon="-8.29262">
        <ele>223.852</ele>
        <time>2019-10-15T02:46:00Z</time>
      </trkpt>
      <trkpt lat="37.62186" lon="-8.29538">
        <ele>229.122</ele>
        <time>2019-10-15T02:46:20Z</time>
      </trkpt>
      <trkpt lat="37.62226" lon="-8.29593">
        <ele>226.334</ele>
        <time>2019-10-15T02:46:40Z</time>
      </trkpt>
      <trkpt lat="37.62549" lon="-8.30009">
        <ele>230.575</ele>
        <time>2019-10-15T02:47:00Z</time>
      </trkpt>
      <trkpt lat="37.62556" lon="-8.30064">
        <ele>232.057</ele>
        <time>2019-10-15T02:47:20Z</time>
      </trkpt>
      <trkpt lat="37.62558" lon="-8.30097">
        <ele>231.437</ele>
        <time>2019-10-15T02:47:40Z</time>
      </trkpt>
      <trkpt lat="37.62558" lon="-8.301">
        <ele>231.332</ele>
        <time>2019-10-15T02:48:00Z</time>
      </trkpt>
      <trkpt lat="37.62561" lon="-8.30113">
        <ele>230.892</ele>
        <time>2019-10-15T02:48:20Z</time>
      </trkpt>
      <trkpt lat="37.62562" lon="-8.30127">
        <ele>230.811</ele>
        <time>2019-10-15T02:48:40Z</time>
      </trkpt>
      <trkpt lat="37.62567" lon="-8.30139">
        <ele>230.608</ele>
        <time>2019-10-15T02:49:00Z</time>
      </trkpt>
      <trkpt lat="37.62645" lon="-8.3026">
        <ele>231.477</ele>
        <time>2019-10-15T02:49:20Z</time>
      </trkpt>
      <trkpt lat="37.62721" lon="-8.30299">
        <ele>225.875</ele>
        <time>2019-10-15T02:49:40Z</time>
      </trkpt>
      <trkpt lat="37.62773" lon="-8.30374">
        <ele>226.747</ele>
        <time>2019-10-15T02:50:00Z</time>
      </trkpt>
      <trkpt lat="37.6289" lon="-8.30535">
        <ele>227.287</ele>
        <time>2019-10-15T02:50:20Z</time>
      </trkpt>
      <trkpt lat="37.6292" lon="-8.30597">
        <ele>229.229</ele>
        <time>2019-10-15T02:50:40Z</time>
      </trkpt>
      <trkpt lat="37.63086" lon="-8.30998">
        <ele>221.95</ele>
        <time>2019-10-15T02:51:00Z</time>
      </trkpt>
      <trkpt lat="37.63095" lon="-8.31036">
        <ele>223.172</ele>
        <time>2019-10-15T02:51:20Z</time>
      </trkpt>
      <trkpt lat="37.63054" lon="-8.31094">
        <ele>224.512</ele>
        <time>2019-10-15T02:51:40Z</time>
      </trkpt>
      <trkpt lat="37.63027" lon="-8.31151">
        <ele>221.447</ele>
        <time>2019-10-15T02:52:00Z</time>
      </trkpt>
      <trkpt lat="37.63062" lon="-8.31304">
        <ele>222.229</ele>
        <time>2019-10-15T02:52:20Z</time>
      </trkpt>
      <trkpt lat="37.63095" lon="-8.31474">
        <ele>226.321</ele>
        <time>2019-10-15T02:52:40Z</time>
      </trkpt>
      <trkpt lat="37.63078" lon="-8.31764">
        <ele>218.808</ele>
        <time>2019-10-15T02:53:00Z</time>
      </trkpt>
      <trkpt lat="37.63144" lon="-8.31911">
        <ele>227.998</ele>
        <time>2019-10-15T02:53:20Z</time>
      </trkpt>
      <trkpt lat="37.63312" lon="-8.32153">
        <ele>240.076</ele>
        <time>2019-10-15T02:53:40Z</time>
      </trkpt>
      <trkpt lat="37.63332" lon="-8.32284">
        <ele>238.218</ele>
        <time>2019-10-15T02:54:00Z</time>
      </trkpt>
      <trkpt lat="37.63418" lon="-8.32198">
        <ele>240.298</ele>
        <time>2019-10-15T02:54:20Z</time>
      </trkpt>
      <trkpt lat="37.63437" lon="-8.32184">
        <ele>240.26</ele>
        <time>2019-10-15T02:54:40Z</time>
      </trkpt>
      <trkpt lat="37.63493" lon="-8.32155">
        <ele>235.411</ele>
        <time>2019-10-15T02:55:00Z</time>
      </trkpt>
      <trkpt lat="37.6355" lon="-8.32121">
        <ele>230.543</ele>
        <time>2019-10-15T02:55:20Z</time>
      </trkpt>
      <trkpt lat="37.63564" lon="-8.32095">
        <ele>229.353</ele>
        <time>2019-10-15T02:55:40Z</time>
      </trkpt>
      <trkpt lat="37.63578" lon="-8.32067">
        <ele>229.966</ele>
        <time>2019-10-15T02:56:00Z</time>
      </trkpt>
      <trkpt lat="37.63619" lon="-8.31951">
        <ele>231.229</ele>
        <time>2019-10-15T02:56:20Z</time>
      </trkpt>
      <trkpt lat="37.63624" lon="-8.31923">
        <ele>231.021</ele>
        <time>2019-10-15T02:56:40Z</time>
      </trkpt>
      <trkpt lat="37.63642" lon="-8.31876">
        <ele>231.708</ele>
        <time>2019-10-15T02:57:00Z</time>
      </trkpt>
      <trkpt lat="37.63648" lon="-8.31867">
        <ele>232.48</ele>
        <time>2019-10-15T02:57:20Z</time>
      </trkpt>
      <trkpt lat="37.63676" lon="-8.31851">
        <ele>233.658</ele>
        <time>2019-10-15T02:57:40Z</time>
      </trkpt>
      <trkpt lat="37.63723" lon="-8.31844">
        <ele>232.36</ele>
        <time>2019-10-15T02:58:00Z</time>
      </trkpt>
      <trkpt lat="37.63783" lon="-8.3183">
        <ele>230.85</ele>
        <time>2019-10-15T02:58:20Z</time>
      </trkpt>
      <trkpt lat="37.6383" lon="-8.31828">
        <ele>227.112</ele>
        <time>2019-10-15T02:58:40Z</time>
      </trkpt>
      <trkpt lat="37.63887" lon="-8.31854">
        <ele>227.253</ele>
        <time>2019-10-15T02:59:00Z</time>
      </trkpt>
      <trkpt lat="37.63908" lon="-8.31859">
        <ele>226.495</ele>
        <time>2019-10-15T02:59:20Z</time>
      </trkpt>
      <trkpt lat="37.63958" lon="-8.31837">
        <ele>223.795</ele>
        <time>2019-10-15T02:59:40Z</time>
      </trkpt>
      <trkpt lat="37.64" lon="-8.31813">
        <ele>219.591</ele>
        <time>2019-10-15T03:00:00Z</time>
      </trkpt>
      <trkpt lat="37.64029" lon="-8.31787">
        <ele>219.081</ele>
        <time>2019-10-15T03:00:20Z</time>
      </trkpt>
      <trkpt lat="37.64055" lon="-8.31729">
        <ele>216.219</ele>
        <time>2019-10-15T03:00:40Z</time>
      </trkpt>
      <trkpt lat="37.64054" lon="-8.31716">
        <ele>216.108</ele>
        <time>2019-10-15T03:01:00Z</time>
      </trkpt>
      <trkpt lat="37.64047" lon="-8.31662">
        <ele>215.973</ele>
        <time>2019-10-15T03:01:20Z</time>
      </trkpt>
      <trkpt lat="37.6405" lon="-8.31596">
        <ele>212.341</ele>
        <time>2019-10-15T03:01:40Z</time>
      </trkpt>
      <trkpt lat="37.64058" lon="-8.31551">
        <ele>212.713</ele>
        <time>2019-10-15T03:02:00Z</time>
      </trkpt>
      <trkpt lat="37.64066" lon="-8.31504">
        <ele>208.963</ele>
        <time>2019-10-15T03:02:20Z</time>
      </trkpt>
      <trkpt lat="37.64075" lon="-8.3146">
        <ele>204.435</ele>
        <time>2019-10-15T03:02:40Z</time>
      </trkpt>
      <trkpt lat="37.64087" lon="-8.31427">
        <ele>202.676</ele>
        <time>2019-10-15T03:03:00Z</time>
      </trkpt>
      <trkpt lat="37.64092" lon="-8.31416">
        <ele>202.328</ele>
        <time>2019-10-15T03:03:20Z</time>
      </trkpt>
      <trkpt lat="37.64122" lon="-8.31384">
        <ele>200.768</ele>
        <time>2019-10-15T03:03:40Z</time>
      </trkpt>
      <trkpt lat="37.64133" lon="-8.31374">
        <ele>201.214</ele>
        <time>2019-10-15T03:04:00Z</time>
      </trkpt>
      <trkpt lat="37.64139" lon="-8.31369">
        <ele>201.354</ele>
        <time>2019-10-15T03:04:20Z</time>
      </trkpt>
      <trkpt lat="37.64146" lon="-8.31365">
        <ele>201.409</ele>
        <time>2019-10-15T03:04:40Z</time>
      </trkpt>
      <trkpt lat="37.64179" lon="-8.31382">
        <ele>202.308</ele>
        <time>2019-10-15T03:05:00Z</time>
      </trkpt>
      <trkpt lat="37.64191" lon="-8.31422">
        <ele>202.395</ele>
        <time>2019-10-15T03:05:20Z</time>
      </trkpt>
      <trkpt lat="37.64205" lon="-8.31446">
        <ele>200.273</ele>
        <time>2019-10-15T03:05:40Z</time>
      </trkpt>
      <trkpt lat="37.64208" lon="-8.3145">
        <ele>200.095</ele>
        <time>2019-10-15T03:06:00Z</time>
      </trkpt>
      <trkpt lat="37.64212" lon="-8.31454">
        <ele>199.685</ele>
        <time>2019-10-15T03:06:20Z</time>
      </trkpt>
      <trkpt lat="37.64218" lon="-8.31459">
        <ele>198.937</ele>
        <time>2019-10-15T03:06:40Z</time>
      </trkpt>
      <trkpt lat="37.64225" lon="-8.3146">
        <ele>198.168</ele>
        <time>2019-10-15T03:07:00Z</time>
      </trkpt>
      <trkpt lat="37.64231" lon="-8.31458">
        <ele>197.81</ele>
        <time>2019-10-15T03:07:20Z</time>
      </trkpt>
      <trkpt lat="37.64258" lon="-8.31447">
        <ele>196.36</ele>
        <time>2019-10-15T03:07:40Z</time>
      </trkpt>
      <trkpt lat="37.6428" lon="-8.31441">
        <ele>195.728</ele>
        <time>2019-10-15T03:08:00Z</time>
      </trkpt>
      <trkpt lat="37.64301" lon="-8.31431">
        <ele>193.889</ele>
        <time>2019-10-15T03:08:20Z</time>
      </trkpt>
      <trkpt lat="37.64362" lon="-8.31434">
        <ele>191.317</ele>
        <time>2019-10-15T03:08:40Z</time>
      </trkpt>
      <trkpt lat="37.64445" lon="-8.31434">
        <ele>189.308</ele>
        <time>2019-10-15T03:09:00Z</time>
      </trkpt>
      <trkpt lat="37.64488" lon="-8.31428">
        <ele>187.856</ele>
        <time>2019-10-15T03:09:20Z</time>
      </trkpt>
      <trkpt lat="37.64498" lon="-8.3143">
        <ele>187.574</ele>
        <time>2019-10-15T03:09:40Z</time>
      </trkpt>
      <trkpt lat="37.64641" lon="-8.31451">
        <ele>186.176</ele>
        <time>2019-10-15T03:10:00Z</time>
      </trkpt>
      <trkpt lat="37.64686" lon="-8.31466">
        <ele>184.166</ele>
        <time>2019-10-15T03:10:20Z</time>
      </trkpt>
      <trkpt lat="37.6471" lon="-8.31461">
        <ele>184.328</ele>
        <time>2019-10-15T03:10:40Z</time>
      </trkpt>
      <trkpt lat="37.64749" lon="-8.3142">
        <ele>185.119</ele>
        <time>2019-10-15T03:11:00Z</time>
      </trkpt>
      <trkpt lat="37.64797" lon="-8.31407">
        <ele>182.121</ele>
        <time>2019-10-15T03:11:20Z</time>
      </trkpt>
      <trkpt lat="37.64845" lon="-8.31416">
        <ele>182.281</ele>
        <time>2019-10-15T03:11:40Z</time>
      </trkpt>
      <trkpt lat="37.64862" lon="-8.31417">
        <ele>184.138</ele>
        <time>2019-10-15T03:12:00Z</time>
      </trkpt>
      <trkpt lat="37.64902" lon="-8.31428">
        <ele>186.07</ele>
        <time>2019-10-15T03:12:20Z</time>
      </trkpt>
      <trkpt lat="37.64943" lon="-8.31443">
        <ele>183.117</ele>
        <time>2019-10-15T03:12:40Z</time>
      </trkpt>
      <trkpt lat="37.64975" lon="-8.31447">
        <ele>182.108</ele>
        <time>2019-10-15T03:13:00Z</time>
      </trkpt>
      <trkpt lat="37.64991" lon="-8.3145">
        <ele>182.837</ele>
        <time>2019-10-15T03:13:20Z</time>
      </trkpt>
      <trkpt lat="37.65022" lon="-8.3145">
        <ele>184.885</ele>
        <time>2019-10-15T03:13:40Z</time>
      </trkpt>
      <trkpt lat="37.65077" lon="-8.31456">
        <ele>185.037</ele>
        <time>2019-10-15T03:14:00Z</time>
      </trkpt>
      <trkpt lat="37.65081" lon="-8.31457">
        <ele>185.047</ele>
        <time>2019-10-15T03:14:20Z</time>
      </trkpt>
      <trkpt lat="37.65089" lon="-8.31468">
        <ele>185.489</ele>
        <time>2019-10-15T03:14:40Z</time>
      </trkpt>
      <trkpt lat="37.65099" lon="-8.31505">
        <ele>187.11</ele>
        <time>2019-10-15T03:15:00Z</time>
      </trkpt>
      <trkpt lat="37.65119" lon="-8.31501">
        <ele>187.712</ele>
        <time>2019-10-15T03:15:20Z</time>
      </trkpt>
      <trkpt lat="37.65132" lon="-8.31483">
        <ele>187.622</ele>
        <time>2019-10-15T03:15:40Z</time>
      </trkpt>
      <trkpt lat="37.65141" lon="-8.31476">
        <ele>187.789</ele>
        <time>2019-10-15T03:16:00Z</time>
      </trkpt>
      <trkpt lat="37.65184" lon="-8.31504">
        <ele>182.406</ele>
        <time>2019-10-15T03:16:20Z</time>
      </trkpt>
      <trkpt lat="37.65193" lon="-8.31516">
        <ele>181.126</ele>
        <time>2019-10-15T03:16:40Z</time>
      </trkpt>
      <trkpt lat="37.65219" lon="-8.3152">
        <ele>178.908</ele>
        <time>2019-10-15T03:17:00Z</time>
      </trkpt>
      <trkpt lat="37.65223" lon="-8.31517">
        <ele>178.842</ele>
        <time>2019-10-15T03:17:20Z</time>
      </trkpt>
      <trkpt lat="37.65225" lon="-8.31513">
        <ele>178.83</ele>
        <time>2019-10-15T03:17:40Z</time>
      </trkpt>
      <trkpt lat="37.65227" lon="-8.31508">
        <ele>179.052</ele>
        <time>2019-10-15T03:18:00Z</time>
      </trkpt>
      <trkpt lat="37.65228" lon="-8.31505">
        <ele>179.022</ele>
        <time>2019-10-15T03:18:20Z</time>
      </trkpt>
      <trkpt lat="37.6523" lon="-8.31503">
        <ele>179.044</ele>
        <time>2019-10-15T03:18:40Z</time>
      </trkpt>
      <trkpt lat="37.65234" lon="-8.315">
        <ele>178.735</ele>
        <time>2019-10-15T03:19:00Z</time>
      </trkpt>
      <trkpt lat="37.6524" lon="-8.31498">
        <ele>178.237</ele>
        <time>2019-10-15T03:19:20Z</time>
      </trkpt>
      <trkpt lat="37.65248" lon="-8.31497">
        <ele>177.387</ele>
        <time>2019-10-15T03:19:40Z</time>
      </trkpt>
      <trkpt lat="37.65257" lon="-8.315">
        <ele>176.525</ele>
        <time>2019-10-15T03:20:00Z</time>
      </trkpt>
      <trkpt lat="37.65266" lon="-8.31503">
        <ele>175.926</ele>
        <time>2019-10-15T03:20:20Z</time>
      </trkpt>
      <trkpt lat="37.65275" lon="-8.31507">
        <ele>175.608</ele>
        <time>2019-10-15T03:20:40Z</time>
      </trkpt>
      <trkpt lat="37.65284" lon="-8.31509">
        <ele>176.208</ele>
        <time>2019-10-15T03:21:00Z</time>
      </trkpt>
      <trkpt lat="37.65292" lon="-8.31509">
        <ele>176.826</ele>
        <time>2019-10-15T03:21:20Z</time>
      </trkpt>
      <trkpt lat="37.653" lon="-8.31507">
        <ele>177.314</ele>
        <time>2019-10-15T03:21:40Z</time>
      </trkpt>
      <trkpt lat="37.65362" lon="-8.31468">
        <ele>183.726</ele>
        <time>2019-10-15T03:22:00Z</time>
      </trkpt>
      <trkpt lat="37.65379" lon="-8.31458">
        <ele>184.286</ele>
        <time>2019-10-15T03:22:20Z</time>
      </trkpt>
      <trkpt lat="37.65396" lon="-8.31451">
        <ele>184.068</ele>
        <time>2019-10-15T03:22:40Z</time>
      </trkpt>
      <trkpt lat="37.65405" lon="-8.31448">
        <ele>183.199</ele>
        <time>2019-10-15T03:23:00Z</time>
      </trkpt>
      <trkpt lat="37.65413" lon="-8.31447">
        <ele>182.571</ele>
        <time>2019-10-15T03:23:20Z</time>
      </trkpt>
      <trkpt lat="37.65428" lon="-8.31449">
        <ele>181.181</ele>
        <time>2019-10-15T03:23:40Z</time>
      </trkpt>
      <trkpt lat="37.65435" lon="-8.3145">
        <ele>180.314</ele>
        <time>2019-10-15T03:24:00Z</time>
      </trkpt>
      <trkpt lat="37.65443" lon="-8.31449">
        <ele>179.554</ele>
        <time>2019-10-15T03:24:20Z</time>
      </trkpt>
      <trkpt lat="37.65451" lon="-8.3145">
        <ele>179.209</ele>
        <time>2019-10-15T03:24:40Z</time>
      </trkpt>
      <trkpt lat="37.65459" lon="-8.31453">
        <ele>179.208</ele>
        <time>2019-10-15T03:25:00Z</time>
      </trkpt>
      <trkpt lat="37.65466" lon="-8.31459">
        <ele>179.715</ele>
        <time>2019-10-15T03:25:20Z</time>
      </trkpt>
      <trkpt lat="37.65472" lon="-8.31467">
        <ele>180.423</ele>
        <time>2019-10-15T03:25:40Z</time>
      </trkpt>
      <trkpt lat="37.6551" lon="-8.31522">
        <ele>181.095</ele>
        <time>2019-10-15T03:26:00Z</time>
      </trkpt>
      <trkpt lat="37.65518" lon="-8.31533">
        <ele>181.015</ele>
        <time>2019-10-15T03:26:20Z</time>
      </trkpt>
      <trkpt lat="37.65526" lon="-8.31543">
        <ele>181.227</ele>
        <time>2019-10-15T03:26:40Z</time>
      </trkpt>
      <trkpt lat="37.65554" lon="-8.31563">
        <ele>183.298</ele>
        <time>2019-10-15T03:27:00Z</time>
      </trkpt>
      <trkpt lat="37.65564" lon="-8.31567">
        <ele>183.77</ele>
        <time>2019-10-15T03:27:20Z</time>
      </trkpt>
      <trkpt lat="37.65585" lon="-8.31572">
        <ele>184.62</ele>
        <time>2019-10-15T03:27:40Z</time>
      </trkpt>
      <trkpt lat="37.65669" lon="-8.31597">
        <ele>187.124</ele>
        <time>2019-10-15T03:28:00Z</time>
      </trkpt>
      <trkpt lat="37.65677" lon="-8.31601">
        <ele>187.404</ele>
        <time>2019-10-15T03:28:20Z</time>
      </trkpt>
      <trkpt lat="37.65743" lon="-8.31639">
        <ele>188.014</ele>
        <time>2019-10-15T03:28:40Z</time>
      </trkpt>
      <trkpt lat="37.65753" lon="-8.31643">
        <ele>188.308</ele>
        <time>2019-10-15T03:29:00Z</time>
      </trkpt>
      <trkpt lat="37.65771" lon="-8.31647">
        <ele>189.626</ele>
        <time>2019-10-15T03:29:20Z</time>
      </trkpt>
      <trkpt lat="37.65835" lon="-8.31659">
        <ele>186.514</ele>
        <time>2019-10-15T03:29:40Z</time>
      </trkpt>
      <trkpt lat="37.65844" lon="-8.31661">
        <ele>186.096</ele>
        <time>2019-10-15T03:30:00Z</time>
      </trkpt>
      <trkpt lat="37.65852" lon="-8.31662">
        <ele>185.696</ele>
        <time>2019-10-15T03:30:20Z</time>
      </trkpt>
      <trkpt lat="37.65859" lon="-8.31661">
        <ele>185.318</ele>
        <time>2019-10-15T03:30:40Z</time>
      </trkpt>
      <trkpt lat="37.65866" lon="-8.31658">
        <ele>185.329</ele>
        <time>2019-10-15T03:31:00Z</time>
      </trkpt>
      <trkpt lat="37.65871" lon="-8.31652">
        <ele>185.531</ele>
        <time>2019-10-15T03:31:20Z</time>
      </trkpt>
      <trkpt lat="37.65881" lon="-8.31626">
        <ele>187.451</ele>
        <time>2019-10-15T03:31:40Z</time>
      </trkpt>
      <trkpt lat="37.65884" lon="-8.31617">
        <ele>188.359</ele>
        <time>2019-10-15T03:32:00Z</time>
      </trkpt>
      <trkpt lat="37.65886" lon="-8.31609">
        <ele>189.303</ele>
        <time>2019-10-15T03:32:20Z</time>
      </trkpt>
      <trkpt lat="37.65888" lon="-8.31602">
        <ele>190.323</ele>
        <time>2019-10-15T03:32:40Z</time>
      </trkpt>
      <trkpt lat="37.65892" lon="-8.31598">
        <ele>190.908</ele>
        <time>2019-10-15T03:33:00Z</time>
      </trkpt>
      <trkpt lat="37.65896" lon="-8.31598">
        <ele>190.969</ele>
        <time>2019-10-15T03:33:20Z</time>
      </trkpt>
      <trkpt lat="37.65902" lon="-8.31602">
        <ele>190.467</ele>
        <time>2019-10-15T03:33:40Z</time>
      </trkpt>
      <trkpt lat="37.65925" lon="-8.31625">
        <ele>188.339</ele>
        <time>2019-10-15T03:34:00Z</time>
      </trkpt>
      <trkpt lat="37.65959" lon="-8.31658">
        <ele>185.689</ele>
        <time>2019-10-15T03:34:20Z</time>
      </trkpt>
      <trkpt lat="37.65994" lon="-8.3169">
        <ele>183.531</ele>
        <time>2019-10-15T03:34:40Z</time>
      </trkpt>
      <trkpt lat="37.66003" lon="-8.31697">
        <ele>182.992</ele>
        <time>2019-10-15T03:35:00Z</time>
      </trkpt>
      <trkpt lat="37.66011" lon="-8.31703">
        <ele>182.714</ele>
        <time>2019-10-15T03:35:20Z</time>
      </trkpt>
      <trkpt lat="37.66019" lon="-8.31709">
        <ele>182.514</ele>
        <time>2019-10-15T03:35:40Z</time>
      </trkpt>
      <trkpt lat="37.66028" lon="-8.31714">
        <ele>182.334</ele>
        <time>2019-10-15T03:36:00Z</time>
      </trkpt>
      <trkpt lat="37.66049" lon="-8.31719">
        <ele>182.055</ele>
        <time>2019-10-15T03:36:20Z</time>
      </trkpt>
      <trkpt lat="37.6607" lon="-8.31721">
        <ele>181.51</ele>
        <time>2019-10-15T03:36:40Z</time>
      </trkpt>
      <trkpt lat="37.66092" lon="-8.31725">
        <ele>180.808</ele>
        <time>2019-10-15T03:37:00Z</time>
      </trkpt>
      <trkpt lat="37.66104" lon="-8.31727">
        <ele>180.337</ele>
        <time>2019-10-15T03:37:20Z</time>
      </trkpt>
      <trkpt lat="37.6614" lon="-8.31731">
        <ele>180.385</ele>
        <time>2019-10-15T03:37:40Z</time>
      </trkpt>
      <trkpt lat="37.66163" lon="-8.31732">
        <ele>180.467</ele>
        <time>2019-10-15T03:38:00Z</time>
      </trkpt>
      <trkpt lat="37.66183" lon="-8.31735">
        <ele>180.797</ele>
        <time>2019-10-15T03:38:20Z</time>
      </trkpt>
      <trkpt lat="37.66274" lon="-8.31734">
        <ele>176.969</ele>
        <time>2019-10-15T03:38:40Z</time>
      </trkpt>
      <trkpt lat="37.66285" lon="-8.31735">
        <ele>177.69</ele>
        <time>2019-10-15T03:39:00Z</time>
      </trkpt>
      <trkpt lat="37.66321" lon="-8.31749">
        <ele>182.192</ele>
        <time>2019-10-15T03:39:20Z</time>
      </trkpt>
      <trkpt lat="37.66329" lon="-8.31752">
        <ele>182.752</ele>
        <time>2019-10-15T03:39:40Z</time>
      </trkpt>
      <trkpt lat="37.66375" lon="-8.31753">
        <ele>182.054</ele>
        <time>2019-10-15T03:40:00Z</time>
      </trkpt>
      <trkpt lat="37.66384" lon="-8.31752">
        <ele>182.056</ele>
        <time>2019-10-15T03:40:20Z</time>
      </trkpt>
      <trkpt lat="37.66401" lon="-8.31748">
        <ele>181.011</ele>
        <time>2019-10-15T03:40:40Z</time>
      </trkpt>
      <trkpt lat="37.6643" lon="-8.31742">
        <ele>178.308</ele>
        <time>2019-10-15T03:41:00Z</time>
      </trkpt>
      <trkpt lat="37.66484" lon="-8.31738">
        <ele>175.849</ele>
        <time>2019-10-15T03:41:20Z</time>
      </trkpt>
      <trkpt lat="37.66494" lon="-8.31737">
        <ele>175.677</ele>
        <time>2019-10-15T03:41:40Z</time>
      </trkpt>
      <trkpt lat="37.66529" lon="-8.31739">
        <ele>175.819</ele>
        <time>2019-10-15T03:42:00Z</time>
      </trkpt>
      <trkpt lat="37.666" lon="-8.3175">
        <ele>177.459</ele>
        <time>2019-10-15T03:42:20Z</time>
      </trkpt>
      <trkpt lat="37.6662" lon="-8.31751">
        <ele>176.411</ele>
        <time>2019-10-15T03:42:40Z</time>
      </trkpt>
      <trkpt lat="37.6671" lon="-8.31761">
        <ele>169.592</ele>
        <time>2019-10-15T03:43:00Z</time>
      </trkpt>
      <trkpt lat="37.66732" lon="-8.31762">
        <ele>168.254</ele>
        <time>2019-10-15T03:43:20Z</time>
      </trkpt>
      <trkpt lat="37.66786" lon="-8.31767">
        <ele>166.064</ele>
        <time>2019-10-15T03:43:40Z</time>
      </trkpt>
      <trkpt lat="37.66804" lon="-8.31771">
        <ele>165.193</ele>
        <time>2019-10-15T03:44:00Z</time>
      </trkpt>
      <trkpt lat="37.66827" lon="-8.31771">
        <ele>165.865</ele>
        <time>2019-10-15T03:44:20Z</time>
      </trkpt>
      <trkpt lat="37.66944" lon="-8.31785">
        <ele>165.221</ele>
        <time>2019-10-15T03:44:40Z</time>
      </trkpt>
      <trkpt lat="37.66996" lon="-8.31797">
        <ele>166.608</ele>
        <time>2019-10-15T03:45:00Z</time>
      </trkpt>
      <trkpt lat="37.67005" lon="-8.318">
        <ele>166.843</ele>
        <time>2019-10-15T03:45:20Z</time>
      </trkpt>
      <trkpt lat="37.67014" lon="-8.31801">
        <ele>166.721</ele>
        <time>2019-10-15T03:45:40Z</time>
      </trkpt>
      <trkpt lat="37.67087" lon="-8.31801">
        <ele>167.143</ele>
        <time>2019-10-15T03:46:00Z</time>
      </trkpt>
      <trkpt lat="37.67094" lon="-8.31803">
        <ele>167.483</ele>
        <time>2019-10-15T03:46:20Z</time>
      </trkpt>
      <trkpt lat="37.671" lon="-8.31806">
        <ele>167.655</ele>
        <time>2019-10-15T03:46:40Z</time>
      </trkpt>
      <trkpt lat="37.67105" lon="-8.31807">
        <ele>167.816</ele>
        <time>2019-10-15T03:47:00Z</time>
      </trkpt>
      <trkpt lat="37.6711" lon="-8.31806">
        <ele>168.078</ele>
        <time>2019-10-15T03:47:20Z</time>
      </trkpt>
      <trkpt lat="37.67115" lon="-8.31803">
        <ele>168.238</ele>
        <time>2019-10-15T03:47:40Z</time>
      </trkpt>
      <trkpt lat="37.67134" lon="-8.31783">
        <ele>169.033</ele>
        <time>2019-10-15T03:48:00Z</time>
      </trkpt>
      <trkpt lat="37.67139" lon="-8.31779">
        <ele>169.023</ele>
        <time>2019-10-15T03:48:20Z</time>
      </trkpt>
      <trkpt lat="37.67143" lon="-8.31774">
        <ele>168.915</ele>
        <time>2019-10-15T03:48:40Z</time>
      </trkpt>
      <trkpt lat="37.67147" lon="-8.3177">
        <ele>168.808</ele>
        <time>2019-10-15T03:49:00Z</time>
      </trkpt>
      <trkpt lat="37.67151" lon="-8.31766">
        <ele>168.797</ele>
        <time>2019-10-15T03:49:20Z</time>
      </trkpt>
      <trkpt lat="37.67154" lon="-8.31761">
        <ele>168.775</ele>
        <time>2019-10-15T03:49:40Z</time>
      </trkpt>
      <trkpt lat="37.67163" lon="-8.31743">
        <ele>168.717</ele>
        <time>2019-10-15T03:50:00Z</time>
      </trkpt>
      <trkpt lat="37.67183" lon="-8.31707">
        <ele>169.417</ele>
        <time>2019-10-15T03:50:20Z</time>
      </trkpt>
      <trkpt lat="37.67185" lon="-8.31702">
        <ele>169.639</ele>
        <time>2019-10-15T03:50:40Z</time>
      </trkpt>
      <trkpt lat="37.67188" lon="-8.31697">
        <ele>169.72</ele>
        <time>2019-10-15T03:51:00Z</time>
      </trkpt>
      <trkpt lat="37.6719" lon="-8.31692">
        <ele>169.832</ele>
        <time>2019-10-15T03:51:20Z</time>
      </trkpt>
      <trkpt lat="37.67193" lon="-8.31688">
        <ele>169.742</ele>
        <time>2019-10-15T03:51:40Z</time>
      </trkpt>
      <trkpt lat="37.67196" lon="-8.31685">
        <ele>169.672</ele>
        <time>2019-10-15T03:52:00Z</time>
      </trkpt>
      <trkpt lat="37.67199" lon="-8.31682">
        <ele>169.313</ele>
        <time>2019-10-15T03:52:20Z</time>
      </trkpt>
      <trkpt lat="37.67204" lon="-8.31678">
        <ele>168.914</ele>
        <time>2019-10-15T03:52:40Z</time>
      </trkpt>
      <trkpt lat="37.67209" lon="-8.31673">
        <ele>168.608</ele>
        <time>2019-10-15T03:53:00Z</time>
      </trkpt>
      <trkpt lat="37.67213" lon="-8.31666">
        <ele>168.351</ele>
        <time>2019-10-15T03:53:20Z</time>
      </trkpt>
      <trkpt lat="37.67226" lon="-8.31631">
        <ele>168.579</ele>
        <time>2019-10-15T03:53:40Z</time>
      </trkpt>
      <trkpt lat="37.67256" lon="-8.31557">
        <ele>165.721</ele>
        <time>2019-10-15T03:54:00Z</time>
      </trkpt>
      <trkpt lat="37.67277" lon="-8.31502">
        <ele>160.121</ele>
        <time>2019-10-15T03:54:20Z</time>
      </trkpt>
      <trkpt lat="37.67293" lon="-8.3146">
        <ele>160.663</ele>
        <time>2019-10-15T03:54:40Z</time>
      </trkpt>
      <trkpt lat="37.67314" lon="-8.31405">
        <ele>160.464</ele>
        <time>2019-10-15T03:55:00Z</time>
      </trkpt>
      <trkpt lat="37.67337" lon="-8.31343">
        <ele>157.136</ele>
        <time>2019-10-15T03:55:20Z</time>
      </trkpt>
      <trkpt lat="37.67383" lon="-8.31219">
        <ele>154.656</ele>
        <time>2019-10-15T03:55:40Z</time>
      </trkpt>
      <trkpt lat="37.67387" lon="-8.31208">
        <ele>154.071</ele>
        <time>2019-10-15T03:56:00Z</time>
      </trkpt>
      <trkpt lat="37.67395" lon="-8.31185">
        <ele>153.041</ele>
        <time>2019-10-15T03:56:20Z</time>
      </trkpt>
      <trkpt lat="37.674" lon="-8.31174">
        <ele>152.715</ele>
        <time>2019-10-15T03:56:40Z</time>
      </trkpt>
      <trkpt lat="37.67404" lon="-8.31163">
        <ele>152.408</ele>
        <time>2019-10-15T03:57:00Z</time>
      </trkpt>
      <trkpt lat="37.67409" lon="-8.31153">
        <ele>152.061</ele>
        <time>2019-10-15T03:57:20Z</time>
      </trkpt>
      <trkpt lat="37.67416" lon="-8.31144">
        <ele>151.469</ele>
        <time>2019-10-15T03:57:40Z</time>
      </trkpt>
      <trkpt lat="37.67423" lon="-8.31138">
        <ele>151.391</ele>
        <time>2019-10-15T03:58:00Z</time>
      </trkpt>
      <trkpt lat="37.67432" lon="-8.31133">
        <ele>151.751</ele>
        <time>2019-10-15T03:58:20Z</time>
      </trkpt>
      <trkpt lat="37.67488" lon="-8.31108">
        <ele>151.563</ele>
        <time>2019-10-15T03:58:40Z</time>
      </trkpt>
      <trkpt lat="37.67523" lon="-8.31096">
        <ele>150.644</ele>
        <time>2019-10-15T03:59:00Z</time>
      </trkpt>
      <trkpt lat="37.67633" lon="-8.31051">
        <ele>147.316</ele>
        <time>2019-10-15T03:59:20Z</time>
      </trkpt>
      <trkpt lat="37.67736" lon="-8.31005">
        <ele>147.686</ele>
        <time>2019-10-15T03:59:40Z</time>
      </trkpt>
      <trkpt lat="37.67764" lon="-8.30989">
        <ele>146.865</ele>
        <time>2019-10-15T04:00:00Z</time>
      </trkpt>
      <trkpt lat="37.67773" lon="-8.30984">
        <ele>146.968</ele>
        <time>2019-10-15T04:00:20Z</time>
      </trkpt>
      <trkpt lat="37.67782" lon="-8.30981">
        <ele>147.214</ele>
        <time>2019-10-15T04:00:40Z</time>
      </trkpt>
      <trkpt lat="37.67854" lon="-8.30984">
        <ele>146.808</ele>
        <time>2019-10-15T04:01:00Z</time>
      </trkpt>
      <trkpt lat="37.6796" lon="-8.3099">
        <ele>145.18</ele>
        <time>2019-10-15T04:01:20Z</time>
      </trkpt>
      <trkpt lat="37.67969" lon="-8.30993">
        <ele>144.758</ele>
        <time>2019-10-15T04:01:40Z</time>
      </trkpt>
      <trkpt lat="37.67978" lon="-8.30996">
        <ele>144.79</ele>
        <time>2019-10-15T04:02:00Z</time>
      </trkpt>
      <trkpt lat="37.68" lon="-8.31016">
        <ele>146.88</ele>
        <time>2019-10-15T04:02:20Z</time>
      </trkpt>
      <trkpt lat="37.68059" lon="-8.31075">
        <ele>151.382</ele>
        <time>2019-10-15T04:02:40Z</time>
      </trkpt>
      <trkpt lat="37.68078" lon="-8.31098">
        <ele>151.213</ele>
        <time>2019-10-15T04:03:00Z</time>
      </trkpt>
      <trkpt lat="37.68117" lon="-8.31141">
        <ele>151.985</ele>
        <time>2019-10-15T04:03:20Z</time>
      </trkpt>
      <trkpt lat="37.68124" lon="-8.31146">
        <ele>151.635</ele>
        <time>2019-10-15T04:03:40Z</time>
      </trkpt>
      <trkpt lat="37.68159" lon="-8.31153">
        <ele>149.992</ele>
        <time>2019-10-15T04:04:00Z</time>
      </trkpt>
      <trkpt lat="37.68172" lon="-8.31152">
        <ele>149.073</ele>
        <time>2019-10-15T04:04:20Z</time>
      </trkpt>
      <trkpt lat="37.68224" lon="-8.31145">
        <ele>145.42</ele>
        <time>2019-10-15T04:04:40Z</time>
      </trkpt>
      <trkpt lat="37.68242" lon="-8.31143">
        <ele>146.508</ele>
        <time>2019-10-15T04:05:00Z</time>
      </trkpt>
      <trkpt lat="37.68275" lon="-8.31139">
        <ele>148.813</ele>
        <time>2019-10-15T04:05:20Z</time>
      </trkpt>
      <trkpt lat="37.68296" lon="-8.31137">
        <ele>149.731</ele>
        <time>2019-10-15T04:05:40Z</time>
      </trkpt>
      <trkpt lat="37.68302" lon="-8.31137">
        <ele>149.933</ele>
        <time>2019-10-15T04:06:00Z</time>
      </trkpt>
      <trkpt lat="37.68307" lon="-8.31136">
        <ele>149.913</ele>
        <time>2019-10-15T04:06:20Z</time>
      </trkpt>
      <trkpt lat="37.68312" lon="-8.31134">
        <ele>149.825</ele>
        <time>2019-10-15T04:06:40Z</time>
      </trkpt>
      <trkpt lat="37.68314" lon="-8.31131">
        <ele>149.846</ele>
        <time>2019-10-15T04:07:00Z</time>
      </trkpt>
      <trkpt lat="37.68316" lon="-8.31127">
        <ele>149.828</ele>
        <time>2019-10-15T04:07:20Z</time>
      </trkpt>
      <trkpt lat="37.68315" lon="-8.31123">
        <ele>149.918</ele>
        <time>2019-10-15T04:07:40Z</time>
      </trkpt>
      <trkpt lat="37.68309" lon="-8.3111">
        <ele>150.027</ele>
        <time>2019-10-15T04:08:00Z</time>
      </trkpt>
      <trkpt lat="37.68299" lon="-8.31093">
        <ele>149.468</ele>
        <time>2019-10-15T04:08:20Z</time>
      </trkpt>
      <trkpt lat="37.68289" lon="-8.31075">
        <ele>149.414</ele>
        <time>2019-10-15T04:08:40Z</time>
      </trkpt>
      <trkpt lat="37.68272" lon="-8.31043">
        <ele>147.908</ele>
        <time>2019-10-15T04:09:00Z</time>
      </trkpt>
      <trkpt lat="37.68269" lon="-8.31038">
        <ele>147.456</ele>
        <time>2019-10-15T04:09:20Z</time>
      </trkpt>
      <trkpt lat="37.68266" lon="-8.31033">
        <ele>147.044</ele>
        <time>2019-10-15T04:09:40Z</time>
      </trkpt>
      <trkpt lat="37.68265" lon="-8.31023">
        <ele>146.446</ele>
        <time>2019-10-15T04:10:00Z</time>
      </trkpt>
      <trkpt lat="37.68269" lon="-8.3102">
        <ele>146.556</ele>
        <time>2019-10-15T04:10:20Z</time>
      </trkpt>
      <trkpt lat="37.683" lon="-8.31">
        <ele>146.078</ele>
        <time>2019-10-15T04:10:40Z</time>
      </trkpt>
      <trkpt lat="37.68329" lon="-8.30984">
        <ele>146.889</ele>
        <time>2019-10-15T04:11:00Z</time>
      </trkpt>
      <trkpt lat="37.68341" lon="-8.30977">
        <ele>147.061</ele>
        <time>2019-10-15T04:11:20Z</time>
      </trkpt>
      <trkpt lat="37.68417" lon="-8.30917">
        <ele>149.081</ele>
        <time>2019-10-15T04:11:40Z</time>
      </trkpt>
      <trkpt lat="37.68444" lon="-8.30914">
        <ele>149.923</ele>
        <time>2019-10-15T04:12:00Z</time>
      </trkpt>
      <trkpt lat="37.68458" lon="-8.30915">
        <ele>150.083</ele>
        <time>2019-10-15T04:12:20Z</time>
      </trkpt>
      <trkpt lat="37.68486" lon="-8.30921">
        <ele>149.811</ele>
        <time>2019-10-15T04:12:40Z</time>
      </trkpt>
      <trkpt lat="37.68506" lon="-8.30924">
        <ele>149.808</ele>
        <time>2019-10-15T04:13:00Z</time>
      </trkpt>
      <trkpt lat="37.68519" lon="-8.30927">
        <ele>150.256</ele>
        <time>2019-10-15T04:13:20Z</time>
      </trkpt>
      <trkpt lat="37.68538" lon="-8.30928">
        <ele>151.114</ele>
        <time>2019-10-15T04:13:40Z</time>
      </trkpt>
      <trkpt lat="37.68532" lon="-8.30891">
        <ele>151.936</ele>
        <time>2019-10-15T04:14:00Z</time>
      </trkpt>
      <trkpt lat="37.68522" lon="-8.30846">
        <ele>152.116</ele>
        <time>2019-10-15T04:14:20Z</time>
      </trkpt>
      <trkpt lat="37.68517" lon="-8.3081">
        <ele>150.448</ele>
        <time>2019-10-15T04:14:40Z</time>
      </trkpt>
      <trkpt lat="37.68505" lon="-8.30746">
        <ele>147.789</ele>
        <time>2019-10-15T04:15:00Z</time>
      </trkpt>
      <trkpt lat="37.68502" lon="-8.30731">
        <ele>147.271</ele>
        <time>2019-10-15T04:15:20Z</time>
      </trkpt>
      <trkpt lat="37.68494" lon="-8.30689">
        <ele>145.821</ele>
        <time>2019-10-15T04:15:40Z</time>
      </trkpt>
      <trkpt lat="37.68482" lon="-8.30641">
        <ele>144.415</ele>
        <time>2019-10-15T04:16:00Z</time>
      </trkpt>
      <trkpt lat="37.68456" lon="-8.30544">
        <ele>141.665</ele>
        <time>2019-10-15T04:16:20Z</time>
      </trkpt>
      <trkpt lat="37.68442" lon="-8.30508">
        <ele>141.911</ele>
        <time>2019-10-15T04:16:40Z</time>
      </trkpt>
      <trkpt lat="37.68436" lon="-8.30482">
        <ele>140.008</ele>
        <time>2019-10-15T04:17:00Z</time>
      </trkpt>
      <trkpt lat="37.68434" lon="-8.30466">
        <ele>138.785</ele>
        <time>2019-10-15T04:17:20Z</time>
      </trkpt>
      <trkpt lat="37.68433" lon="-8.30459">
        <ele>138.413</ele>
        <time>2019-10-15T04:17:40Z</time>
      </trkpt>
      <trkpt lat="37.68462" lon="-8.30418">
        <ele>136.455</ele>
        <time>2019-10-15T04:18:00Z</time>
      </trkpt>
      <trkpt lat="37.68549" lon="-8.30402">
        <ele>139.015</ele>
        <time>2019-10-15T04:18:20Z</time>
      </trkpt>
      <trkpt lat="37.68618" lon="-8.3037">
        <ele>137.317</ele>
        <time>2019-10-15T04:18:40Z</time>
      </trkpt>
      <trkpt lat="37.68668" lon="-8.30304">
        <ele>135.158</ele>
        <time>2019-10-15T04:19:00Z</time>
      </trkpt>
      <trkpt lat="37.68677" lon="-8.30295">
        <ele>135.89</ele>
        <time>2019-10-15T04:19:20Z</time>
      </trkpt>
      <trkpt lat="37.68727" lon="-8.30248">
        <ele>136.17</ele>
        <time>2019-10-15T04:19:40Z</time>
      </trkpt>
      <trkpt lat="37.68747" lon="-8.30222">
        <ele>135.032</ele>
        <time>2019-10-15T04:20:00Z</time>
      </trkpt>
      <trkpt lat="37.68786" lon="-8.30183">
        <ele>135.592</ele>
        <time>2019-10-15T04:20:20Z</time>
      </trkpt>
      <trkpt lat="37.68816" lon="-8.30156">
        <ele>135.711</ele>
        <time>2019-10-15T04:20:40Z</time>
      </trkpt>
      <trkpt lat="37.68827" lon="-8.30142">
        <ele>135.808</ele>
        <time>2019-10-15T04:21:00Z</time>
      </trkpt>
      <trkpt lat="37.68845" lon="-8.30123">
        <ele>136.257</ele>
        <time>2019-10-15T04:21:20Z</time>
      </trkpt>
      <trkpt lat="37.68881" lon="-8.30086">
        <ele>136.055</ele>
        <time>2019-10-15T04:21:40Z</time>
      </trkpt>
      <trkpt lat="37.68893" lon="-8.3008">
        <ele>136.087</ele>
        <time>2019-10-15T04:22:00Z</time>
      </trkpt>
      <trkpt lat="37.68965" lon="-8.30035">
        <ele>137.327</ele>
        <time>2019-10-15T04:22:20Z</time>
      </trkpt>
      <trkpt lat="37.69028" lon="-8.3">
        <ele>136.089</ele>
        <time>2019-10-15T04:22:40Z</time>
      </trkpt>
      <trkpt lat="37.69053" lon="-8.29973">
        <ele>134.05</ele>
        <time>2019-10-15T04:23:00Z</time>
      </trkpt>
      <trkpt lat="37.69061" lon="-8.29954">
        <ele>133.522</ele>
        <time>2019-10-15T04:23:20Z</time>
      </trkpt>
      <trkpt lat="37.69076" lon="-8.29933">
        <ele>133.322</ele>
        <time>2019-10-15T04:23:40Z</time>
      </trkpt>
      <trkpt lat="37.69099" lon="-8.29936">
        <ele>134.865</ele>
        <time>2019-10-15T04:24:00Z</time>
      </trkpt>
      <trkpt lat="37.69129" lon="-8.30037">
        <ele>137.068</ele>
        <time>2019-10-15T04:24:20Z</time>
      </trkpt>
      <trkpt lat="37.69154" lon="-8.30122">
        <ele>134.914</ele>
        <time>2019-10-15T04:24:40Z</time>
      </trkpt>
      <trkpt lat="37.69156" lon="-8.30125">
        <ele>135.008</ele>
        <time>2019-10-15T04:25:00Z</time>
      </trkpt>
      <trkpt lat="37.69158" lon="-8.30127">
        <ele>135.27</ele>
        <time>2019-10-15T04:25:20Z</time>
      </trkpt>
      <trkpt lat="37.6916" lon="-8.30127">
        <ele>135.428</ele>
        <time>2019-10-15T04:25:40Z</time>
      </trkpt>
      <trkpt lat="37.69162" lon="-8.30127">
        <ele>135.55</ele>
        <time>2019-10-15T04:26:00Z</time>
      </trkpt>
      <trkpt lat="37.69171" lon="-8.3012">
        <ele>136.25</ele>
        <time>2019-10-15T04:26:20Z</time>
      </trkpt>
      <trkpt lat="37.69186" lon="-8.30118">
        <ele>136.822</ele>
        <time>2019-10-15T04:26:40Z</time>
      </trkpt>
      <trkpt lat="37.69234" lon="-8.30113">
        <ele>137.593</ele>
        <time>2019-10-15T04:27:00Z</time>
      </trkpt>
      <trkpt lat="37.69402" lon="-8.30095">
        <ele>141.685</ele>
        <time>2019-10-15T04:27:20Z</time>
      </trkpt>
      <trkpt lat="37.69414" lon="-8.30094">
        <ele>141.715</ele>
        <time>2019-10-15T04:27:40Z</time>
      </trkpt>
      <trkpt lat="37.69497" lon="-8.30085">
        <ele>141.455</ele>
        <time>2019-10-15T04:28:00Z</time>
      </trkpt>
      <trkpt lat="37.69518" lon="-8.30084">
        <ele>140.407</ele>
        <time>2019-10-15T04:28:20Z</time>
      </trkpt>
      <trkpt lat="37.69565" lon="-8.30078">
        <ele>141.117</ele>
        <time>2019-10-15T04:28:40Z</time>
      </trkpt>
      <trkpt lat="37.69633" lon="-8.30071">
        <ele>146.008</ele>
        <time>2019-10-15T04:29:00Z</time>
      </trkpt>
      <trkpt lat="37.69744" lon="-8.30062">
        <ele>149.119</ele>
        <time>2019-10-15T04:29:20Z</time>
      </trkpt>
      <trkpt lat="37.69764" lon="-8.30066">
        <ele>149.997</ele>
        <time>2019-10-15T04:29:40Z</time>
      </trkpt>
      <trkpt lat="37.69772" lon="-8.30068">
        <ele>150.329</ele>
        <time>2019-10-15T04:30:00Z</time>
      </trkpt>
      <trkpt lat="37.69785" lon="-8.30074">
        <ele>150.879</ele>
        <time>2019-10-15T04:30:20Z</time>
      </trkpt>
      <trkpt lat="37.69791" lon="-8.30077">
        <ele>150.941</ele>
        <time>2019-10-15T04:30:40Z</time>
      </trkpt>
      <trkpt lat="37.69796" lon="-8.30081">
        <ele>151.052</ele>
        <time>2019-10-15T04:31:00Z</time>
      </trkpt>
      <trkpt lat="37.69848" lon="-8.30111">
        <ele>150.544</ele>
        <time>2019-10-15T04:31:20Z</time>
      </trkpt>
      <trkpt lat="37.69865" lon="-8.30122">
        <ele>149.444</ele>
        <time>2019-10-15T04:31:40Z</time>
      </trkpt>
      <trkpt lat="37.69873" lon="-8.30126">
        <ele>148.867</ele>
        <time>2019-10-15T04:32:00Z</time>
      </trkpt>
      <trkpt lat="37.69881" lon="-8.30128">
        <ele>148.481</ele>
        <time>2019-10-15T04:32:20Z</time>
      </trkpt>
      <trkpt lat="37.69926" lon="-8.30156">
        <ele>148.619</ele>
        <time>2019-10-15T04:32:40Z</time>
      </trkpt>
      <trkpt lat="37.69933" lon="-8.30161">
        <ele>149.008</ele>
        <time>2019-10-15T04:33:00Z</time>
      </trkpt>
      <trkpt lat="37.69962" lon="-8.30176">
        <ele>150.23</ele>
        <time>2019-10-15T04:33:20Z</time>
      </trkpt>
      <trkpt lat="37.70054" lon="-8.30231">
        <ele>147.048</ele>
        <time>2019-10-15T04:33:40Z</time>
      </trkpt>
      <trkpt lat="37.70064" lon="-8.30237">
        <ele>146.52</ele>
        <time>2019-10-15T04:34:00Z</time>
      </trkpt>
      <trkpt lat="37.70075" lon="-8.30242">
        <ele>145.81</ele>
        <time>2019-10-15T04:34:20Z</time>
      </trkpt>
      <trkpt lat="37.70086" lon="-8.30245">
        <ele>145.332</ele>
        <time>2019-10-15T04:34:40Z</time>
      </trkpt>
      <trkpt lat="37.70098" lon="-8.30246">
        <ele>145.793</ele>
        <time>2019-10-15T04:35:00Z</time>
      </trkpt>
      <trkpt lat="37.70109" lon="-8.30245">
        <ele>146.125</ele>
        <time>2019-10-15T04:35:20Z</time>
      </trkpt>
      <trkpt lat="37.7024" lon="-8.30222">
        <ele>143.095</ele>
        <time>2019-10-15T04:35:40Z</time>
      </trkpt>
      <trkpt lat="37.70277" lon="-8.30215">
        <ele>143.064</ele>
        <time>2019-10-15T04:36:00Z</time>
      </trkpt>
      <trkpt lat="37.70285" lon="-8.30213">
        <ele>143.006</ele>
        <time>2019-10-15T04:36:20Z</time>
      </trkpt>
      <trkpt lat="37.70291" lon="-8.30212">
        <ele>143.016</ele>
        <time>2019-10-15T04:36:40Z</time>
      </trkpt>
      <trkpt lat="37.70339" lon="-8.30201">
        <ele>144.208</ele>
        <time>2019-10-15T04:37:00Z</time>
      </trkpt>
      <trkpt lat="37.70348" lon="-8.302">
        <ele>144.55</ele>
        <time>2019-10-15T04:37:20Z</time>
      </trkpt>
      <trkpt lat="37.70373" lon="-8.30205">
        <ele>145.298</ele>
        <time>2019-10-15T04:37:40Z</time>
      </trkpt>
      <trkpt lat="37.70419" lon="-8.30213">
        <ele>144.94</ele>
        <time>2019-10-15T04:38:00Z</time>
      </trkpt>
      <trkpt lat="37.70504" lon="-8.3023">
        <ele>145.22</ele>
        <time>2019-10-15T04:38:20Z</time>
      </trkpt>
      <trkpt lat="37.70511" lon="-8.30231">
        <ele>145.462</ele>
        <time>2019-10-15T04:38:40Z</time>
      </trkpt>
      <trkpt lat="37.70526" lon="-8.30235">
        <ele>145.953</ele>
        <time>2019-10-15T04:39:00Z</time>
      </trkpt>
      <trkpt lat="37.70621" lon="-8.30255">
        <ele>148.445</ele>
        <time>2019-10-15T04:39:20Z</time>
      </trkpt>
      <trkpt lat="37.70754" lon="-8.30284">
        <ele>142.145</ele>
        <time>2019-10-15T04:39:40Z</time>
      </trkpt>
      <trkpt lat="37.70831" lon="-8.30294">
        <ele>144.989</ele>
        <time>2019-10-15T04:40:00Z</time>
      </trkpt>
      <trkpt lat="37.70855" lon="-8.30291">
        <ele>144.206</ele>
        <time>2019-10-15T04:40:20Z</time>
      </trkpt>
      <trkpt lat="37.70935" lon="-8.30277">
        <ele>141.426</ele>
        <time>2019-10-15T04:40:40Z</time>
      </trkpt>
      <trkpt lat="37.71046" lon="-8.30261">
        <ele>138.808</ele>
        <time>2019-10-15T04:41:00Z</time>
      </trkpt>
      <trkpt lat="37.71091" lon="-8.30255">
        <ele>135.312</ele>
        <time>2019-10-15T04:41:20Z</time>
      </trkpt>
      <trkpt lat="37.71241" lon="-8.30236">
        <ele>137.05</ele>
        <time>2019-10-15T04:41:40Z</time>
      </trkpt>
      <trkpt lat="37.71305" lon="-8.30228">
        <ele>136.282</ele>
        <time>2019-10-15T04:42:00Z</time>
      </trkpt>
      <trkpt lat="37.71421" lon="-8.30212">
        <ele>143.832</ele>
        <time>2019-10-15T04:42:20Z</time>
      </trkpt>
      <trkpt lat="37.7159" lon="-8.3019">
        <ele>141.294</ele>
        <time>2019-10-15T04:42:40Z</time>
      </trkpt>
      <trkpt lat="37.7172" lon="-8.30173">
        <ele>145.495</ele>
        <time>2019-10-15T04:43:00Z</time>
      </trkpt>
      <trkpt lat="37.71788" lon="-8.30165">
        <ele>140.997</ele>
        <time>2019-10-15T04:43:20Z</time>
      </trkpt>
      <trkpt lat="37.71883" lon="-8.30152">
        <ele>141.287</ele>
        <time>2019-10-15T04:43:40Z</time>
      </trkpt>
      <trkpt lat="37.72" lon="-8.30137">
        <ele>140.987</ele>
        <time>2019-10-15T04:44:00Z</time>
      </trkpt>
      <trkpt lat="37.72048" lon="-8.3013">
        <ele>140.742</ele>
        <time>2019-10-15T04:44:20Z</time>
      </trkpt>
      <trkpt lat="37.72092" lon="-8.30124">
        <ele>140.026</ele>
        <time>2019-10-15T04:44:40Z</time>
      </trkpt>
      <trkpt lat="37.72155" lon="-8.30117">
        <ele>134.308</ele>
        <time>2019-10-15T04:45:00Z</time>
      </trkpt>
      <trkpt lat="37.72271" lon="-8.30101">
        <ele>133.372</ele>
        <time>2019-10-15T04:45:20Z</time>
      </trkpt>
      <trkpt lat="37.72395" lon="-8.30086">
        <ele>136.76</ele>
        <time>2019-10-15T04:45:40Z</time>
      </trkpt>
      <trkpt lat="37.72514" lon="-8.3007">
        <ele>137.192</ele>
        <time>2019-10-15T04:46:00Z</time>
      </trkpt>
      <trkpt lat="37.72584" lon="-8.30061">
        <ele>138.452</ele>
        <time>2019-10-15T04:46:20Z</time>
      </trkpt>
      <trkpt lat="37.72592" lon="-8.3006">
        <ele>138.054</ele>
        <time>2019-10-15T04:46:40Z</time>
      </trkpt>
      <trkpt lat="37.72667" lon="-8.30046">
        <ele>138.725</ele>
        <time>2019-10-15T04:47:00Z</time>
      </trkpt>
      <trkpt lat="37.7269" lon="-8.30051">
        <ele>140.357</ele>
        <time>2019-10-15T04:47:20Z</time>
      </trkpt>
      <trkpt lat="37.72693" lon="-8.30056">
        <ele>140.917</ele>
        <time>2019-10-15T04:47:40Z</time>
      </trkpt>
      <trkpt lat="37.72696" lon="-8.30063">
        <ele>141.381</ele>
        <time>2019-10-15T04:48:00Z</time>
      </trkpt>
      <trkpt lat="37.72705" lon="-8.30092">
        <ele>142.561</ele>
        <time>2019-10-15T04:48:20Z</time>
      </trkpt>
      <trkpt lat="37.72706" lon="-8.30104">
        <ele>142.817</ele>
        <time>2019-10-15T04:48:40Z</time>
      </trkpt>
      <trkpt lat="37.72707" lon="-8.3011">
        <ele>142.908</ele>
        <time>2019-10-15T04:49:00Z</time>
      </trkpt>
      <trkpt lat="37.72708" lon="-8.30115">
        <ele>143.222</ele>
        <time>2019-10-15T04:49:20Z</time>
      </trkpt>
      <trkpt lat="37.7271" lon="-8.30119">
        <ele>143.59</ele>
        <time>2019-10-15T04:49:40Z</time>
      </trkpt>
      <trkpt lat="37.72714" lon="-8.30119">
        <ele>143.832</ele>
        <time>2019-10-15T04:50:00Z</time>
      </trkpt>
      <trkpt lat="37.72717" lon="-8.30117">
        <ele>143.942</ele>
        <time>2019-10-15T04:50:20Z</time>
      </trkpt>
      <trkpt lat="37.72719" lon="-8.30112">
        <ele>143.834</ele>
        <time>2019-10-15T04:50:40Z</time>
      </trkpt>
      <trkpt lat="37.72719" lon="-8.30106">
        <ele>143.635</ele>
        <time>2019-10-15T04:51:00Z</time>
      </trkpt>
      <trkpt lat="37.72701" lon="-8.30011">
        <ele>137.627</ele>
        <time>2019-10-15T04:51:20Z</time>
      </trkpt>
      <trkpt lat="37.72698" lon="-8.29995">
        <ele>136.997</ele>
        <time>2019-10-15T04:51:40Z</time>
      </trkpt>
      <trkpt lat="37.72697" lon="-8.29978">
        <ele>136.948</ele>
        <time>2019-10-15T04:52:00Z</time>
      </trkpt>
      <trkpt lat="37.72697" lon="-8.29943">
        <ele>137.961</ele>
        <time>2019-10-15T04:52:20Z</time>
      </trkpt>
      <trkpt lat="37.72704" lon="-8.29774">
        <ele>138.917</ele>
        <time>2019-10-15T04:52:40Z</time>
      </trkpt>
      <trkpt lat="37.72706" lon="-8.29757">
        <ele>138.508</ele>
        <time>2019-10-15T04:53:00Z</time>
      </trkpt>
      <trkpt lat="37.72716" lon="-8.29725">
        <ele>139.448</ele>
        <time>2019-10-15T04:53:20Z</time>
      </trkpt>
      <trkpt lat="37.7273" lon="-8.29692">
        <ele>139.416</ele>
        <time>2019-10-15T04:53:40Z</time>
      </trkpt>
      <trkpt lat="37.7276" lon="-8.29623">
        <ele>141.158</ele>
        <time>2019-10-15T04:54:00Z</time>
      </trkpt>
      <trkpt lat="37.72767" lon="-8.29606">
        <ele>141.548</ele>
        <time>2019-10-15T04:54:20Z</time>
      </trkpt>
      <trkpt lat="37.72774" lon="-8.29589">
        <ele>140.44</ele>
        <time>2019-10-15T04:54:40Z</time>
      </trkpt>
      <trkpt lat="37.72778" lon="-8.29571">
        <ele>138.721</ele>
        <time>2019-10-15T04:55:00Z</time>
      </trkpt>
      <trkpt lat="37.72781" lon="-8.29552">
        <ele>137.073</ele>
        <time>2019-10-15T04:55:20Z</time>
      </trkpt>
      <trkpt lat="37.72781" lon="-8.29472">
        <ele>137.873</ele>
        <time>2019-10-15T04:55:40Z</time>
      </trkpt>
      <trkpt lat="37.7278" lon="-8.29384">
        <ele>135.692</ele>
        <time>2019-10-15T04:56:00Z</time>
      </trkpt>
      <trkpt lat="37.72777" lon="-8.29252">
        <ele>134.073</ele>
        <time>2019-10-15T04:56:20Z</time>
      </trkpt>
      <trkpt lat="37.72776" lon="-8.29208">
        <ele>135.52</ele>
        <time>2019-10-15T04:56:40Z</time>
      </trkpt>
      <trkpt lat="37.72775" lon="-8.29103">
        <ele>134.408</ele>
        <time>2019-10-15T04:57:00Z</time>
      </trkpt>
      <trkpt lat="37.72772" lon="-8.28981">
        <ele>133.933</ele>
        <time>2019-10-15T04:57:20Z</time>
      </trkpt>
      <trkpt lat="37.72769" lon="-8.28846">
        <ele>136.511</ele>
        <time>2019-10-15T04:57:40Z</time>
      </trkpt>
      <trkpt lat="37.72769" lon="-8.28828">
        <ele>137.983</ele>
        <time>2019-10-15T04:58:00Z</time>
      </trkpt>
      <trkpt lat="37.72769" lon="-8.2881">
        <ele>138.543</ele>
        <time>2019-10-15T04:58:20Z</time>
      </trkpt>
      <trkpt lat="37.7277" lon="-8.28793">
        <ele>138.665</ele>
        <time>2019-10-15T04:58:40Z</time>
      </trkpt>
      <trkpt lat="37.72772" lon="-8.28776">
        <ele>138.676</ele>
        <time>2019-10-15T04:59:00Z</time>
      </trkpt>
      <trkpt lat="37.72777" lon="-8.28761">
        <ele>138.318</ele>
        <time>2019-10-15T04:59:20Z</time>
      </trkpt>
      <trkpt lat="37.72829" lon="-8.28647">
        <ele>133.948</ele>
        <time>2019-10-15T04:59:40Z</time>
      </trkpt>
      <trkpt lat="37.72927" lon="-8.28441">
        <ele>138.721</ele>
        <time>2019-10-15T05:00:00Z</time>
      </trkpt>
      <trkpt lat="37.72943" lon="-8.28409">
        <ele>139.341</ele>
        <time>2019-10-15T05:00:20Z</time>
      </trkpt>
      <trkpt lat="37.7295" lon="-8.28393">
        <ele>140.005</ele>
        <time>2019-10-15T05:00:40Z</time>
      </trkpt>
      <trkpt lat="37.72957" lon="-8.28378">
        <ele>140.808</ele>
        <time>2019-10-15T05:01:00Z</time>
      </trkpt>
      <trkpt lat="37.72962" lon="-8.28361">
        <ele>141.666</ele>
        <time>2019-10-15T05:01:20Z</time>
      </trkpt>
      <trkpt lat="37.72975" lon="-8.2811">
        <ele>144.774</ele>
        <time>2019-10-15T05:01:40Z</time>
      </trkpt>
      <trkpt lat="37.72988" lon="-8.27879">
        <ele>144.146</ele>
        <time>2019-10-15T05:02:00Z</time>
      </trkpt>
      <trkpt lat="37.72992" lon="-8.27841">
        <ele>141.246</ele>
        <time>2019-10-15T05:02:20Z</time>
      </trkpt>
      <trkpt lat="37.72999" lon="-8.27789">
        <ele>139.878</ele>
        <time>2019-10-15T05:02:40Z</time>
      </trkpt>
      <trkpt lat="37.73001" lon="-8.27772">
        <ele>140.379</ele>
        <time>2019-10-15T05:03:00Z</time>
      </trkpt>
      <trkpt lat="37.73003" lon="-8.27756">
        <ele>141.381</ele>
        <time>2019-10-15T05:03:20Z</time>
      </trkpt>
      <trkpt lat="37.73008" lon="-8.2774">
        <ele>142.111</ele>
        <time>2019-10-15T05:03:40Z</time>
      </trkpt>
      <trkpt lat="37.73015" lon="-8.27727">
        <ele>142.416</ele>
        <time>2019-10-15T05:04:00Z</time>
      </trkpt>
      <trkpt lat="37.73025" lon="-8.27702">
        <ele>142.976</ele>
        <time>2019-10-15T05:04:20Z</time>
      </trkpt>
      <trkpt lat="37.73026" lon="-8.27707">
        <ele>142.413</ele>
        <time>2019-10-15T05:04:40Z</time>
      </trkpt>
      <trkpt lat="37.73028" lon="-8.2771">
        <ele>141.808</ele>
        <time>2019-10-15T05:05:00Z</time>
      </trkpt>
      <trkpt lat="37.73031" lon="-8.27712">
        <ele>141.665</ele>
        <time>2019-10-15T05:05:20Z</time>
      </trkpt>
      <trkpt lat="37.73036" lon="-8.27711">
        <ele>141.643</ele>
        <time>2019-10-15T05:05:40Z</time>
      </trkpt>
      <trkpt lat="37.73041" lon="-8.27708">
        <ele>141.545</ele>
        <time>2019-10-15T05:06:00Z</time>
      </trkpt>
      <trkpt lat="37.73048" lon="-8.27705">
        <ele>141.315</ele>
        <time>2019-10-15T05:06:20Z</time>
      </trkpt>
      <trkpt lat="37.73104" lon="-8.2769">
        <ele>143.387</ele>
        <time>2019-10-15T05:06:40Z</time>
      </trkpt>
      <trkpt lat="37.73135" lon="-8.27682">
        <ele>146.558</ele>
        <time>2019-10-15T05:07:00Z</time>
      </trkpt>
      <trkpt lat="37.7317" lon="-8.27673">
        <ele>147.67</ele>
        <time>2019-10-15T05:07:20Z</time>
      </trkpt>
      <trkpt lat="37.73221" lon="-8.27667">
        <ele>150.91</ele>
        <time>2019-10-15T05:07:40Z</time>
      </trkpt>
      <trkpt lat="37.73278" lon="-8.27673">
        <ele>155.563</ele>
        <time>2019-10-15T05:08:00Z</time>
      </trkpt>
      <trkpt lat="37.73317" lon="-8.27678">
        <ele>154.244</ele>
        <time>2019-10-15T05:08:20Z</time>
      </trkpt>
      <trkpt lat="37.73399" lon="-8.27696">
        <ele>157.418</ele>
        <time>2019-10-15T05:08:40Z</time>
      </trkpt>
      <trkpt lat="37.73414" lon="-8.27705">
        <ele>157.608</ele>
        <time>2019-10-15T05:09:00Z</time>
      </trkpt>
      <trkpt lat="37.73512" lon="-8.2778">
        <ele>149.73</ele>
        <time>2019-10-15T05:09:20Z</time>
      </trkpt>
      <trkpt lat="37.73565" lon="-8.2782">
        <ele>144.018</ele>
        <time>2019-10-15T05:09:40Z</time>
      </trkpt>
      <trkpt lat="37.73601" lon="-8.27848">
        <ele>143.49</ele>
        <time>2019-10-15T05:10:00Z</time>
      </trkpt>
      <trkpt lat="37.73655" lon="-8.2789">
        <ele>138.77</ele>
        <time>2019-10-15T05:10:20Z</time>
      </trkpt>
      <trkpt lat="37.73728" lon="-8.27947">
        <ele>137.832</ele>
        <time>2019-10-15T05:10:40Z</time>
      </trkpt>
      <trkpt lat="37.73801" lon="-8.28002">
        <ele>135.823</ele>
        <time>2019-10-15T05:11:00Z</time>
      </trkpt>
      <trkpt lat="37.73873" lon="-8.28059">
        <ele>135.455</ele>
        <time>2019-10-15T05:11:20Z</time>
      </trkpt>
      <trkpt lat="37.73982" lon="-8.28142">
        <ele>132.245</ele>
        <time>2019-10-15T05:11:40Z</time>
      </trkpt>
      <trkpt lat="37.74" lon="-8.28156">
        <ele>130.896</ele>
        <time>2019-10-15T05:12:00Z</time>
      </trkpt>
      <trkpt lat="37.74156" lon="-8.28275">
        <ele>138.631</ele>
        <time>2019-10-15T05:12:20Z</time>
      </trkpt>
      <trkpt lat="37.7422" lon="-8.28313">
        <ele>139.624</ele>
        <time>2019-10-15T05:12:40Z</time>
      </trkpt>
      <trkpt lat="37.74238" lon="-8.28318">
        <ele>141.308</ele>
        <time>2019-10-15T05:13:00Z</time>
      </trkpt>
      <trkpt lat="37.74256" lon="-8.28319">
        <ele>142.923</ele>
        <time>2019-10-15T05:13:20Z</time>
      </trkpt>
      <trkpt lat="37.74275" lon="-8.28319">
        <ele>144.331</ele>
        <time>2019-10-15T05:13:40Z</time>
      </trkpt>
      <trkpt lat="37.74294" lon="-8.28317">
        <ele>144.843</ele>
        <time>2019-10-15T05:14:00Z</time>
      </trkpt>
      <trkpt lat="37.74358" lon="-8.28312">
        <ele>145.743</ele>
        <time>2019-10-15T05:14:20Z</time>
      </trkpt>
      <trkpt lat="37.74502" lon="-8.28303">
        <ele>148.285</ele>
        <time>2019-10-15T05:14:40Z</time>
      </trkpt>
      <trkpt lat="37.74524" lon="-8.28305">
        <ele>148.946</ele>
        <time>2019-10-15T05:15:00Z</time>
      </trkpt>
      <trkpt lat="37.74534" lon="-8.2831">
        <ele>148.898</ele>
        <time>2019-10-15T05:15:20Z</time>
      </trkpt>
      <trkpt lat="37.74544" lon="-8.28319">
        <ele>148.438</ele>
        <time>2019-10-15T05:15:40Z</time>
      </trkpt>
      <trkpt lat="37.74553" lon="-8.28331">
        <ele>148.039</ele>
        <time>2019-10-15T05:16:00Z</time>
      </trkpt>
      <trkpt lat="37.74562" lon="-8.28345">
        <ele>148.601</ele>
        <time>2019-10-15T05:16:20Z</time>
      </trkpt>
      <trkpt lat="37.74595" lon="-8.28393">
        <ele>149.721</ele>
        <time>2019-10-15T05:16:40Z</time>
      </trkpt>
      <trkpt lat="37.74701" lon="-8.28548">
        <ele>141.408</ele>
        <time>2019-10-15T05:17:00Z</time>
      </trkpt>
      <trkpt lat="37.7474" lon="-8.28612">
        <ele>137.917</ele>
        <time>2019-10-15T05:17:20Z</time>
      </trkpt>
      <trkpt lat="37.74823" lon="-8.28771">
        <ele>133.975</ele>
        <time>2019-10-15T05:17:40Z</time>
      </trkpt>
      <trkpt lat="37.74977" lon="-8.29069">
        <ele>138.957</ele>
        <time>2019-10-15T05:18:00Z</time>
      </trkpt>
      <trkpt lat="37.75051" lon="-8.29214">
        <ele>142.367</ele>
        <time>2019-10-15T05:18:20Z</time>
      </trkpt>
      <trkpt lat="37.7506" lon="-8.29231">
        <ele>142.079</ele>
        <time>2019-10-15T05:18:40Z</time>
      </trkpt>
      <trkpt lat="37.75087" lon="-8.29276">
        <ele>143.39</ele>
        <time>2019-10-15T05:19:00Z</time>
      </trkpt>
      <trkpt lat="37.75097" lon="-8.29287">
        <ele>144.722</ele>
        <time>2019-10-15T05:19:20Z</time>
      </trkpt>
      <trkpt lat="37.7511" lon="-8.29295">
        <ele>145.962</ele>
        <time>2019-10-15T05:19:40Z</time>
      </trkpt>
      <trkpt lat="37.75124" lon="-8.29299">
        <ele>146.428</ele>
        <time>2019-10-15T05:20:00Z</time>
      </trkpt>
      <trkpt lat="37.7514" lon="-8.29301">
        <ele>147.089</ele>
        <time>2019-10-15T05:20:20Z</time>
      </trkpt>
      <trkpt lat="37.75157" lon="-8.29302">
        <ele>148.817</ele>
        <time>2019-10-15T05:20:40Z</time>
      </trkpt>
      <trkpt lat="37.75234" lon="-8.29308">
        <ele>151.308</ele>
        <time>2019-10-15T05:21:00Z</time>
      </trkpt>
      <trkpt lat="37.75273" lon="-8.29312">
        <ele>153.216</ele>
        <time>2019-10-15T05:21:20Z</time>
      </trkpt>
      <trkpt lat="37.75363" lon="-8.29324">
        <ele>154.634</ele>
        <time>2019-10-15T05:21:40Z</time>
      </trkpt>
      <trkpt lat="37.75379" lon="-8.29333">
        <ele>154.396</ele>
        <time>2019-10-15T05:22:00Z</time>
      </trkpt>
      <trkpt lat="37.75394" lon="-8.29344">
        <ele>155.086</ele>
        <time>2019-10-15T05:22:20Z</time>
      </trkpt>
      <trkpt lat="37.75457" lon="-8.29389">
        <ele>155.518</ele>
        <time>2019-10-15T05:22:40Z</time>
      </trkpt>
      <trkpt lat="37.75572" lon="-8.29468">
        <ele>159.859</ele>
        <time>2019-10-15T05:23:00Z</time>
      </trkpt>
      <trkpt lat="37.75671" lon="-8.29536">
        <ele>163.271</ele>
        <time>2019-10-15T05:23:20Z</time>
      </trkpt>
      <trkpt lat="37.75782" lon="-8.29612">
        <ele>163.151</ele>
        <time>2019-10-15T05:23:40Z</time>
      </trkpt>
      <trkpt lat="37.75824" lon="-8.2964">
        <ele>162.724</ele>
        <time>2019-10-15T05:24:00Z</time>
      </trkpt>
      <trkpt lat="37.75881" lon="-8.29678">
        <ele>157.204</ele>
        <time>2019-10-15T05:24:20Z</time>
      </trkpt>
      <trkpt lat="37.7589" lon="-8.29681">
        <ele>156.514</ele>
        <time>2019-10-15T05:24:40Z</time>
      </trkpt>
      <trkpt lat="37.75933" lon="-8.29688">
        <ele>155.908</ele>
        <time>2019-10-15T05:25:00Z</time>
      </trkpt>
      <trkpt lat="37.76018" lon="-8.29693">
        <ele>151.096</ele>
        <time>2019-10-15T05:25:20Z</time>
      </trkpt>
      <trkpt lat="37.76053" lon="-8.29694">
        <ele>148.374</ele>
        <time>2019-10-15T05:25:40Z</time>
      </trkpt>
      <trkpt lat="37.76069" lon="-8.29697">
        <ele>147.026</ele>
        <time>2019-10-15T05:26:00Z</time>
      </trkpt>
      <trkpt lat="37.76074" lon="-8.29701">
        <ele>146.516</ele>
        <time>2019-10-15T05:26:20Z</time>
      </trkpt>
      <trkpt lat="37.76078" lon="-8.29707">
        <ele>146.068</ele>
        <time>2019-10-15T05:26:40Z</time>
      </trkpt>
      <trkpt lat="37.7608" lon="-8.29714">
        <ele>145.799</ele>
        <time>2019-10-15T05:27:00Z</time>
      </trkpt>
      <trkpt lat="37.7608" lon="-8.29721">
        <ele>145.451</ele>
        <time>2019-10-15T05:27:20Z</time>
      </trkpt>
      <trkpt lat="37.76082" lon="-8.29728">
        <ele>145.261</ele>
        <time>2019-10-15T05:27:40Z</time>
      </trkpt>
      <trkpt lat="37.76085" lon="-8.29732">
        <ele>144.947</ele>
        <time>2019-10-15T05:28:00Z</time>
      </trkpt>
      <trkpt lat="37.76088" lon="-8.29734">
        <ele>144.829</ele>
        <time>2019-10-15T05:28:20Z</time>
      </trkpt>
      <trkpt lat="37.76093" lon="-8.29734">
        <ele>144.521</ele>
        <time>2019-10-15T05:28:40Z</time>
      </trkpt>
      <trkpt lat="37.761" lon="-8.29733">
        <ele>144.208</ele>
        <time>2019-10-15T05:29:00Z</time>
      </trkpt>
      <trkpt lat="37.76107" lon="-8.29732">
        <ele>143.978</ele>
        <time>2019-10-15T05:29:20Z</time>
      </trkpt>
      <trkpt lat="37.76133" lon="-8.29729">
        <ele>143.636</ele>
        <time>2019-10-15T05:29:40Z</time>
      </trkpt>
      <trkpt lat="37.76142" lon="-8.29726">
        <ele>143.988</ele>
        <time>2019-10-15T05:30:00Z</time>
      </trkpt>
      <trkpt lat="37.76149" lon="-8.29722">
        <ele>144.438</ele>
        <time>2019-10-15T05:30:20Z</time>
      </trkpt>
      <trkpt lat="37.76154" lon="-8.29719">
        <ele>144.63</ele>
        <time>2019-10-15T05:30:40Z</time>
      </trkpt>
      <trkpt lat="37.76157" lon="-8.29716">
        <ele>144.851</ele>
        <time>2019-10-15T05:31:00Z</time>
      </trkpt>
      <trkpt lat="37.76159" lon="-8.29713">
        <ele>145.013</ele>
        <time>2019-10-15T05:31:20Z</time>
      </trkpt>
      <trkpt lat="37.76161" lon="-8.2971">
        <ele>145.153</ele>
        <time>2019-10-15T05:31:40Z</time>
      </trkpt>
      <trkpt lat="37.76163" lon="-8.29708">
        <ele>145.311</ele>
        <time>2019-10-15T05:32:00Z</time>
      </trkpt>
      <trkpt lat="37.76203" lon="-8.29665">
        <ele>146.321</ele>
        <time>2019-10-15T05:32:20Z</time>
      </trkpt>
      <trkpt lat="37.76213" lon="-8.29657">
        <ele>145.603</ele>
        <time>2019-10-15T05:32:40Z</time>
      </trkpt>
      <trkpt lat="37.76304" lon="-8.29593">
        <ele>139.408</ele>
        <time>2019-10-15T05:33:00Z</time>
      </trkpt>
      <trkpt lat="37.76346" lon="-8.29563">
        <ele>138.625</ele>
        <time>2019-10-15T05:33:20Z</time>
      </trkpt>
      <trkpt lat="37.76371" lon="-8.29543">
        <ele>137.843</ele>
        <time>2019-10-15T05:33:40Z</time>
      </trkpt>
      <trkpt lat="37.76383" lon="-8.29531">
        <ele>137.955</ele>
        <time>2019-10-15T05:34:00Z</time>
      </trkpt>
      <trkpt lat="37.76394" lon="-8.29518">
        <ele>138.055</ele>
        <time>2019-10-15T05:34:20Z</time>
      </trkpt>
      <trkpt lat="37.7647" lon="-8.2942">
        <ele>145.727</ele>
        <time>2019-10-15T05:34:40Z</time>
      </trkpt>
      <trkpt lat="37.765" lon="-8.29378">
        <ele>146.048</ele>
        <time>2019-10-15T05:35:00Z</time>
      </trkpt>
      <trkpt lat="37.76532" lon="-8.29338">
        <ele>148.14</ele>
        <time>2019-10-15T05:35:20Z</time>
      </trkpt>
      <trkpt lat="37.76564" lon="-8.29299">
        <ele>152.15</ele>
        <time>2019-10-15T05:35:40Z</time>
      </trkpt>
      <trkpt lat="37.76575" lon="-8.29285">
        <ele>152.526</ele>
        <time>2019-10-15T05:36:00Z</time>
      </trkpt>
      <trkpt lat="37.76638" lon="-8.29181">
        <ele>150.547</ele>
        <time>2019-10-15T05:36:20Z</time>
      </trkpt>
      <trkpt lat="37.76644" lon="-8.29164">
        <ele>151.211</ele>
        <time>2019-10-15T05:36:40Z</time>
      </trkpt>
      <trkpt lat="37.76682" lon="-8.29054">
        <ele>150.408</ele>
        <time>2019-10-15T05:37:00Z</time>
      </trkpt>
      <trkpt lat="37.76685" lon="-8.29038">
        <ele>149.726</ele>
        <time>2019-10-15T05:37:20Z</time>
      </trkpt>
      <trkpt lat="37.76696" lon="-8.28988">
        <ele>147.534</ele>
        <time>2019-10-15T05:37:40Z</time>
      </trkpt>
      <trkpt lat="37.76742" lon="-8.28856">
        <ele>150.896</ele>
        <time>2019-10-15T05:38:00Z</time>
      </trkpt>
      <trkpt lat="37.76781" lon="-8.28723">
        <ele>154.136</ele>
        <time>2019-10-15T05:38:20Z</time>
      </trkpt>
      <trkpt lat="37.76799" lon="-8.28666">
        <ele>155.898</ele>
        <time>2019-10-15T05:38:40Z</time>
      </trkpt>
      <trkpt lat="37.76814" lon="-8.28617">
        <ele>158.429</ele>
        <time>2019-10-15T05:39:00Z</time>
      </trkpt>
      <trkpt lat="37.76818" lon="-8.28603">
        <ele>159.031</ele>
        <time>2019-10-15T05:39:20Z</time>
      </trkpt>
      <trkpt lat="37.7682" lon="-8.28562">
        <ele>160.631</ele>
        <time>2019-10-15T05:39:40Z</time>
      </trkpt>
      <trkpt lat="37.76817" lon="-8.28549">
        <ele>161.627</ele>
        <time>2019-10-15T05:40:00Z</time>
      </trkpt>
      <trkpt lat="37.76812" lon="-8.28538">
        <ele>162.868</ele>
        <time>2019-10-15T05:40:20Z</time>
      </trkpt>
      <trkpt lat="37.76809" lon="-8.28528">
        <ele>163.914</ele>
        <time>2019-10-15T05:40:40Z</time>
      </trkpt>
      <trkpt lat="37.76808" lon="-8.2852">
        <ele>164.508</ele>
        <time>2019-10-15T05:41:00Z</time>
      </trkpt>
      <trkpt lat="37.76808" lon="-8.28513">
        <ele>165.016</ele>
        <time>2019-10-15T05:41:20Z</time>
      </trkpt>
      <trkpt lat="37.76818" lon="-8.28498">
        <ele>165.694</ele>
        <time>2019-10-15T05:41:40Z</time>
      </trkpt>
      <trkpt lat="37.76836" lon="-8.28488">
        <ele>165.066</ele>
        <time>2019-10-15T05:42:00Z</time>
      </trkpt>
      <trkpt lat="37.76859" lon="-8.28478">
        <ele>165.026</ele>
        <time>2019-10-15T05:42:20Z</time>
      </trkpt>
      <trkpt lat="37.76861" lon="-8.2847">
        <ele>165.048</ele>
        <time>2019-10-15T05:42:40Z</time>
      </trkpt>
      <trkpt lat="37.76872" lon="-8.28421">
        <ele>166.329</ele>
        <time>2019-10-15T05:43:00Z</time>
      </trkpt>
      <trkpt lat="37.76886" lon="-8.28377">
        <ele>166.011</ele>
        <time>2019-10-15T05:43:20Z</time>
      </trkpt>
      <trkpt lat="37.76913" lon="-8.28324">
        <ele>166.931</ele>
        <time>2019-10-15T05:43:40Z</time>
      </trkpt>
      <trkpt lat="37.76924" lon="-8.28327">
        <ele>168.165</ele>
        <time>2019-10-15T05:44:00Z</time>
      </trkpt>
      <trkpt lat="37.76935" lon="-8.28347">
        <ele>171.168</ele>
        <time>2019-10-15T05:44:20Z</time>
      </trkpt>
      <trkpt lat="37.76974" lon="-8.28395">
        <ele>176.014</ele>
        <time>2019-10-15T05:44:40Z</time>
      </trkpt>
      <trkpt lat="37.77054" lon="-8.28495">
        <ele>178.008</ele>
        <time>2019-10-15T05:45:00Z</time>
      </trkpt>
      <trkpt lat="37.77102" lon="-8.28553">
        <ele>176.81</ele>
        <time>2019-10-15T05:45:20Z</time>
      </trkpt>
      <trkpt lat="37.77205" lon="-8.28674">
        <ele>175.688</ele>
        <time>2019-10-15T05:45:40Z</time>
      </trkpt>
      <trkpt lat="37.77268" lon="-8.28766">
        <ele>169.94</ele>
        <time>2019-10-15T05:46:00Z</time>
      </trkpt>
      <trkpt lat="37.77332" lon="-8.2885">
        <ele>167.17</ele>
        <time>2019-10-15T05:46:20Z</time>
      </trkpt>
      <trkpt lat="37.7735" lon="-8.28873">
        <ele>165.392</ele>
        <time>2019-10-15T05:46:40Z</time>
      </trkpt>
      <trkpt lat="37.7742" lon="-8.29012">
        <ele>163.373</ele>
        <time>2019-10-15T05:47:00Z</time>
      </trkpt>
      <trkpt lat="37.77439" lon="-8.29048">
        <ele>161.375</ele>
        <time>2019-10-15T05:47:20Z</time>
      </trkpt>
      <trkpt lat="37.77465" lon="-8.29102">
        <ele>158.365</ele>
        <time>2019-10-15T05:47:40Z</time>
      </trkpt>
      <trkpt lat="37.77496" lon="-8.29172">
        <ele>154.516</ele>
        <time>2019-10-15T05:48:00Z</time>
      </trkpt>
      <trkpt lat="37.77561" lon="-8.29289">
        <ele>151.776</ele>
        <time>2019-10-15T05:48:20Z</time>
      </trkpt>
      <trkpt lat="37.77595" lon="-8.29319">
        <ele>149.313</ele>
        <time>2019-10-15T05:48:40Z</time>
      </trkpt>
      <trkpt lat="37.77642" lon="-8.29343">
        <ele>147.608</ele>
        <time>2019-10-15T05:49:00Z</time>
      </trkpt>
      <trkpt lat="37.77683" lon="-8.29363">
        <ele>146.525</ele>
        <time>2019-10-15T05:49:20Z</time>
      </trkpt>
      <trkpt lat="37.77712" lon="-8.29376">
        <ele>146.563</ele>
        <time>2019-10-15T05:49:40Z</time>
      </trkpt>
      <trkpt lat="37.7779" lon="-8.29407">
        <ele>142.085</ele>
        <time>2019-10-15T05:50:00Z</time>
      </trkpt>
      <trkpt lat="37.77832" lon="-8.29452">
        <ele>141.725</ele>
        <time>2019-10-15T05:50:20Z</time>
      </trkpt>
      <trkpt lat="37.77841" lon="-8.29493">
        <ele>141.877</ele>
        <time>2019-10-15T05:50:40Z</time>
      </trkpt>
      <trkpt lat="37.7783" lon="-8.29551">
        <ele>139.758</ele>
        <time>2019-10-15T05:51:00Z</time>
      </trkpt>
      <trkpt lat="37.77826" lon="-8.29587">
        <ele>136.68</ele>
        <time>2019-10-15T05:51:20Z</time>
      </trkpt>
      <trkpt lat="37.77826" lon="-8.29626">
        <ele>132.25</ele>
        <time>2019-10-15T05:51:40Z</time>
      </trkpt>
      <trkpt lat="37.77834" lon="-8.29677">
        <ele>129.774</ele>
        <time>2019-10-15T05:52:00Z</time>
      </trkpt>
      <trkpt lat="37.77841" lon="-8.29713">
        <ele>127.756</ele>
        <time>2019-10-15T05:52:20Z</time>
      </trkpt>
      <trkpt lat="37.77848" lon="-8.29753">
        <ele>125.121</ele>
        <time>2019-10-15T05:52:40Z</time>
      </trkpt>
      <trkpt lat="37.77868" lon="-8.29806">
        <ele>128.508</ele>
        <time>2019-10-15T05:53:00Z</time>
      </trkpt>
      <trkpt lat="37.77882" lon="-8.29866">
        <ele>131.241</ele>
        <time>2019-10-15T05:53:20Z</time>
      </trkpt>
      <trkpt lat="37.77893" lon="-8.29919">
        <ele>132.959</ele>
        <time>2019-10-15T05:53:40Z</time>
      </trkpt>
      <trkpt lat="37.77896" lon="-8.29932">
        <ele>132.671</ele>
        <time>2019-10-15T05:54:00Z</time>
      </trkpt>
      <trkpt lat="37.77905" lon="-8.29967">
        <ele>132.191</ele>
        <time>2019-10-15T05:54:20Z</time>
      </trkpt>
      <trkpt lat="37.77924" lon="-8.30023">
        <ele>130.883</ele>
        <time>2019-10-15T05:54:40Z</time>
      </trkpt>
      <trkpt lat="37.77948" lon="-8.30073">
        <ele>129.614</ele>
        <time>2019-10-15T05:55:00Z</time>
      </trkpt>
      <trkpt lat="37.7796" lon="-8.30172">
        <ele>127.076</ele>
        <time>2019-10-15T05:55:20Z</time>
      </trkpt>
      <trkpt lat="37.77953" lon="-8.30225">
        <ele>125.626</ele>
        <time>2019-10-15T05:55:40Z</time>
      </trkpt>
      <trkpt lat="37.77927" lon="-8.3027">
        <ele>124.161</ele>
        <time>2019-10-15T05:56:00Z</time>
      </trkpt>
      <trkpt lat="37.77923" lon="-8.30273">
        <ele>124.021</ele>
        <time>2019-10-15T05:56:20Z</time>
      </trkpt>
      <trkpt lat="37.77921" lon="-8.30276">
        <ele>124.013</ele>
        <time>2019-10-15T05:56:40Z</time>
      </trkpt>
      <trkpt lat="37.77922" lon="-8.30276">
        <ele>124.008</ele>
        <time>2019-10-15T05:57:00Z</time>
      </trkpt>
      <trkpt lat="37.77915" lon="-8.30305">
        <ele>124.01</ele>
        <time>2019-10-15T05:57:20Z</time>
      </trkpt>
      <trkpt lat="37.77926" lon="-8.30349">
        <ele>121.188</ele>
        <time>2019-10-15T05:57:40Z</time>
      </trkpt>
      <trkpt lat="37.77959" lon="-8.30392">
        <ele>119.84</ele>
        <time>2019-10-15T05:58:00Z</time>
      </trkpt>
      <trkpt lat="37.77977" lon="-8.30409">
        <ele>120.05</ele>
        <time>2019-10-15T05:58:20Z</time>
      </trkpt>
      <trkpt lat="37.77985" lon="-8.30416">
        <ele>119.532</ele>
        <time>2019-10-15T05:58:40Z</time>
      </trkpt>
      <trkpt lat="37.78007" lon="-8.30455">
        <ele>117.633</ele>
        <time>2019-10-15T05:59:00Z</time>
      </trkpt>
      <trkpt lat="37.78031" lon="-8.30515">
        <ele>119.065</ele>
        <time>2019-10-15T05:59:20Z</time>
      </trkpt>
      <trkpt lat="37.78023" lon="-8.30564">
        <ele>117.915</ele>
        <time>2019-10-15T05:59:40Z</time>
      </trkpt>
      <trkpt lat="37.77994" lon="-8.30628">
        <ele>112.632</ele>
        <time>2019-10-15T06:00:00Z</time>
      </trkpt>
      <trkpt lat="37.77997" lon="-8.30636">
        <ele>111.592</ele>
        <time>2019-10-15T06:00:20Z</time>
      </trkpt>
      <trkpt lat="37.78002" lon="-8.30643">
        <ele>110.811</ele>
        <time>2019-10-15T06:00:40Z</time>
      </trkpt>
      <trkpt lat="37.78009" lon="-8.30648">
        <ele>110.608</ele>
        <time>2019-10-15T06:01:00Z</time>
      </trkpt>
      <trkpt lat="37.78018" lon="-8.30653">
        <ele>110.347</ele>
        <time>2019-10-15T06:01:20Z</time>
      </trkpt>
      <trkpt lat="37.7807" lon="-8.30678">
        <ele>109.235</ele>
        <time>2019-10-15T06:01:40Z</time>
      </trkpt>
      <trkpt lat="37.78082" lon="-8.3068">
        <ele>109.067</ele>
        <time>2019-10-15T06:02:00Z</time>
      </trkpt>
      <trkpt lat="37.78093" lon="-8.3068">
        <ele>108.787</ele>
        <time>2019-10-15T06:02:20Z</time>
      </trkpt>
      <trkpt lat="37.78105" lon="-8.30679">
        <ele>108.469</ele>
        <time>2019-10-15T06:02:40Z</time>
      </trkpt>
      <trkpt lat="37.78116" lon="-8.30675">
        <ele>108.59</ele>
        <time>2019-10-15T06:03:00Z</time>
      </trkpt>
      <trkpt lat="37.78126" lon="-8.30671">
        <ele>109.212</ele>
        <time>2019-10-15T06:03:20Z</time>
      </trkpt>
      <trkpt lat="37.78136" lon="-8.30666">
        <ele>110.062</ele>
        <time>2019-10-15T06:03:40Z</time>
      </trkpt>
      <trkpt lat="37.78222" lon="-8.3062">
        <ele>110.447</ele>
        <time>2019-10-15T06:04:00Z</time>
      </trkpt>
      <trkpt lat="37.78231" lon="-8.3062">
        <ele>109.429</ele>
        <time>2019-10-15T06:04:20Z</time>
      </trkpt>
      <trkpt lat="37.78241" lon="-8.30621">
        <ele>108.321</ele>
        <time>2019-10-15T06:04:40Z</time>
      </trkpt>
      <trkpt lat="37.7825" lon="-8.30624">
        <ele>107.108</ele>
        <time>2019-10-15T06:05:00Z</time>
      </trkpt>
      <trkpt lat="37.78258" lon="-8.30628">
        <ele>106.598</ele>
        <time>2019-10-15T06:05:20Z</time>
      </trkpt>
      <trkpt lat="37.78266" lon="-8.30634">
        <ele>106.116</ele>
        <time>2019-10-15T06:05:40Z</time>
      </trkpt>
      <trkpt lat="37.78273" lon="-8.3064">
        <ele>106.058</ele>
        <time>2019-10-15T06:06:00Z</time>
      </trkpt>
      <trkpt lat="37.7828" lon="-8.30643">
        <ele>106.348</ele>
        <time>2019-10-15T06:06:20Z</time>
      </trkpt>
      <trkpt lat="37.78287" lon="-8.30644">
        <ele>106.96</ele>
        <time>2019-10-15T06:06:40Z</time>
      </trkpt>
      <trkpt lat="37.78292" lon="-8.30642">
        <ele>107.391</ele>
        <time>2019-10-15T06:07:00Z</time>
      </trkpt>
      <trkpt lat="37.78299" lon="-8.30621">
        <ele>107.093</ele>
        <time>2019-10-15T06:07:20Z</time>
      </trkpt>
      <trkpt lat="37.78299" lon="-8.3058">
        <ele>108.433</ele>
        <time>2019-10-15T06:07:40Z</time>
      </trkpt>
      <trkpt lat="37.78316" lon="-8.30524">
        <ele>109.872</ele>
        <time>2019-10-15T06:08:00Z</time>
      </trkpt>
      <trkpt lat="37.78348" lon="-8.30484">
        <ele>113.413</ele>
        <time>2019-10-15T06:08:20Z</time>
      </trkpt>
      <trkpt lat="37.78365" lon="-8.30461">
        <ele>114.214</ele>
        <time>2019-10-15T06:08:40Z</time>
      </trkpt>
      <trkpt lat="37.78401" lon="-8.30419">
        <ele>117.208</ele>
        <time>2019-10-15T06:09:00Z</time>
      </trkpt>
      <trkpt lat="37.78427" lon="-8.30403">
        <ele>119.691</ele>
        <time>2019-10-15T06:09:20Z</time>
      </trkpt>
      <trkpt lat="37.78438" lon="-8.30401">
        <ele>120.299</ele>
        <time>2019-10-15T06:09:40Z</time>
      </trkpt>
      <trkpt lat="37.78487" lon="-8.30394">
        <ele>121.121</ele>
        <time>2019-10-15T06:10:00Z</time>
      </trkpt>
      <trkpt lat="37.78528" lon="-8.3039">
        <ele>122.131</ele>
        <time>2019-10-15T06:10:20Z</time>
      </trkpt>
      <trkpt lat="37.7869" lon="-8.30377">
        <ele>126.353</ele>
        <time>2019-10-15T06:10:40Z</time>
      </trkpt>
      <trkpt lat="37.78747" lon="-8.30377">
        <ele>131.494</ele>
        <time>2019-10-15T06:11:00Z</time>
      </trkpt>
      <trkpt lat="37.78775" lon="-8.30378">
        <ele>133.056</ele>
        <time>2019-10-15T06:11:20Z</time>
      </trkpt>
      <trkpt lat="37.78803" lon="-8.30379">
        <ele>133.696</ele>
        <time>2019-10-15T06:11:40Z</time>
      </trkpt>
      <trkpt lat="37.78828" lon="-8.3038">
        <ele>134.578</ele>
        <time>2019-10-15T06:12:00Z</time>
      </trkpt>
      <trkpt lat="37.78892" lon="-8.30382">
        <ele>138.333</ele>
        <time>2019-10-15T06:12:20Z</time>
      </trkpt>
      <trkpt lat="37.78999" lon="-8.30394">
        <ele>142.026</ele>
        <time>2019-10-15T06:12:40Z</time>
      </trkpt>
      <trkpt lat="37.79041" lon="-8.30399">
        <ele>142.908</ele>
        <time>2019-10-15T06:13:00Z</time>
      </trkpt>
      <trkpt lat="37.7914" lon="-8.30409">
        <ele>146.881</ele>
        <time>2019-10-15T06:13:20Z</time>
      </trkpt>
      <trkpt lat="37.79174" lon="-8.30411">
        <ele>148.969</ele>
        <time>2019-10-15T06:13:40Z</time>
      </trkpt>
      <trkpt lat="37.79214" lon="-8.30413">
        <ele>150.251</ele>
        <time>2019-10-15T06:14:00Z</time>
      </trkpt>
      <trkpt lat="37.79254" lon="-8.30432">
        <ele>148.391</ele>
        <time>2019-10-15T06:14:20Z</time>
      </trkpt>
      <trkpt lat="37.79289" lon="-8.30472">
        <ele>146.443</ele>
        <time>2019-10-15T06:14:40Z</time>
      </trkpt>
      <trkpt lat="37.79305" lon="-8.30494">
        <ele>147.764</ele>
        <time>2019-10-15T06:15:00Z</time>
      </trkpt>
      <trkpt lat="37.79317" lon="-8.30552">
        <ele>147.976</ele>
        <time>2019-10-15T06:15:20Z</time>
      </trkpt>
      <trkpt lat="37.79326" lon="-8.3061">
        <ele>146.586</ele>
        <time>2019-10-15T06:15:40Z</time>
      </trkpt>
      <trkpt lat="37.79377" lon="-8.30722">
        <ele>140.626</ele>
        <time>2019-10-15T06:16:00Z</time>
      </trkpt>
      <trkpt lat="37.79432" lon="-8.30845">
        <ele>140.947</ele>
        <time>2019-10-15T06:16:20Z</time>
      </trkpt>
      <trkpt lat="37.79463" lon="-8.30909">
        <ele>142.411</ele>
        <time>2019-10-15T06:16:40Z</time>
      </trkpt>
      <trkpt lat="37.7953" lon="-8.30969">
        <ele>141.208</ele>
        <time>2019-10-15T06:17:00Z</time>
      </trkpt>
      <trkpt lat="37.79542" lon="-8.30982">
        <ele>142.716</ele>
        <time>2019-10-15T06:17:20Z</time>
      </trkpt>
      <trkpt lat="37.7962" lon="-8.31021">
        <ele>145.254</ele>
        <time>2019-10-15T06:17:40Z</time>
      </trkpt>
      <trkpt lat="37.79679" lon="-8.31049">
        <ele>150.636</ele>
        <time>2019-10-15T06:18:00Z</time>
      </trkpt>
      <trkpt lat="37.79683" lon="-8.31052">
        <ele>150.826</ele>
        <time>2019-10-15T06:18:20Z</time>
      </trkpt>
      <trkpt lat="37.7969" lon="-8.31055">
        <ele>151.088</ele>
        <time>2019-10-15T06:18:40Z</time>
      </trkpt>
      <trkpt lat="37.79693" lon="-8.31055">
        <ele>151.039</ele>
        <time>2019-10-15T06:19:00Z</time>
      </trkpt>
      <trkpt lat="37.79705" lon="-8.31057">
        <ele>150.271</ele>
        <time>2019-10-15T06:19:20Z</time>
      </trkpt>
      <trkpt lat="37.79802" lon="-8.31085">
        <ele>153.061</ele>
        <time>2019-10-15T06:19:40Z</time>
      </trkpt>
      <trkpt lat="37.79834" lon="-8.31096">
        <ele>154.526</ele>
        <time>2019-10-15T06:20:00Z</time>
      </trkpt>
      <trkpt lat="37.79898" lon="-8.31116">
        <ele>153.847</ele>
        <time>2019-10-15T06:20:20Z</time>
      </trkpt>
      <trkpt lat="37.79912" lon="-8.31121">
        <ele>153.711</ele>
        <time>2019-10-15T06:20:40Z</time>
      </trkpt>
      <trkpt lat="37.80018" lon="-8.31151">
        <ele>161.908</ele>
        <time>2019-10-15T06:21:00Z</time>
      </trkpt>
      <trkpt lat="37.80062" lon="-8.31173">
        <ele>161.666</ele>
        <time>2019-10-15T06:21:20Z</time>
      </trkpt>
      <trkpt lat="37.80091" lon="-8.31203">
        <ele>160.524</ele>
        <time>2019-10-15T06:21:40Z</time>
      </trkpt>
      <trkpt lat="37.80105" lon="-8.31233">
        <ele>161.196</ele>
        <time>2019-10-15T06:22:00Z</time>
      </trkpt>
      <trkpt lat="37.80142" lon="-8.31315">
        <ele>166.566</ele>
        <time>2019-10-15T06:22:20Z</time>
      </trkpt>
      <trkpt lat="37.80146" lon="-8.31322">
        <ele>167.038</ele>
        <time>2019-10-15T06:22:40Z</time>
      </trkpt>
      <trkpt lat="37.80168" lon="-8.31337">
        <ele>169.229</ele>
        <time>2019-10-15T06:23:00Z</time>
      </trkpt>
      <trkpt lat="37.80184" lon="-8.31339">
        <ele>170.491</ele>
        <time>2019-10-15T06:23:20Z</time>
      </trkpt>
      <trkpt lat="37.80227" lon="-8.31349">
        <ele>175.071</ele>
        <time>2019-10-15T06:23:40Z</time>
      </trkpt>
      <trkpt lat="37.8025" lon="-8.31353">
        <ele>177.031</ele>
        <time>2019-10-15T06:24:00Z</time>
      </trkpt>
      <trkpt lat="37.80271" lon="-8.31357">
        <ele>178.661</ele>
        <time>2019-10-15T06:24:20Z</time>
      </trkpt>
      <trkpt lat="37.80279" lon="-8.31359">
        <ele>179.307</ele>
        <time>2019-10-15T06:24:40Z</time>
      </trkpt>
      <trkpt lat="37.80316" lon="-8.31348">
        <ele>184.908</ele>
        <time>2019-10-15T06:25:00Z</time>
      </trkpt>
      <trkpt lat="37.80344" lon="-8.31318">
        <ele>190.017</ele>
        <time>2019-10-15T06:25:20Z</time>
      </trkpt>
      <trkpt lat="37.80357" lon="-8.31308">
        <ele>191.615</ele>
        <time>2019-10-15T06:25:40Z</time>
      </trkpt>
      <trkpt lat="37.8037" lon="-8.31306">
        <ele>192.387</ele>
        <time>2019-10-15T06:26:00Z</time>
      </trkpt>
      <trkpt lat="37.80377" lon="-8.31309">
        <ele>192.267</ele>
        <time>2019-10-15T06:26:20Z</time>
      </trkpt>
      <trkpt lat="37.80383" lon="-8.31314">
        <ele>191.789</ele>
        <time>2019-10-15T06:26:40Z</time>
      </trkpt>
      <trkpt lat="37.80389" lon="-8.31322">
        <ele>190.71</ele>
        <time>2019-10-15T06:27:00Z</time>
      </trkpt>
      <trkpt lat="37.80393" lon="-8.31332">
        <ele>189.022</ele>
        <time>2019-10-15T06:27:20Z</time>
      </trkpt>
      <trkpt lat="37.80397" lon="-8.31344">
        <ele>188.062</ele>
        <time>2019-10-15T06:27:40Z</time>
      </trkpt>
      <trkpt lat="37.80419" lon="-8.31401">
        <ele>185.638</ele>
        <time>2019-10-15T06:28:00Z</time>
      </trkpt>
      <trkpt lat="37.80431" lon="-8.31432">
        <ele>181.87</ele>
        <time>2019-10-15T06:28:20Z</time>
      </trkpt>
      <trkpt lat="37.8045" lon="-8.31479">
        <ele>177.717</ele>
        <time>2019-10-15T06:28:40Z</time>
      </trkpt>
      <trkpt lat="37.80467" lon="-8.31522">
        <ele>173.308</ele>
        <time>2019-10-15T06:29:00Z</time>
      </trkpt>
      <trkpt lat="37.80486" lon="-8.31567">
        <ele>170.247</ele>
        <time>2019-10-15T06:29:20Z</time>
      </trkpt>
      <trkpt lat="37.80499" lon="-8.31597">
        <ele>166.515</ele>
        <time>2019-10-15T06:29:40Z</time>
      </trkpt>
      <trkpt lat="37.8052" lon="-8.31643">
        <ele>160.827</ele>
        <time>2019-10-15T06:30:00Z</time>
      </trkpt>
      <trkpt lat="37.80534" lon="-8.31675">
        <ele>159.927</ele>
        <time>2019-10-15T06:30:20Z</time>
      </trkpt>
      <trkpt lat="37.8056" lon="-8.31719">
        <ele>157.049</ele>
        <time>2019-10-15T06:30:40Z</time>
      </trkpt>
      <trkpt lat="37.80588" lon="-8.31757">
        <ele>154.94</ele>
        <time>2019-10-15T06:31:00Z</time>
      </trkpt>
      <trkpt lat="37.80606" lon="-8.31781">
        <ele>154.732</ele>
        <time>2019-10-15T06:31:20Z</time>
      </trkpt>
      <trkpt lat="37.80647" lon="-8.31828">
        <ele>150.962</ele>
        <time>2019-10-15T06:31:40Z</time>
      </trkpt>
      <trkpt lat="37.80671" lon="-8.31852">
        <ele>149.126</ele>
        <time>2019-10-15T06:32:00Z</time>
      </trkpt>
      <trkpt lat="37.80772" lon="-8.31969">
        <ele>151.447</ele>
        <time>2019-10-15T06:32:20Z</time>
      </trkpt>
      <trkpt lat="37.80873" lon="-8.32095">
        <ele>148.411</ele>
        <time>2019-10-15T06:32:40Z</time>
      </trkpt>
      <trkpt lat="37.80965" lon="-8.32207">
        <ele>143.908</ele>
        <time>2019-10-15T06:33:00Z</time>
      </trkpt>
      <trkpt lat="37.81082" lon="-8.32339">
        <ele>141.066</ele>
        <time>2019-10-15T06:33:20Z</time>
      </trkpt>
      <trkpt lat="37.81233" lon="-8.32505">
        <ele>139.834</ele>
        <time>2019-10-15T06:33:40Z</time>
      </trkpt>
      <trkpt lat="37.81286" lon="-8.32565">
        <ele>138.196</ele>
        <time>2019-10-15T06:34:00Z</time>
      </trkpt>
      <trkpt lat="37.81343" lon="-8.3261">
        <ele>142.626</ele>
        <time>2019-10-15T06:34:20Z</time>
      </trkpt>
      <trkpt lat="37.81361" lon="-8.32627">
        <ele>144.088</ele>
        <time>2019-10-15T06:34:40Z</time>
      </trkpt>
      <trkpt lat="37.81369" lon="-8.32638">
        <ele>144.099</ele>
        <time>2019-10-15T06:35:00Z</time>
      </trkpt>
      <trkpt lat="37.8147" lon="-8.32775">
        <ele>138.371</ele>
        <time>2019-10-15T06:35:20Z</time>
      </trkpt>
      <trkpt lat="37.81506" lon="-8.32815">
        <ele>132.931</ele>
        <time>2019-10-15T06:35:40Z</time>
      </trkpt>
      <trkpt lat="37.81538" lon="-8.32853">
        <ele>129.729</ele>
        <time>2019-10-15T06:36:00Z</time>
      </trkpt>
      <trkpt lat="37.81543" lon="-8.32863">
        <ele>129.4</ele>
        <time>2019-10-15T06:36:20Z</time>
      </trkpt>
      <trkpt lat="37.81548" lon="-8.32874">
        <ele>129.32</ele>
        <time>2019-10-15T06:36:40Z</time>
      </trkpt>
      <trkpt lat="37.81551" lon="-8.32885">
        <ele>129.408</ele>
        <time>2019-10-15T06:37:00Z</time>
      </trkpt>
      <trkpt lat="37.81557" lon="-8.32909">
        <ele>128.166</ele>
        <time>2019-10-15T06:37:20Z</time>
      </trkpt>
      <trkpt lat="37.81579" lon="-8.32977">
        <ele>123.324</ele>
        <time>2019-10-15T06:37:40Z</time>
      </trkpt>
      <trkpt lat="37.81607" lon="-8.33035">
        <ele>121.336</ele>
        <time>2019-10-15T06:38:00Z</time>
      </trkpt>
      <trkpt lat="37.8162" lon="-8.33062">
        <ele>120.236</ele>
        <time>2019-10-15T06:38:20Z</time>
      </trkpt>
      <trkpt lat="37.81642" lon="-8.33123">
        <ele>117.078</ele>
        <time>2019-10-15T06:38:40Z</time>
      </trkpt>
      <trkpt lat="37.81653" lon="-8.33154">
        <ele>116.069</ele>
        <time>2019-10-15T06:39:00Z</time>
      </trkpt>
      <trkpt lat="37.81664" lon="-8.33185">
        <ele>114.481</ele>
        <time>2019-10-15T06:39:20Z</time>
      </trkpt>
      <trkpt lat="37.81724" lon="-8.33345">
        <ele>110.591</ele>
        <time>2019-10-15T06:39:40Z</time>
      </trkpt>
      <trkpt lat="37.81743" lon="-8.33396">
        <ele>107.143</ele>
        <time>2019-10-15T06:40:00Z</time>
      </trkpt>
      <trkpt lat="37.81763" lon="-8.33448">
        <ele>103.664</ele>
        <time>2019-10-15T06:40:20Z</time>
      </trkpt>
      <trkpt lat="37.81787" lon="-8.33516">
        <ele>101.01</ele>
        <time>2019-10-15T06:40:40Z</time>
      </trkpt>
      <trkpt lat="37.81799" lon="-8.33549">
        <ele>99.308</ele>
        <time>2019-10-15T06:41:00Z</time>
      </trkpt>
      <trkpt lat="37.81817" lon="-8.33598">
        <ele>97.548</ele>
        <time>2019-10-15T06:41:20Z</time>
      </trkpt>
      <trkpt lat="37.81846" lon="-8.33692">
        <ele>94.676</ele>
        <time>2019-10-15T06:41:40Z</time>
      </trkpt>
      <trkpt lat="37.81853" lon="-8.33774">
        <ele>92.038</ele>
        <time>2019-10-15T06:42:00Z</time>
      </trkpt>
      <trkpt lat="37.81854" lon="-8.33804">
        <ele>93.038</ele>
        <time>2019-10-15T06:42:20Z</time>
      </trkpt>
      <trkpt lat="37.81854" lon="-8.33821">
        <ele>93.17</ele>
        <time>2019-10-15T06:42:40Z</time>
      </trkpt>
      <trkpt lat="37.81854" lon="-8.33828">
        <ele>93.281</ele>
        <time>2019-10-15T06:43:00Z</time>
      </trkpt>
      <trkpt lat="37.81855" lon="-8.33875">
        <ele>93.183</ele>
        <time>2019-10-15T06:43:20Z</time>
      </trkpt>
      <trkpt lat="37.81857" lon="-8.33918">
        <ele>93.923</ele>
        <time>2019-10-15T06:43:40Z</time>
      </trkpt>
      <trkpt lat="37.81863" lon="-8.34019">
        <ele>92.565</ele>
        <time>2019-10-15T06:44:00Z</time>
      </trkpt>
      <trkpt lat="37.81872" lon="-8.34195">
        <ele>92.868</ele>
        <time>2019-10-15T06:44:20Z</time>
      </trkpt>
      <trkpt lat="37.81878" lon="-8.3435">
        <ele>90.314</ele>
        <time>2019-10-15T06:44:40Z</time>
      </trkpt>
      <trkpt lat="37.8188" lon="-8.34364">
        <ele>90.008</ele>
        <time>2019-10-15T06:45:00Z</time>
      </trkpt>
      <trkpt lat="37.81883" lon="-8.34378">
        <ele>90.01</ele>
        <time>2019-10-15T06:45:20Z</time>
      </trkpt>
      <trkpt lat="37.81927" lon="-8.34482">
        <ele>92.278</ele>
        <time>2019-10-15T06:45:40Z</time>
      </trkpt>
      <trkpt lat="37.81985" lon="-8.34608">
        <ele>93.99</ele>
        <time>2019-10-15T06:46:00Z</time>
      </trkpt>
      <trkpt lat="37.81992" lon="-8.34619">
        <ele>94.48</ele>
        <time>2019-10-15T06:46:20Z</time>
      </trkpt>
      <trkpt lat="37.82001" lon="-8.34628">
        <ele>95.082</ele>
        <time>2019-10-15T06:46:40Z</time>
      </trkpt>
      <trkpt lat="37.82024" lon="-8.34652">
        <ele>95.473</ele>
        <time>2019-10-15T06:47:00Z</time>
      </trkpt>
      <trkpt lat="37.82029" lon="-8.34659">
        <ele>95.365</ele>
        <time>2019-10-15T06:47:20Z</time>
      </trkpt>
      <trkpt lat="37.82031" lon="-8.34666">
        <ele>95.055</ele>
        <time>2019-10-15T06:47:40Z</time>
      </trkpt>
      <trkpt lat="37.82032" lon="-8.34673">
        <ele>94.675</ele>
        <time>2019-10-15T06:48:00Z</time>
      </trkpt>
      <trkpt lat="37.82033" lon="-8.3468">
        <ele>94.028</ele>
        <time>2019-10-15T06:48:20Z</time>
      </trkpt>
      <trkpt lat="37.82034" lon="-8.34688">
        <ele>93.42</ele>
        <time>2019-10-15T06:48:40Z</time>
      </trkpt>
      <trkpt lat="37.82049" lon="-8.34757">
        <ele>89.808</ele>
        <time>2019-10-15T06:49:00Z</time>
      </trkpt>
      <trkpt lat="37.82054" lon="-8.3477">
        <ele>90.081</ele>
        <time>2019-10-15T06:49:20Z</time>
      </trkpt>
      <trkpt lat="37.82117" lon="-8.34907">
        <ele>86.679</ele>
        <time>2019-10-15T06:49:40Z</time>
      </trkpt>
      <trkpt lat="37.82159" lon="-8.35">
        <ele>84.071</ele>
        <time>2019-10-15T06:50:00Z</time>
      </trkpt>
      <trkpt lat="37.82189" lon="-8.35068">
        <ele>80.141</ele>
        <time>2019-10-15T06:50:20Z</time>
      </trkpt>
      <trkpt lat="37.82197" lon="-8.35084">
        <ele>80.133</ele>
        <time>2019-10-15T06:50:40Z</time>
      </trkpt>
      <trkpt lat="37.82316" lon="-8.35349">
        <ele>79.254</ele>
        <time>2019-10-15T06:51:00Z</time>
      </trkpt>
      <trkpt lat="37.82455" lon="-8.35658">
        <ele>74.146</ele>
        <time>2019-10-15T06:51:20Z</time>
      </trkpt>
      <trkpt lat="37.8249" lon="-8.35737">
        <ele>75.126</ele>
        <time>2019-10-15T06:51:40Z</time>
      </trkpt>
      <trkpt lat="37.82492" lon="-8.35748">
        <ele>75.416</ele>
        <time>2019-10-15T06:52:00Z</time>
      </trkpt>
      <trkpt lat="37.82493" lon="-8.35759">
        <ele>76.076</ele>
        <time>2019-10-15T06:52:20Z</time>
      </trkpt>
      <trkpt lat="37.82493" lon="-8.35772">
        <ele>76.813</ele>
        <time>2019-10-15T06:52:40Z</time>
      </trkpt>
      <trkpt lat="37.82492" lon="-8.35784">
        <ele>77.208</ele>
        <time>2019-10-15T06:53:00Z</time>
      </trkpt>
      <trkpt lat="37.82493" lon="-8.35808">
        <ele>77.435</ele>
        <time>2019-10-15T06:53:20Z</time>
      </trkpt>
      <trkpt lat="37.82495" lon="-8.3582">
        <ele>77.263</ele>
        <time>2019-10-15T06:53:40Z</time>
      </trkpt>
      <trkpt lat="37.82502" lon="-8.35843">
        <ele>76.855</ele>
        <time>2019-10-15T06:54:00Z</time>
      </trkpt>
      <trkpt lat="37.82508" lon="-8.35853">
        <ele>76.695</ele>
        <time>2019-10-15T06:54:20Z</time>
      </trkpt>
      <trkpt lat="37.82516" lon="-8.35863">
        <ele>76.587</ele>
        <time>2019-10-15T06:54:40Z</time>
      </trkpt>
      <trkpt lat="37.82525" lon="-8.35871">
        <ele>76.668</ele>
        <time>2019-10-15T06:55:00Z</time>
      </trkpt>
      <trkpt lat="37.82536" lon="-8.35879">
        <ele>76.91</ele>
        <time>2019-10-15T06:55:20Z</time>
      </trkpt>
      <trkpt lat="37.82555" lon="-8.35896">
        <ele>77.77</ele>
        <time>2019-10-15T06:55:40Z</time>
      </trkpt>
      <trkpt lat="37.82564" lon="-8.35906">
        <ele>77.718</ele>
        <time>2019-10-15T06:56:00Z</time>
      </trkpt>
      <trkpt lat="37.82572" lon="-8.35917">
        <ele>77.698</ele>
        <time>2019-10-15T06:56:20Z</time>
      </trkpt>
      <trkpt lat="37.82579" lon="-8.35931">
        <ele>77.817</ele>
        <time>2019-10-15T06:56:40Z</time>
      </trkpt>
      <trkpt lat="37.82585" lon="-8.35945">
        <ele>78.108</ele>
        <time>2019-10-15T06:57:00Z</time>
      </trkpt>
      <trkpt lat="37.82629" lon="-8.36035">
        <ele>80.555</ele>
        <time>2019-10-15T06:57:20Z</time>
      </trkpt>
      <trkpt lat="37.82642" lon="-8.36058">
        <ele>80.933</ele>
        <time>2019-10-15T06:57:40Z</time>
      </trkpt>
      <trkpt lat="37.82649" lon="-8.36065">
        <ele>80.525</ele>
        <time>2019-10-15T06:58:00Z</time>
      </trkpt>
      <trkpt lat="37.82657" lon="-8.36073">
        <ele>80.025</ele>
        <time>2019-10-15T06:58:20Z</time>
      </trkpt>
      <trkpt lat="37.82742" lon="-8.36133">
        <ele>81.977</ele>
        <time>2019-10-15T06:58:40Z</time>
      </trkpt>
      <trkpt lat="37.82755" lon="-8.36141">
        <ele>82.118</ele>
        <time>2019-10-15T06:59:00Z</time>
      </trkpt>
      <trkpt lat="37.82883" lon="-8.36228">
        <ele>74.85</ele>
        <time>2019-10-15T06:59:20Z</time>
      </trkpt>
      <trkpt lat="37.82918" lon="-8.36249">
        <ele>74.09</ele>
        <time>2019-10-15T06:59:40Z</time>
      </trkpt>
      <trkpt lat="37.82939" lon="-8.3626">
        <ele>73.975</ele>
        <time>2019-10-15T07:00:00Z</time>
      </trkpt>
      <trkpt lat="37.82948" lon="-8.36266">
        <ele>74.128</ele>
        <time>2019-10-15T07:00:20Z</time>
      </trkpt>
      <trkpt lat="37.82957" lon="-8.36275">
        <ele>74.52</ele>
        <time>2019-10-15T07:00:40Z</time>
      </trkpt>
      <trkpt lat="37.82966" lon="-8.36285">
        <ele>74.508</ele>
        <time>2019-10-15T07:01:00Z</time>
      </trkpt>
      <trkpt lat="37.82975" lon="-8.36296">
        <ele>74.461</ele>
        <time>2019-10-15T07:01:20Z</time>
      </trkpt>
      <trkpt lat="37.8305" lon="-8.36379">
        <ele>71.419</ele>
        <time>2019-10-15T07:01:40Z</time>
      </trkpt>
      <trkpt lat="37.8306" lon="-8.36388">
        <ele>71.341</ele>
        <time>2019-10-15T07:02:00Z</time>
      </trkpt>
      <trkpt lat="37.83075" lon="-8.36401">
        <ele>71.391</ele>
        <time>2019-10-15T07:02:20Z</time>
      </trkpt>
      <trkpt lat="37.83079" lon="-8.36407">
        <ele>71.053</ele>
        <time>2019-10-15T07:02:40Z</time>
      </trkpt>
      <trkpt lat="37.83082" lon="-8.36412">
        <ele>70.564</ele>
        <time>2019-10-15T07:03:00Z</time>
      </trkpt>
      <trkpt lat="37.83083" lon="-8.36417">
        <ele>70.036</ele>
        <time>2019-10-15T07:03:20Z</time>
      </trkpt>
      <trkpt lat="37.83089" lon="-8.3644">
        <ele>69.246</ele>
        <time>2019-10-15T07:03:40Z</time>
      </trkpt>
      <trkpt lat="37.83103" lon="-8.36499">
        <ele>69.096</ele>
        <time>2019-10-15T07:04:00Z</time>
      </trkpt>
      <trkpt lat="37.83113" lon="-8.36536">
        <ele>68.731</ele>
        <time>2019-10-15T07:04:20Z</time>
      </trkpt>
      <trkpt lat="37.83116" lon="-8.36542">
        <ele>68.624</ele>
        <time>2019-10-15T07:04:40Z</time>
      </trkpt>
      <trkpt lat="37.8312" lon="-8.36544">
        <ele>68.608</ele>
        <time>2019-10-15T07:05:00Z</time>
      </trkpt>
      <trkpt lat="37.83125" lon="-8.36543">
        <ele>68.773</ele>
        <time>2019-10-15T07:05:20Z</time>
      </trkpt>
      <trkpt lat="37.83132" lon="-8.36541">
        <ele>68.981</ele>
        <time>2019-10-15T07:05:40Z</time>
      </trkpt>
      <trkpt lat="37.83139" lon="-8.36539">
        <ele>69.033</ele>
        <time>2019-10-15T07:06:00Z</time>
      </trkpt>
      <trkpt lat="37.83147" lon="-8.36537">
        <ele>69.283</ele>
        <time>2019-10-15T07:06:20Z</time>
      </trkpt>
      <trkpt lat="37.832" lon="-8.36514">
        <ele>69.445</ele>
        <time>2019-10-15T07:06:40Z</time>
      </trkpt>
      <trkpt lat="37.83205" lon="-8.36514">
        <ele>69.396</ele>
        <time>2019-10-15T07:07:00Z</time>
      </trkpt>
      <trkpt lat="37.83209" lon="-8.36516">
        <ele>69.258</ele>
        <time>2019-10-15T07:07:20Z</time>
      </trkpt>
      <trkpt lat="37.83213" lon="-8.36519">
        <ele>69.168</ele>
        <time>2019-10-15T07:07:40Z</time>
      </trkpt>
      <trkpt lat="37.83216" lon="-8.36525">
        <ele>69.086</ele>
        <time>2019-10-15T07:08:00Z</time>
      </trkpt>
      <trkpt lat="37.83218" lon="-8.36531">
        <ele>69.06</ele>
        <time>2019-10-15T07:08:20Z</time>
      </trkpt>
      <trkpt lat="37.8322" lon="-8.36538">
        <ele>69.026</ele>
        <time>2019-10-15T07:08:40Z</time>
      </trkpt>
      <trkpt lat="37.83222" lon="-8.36546">
        <ele>69.008</ele>
        <time>2019-10-15T07:09:00Z</time>
      </trkpt>
      <trkpt lat="37.83224" lon="-8.36555">
        <ele>69.082</ele>
        <time>2019-10-15T07:09:20Z</time>
      </trkpt>
      <trkpt lat="37.83228" lon="-8.3657">
        <ele>69.19</ele>
        <time>2019-10-15T07:09:40Z</time>
      </trkpt>
      <trkpt lat="37.8324" lon="-8.36599">
        <ele>68.812</ele>
        <time>2019-10-15T07:10:00Z</time>
      </trkpt>
      <trkpt lat="37.83245" lon="-8.36604">
        <ele>68.952</ele>
        <time>2019-10-15T07:10:20Z</time>
      </trkpt>
      <trkpt lat="37.83251" lon="-8.36609">
        <ele>69.074</ele>
        <time>2019-10-15T07:10:40Z</time>
      </trkpt>
      <trkpt lat="37.8332" lon="-8.36668">
        <ele>66.945</ele>
        <time>2019-10-15T07:11:00Z</time>
      </trkpt>
      <trkpt lat="37.83374" lon="-8.36707">
        <ele>66.597</ele>
        <time>2019-10-15T07:11:20Z</time>
      </trkpt>
      <trkpt lat="37.8338" lon="-8.36711">
        <ele>66.717</ele>
        <time>2019-10-15T07:11:40Z</time>
      </trkpt>
      <trkpt lat="37.83385" lon="-8.36716">
        <ele>66.983</ele>
        <time>2019-10-15T07:12:00Z</time>
      </trkpt>
      <trkpt lat="37.83384" lon="-8.36717">
        <ele>66.825</ele>
        <time>2019-10-15T07:12:20Z</time>
      </trkpt>
      <trkpt lat="37.83383" lon="-8.36716">
        <ele>66.817</ele>
        <time>2019-10-15T07:12:40Z</time>
      </trkpt>
      <trkpt lat="37.83384" lon="-8.36716">
        <ele>66.808</ele>
        <time>2019-10-15T07:13:00Z</time>
      </trkpt>
      <trkpt lat="37.83412" lon="-8.36728">
        <ele>67.062</ele>
        <time>2019-10-15T07:13:20Z</time>
      </trkpt>
      <trkpt lat="37.83425" lon="-8.36732">
        <ele>66.75</ele>
        <time>2019-10-15T07:13:40Z</time>
      </trkpt>
      <trkpt lat="37.83512" lon="-8.36752">
        <ele>65.372</ele>
        <time>2019-10-15T07:14:00Z</time>
      </trkpt>
      <trkpt lat="37.83611" lon="-8.36782">
        <ele>65.842</ele>
        <time>2019-10-15T07:14:20Z</time>
      </trkpt>
      <trkpt lat="37.83651" lon="-8.36801">
        <ele>65.354</ele>
        <time>2019-10-15T07:14:40Z</time>
      </trkpt>
      <trkpt lat="37.83709" lon="-8.36818">
        <ele>64.645</ele>
        <time>2019-10-15T07:15:00Z</time>
      </trkpt>
      <trkpt lat="37.83713" lon="-8.3682">
        <ele>64.527</ele>
        <time>2019-10-15T07:15:20Z</time>
      </trkpt>
      <trkpt lat="37.83716" lon="-8.36823">
        <ele>64.497</ele>
        <time>2019-10-15T07:15:40Z</time>
      </trkpt>
      <trkpt lat="37.83718" lon="-8.36826">
        <ele>64.392</ele>
        <time>2019-10-15T07:16:00Z</time>
      </trkpt>
      <trkpt lat="37.83719" lon="-8.36831">
        <ele>64.173</ele>
        <time>2019-10-15T07:16:20Z</time>
      </trkpt>
      <trkpt lat="37.83719" lon="-8.36835">
        <ele>64.02</ele>
        <time>2019-10-15T07:16:40Z</time>
      </trkpt>
      <trkpt lat="37.83723" lon="-8.36897">
        <ele>65.308</ele>
        <time>2019-10-15T07:17:00Z</time>
      </trkpt>
      <trkpt lat="37.83726" lon="-8.36912">
        <ele>65.733</ele>
        <time>2019-10-15T07:17:20Z</time>
      </trkpt>
      <trkpt lat="37.8373" lon="-8.36928">
        <ele>65.411</ele>
        <time>2019-10-15T07:17:40Z</time>
      </trkpt>
      <trkpt lat="37.83736" lon="-8.36943">
        <ele>65.053</ele>
        <time>2019-10-15T07:18:00Z</time>
      </trkpt>
      <trkpt lat="37.83757" lon="-8.36994">
        <ele>64.713</ele>
        <time>2019-10-15T07:18:20Z</time>
      </trkpt>
      <trkpt lat="37.83763" lon="-8.37003">
        <ele>65.485</ele>
        <time>2019-10-15T07:18:40Z</time>
      </trkpt>
      <trkpt lat="37.83769" lon="-8.3701">
        <ele>66.216</ele>
        <time>2019-10-15T07:19:00Z</time>
      </trkpt>
      <trkpt lat="37.83777" lon="-8.37014">
        <ele>66.978</ele>
        <time>2019-10-15T07:19:20Z</time>
      </trkpt>
      <trkpt lat="37.83785" lon="-8.37015">
        <ele>67.028</ele>
        <time>2019-10-15T07:19:40Z</time>
      </trkpt>
      <trkpt lat="37.83795" lon="-8.37014">
        <ele>67.089</ele>
        <time>2019-10-15T07:20:00Z</time>
      </trkpt>
      <trkpt lat="37.83807" lon="-8.37012">
        <ele>66.906</ele>
        <time>2019-10-15T07:20:20Z</time>
      </trkpt>
      <trkpt lat="37.83862" lon="-8.37005">
        <ele>64.226</ele>
        <time>2019-10-15T07:20:40Z</time>
      </trkpt>
      <trkpt lat="37.83979" lon="-8.36994">
        <ele>65.908</ele>
        <time>2019-10-15T07:21:00Z</time>
      </trkpt>
      <trkpt lat="37.84163" lon="-8.36988">
        <ele>68.072</ele>
        <time>2019-10-15T07:21:20Z</time>
      </trkpt>
      <trkpt lat="37.84305" lon="-8.36944">
        <ele>68.03</ele>
        <time>2019-10-15T07:21:40Z</time>
      </trkpt>
      <trkpt lat="37.8436" lon="-8.36925">
        <ele>68.572</ele>
        <time>2019-10-15T07:22:00Z</time>
      </trkpt>
      <trkpt lat="37.84396" lon="-8.36908">
        <ele>67.712</ele>
        <time>2019-10-15T07:22:20Z</time>
      </trkpt>
      <trkpt lat="37.844" lon="-8.36903">
        <ele>67.684</ele>
        <time>2019-10-15T07:22:40Z</time>
      </trkpt>
      <trkpt lat="37.84402" lon="-8.36897">
        <ele>67.525</ele>
        <time>2019-10-15T07:23:00Z</time>
      </trkpt>
      <trkpt lat="37.84403" lon="-8.36893">
        <ele>67.517</ele>
        <time>2019-10-15T07:23:20Z</time>
      </trkpt>
      <trkpt lat="37.84402" lon="-8.36888">
        <ele>67.547</ele>
        <time>2019-10-15T07:23:40Z</time>
      </trkpt>
      <trkpt lat="37.84402" lon="-8.36884">
        <ele>67.412</ele>
        <time>2019-10-15T07:24:00Z</time>
      </trkpt>
      <trkpt lat="37.84401" lon="-8.3688">
        <ele>67.432</ele>
        <time>2019-10-15T07:24:20Z</time>
      </trkpt>
      <trkpt lat="37.844" lon="-8.36877">
        <ele>67.305</ele>
        <time>2019-10-15T07:24:40Z</time>
      </trkpt>
      <trkpt lat="37.844" lon="-8.36874">
        <ele>67.308</ele>
        <time>2019-10-15T07:25:00Z</time>
      </trkpt>
      <trkpt lat="37.84399" lon="-8.36871">
        <ele>67.245</ele>
        <time>2019-10-15T07:25:20Z</time>
      </trkpt>
      <trkpt lat="37.84399" lon="-8.36868">
        <ele>67.113</ele>
        <time>2019-10-15T07:25:40Z</time>
      </trkpt>
      <trkpt lat="37.84398" lon="-8.36855">
        <ele>66.915</ele>
        <time>2019-10-15T07:26:00Z</time>
      </trkpt>
      <trkpt lat="37.84393" lon="-8.368">
        <ele>65.085</ele>
        <time>2019-10-15T07:26:20Z</time>
      </trkpt>
      <trkpt lat="37.8439" lon="-8.36785">
        <ele>64.357</ele>
        <time>2019-10-15T07:26:40Z</time>
      </trkpt>
      <trkpt lat="37.84391" lon="-8.36764">
        <ele>64.118</ele>
        <time>2019-10-15T07:27:00Z</time>
      </trkpt>
      <trkpt lat="37.84393" lon="-8.3676">
        <ele>64.19</ele>
        <time>2019-10-15T07:27:20Z</time>
      </trkpt>
      <trkpt lat="37.844" lon="-8.36757">
        <ele>64.22</ele>
        <time>2019-10-15T07:27:40Z</time>
      </trkpt>
      <trkpt lat="37.84402" lon="-8.36759">
        <ele>64.327</ele>
        <time>2019-10-15T07:28:00Z</time>
      </trkpt>
      <trkpt lat="37.84403" lon="-8.36764">
        <ele>64.568</ele>
        <time>2019-10-15T07:28:20Z</time>
      </trkpt>
      <trkpt lat="37.84403" lon="-8.36769">
        <ele>64.714</ele>
        <time>2019-10-15T07:28:40Z</time>
      </trkpt>
      <trkpt lat="37.84404" lon="-8.36775">
        <ele>65.008</ele>
        <time>2019-10-15T07:29:00Z</time>
      </trkpt>
      <trkpt lat="37.84412" lon="-8.36816">
        <ele>66.216</ele>
        <time>2019-10-15T07:29:20Z</time>
      </trkpt>
      <trkpt lat="37.84416" lon="-8.36839">
        <ele>67.014</ele>
        <time>2019-10-15T07:29:40Z</time>
      </trkpt>
      <trkpt lat="37.84426" lon="-8.36895">
        <ele>66.816</ele>
        <time>2019-10-15T07:30:00Z</time>
      </trkpt>
      <trkpt lat="37.84447" lon="-8.37025">
        <ele>71.926</ele>
        <time>2019-10-15T07:30:20Z</time>
      </trkpt>
      <trkpt lat="37.84448" lon="-8.37038">
        <ele>72.358</ele>
        <time>2019-10-15T07:30:40Z</time>
      </trkpt>
      <trkpt lat="37.8445" lon="-8.37042">
        <ele>72.439</ele>
        <time>2019-10-15T07:31:00Z</time>
      </trkpt>
      <trkpt lat="37.84464" lon="-8.37038">
        <ele>72.121</ele>
        <time>2019-10-15T07:31:20Z</time>
      </trkpt>
      <trkpt lat="37.84518" lon="-8.36975">
        <ele>69.391</ele>
        <time>2019-10-15T07:31:40Z</time>
      </trkpt>
      <trkpt lat="37.84539" lon="-8.36952">
        <ele>68.324</ele>
        <time>2019-10-15T07:32:00Z</time>
      </trkpt>
      <trkpt lat="37.84628" lon="-8.36922">
        <ele>68.904</ele>
        <time>2019-10-15T07:32:20Z</time>
      </trkpt>
      <trkpt lat="37.84666" lon="-8.36932">
        <ele>70.514</ele>
        <time>2019-10-15T07:32:40Z</time>
      </trkpt>
      <trkpt lat="37.84734" lon="-8.36954">
        <ele>70.008</ele>
        <time>2019-10-15T07:33:00Z</time>
      </trkpt>
      <trkpt lat="37.84773" lon="-8.3697">
        <ele>70.886</ele>
        <time>2019-10-15T07:33:20Z</time>
      </trkpt>
      <trkpt lat="37.8487" lon="-8.37059">
        <ele>71.464</ele>
        <time>2019-10-15T07:33:40Z</time>
      </trkpt>
      <trkpt lat="37.84935" lon="-8.3713">
        <ele>71.916</ele>
        <time>2019-10-15T07:34:00Z</time>
      </trkpt>
      <trkpt lat="37.84987" lon="-8.37196">
        <ele>70.536</ele>
        <time>2019-10-15T07:34:20Z</time>
      </trkpt>
      <trkpt lat="37.84999" lon="-8.37197">
        <ele>71.028</ele>
        <time>2019-10-15T07:34:40Z</time>
      </trkpt>
      <trkpt lat="37.85085" lon="-8.37202">
        <ele>66.519</ele>
        <time>2019-10-15T07:35:00Z</time>
      </trkpt>
      <trkpt lat="37.85163" lon="-8.37226">
        <ele>68.041</ele>
        <time>2019-10-15T07:35:20Z</time>
      </trkpt>
      <trkpt lat="37.8519" lon="-8.37229">
        <ele>69.131</ele>
        <time>2019-10-15T07:35:40Z</time>
      </trkpt>
      <trkpt lat="37.85227" lon="-8.37235">
        <ele>70.014</ele>
        <time>2019-10-15T07:36:00Z</time>
      </trkpt>
      <trkpt lat="37.85363" lon="-8.37268">
        <ele>73.754</ele>
        <time>2019-10-15T07:36:20Z</time>
      </trkpt>
      <trkpt lat="37.85438" lon="-8.37272">
        <ele>74.009</ele>
        <time>2019-10-15T07:36:40Z</time>
      </trkpt>
      <trkpt lat="37.85477" lon="-8.37266">
        <ele>73.208</ele>
        <time>2019-10-15T07:37:00Z</time>
      </trkpt>
      <trkpt lat="37.85575" lon="-8.37225">
        <ele>72.075</ele>
        <time>2019-10-15T07:37:20Z</time>
      </trkpt>
      <trkpt lat="37.85659" lon="-8.37219">
        <ele>70.833</ele>
        <time>2019-10-15T07:37:40Z</time>
      </trkpt>
      <trkpt lat="37.85694" lon="-8.37236">
        <ele>71.525</ele>
        <time>2019-10-15T07:38:00Z</time>
      </trkpt>
      <trkpt lat="37.85731" lon="-8.37248">
        <ele>72.635</ele>
        <time>2019-10-15T07:38:20Z</time>
      </trkpt>
      <trkpt lat="37.85807" lon="-8.37247">
        <ele>68.847</ele>
        <time>2019-10-15T07:38:40Z</time>
      </trkpt>
      <trkpt lat="37.85841" lon="-8.37236">
        <ele>66.268</ele>
        <time>2019-10-15T07:39:00Z</time>
      </trkpt>
      <trkpt lat="37.85861" lon="-8.37229">
        <ele>65.26</ele>
        <time>2019-10-15T07:39:20Z</time>
      </trkpt>
      <trkpt lat="37.85961" lon="-8.3721">
        <ele>66.72</ele>
        <time>2019-10-15T07:39:40Z</time>
      </trkpt>
      <trkpt lat="37.86004" lon="-8.37184">
        <ele>64.256</ele>
        <time>2019-10-15T07:40:00Z</time>
      </trkpt>
      <trkpt lat="37.86091" lon="-8.37067">
        <ele>61.459</ele>
        <time>2019-10-15T07:40:20Z</time>
      </trkpt>
      <trkpt lat="37.86096" lon="-8.3706">
        <ele>61.514</ele>
        <time>2019-10-15T07:40:40Z</time>
      </trkpt>
      <trkpt lat="37.86155" lon="-8.37052">
        <ele>63.108</ele>
        <time>2019-10-15T07:41:00Z</time>
      </trkpt>
      <trkpt lat="37.86216" lon="-8.37059">
        <ele>69.439</ele>
        <time>2019-10-15T07:41:20Z</time>
      </trkpt>
      <trkpt lat="37.86265" lon="-8.37053">
        <ele>67.717</ele>
        <time>2019-10-15T07:41:40Z</time>
      </trkpt>
      <trkpt lat="37.86275" lon="-8.37048">
        <ele>66.479</ele>
        <time>2019-10-15T07:42:00Z</time>
      </trkpt>
      <trkpt lat="37.86296" lon="-8.37039">
        <ele>65.669</ele>
        <time>2019-10-15T07:42:20Z</time>
      </trkpt>
      <trkpt lat="37.86319" lon="-8.37036">
        <ele>65.611</ele>
        <time>2019-10-15T07:42:40Z</time>
      </trkpt>
      <trkpt lat="37.86343" lon="-8.37036">
        <ele>65.922</ele>
        <time>2019-10-15T07:43:00Z</time>
      </trkpt>
      <trkpt lat="37.86422" lon="-8.37026">
        <ele>71.874</ele>
        <time>2019-10-15T07:43:20Z</time>
      </trkpt>
      <trkpt lat="37.8651" lon="-8.37001">
        <ele>70.714</ele>
        <time>2019-10-15T07:43:40Z</time>
      </trkpt>
      <trkpt lat="37.86618" lon="-8.36955">
        <ele>69.433</ele>
        <time>2019-10-15T07:44:00Z</time>
      </trkpt>
      <trkpt lat="37.86661" lon="-8.36939">
        <ele>67.223</ele>
        <time>2019-10-15T07:44:20Z</time>
      </trkpt>
      <trkpt lat="37.86742" lon="-8.36908">
        <ele>64.015</ele>
        <time>2019-10-15T07:44:40Z</time>
      </trkpt>
      <trkpt lat="37.86779" lon="-8.36911">
        <ele>64.608</ele>
        <time>2019-10-15T07:45:00Z</time>
      </trkpt>
      <trkpt lat="37.8688" lon="-8.36941">
        <ele>67.377</ele>
        <time>2019-10-15T07:45:20Z</time>
      </trkpt>
      <trkpt lat="37.86998" lon="-8.36963">
        <ele>63.325</ele>
        <time>2019-10-15T07:45:40Z</time>
      </trkpt>
      <trkpt lat="37.87081" lon="-8.36991">
        <ele>62.717</ele>
        <time>2019-10-15T07:46:00Z</time>
      </trkpt>
      <trkpt lat="37.87172" lon="-8.37009">
        <ele>62.837</ele>
        <time>2019-10-15T07:46:20Z</time>
      </trkpt>
      <trkpt lat="37.8727" lon="-8.37041">
        <ele>66.199</ele>
        <time>2019-10-15T07:46:40Z</time>
      </trkpt>
      <trkpt lat="37.87307" lon="-8.37051">
        <ele>66.46</ele>
        <time>2019-10-15T07:47:00Z</time>
      </trkpt>
      <trkpt lat="37.8733" lon="-8.37051">
        <ele>64.052</ele>
        <time>2019-10-15T07:47:20Z</time>
      </trkpt>
      <trkpt lat="37.87335" lon="-8.3705">
        <ele>63.692</ele>
        <time>2019-10-15T07:47:40Z</time>
      </trkpt>
      <trkpt lat="37.87339" lon="-8.37047">
        <ele>63.529</ele>
        <time>2019-10-15T07:48:00Z</time>
      </trkpt>
      <trkpt lat="37.87354" lon="-8.3704">
        <ele>63.3</ele>
        <time>2019-10-15T07:48:20Z</time>
      </trkpt>
      <trkpt lat="37.87359" lon="-8.3704">
        <ele>63.42</ele>
        <time>2019-10-15T07:48:40Z</time>
      </trkpt>
      <trkpt lat="37.87363" lon="-8.37041">
        <ele>63.508</ele>
        <time>2019-10-15T07:49:00Z</time>
      </trkpt>
      <trkpt lat="37.874" lon="-8.37046">
        <ele>64.676</ele>
        <time>2019-10-15T07:49:20Z</time>
      </trkpt>
      <trkpt lat="37.87405" lon="-8.37046">
        <ele>64.754</ele>
        <time>2019-10-15T07:49:40Z</time>
      </trkpt>
      <trkpt lat="37.87424" lon="-8.37047">
        <ele>64.766</ele>
        <time>2019-10-15T07:50:00Z</time>
      </trkpt>
      <trkpt lat="37.8746" lon="-8.37062">
        <ele>64.686</ele>
        <time>2019-10-15T07:50:20Z</time>
      </trkpt>
      <trkpt lat="37.87497" lon="-8.37095">
        <ele>65.068</ele>
        <time>2019-10-15T07:50:40Z</time>
      </trkpt>
      <trkpt lat="37.87564" lon="-8.37104">
        <ele>65.119</ele>
        <time>2019-10-15T07:51:00Z</time>
      </trkpt>
      <trkpt lat="37.87604" lon="-8.37107">
        <ele>66.521</ele>
        <time>2019-10-15T07:51:20Z</time>
      </trkpt>
      <trkpt lat="37.87649" lon="-8.37086">
        <ele>67.561</ele>
        <time>2019-10-15T07:51:40Z</time>
      </trkpt>
      <trkpt lat="37.87705" lon="-8.37067">
        <ele>66.831</ele>
        <time>2019-10-15T07:52:00Z</time>
      </trkpt>
      <trkpt lat="37.87734" lon="-8.37052">
        <ele>66.261</ele>
        <time>2019-10-15T07:52:20Z</time>
      </trkpt>
      <trkpt lat="37.87797" lon="-8.37048">
        <ele>67.707</ele>
        <time>2019-10-15T07:52:40Z</time>
      </trkpt>
      <trkpt lat="37.87886" lon="-8.37054">
        <ele>64.808</ele>
        <time>2019-10-15T07:53:00Z</time>
      </trkpt>
      <trkpt lat="37.87927" lon="-8.37073">
        <ele>66.397</ele>
        <time>2019-10-15T07:53:20Z</time>
      </trkpt>
      <trkpt lat="37.87984" lon="-8.37089">
        <ele>66.095</ele>
        <time>2019-10-15T07:53:40Z</time>
      </trkpt>
      <trkpt lat="37.8802" lon="-8.37103">
        <ele>64.897</ele>
        <time>2019-10-15T07:54:00Z</time>
      </trkpt>
      <trkpt lat="37.88103" lon="-8.37098">
        <ele>63.547</ele>
        <time>2019-10-15T07:54:20Z</time>
      </trkpt>
      <trkpt lat="37.8826" lon="-8.37019">
        <ele>61.969</ele>
        <time>2019-10-15T07:54:40Z</time>
      </trkpt>
      <trkpt lat="37.88324" lon="-8.36989">
        <ele>62.06</ele>
        <time>2019-10-15T07:55:00Z</time>
      </trkpt>
      <trkpt lat="37.88365" lon="-8.36981">
        <ele>61.642</ele>
        <time>2019-10-15T07:55:20Z</time>
      </trkpt>
      <trkpt lat="37.88439" lon="-8.3699">
        <ele>62.672</ele>
        <time>2019-10-15T07:55:40Z</time>
      </trkpt>
      <trkpt lat="37.88455" lon="-8.36989">
        <ele>63.098</ele>
        <time>2019-10-15T07:56:00Z</time>
      </trkpt>
      <trkpt lat="37.88452" lon="-8.36991">
        <ele>62.915</ele>
        <time>2019-10-15T07:56:20Z</time>
      </trkpt>
      <trkpt lat="37.88453" lon="-8.36991">
        <ele>63.026</ele>
        <time>2019-10-15T07:56:40Z</time>
      </trkpt>
      <trkpt lat="37.8846" lon="-8.36992">
        <ele>63.208</ele>
        <time>2019-10-15T07:57:00Z</time>
      </trkpt>
      <trkpt lat="37.8846" lon="-8.36989">
        <ele>63.143</ele>
        <time>2019-10-15T07:57:20Z</time>
      </trkpt>
      <trkpt lat="37.88459" lon="-8.3699">
        <ele>63.221</ele>
        <time>2019-10-15T07:57:40Z</time>
      </trkpt>
      <trkpt lat="37.8846" lon="-8.36991">
        <ele>63.333</ele>
        <time>2019-10-15T07:58:00Z</time>
      </trkpt>
      <trkpt lat="37.88465" lon="-8.36991">
        <ele>63.433</ele>
        <time>2019-10-15T07:58:20Z</time>
      </trkpt>
      <trkpt lat="37.88492" lon="-8.36981">
        <ele>64.025</ele>
        <time>2019-10-15T07:58:40Z</time>
      </trkpt>
      <trkpt lat="37.88516" lon="-8.36976">
        <ele>64.256</ele>
        <time>2019-10-15T07:59:00Z</time>
      </trkpt>
      <trkpt lat="37.8862" lon="-8.36952">
        <ele>64.748</ele>
        <time>2019-10-15T07:59:20Z</time>
      </trkpt>
      <trkpt lat="37.8864" lon="-8.36945">
        <ele>64.178</ele>
        <time>2019-10-15T07:59:40Z</time>
      </trkpt>
      <trkpt lat="37.88736" lon="-8.36956">
        <ele>66.563</ele>
        <time>2019-10-15T08:00:00Z</time>
      </trkpt>
      <trkpt lat="37.88774" lon="-8.3696">
        <ele>64.444</ele>
        <time>2019-10-15T08:00:20Z</time>
      </trkpt>
      <trkpt lat="37.8883" lon="-8.36959">
        <ele>58.718</ele>
        <time>2019-10-15T08:00:40Z</time>
      </trkpt>
      <trkpt lat="37.88863" lon="-8.36975">
        <ele>61.408</ele>
        <time>2019-10-15T08:01:00Z</time>
      </trkpt>
      <trkpt lat="37.88894" lon="-8.36974">
        <ele>64.44</ele>
        <time>2019-10-15T08:01:20Z</time>
      </trkpt>
      <trkpt lat="37.88925" lon="-8.36969">
        <ele>64.558</ele>
        <time>2019-10-15T08:01:40Z</time>
      </trkpt>
      <trkpt lat="37.89031" lon="-8.36971">
        <ele>61.88</ele>
        <time>2019-10-15T08:02:00Z</time>
      </trkpt>
      <trkpt lat="37.89084" lon="-8.36996">
        <ele>61.63</ele>
        <time>2019-10-15T08:02:20Z</time>
      </trkpt>
      <trkpt lat="37.89151" lon="-8.37003">
        <ele>61.922</ele>
        <time>2019-10-15T08:02:40Z</time>
      </trkpt>
      <trkpt lat="37.89209" lon="-8.37008">
        <ele>60.513</ele>
        <time>2019-10-15T08:03:00Z</time>
      </trkpt>
      <trkpt lat="37.8922" lon="-8.3701">
        <ele>60.545</ele>
        <time>2019-10-15T08:03:20Z</time>
      </trkpt>
      <trkpt lat="37.89258" lon="-8.37019">
        <ele>61.755</ele>
        <time>2019-10-15T08:03:40Z</time>
      </trkpt>
      <trkpt lat="37.89317" lon="-8.37025">
        <ele>62.825</ele>
        <time>2019-10-15T08:04:00Z</time>
      </trkpt>
      <trkpt lat="37.89351" lon="-8.37021">
        <ele>61.626</ele>
        <time>2019-10-15T08:04:20Z</time>
      </trkpt>
      <trkpt lat="37.89402" lon="-8.37024">
        <ele>60.808</ele>
        <time>2019-10-15T08:04:40Z</time>
      </trkpt>
      <trkpt lat="37.89428" lon="-8.37033">
        <ele>62.808</ele>
        <time>2019-10-15T08:05:00Z</time>
      </trkpt>
      <trkpt lat="37.89431" lon="-8.37037">
        <ele>63.216</ele>
        <time>2019-10-15T08:05:20Z</time>
      </trkpt>
      <trkpt lat="37.89443" lon="-8.37055">
        <ele>64.934</ele>
        <time>2019-10-15T08:05:40Z</time>
      </trkpt>
      <trkpt lat="37.89485" lon="-8.37112">
        <ele>69.446</ele>
        <time>2019-10-15T08:06:00Z</time>
      </trkpt>
      <trkpt lat="37.89507" lon="-8.37142">
        <ele>70.536</ele>
        <time>2019-10-15T08:06:20Z</time>
      </trkpt>
      <trkpt lat="37.8953" lon="-8.37156">
        <ele>71.598</ele>
        <time>2019-10-15T08:06:40Z</time>
      </trkpt>
      <trkpt lat="37.89533" lon="-8.37153">
        <ele>71.899</ele>
        <time>2019-10-15T08:07:00Z</time>
      </trkpt>
      <trkpt lat="37.89535" lon="-8.37147">
        <ele>72.081</ele>
        <time>2019-10-15T08:07:20Z</time>
      </trkpt>
      <trkpt lat="37.89536" lon="-8.37139">
        <ele>72.391</ele>
        <time>2019-10-15T08:07:40Z</time>
      </trkpt>
      <trkpt lat="37.89555" lon="-8.37062">
        <ele>72.916</ele>
        <time>2019-10-15T08:08:00Z</time>
      </trkpt>
      <trkpt lat="37.89558" lon="-8.37054">
        <ele>72.876</ele>
        <time>2019-10-15T08:08:20Z</time>
      </trkpt>
      <trkpt lat="37.89563" lon="-8.37048">
        <ele>72.213</ele>
        <time>2019-10-15T08:08:40Z</time>
      </trkpt>
      <trkpt lat="37.89571" lon="-8.37044">
        <ele>71.908</ele>
        <time>2019-10-15T08:09:00Z</time>
      </trkpt>
      <trkpt lat="37.89645" lon="-8.37023">
        <ele>71.625</ele>
        <time>2019-10-15T08:09:20Z</time>
      </trkpt>
      <trkpt lat="37.89767" lon="-8.36994">
        <ele>72.463</ele>
        <time>2019-10-15T08:09:40Z</time>
      </trkpt>
      <trkpt lat="37.89805" lon="-8.36986">
        <ele>70.555</ele>
        <time>2019-10-15T08:10:00Z</time>
      </trkpt>
      <trkpt lat="37.89813" lon="-8.36986">
        <ele>69.395</ele>
        <time>2019-10-15T08:10:20Z</time>
      </trkpt>
      <trkpt lat="37.8983" lon="-8.36984">
        <ele>66.977</ele>
        <time>2019-10-15T08:10:40Z</time>
      </trkpt>
      <trkpt lat="37.89839" lon="-8.36981">
        <ele>66.048</ele>
        <time>2019-10-15T08:11:00Z</time>
      </trkpt>
      <trkpt lat="37.89848" lon="-8.36975">
        <ele>65.53</ele>
        <time>2019-10-15T08:11:20Z</time>
      </trkpt>
      <trkpt lat="37.89858" lon="-8.36968">
        <ele>64.85</ele>
        <time>2019-10-15T08:11:40Z</time>
      </trkpt>
      <trkpt lat="37.89867" lon="-8.36959">
        <ele>64.396</ele>
        <time>2019-10-15T08:12:00Z</time>
      </trkpt>
      <trkpt lat="37.89875" lon="-8.36949">
        <ele>63.831</ele>
        <time>2019-10-15T08:12:20Z</time>
      </trkpt>
      <trkpt lat="37.89883" lon="-8.36938">
        <ele>63.324</ele>
        <time>2019-10-15T08:12:40Z</time>
      </trkpt>
      <trkpt lat="37.89914" lon="-8.36895">
        <ele>62.308</ele>
        <time>2019-10-15T08:13:00Z</time>
      </trkpt>
      <trkpt lat="37.89919" lon="-8.36883">
        <ele>62.263</ele>
        <time>2019-10-15T08:13:20Z</time>
      </trkpt>
      <trkpt lat="37.89933" lon="-8.36849">
        <ele>63.241</ele>
        <time>2019-10-15T08:13:40Z</time>
      </trkpt>
      <trkpt lat="37.89938" lon="-8.36839">
        <ele>63.573</ele>
        <time>2019-10-15T08:14:00Z</time>
      </trkpt>
      <trkpt lat="37.89945" lon="-8.36831">
        <ele>63.963</ele>
        <time>2019-10-15T08:14:20Z</time>
      </trkpt>
      <trkpt lat="37.89952" lon="-8.36823">
        <ele>63.625</ele>
        <time>2019-10-15T08:14:40Z</time>
      </trkpt>
      <trkpt lat="37.8996" lon="-8.36817">
        <ele>63.476</ele>
        <time>2019-10-15T08:15:00Z</time>
      </trkpt>
      <trkpt lat="37.89969" lon="-8.36811">
        <ele>63.268</ele>
        <time>2019-10-15T08:15:20Z</time>
      </trkpt>
      <trkpt lat="37.89978" lon="-8.36805">
        <ele>62.818</ele>
        <time>2019-10-15T08:15:40Z</time>
      </trkpt>
      <trkpt lat="37.89989" lon="-8.368">
        <ele>62.112</ele>
        <time>2019-10-15T08:16:00Z</time>
      </trkpt>
      <trkpt lat="37.90092" lon="-8.36752">
        <ele>59.732</ele>
        <time>2019-10-15T08:16:20Z</time>
      </trkpt>
      <trkpt lat="37.90175" lon="-8.36727">
        <ele>58.505</ele>
        <time>2019-10-15T08:16:40Z</time>
      </trkpt>
      <trkpt lat="37.9027" lon="-8.36722">
        <ele>60.308</ele>
        <time>2019-10-15T08:17:00Z</time>
      </trkpt>
      <trkpt lat="37.9028" lon="-8.36723">
        <ele>60.175</ele>
        <time>2019-10-15T08:17:20Z</time>
      </trkpt>
      <trkpt lat="37.90289" lon="-8.36726">
        <ele>60.743</ele>
        <time>2019-10-15T08:17:40Z</time>
      </trkpt>
      <trkpt lat="37.90297" lon="-8.36731">
        <ele>61.365</ele>
        <time>2019-10-15T08:18:00Z</time>
      </trkpt>
      <trkpt lat="37.90304" lon="-8.36737">
        <ele>62.085</ele>
        <time>2019-10-15T08:18:20Z</time>
      </trkpt>
      <trkpt lat="37.9031" lon="-8.36746">
        <ele>62.737</ele>
        <time>2019-10-15T08:18:40Z</time>
      </trkpt>
      <trkpt lat="37.90315" lon="-8.36754">
        <ele>63.138</ele>
        <time>2019-10-15T08:19:00Z</time>
      </trkpt>
      <trkpt lat="37.90322" lon="-8.3676">
        <ele>63.28</ele>
        <time>2019-10-15T08:19:20Z</time>
      </trkpt>
      <trkpt lat="37.90329" lon="-8.36766">
        <ele>63.18</ele>
        <time>2019-10-15T08:19:40Z</time>
      </trkpt>
      <trkpt lat="37.90336" lon="-8.3677">
        <ele>62.972</ele>
        <time>2019-10-15T08:20:00Z</time>
      </trkpt>
      <trkpt lat="37.90344" lon="-8.36772">
        <ele>62.613</ele>
        <time>2019-10-15T08:20:20Z</time>
      </trkpt>
      <trkpt lat="37.90353" lon="-8.36772">
        <ele>62.314</ele>
        <time>2019-10-15T08:20:40Z</time>
      </trkpt>
      <trkpt lat="37.90363" lon="-8.36769">
        <ele>62.008</ele>
        <time>2019-10-15T08:21:00Z</time>
      </trkpt>
      <trkpt lat="37.90373" lon="-8.36763">
        <ele>62.241</ele>
        <time>2019-10-15T08:21:20Z</time>
      </trkpt>
      <trkpt lat="37.90382" lon="-8.36754">
        <ele>62.199</ele>
        <time>2019-10-15T08:21:40Z</time>
      </trkpt>
      <trkpt lat="37.90388" lon="-8.36742">
        <ele>61.791</ele>
        <time>2019-10-15T08:22:00Z</time>
      </trkpt>
      <trkpt lat="37.90394" lon="-8.36729">
        <ele>61.031</ele>
        <time>2019-10-15T08:22:20Z</time>
      </trkpt>
      <trkpt lat="37.90406" lon="-8.36708">
        <ele>60.163</ele>
        <time>2019-10-15T08:22:40Z</time>
      </trkpt>
      <trkpt lat="37.90413" lon="-8.36701">
        <ele>59.434</ele>
        <time>2019-10-15T08:23:00Z</time>
      </trkpt>
      <trkpt lat="37.90423" lon="-8.36696">
        <ele>59.176</ele>
        <time>2019-10-15T08:23:20Z</time>
      </trkpt>
      <trkpt lat="37.90435" lon="-8.36695">
        <ele>59.076</ele>
        <time>2019-10-15T08:23:40Z</time>
      </trkpt>
      <trkpt lat="37.9045" lon="-8.36695">
        <ele>58.648</ele>
        <time>2019-10-15T08:24:00Z</time>
      </trkpt>
      <trkpt lat="37.90621" lon="-8.36716">
        <ele>56.961</ele>
        <time>2019-10-15T08:24:20Z</time>
      </trkpt>
      <trkpt lat="37.90677" lon="-8.36724">
        <ele>59.117</ele>
        <time>2019-10-15T08:24:40Z</time>
      </trkpt>
      <trkpt lat="37.90802" lon="-8.36743">
        <ele>58.608</ele>
        <time>2019-10-15T08:25:00Z</time>
      </trkpt>
      <trkpt lat="37.90848" lon="-8.36754">
        <ele>59.018</ele>
        <time>2019-10-15T08:25:20Z</time>
      </trkpt>
      <trkpt lat="37.90856" lon="-8.36759">
        <ele>58.476</ele>
        <time>2019-10-15T08:25:40Z</time>
      </trkpt>
      <trkpt lat="37.90863" lon="-8.36768">
        <ele>58.038</ele>
        <time>2019-10-15T08:26:00Z</time>
      </trkpt>
      <trkpt lat="37.90869" lon="-8.36778">
        <ele>57.788</ele>
        <time>2019-10-15T08:26:20Z</time>
      </trkpt>
      <trkpt lat="37.90873" lon="-8.36787">
        <ele>57.23</ele>
        <time>2019-10-15T08:26:40Z</time>
      </trkpt>
      <trkpt lat="37.90879" lon="-8.36793">
        <ele>56.871</ele>
        <time>2019-10-15T08:27:00Z</time>
      </trkpt>
      <trkpt lat="37.90886" lon="-8.36794">
        <ele>56.533</ele>
        <time>2019-10-15T08:27:20Z</time>
      </trkpt>
      <trkpt lat="37.90892" lon="-8.36792">
        <ele>56.533</ele>
        <time>2019-10-15T08:27:40Z</time>
      </trkpt>
      <trkpt lat="37.90896" lon="-8.36788">
        <ele>56.765</ele>
        <time>2019-10-15T08:28:00Z</time>
      </trkpt>
      <trkpt lat="37.90899" lon="-8.36784">
        <ele>56.968</ele>
        <time>2019-10-15T08:28:20Z</time>
      </trkpt>
      <trkpt lat="37.90919" lon="-8.36775">
        <ele>57.014</ele>
        <time>2019-10-15T08:28:40Z</time>
      </trkpt>
      <trkpt lat="37.90967" lon="-8.36789">
        <ele>56.008</ele>
        <time>2019-10-15T08:29:00Z</time>
      </trkpt>
      <trkpt lat="37.91008" lon="-8.36802">
        <ele>59.05</ele>
        <time>2019-10-15T08:29:20Z</time>
      </trkpt>
      <trkpt lat="37.91051" lon="-8.36816">
        <ele>59.918</ele>
        <time>2019-10-15T08:29:40Z</time>
      </trkpt>
      <trkpt lat="37.91109" lon="-8.36835">
        <ele>60.01</ele>
        <time>2019-10-15T08:30:00Z</time>
      </trkpt>
      <trkpt lat="37.9121" lon="-8.36869">
        <ele>61.58</ele>
        <time>2019-10-15T08:30:20Z</time>
      </trkpt>
      <trkpt lat="37.91384" lon="-8.36928">
        <ele>63.282</ele>
        <time>2019-10-15T08:30:40Z</time>
      </trkpt>
      <trkpt lat="37.91481" lon="-8.36958">
        <ele>65.133</ele>
        <time>2019-10-15T08:31:00Z</time>
      </trkpt>
      <trkpt lat="37.91634" lon="-8.37006">
        <ele>63.485</ele>
        <time>2019-10-15T08:31:20Z</time>
      </trkpt>
      <trkpt lat="37.91721" lon="-8.37046">
        <ele>63.485</ele>
        <time>2019-10-15T08:31:40Z</time>
      </trkpt>
      <trkpt lat="37.9173" lon="-8.37052">
        <ele>63.281</ele>
        <time>2019-10-15T08:32:00Z</time>
      </trkpt>
      <trkpt lat="37.91771" lon="-8.37058">
        <ele>61.261</ele>
        <time>2019-10-15T08:32:20Z</time>
      </trkpt>
      <trkpt lat="37.91865" lon="-8.37088">
        <ele>59.917</ele>
        <time>2019-10-15T08:32:40Z</time>
      </trkpt>
      <trkpt lat="37.92026" lon="-8.3714">
        <ele>60.008</ele>
        <time>2019-10-15T08:33:00Z</time>
      </trkpt>
      <trkpt lat="37.92066" lon="-8.37154">
        <ele>60.642</ele>
        <time>2019-10-15T08:33:20Z</time>
      </trkpt>
      <trkpt lat="37.92086" lon="-8.37177">
        <ele>60.02</ele>
        <time>2019-10-15T08:33:40Z</time>
      </trkpt>
      <trkpt lat="37.92085" lon="-8.37187">
        <ele>60.092</ele>
        <time>2019-10-15T08:34:00Z</time>
      </trkpt>
      <trkpt lat="37.92083" lon="-8.372">
        <ele>60.022</ele>
        <time>2019-10-15T08:34:20Z</time>
      </trkpt>
      <trkpt lat="37.9208" lon="-8.37213">
        <ele>60.234</ele>
        <time>2019-10-15T08:34:40Z</time>
      </trkpt>
      <trkpt lat="37.92076" lon="-8.37245">
        <ele>62.055</ele>
        <time>2019-10-15T08:35:00Z</time>
      </trkpt>
      <trkpt lat="37.92077" lon="-8.37251">
        <ele>62.367</ele>
        <time>2019-10-15T08:35:20Z</time>
      </trkpt>
      <trkpt lat="37.92086" lon="-8.3726">
        <ele>62.367</ele>
        <time>2019-10-15T08:35:40Z</time>
      </trkpt>
      <trkpt lat="37.92089" lon="-8.37259">
        <ele>62.161</ele>
        <time>2019-10-15T08:36:00Z</time>
      </trkpt>
      <trkpt lat="37.92091" lon="-8.37257">
        <ele>62.021</ele>
        <time>2019-10-15T08:36:20Z</time>
      </trkpt>
      <trkpt lat="37.92091" lon="-8.37256">
        <ele>61.913</ele>
        <time>2019-10-15T08:36:40Z</time>
      </trkpt>
      <trkpt lat="37.92092" lon="-8.37254">
        <ele>61.908</ele>
        <time>2019-10-15T08:37:00Z</time>
      </trkpt>
      <trkpt lat="37.92093" lon="-8.37253">
        <ele>61.84</ele>
        <time>2019-10-15T08:37:20Z</time>
      </trkpt>
      <trkpt lat="37.92093" lon="-8.37252">
        <ele>61.738</ele>
        <time>2019-10-15T08:37:40Z</time>
      </trkpt>
      <trkpt lat="37.92093" lon="-8.3725">
        <ele>61.69</ele>
        <time>2019-10-15T08:38:00Z</time>
      </trkpt>
      <trkpt lat="37.92094" lon="-8.37247">
        <ele>61.44</ele>
        <time>2019-10-15T08:38:20Z</time>
      </trkpt>
      <trkpt lat="37.92095" lon="-8.37244">
        <ele>61.272</ele>
        <time>2019-10-15T08:38:40Z</time>
      </trkpt>
      <trkpt lat="37.92105" lon="-8.37201">
        <ele>60.063</ele>
        <time>2019-10-15T08:39:00Z</time>
      </trkpt>
      <trkpt lat="37.92126" lon="-8.37174">
        <ele>60.535</ele>
        <time>2019-10-15T08:39:20Z</time>
      </trkpt>
      <trkpt lat="37.92128" lon="-8.37173">
        <ele>60.635</ele>
        <time>2019-10-15T08:39:40Z</time>
      </trkpt>
      <trkpt lat="37.92155" lon="-8.37183">
        <ele>61.617</ele>
        <time>2019-10-15T08:40:00Z</time>
      </trkpt>
      <trkpt lat="37.92202" lon="-8.372">
        <ele>62.487</ele>
        <time>2019-10-15T08:40:20Z</time>
      </trkpt>
      <trkpt lat="37.92234" lon="-8.37214">
        <ele>58.915</ele>
        <time>2019-10-15T08:40:40Z</time>
      </trkpt>
      <trkpt lat="37.92327" lon="-8.37264">
        <ele>56.008</ele>
        <time>2019-10-15T08:41:00Z</time>
      </trkpt>
      <trkpt lat="37.92395" lon="-8.37304">
        <ele>55.595</ele>
        <time>2019-10-15T08:41:20Z</time>
      </trkpt>
      <trkpt lat="37.92412" lon="-8.37314">
        <ele>54.723</ele>
        <time>2019-10-15T08:41:40Z</time>
      </trkpt>
      <trkpt lat="37.92495" lon="-8.37365">
        <ele>55.075</ele>
        <time>2019-10-15T08:42:00Z</time>
      </trkpt>
      <trkpt lat="37.92612" lon="-8.37431">
        <ele>54.555</ele>
        <time>2019-10-15T08:42:20Z</time>
      </trkpt>
      <trkpt lat="37.92713" lon="-8.3749">
        <ele>57.887</ele>
        <time>2019-10-15T08:42:40Z</time>
      </trkpt>
      <trkpt lat="37.92729" lon="-8.37502">
        <ele>57.738</ele>
        <time>2019-10-15T08:43:00Z</time>
      </trkpt>
      <trkpt lat="37.92733" lon="-8.37519">
        <ele>58.75</ele>
        <time>2019-10-15T08:43:20Z</time>
      </trkpt>
      <trkpt lat="37.92744" lon="-8.37546">
        <ele>59.09</ele>
        <time>2019-10-15T08:43:40Z</time>
      </trkpt>
      <trkpt lat="37.92768" lon="-8.37553">
        <ele>58.262</ele>
        <time>2019-10-15T08:44:00Z</time>
      </trkpt>
      <trkpt lat="37.92794" lon="-8.37565">
        <ele>56.383</ele>
        <time>2019-10-15T08:44:20Z</time>
      </trkpt>
      <trkpt lat="37.92855" lon="-8.37607">
        <ele>56.211</ele>
        <time>2019-10-15T08:44:40Z</time>
      </trkpt>
      <trkpt lat="37.92933" lon="-8.37659">
        <ele>57.308</ele>
        <time>2019-10-15T08:45:00Z</time>
      </trkpt>
      <trkpt lat="37.92981" lon="-8.37701">
        <ele>61.42</ele>
        <time>2019-10-15T08:45:20Z</time>
      </trkpt>
      <trkpt lat="37.9299" lon="-8.3771">
        <ele>60.758</ele>
        <time>2019-10-15T08:45:40Z</time>
      </trkpt>
      <trkpt lat="37.9302" lon="-8.37756">
        <ele>58.69</ele>
        <time>2019-10-15T08:46:00Z</time>
      </trkpt>
      <trkpt lat="37.93043" lon="-8.37816">
        <ele>59.54</ele>
        <time>2019-10-15T08:46:20Z</time>
      </trkpt>
      <trkpt lat="37.93053" lon="-8.37857">
        <ele>61.812</ele>
        <time>2019-10-15T08:46:40Z</time>
      </trkpt>
      <trkpt lat="37.93076" lon="-8.37905">
        <ele>64.833</ele>
        <time>2019-10-15T08:47:00Z</time>
      </trkpt>
      <trkpt lat="37.93096" lon="-8.37971">
        <ele>67.475</ele>
        <time>2019-10-15T08:47:20Z</time>
      </trkpt>
      <trkpt lat="37.93107" lon="-8.38059">
        <ele>65.945</ele>
        <time>2019-10-15T08:47:40Z</time>
      </trkpt>
      <trkpt lat="37.93111" lon="-8.38093">
        <ele>65.789</ele>
        <time>2019-10-15T08:48:00Z</time>
      </trkpt>
      <trkpt lat="37.93164" lon="-8.38242">
        <ele>67.706</ele>
        <time>2019-10-15T08:48:20Z</time>
      </trkpt>
      <trkpt lat="37.93192" lon="-8.38278">
        <ele>65.926</ele>
        <time>2019-10-15T08:48:40Z</time>
      </trkpt>
      <trkpt lat="37.93344" lon="-8.38422">
        <ele>67.608</ele>
        <time>2019-10-15T08:49:00Z</time>
      </trkpt>
      <trkpt lat="37.93471" lon="-8.3855">
        <ele>65.332</ele>
        <time>2019-10-15T08:49:20Z</time>
      </trkpt>
      <trkpt lat="37.93595" lon="-8.3864">
        <ele>69.07</ele>
        <time>2019-10-15T08:49:40Z</time>
      </trkpt>
      <trkpt lat="37.93711" lon="-8.3871">
        <ele>66.082</ele>
        <time>2019-10-15T08:50:00Z</time>
      </trkpt>
      <trkpt lat="37.93717" lon="-8.38711">
        <ele>65.752</ele>
        <time>2019-10-15T08:50:20Z</time>
      </trkpt>
      <trkpt lat="37.93726" lon="-8.38712">
        <ele>65.334</ele>
        <time>2019-10-15T08:50:40Z</time>
      </trkpt>
      <trkpt lat="37.93731" lon="-8.38716">
        <ele>65.145</ele>
        <time>2019-10-15T08:51:00Z</time>
      </trkpt>
      <trkpt lat="37.93735" lon="-8.38721">
        <ele>65.067</ele>
        <time>2019-10-15T08:51:20Z</time>
      </trkpt>
      <trkpt lat="37.93738" lon="-8.38727">
        <ele>64.937</ele>
        <time>2019-10-15T08:51:40Z</time>
      </trkpt>
      <trkpt lat="37.93742" lon="-8.38732">
        <ele>64.958</ele>
        <time>2019-10-15T08:52:00Z</time>
      </trkpt>
      <trkpt lat="37.93746" lon="-8.38735">
        <ele>64.952</ele>
        <time>2019-10-15T08:52:20Z</time>
      </trkpt>
      <trkpt lat="37.93751" lon="-8.38737">
        <ele>65.017</ele>
        <time>2019-10-15T08:52:40Z</time>
      </trkpt>
      <trkpt lat="37.93756" lon="-8.38741">
        <ele>64.808</ele>
        <time>2019-10-15T08:53:00Z</time>
      </trkpt>
      <trkpt lat="37.9376" lon="-8.38745">
        <ele>64.639</ele>
        <time>2019-10-15T08:53:20Z</time>
      </trkpt>
      <trkpt lat="37.93763" lon="-8.38751">
        <ele>64.577</ele>
        <time>2019-10-15T08:53:40Z</time>
      </trkpt>
      <trkpt lat="37.93765" lon="-8.38757">
        <ele>64.659</ele>
        <time>2019-10-15T08:54:00Z</time>
      </trkpt>
      <trkpt lat="37.93765" lon="-8.38763">
        <ele>64.779</ele>
        <time>2019-10-15T08:54:20Z</time>
      </trkpt>
      <trkpt lat="37.93763" lon="-8.38769">
        <ele>64.821</ele>
        <time>2019-10-15T08:54:40Z</time>
      </trkpt>
      <trkpt lat="37.93759" lon="-8.38773">
        <ele>64.982</ele>
        <time>2019-10-15T08:55:00Z</time>
      </trkpt>
      <trkpt lat="37.93754" lon="-8.38776">
        <ele>65.054</ele>
        <time>2019-10-15T08:55:20Z</time>
      </trkpt>
      <trkpt lat="37.9375" lon="-8.38777">
        <ele>65.084</ele>
        <time>2019-10-15T08:55:40Z</time>
      </trkpt>
      <trkpt lat="37.93735" lon="-8.38786">
        <ele>64.553</ele>
        <time>2019-10-15T08:56:00Z</time>
      </trkpt>
      <trkpt lat="37.93734" lon="-8.38786">
        <ele>64.404</ele>
        <time>2019-10-15T08:56:20Z</time>
      </trkpt>
      <trkpt lat="37.93732" lon="-8.38786">
        <ele>64.314</ele>
        <time>2019-10-15T08:56:40Z</time>
      </trkpt>
      <trkpt lat="37.9373" lon="-8.38787">
        <ele>64.308</ele>
        <time>2019-10-15T08:57:00Z</time>
      </trkpt>
      <trkpt lat="37.93727" lon="-8.38788">
        <ele>64.269</ele>
        <time>2019-10-15T08:57:20Z</time>
      </trkpt>
      <trkpt lat="37.93726" lon="-8.38788">
        <ele>64.147</ele>
        <time>2019-10-15T08:57:40Z</time>
      </trkpt>
      <trkpt lat="37.93723" lon="-8.38789">
        <ele>64.039</ele>
        <time>2019-10-15T08:58:00Z</time>
      </trkpt>
      <trkpt lat="37.93718" lon="-8.38791">
        <ele>64.039</ele>
        <time>2019-10-15T08:58:20Z</time>
      </trkpt>
      <trkpt lat="37.93713" lon="-8.38794">
        <ele>64.021</ele>
        <time>2019-10-15T08:58:40Z</time>
      </trkpt>
      <trkpt lat="37.93706" lon="-8.38799">
        <ele>64.022</ele>
        <time>2019-10-15T08:59:00Z</time>
      </trkpt>
      <trkpt lat="37.93655" lon="-8.3884">
        <ele>67.124</ele>
        <time>2019-10-15T08:59:20Z</time>
      </trkpt>
      <trkpt lat="37.93598" lon="-8.38885">
        <ele>69.464</ele>
        <time>2019-10-15T08:59:40Z</time>
      </trkpt>
      <trkpt lat="37.93583" lon="-8.38896">
        <ele>70.337</ele>
        <time>2019-10-15T09:00:00Z</time>
      </trkpt>
      <trkpt lat="37.93494" lon="-8.38966">
        <ele>75.449</ele>
        <time>2019-10-15T09:00:20Z</time>
      </trkpt>
      <trkpt lat="37.93409" lon="-8.39036">
        <ele>76.313</ele>
        <time>2019-10-15T09:00:40Z</time>
      </trkpt>
      <trkpt lat="37.93375" lon="-8.39063">
        <ele>77.608</ele>
        <time>2019-10-15T09:01:00Z</time>
      </trkpt>
      <trkpt lat="37.93268" lon="-8.39155">
        <ele>75.347</ele>
        <time>2019-10-15T09:01:20Z</time>
      </trkpt>
      <trkpt lat="37.93257" lon="-8.39171">
        <ele>73.965</ele>
        <time>2019-10-15T09:01:40Z</time>
      </trkpt>
      <trkpt lat="37.93249" lon="-8.39189">
        <ele>72.487</ele>
        <time>2019-10-15T09:02:00Z</time>
      </trkpt>
      <trkpt lat="37.93243" lon="-8.39208">
        <ele>71.477</ele>
        <time>2019-10-15T09:02:20Z</time>
      </trkpt>
      <trkpt lat="37.93241" lon="-8.39228">
        <ele>70.329</ele>
        <time>2019-10-15T09:02:40Z</time>
      </trkpt>
      <trkpt lat="37.9324" lon="-8.39248">
        <ele>68.85</ele>
        <time>2019-10-15T09:03:00Z</time>
      </trkpt>
      <trkpt lat="37.93241" lon="-8.39271">
        <ele>68.132</ele>
        <time>2019-10-15T09:03:20Z</time>
      </trkpt>
      <trkpt lat="37.93237" lon="-8.39425">
        <ele>63.652</ele>
        <time>2019-10-15T09:03:40Z</time>
      </trkpt>
      <trkpt lat="37.93235" lon="-8.39502">
        <ele>60.053</ele>
        <time>2019-10-15T09:04:00Z</time>
      </trkpt>
      <trkpt lat="37.93233" lon="-8.39575">
        <ele>59.704</ele>
        <time>2019-10-15T09:04:20Z</time>
      </trkpt>
      <trkpt lat="37.93228" lon="-8.39696">
        <ele>54.514</ele>
        <time>2019-10-15T09:04:40Z</time>
      </trkpt>
      <trkpt lat="37.93227" lon="-8.39746">
        <ele>55.008</ele>
        <time>2019-10-15T09:05:00Z</time>
      </trkpt>
      <trkpt lat="37.93219" lon="-8.39984">
        <ele>51.829</ele>
        <time>2019-10-15T09:05:20Z</time>
      </trkpt>
      <trkpt lat="37.93208" lon="-8.40293">
        <ele>48.087</ele>
        <time>2019-10-15T09:05:40Z</time>
      </trkpt>
      <trkpt lat="37.93204" lon="-8.40438">
        <ele>45.519</ele>
        <time>2019-10-15T09:06:00Z</time>
      </trkpt>
      <trkpt lat="37.93193" lon="-8.40758">
        <ele>51.979</ele>
        <time>2019-10-15T09:06:20Z</time>
      </trkpt>
      <trkpt lat="37.93193" lon="-8.40805">
        <ele>55.981</ele>
        <time>2019-10-15T09:06:40Z</time>
      </trkpt>
      <trkpt lat="37.93195" lon="-8.40808">
        <ele>56.372</ele>
        <time>2019-10-15T09:07:00Z</time>
      </trkpt>
      <trkpt lat="37.93197" lon="-8.40809">
        <ele>56.514</ele>
        <time>2019-10-15T09:07:20Z</time>
      </trkpt>
      <trkpt lat="37.932" lon="-8.40809">
        <ele>56.554</ele>
        <time>2019-10-15T09:07:40Z</time>
      </trkpt>
      <trkpt lat="37.93205" lon="-8.40807">
        <ele>56.584</ele>
        <time>2019-10-15T09:08:00Z</time>
      </trkpt>
      <trkpt lat="37.93212" lon="-8.40802">
        <ele>56.207</ele>
        <time>2019-10-15T09:08:20Z</time>
      </trkpt>
      <trkpt lat="37.93221" lon="-8.40795">
        <ele>55.517</ele>
        <time>2019-10-15T09:08:40Z</time>
      </trkpt>
      <trkpt lat="37.93232" lon="-8.40789">
        <ele>54.608</ele>
        <time>2019-10-15T09:09:00Z</time>
      </trkpt>
      <trkpt lat="37.93244" lon="-8.40783">
        <ele>53.842</ele>
        <time>2019-10-15T09:09:20Z</time>
      </trkpt>
      <trkpt lat="37.93257" lon="-8.40778">
        <ele>53.15</ele>
        <time>2019-10-15T09:09:40Z</time>
      </trkpt>
      <trkpt lat="37.93271" lon="-8.40775">
        <ele>52.792</ele>
        <time>2019-10-15T09:10:00Z</time>
      </trkpt>
      <trkpt lat="37.93287" lon="-8.40773">
        <ele>52.622</ele>
        <time>2019-10-15T09:10:20Z</time>
      </trkpt>
      <trkpt lat="37.93414" lon="-8.40733">
        <ele>51.034</ele>
        <time>2019-10-15T09:10:40Z</time>
      </trkpt>
      <trkpt lat="37.93428" lon="-8.40724">
        <ele>51.525</ele>
        <time>2019-10-15T09:11:00Z</time>
      </trkpt>
      <trkpt lat="37.93563" lon="-8.40597">
        <ele>50.757</ele>
        <time>2019-10-15T09:11:20Z</time>
      </trkpt>
      <trkpt lat="37.93636" lon="-8.405">
        <ele>51.577</ele>
        <time>2019-10-15T09:11:40Z</time>
      </trkpt>
      <trkpt lat="37.93646" lon="-8.4049">
        <ele>51.598</ele>
        <time>2019-10-15T09:12:00Z</time>
      </trkpt>
      <trkpt lat="37.93658" lon="-8.40481">
        <ele>51.815</ele>
        <time>2019-10-15T09:12:20Z</time>
      </trkpt>
      <trkpt lat="37.9367" lon="-8.40474">
        <ele>52.226</ele>
        <time>2019-10-15T09:12:40Z</time>
      </trkpt>
      <trkpt lat="37.93684" lon="-8.40467">
        <ele>52.008</ele>
        <time>2019-10-15T09:13:00Z</time>
      </trkpt>
      <trkpt lat="37.93698" lon="-8.40461">
        <ele>52.283</ele>
        <time>2019-10-15T09:13:20Z</time>
      </trkpt>
      <trkpt lat="37.93726" lon="-8.40449">
        <ele>54.621</ele>
        <time>2019-10-15T09:13:40Z</time>
      </trkpt>
      <trkpt lat="37.93767" lon="-8.40428">
        <ele>55.483</ele>
        <time>2019-10-15T09:14:00Z</time>
      </trkpt>
      <trkpt lat="37.93809" lon="-8.40406">
        <ele>53.993</ele>
        <time>2019-10-15T09:14:20Z</time>
      </trkpt>
      <trkpt lat="37.9382" lon="-8.40397">
        <ele>53.215</ele>
        <time>2019-10-15T09:14:40Z</time>
      </trkpt>
      <trkpt lat="37.93831" lon="-8.40385">
        <ele>52.536</ele>
        <time>2019-10-15T09:15:00Z</time>
      </trkpt>
      <trkpt lat="37.93842" lon="-8.40372">
        <ele>50.718</ele>
        <time>2019-10-15T09:15:20Z</time>
      </trkpt>
      <trkpt lat="37.93855" lon="-8.4036">
        <ele>49.188</ele>
        <time>2019-10-15T09:15:40Z</time>
      </trkpt>
      <trkpt lat="37.93869" lon="-8.40348">
        <ele>48.156</ele>
        <time>2019-10-15T09:16:00Z</time>
      </trkpt>
      <trkpt lat="37.93884" lon="-8.40338">
        <ele>47.359</ele>
        <time>2019-10-15T09:16:20Z</time>
      </trkpt>
      <trkpt lat="37.93932" lon="-8.40309">
        <ele>48.214</ele>
        <time>2019-10-15T09:16:40Z</time>
      </trkpt>
      <trkpt lat="37.93945" lon="-8.40307">
        <ele>49.008</ele>
        <time>2019-10-15T09:17:00Z</time>
      </trkpt>
      <trkpt lat="37.93958" lon="-8.40308">
        <ele>49.169</ele>
        <time>2019-10-15T09:17:20Z</time>
      </trkpt>
      <trkpt lat="37.93973" lon="-8.4031">
        <ele>49.337</ele>
        <time>2019-10-15T09:17:40Z</time>
      </trkpt>
      <trkpt lat="37.93988" lon="-8.40314">
        <ele>48.369</ele>
        <time>2019-10-15T09:18:00Z</time>
      </trkpt>
      <trkpt lat="37.9411" lon="-8.4034">
        <ele>46.599</ele>
        <time>2019-10-15T09:18:20Z</time>
      </trkpt>
      <trkpt lat="37.94123" lon="-8.40346">
        <ele>46.741</ele>
        <time>2019-10-15T09:18:40Z</time>
      </trkpt>
      <trkpt lat="37.94136" lon="-8.40354">
        <ele>46.842</ele>
        <time>2019-10-15T09:19:00Z</time>
      </trkpt>
      <trkpt lat="37.94149" lon="-8.40364">
        <ele>46.864</ele>
        <time>2019-10-15T09:19:20Z</time>
      </trkpt>
      <trkpt lat="37.94291" lon="-8.4046">
        <ele>48.374</ele>
        <time>2019-10-15T09:19:40Z</time>
      </trkpt>
      <trkpt lat="37.94317" lon="-8.40477">
        <ele>47.566</ele>
        <time>2019-10-15T09:20:00Z</time>
      </trkpt>
      <trkpt lat="37.94329" lon="-8.40489">
        <ele>47.129</ele>
        <time>2019-10-15T09:20:20Z</time>
      </trkpt>
      <trkpt lat="37.94341" lon="-8.40502">
        <ele>46.721</ele>
        <time>2019-10-15T09:20:40Z</time>
      </trkpt>
      <trkpt lat="37.94417" lon="-8.40588">
        <ele>48.008</ele>
        <time>2019-10-15T09:21:00Z</time>
      </trkpt>
      <trkpt lat="37.94432" lon="-8.40599">
        <ele>47.48</ele>
        <time>2019-10-15T09:21:20Z</time>
      </trkpt>
      <trkpt lat="37.94447" lon="-8.40609">
        <ele>46.938</ele>
        <time>2019-10-15T09:21:40Z</time>
      </trkpt>
      <trkpt lat="37.94506" lon="-8.40647">
        <ele>48.34</ele>
        <time>2019-10-15T09:22:00Z</time>
      </trkpt>
      <trkpt lat="37.94672" lon="-8.40777">
        <ele>54.14</ele>
        <time>2019-10-15T09:22:20Z</time>
      </trkpt>
      <trkpt lat="37.94788" lon="-8.40862">
        <ele>54.332</ele>
        <time>2019-10-15T09:22:40Z</time>
      </trkpt>
      <trkpt lat="37.94798" lon="-8.40872">
        <ele>53.073</ele>
        <time>2019-10-15T09:23:00Z</time>
      </trkpt>
      <trkpt lat="37.94808" lon="-8.40884">
        <ele>52.435</ele>
        <time>2019-10-15T09:23:20Z</time>
      </trkpt>
      <trkpt lat="37.94815" lon="-8.40897">
        <ele>52.685</ele>
        <time>2019-10-15T09:23:40Z</time>
      </trkpt>
      <trkpt lat="37.94821" lon="-8.40912">
        <ele>53.444</ele>
        <time>2019-10-15T09:24:00Z</time>
      </trkpt>
      <trkpt lat="37.94826" lon="-8.40929">
        <ele>54.905</ele>
        <time>2019-10-15T09:24:20Z</time>
      </trkpt>
      <trkpt lat="37.9483" lon="-8.40947">
        <ele>56.315</ele>
        <time>2019-10-15T09:24:40Z</time>
      </trkpt>
      <trkpt lat="37.94842" lon="-8.40985">
        <ele>56.508</ele>
        <time>2019-10-15T09:25:00Z</time>
      </trkpt>
      <trkpt lat="37.94875" lon="-8.41057">
        <ele>57.018</ele>
        <time>2019-10-15T09:25:20Z</time>
      </trkpt>
      <trkpt lat="37.94903" lon="-8.41106">
        <ele>58.356</ele>
        <time>2019-10-15T09:25:40Z</time>
      </trkpt>
      <trkpt lat="37.94945" lon="-8.41161">
        <ele>58.738</ele>
        <time>2019-10-15T09:26:00Z</time>
      </trkpt>
      <trkpt lat="37.94959" lon="-8.41171">
        <ele>58.648</ele>
        <time>2019-10-15T09:26:20Z</time>
      </trkpt>
      <trkpt lat="37.94974" lon="-8.41181">
        <ele>58.43</ele>
        <time>2019-10-15T09:26:40Z</time>
      </trkpt>
      <trkpt lat="37.95121" lon="-8.41268">
        <ele>57.411</ele>
        <time>2019-10-15T09:27:00Z</time>
      </trkpt>
      <trkpt lat="37.95272" lon="-8.41358">
        <ele>57.643</ele>
        <time>2019-10-15T09:27:20Z</time>
      </trkpt>
      <trkpt lat="37.95517" lon="-8.41531">
        <ele>60.913</ele>
        <time>2019-10-15T09:27:40Z</time>
      </trkpt>
      <trkpt lat="37.95675" lon="-8.41634">
        <ele>55.361</ele>
        <time>2019-10-15T09:28:00Z</time>
      </trkpt>
      <trkpt lat="37.95687" lon="-8.4164">
        <ele>55.721</ele>
        <time>2019-10-15T09:28:20Z</time>
      </trkpt>
      <trkpt lat="37.957" lon="-8.41643">
        <ele>56.413</ele>
        <time>2019-10-15T09:28:40Z</time>
      </trkpt>
      <trkpt lat="37.95713" lon="-8.41643">
        <ele>57.208</ele>
        <time>2019-10-15T09:29:00Z</time>
      </trkpt>
      <trkpt lat="37.95728" lon="-8.41641">
        <ele>58.14</ele>
        <time>2019-10-15T09:29:20Z</time>
      </trkpt>
      <trkpt lat="37.95743" lon="-8.41637">
        <ele>58.728</ele>
        <time>2019-10-15T09:29:40Z</time>
      </trkpt>
      <trkpt lat="37.95759" lon="-8.41631">
        <ele>58.69</ele>
        <time>2019-10-15T09:30:00Z</time>
      </trkpt>
      <trkpt lat="37.95914" lon="-8.41585">
        <ele>55.28</ele>
        <time>2019-10-15T09:30:20Z</time>
      </trkpt>
      <trkpt lat="37.95941" lon="-8.41575">
        <ele>54.742</ele>
        <time>2019-10-15T09:30:40Z</time>
      </trkpt>
      <trkpt lat="37.95955" lon="-8.41567">
        <ele>54.493</ele>
        <time>2019-10-15T09:31:00Z</time>
      </trkpt>
      <trkpt lat="37.95968" lon="-8.41557">
        <ele>54.075</ele>
        <time>2019-10-15T09:31:20Z</time>
      </trkpt>
      <trkpt lat="37.96074" lon="-8.41471">
        <ele>57.325</ele>
        <time>2019-10-15T09:31:40Z</time>
      </trkpt>
      <trkpt lat="37.96092" lon="-8.41451">
        <ele>56.982</ele>
        <time>2019-10-15T09:32:00Z</time>
      </trkpt>
      <trkpt lat="37.96103" lon="-8.41443">
        <ele>57.143</ele>
        <time>2019-10-15T09:32:20Z</time>
      </trkpt>
      <trkpt lat="37.96115" lon="-8.41436">
        <ele>57.617</ele>
        <time>2019-10-15T09:32:40Z</time>
      </trkpt>
      <trkpt lat="37.96128" lon="-8.41431">
        <ele>58.008</ele>
        <time>2019-10-15T09:33:00Z</time>
      </trkpt>
      <trkpt lat="37.96142" lon="-8.41427">
        <ele>58.022</ele>
        <time>2019-10-15T09:33:20Z</time>
      </trkpt>
      <trkpt lat="37.96157" lon="-8.41424">
        <ele>58.21</ele>
        <time>2019-10-15T09:33:40Z</time>
      </trkpt>
      <trkpt lat="37.9617" lon="-8.41421">
        <ele>58.322</ele>
        <time>2019-10-15T09:34:00Z</time>
      </trkpt>
      <trkpt lat="37.9628" lon="-8.41435">
        <ele>56.962</ele>
        <time>2019-10-15T09:34:20Z</time>
      </trkpt>
      <trkpt lat="37.96518" lon="-8.41497">
        <ele>54.754</ele>
        <time>2019-10-15T09:34:40Z</time>
      </trkpt>
      <trkpt lat="37.96589" lon="-8.41527">
        <ele>55.675</ele>
        <time>2019-10-15T09:35:00Z</time>
      </trkpt>
      <trkpt lat="37.96603" lon="-8.41528">
        <ele>54.667</ele>
        <time>2019-10-15T09:35:20Z</time>
      </trkpt>
      <trkpt lat="37.9662" lon="-8.41526">
        <ele>53.367</ele>
        <time>2019-10-15T09:35:40Z</time>
      </trkpt>
      <trkpt lat="37.96731" lon="-8.41516">
        <ele>53.896</ele>
        <time>2019-10-15T09:36:00Z</time>
      </trkpt>
      <trkpt lat="37.96745" lon="-8.41514">
        <ele>55.031</ele>
        <time>2019-10-15T09:36:20Z</time>
      </trkpt>
      <trkpt lat="37.9675" lon="-8.41512">
        <ele>55.424</ele>
        <time>2019-10-15T09:36:40Z</time>
      </trkpt>
      <trkpt lat="37.96752" lon="-8.41508">
        <ele>55.508</ele>
        <time>2019-10-15T09:37:00Z</time>
      </trkpt>
      <trkpt lat="37.96754" lon="-8.41503">
        <ele>55.413</ele>
        <time>2019-10-15T09:37:20Z</time>
      </trkpt>
      <trkpt lat="37.96754" lon="-8.41498">
        <ele>55.241</ele>
        <time>2019-10-15T09:37:40Z</time>
      </trkpt>
      <trkpt lat="37.96753" lon="-8.41491">
        <ele>55.263</ele>
        <time>2019-10-15T09:38:00Z</time>
      </trkpt>
      <trkpt lat="37.96751" lon="-8.41482">
        <ele>55.053</ele>
        <time>2019-10-15T09:38:20Z</time>
      </trkpt>
      <trkpt lat="37.96748" lon="-8.41471">
        <ele>54.915</ele>
        <time>2019-10-15T09:38:40Z</time>
      </trkpt>
      <trkpt lat="37.96739" lon="-8.4142">
        <ele>55.496</ele>
        <time>2019-10-15T09:39:00Z</time>
      </trkpt>
      <trkpt lat="37.9674" lon="-8.41412">
        <ele>55.528</ele>
        <time>2019-10-15T09:39:20Z</time>
      </trkpt>
      <trkpt lat="37.96742" lon="-8.41406">
        <ele>55.688</ele>
        <time>2019-10-15T09:39:40Z</time>
      </trkpt>
      <trkpt lat="37.96747" lon="-8.41402">
        <ele>55.685</ele>
        <time>2019-10-15T09:40:00Z</time>
      </trkpt>
      <trkpt lat="37.96753" lon="-8.41401">
        <ele>55.689</ele>
        <time>2019-10-15T09:40:20Z</time>
      </trkpt>
      <trkpt lat="37.96761" lon="-8.41401">
        <ele>55.517</ele>
        <time>2019-10-15T09:40:40Z</time>
      </trkpt>
      <trkpt lat="37.96772" lon="-8.41404">
        <ele>55.508</ele>
        <time>2019-10-15T09:41:00Z</time>
      </trkpt>
      <trkpt lat="37.96853" lon="-8.41418">
        <ele>55.372</ele>
        <time>2019-10-15T09:41:20Z</time>
      </trkpt>
      <trkpt lat="37.96872" lon="-8.4142">
        <ele>54.67</ele>
        <time>2019-10-15T09:41:40Z</time>
      </trkpt>
      <trkpt lat="37.96952" lon="-8.4143">
        <ele>56.072</ele>
        <time>2019-10-15T09:42:00Z</time>
      </trkpt>
      <trkpt lat="37.97011" lon="-8.41444">
        <ele>55.642</ele>
        <time>2019-10-15T09:42:20Z</time>
      </trkpt>
      <trkpt lat="37.97045" lon="-8.41445">
        <ele>53.234</ele>
        <time>2019-10-15T09:42:40Z</time>
      </trkpt>
      <trkpt lat="37.9705" lon="-8.41445">
        <ele>52.675</ele>
        <time>2019-10-15T09:43:00Z</time>
      </trkpt>
      <trkpt lat="37.97055" lon="-8.41445">
        <ele>52.087</ele>
        <time>2019-10-15T09:43:20Z</time>
      </trkpt>
      <trkpt lat="37.97066" lon="-8.41448">
        <ele>51.117</ele>
        <time>2019-10-15T09:43:40Z</time>
      </trkpt>
      <trkpt lat="37.97065" lon="-8.4145">
        <ele>51.157</ele>
        <time>2019-10-15T09:44:00Z</time>
      </trkpt>
      <trkpt lat="37.97066" lon="-8.41451">
        <ele>51</ele>
        <time>2019-10-15T09:44:20Z</time>
      </trkpt>
      <trkpt lat="37.97064" lon="-8.41459">
        <ele>50.82</ele>
        <time>2019-10-15T09:44:40Z</time>
      </trkpt>
      <trkpt lat="37.97058" lon="-8.41541">
        <ele>48.908</ele>
        <time>2019-10-15T09:45:00Z</time>
      </trkpt>
      <trkpt lat="37.97057" lon="-8.41586">
        <ele>49.289</ele>
        <time>2019-10-15T09:45:20Z</time>
      </trkpt>
      <trkpt lat="37.97059" lon="-8.41591">
        <ele>49.557</ele>
        <time>2019-10-15T09:45:40Z</time>
      </trkpt>
      <trkpt lat="37.97063" lon="-8.41595">
        <ele>49.689</ele>
        <time>2019-10-15T09:46:00Z</time>
      </trkpt>
      <trkpt lat="37.97068" lon="-8.41597">
        <ele>49.569</ele>
        <time>2019-10-15T09:46:20Z</time>
      </trkpt>
      <trkpt lat="37.97076" lon="-8.41598">
        <ele>49.371</ele>
        <time>2019-10-15T09:46:40Z</time>
      </trkpt>
      <trkpt lat="37.97086" lon="-8.41597">
        <ele>49.052</ele>
        <time>2019-10-15T09:47:00Z</time>
      </trkpt>
      <trkpt lat="37.97097" lon="-8.41596">
        <ele>49.274</ele>
        <time>2019-10-15T09:47:20Z</time>
      </trkpt>
      <trkpt lat="37.97107" lon="-8.41595">
        <ele>49.334</ele>
        <time>2019-10-15T09:47:40Z</time>
      </trkpt>
      <trkpt lat="37.97119" lon="-8.41596">
        <ele>50.182</ele>
        <time>2019-10-15T09:48:00Z</time>
      </trkpt>
      <trkpt lat="37.97154" lon="-8.41603">
        <ele>53.743</ele>
        <time>2019-10-15T09:48:20Z</time>
      </trkpt>
      <trkpt lat="37.97166" lon="-8.41608">
        <ele>54.817</ele>
        <time>2019-10-15T09:48:40Z</time>
      </trkpt>
      <trkpt lat="37.97221" lon="-8.41637">
        <ele>55.908</ele>
        <time>2019-10-15T09:49:00Z</time>
      </trkpt>
      <trkpt lat="37.97264" lon="-8.41657">
        <ele>59.222</ele>
        <time>2019-10-15T09:49:20Z</time>
      </trkpt>
      <trkpt lat="37.97364" lon="-8.41685">
        <ele>61.26</ele>
        <time>2019-10-15T09:49:40Z</time>
      </trkpt>
      <trkpt lat="37.97399" lon="-8.41694">
        <ele>63.812</ele>
        <time>2019-10-15T09:50:00Z</time>
      </trkpt>
      <trkpt lat="37.97518" lon="-8.41711">
        <ele>64.992</ele>
        <time>2019-10-15T09:50:20Z</time>
      </trkpt>
      <trkpt lat="37.97639" lon="-8.41704">
        <ele>70.054</ele>
        <time>2019-10-15T09:50:40Z</time>
      </trkpt>
      <trkpt lat="37.97667" lon="-8.41704">
        <ele>73.785</ele>
        <time>2019-10-15T09:51:00Z</time>
      </trkpt>
      <trkpt lat="37.97692" lon="-8.41706">
        <ele>75.887</ele>
        <time>2019-10-15T09:51:20Z</time>
      </trkpt>
      <trkpt lat="37.97705" lon="-8.4171">
        <ele>75.427</ele>
        <time>2019-10-15T09:51:40Z</time>
      </trkpt>
      <trkpt lat="37.97719" lon="-8.41716">
        <ele>74.925</ele>
        <time>2019-10-15T09:52:00Z</time>
      </trkpt>
      <trkpt lat="37.97779" lon="-8.41741">
        <ele>75.626</ele>
        <time>2019-10-15T09:52:20Z</time>
      </trkpt>
      <trkpt lat="37.97888" lon="-8.4178">
        <ele>76.008</ele>
        <time>2019-10-15T09:52:40Z</time>
      </trkpt>
      <trkpt lat="37.98009" lon="-8.41867">
        <ele>73.708</ele>
        <time>2019-10-15T09:53:00Z</time>
      </trkpt>
      <trkpt lat="37.98029" lon="-8.4189">
        <ele>75.066</ele>
        <time>2019-10-15T09:53:20Z</time>
      </trkpt>
      <trkpt lat="37.98037" lon="-8.41903">
        <ele>75.244</ele>
        <time>2019-10-15T09:53:40Z</time>
      </trkpt>
      <trkpt lat="37.98045" lon="-8.41917">
        <ele>75.666</ele>
        <time>2019-10-15T09:54:00Z</time>
      </trkpt>
      <trkpt lat="37.98127" lon="-8.4204">
        <ele>73.686</ele>
        <time>2019-10-15T09:54:20Z</time>
      </trkpt>
      <trkpt lat="37.98166" lon="-8.42082">
        <ele>74.038</ele>
        <time>2019-10-15T09:54:40Z</time>
      </trkpt>
      <trkpt lat="37.9818" lon="-8.42093">
        <ele>74.359</ele>
        <time>2019-10-15T09:55:00Z</time>
      </trkpt>
      <trkpt lat="37.98196" lon="-8.42103">
        <ele>74.371</ele>
        <time>2019-10-15T09:55:20Z</time>
      </trkpt>
      <trkpt lat="37.98211" lon="-8.42112">
        <ele>74.791</ele>
        <time>2019-10-15T09:55:40Z</time>
      </trkpt>
      <trkpt lat="37.98298" lon="-8.42165">
        <ele>79.952</ele>
        <time>2019-10-15T09:56:00Z</time>
      </trkpt>
      <trkpt lat="37.98322" lon="-8.42179">
        <ele>79.153</ele>
        <time>2019-10-15T09:56:20Z</time>
      </trkpt>
      <trkpt lat="37.98329" lon="-8.4218">
        <ele>78.708</ele>
        <time>2019-10-15T09:56:40Z</time>
      </trkpt>
      <trkpt lat="37.98335" lon="-8.42179">
        <ele>78.408</ele>
        <time>2019-10-15T09:57:00Z</time>
      </trkpt>
      <trkpt lat="37.98342" lon="-8.42176">
        <ele>78.369</ele>
        <time>2019-10-15T09:57:20Z</time>
      </trkpt>
      <trkpt lat="37.98347" lon="-8.42171">
        <ele>78.137</ele>
        <time>2019-10-15T09:57:40Z</time>
      </trkpt>
      <trkpt lat="37.98351" lon="-8.42162">
        <ele>77.949</ele>
        <time>2019-10-15T09:58:00Z</time>
      </trkpt>
      <trkpt lat="37.98359" lon="-8.42138">
        <ele>77.169</ele>
        <time>2019-10-15T09:58:20Z</time>
      </trkpt>
      <trkpt lat="37.98368" lon="-8.42105">
        <ele>77.041</ele>
        <time>2019-10-15T09:58:40Z</time>
      </trkpt>
      <trkpt lat="37.98368" lon="-8.42098">
        <ele>77.082</ele>
        <time>2019-10-15T09:59:00Z</time>
      </trkpt>
      <trkpt lat="37.98366" lon="-8.42092">
        <ele>77.094</ele>
        <time>2019-10-15T09:59:20Z</time>
      </trkpt>
      <trkpt lat="37.98361" lon="-8.42087">
        <ele>77.044</ele>
        <time>2019-10-15T09:59:40Z</time>
      </trkpt>
      <trkpt lat="37.98354" lon="-8.4208">
        <ele>77.166</ele>
        <time>2019-10-15T10:00:00Z</time>
      </trkpt>
      <trkpt lat="37.98346" lon="-8.4207">
        <ele>77.229</ele>
        <time>2019-10-15T10:00:20Z</time>
      </trkpt>
      <trkpt lat="37.98339" lon="-8.42056">
        <ele>77.221</ele>
        <time>2019-10-15T10:00:40Z</time>
      </trkpt>
      <trkpt lat="37.98334" lon="-8.42042">
        <ele>77.008</ele>
        <time>2019-10-15T10:01:00Z</time>
      </trkpt>
      <trkpt lat="37.98332" lon="-8.42026">
        <ele>77.07</ele>
        <time>2019-10-15T10:01:20Z</time>
      </trkpt>
      <trkpt lat="37.98333" lon="-8.42011">
        <ele>77.658</ele>
        <time>2019-10-15T10:01:40Z</time>
      </trkpt>
      <trkpt lat="37.98336" lon="-8.41994">
        <ele>78.48</ele>
        <time>2019-10-15T10:02:00Z</time>
      </trkpt>
      <trkpt lat="37.98339" lon="-8.41978">
        <ele>79.07</ele>
        <time>2019-10-15T10:02:20Z</time>
      </trkpt>
      <trkpt lat="37.98345" lon="-8.41949">
        <ele>79.812</ele>
        <time>2019-10-15T10:02:40Z</time>
      </trkpt>
      <trkpt lat="37.98352" lon="-8.4192">
        <ele>80.343</ele>
        <time>2019-10-15T10:03:00Z</time>
      </trkpt>
      <trkpt lat="37.98354" lon="-8.41914">
        <ele>80.345</ele>
        <time>2019-10-15T10:03:20Z</time>
      </trkpt>
      <trkpt lat="37.98357" lon="-8.41911">
        <ele>80.335</ele>
        <time>2019-10-15T10:03:40Z</time>
      </trkpt>
      <trkpt lat="37.98361" lon="-8.4191">
        <ele>80.513</ele>
        <time>2019-10-15T10:04:00Z</time>
      </trkpt>
      <trkpt lat="37.98366" lon="-8.41912">
        <ele>80.943</ele>
        <time>2019-10-15T10:04:20Z</time>
      </trkpt>
      <trkpt lat="37.98373" lon="-8.41917">
        <ele>81.407</ele>
        <time>2019-10-15T10:04:40Z</time>
      </trkpt>
      <trkpt lat="37.98382" lon="-8.41923">
        <ele>81.708</ele>
        <time>2019-10-15T10:05:00Z</time>
      </trkpt>
      <trkpt lat="37.98407" lon="-8.41936">
        <ele>82.275</ele>
        <time>2019-10-15T10:05:20Z</time>
      </trkpt>
      <trkpt lat="37.98422" lon="-8.41941">
        <ele>82.253</ele>
        <time>2019-10-15T10:05:40Z</time>
      </trkpt>
      <trkpt lat="37.98494" lon="-8.41956">
        <ele>82.535</ele>
        <time>2019-10-15T10:06:00Z</time>
      </trkpt>
      <trkpt lat="37.98502" lon="-8.41956">
        <ele>82.625</ele>
        <time>2019-10-15T10:06:20Z</time>
      </trkpt>
      <trkpt lat="37.98532" lon="-8.4195">
        <ele>82.787</ele>
        <time>2019-10-15T10:06:40Z</time>
      </trkpt>
      <trkpt lat="37.98531" lon="-8.41949">
        <ele>82.718</ele>
        <time>2019-10-15T10:07:00Z</time>
      </trkpt>
      <trkpt lat="37.98531" lon="-8.41949">
        <ele>82.78</ele>
        <time>2019-10-15T10:07:20Z</time>
      </trkpt>
      <trkpt lat="37.98536" lon="-8.41948">
        <ele>82.63</ele>
        <time>2019-10-15T10:07:40Z</time>
      </trkpt>
      <trkpt lat="37.98583" lon="-8.41935">
        <ele>80.067</ele>
        <time>2019-10-15T10:08:00Z</time>
      </trkpt>
      <trkpt lat="37.98595" lon="-8.4193">
        <ele>79.881</ele>
        <time>2019-10-15T10:08:20Z</time>
      </trkpt>
      <trkpt lat="37.98607" lon="-8.41925">
        <ele>79.719</ele>
        <time>2019-10-15T10:08:40Z</time>
      </trkpt>
      <trkpt lat="37.98621" lon="-8.41921">
        <ele>79.108</ele>
        <time>2019-10-15T10:09:00Z</time>
      </trkpt>
      <trkpt lat="37.98637" lon="-8.41921">
        <ele>78.09</ele>
        <time>2019-10-15T10:09:20Z</time>
      </trkpt>
      <trkpt lat="37.98656" lon="-8.41923">
        <ele>77.228</ele>
        <time>2019-10-15T10:09:40Z</time>
      </trkpt>
      <trkpt lat="37.98677" lon="-8.41926">
        <ele>77.05</ele>
        <time>2019-10-15T10:10:00Z</time>
      </trkpt>
      <trkpt lat="37.98749" lon="-8.41944">
        <ele>78.02</ele>
        <time>2019-10-15T10:10:20Z</time>
      </trkpt>
      <trkpt lat="37.98841" lon="-8.41966">
        <ele>77.422</ele>
        <time>2019-10-15T10:10:40Z</time>
      </trkpt>
      <trkpt lat="37.98856" lon="-8.41966">
        <ele>78.673</ele>
        <time>2019-10-15T10:11:00Z</time>
      </trkpt>
      <trkpt lat="37.98871" lon="-8.41963">
        <ele>79.265</ele>
        <time>2019-10-15T10:11:20Z</time>
      </trkpt>
      <trkpt lat="37.98923" lon="-8.41946">
        <ele>77.815</ele>
        <time>2019-10-15T10:11:40Z</time>
      </trkpt>
      <trkpt lat="37.98941" lon="-8.41939">
        <ele>77.184</ele>
        <time>2019-10-15T10:12:00Z</time>
      </trkpt>
      <trkpt lat="37.99044" lon="-8.41896">
        <ele>78.007</ele>
        <time>2019-10-15T10:12:20Z</time>
      </trkpt>
      <trkpt lat="37.99169" lon="-8.41842">
        <ele>74.717</ele>
        <time>2019-10-15T10:12:40Z</time>
      </trkpt>
      <trkpt lat="37.99294" lon="-8.41783">
        <ele>74.108</ele>
        <time>2019-10-15T10:13:00Z</time>
      </trkpt>
      <trkpt lat="37.99309" lon="-8.41775">
        <ele>74.142</ele>
        <time>2019-10-15T10:13:20Z</time>
      </trkpt>
      <trkpt lat="37.99324" lon="-8.4177">
        <ele>74.37</ele>
        <time>2019-10-15T10:13:40Z</time>
      </trkpt>
      <trkpt lat="37.99438" lon="-8.41726">
        <ele>76.922</ele>
        <time>2019-10-15T10:14:00Z</time>
      </trkpt>
      <trkpt lat="37.99492" lon="-8.41703">
        <ele>76.322</ele>
        <time>2019-10-15T10:14:20Z</time>
      </trkpt>
      <trkpt lat="37.99497" lon="-8.41698">
        <ele>76.154</ele>
        <time>2019-10-15T10:14:40Z</time>
      </trkpt>
      <trkpt lat="37.995" lon="-8.41692">
        <ele>75.975</ele>
        <time>2019-10-15T10:15:00Z</time>
      </trkpt>
      <trkpt lat="37.99501" lon="-8.41685">
        <ele>75.767</ele>
        <time>2019-10-15T10:15:20Z</time>
      </trkpt>
      <trkpt lat="37.995" lon="-8.41677">
        <ele>75.477</ele>
        <time>2019-10-15T10:15:40Z</time>
      </trkpt>
      <trkpt lat="37.99498" lon="-8.41667">
        <ele>75.033</ele>
        <time>2019-10-15T10:16:00Z</time>
      </trkpt>
      <trkpt lat="37.99494" lon="-8.41655">
        <ele>74.123</ele>
        <time>2019-10-15T10:16:20Z</time>
      </trkpt>
      <trkpt lat="37.99486" lon="-8.41622">
        <ele>72.415</ele>
        <time>2019-10-15T10:16:40Z</time>
      </trkpt>
      <trkpt lat="37.99471" lon="-8.41539">
        <ele>71.608</ele>
        <time>2019-10-15T10:17:00Z</time>
      </trkpt>
      <trkpt lat="37.99471" lon="-8.41532">
        <ele>71.837</ele>
        <time>2019-10-15T10:17:20Z</time>
      </trkpt>
      <trkpt lat="37.99474" lon="-8.41528">
        <ele>72.055</ele>
        <time>2019-10-15T10:17:40Z</time>
      </trkpt>
      <trkpt lat="37.99477" lon="-8.41527">
        <ele>72.027</ele>
        <time>2019-10-15T10:18:00Z</time>
      </trkpt>
      <trkpt lat="37.99479" lon="-8.41527">
        <ele>72.047</ele>
        <time>2019-10-15T10:18:20Z</time>
      </trkpt>
      <trkpt lat="37.99481" lon="-8.41528">
        <ele>72.039</ele>
        <time>2019-10-15T10:18:40Z</time>
      </trkpt>
      <trkpt lat="37.99483" lon="-8.4153">
        <ele>71.97</ele>
        <time>2019-10-15T10:19:00Z</time>
      </trkpt>
      <trkpt lat="37.99486" lon="-8.41532">
        <ele>71.982</ele>
        <time>2019-10-15T10:19:20Z</time>
      </trkpt>
      <trkpt lat="37.99494" lon="-8.41547">
        <ele>71.342</ele>
        <time>2019-10-15T10:19:40Z</time>
      </trkpt>
      <trkpt lat="37.99495" lon="-8.41547">
        <ele>71.397</ele>
        <time>2019-10-15T10:20:00Z</time>
      </trkpt>
      <trkpt lat="37.99495" lon="-8.41547">
        <ele>71.323</ele>
        <time>2019-10-15T10:20:20Z</time>
      </trkpt>
      <trkpt lat="37.99496" lon="-8.41549">
        <ele>71.225</ele>
        <time>2019-10-15T10:20:40Z</time>
      </trkpt>
      <trkpt lat="37.99498" lon="-8.41553">
        <ele>71.108</ele>
        <time>2019-10-15T10:21:00Z</time>
      </trkpt>
      <trkpt lat="37.99501" lon="-8.41561">
        <ele>71.263</ele>
        <time>2019-10-15T10:21:20Z</time>
      </trkpt>
      <trkpt lat="37.99504" lon="-8.41569">
        <ele>71.651</ele>
        <time>2019-10-15T10:21:40Z</time>
      </trkpt>
      <trkpt lat="37.99507" lon="-8.41575">
        <ele>72.073</ele>
        <time>2019-10-15T10:22:00Z</time>
      </trkpt>
      <trkpt lat="37.99513" lon="-8.41578">
        <ele>72.323</ele>
        <time>2019-10-15T10:22:20Z</time>
      </trkpt>
      <trkpt lat="37.99519" lon="-8.41579">
        <ele>72.565</ele>
        <time>2019-10-15T10:22:40Z</time>
      </trkpt>
      <trkpt lat="37.99526" lon="-8.41577">
        <ele>72.726</ele>
        <time>2019-10-15T10:23:00Z</time>
      </trkpt>
      <trkpt lat="37.99535" lon="-8.41573">
        <ele>72.678</ele>
        <time>2019-10-15T10:23:20Z</time>
      </trkpt>
      <trkpt lat="37.99546" lon="-8.41568">
        <ele>72.448</ele>
        <time>2019-10-15T10:23:40Z</time>
      </trkpt>
      <trkpt lat="37.99602" lon="-8.41545">
        <ele>73.773</ele>
        <time>2019-10-15T10:24:00Z</time>
      </trkpt>
      <trkpt lat="37.99645" lon="-8.41527">
        <ele>77.585</ele>
        <time>2019-10-15T10:24:20Z</time>
      </trkpt>
      <trkpt lat="37.99672" lon="-8.41516">
        <ele>79.213</ele>
        <time>2019-10-15T10:24:40Z</time>
      </trkpt>
      <trkpt lat="37.99676" lon="-8.41512">
        <ele>79.208</ele>
        <time>2019-10-15T10:25:00Z</time>
      </trkpt>
      <trkpt lat="37.99677" lon="-8.41507">
        <ele>79.441</ele>
        <time>2019-10-15T10:25:20Z</time>
      </trkpt>
      <trkpt lat="37.99676" lon="-8.41501">
        <ele>79.639</ele>
        <time>2019-10-15T10:25:40Z</time>
      </trkpt>
      <trkpt lat="37.99673" lon="-8.41493">
        <ele>80.011</ele>
        <time>2019-10-15T10:26:00Z</time>
      </trkpt>
      <trkpt lat="37.99668" lon="-8.41483">
        <ele>80.631</ele>
        <time>2019-10-15T10:26:20Z</time>
      </trkpt>
      <trkpt lat="37.99661" lon="-8.41471">
        <ele>80.653</ele>
        <time>2019-10-15T10:26:40Z</time>
      </trkpt>
      <trkpt lat="37.99628" lon="-8.41393">
        <ele>77.354</ele>
        <time>2019-10-15T10:27:00Z</time>
      </trkpt>
      <trkpt lat="37.99626" lon="-8.41387">
        <ele>77.026</ele>
        <time>2019-10-15T10:27:20Z</time>
      </trkpt>
      <trkpt lat="37.99627" lon="-8.41382">
        <ele>76.936</ele>
        <time>2019-10-15T10:27:40Z</time>
      </trkpt>
      <trkpt lat="37.99629" lon="-8.41378">
        <ele>76.936</ele>
        <time>2019-10-15T10:28:00Z</time>
      </trkpt>
      <trkpt lat="37.99634" lon="-8.41375">
        <ele>76.917</ele>
        <time>2019-10-15T10:28:20Z</time>
      </trkpt>
      <trkpt lat="37.9964" lon="-8.41373">
        <ele>77.018</ele>
        <time>2019-10-15T10:28:40Z</time>
      </trkpt>
      <trkpt lat="37.99648" lon="-8.41371">
        <ele>77.108</ele>
        <time>2019-10-15T10:29:00Z</time>
      </trkpt>
      <trkpt lat="37.99723" lon="-8.41341">
        <ele>78.037</ele>
        <time>2019-10-15T10:29:20Z</time>
      </trkpt>
      <trkpt lat="37.9985" lon="-8.41288">
        <ele>72.235</ele>
        <time>2019-10-15T10:29:40Z</time>
      </trkpt>
      <trkpt lat="37.99995" lon="-8.41226">
        <ele>77.037</ele>
        <time>2019-10-15T10:30:00Z</time>
      </trkpt>
      <trkpt lat="38.00022" lon="-8.41213">
        <ele>77.587</ele>
        <time>2019-10-15T10:30:20Z</time>
      </trkpt>
      <trkpt lat="38.00036" lon="-8.41204">
        <ele>77.359</ele>
        <time>2019-10-15T10:30:40Z</time>
      </trkpt>
      <trkpt lat="38.00045" lon="-8.41201">
        <ele>77.25</ele>
        <time>2019-10-15T10:31:00Z</time>
      </trkpt>
      <trkpt lat="38.0005" lon="-8.412">
        <ele>77.272</ele>
        <time>2019-10-15T10:31:20Z</time>
      </trkpt>
      <trkpt lat="38.0006" lon="-8.41198">
        <ele>77.142</ele>
        <time>2019-10-15T10:31:40Z</time>
      </trkpt>
      <trkpt lat="38.00065" lon="-8.41196">
        <ele>77.124</ele>
        <time>2019-10-15T10:32:00Z</time>
      </trkpt>
      <trkpt lat="38.00117" lon="-8.41173">
        <ele>77.004</ele>
        <time>2019-10-15T10:32:20Z</time>
      </trkpt>
      <trkpt lat="38.00121" lon="-8.41171">
        <ele>77.014</ele>
        <time>2019-10-15T10:32:40Z</time>
      </trkpt>
      <trkpt lat="38.00123" lon="-8.4117">
        <ele>77.008</ele>
        <time>2019-10-15T10:33:00Z</time>
      </trkpt>
      <trkpt lat="38.00154" lon="-8.41158">
        <ele>76.576</ele>
        <time>2019-10-15T10:33:20Z</time>
      </trkpt>
      <trkpt lat="38.00245" lon="-8.41119">
        <ele>75.934</ele>
        <time>2019-10-15T10:33:40Z</time>
      </trkpt>
      <trkpt lat="38.00328" lon="-8.41084">
        <ele>80.626</ele>
        <time>2019-10-15T10:34:00Z</time>
      </trkpt>
      <trkpt lat="38.00385" lon="-8.41063">
        <ele>81.186</ele>
        <time>2019-10-15T10:34:20Z</time>
      </trkpt>
      <trkpt lat="38.00429" lon="-8.41045">
        <ele>81.328</ele>
        <time>2019-10-15T10:34:40Z</time>
      </trkpt>
      <trkpt lat="38.00492" lon="-8.41019">
        <ele>81.779</ele>
        <time>2019-10-15T10:35:00Z</time>
      </trkpt>
      <trkpt lat="38.00521" lon="-8.41006">
        <ele>80.631</ele>
        <time>2019-10-15T10:35:20Z</time>
      </trkpt>
      <trkpt lat="38.00549" lon="-8.40995">
        <ele>79.881</ele>
        <time>2019-10-15T10:35:40Z</time>
      </trkpt>
      <trkpt lat="38.00551" lon="-8.40994">
        <ele>79.838</ele>
        <time>2019-10-15T10:36:00Z</time>
      </trkpt>
      <trkpt lat="38.00554" lon="-8.40994">
        <ele>79.87</ele>
        <time>2019-10-15T10:36:20Z</time>
      </trkpt>
      <trkpt lat="38.00558" lon="-8.40998">
        <ele>80.017</ele>
        <time>2019-10-15T10:36:40Z</time>
      </trkpt>
      <trkpt lat="38.00563" lon="-8.41004">
        <ele>80.508</ele>
        <time>2019-10-15T10:37:00Z</time>
      </trkpt>
      <trkpt lat="38.0057" lon="-8.41011">
        <ele>81.157</ele>
        <time>2019-10-15T10:37:20Z</time>
      </trkpt>
      <trkpt lat="38.00592" lon="-8.41035">
        <ele>81.915</ele>
        <time>2019-10-15T10:37:40Z</time>
      </trkpt>
      <trkpt lat="38.00596" lon="-8.41037">
        <ele>81.947</ele>
        <time>2019-10-15T10:38:00Z</time>
      </trkpt>
      <trkpt lat="38.006" lon="-8.41037">
        <ele>81.787</ele>
        <time>2019-10-15T10:38:20Z</time>
      </trkpt>
      <trkpt lat="38.00604" lon="-8.41036">
        <ele>81.619</ele>
        <time>2019-10-15T10:38:40Z</time>
      </trkpt>
      <trkpt lat="38.00607" lon="-8.41034">
        <ele>81.45</ele>
        <time>2019-10-15T10:39:00Z</time>
      </trkpt>
      <trkpt lat="38.0061" lon="-8.41032">
        <ele>81.262</ele>
        <time>2019-10-15T10:39:20Z</time>
      </trkpt>
      <trkpt lat="38.00613" lon="-8.41029">
        <ele>81.062</ele>
        <time>2019-10-15T10:39:40Z</time>
      </trkpt>
      <trkpt lat="38.00616" lon="-8.41025">
        <ele>80.869</ele>
        <time>2019-10-15T10:40:00Z</time>
      </trkpt>
      <trkpt lat="38.0062" lon="-8.41021">
        <ele>80.704</ele>
        <time>2019-10-15T10:40:20Z</time>
      </trkpt>
      <trkpt lat="38.00639" lon="-8.41003">
        <ele>80.024</ele>
        <time>2019-10-15T10:40:40Z</time>
      </trkpt>
      <trkpt lat="38.00645" lon="-8.40998">
        <ele>80.008</ele>
        <time>2019-10-15T10:41:00Z</time>
      </trkpt>
      <trkpt lat="38.00652" lon="-8.40994">
        <ele>80.17</ele>
        <time>2019-10-15T10:41:20Z</time>
      </trkpt>
      <trkpt lat="38.00658" lon="-8.4099">
        <ele>80.388</ele>
        <time>2019-10-15T10:41:40Z</time>
      </trkpt>
      <trkpt lat="38.00665" lon="-8.40987">
        <ele>80.59</ele>
        <time>2019-10-15T10:42:00Z</time>
      </trkpt>
      <trkpt lat="38.00756" lon="-8.40947">
        <ele>78.08</ele>
        <time>2019-10-15T10:42:20Z</time>
      </trkpt>
      <trkpt lat="38.0083" lon="-8.40913">
        <ele>77.192</ele>
        <time>2019-10-15T10:42:40Z</time>
      </trkpt>
      <trkpt lat="38.00839" lon="-8.40908">
        <ele>77.133</ele>
        <time>2019-10-15T10:43:00Z</time>
      </trkpt>
      <trkpt lat="38.00847" lon="-8.40901">
        <ele>77.185</ele>
        <time>2019-10-15T10:43:20Z</time>
      </trkpt>
      <trkpt lat="38.00854" lon="-8.40893">
        <ele>77.125</ele>
        <time>2019-10-15T10:43:40Z</time>
      </trkpt>
      <trkpt lat="38.0086" lon="-8.40882">
        <ele>77.373</ele>
        <time>2019-10-15T10:44:00Z</time>
      </trkpt>
      <trkpt lat="38.00865" lon="-8.4087">
        <ele>77.785</ele>
        <time>2019-10-15T10:44:20Z</time>
      </trkpt>
      <trkpt lat="38.00867" lon="-8.40859">
        <ele>78.013</ele>
        <time>2019-10-15T10:44:40Z</time>
      </trkpt>
      <trkpt lat="38.00869" lon="-8.40852">
        <ele>78.108</ele>
        <time>2019-10-15T10:45:00Z</time>
      </trkpt>
      <trkpt lat="38.0087" lon="-8.40849">
        <ele>78.151</ele>
        <time>2019-10-15T10:45:20Z</time>
      </trkpt>
      <trkpt lat="38.00872" lon="-8.4085">
        <ele>78.239</ele>
        <time>2019-10-15T10:45:40Z</time>
      </trkpt>
      <trkpt lat="38.00874" lon="-8.40851">
        <ele>78.231</ele>
        <time>2019-10-15T10:46:00Z</time>
      </trkpt>
      <trkpt lat="38.00875" lon="-8.40853">
        <ele>78.181</ele>
        <time>2019-10-15T10:46:20Z</time>
      </trkpt>
      <trkpt lat="38.00879" lon="-8.40857">
        <ele>78.183</ele>
        <time>2019-10-15T10:46:40Z</time>
      </trkpt>
      <trkpt lat="38.0088" lon="-8.40857">
        <ele>78.114</ele>
        <time>2019-10-15T10:47:00Z</time>
      </trkpt>
      <trkpt lat="38.00881" lon="-8.40857">
        <ele>78.146</ele>
        <time>2019-10-15T10:47:20Z</time>
      </trkpt>
      <trkpt lat="38.00881" lon="-8.4086">
        <ele>78.016</ele>
        <time>2019-10-15T10:47:40Z</time>
      </trkpt>
      <trkpt lat="38.0088" lon="-8.40862">
        <ele>77.942</ele>
        <time>2019-10-15T10:48:00Z</time>
      </trkpt>
      <trkpt lat="38.00878" lon="-8.40864">
        <ele>77.922</ele>
        <time>2019-10-15T10:48:20Z</time>
      </trkpt>
      <trkpt lat="38.00874" lon="-8.40868">
        <ele>77.714</ele>
        <time>2019-10-15T10:48:40Z</time>
      </trkpt>
      <trkpt lat="38.00872" lon="-8.40872">
        <ele>77.408</ele>
        <time>2019-10-15T10:49:00Z</time>
      </trkpt>
      <trkpt lat="38.0087" lon="-8.40879">
        <ele>77.198</ele>
        <time>2019-10-15T10:49:20Z</time>
      </trkpt>
      <trkpt lat="38.00869" lon="-8.40886">
        <ele>76.866</ele>
        <time>2019-10-15T10:49:40Z</time>
      </trkpt>
      <trkpt lat="38.00869" lon="-8.40893">
        <ele>76.698</ele>
        <time>2019-10-15T10:50:00Z</time>
      </trkpt>
      <trkpt lat="38.00865" lon="-8.40914">
        <ele>76.098</ele>
        <time>2019-10-15T10:50:20Z</time>
      </trkpt>
      <trkpt lat="38.00861" lon="-8.40915">
        <ele>76.17</ele>
        <time>2019-10-15T10:50:40Z</time>
      </trkpt>
      <trkpt lat="38.00855" lon="-8.40916">
        <ele>76.261</ele>
        <time>2019-10-15T10:51:00Z</time>
      </trkpt>
      <trkpt lat="38.00848" lon="-8.40916">
        <ele>76.513</ele>
        <time>2019-10-15T10:51:20Z</time>
      </trkpt>
      <trkpt lat="38.00839" lon="-8.40918">
        <ele>76.893</ele>
        <time>2019-10-15T10:51:40Z</time>
      </trkpt>
      <trkpt lat="38.00829" lon="-8.40921">
        <ele>77.092</ele>
        <time>2019-10-15T10:52:00Z</time>
      </trkpt>
      <trkpt lat="38.00818" lon="-8.40925">
        <ele>77.273</ele>
        <time>2019-10-15T10:52:20Z</time>
      </trkpt>
      <trkpt lat="38.00806" lon="-8.40931">
        <ele>77.52</ele>
        <time>2019-10-15T10:52:40Z</time>
      </trkpt>
      <trkpt lat="38.00735" lon="-8.4096">
        <ele>78.508</ele>
        <time>2019-10-15T10:53:00Z</time>
      </trkpt>
      <trkpt lat="38.00647" lon="-8.41001">
        <ele>80.013</ele>
        <time>2019-10-15T10:53:20Z</time>
      </trkpt>
      <trkpt lat="38.00637" lon="-8.41009">
        <ele>80.181</ele>
        <time>2019-10-15T10:53:40Z</time>
      </trkpt>
      <trkpt lat="38.00628" lon="-8.41017">
        <ele>80.443</ele>
        <time>2019-10-15T10:54:00Z</time>
      </trkpt>
      <trkpt lat="38.0062" lon="-8.41026">
        <ele>80.753</ele>
        <time>2019-10-15T10:54:20Z</time>
      </trkpt>
      <trkpt lat="38.00614" lon="-8.41033">
        <ele>81.175</ele>
        <time>2019-10-15T10:54:40Z</time>
      </trkpt>
      <trkpt lat="38.00601" lon="-8.41046">
        <ele>82.026</ele>
        <time>2019-10-15T10:55:00Z</time>
      </trkpt>
      <trkpt lat="38.00599" lon="-8.41044">
        <ele>82.078</ele>
        <time>2019-10-15T10:55:20Z</time>
      </trkpt>
      <trkpt lat="38.00598" lon="-8.41042">
        <ele>82.098</ele>
        <time>2019-10-15T10:55:40Z</time>
      </trkpt>
      <trkpt lat="38.00599" lon="-8.4104">
        <ele>81.938</ele>
        <time>2019-10-15T10:56:00Z</time>
      </trkpt>
      <trkpt lat="38.006" lon="-8.41041">
        <ele>81.97</ele>
        <time>2019-10-15T10:56:20Z</time>
      </trkpt>
      <trkpt lat="38.006" lon="-8.41043">
        <ele>81.917</ele>
        <time>2019-10-15T10:56:40Z</time>
      </trkpt>
      <trkpt lat="38.00597" lon="-8.41046">
        <ele>82.208</ele>
        <time>2019-10-15T10:57:00Z</time>
      </trkpt>
      <trkpt lat="38.00596" lon="-8.41044">
        <ele>82.127</ele>
        <time>2019-10-15T10:57:20Z</time>
      </trkpt>
      <trkpt lat="38.00597" lon="-8.41044">
        <ele>82.195</ele>
        <time>2019-10-15T10:57:40Z</time>
      </trkpt>
      <trkpt lat="38.00597" lon="-8.41045">
        <ele>82.147</ele>
        <time>2019-10-15T10:58:00Z</time>
      </trkpt>
      <trkpt lat="38.00598" lon="-8.41042">
        <ele>82.047</ele>
        <time>2019-10-15T10:58:20Z</time>
      </trkpt>
      <trkpt lat="38.00596" lon="-8.41044">
        <ele>82.169</ele>
        <time>2019-10-15T10:58:40Z</time>
      </trkpt>
      <trkpt lat="38.00596" lon="-8.41043">
        <ele>82.16</ele>
        <time>2019-10-15T10:59:00Z</time>
      </trkpt>
      <trkpt lat="38.00596" lon="-8.41043">
        <ele>82.152</ele>
        <time>2019-10-15T10:59:20Z</time>
      </trkpt>
      <trkpt lat="38.00596" lon="-8.41042">
        <ele>82.132</ele>
        <time>2019-10-15T10:59:40Z</time>
      </trkpt>
      <trkpt lat="38.00595" lon="-8.4104">
        <ele>82.027</ele>
        <time>2019-10-15T11:00:00Z</time>
      </trkpt>
      <trkpt lat="38.00598" lon="-8.41039">
        <ele>81.968</ele>
        <time>2019-10-15T11:00:20Z</time>
      </trkpt>
      <trkpt lat="38.00601" lon="-8.41038">
        <ele>81.714</ele>
        <time>2019-10-15T11:00:40Z</time>
      </trkpt>
      <trkpt lat="38.00604" lon="-8.41034">
        <ele>81.508</ele>
        <time>2019-10-15T11:01:00Z</time>
      </trkpt>
      <trkpt lat="38.00652" lon="-8.40992">
        <ele>80.116</ele>
        <time>2019-10-15T11:01:20Z</time>
      </trkpt>
      <trkpt lat="38.00664" lon="-8.40986">
        <ele>80.574</ele>
        <time>2019-10-15T11:01:40Z</time>
      </trkpt>
      <trkpt lat="38.00712" lon="-8.40965">
        <ele>79.646</ele>
        <time>2019-10-15T11:02:00Z</time>
      </trkpt>
      <trkpt lat="38.00812" lon="-8.40922">
        <ele>77.246</ele>
        <time>2019-10-15T11:02:20Z</time>
      </trkpt>
      <trkpt lat="38.00852" lon="-8.409">
        <ele>76.938</ele>
        <time>2019-10-15T11:02:40Z</time>
      </trkpt>
      <trkpt lat="38.00857" lon="-8.40895">
        <ele>76.969</ele>
        <time>2019-10-15T11:03:00Z</time>
      </trkpt>
      <trkpt lat="38.00862" lon="-8.40889">
        <ele>77.061</ele>
        <time>2019-10-15T11:03:20Z</time>
      </trkpt>
      <trkpt lat="38.00868" lon="-8.40879">
        <ele>77.221</ele>
        <time>2019-10-15T11:03:40Z</time>
      </trkpt>
      <trkpt lat="38.0087" lon="-8.40874">
        <ele>77.495</ele>
        <time>2019-10-15T11:04:00Z</time>
      </trkpt>
      <trkpt lat="38.00871" lon="-8.40869">
        <ele>77.649</ele>
        <time>2019-10-15T11:04:20Z</time>
      </trkpt>
      <trkpt lat="38.00871" lon="-8.40864">
        <ele>77.823</ele>
        <time>2019-10-15T11:04:40Z</time>
      </trkpt>
      <trkpt lat="38.00873" lon="-8.4086">
        <ele>78.008</ele>
        <time>2019-10-15T11:05:00Z</time>
      </trkpt>
      <trkpt lat="38.00875" lon="-8.40857">
        <ele>78.143</ele>
        <time>2019-10-15T11:05:20Z</time>
      </trkpt>
      <trkpt lat="38.00877" lon="-8.40856">
        <ele>78.181</ele>
        <time>2019-10-15T11:05:40Z</time>
      </trkpt>
      <trkpt lat="38.00879" lon="-8.40856">
        <ele>78.133</ele>
        <time>2019-10-15T11:06:00Z</time>
      </trkpt>
      <trkpt lat="38.00882" lon="-8.40856">
        <ele>78.143</ele>
        <time>2019-10-15T11:06:20Z</time>
      </trkpt>
      <trkpt lat="38.00884" lon="-8.40857">
        <ele>78.135</ele>
        <time>2019-10-15T11:06:40Z</time>
      </trkpt>
      <trkpt lat="38.00886" lon="-8.40859">
        <ele>78.116</ele>
        <time>2019-10-15T11:07:00Z</time>
      </trkpt>
      <trkpt lat="38.00927" lon="-8.40875">
        <ele>75.288</ele>
        <time>2019-10-15T11:07:20Z</time>
      </trkpt>
      <trkpt lat="38.00979" lon="-8.40893">
        <ele>75.058</ele>
        <time>2019-10-15T11:07:40Z</time>
      </trkpt>
      <trkpt lat="38.01087" lon="-8.40931">
        <ele>72.146</ele>
        <time>2019-10-15T11:08:00Z</time>
      </trkpt>
      <trkpt lat="38.0119" lon="-8.41005">
        <ele>76.788</ele>
        <time>2019-10-15T11:08:20Z</time>
      </trkpt>
      <trkpt lat="38.01239" lon="-8.41061">
        <ele>78.816</ele>
        <time>2019-10-15T11:08:40Z</time>
      </trkpt>
      <trkpt lat="38.01305" lon="-8.41137">
        <ele>74.108</ele>
        <time>2019-10-15T11:09:00Z</time>
      </trkpt>
      <trkpt lat="38.01315" lon="-8.41145">
        <ele>73.998</ele>
        <time>2019-10-15T11:09:20Z</time>
      </trkpt>
      <trkpt lat="38.01341" lon="-8.41161">
        <ele>73.436</ele>
        <time>2019-10-15T11:09:40Z</time>
      </trkpt>
      <trkpt lat="38.01349" lon="-8.41163">
        <ele>73.638</ele>
        <time>2019-10-15T11:10:00Z</time>
      </trkpt>
      <trkpt lat="38.01359" lon="-8.41165">
        <ele>73.988</ele>
        <time>2019-10-15T11:10:20Z</time>
      </trkpt>
      <trkpt lat="38.01369" lon="-8.41165">
        <ele>74.08</ele>
        <time>2019-10-15T11:10:40Z</time>
      </trkpt>
      <trkpt lat="38.01382" lon="-8.41163">
        <ele>74.021</ele>
        <time>2019-10-15T11:11:00Z</time>
      </trkpt>
      <trkpt lat="38.01396" lon="-8.4116">
        <ele>74.033</ele>
        <time>2019-10-15T11:11:20Z</time>
      </trkpt>
      <trkpt lat="38.01446" lon="-8.41149">
        <ele>75.143</ele>
        <time>2019-10-15T11:11:40Z</time>
      </trkpt>
      <trkpt lat="38.01616" lon="-8.4113">
        <ele>77.037</ele>
        <time>2019-10-15T11:12:00Z</time>
      </trkpt>
      <trkpt lat="38.01785" lon="-8.41111">
        <ele>75.049</ele>
        <time>2019-10-15T11:12:20Z</time>
      </trkpt>
      <trkpt lat="38.01965" lon="-8.41092">
        <ele>76.513</ele>
        <time>2019-10-15T11:12:40Z</time>
      </trkpt>
      <trkpt lat="38.02004" lon="-8.41083">
        <ele>77.008</ele>
        <time>2019-10-15T11:13:00Z</time>
      </trkpt>
      <trkpt lat="38.02013" lon="-8.41078">
        <ele>76.917</ele>
        <time>2019-10-15T11:13:20Z</time>
      </trkpt>
      <trkpt lat="38.02021" lon="-8.41071">
        <ele>76.985</ele>
        <time>2019-10-15T11:13:40Z</time>
      </trkpt>
      <trkpt lat="38.02029" lon="-8.41062">
        <ele>77.037</ele>
        <time>2019-10-15T11:14:00Z</time>
      </trkpt>
      <trkpt lat="38.02036" lon="-8.41051">
        <ele>76.767</ele>
        <time>2019-10-15T11:14:20Z</time>
      </trkpt>
      <trkpt lat="38.02043" lon="-8.41038">
        <ele>76.889</ele>
        <time>2019-10-15T11:14:40Z</time>
      </trkpt>
      <trkpt lat="38.0212" lon="-8.40954">
        <ele>78.23</ele>
        <time>2019-10-15T11:15:00Z</time>
      </trkpt>
      <trkpt lat="38.02209" lon="-8.40892">
        <ele>82.922</ele>
        <time>2019-10-15T11:15:20Z</time>
      </trkpt>
      <trkpt lat="38.0231" lon="-8.40806">
        <ele>83.692</ele>
        <time>2019-10-15T11:15:40Z</time>
      </trkpt>
      <trkpt lat="38.0243" lon="-8.40709">
        <ele>77.347</ele>
        <time>2019-10-15T11:16:00Z</time>
      </trkpt>
      <trkpt lat="38.02574" lon="-8.40587">
        <ele>80.029</ele>
        <time>2019-10-15T11:16:20Z</time>
      </trkpt>
      <trkpt lat="38.02722" lon="-8.40462">
        <ele>81.021</ele>
        <time>2019-10-15T11:16:40Z</time>
      </trkpt>
      <trkpt lat="38.02818" lon="-8.40388">
        <ele>78.608</ele>
        <time>2019-10-15T11:17:00Z</time>
      </trkpt>
      <trkpt lat="38.02827" lon="-8.40378">
        <ele>78.638</ele>
        <time>2019-10-15T11:17:20Z</time>
      </trkpt>
      <trkpt lat="38.02864" lon="-8.40341">
        <ele>76.966</ele>
        <time>2019-10-15T11:17:40Z</time>
      </trkpt>
      <trkpt lat="38.02887" lon="-8.40327">
        <ele>75.978</ele>
        <time>2019-10-15T11:18:00Z</time>
      </trkpt>
      <trkpt lat="38.03029" lon="-8.40272">
        <ele>73.858</ele>
        <time>2019-10-15T11:18:20Z</time>
      </trkpt>
      <trkpt lat="38.03221" lon="-8.40194">
        <ele>78.01</ele>
        <time>2019-10-15T11:18:40Z</time>
      </trkpt>
      <trkpt lat="38.03339" lon="-8.40149">
        <ele>79.211</ele>
        <time>2019-10-15T11:19:00Z</time>
      </trkpt>
      <trkpt lat="38.03364" lon="-8.40137">
        <ele>80.173</ele>
        <time>2019-10-15T11:19:20Z</time>
      </trkpt>
      <trkpt lat="38.03372" lon="-8.40122">
        <ele>80.413</ele>
        <time>2019-10-15T11:19:40Z</time>
      </trkpt>
      <trkpt lat="38.03373" lon="-8.40122">
        <ele>80.475</ele>
        <time>2019-10-15T11:20:00Z</time>
      </trkpt>
      <trkpt lat="38.03375" lon="-8.40121">
        <ele>80.528</ele>
        <time>2019-10-15T11:20:20Z</time>
      </trkpt>
      <trkpt lat="38.03402" lon="-8.40119">
        <ele>82.12</ele>
        <time>2019-10-15T11:20:40Z</time>
      </trkpt>
      <trkpt lat="38.03409" lon="-8.40117">
        <ele>82.908</ele>
        <time>2019-10-15T11:21:00Z</time>
      </trkpt>
      <trkpt lat="38.03417" lon="-8.40114">
        <ele>83.851</ele>
        <time>2019-10-15T11:21:20Z</time>
      </trkpt>
      <trkpt lat="38.03432" lon="-8.40111">
        <ele>84.059</ele>
        <time>2019-10-15T11:21:40Z</time>
      </trkpt>
      <trkpt lat="38.0344" lon="-8.40111">
        <ele>84.031</ele>
        <time>2019-10-15T11:22:00Z</time>
      </trkpt>
      <trkpt lat="38.03543" lon="-8.4011">
        <ele>79.971</ele>
        <time>2019-10-15T11:22:20Z</time>
      </trkpt>
      <trkpt lat="38.03614" lon="-8.4011">
        <ele>79.023</ele>
        <time>2019-10-15T11:22:40Z</time>
      </trkpt>
      <trkpt lat="38.03704" lon="-8.40117">
        <ele>76.124</ele>
        <time>2019-10-15T11:23:00Z</time>
      </trkpt>
      <trkpt lat="38.03706" lon="-8.40118">
        <ele>76.196</ele>
        <time>2019-10-15T11:23:20Z</time>
      </trkpt>
      <trkpt lat="38.03705" lon="-8.40119">
        <ele>76.276</ele>
        <time>2019-10-15T11:23:40Z</time>
      </trkpt>
      <trkpt lat="38.03704" lon="-8.40119">
        <ele>76.217</ele>
        <time>2019-10-15T11:24:00Z</time>
      </trkpt>
      <trkpt lat="38.03706" lon="-8.40118">
        <ele>76.187</ele>
        <time>2019-10-15T11:24:20Z</time>
      </trkpt>
      <trkpt lat="38.03707" lon="-8.40116">
        <ele>76.115</ele>
        <time>2019-10-15T11:24:40Z</time>
      </trkpt>
      <trkpt lat="38.03708" lon="-8.40117">
        <ele>76.108</ele>
        <time>2019-10-15T11:25:00Z</time>
      </trkpt>
      <trkpt lat="38.0371" lon="-8.40117">
        <ele>76.145</ele>
        <time>2019-10-15T11:25:20Z</time>
      </trkpt>
      <trkpt lat="38.03714" lon="-8.40117">
        <ele>76.143</ele>
        <time>2019-10-15T11:25:40Z</time>
      </trkpt>
      <trkpt lat="38.03759" lon="-8.4012">
        <ele>76.345</ele>
        <time>2019-10-15T11:26:00Z</time>
      </trkpt>
      <trkpt lat="38.03817" lon="-8.40131">
        <ele>78.425</ele>
        <time>2019-10-15T11:26:20Z</time>
      </trkpt>
      <trkpt lat="38.03915" lon="-8.40152">
        <ele>76.547</ele>
        <time>2019-10-15T11:26:40Z</time>
      </trkpt>
      <trkpt lat="38.03924" lon="-8.40153">
        <ele>76.268</ele>
        <time>2019-10-15T11:27:00Z</time>
      </trkpt>
      <trkpt lat="38.04038" lon="-8.40187">
        <ele>74.85</ele>
        <time>2019-10-15T11:27:20Z</time>
      </trkpt>
      <trkpt lat="38.04116" lon="-8.402">
        <ele>71.77</ele>
        <time>2019-10-15T11:27:40Z</time>
      </trkpt>
      <trkpt lat="38.04124" lon="-8.40199">
        <ele>71.419</ele>
        <time>2019-10-15T11:28:00Z</time>
      </trkpt>
      <trkpt lat="38.04147" lon="-8.40198">
        <ele>71.809</ele>
        <time>2019-10-15T11:28:20Z</time>
      </trkpt>
      <trkpt lat="38.04154" lon="-8.402">
        <ele>72.419</ele>
        <time>2019-10-15T11:28:40Z</time>
      </trkpt>
      <trkpt lat="38.0416" lon="-8.40204">
        <ele>72.808</ele>
        <time>2019-10-15T11:29:00Z</time>
      </trkpt>
      <trkpt lat="38.04166" lon="-8.40209">
        <ele>72.955</ele>
        <time>2019-10-15T11:29:20Z</time>
      </trkpt>
      <trkpt lat="38.0417" lon="-8.40215">
        <ele>72.933</ele>
        <time>2019-10-15T11:29:40Z</time>
      </trkpt>
      <trkpt lat="38.04174" lon="-8.4022">
        <ele>72.915</ele>
        <time>2019-10-15T11:30:00Z</time>
      </trkpt>
      <trkpt lat="38.04176" lon="-8.40224">
        <ele>73.095</ele>
        <time>2019-10-15T11:30:20Z</time>
      </trkpt>
      <trkpt lat="38.04179" lon="-8.40225">
        <ele>73.217</ele>
        <time>2019-10-15T11:30:40Z</time>
      </trkpt>
      <trkpt lat="38.04195" lon="-8.40246">
        <ele>75.098</ele>
        <time>2019-10-15T11:31:00Z</time>
      </trkpt>
      <trkpt lat="38.04267" lon="-8.40299">
        <ele>76.11</ele>
        <time>2019-10-15T11:31:20Z</time>
      </trkpt>
      <trkpt lat="38.04289" lon="-8.40312">
        <ele>75.93</ele>
        <time>2019-10-15T11:31:40Z</time>
      </trkpt>
      <trkpt lat="38.04301" lon="-8.40317">
        <ele>76.052</ele>
        <time>2019-10-15T11:32:00Z</time>
      </trkpt>
      <trkpt lat="38.04415" lon="-8.40334">
        <ele>72.953</ele>
        <time>2019-10-15T11:32:20Z</time>
      </trkpt>
      <trkpt lat="38.04514" lon="-8.40334">
        <ele>70.408</ele>
        <time>2019-10-15T11:32:40Z</time>
      </trkpt>
      <trkpt lat="38.04567" lon="-8.40343">
        <ele>68.108</ele>
        <time>2019-10-15T11:33:00Z</time>
      </trkpt>
      <trkpt lat="38.04632" lon="-8.40327">
        <ele>68.249</ele>
        <time>2019-10-15T11:33:20Z</time>
      </trkpt>
      <trkpt lat="38.04641" lon="-8.40326">
        <ele>68.057</ele>
        <time>2019-10-15T11:33:40Z</time>
      </trkpt>
      <trkpt lat="38.0465" lon="-8.40325">
        <ele>68.179</ele>
        <time>2019-10-15T11:34:00Z</time>
      </trkpt>
      <trkpt lat="38.04659" lon="-8.40326">
        <ele>68.239</ele>
        <time>2019-10-15T11:34:20Z</time>
      </trkpt>
      <trkpt lat="38.04732" lon="-8.40339">
        <ele>69.861</ele>
        <time>2019-10-15T11:34:40Z</time>
      </trkpt>
      <trkpt lat="38.04827" lon="-8.40348">
        <ele>72.612</ele>
        <time>2019-10-15T11:35:00Z</time>
      </trkpt>
      <trkpt lat="38.04925" lon="-8.40365">
        <ele>73.924</ele>
        <time>2019-10-15T11:35:20Z</time>
      </trkpt>
      <trkpt lat="38.05022" lon="-8.4038">
        <ele>75.264</ele>
        <time>2019-10-15T11:35:40Z</time>
      </trkpt>
      <trkpt lat="38.05126" lon="-8.40393">
        <ele>75.037</ele>
        <time>2019-10-15T11:36:00Z</time>
      </trkpt>
      <trkpt lat="38.05228" lon="-8.40406">
        <ele>77.549</ele>
        <time>2019-10-15T11:36:20Z</time>
      </trkpt>
      <trkpt lat="38.05236" lon="-8.40407">
        <ele>77.713</ele>
        <time>2019-10-15T11:36:40Z</time>
      </trkpt>
      <trkpt lat="38.05243" lon="-8.40406">
        <ele>77.808</ele>
        <time>2019-10-15T11:37:00Z</time>
      </trkpt>
      <trkpt lat="38.05249" lon="-8.40406">
        <ele>78.057</ele>
        <time>2019-10-15T11:37:20Z</time>
      </trkpt>
      <trkpt lat="38.05256" lon="-8.40404">
        <ele>77.935</ele>
        <time>2019-10-15T11:37:40Z</time>
      </trkpt>
      <trkpt lat="38.05263" lon="-8.40401">
        <ele>77.727</ele>
        <time>2019-10-15T11:38:00Z</time>
      </trkpt>
      <trkpt lat="38.05269" lon="-8.40396">
        <ele>77.537</ele>
        <time>2019-10-15T11:38:20Z</time>
      </trkpt>
      <trkpt lat="38.05274" lon="-8.4039">
        <ele>77.289</ele>
        <time>2019-10-15T11:38:40Z</time>
      </trkpt>
      <trkpt lat="38.05279" lon="-8.40385">
        <ele>77.16</ele>
        <time>2019-10-15T11:39:00Z</time>
      </trkpt>
      <trkpt lat="38.05329" lon="-8.40345">
        <ele>77.062</ele>
        <time>2019-10-15T11:39:20Z</time>
      </trkpt>
      <trkpt lat="38.05365" lon="-8.40292">
        <ele>77.842</ele>
        <time>2019-10-15T11:39:40Z</time>
      </trkpt>
      <trkpt lat="38.05368" lon="-8.40288">
        <ele>77.715</ele>
        <time>2019-10-15T11:40:00Z</time>
      </trkpt>
      <trkpt lat="38.05369" lon="-8.40287">
        <ele>77.665</ele>
        <time>2019-10-15T11:40:20Z</time>
      </trkpt>
      <trkpt lat="38.05372" lon="-8.40285">
        <ele>77.511</ele>
        <time>2019-10-15T11:40:40Z</time>
      </trkpt>
      <trkpt lat="38.05424" lon="-8.40259">
        <ele>73.008</ele>
        <time>2019-10-15T11:41:00Z</time>
      </trkpt>
      <trkpt lat="38.05454" lon="-8.40246">
        <ele>70.925</ele>
        <time>2019-10-15T11:41:20Z</time>
      </trkpt>
      <trkpt lat="38.05476" lon="-8.4024">
        <ele>70.453</ele>
        <time>2019-10-15T11:41:40Z</time>
      </trkpt>
      <trkpt lat="38.05483" lon="-8.40237">
        <ele>70.425</ele>
        <time>2019-10-15T11:42:00Z</time>
      </trkpt>
      <trkpt lat="38.05489" lon="-8.40233">
        <ele>70.435</ele>
        <time>2019-10-15T11:42:20Z</time>
      </trkpt>
      <trkpt lat="38.05513" lon="-8.40213">
        <ele>69.047</ele>
        <time>2019-10-15T11:42:40Z</time>
      </trkpt>
      <trkpt lat="38.05519" lon="-8.40208">
        <ele>68.528</ele>
        <time>2019-10-15T11:43:00Z</time>
      </trkpt>
      <trkpt lat="38.05525" lon="-8.40203">
        <ele>67.87</ele>
        <time>2019-10-15T11:43:20Z</time>
      </trkpt>
      <trkpt lat="38.05531" lon="-8.402">
        <ele>67.34</ele>
        <time>2019-10-15T11:43:40Z</time>
      </trkpt>
      <trkpt lat="38.05537" lon="-8.40197">
        <ele>66.954</ele>
        <time>2019-10-15T11:44:00Z</time>
      </trkpt>
      <trkpt lat="38.05543" lon="-8.40196">
        <ele>66.656</ele>
        <time>2019-10-15T11:44:20Z</time>
      </trkpt>
      <trkpt lat="38.0555" lon="-8.40195">
        <ele>66.311</ele>
        <time>2019-10-15T11:44:40Z</time>
      </trkpt>
      <trkpt lat="38.05571" lon="-8.40198">
        <ele>65.208</ele>
        <time>2019-10-15T11:45:00Z</time>
      </trkpt>
      <trkpt lat="38.05585" lon="-8.40202">
        <ele>64.219</ele>
        <time>2019-10-15T11:45:20Z</time>
      </trkpt>
      <trkpt lat="38.05602" lon="-8.40204">
        <ele>62.217</ele>
        <time>2019-10-15T11:45:40Z</time>
      </trkpt>
      <trkpt lat="38.05625" lon="-8.40203">
        <ele>60.389</ele>
        <time>2019-10-15T11:46:00Z</time>
      </trkpt>
      <trkpt lat="38.05629" lon="-8.40202">
        <ele>60.049</ele>
        <time>2019-10-15T11:46:20Z</time>
      </trkpt>
      <trkpt lat="38.0564" lon="-8.40199">
        <ele>59.291</ele>
        <time>2019-10-15T11:46:40Z</time>
      </trkpt>
      <trkpt lat="38.05662" lon="-8.40186">
        <ele>56.372</ele>
        <time>2019-10-15T11:47:00Z</time>
      </trkpt>
      <trkpt lat="38.05666" lon="-8.40184">
        <ele>55.864</ele>
        <time>2019-10-15T11:47:20Z</time>
      </trkpt>
      <trkpt lat="38.0567" lon="-8.40182">
        <ele>55.294</ele>
        <time>2019-10-15T11:47:40Z</time>
      </trkpt>
      <trkpt lat="38.05674" lon="-8.40181">
        <ele>54.691</ele>
        <time>2019-10-15T11:48:00Z</time>
      </trkpt>
      <trkpt lat="38.05678" lon="-8.40178">
        <ele>54.081</ele>
        <time>2019-10-15T11:48:20Z</time>
      </trkpt>
      <trkpt lat="38.05682" lon="-8.40175">
        <ele>53.319</ele>
        <time>2019-10-15T11:48:40Z</time>
      </trkpt>
      <trkpt lat="38.05685" lon="-8.40171">
        <ele>52.608</ele>
        <time>2019-10-15T11:49:00Z</time>
      </trkpt>
      <trkpt lat="38.05688" lon="-8.40166">
        <ele>51.923</ele>
        <time>2019-10-15T11:49:20Z</time>
      </trkpt>
      <trkpt lat="38.05696" lon="-8.4015">
        <ele>51.031</ele>
        <time>2019-10-15T11:49:40Z</time>
      </trkpt>
      <trkpt lat="38.05701" lon="-8.40133">
        <ele>50.973</ele>
        <time>2019-10-15T11:50:00Z</time>
      </trkpt>
      <trkpt lat="38.05702" lon="-8.40128">
        <ele>50.923</ele>
        <time>2019-10-15T11:50:20Z</time>
      </trkpt>
      <trkpt lat="38.05702" lon="-8.40122">
        <ele>51.035</ele>
        <time>2019-10-15T11:50:40Z</time>
      </trkpt>
      <trkpt lat="38.05703" lon="-8.40117">
        <ele>51.026</ele>
        <time>2019-10-15T11:51:00Z</time>
      </trkpt>
      <trkpt lat="38.05703" lon="-8.40111">
        <ele>51.138</ele>
        <time>2019-10-15T11:51:20Z</time>
      </trkpt>
      <trkpt lat="38.05703" lon="-8.40105">
        <ele>51.238</ele>
        <time>2019-10-15T11:51:40Z</time>
      </trkpt>
      <trkpt lat="38.05704" lon="-8.401">
        <ele>51.115</ele>
        <time>2019-10-15T11:52:00Z</time>
      </trkpt>
      <trkpt lat="38.05705" lon="-8.40094">
        <ele>50.965</ele>
        <time>2019-10-15T11:52:20Z</time>
      </trkpt>
      <trkpt lat="38.05708" lon="-8.40089">
        <ele>50.611</ele>
        <time>2019-10-15T11:52:40Z</time>
      </trkpt>
      <trkpt lat="38.05711" lon="-8.40086">
        <ele>50.108</ele>
        <time>2019-10-15T11:53:00Z</time>
      </trkpt>
      <trkpt lat="38.05736" lon="-8.40067">
        <ele>45.885</ele>
        <time>2019-10-15T11:53:20Z</time>
      </trkpt>
      <trkpt lat="38.05738" lon="-8.40065">
        <ele>45.123</ele>
        <time>2019-10-15T11:53:40Z</time>
      </trkpt>
      <trkpt lat="38.05753" lon="-8.40043">
        <ele>39.225</ele>
        <time>2019-10-15T11:54:00Z</time>
      </trkpt>
      <trkpt lat="38.05765" lon="-8.40033">
        <ele>36.665</ele>
        <time>2019-10-15T11:54:20Z</time>
      </trkpt>
      <trkpt lat="38.05786" lon="-8.40035">
        <ele>36.057</ele>
        <time>2019-10-15T11:54:40Z</time>
      </trkpt>
      <trkpt lat="38.05798" lon="-8.40038">
        <ele>36.198</ele>
        <time>2019-10-15T11:55:00Z</time>
      </trkpt>
      <trkpt lat="38.058" lon="-8.40037">
        <ele>35.69</ele>
        <time>2019-10-15T11:55:20Z</time>
      </trkpt>
      <trkpt lat="38.05803" lon="-8.40034">
        <ele>34.65</ele>
        <time>2019-10-15T11:55:40Z</time>
      </trkpt>
      <trkpt lat="38.05806" lon="-8.4003">
        <ele>33.671</ele>
        <time>2019-10-15T11:56:00Z</time>
      </trkpt>
      <trkpt lat="38.05811" lon="-8.40029">
        <ele>33.341</ele>
        <time>2019-10-15T11:56:20Z</time>
      </trkpt>
      <trkpt lat="38.05821" lon="-8.40031">
        <ele>33.715</ele>
        <time>2019-10-15T11:56:40Z</time>
      </trkpt>
      <trkpt lat="38.05826" lon="-8.40032">
        <ele>33.908</ele>
        <time>2019-10-15T11:57:00Z</time>
      </trkpt>
      <trkpt lat="38.0583" lon="-8.40033">
        <ele>34.061</ele>
        <time>2019-10-15T11:57:20Z</time>
      </trkpt>
      <trkpt lat="38.05834" lon="-8.40034">
        <ele>33.889</ele>
        <time>2019-10-15T11:57:40Z</time>
      </trkpt>
      <trkpt lat="38.05838" lon="-8.40033">
        <ele>33.081</ele>
        <time>2019-10-15T11:58:00Z</time>
      </trkpt>
      <trkpt lat="38.05842" lon="-8.40026">
        <ele>31.341</ele>
        <time>2019-10-15T11:58:20Z</time>
      </trkpt>
      <trkpt lat="38.05841" lon="-8.40025">
        <ele>31.483</ele>
        <time>2019-10-15T11:58:40Z</time>
      </trkpt>
      <trkpt lat="38.05841" lon="-8.40024">
        <ele>31.414</ele>
        <time>2019-10-15T11:59:00Z</time>
      </trkpt>
      <trkpt lat="38.0585" lon="-8.40011">
        <ele>29.676</ele>
        <time>2019-10-15T11:59:20Z</time>
      </trkpt>
      <trkpt lat="38.05849" lon="-8.40011">
        <ele>29.726</ele>
        <time>2019-10-15T11:59:40Z</time>
      </trkpt>
      <trkpt lat="38.05843" lon="-8.40021">
        <ele>30.959</ele>
        <time>2019-10-15T12:00:00Z</time>
      </trkpt>
      <trkpt lat="38.05842" lon="-8.40022">
        <ele>31.203</ele>
        <time>2019-10-15T12:00:20Z</time>
      </trkpt>
      <trkpt lat="38.0585" lon="-8.40008">
        <ele>29.423</ele>
        <time>2019-10-15T12:00:40Z</time>
      </trkpt>
      <trkpt lat="38.05854" lon="-8.39981">
        <ele>30.308</ele>
        <time>2019-10-15T12:01:00Z</time>
      </trkpt>
      <trkpt lat="38.05855" lon="-8.39977">
        <ele>30.649</ele>
        <time>2019-10-15T12:01:20Z</time>
      </trkpt>
      <trkpt lat="38.05845" lon="-8.39955">
        <ele>31.997</ele>
        <time>2019-10-15T12:01:40Z</time>
      </trkpt>
      <trkpt lat="38.05832" lon="-8.39946">
        <ele>31.889</ele>
        <time>2019-10-15T12:02:00Z</time>
      </trkpt>
      <trkpt lat="38.05806" lon="-8.39926">
        <ele>31.399</ele>
        <time>2019-10-15T12:02:20Z</time>
      </trkpt>
      <trkpt lat="38.0579" lon="-8.39919">
        <ele>30.741</ele>
        <time>2019-10-15T12:02:40Z</time>
      </trkpt>
      <trkpt lat="38.05776" lon="-8.3991">
        <ele>30.752</ele>
        <time>2019-10-15T12:03:00Z</time>
      </trkpt>
      <trkpt lat="38.05747" lon="-8.39904">
        <ele>30.964</ele>
        <time>2019-10-15T12:03:20Z</time>
      </trkpt>
      <trkpt lat="38.05717" lon="-8.39892">
        <ele>33.214</ele>
        <time>2019-10-15T12:03:40Z</time>
      </trkpt>
      <trkpt lat="38.05691" lon="-8.39876">
        <ele>33.488</ele>
        <time>2019-10-15T12:04:00Z</time>
      </trkpt>
      <trkpt lat="38.05672" lon="-8.39842">
        <ele>34.724</ele>
        <time>2019-10-15T12:04:20Z</time>
      </trkpt>
      <trkpt lat="38.0567" lon="-8.39836">
        <ele>35.126</ele>
        <time>2019-10-15T12:04:40Z</time>
      </trkpt>
      <trkpt lat="38.05679" lon="-8.3981">
        <ele>38.108</ele>
        <time>2019-10-15T12:05:00Z</time>
      </trkpt>
      <trkpt lat="38.05693" lon="-8.39807">
        <ele>39.872</ele>
        <time>2019-10-15T12:05:20Z</time>
      </trkpt>
      <trkpt lat="38.05702" lon="-8.39806">
        <ele>40.52</ele>
        <time>2019-10-15T12:05:40Z</time>
      </trkpt>
      <trkpt lat="38.05711" lon="-8.39805">
        <ele>41.212</ele>
        <time>2019-10-15T12:06:00Z</time>
      </trkpt>
      <trkpt lat="38.05719" lon="-8.39804">
        <ele>41.912</ele>
        <time>2019-10-15T12:06:20Z</time>
      </trkpt>
      <trkpt lat="38.05728" lon="-8.39801">
        <ele>42.364</ele>
        <time>2019-10-15T12:06:40Z</time>
      </trkpt>
      <trkpt lat="38.05737" lon="-8.39798">
        <ele>42.585</ele>
        <time>2019-10-15T12:07:00Z</time>
      </trkpt>
      <trkpt lat="38.05745" lon="-8.39794">
        <ele>42.837</ele>
        <time>2019-10-15T12:07:20Z</time>
      </trkpt>
      <trkpt lat="38.05752" lon="-8.3979">
        <ele>43.237</ele>
        <time>2019-10-15T12:07:40Z</time>
      </trkpt>
      <trkpt lat="38.05759" lon="-8.39784">
        <ele>43.935</ele>
        <time>2019-10-15T12:08:00Z</time>
      </trkpt>
      <trkpt lat="38.05766" lon="-8.39778">
        <ele>44.586</ele>
        <time>2019-10-15T12:08:20Z</time>
      </trkpt>
      <trkpt lat="38.05771" lon="-8.39771">
        <ele>45.114</ele>
        <time>2019-10-15T12:08:40Z</time>
      </trkpt>
      <trkpt lat="38.05776" lon="-8.39764">
        <ele>45.508</ele>
        <time>2019-10-15T12:09:00Z</time>
      </trkpt>
      <trkpt lat="38.05787" lon="-8.39738">
        <ele>47.457</ele>
        <time>2019-10-15T12:09:20Z</time>
      </trkpt>
      <trkpt lat="38.0579" lon="-8.39729">
        <ele>48.125</ele>
        <time>2019-10-15T12:09:40Z</time>
      </trkpt>
      <trkpt lat="38.05793" lon="-8.3972">
        <ele>48.927</ele>
        <time>2019-10-15T12:10:00Z</time>
      </trkpt>
      <trkpt lat="38.05797" lon="-8.39711">
        <ele>50.037</ele>
        <time>2019-10-15T12:10:20Z</time>
      </trkpt>
      <trkpt lat="38.05803" lon="-8.39704">
        <ele>51.129</ele>
        <time>2019-10-15T12:10:40Z</time>
      </trkpt>
      <trkpt lat="38.05818" lon="-8.39693">
        <ele>53.98</ele>
        <time>2019-10-15T12:11:00Z</time>
      </trkpt>
      <trkpt lat="38.05826" lon="-8.39689">
        <ele>55.322</ele>
        <time>2019-10-15T12:11:20Z</time>
      </trkpt>
      <trkpt lat="38.05834" lon="-8.39686">
        <ele>56.372</ele>
        <time>2019-10-15T12:11:40Z</time>
      </trkpt>
      <trkpt lat="38.05841" lon="-8.39683">
        <ele>56.259</ele>
        <time>2019-10-15T12:12:00Z</time>
      </trkpt>
      <trkpt lat="38.05847" lon="-8.3968">
        <ele>56.003</ele>
        <time>2019-10-15T12:12:20Z</time>
      </trkpt>
      <trkpt lat="38.05862" lon="-8.3966">
        <ele>55.223</ele>
        <time>2019-10-15T12:12:40Z</time>
      </trkpt>
      <trkpt lat="38.05866" lon="-8.39653">
        <ele>55.008</ele>
        <time>2019-10-15T12:13:00Z</time>
      </trkpt>
      <trkpt lat="38.05887" lon="-8.39617">
        <ele>56.599</ele>
        <time>2019-10-15T12:13:20Z</time>
      </trkpt>
      <trkpt lat="38.05897" lon="-8.39598">
        <ele>58.357</ele>
        <time>2019-10-15T12:13:40Z</time>
      </trkpt>
      <trkpt lat="38.05902" lon="-8.39588">
        <ele>59.489</ele>
        <time>2019-10-15T12:14:00Z</time>
      </trkpt>
      <trkpt lat="38.05906" lon="-8.39578">
        <ele>60.539</ele>
        <time>2019-10-15T12:14:20Z</time>
      </trkpt>
      <trkpt lat="38.05909" lon="-8.39567">
        <ele>61.391</ele>
        <time>2019-10-15T12:14:40Z</time>
      </trkpt>
      <trkpt lat="38.0591" lon="-8.39555">
        <ele>62.242</ele>
        <time>2019-10-15T12:15:00Z</time>
      </trkpt>
      <trkpt lat="38.05902" lon="-8.39476">
        <ele>62.914</ele>
        <time>2019-10-15T12:15:20Z</time>
      </trkpt>
      <trkpt lat="38.05901" lon="-8.39466">
        <ele>63.084</ele>
        <time>2019-10-15T12:15:40Z</time>
      </trkpt>
      <trkpt lat="38.059" lon="-8.39455">
        <ele>63.031</ele>
        <time>2019-10-15T12:16:00Z</time>
      </trkpt>
      <trkpt lat="38.05902" lon="-8.39446">
        <ele>63.061</ele>
        <time>2019-10-15T12:16:20Z</time>
      </trkpt>
      <trkpt lat="38.05906" lon="-8.39437">
        <ele>62.707</ele>
        <time>2019-10-15T12:16:40Z</time>
      </trkpt>
      <trkpt lat="38.05913" lon="-8.39429">
        <ele>62.408</ele>
        <time>2019-10-15T12:17:00Z</time>
      </trkpt>
      <trkpt lat="38.05919" lon="-8.39422">
        <ele>62.227</ele>
        <time>2019-10-15T12:17:20Z</time>
      </trkpt>
      <trkpt lat="38.05941" lon="-8.39404">
        <ele>62.425</ele>
        <time>2019-10-15T12:17:40Z</time>
      </trkpt>
      <trkpt lat="38.05949" lon="-8.39397">
        <ele>62.397</ele>
        <time>2019-10-15T12:18:00Z</time>
      </trkpt>
      <trkpt lat="38.05956" lon="-8.39388">
        <ele>62.057</ele>
        <time>2019-10-15T12:18:20Z</time>
      </trkpt>
      <trkpt lat="38.05972" lon="-8.3936">
        <ele>61.059</ele>
        <time>2019-10-15T12:18:40Z</time>
      </trkpt>
      <trkpt lat="38.05977" lon="-8.3935">
        <ele>61.12</ele>
        <time>2019-10-15T12:19:00Z</time>
      </trkpt>
      <trkpt lat="38.05984" lon="-8.39341">
        <ele>61.352</ele>
        <time>2019-10-15T12:19:20Z</time>
      </trkpt>
      <trkpt lat="38.0599" lon="-8.39333">
        <ele>61.722</ele>
        <time>2019-10-15T12:19:40Z</time>
      </trkpt>
      <trkpt lat="38.05997" lon="-8.39327">
        <ele>62.159</ele>
        <time>2019-10-15T12:20:00Z</time>
      </trkpt>
      <trkpt lat="38.06003" lon="-8.39321">
        <ele>62.603</ele>
        <time>2019-10-15T12:20:20Z</time>
      </trkpt>
      <trkpt lat="38.06009" lon="-8.39314">
        <ele>63.223</ele>
        <time>2019-10-15T12:20:40Z</time>
      </trkpt>
      <trkpt lat="38.06013" lon="-8.39304">
        <ele>64.108</ele>
        <time>2019-10-15T12:21:00Z</time>
      </trkpt>
      <trkpt lat="38.06017" lon="-8.39293">
        <ele>65.369</ele>
        <time>2019-10-15T12:21:20Z</time>
      </trkpt>
      <trkpt lat="38.06026" lon="-8.39259">
        <ele>67.787</ele>
        <time>2019-10-15T12:21:40Z</time>
      </trkpt>
      <trkpt lat="38.06029" lon="-8.3925">
        <ele>68.119</ele>
        <time>2019-10-15T12:22:00Z</time>
      </trkpt>
      <trkpt lat="38.06033" lon="-8.39242">
        <ele>68.489</ele>
        <time>2019-10-15T12:22:20Z</time>
      </trkpt>
      <trkpt lat="38.06038" lon="-8.39236">
        <ele>68.761</ele>
        <time>2019-10-15T12:22:40Z</time>
      </trkpt>
      <trkpt lat="38.06043" lon="-8.39231">
        <ele>68.952</ele>
        <time>2019-10-15T12:23:00Z</time>
      </trkpt>
      <trkpt lat="38.0605" lon="-8.39226">
        <ele>69.034</ele>
        <time>2019-10-15T12:23:20Z</time>
      </trkpt>
      <trkpt lat="38.06058" lon="-8.39221">
        <ele>69.184</ele>
        <time>2019-10-15T12:23:40Z</time>
      </trkpt>
      <trkpt lat="38.06067" lon="-8.39216">
        <ele>69.532</ele>
        <time>2019-10-15T12:24:00Z</time>
      </trkpt>
      <trkpt lat="38.06084" lon="-8.39201">
        <ele>70.892</ele>
        <time>2019-10-15T12:24:20Z</time>
      </trkpt>
      <trkpt lat="38.06091" lon="-8.39194">
        <ele>71.311</ele>
        <time>2019-10-15T12:24:40Z</time>
      </trkpt>
      <trkpt lat="38.06097" lon="-8.39186">
        <ele>71.508</ele>
        <time>2019-10-15T12:25:00Z</time>
      </trkpt>
      <trkpt lat="38.06107" lon="-8.39166">
        <ele>71.827</ele>
        <time>2019-10-15T12:25:20Z</time>
      </trkpt>
      <trkpt lat="38.06111" lon="-8.39156">
        <ele>72.045</ele>
        <time>2019-10-15T12:25:40Z</time>
      </trkpt>
      <trkpt lat="38.06142" lon="-8.39115">
        <ele>70.217</ele>
        <time>2019-10-15T12:26:00Z</time>
      </trkpt>
      <trkpt lat="38.06161" lon="-8.39091">
        <ele>71.447</ele>
        <time>2019-10-15T12:26:20Z</time>
      </trkpt>
      <trkpt lat="38.06218" lon="-8.39031">
        <ele>72.419</ele>
        <time>2019-10-15T12:26:40Z</time>
      </trkpt>
      <trkpt lat="38.06251" lon="-8.39011">
        <ele>71.07</ele>
        <time>2019-10-15T12:27:00Z</time>
      </trkpt>
      <trkpt lat="38.06267" lon="-8.38998">
        <ele>71.762</ele>
        <time>2019-10-15T12:27:20Z</time>
      </trkpt>
      <trkpt lat="38.06283" lon="-8.38986">
        <ele>73.412</ele>
        <time>2019-10-15T12:27:40Z</time>
      </trkpt>
      <trkpt lat="38.06291" lon="-8.3898">
        <ele>74.527</ele>
        <time>2019-10-15T12:28:00Z</time>
      </trkpt>
      <trkpt lat="38.06308" lon="-8.3897">
        <ele>76.168</ele>
        <time>2019-10-15T12:28:20Z</time>
      </trkpt>
      <trkpt lat="38.06355" lon="-8.38937">
        <ele>75.814</ele>
        <time>2019-10-15T12:28:40Z</time>
      </trkpt>
      <trkpt lat="38.06364" lon="-8.3893">
        <ele>76.308</ele>
        <time>2019-10-15T12:29:00Z</time>
      </trkpt>
      <trkpt lat="38.06412" lon="-8.38866">
        <ele>78.316</ele>
        <time>2019-10-15T12:29:20Z</time>
      </trkpt>
      <trkpt lat="38.06444" lon="-8.3882">
        <ele>79.074</ele>
        <time>2019-10-15T12:29:40Z</time>
      </trkpt>
      <trkpt lat="38.06497" lon="-8.38745">
        <ele>81.756</ele>
        <time>2019-10-15T12:30:00Z</time>
      </trkpt>
      <trkpt lat="38.06504" lon="-8.38734">
        <ele>82.086</ele>
        <time>2019-10-15T12:30:20Z</time>
      </trkpt>
      <trkpt lat="38.0651" lon="-8.38724">
        <ele>82.098</ele>
        <time>2019-10-15T12:30:40Z</time>
      </trkpt>
      <trkpt lat="38.06517" lon="-8.38716">
        <ele>81.819</ele>
        <time>2019-10-15T12:31:00Z</time>
      </trkpt>
      <trkpt lat="38.06524" lon="-8.38709">
        <ele>81.911</ele>
        <time>2019-10-15T12:31:20Z</time>
      </trkpt>
      <trkpt lat="38.06531" lon="-8.38705">
        <ele>82.141</ele>
        <time>2019-10-15T12:31:40Z</time>
      </trkpt>
      <trkpt lat="38.06539" lon="-8.38702">
        <ele>82.418</ele>
        <time>2019-10-15T12:32:00Z</time>
      </trkpt>
      <trkpt lat="38.06547" lon="-8.387">
        <ele>82.798</ele>
        <time>2019-10-15T12:32:20Z</time>
      </trkpt>
      <trkpt lat="38.06554" lon="-8.38698">
        <ele>82.917</ele>
        <time>2019-10-15T12:32:40Z</time>
      </trkpt>
      <trkpt lat="38.06559" lon="-8.38694">
        <ele>83.208</ele>
        <time>2019-10-15T12:33:00Z</time>
      </trkpt>
      <trkpt lat="38.06562" lon="-8.38688">
        <ele>83.475</ele>
        <time>2019-10-15T12:33:20Z</time>
      </trkpt>
      <trkpt lat="38.06562" lon="-8.38682">
        <ele>83.443</ele>
        <time>2019-10-15T12:33:40Z</time>
      </trkpt>
      <trkpt lat="38.06561" lon="-8.38676">
        <ele>83.375</ele>
        <time>2019-10-15T12:34:00Z</time>
      </trkpt>
      <trkpt lat="38.06555" lon="-8.38663">
        <ele>83.085</ele>
        <time>2019-10-15T12:34:20Z</time>
      </trkpt>
      <trkpt lat="38.0653" lon="-8.38602">
        <ele>81.127</ele>
        <time>2019-10-15T12:34:40Z</time>
      </trkpt>
      <trkpt lat="38.06477" lon="-8.38457">
        <ele>83.518</ele>
        <time>2019-10-15T12:35:00Z</time>
      </trkpt>
      <trkpt lat="38.06449" lon="-8.384">
        <ele>83.24</ele>
        <time>2019-10-15T12:35:20Z</time>
      </trkpt>
      <trkpt lat="38.06445" lon="-8.38389">
        <ele>84.01</ele>
        <time>2019-10-15T12:35:40Z</time>
      </trkpt>
      <trkpt lat="38.06441" lon="-8.38378">
        <ele>84.582</ele>
        <time>2019-10-15T12:36:00Z</time>
      </trkpt>
      <trkpt lat="38.06436" lon="-8.38345">
        <ele>85.343</ele>
        <time>2019-10-15T12:36:20Z</time>
      </trkpt>
      <trkpt lat="38.06435" lon="-8.38334">
        <ele>85.317</ele>
        <time>2019-10-15T12:36:40Z</time>
      </trkpt>
      <trkpt lat="38.06439" lon="-8.38306">
        <ele>85.208</ele>
        <time>2019-10-15T12:37:00Z</time>
      </trkpt>
      <trkpt lat="38.0644" lon="-8.38297">
        <ele>85.282</ele>
        <time>2019-10-15T12:37:20Z</time>
      </trkpt>
      <trkpt lat="38.0644" lon="-8.38288">
        <ele>85.38</ele>
        <time>2019-10-15T12:37:40Z</time>
      </trkpt>
      <trkpt lat="38.06439" lon="-8.3828">
        <ele>85.492</ele>
        <time>2019-10-15T12:38:00Z</time>
      </trkpt>
      <trkpt lat="38.06437" lon="-8.38272">
        <ele>85.712</ele>
        <time>2019-10-15T12:38:20Z</time>
      </trkpt>
      <trkpt lat="38.06436" lon="-8.38264">
        <ele>86.174</ele>
        <time>2019-10-15T12:38:40Z</time>
      </trkpt>
      <trkpt lat="38.06436" lon="-8.38256">
        <ele>86.445</ele>
        <time>2019-10-15T12:39:00Z</time>
      </trkpt>
      <trkpt lat="38.06438" lon="-8.38247">
        <ele>86.617</ele>
        <time>2019-10-15T12:39:20Z</time>
      </trkpt>
      <trkpt lat="38.06453" lon="-8.38217">
        <ele>86.237</ele>
        <time>2019-10-15T12:39:40Z</time>
      </trkpt>
      <trkpt lat="38.06466" lon="-8.38192">
        <ele>85.659</ele>
        <time>2019-10-15T12:40:00Z</time>
      </trkpt>
      <trkpt lat="38.06515" lon="-8.38093">
        <ele>84.903</ele>
        <time>2019-10-15T12:40:20Z</time>
      </trkpt>
      <trkpt lat="38.06592" lon="-8.37939">
        <ele>83.223</ele>
        <time>2019-10-15T12:40:40Z</time>
      </trkpt>
      <trkpt lat="38.06656" lon="-8.3781">
        <ele>86.108</ele>
        <time>2019-10-15T12:41:00Z</time>
      </trkpt>
      <trkpt lat="38.06663" lon="-8.37798">
        <ele>85.619</ele>
        <time>2019-10-15T12:41:20Z</time>
      </trkpt>
      <trkpt lat="38.06669" lon="-8.37784">
        <ele>85.187</ele>
        <time>2019-10-15T12:41:40Z</time>
      </trkpt>
      <trkpt lat="38.06693" lon="-8.37736">
        <ele>83.019</ele>
        <time>2019-10-15T12:42:00Z</time>
      </trkpt>
      <trkpt lat="38.06749" lon="-8.37632">
        <ele>84.299</ele>
        <time>2019-10-15T12:42:20Z</time>
      </trkpt>
      <trkpt lat="38.06821" lon="-8.37483">
        <ele>85.251</ele>
        <time>2019-10-15T12:42:40Z</time>
      </trkpt>
      <trkpt lat="38.06885" lon="-8.37356">
        <ele>83.542</ele>
        <time>2019-10-15T12:43:00Z</time>
      </trkpt>
      <trkpt lat="38.06912" lon="-8.37309">
        <ele>84.234</ele>
        <time>2019-10-15T12:43:20Z</time>
      </trkpt>
      <trkpt lat="38.06937" lon="-8.37269">
        <ele>86.634</ele>
        <time>2019-10-15T12:43:40Z</time>
      </trkpt>
      <trkpt lat="38.06942" lon="-8.37261">
        <ele>87.235</ele>
        <time>2019-10-15T12:44:00Z</time>
      </trkpt>
      <trkpt lat="38.06947" lon="-8.37243">
        <ele>88.386</ele>
        <time>2019-10-15T12:44:20Z</time>
      </trkpt>
      <trkpt lat="38.0695" lon="-8.37234">
        <ele>88.714</ele>
        <time>2019-10-15T12:44:40Z</time>
      </trkpt>
      <trkpt lat="38.0697" lon="-8.37192">
        <ele>88.008</ele>
        <time>2019-10-15T12:45:00Z</time>
      </trkpt>
      <trkpt lat="38.06975" lon="-8.37182">
        <ele>87.387</ele>
        <time>2019-10-15T12:45:20Z</time>
      </trkpt>
      <trkpt lat="38.06993" lon="-8.3715">
        <ele>84.635</ele>
        <time>2019-10-15T12:45:40Z</time>
      </trkpt>
      <trkpt lat="38.06999" lon="-8.37139">
        <ele>84.157</ele>
        <time>2019-10-15T12:46:00Z</time>
      </trkpt>
      <trkpt lat="38.07016" lon="-8.37105">
        <ele>84.657</ele>
        <time>2019-10-15T12:46:20Z</time>
      </trkpt>
      <trkpt lat="38.07069" lon="-8.36993">
        <ele>88.849</ele>
        <time>2019-10-15T12:46:40Z</time>
      </trkpt>
      <trkpt lat="38.07085" lon="-8.36962">
        <ele>88.16</ele>
        <time>2019-10-15T12:47:00Z</time>
      </trkpt>
      <trkpt lat="38.07136" lon="-8.36859">
        <ele>89.072</ele>
        <time>2019-10-15T12:47:20Z</time>
      </trkpt>
      <trkpt lat="38.07188" lon="-8.36751">
        <ele>87.092</ele>
        <time>2019-10-15T12:47:40Z</time>
      </trkpt>
      <trkpt lat="38.07193" lon="-8.36738">
        <ele>87.055</ele>
        <time>2019-10-15T12:48:00Z</time>
      </trkpt>
      <trkpt lat="38.07268" lon="-8.36585">
        <ele>83.407</ele>
        <time>2019-10-15T12:48:20Z</time>
      </trkpt>
      <trkpt lat="38.07332" lon="-8.36461">
        <ele>89.917</ele>
        <time>2019-10-15T12:48:40Z</time>
      </trkpt>
      <trkpt lat="38.07409" lon="-8.3632">
        <ele>92.108</ele>
        <time>2019-10-15T12:49:00Z</time>
      </trkpt>
      <trkpt lat="38.07476" lon="-8.36195">
        <ele>86.069</ele>
        <time>2019-10-15T12:49:20Z</time>
      </trkpt>
      <trkpt lat="38.0748" lon="-8.36186">
        <ele>86.027</ele>
        <time>2019-10-15T12:49:40Z</time>
      </trkpt>
      <trkpt lat="38.07484" lon="-8.36178">
        <ele>86.059</ele>
        <time>2019-10-15T12:50:00Z</time>
      </trkpt>
      <trkpt lat="38.07486" lon="-8.36169">
        <ele>86.039</ele>
        <time>2019-10-15T12:50:20Z</time>
      </trkpt>
      <trkpt lat="38.07486" lon="-8.3616">
        <ele>86.171</ele>
        <time>2019-10-15T12:50:40Z</time>
      </trkpt>
      <trkpt lat="38.0748" lon="-8.36142">
        <ele>86.722</ele>
        <time>2019-10-15T12:51:00Z</time>
      </trkpt>
      <trkpt lat="38.07433" lon="-8.36031">
        <ele>88.454</ele>
        <time>2019-10-15T12:51:20Z</time>
      </trkpt>
      <trkpt lat="38.0743" lon="-8.36024">
        <ele>88.614</ele>
        <time>2019-10-15T12:51:40Z</time>
      </trkpt>
      <trkpt lat="38.07427" lon="-8.36017">
        <ele>88.835</ele>
        <time>2019-10-15T12:52:00Z</time>
      </trkpt>
      <trkpt lat="38.07423" lon="-8.36012">
        <ele>88.986</ele>
        <time>2019-10-15T12:52:20Z</time>
      </trkpt>
      <trkpt lat="38.07418" lon="-8.36008">
        <ele>89.014</ele>
        <time>2019-10-15T12:52:40Z</time>
      </trkpt>
      <trkpt lat="38.07412" lon="-8.36007">
        <ele>89.008</ele>
        <time>2019-10-15T12:53:00Z</time>
      </trkpt>
      <trkpt lat="38.07406" lon="-8.36009">
        <ele>89.067</ele>
        <time>2019-10-15T12:53:20Z</time>
      </trkpt>
      <trkpt lat="38.07366" lon="-8.36031">
        <ele>88.835</ele>
        <time>2019-10-15T12:53:40Z</time>
      </trkpt>
      <trkpt lat="38.07337" lon="-8.36047">
        <ele>88.247</ele>
        <time>2019-10-15T12:54:00Z</time>
      </trkpt>
      <trkpt lat="38.07335" lon="-8.36048">
        <ele>88.297</ele>
        <time>2019-10-15T12:54:20Z</time>
      </trkpt>
      <trkpt lat="38.07332" lon="-8.36049">
        <ele>88.269</ele>
        <time>2019-10-15T12:54:40Z</time>
      </trkpt>
      <trkpt lat="38.07328" lon="-8.3605">
        <ele>88.21</ele>
        <time>2019-10-15T12:55:00Z</time>
      </trkpt>
      <trkpt lat="38.07325" lon="-8.36049">
        <ele>88.382</ele>
        <time>2019-10-15T12:55:20Z</time>
      </trkpt>
      <trkpt lat="38.07324" lon="-8.36042">
        <ele>88.542</ele>
        <time>2019-10-15T12:55:40Z</time>
      </trkpt>
      <trkpt lat="38.07326" lon="-8.36038">
        <ele>88.665</ele>
        <time>2019-10-15T12:56:00Z</time>
      </trkpt>
      <trkpt lat="38.07347" lon="-8.36026">
        <ele>89.068</ele>
        <time>2019-10-15T12:56:20Z</time>
      </trkpt>
      <trkpt lat="38.07422" lon="-8.35976">
        <ele>87.414</ele>
        <time>2019-10-15T12:56:40Z</time>
      </trkpt>
      <trkpt lat="38.07459" lon="-8.35951">
        <ele>87.708</ele>
        <time>2019-10-15T12:57:00Z</time>
      </trkpt>
      <trkpt lat="38.07497" lon="-8.35925">
        <ele>89.63</ele>
        <time>2019-10-15T12:57:20Z</time>
      </trkpt>
      <trkpt lat="38.07547" lon="-8.3589">
        <ele>91.048</ele>
        <time>2019-10-15T12:57:40Z</time>
      </trkpt>
      <trkpt lat="38.07559" lon="-8.35881">
        <ele>90.92</ele>
        <time>2019-10-15T12:58:00Z</time>
      </trkpt>
      <trkpt lat="38.07569" lon="-8.35872">
        <ele>90.59</ele>
        <time>2019-10-15T12:58:20Z</time>
      </trkpt>
      <trkpt lat="38.07578" lon="-8.35861">
        <ele>90.222</ele>
        <time>2019-10-15T12:58:40Z</time>
      </trkpt>
      <trkpt lat="38.07585" lon="-8.35849">
        <ele>90.083</ele>
        <time>2019-10-15T12:59:00Z</time>
      </trkpt>
      <trkpt lat="38.07614" lon="-8.35705">
        <ele>90.535</ele>
        <time>2019-10-15T12:59:20Z</time>
      </trkpt>
      <trkpt lat="38.07633" lon="-8.35591">
        <ele>87.835</ele>
        <time>2019-10-15T12:59:40Z</time>
      </trkpt>
      <trkpt lat="38.07635" lon="-8.35573">
        <ele>88.168</ele>
        <time>2019-10-15T13:00:00Z</time>
      </trkpt>
      <trkpt lat="38.07634" lon="-8.35538">
        <ele>88.642</ele>
        <time>2019-10-15T13:00:20Z</time>
      </trkpt>
      <trkpt lat="38.07634" lon="-8.35521">
        <ele>88.826</ele>
        <time>2019-10-15T13:00:40Z</time>
      </trkpt>
      <trkpt lat="38.07635" lon="-8.35456">
        <ele>87.508</ele>
        <time>2019-10-15T13:01:00Z</time>
      </trkpt>
      <trkpt lat="38.07635" lon="-8.35439">
        <ele>87.07</ele>
        <time>2019-10-15T13:01:20Z</time>
      </trkpt>
      <trkpt lat="38.07635" lon="-8.35423">
        <ele>86.398</ele>
        <time>2019-10-15T13:01:40Z</time>
      </trkpt>
      <trkpt lat="38.07638" lon="-8.35407">
        <ele>85.78</ele>
        <time>2019-10-15T13:02:00Z</time>
      </trkpt>
      <trkpt lat="38.07641" lon="-8.3539">
        <ele>84.83</ele>
        <time>2019-10-15T13:02:20Z</time>
      </trkpt>
      <trkpt lat="38.07645" lon="-8.35334">
        <ele>82.822</ele>
        <time>2019-10-15T13:02:40Z</time>
      </trkpt>
      <trkpt lat="38.07648" lon="-8.35243">
        <ele>86.043</ele>
        <time>2019-10-15T13:03:00Z</time>
      </trkpt>
      <trkpt lat="38.07642" lon="-8.35072">
        <ele>86.345</ele>
        <time>2019-10-15T13:03:20Z</time>
      </trkpt>
      <trkpt lat="38.0764" lon="-8.35052">
        <ele>85.895</ele>
        <time>2019-10-15T13:03:40Z</time>
      </trkpt>
      <trkpt lat="38.0764" lon="-8.34898">
        <ele>85.056</ele>
        <time>2019-10-15T13:04:00Z</time>
      </trkpt>
      <trkpt lat="38.07637" lon="-8.34732">
        <ele>84.459</ele>
        <time>2019-10-15T13:04:20Z</time>
      </trkpt>
      <trkpt lat="38.07638" lon="-8.34714">
        <ele>84.114</ele>
        <time>2019-10-15T13:04:40Z</time>
      </trkpt>
      <trkpt lat="38.07637" lon="-8.34698">
        <ele>84.008</ele>
        <time>2019-10-15T13:05:00Z</time>
      </trkpt>
      <trkpt lat="38.07636" lon="-8.34682">
        <ele>84.049</ele>
        <time>2019-10-15T13:05:20Z</time>
      </trkpt>
      <trkpt lat="38.07633" lon="-8.34666">
        <ele>83.837</ele>
        <time>2019-10-15T13:05:40Z</time>
      </trkpt>
      <trkpt lat="38.07631" lon="-8.34651">
        <ele>84.199</ele>
        <time>2019-10-15T13:06:00Z</time>
      </trkpt>
      <trkpt lat="38.07629" lon="-8.34634">
        <ele>84.499</ele>
        <time>2019-10-15T13:06:20Z</time>
      </trkpt>
      <trkpt lat="38.07624" lon="-8.34487">
        <ele>88.941</ele>
        <time>2019-10-15T13:06:40Z</time>
      </trkpt>
      <trkpt lat="38.07623" lon="-8.3447">
        <ele>90.272</ele>
        <time>2019-10-15T13:07:00Z</time>
      </trkpt>
      <trkpt lat="38.07623" lon="-8.34453">
        <ele>91.464</ele>
        <time>2019-10-15T13:07:20Z</time>
      </trkpt>
      <trkpt lat="38.07623" lon="-8.34437">
        <ele>92.234</ele>
        <time>2019-10-15T13:07:40Z</time>
      </trkpt>
      <trkpt lat="38.07624" lon="-8.34422">
        <ele>92.418</ele>
        <time>2019-10-15T13:08:00Z</time>
      </trkpt>
      <trkpt lat="38.07638" lon="-8.34369">
        <ele>92.098</ele>
        <time>2019-10-15T13:08:20Z</time>
      </trkpt>
      <trkpt lat="38.07642" lon="-8.34356">
        <ele>91.917</ele>
        <time>2019-10-15T13:08:40Z</time>
      </trkpt>
      <trkpt lat="38.07665" lon="-8.34271">
        <ele>88.108</ele>
        <time>2019-10-15T13:09:00Z</time>
      </trkpt>
      <trkpt lat="38.0767" lon="-8.34258">
        <ele>87.735</ele>
        <time>2019-10-15T13:09:20Z</time>
      </trkpt>
      <trkpt lat="38.07707" lon="-8.34183">
        <ele>85.573</ele>
        <time>2019-10-15T13:09:40Z</time>
      </trkpt>
      <trkpt lat="38.07737" lon="-8.34106">
        <ele>86.545</ele>
        <time>2019-10-15T13:10:00Z</time>
      </trkpt>
      <trkpt lat="38.07747" lon="-8.3408">
        <ele>87.095</ele>
        <time>2019-10-15T13:10:20Z</time>
      </trkpt>
      <trkpt lat="38.07805" lon="-8.33925">
        <ele>85.037</ele>
        <time>2019-10-15T13:10:40Z</time>
      </trkpt>
      <trkpt lat="38.07812" lon="-8.33885">
        <ele>87.118</ele>
        <time>2019-10-15T13:11:00Z</time>
      </trkpt>
      <trkpt lat="38.07815" lon="-8.33872">
        <ele>87.88</ele>
        <time>2019-10-15T13:11:20Z</time>
      </trkpt>
      <trkpt lat="38.0783" lon="-8.33832">
        <ele>89.61</ele>
        <time>2019-10-15T13:11:40Z</time>
      </trkpt>
      <trkpt lat="38.0786" lon="-8.33742">
        <ele>90.764</ele>
        <time>2019-10-15T13:12:00Z</time>
      </trkpt>
      <trkpt lat="38.07967" lon="-8.33759">
        <ele>89.406</ele>
        <time>2019-10-15T13:12:20Z</time>
      </trkpt>
      <trkpt lat="38.08307" lon="-8.33773">
        <ele>79.216</ele>
        <time>2019-10-15T13:12:40Z</time>
      </trkpt>
      <trkpt lat="38.08428" lon="-8.33807">
        <ele>79.108</ele>
        <time>2019-10-15T13:13:00Z</time>
      </trkpt>
      <trkpt lat="38.08648" lon="-8.33769">
        <ele>81.14</ele>
        <time>2019-10-15T13:13:20Z</time>
      </trkpt>
      <trkpt lat="38.08705" lon="-8.33735">
        <ele>77.738</ele>
        <time>2019-10-15T13:13:40Z</time>
      </trkpt>
      <trkpt lat="38.0881" lon="-8.33514">
        <ele>77.25</ele>
        <time>2019-10-15T13:14:00Z</time>
      </trkpt>
      <trkpt lat="38.08924" lon="-8.33634">
        <ele>75.59</ele>
        <time>2019-10-15T13:14:20Z</time>
      </trkpt>
      <trkpt lat="38.09055" lon="-8.33768">
        <ele>75.762</ele>
        <time>2019-10-15T13:14:40Z</time>
      </trkpt>
      <trkpt lat="38.0913" lon="-8.33844">
        <ele>69.363</ele>
        <time>2019-10-15T13:15:00Z</time>
      </trkpt>
      <trkpt lat="38.09189" lon="-8.33902">
        <ele>65.615</ele>
        <time>2019-10-15T13:15:20Z</time>
      </trkpt>
      <trkpt lat="38.09208" lon="-8.33922">
        <ele>65.535</ele>
        <time>2019-10-15T13:15:40Z</time>
      </trkpt>
      <trkpt lat="38.09405" lon="-8.34122">
        <ele>66.011</ele>
        <time>2019-10-15T13:16:00Z</time>
      </trkpt>
      <trkpt lat="38.09424" lon="-8.34141">
        <ele>65.621</ele>
        <time>2019-10-15T13:16:20Z</time>
      </trkpt>
      <trkpt lat="38.0957" lon="-8.34287">
        <ele>60.303</ele>
        <time>2019-10-15T13:16:40Z</time>
      </trkpt>
      <trkpt lat="38.09732" lon="-8.34396">
        <ele>52.808</ele>
        <time>2019-10-15T13:17:00Z</time>
      </trkpt>
      <trkpt lat="38.09818" lon="-8.34446">
        <ele>49.035</ele>
        <time>2019-10-15T13:17:20Z</time>
      </trkpt>
      <trkpt lat="38.0984" lon="-8.34458">
        <ele>49.743</ele>
        <time>2019-10-15T13:17:40Z</time>
      </trkpt>
      <trkpt lat="38.10165" lon="-8.34646">
        <ele>49.195</ele>
        <time>2019-10-15T13:18:00Z</time>
      </trkpt>
      <trkpt lat="38.10208" lon="-8.34671">
        <ele>47.845</ele>
        <time>2019-10-15T13:18:20Z</time>
      </trkpt>
      <trkpt lat="38.10229" lon="-8.34683">
        <ele>47.067</ele>
        <time>2019-10-15T13:18:40Z</time>
      </trkpt>
      <trkpt lat="38.10293" lon="-8.34719">
        <ele>44.158</ele>
        <time>2019-10-15T13:19:00Z</time>
      </trkpt>
      <trkpt lat="38.10506" lon="-8.34841">
        <ele>33.27</ele>
        <time>2019-10-15T13:19:20Z</time>
      </trkpt>
      <trkpt lat="38.10548" lon="-8.34866">
        <ele>35.37</ele>
        <time>2019-10-15T13:19:40Z</time>
      </trkpt>
      <trkpt lat="38.10768" lon="-8.34993">
        <ele>40.331</ele>
        <time>2019-10-15T13:20:00Z</time>
      </trkpt>
      <trkpt lat="38.10857" lon="-8.35044">
        <ele>38.061</ele>
        <time>2019-10-15T13:20:20Z</time>
      </trkpt>
      <trkpt lat="38.10923" lon="-8.35081">
        <ele>35.807</ele>
        <time>2019-10-15T13:20:40Z</time>
      </trkpt>
      <trkpt lat="38.10939" lon="-8.3509">
        <ele>34.908</ele>
        <time>2019-10-15T13:21:00Z</time>
      </trkpt>
      <trkpt lat="38.10953" lon="-8.35099">
        <ele>35.537</ele>
        <time>2019-10-15T13:21:20Z</time>
      </trkpt>
      <trkpt lat="38.10966" lon="-8.3511">
        <ele>36.415</ele>
        <time>2019-10-15T13:21:40Z</time>
      </trkpt>
      <trkpt lat="38.10977" lon="-8.35123">
        <ele>36.967</ele>
        <time>2019-10-15T13:22:00Z</time>
      </trkpt>
      <trkpt lat="38.10986" lon="-8.35137">
        <ele>36.697</ele>
        <time>2019-10-15T13:22:20Z</time>
      </trkpt>
      <trkpt lat="38.10992" lon="-8.35154">
        <ele>35.139</ele>
        <time>2019-10-15T13:22:40Z</time>
      </trkpt>
      <trkpt lat="38.10997" lon="-8.35172">
        <ele>33.38</ele>
        <time>2019-10-15T13:23:00Z</time>
      </trkpt>
      <trkpt lat="38.11001" lon="-8.35212">
        <ele>30.552</ele>
        <time>2019-10-15T13:23:20Z</time>
      </trkpt>
      <trkpt lat="38.11006" lon="-8.35257">
        <ele>28.792</ele>
        <time>2019-10-15T13:23:40Z</time>
      </trkpt>
      <trkpt lat="38.11034" lon="-8.35397">
        <ele>28.228</ele>
        <time>2019-10-15T13:24:00Z</time>
      </trkpt>
      <trkpt lat="38.11093" lon="-8.3552">
        <ele>29.189</ele>
        <time>2019-10-15T13:24:20Z</time>
      </trkpt>
      <trkpt lat="38.11135" lon="-8.35595">
        <ele>27.717</ele>
        <time>2019-10-15T13:24:40Z</time>
      </trkpt>
      <trkpt lat="38.11153" lon="-8.35626">
        <ele>26.708</ele>
        <time>2019-10-15T13:25:00Z</time>
      </trkpt>
      <trkpt lat="38.11156" lon="-8.3563">
        <ele>26.516</ele>
        <time>2019-10-15T13:25:20Z</time>
      </trkpt>
      <trkpt lat="38.11158" lon="-8.35634">
        <ele>26.454</ele>
        <time>2019-10-15T13:25:40Z</time>
      </trkpt>
      <trkpt lat="38.11151" lon="-8.35622">
        <ele>26.966</ele>
        <time>2019-10-15T13:26:00Z</time>
      </trkpt>
      <trkpt lat="38.11164" lon="-8.35644">
        <ele>25.986</ele>
        <time>2019-10-15T13:26:20Z</time>
      </trkpt>
      <trkpt lat="38.11188" lon="-8.35689">
        <ele>24.088</ele>
        <time>2019-10-15T13:26:40Z</time>
      </trkpt>
      <trkpt lat="38.11198" lon="-8.35713">
        <ele>24.059</ele>
        <time>2019-10-15T13:27:00Z</time>
      </trkpt>
      <trkpt lat="38.11208" lon="-8.35735">
        <ele>23.591</ele>
        <time>2019-10-15T13:27:20Z</time>
      </trkpt>
      <trkpt lat="38.11244" lon="-8.35788">
        <ele>23.091</ele>
        <time>2019-10-15T13:27:40Z</time>
      </trkpt>
      <trkpt lat="38.11345" lon="-8.35971">
        <ele>16.847</ele>
        <time>2019-10-15T13:28:00Z</time>
      </trkpt>
      <trkpt lat="38.11393" lon="-8.36061">
        <ele>22.629</ele>
        <time>2019-10-15T13:28:20Z</time>
      </trkpt>
      <trkpt lat="38.11397" lon="-8.36068">
        <ele>22.221</ele>
        <time>2019-10-15T13:28:40Z</time>
      </trkpt>
      <trkpt lat="38.114" lon="-8.36074">
        <ele>22.108</ele>
        <time>2019-10-15T13:29:00Z</time>
      </trkpt>
      <trkpt lat="38.11403" lon="-8.36077">
        <ele>22.068</ele>
        <time>2019-10-15T13:29:20Z</time>
      </trkpt>
      <trkpt lat="38.11406" lon="-8.3608">
        <ele>22.076</ele>
        <time>2019-10-15T13:29:40Z</time>
      </trkpt>
      <trkpt lat="38.11409" lon="-8.36081">
        <ele>22.018</ele>
        <time>2019-10-15T13:30:00Z</time>
      </trkpt>
      <trkpt lat="38.11414" lon="-8.36079">
        <ele>21.938</ele>
        <time>2019-10-15T13:30:20Z</time>
      </trkpt>
      <trkpt lat="38.11451" lon="-8.36054">
        <ele>18.55</ele>
        <time>2019-10-15T13:30:40Z</time>
      </trkpt>
      <trkpt lat="38.11495" lon="-8.36027">
        <ele>16.421</ele>
        <time>2019-10-15T13:31:00Z</time>
      </trkpt>
      <trkpt lat="38.1169" lon="-8.35923">
        <ele>17.093</ele>
        <time>2019-10-15T13:31:20Z</time>
      </trkpt>
      <trkpt lat="38.11887" lon="-8.35827">
        <ele>18.123</ele>
        <time>2019-10-15T13:31:40Z</time>
      </trkpt>
      <trkpt lat="38.11951" lon="-8.35793">
        <ele>18.458</ele>
        <time>2019-10-15T13:32:00Z</time>
      </trkpt>
      <trkpt lat="38.11984" lon="-8.35779">
        <ele>17.652</ele>
        <time>2019-10-15T13:32:20Z</time>
      </trkpt>
      <trkpt lat="38.12123" lon="-8.35728">
        <ele>17.117</ele>
        <time>2019-10-15T13:32:40Z</time>
      </trkpt>
      <trkpt lat="38.1223" lon="-8.35717">
        <ele>16.108</ele>
        <time>2019-10-15T13:33:00Z</time>
      </trkpt>
      <trkpt lat="38.12267" lon="-8.3571">
        <ele>19.679</ele>
        <time>2019-10-15T13:33:20Z</time>
      </trkpt>
      <trkpt lat="38.12381" lon="-8.35693">
        <ele>20.267</ele>
        <time>2019-10-15T13:33:40Z</time>
      </trkpt>
      <trkpt lat="38.12548" lon="-8.3572">
        <ele>18.929</ele>
        <time>2019-10-15T13:34:00Z</time>
      </trkpt>
      <trkpt lat="38.12564" lon="-8.35725">
        <ele>18.779</ele>
        <time>2019-10-15T13:34:20Z</time>
      </trkpt>
      <trkpt lat="38.1258" lon="-8.35732">
        <ele>18.451</ele>
        <time>2019-10-15T13:34:40Z</time>
      </trkpt>
      <trkpt lat="38.12595" lon="-8.35741">
        <ele>18.982</ele>
        <time>2019-10-15T13:35:00Z</time>
      </trkpt>
      <trkpt lat="38.12733" lon="-8.35881">
        <ele>17.874</ele>
        <time>2019-10-15T13:35:20Z</time>
      </trkpt>
      <trkpt lat="38.12764" lon="-8.35921">
        <ele>16.924</ele>
        <time>2019-10-15T13:35:40Z</time>
      </trkpt>
      <trkpt lat="38.12773" lon="-8.35936">
        <ele>15.137</ele>
        <time>2019-10-15T13:36:00Z</time>
      </trkpt>
      <trkpt lat="38.12781" lon="-8.35951">
        <ele>14.349</ele>
        <time>2019-10-15T13:36:20Z</time>
      </trkpt>
      <trkpt lat="38.12808" lon="-8.36022">
        <ele>21.713</ele>
        <time>2019-10-15T13:36:40Z</time>
      </trkpt>
      <trkpt lat="38.12844" lon="-8.36124">
        <ele>26.408</ele>
        <time>2019-10-15T13:37:00Z</time>
      </trkpt>
      <trkpt lat="38.12889" lon="-8.36273">
        <ele>24.947</ele>
        <time>2019-10-15T13:37:20Z</time>
      </trkpt>
      <trkpt lat="38.12901" lon="-8.36337">
        <ele>29.525</ele>
        <time>2019-10-15T13:37:40Z</time>
      </trkpt>
      <trkpt lat="38.12905" lon="-8.36352">
        <ele>31.057</ele>
        <time>2019-10-15T13:38:00Z</time>
      </trkpt>
      <trkpt lat="38.12908" lon="-8.36366">
        <ele>32.067</ele>
        <time>2019-10-15T13:38:20Z</time>
      </trkpt>
      <trkpt lat="38.12912" lon="-8.36378">
        <ele>32.429</ele>
        <time>2019-10-15T13:38:40Z</time>
      </trkpt>
      <trkpt lat="38.12916" lon="-8.36389">
        <ele>33.14</ele>
        <time>2019-10-15T13:39:00Z</time>
      </trkpt>
      <trkpt lat="38.12921" lon="-8.36399">
        <ele>32.412</ele>
        <time>2019-10-15T13:39:20Z</time>
      </trkpt>
      <trkpt lat="38.12928" lon="-8.36407">
        <ele>31.682</ele>
        <time>2019-10-15T13:39:40Z</time>
      </trkpt>
      <trkpt lat="38.12935" lon="-8.36412">
        <ele>30.359</ele>
        <time>2019-10-15T13:40:00Z</time>
      </trkpt>
      <trkpt lat="38.12944" lon="-8.36411">
        <ele>28.703</ele>
        <time>2019-10-15T13:40:20Z</time>
      </trkpt>
      <trkpt lat="38.12952" lon="-8.36406">
        <ele>26.823</ele>
        <time>2019-10-15T13:40:40Z</time>
      </trkpt>
      <trkpt lat="38.12965" lon="-8.36385">
        <ele>23.808</ele>
        <time>2019-10-15T13:41:00Z</time>
      </trkpt>
      <trkpt lat="38.12973" lon="-8.36373">
        <ele>22.419</ele>
        <time>2019-10-15T13:41:20Z</time>
      </trkpt>
      <trkpt lat="38.12983" lon="-8.36362">
        <ele>21.747</ele>
        <time>2019-10-15T13:41:40Z</time>
      </trkpt>
      <trkpt lat="38.13006" lon="-8.36344">
        <ele>20.149</ele>
        <time>2019-10-15T13:42:00Z</time>
      </trkpt>
      <trkpt lat="38.13032" lon="-8.36331">
        <ele>17.859</ele>
        <time>2019-10-15T13:42:20Z</time>
      </trkpt>
      <trkpt lat="38.13135" lon="-8.3629">
        <ele>14.481</ele>
        <time>2019-10-15T13:42:40Z</time>
      </trkpt>
      <trkpt lat="38.13183" lon="-8.3627">
        <ele>17.482</ele>
        <time>2019-10-15T13:43:00Z</time>
      </trkpt>
      <trkpt lat="38.13188" lon="-8.36268">
        <ele>17.824</ele>
        <time>2019-10-15T13:43:20Z</time>
      </trkpt>
      <trkpt lat="38.13192" lon="-8.36266">
        <ele>18.374</ele>
        <time>2019-10-15T13:43:40Z</time>
      </trkpt>
      <trkpt lat="38.13195" lon="-8.36263">
        <ele>18.656</ele>
        <time>2019-10-15T13:44:00Z</time>
      </trkpt>
      <trkpt lat="38.13197" lon="-8.36261">
        <ele>19.059</ele>
        <time>2019-10-15T13:44:20Z</time>
      </trkpt>
      <trkpt lat="38.13199" lon="-8.36258">
        <ele>19.314</ele>
        <time>2019-10-15T13:44:40Z</time>
      </trkpt>
      <trkpt lat="38.132" lon="-8.36253">
        <ele>19.608</ele>
        <time>2019-10-15T13:45:00Z</time>
      </trkpt>
      <trkpt lat="38.13201" lon="-8.36245">
        <ele>20.079</ele>
        <time>2019-10-15T13:45:20Z</time>
      </trkpt>
      <trkpt lat="38.13202" lon="-8.36235">
        <ele>20.467</ele>
        <time>2019-10-15T13:45:40Z</time>
      </trkpt>
      <trkpt lat="38.13202" lon="-8.36224">
        <ele>21.099</ele>
        <time>2019-10-15T13:46:00Z</time>
      </trkpt>
      <trkpt lat="38.13205" lon="-8.36198">
        <ele>23.349</ele>
        <time>2019-10-15T13:46:20Z</time>
      </trkpt>
      <trkpt lat="38.13225" lon="-8.36115">
        <ele>26.311</ele>
        <time>2019-10-15T13:46:40Z</time>
      </trkpt>
      <trkpt lat="38.13231" lon="-8.36097">
        <ele>26.332</ele>
        <time>2019-10-15T13:47:00Z</time>
      </trkpt>
      <trkpt lat="38.13238" lon="-8.36081">
        <ele>25.924</ele>
        <time>2019-10-15T13:47:20Z</time>
      </trkpt>
      <trkpt lat="38.13246" lon="-8.36065">
        <ele>25.464</ele>
        <time>2019-10-15T13:47:40Z</time>
      </trkpt>
      <trkpt lat="38.13255" lon="-8.36051">
        <ele>24.813</ele>
        <time>2019-10-15T13:48:00Z</time>
      </trkpt>
      <trkpt lat="38.13266" lon="-8.36038">
        <ele>24.143</ele>
        <time>2019-10-15T13:48:20Z</time>
      </trkpt>
      <trkpt lat="38.13278" lon="-8.36027">
        <ele>23.107</ele>
        <time>2019-10-15T13:48:40Z</time>
      </trkpt>
      <trkpt lat="38.1329" lon="-8.36016">
        <ele>24.508</ele>
        <time>2019-10-15T13:49:00Z</time>
      </trkpt>
      <trkpt lat="38.13302" lon="-8.36007">
        <ele>25.735</ele>
        <time>2019-10-15T13:49:20Z</time>
      </trkpt>
      <trkpt lat="38.13375" lon="-8.35976">
        <ele>29.593</ele>
        <time>2019-10-15T13:49:40Z</time>
      </trkpt>
      <trkpt lat="38.13471" lon="-8.35931">
        <ele>30.175</ele>
        <time>2019-10-15T13:50:00Z</time>
      </trkpt>
      <trkpt lat="38.13694" lon="-8.35808">
        <ele>26.115</ele>
        <time>2019-10-15T13:50:20Z</time>
      </trkpt>
      <trkpt lat="38.13836" lon="-8.357">
        <ele>22.147</ele>
        <time>2019-10-15T13:50:40Z</time>
      </trkpt>
      <trkpt lat="38.13925" lon="-8.35623">
        <ele>25.648</ele>
        <time>2019-10-15T13:51:00Z</time>
      </trkpt>
      <trkpt lat="38.13936" lon="-8.35613">
        <ele>25.77</ele>
        <time>2019-10-15T13:51:20Z</time>
      </trkpt>
      <trkpt lat="38.13948" lon="-8.35605">
        <ele>25.32</ele>
        <time>2019-10-15T13:51:40Z</time>
      </trkpt>
      <trkpt lat="38.1396" lon="-8.35599">
        <ele>24.773</ele>
        <time>2019-10-15T13:52:00Z</time>
      </trkpt>
      <trkpt lat="38.13972" lon="-8.35597">
        <ele>24.585</ele>
        <time>2019-10-15T13:52:20Z</time>
      </trkpt>
      <trkpt lat="38.13984" lon="-8.35597">
        <ele>24.513</ele>
        <time>2019-10-15T13:52:40Z</time>
      </trkpt>
      <trkpt lat="38.13996" lon="-8.356">
        <ele>24.808</ele>
        <time>2019-10-15T13:53:00Z</time>
      </trkpt>
      <trkpt lat="38.14008" lon="-8.35606">
        <ele>25.281</ele>
        <time>2019-10-15T13:53:20Z</time>
      </trkpt>
      <trkpt lat="38.14031" lon="-8.35624">
        <ele>25.859</ele>
        <time>2019-10-15T13:53:40Z</time>
      </trkpt>
      <trkpt lat="38.14082" lon="-8.35675">
        <ele>30.551</ele>
        <time>2019-10-15T13:54:00Z</time>
      </trkpt>
      <trkpt lat="38.14091" lon="-8.35685">
        <ele>31.471</ele>
        <time>2019-10-15T13:54:20Z</time>
      </trkpt>
      <trkpt lat="38.14099" lon="-8.35694">
        <ele>32.053</ele>
        <time>2019-10-15T13:54:40Z</time>
      </trkpt>
      <trkpt lat="38.14108" lon="-8.35704">
        <ele>32.024</ele>
        <time>2019-10-15T13:55:00Z</time>
      </trkpt>
      <trkpt lat="38.14117" lon="-8.35711">
        <ele>32.296</ele>
        <time>2019-10-15T13:55:20Z</time>
      </trkpt>
      <trkpt lat="38.14127" lon="-8.35715">
        <ele>32.696</ele>
        <time>2019-10-15T13:55:40Z</time>
      </trkpt>
      <trkpt lat="38.14138" lon="-8.35716">
        <ele>33.079</ele>
        <time>2019-10-15T13:56:00Z</time>
      </trkpt>
      <trkpt lat="38.14148" lon="-8.35712">
        <ele>33.805</ele>
        <time>2019-10-15T13:56:20Z</time>
      </trkpt>
      <trkpt lat="38.14157" lon="-8.35704">
        <ele>34.525</ele>
        <time>2019-10-15T13:56:40Z</time>
      </trkpt>
      <trkpt lat="38.14166" lon="-8.35692">
        <ele>34.808</ele>
        <time>2019-10-15T13:57:00Z</time>
      </trkpt>
      <trkpt lat="38.14175" lon="-8.35678">
        <ele>34.131</ele>
        <time>2019-10-15T13:57:20Z</time>
      </trkpt>
      <trkpt lat="38.14183" lon="-8.35662">
        <ele>33.279</ele>
        <time>2019-10-15T13:57:40Z</time>
      </trkpt>
      <trkpt lat="38.14225" lon="-8.35572">
        <ele>33.051</ele>
        <time>2019-10-15T13:58:00Z</time>
      </trkpt>
      <trkpt lat="38.14242" lon="-8.35537">
        <ele>35.611</ele>
        <time>2019-10-15T13:58:20Z</time>
      </trkpt>
      <trkpt lat="38.1427" lon="-8.35483">
        <ele>35.623</ele>
        <time>2019-10-15T13:58:40Z</time>
      </trkpt>
      <trkpt lat="38.14289" lon="-8.35446">
        <ele>36.444</ele>
        <time>2019-10-15T13:59:00Z</time>
      </trkpt>
      <trkpt lat="38.1433" lon="-8.35371">
        <ele>33.036</ele>
        <time>2019-10-15T13:59:20Z</time>
      </trkpt>
      <trkpt lat="38.14398" lon="-8.35261">
        <ele>36.666</ele>
        <time>2019-10-15T13:59:40Z</time>
      </trkpt>
      <trkpt lat="38.14409" lon="-8.35244">
        <ele>37.085</ele>
        <time>2019-10-15T14:00:00Z</time>
      </trkpt>
      <trkpt lat="38.14433" lon="-8.35211">
        <ele>38.189</ele>
        <time>2019-10-15T14:00:20Z</time>
      </trkpt>
      <trkpt lat="38.14608" lon="-8.35032">
        <ele>42.017</ele>
        <time>2019-10-15T14:00:40Z</time>
      </trkpt>
      <trkpt lat="38.1472" lon="-8.3491">
        <ele>47.708</ele>
        <time>2019-10-15T14:01:00Z</time>
      </trkpt>
      <trkpt lat="38.14729" lon="-8.34898">
        <ele>47.122</ele>
        <time>2019-10-15T14:01:20Z</time>
      </trkpt>
      <trkpt lat="38.14738" lon="-8.34888">
        <ele>46.42</ele>
        <time>2019-10-15T14:01:40Z</time>
      </trkpt>
      <trkpt lat="38.14748" lon="-8.34879">
        <ele>46.192</ele>
        <time>2019-10-15T14:02:00Z</time>
      </trkpt>
      <trkpt lat="38.14759" lon="-8.34871">
        <ele>45.732</ele>
        <time>2019-10-15T14:02:20Z</time>
      </trkpt>
      <trkpt lat="38.14873" lon="-8.348">
        <ele>48.964</ele>
        <time>2019-10-15T14:02:40Z</time>
      </trkpt>
      <trkpt lat="38.14884" lon="-8.34792">
        <ele>48.615</ele>
        <time>2019-10-15T14:03:00Z</time>
      </trkpt>
      <trkpt lat="38.14894" lon="-8.34783">
        <ele>48.067</ele>
        <time>2019-10-15T14:03:20Z</time>
      </trkpt>
      <trkpt lat="38.14903" lon="-8.34772">
        <ele>47.677</ele>
        <time>2019-10-15T14:03:40Z</time>
      </trkpt>
      <trkpt lat="38.1491" lon="-8.3476">
        <ele>47.733</ele>
        <time>2019-10-15T14:04:00Z</time>
      </trkpt>
      <trkpt lat="38.14916" lon="-8.34747">
        <ele>48.123</ele>
        <time>2019-10-15T14:04:20Z</time>
      </trkpt>
      <trkpt lat="38.14926" lon="-8.34719">
        <ele>48.815</ele>
        <time>2019-10-15T14:04:40Z</time>
      </trkpt>
      <trkpt lat="38.1493" lon="-8.34704">
        <ele>48.908</ele>
        <time>2019-10-15T14:05:00Z</time>
      </trkpt>
      <trkpt lat="38.14947" lon="-8.34652">
        <ele>48.437</ele>
        <time>2019-10-15T14:05:20Z</time>
      </trkpt>
      <trkpt lat="38.14956" lon="-8.34627">
        <ele>48.025</ele>
        <time>2019-10-15T14:05:40Z</time>
      </trkpt>
      <trkpt lat="38.14959" lon="-8.34613">
        <ele>47.497</ele>
        <time>2019-10-15T14:06:00Z</time>
      </trkpt>
      <trkpt lat="38.14966" lon="-8.34567">
        <ele>46.757</ele>
        <time>2019-10-15T14:06:20Z</time>
      </trkpt>
      <trkpt lat="38.14975" lon="-8.345">
        <ele>43.979</ele>
        <time>2019-10-15T14:06:40Z</time>
      </trkpt>
      <trkpt lat="38.14981" lon="-8.34469">
        <ele>43.66</ele>
        <time>2019-10-15T14:07:00Z</time>
      </trkpt>
      <trkpt lat="38.14984" lon="-8.34455">
        <ele>43.352</ele>
        <time>2019-10-15T14:07:20Z</time>
      </trkpt>
      <trkpt lat="38.14988" lon="-8.3444">
        <ele>42.792</ele>
        <time>2019-10-15T14:07:40Z</time>
      </trkpt>
      <trkpt lat="38.14992" lon="-8.34427">
        <ele>41.816</ele>
        <time>2019-10-15T14:08:00Z</time>
      </trkpt>
      <trkpt lat="38.14997" lon="-8.34415">
        <ele>41.176</ele>
        <time>2019-10-15T14:08:20Z</time>
      </trkpt>
      <trkpt lat="38.15018" lon="-8.34381">
        <ele>40.213</ele>
        <time>2019-10-15T14:08:40Z</time>
      </trkpt>
      <trkpt lat="38.15025" lon="-8.3437">
        <ele>39.508</ele>
        <time>2019-10-15T14:09:00Z</time>
      </trkpt>
      <trkpt lat="38.15029" lon="-8.34357">
        <ele>39.155</ele>
        <time>2019-10-15T14:09:20Z</time>
      </trkpt>
      <trkpt lat="38.15034" lon="-8.34313">
        <ele>37.773</ele>
        <time>2019-10-15T14:09:40Z</time>
      </trkpt>
      <trkpt lat="38.15036" lon="-8.34298">
        <ele>37.415</ele>
        <time>2019-10-15T14:10:00Z</time>
      </trkpt>
      <trkpt lat="38.1504" lon="-8.34257">
        <ele>37.685</ele>
        <time>2019-10-15T14:10:20Z</time>
      </trkpt>
      <trkpt lat="38.15041" lon="-8.34245">
        <ele>37.497</ele>
        <time>2019-10-15T14:10:40Z</time>
      </trkpt>
      <trkpt lat="38.1504" lon="-8.34233">
        <ele>37.288</ele>
        <time>2019-10-15T14:11:00Z</time>
      </trkpt>
      <trkpt lat="38.15006" lon="-8.34111">
        <ele>35.96</ele>
        <time>2019-10-15T14:11:20Z</time>
      </trkpt>
      <trkpt lat="38.14984" lon="-8.34033">
        <ele>31.38</ele>
        <time>2019-10-15T14:11:40Z</time>
      </trkpt>
      <trkpt lat="38.1498" lon="-8.3402">
        <ele>30.077</ele>
        <time>2019-10-15T14:12:00Z</time>
      </trkpt>
      <trkpt lat="38.14976" lon="-8.34009">
        <ele>28.561</ele>
        <time>2019-10-15T14:12:20Z</time>
      </trkpt>
      <trkpt lat="38.14973" lon="-8.33998">
        <ele>27.127</ele>
        <time>2019-10-15T14:12:40Z</time>
      </trkpt>
      <trkpt lat="38.14971" lon="-8.33986">
        <ele>26.408</ele>
        <time>2019-10-15T14:13:00Z</time>
      </trkpt>
      <trkpt lat="38.14972" lon="-8.33975">
        <ele>26.121</ele>
        <time>2019-10-15T14:13:20Z</time>
      </trkpt>
      <trkpt lat="38.14974" lon="-8.33966">
        <ele>26.339</ele>
        <time>2019-10-15T14:13:40Z</time>
      </trkpt>
      <trkpt lat="38.14979" lon="-8.33958">
        <ele>27.021</ele>
        <time>2019-10-15T14:14:00Z</time>
      </trkpt>
      <trkpt lat="38.15003" lon="-8.33936">
        <ele>30.241</ele>
        <time>2019-10-15T14:14:20Z</time>
      </trkpt>
      <trkpt lat="38.15102" lon="-8.33851">
        <ele>29.113</ele>
        <time>2019-10-15T14:14:40Z</time>
      </trkpt>
      <trkpt lat="38.15134" lon="-8.33812">
        <ele>23.514</ele>
        <time>2019-10-15T14:15:00Z</time>
      </trkpt>
      <trkpt lat="38.15181" lon="-8.33777">
        <ele>22.966</ele>
        <time>2019-10-15T14:15:20Z</time>
      </trkpt>
      <trkpt lat="38.15205" lon="-8.33758">
        <ele>20.296</ele>
        <time>2019-10-15T14:15:40Z</time>
      </trkpt>
      <trkpt lat="38.15214" lon="-8.33752">
        <ele>19.728</ele>
        <time>2019-10-15T14:16:00Z</time>
      </trkpt>
      <trkpt lat="38.15233" lon="-8.33744">
        <ele>19.289</ele>
        <time>2019-10-15T14:16:20Z</time>
      </trkpt>
      <trkpt lat="38.15243" lon="-8.33741">
        <ele>18.617</ele>
        <time>2019-10-15T14:16:40Z</time>
      </trkpt>
      <trkpt lat="38.15254" lon="-8.33735">
        <ele>17.708</ele>
        <time>2019-10-15T14:17:00Z</time>
      </trkpt>
      <trkpt lat="38.15272" lon="-8.3372">
        <ele>15.196</ele>
        <time>2019-10-15T14:17:20Z</time>
      </trkpt>
      <trkpt lat="38.15394" lon="-8.33601">
        <ele>17.664</ele>
        <time>2019-10-15T14:17:40Z</time>
      </trkpt>
      <trkpt lat="38.15419" lon="-8.33572">
        <ele>18.636</ele>
        <time>2019-10-15T14:18:00Z</time>
      </trkpt>
      <trkpt lat="38.15435" lon="-8.33553">
        <ele>18.546</ele>
        <time>2019-10-15T14:18:20Z</time>
      </trkpt>
      <trkpt lat="38.15444" lon="-8.33544">
        <ele>17.988</ele>
        <time>2019-10-15T14:18:40Z</time>
      </trkpt>
      <trkpt lat="38.1552" lon="-8.33467">
        <ele>17.659</ele>
        <time>2019-10-15T14:19:00Z</time>
      </trkpt>
      <trkpt lat="38.15582" lon="-8.3337">
        <ele>15.831</ele>
        <time>2019-10-15T14:19:20Z</time>
      </trkpt>
      <trkpt lat="38.15657" lon="-8.33265">
        <ele>19.291</ele>
        <time>2019-10-15T14:19:40Z</time>
      </trkpt>
      <trkpt lat="38.15721" lon="-8.33109">
        <ele>16.758</ele>
        <time>2019-10-15T14:20:00Z</time>
      </trkpt>
      <trkpt lat="38.15754" lon="-8.32997">
        <ele>18.852</ele>
        <time>2019-10-15T14:20:20Z</time>
      </trkpt>
      <trkpt lat="38.15758" lon="-8.32986">
        <ele>19.017</ele>
        <time>2019-10-15T14:20:40Z</time>
      </trkpt>
      <trkpt lat="38.15761" lon="-8.32977">
        <ele>18.708</ele>
        <time>2019-10-15T14:21:00Z</time>
      </trkpt>
      <trkpt lat="38.15766" lon="-8.32969">
        <ele>18.389</ele>
        <time>2019-10-15T14:21:20Z</time>
      </trkpt>
      <trkpt lat="38.15772" lon="-8.32963">
        <ele>18.017</ele>
        <time>2019-10-15T14:21:40Z</time>
      </trkpt>
      <trkpt lat="38.15833" lon="-8.32905">
        <ele>17.299</ele>
        <time>2019-10-15T14:22:00Z</time>
      </trkpt>
      <trkpt lat="38.1584" lon="-8.32897">
        <ele>16.939</ele>
        <time>2019-10-15T14:22:20Z</time>
      </trkpt>
      <trkpt lat="38.15848" lon="-8.3289">
        <ele>16.761</ele>
        <time>2019-10-15T14:22:40Z</time>
      </trkpt>
      <trkpt lat="38.15925" lon="-8.32855">
        <ele>16.872</ele>
        <time>2019-10-15T14:23:00Z</time>
      </trkpt>
      <trkpt lat="38.15932" lon="-8.32852">
        <ele>16.264</ele>
        <time>2019-10-15T14:23:20Z</time>
      </trkpt>
      <trkpt lat="38.1594" lon="-8.3285">
        <ele>15.954</ele>
        <time>2019-10-15T14:23:40Z</time>
      </trkpt>
      <trkpt lat="38.16035" lon="-8.32841">
        <ele>12.713</ele>
        <time>2019-10-15T14:24:00Z</time>
      </trkpt>
      <trkpt lat="38.16085" lon="-8.32834">
        <ele>12.243</ele>
        <time>2019-10-15T14:24:20Z</time>
      </trkpt>
      <trkpt lat="38.1621" lon="-8.32811">
        <ele>13.807</ele>
        <time>2019-10-15T14:24:40Z</time>
      </trkpt>
      <trkpt lat="38.16223" lon="-8.32811">
        <ele>14.808</ele>
        <time>2019-10-15T14:25:00Z</time>
      </trkpt>
      <trkpt lat="38.16285" lon="-8.32806">
        <ele>16.985</ele>
        <time>2019-10-15T14:25:20Z</time>
      </trkpt>
      <trkpt lat="38.16296" lon="-8.32804">
        <ele>16.213</ele>
        <time>2019-10-15T14:25:40Z</time>
      </trkpt>
      <trkpt lat="38.16307" lon="-8.32801">
        <ele>15.595</ele>
        <time>2019-10-15T14:26:00Z</time>
      </trkpt>
      <trkpt lat="38.16317" lon="-8.32797">
        <ele>14.935</ele>
        <time>2019-10-15T14:26:20Z</time>
      </trkpt>
      <trkpt lat="38.16328" lon="-8.32794">
        <ele>14.467</ele>
        <time>2019-10-15T14:26:40Z</time>
      </trkpt>
      <trkpt lat="38.16447" lon="-8.32798">
        <ele>17.268</ele>
        <time>2019-10-15T14:27:00Z</time>
      </trkpt>
      <trkpt lat="38.16603" lon="-8.32806">
        <ele>18.34</ele>
        <time>2019-10-15T14:27:20Z</time>
      </trkpt>
      <trkpt lat="38.16615" lon="-8.32806">
        <ele>18.19</ele>
        <time>2019-10-15T14:27:40Z</time>
      </trkpt>
      <trkpt lat="38.16626" lon="-8.32807">
        <ele>18.223</ele>
        <time>2019-10-15T14:28:00Z</time>
      </trkpt>
      <trkpt lat="38.16636" lon="-8.32808">
        <ele>18.583</ele>
        <time>2019-10-15T14:28:20Z</time>
      </trkpt>
      <trkpt lat="38.16645" lon="-8.32811">
        <ele>18.511</ele>
        <time>2019-10-15T14:28:40Z</time>
      </trkpt>
      <trkpt lat="38.16653" lon="-8.32815">
        <ele>18.508</ele>
        <time>2019-10-15T14:29:00Z</time>
      </trkpt>
      <trkpt lat="38.1666" lon="-8.3282">
        <ele>18.766</ele>
        <time>2019-10-15T14:29:20Z</time>
      </trkpt>
      <trkpt lat="38.16665" lon="-8.32826">
        <ele>19.164</ele>
        <time>2019-10-15T14:29:40Z</time>
      </trkpt>
      <trkpt lat="38.16669" lon="-8.32833">
        <ele>19.576</ele>
        <time>2019-10-15T14:30:00Z</time>
      </trkpt>
      <trkpt lat="38.16682" lon="-8.32872">
        <ele>20.946</ele>
        <time>2019-10-15T14:30:20Z</time>
      </trkpt>
      <trkpt lat="38.16685" lon="-8.32882">
        <ele>20.898</ele>
        <time>2019-10-15T14:30:40Z</time>
      </trkpt>
      <trkpt lat="38.16688" lon="-8.32892">
        <ele>20.499</ele>
        <time>2019-10-15T14:31:00Z</time>
      </trkpt>
      <trkpt lat="38.16693" lon="-8.329">
        <ele>19.331</ele>
        <time>2019-10-15T14:31:20Z</time>
      </trkpt>
      <trkpt lat="38.167" lon="-8.32905">
        <ele>18.561</ele>
        <time>2019-10-15T14:31:40Z</time>
      </trkpt>
      <trkpt lat="38.16708" lon="-8.32907">
        <ele>17.985</ele>
        <time>2019-10-15T14:32:00Z</time>
      </trkpt>
      <trkpt lat="38.16716" lon="-8.32905">
        <ele>17.189</ele>
        <time>2019-10-15T14:32:20Z</time>
      </trkpt>
      <trkpt lat="38.16725" lon="-8.32901">
        <ele>16.617</ele>
        <time>2019-10-15T14:32:40Z</time>
      </trkpt>
      <trkpt lat="38.16734" lon="-8.32896">
        <ele>16.908</ele>
        <time>2019-10-15T14:33:00Z</time>
      </trkpt>
      <trkpt lat="38.16758" lon="-8.32874">
        <ele>17.312</ele>
        <time>2019-10-15T14:33:20Z</time>
      </trkpt>
      <trkpt lat="38.16796" lon="-8.32845">
        <ele>18.29</ele>
        <time>2019-10-15T14:33:40Z</time>
      </trkpt>
      <trkpt lat="38.16806" lon="-8.32838">
        <ele>18.562</ele>
        <time>2019-10-15T14:34:00Z</time>
      </trkpt>
      <trkpt lat="38.1692" lon="-8.32754">
        <ele>17.052</ele>
        <time>2019-10-15T14:34:20Z</time>
      </trkpt>
      <trkpt lat="38.16987" lon="-8.3273">
        <ele>17.794</ele>
        <time>2019-10-15T14:34:40Z</time>
      </trkpt>
      <trkpt lat="38.1711" lon="-8.32697">
        <ele>18.315</ele>
        <time>2019-10-15T14:35:00Z</time>
      </trkpt>
      <trkpt lat="38.17229" lon="-8.32629">
        <ele>20.457</ele>
        <time>2019-10-15T14:35:20Z</time>
      </trkpt>
      <trkpt lat="38.17291" lon="-8.32584">
        <ele>21.077</ele>
        <time>2019-10-15T14:35:40Z</time>
      </trkpt>
      <trkpt lat="38.17316" lon="-8.32564">
        <ele>20.177</ele>
        <time>2019-10-15T14:36:00Z</time>
      </trkpt>
      <trkpt lat="38.17327" lon="-8.32555">
        <ele>19.861</ele>
        <time>2019-10-15T14:36:20Z</time>
      </trkpt>
      <trkpt lat="38.1734" lon="-8.32543">
        <ele>19.827</ele>
        <time>2019-10-15T14:36:40Z</time>
      </trkpt>
      <trkpt lat="38.17357" lon="-8.32528">
        <ele>19.408</ele>
        <time>2019-10-15T14:37:00Z</time>
      </trkpt>
      <trkpt lat="38.17477" lon="-8.32438">
        <ele>18.431</ele>
        <time>2019-10-15T14:37:20Z</time>
      </trkpt>
      <trkpt lat="38.17569" lon="-8.32371">
        <ele>18.549</ele>
        <time>2019-10-15T14:37:40Z</time>
      </trkpt>
      <trkpt lat="38.17637" lon="-8.32327">
        <ele>23.151</ele>
        <time>2019-10-15T14:38:00Z</time>
      </trkpt>
      <trkpt lat="38.17643" lon="-8.32325">
        <ele>23.541</ele>
        <time>2019-10-15T14:38:20Z</time>
      </trkpt>
      <trkpt lat="38.17648" lon="-8.32322">
        <ele>23.793</ele>
        <time>2019-10-15T14:38:40Z</time>
      </trkpt>
      <trkpt lat="38.17651" lon="-8.3232">
        <ele>23.974</ele>
        <time>2019-10-15T14:39:00Z</time>
      </trkpt>
      <trkpt lat="38.17655" lon="-8.32317">
        <ele>23.916</ele>
        <time>2019-10-15T14:39:20Z</time>
      </trkpt>
      <trkpt lat="38.17659" lon="-8.32312">
        <ele>23.986</ele>
        <time>2019-10-15T14:39:40Z</time>
      </trkpt>
      <trkpt lat="38.17672" lon="-8.32302">
        <ele>23.749</ele>
        <time>2019-10-15T14:40:00Z</time>
      </trkpt>
      <trkpt lat="38.17773" lon="-8.32203">
        <ele>22.902</ele>
        <time>2019-10-15T14:40:20Z</time>
      </trkpt>
      <trkpt lat="38.17899" lon="-8.32052">
        <ele>18.922</ele>
        <time>2019-10-15T14:40:40Z</time>
      </trkpt>
      <trkpt lat="38.18012" lon="-8.31933">
        <ele>20.408</ele>
        <time>2019-10-15T14:41:00Z</time>
      </trkpt>
      <trkpt lat="38.18077" lon="-8.31861">
        <ele>21.018</ele>
        <time>2019-10-15T14:41:20Z</time>
      </trkpt>
      <trkpt lat="38.18169" lon="-8.31771">
        <ele>18.876</ele>
        <time>2019-10-15T14:41:40Z</time>
      </trkpt>
      <trkpt lat="38.18219" lon="-8.31704">
        <ele>18.258</ele>
        <time>2019-10-15T14:42:00Z</time>
      </trkpt>
      <trkpt lat="38.18229" lon="-8.31682">
        <ele>18.318</ele>
        <time>2019-10-15T14:42:20Z</time>
      </trkpt>
      <trkpt lat="38.18229" lon="-8.31683">
        <ele>18.29</ele>
        <time>2019-10-15T14:42:40Z</time>
      </trkpt>
      <trkpt lat="38.18229" lon="-8.31683">
        <ele>18.331</ele>
        <time>2019-10-15T14:43:00Z</time>
      </trkpt>
      <trkpt lat="38.18231" lon="-8.31676">
        <ele>18.393</ele>
        <time>2019-10-15T14:43:20Z</time>
      </trkpt>
      <trkpt lat="38.18258" lon="-8.31574">
        <ele>18.693</ele>
        <time>2019-10-15T14:43:40Z</time>
      </trkpt>
      <trkpt lat="38.1826" lon="-8.3156">
        <ele>18.776</ele>
        <time>2019-10-15T14:44:00Z</time>
      </trkpt>
      <trkpt lat="38.18266" lon="-8.31534">
        <ele>19.59</ele>
        <time>2019-10-15T14:44:20Z</time>
      </trkpt>
      <trkpt lat="38.18269" lon="-8.31522">
        <ele>19.519</ele>
        <time>2019-10-15T14:44:40Z</time>
      </trkpt>
      <trkpt lat="38.18273" lon="-8.3151">
        <ele>19.308</ele>
        <time>2019-10-15T14:45:00Z</time>
      </trkpt>
      <trkpt lat="38.18278" lon="-8.31499">
        <ele>19.061</ele>
        <time>2019-10-15T14:45:20Z</time>
      </trkpt>
      <trkpt lat="38.18284" lon="-8.31489">
        <ele>19.129</ele>
        <time>2019-10-15T14:45:40Z</time>
      </trkpt>
      <trkpt lat="38.18291" lon="-8.3148">
        <ele>19.131</ele>
        <time>2019-10-15T14:46:00Z</time>
      </trkpt>
      <trkpt lat="38.18299" lon="-8.31473">
        <ele>19.091</ele>
        <time>2019-10-15T14:46:20Z</time>
      </trkpt>
      <trkpt lat="38.18305" lon="-8.31466">
        <ele>18.853</ele>
        <time>2019-10-15T14:46:40Z</time>
      </trkpt>
      <trkpt lat="38.1831" lon="-8.31458">
        <ele>18.694</ele>
        <time>2019-10-15T14:47:00Z</time>
      </trkpt>
      <trkpt lat="38.18313" lon="-8.3145">
        <ele>18.426</ele>
        <time>2019-10-15T14:47:20Z</time>
      </trkpt>
      <trkpt lat="38.18314" lon="-8.31441">
        <ele>18.266</ele>
        <time>2019-10-15T14:47:40Z</time>
      </trkpt>
      <trkpt lat="38.18315" lon="-8.3143">
        <ele>18.055</ele>
        <time>2019-10-15T14:48:00Z</time>
      </trkpt>
      <trkpt lat="38.18336" lon="-8.31188">
        <ele>18.507</ele>
        <time>2019-10-15T14:48:20Z</time>
      </trkpt>
      <trkpt lat="38.18342" lon="-8.31118">
        <ele>14.717</ele>
        <time>2019-10-15T14:48:40Z</time>
      </trkpt>
      <trkpt lat="38.18349" lon="-8.31051">
        <ele>16.008</ele>
        <time>2019-10-15T14:49:00Z</time>
      </trkpt>
      <trkpt lat="38.18372" lon="-8.30914">
        <ele>16.419</ele>
        <time>2019-10-15T14:49:20Z</time>
      </trkpt>
      <trkpt lat="38.18395" lon="-8.30802">
        <ele>14.437</ele>
        <time>2019-10-15T14:49:40Z</time>
      </trkpt>
      <trkpt lat="38.18419" lon="-8.30725">
        <ele>12.519</ele>
        <time>2019-10-15T14:50:00Z</time>
      </trkpt>
      <trkpt lat="38.18425" lon="-8.30711">
        <ele>12.929</ele>
        <time>2019-10-15T14:50:20Z</time>
      </trkpt>
      <trkpt lat="38.18476" lon="-8.30637">
        <ele>14.251</ele>
        <time>2019-10-15T14:50:40Z</time>
      </trkpt>
      <trkpt lat="38.18503" lon="-8.30604">
        <ele>14.992</ele>
        <time>2019-10-15T14:51:00Z</time>
      </trkpt>
      <trkpt lat="38.186" lon="-8.30473">
        <ele>11.564</ele>
        <time>2019-10-15T14:51:20Z</time>
      </trkpt>
      <trkpt lat="38.18692" lon="-8.30356">
        <ele>13.464</ele>
        <time>2019-10-15T14:51:40Z</time>
      </trkpt>
      <trkpt lat="38.18701" lon="-8.30347">
        <ele>13.685</ele>
        <time>2019-10-15T14:52:00Z</time>
      </trkpt>
      <trkpt lat="38.18711" lon="-8.3034">
        <ele>13.889</ele>
        <time>2019-10-15T14:52:20Z</time>
      </trkpt>
      <trkpt lat="38.18824" lon="-8.30267">
        <ele>15.417</ele>
        <time>2019-10-15T14:52:40Z</time>
      </trkpt>
      <trkpt lat="38.18863" lon="-8.30241">
        <ele>13.808</ele>
        <time>2019-10-15T14:53:00Z</time>
      </trkpt>
      <trkpt lat="38.18916" lon="-8.30236">
        <ele>14.052</ele>
        <time>2019-10-15T14:53:20Z</time>
      </trkpt>
      <trkpt lat="38.18939" lon="-8.30244">
        <ele>13.94</ele>
        <time>2019-10-15T14:53:40Z</time>
      </trkpt>
      <trkpt lat="38.19016" lon="-8.30272">
        <ele>17.462</ele>
        <time>2019-10-15T14:54:00Z</time>
      </trkpt>
      <trkpt lat="38.19137" lon="-8.30322">
        <ele>14.432</ele>
        <time>2019-10-15T14:54:20Z</time>
      </trkpt>
      <trkpt lat="38.19147" lon="-8.30331">
        <ele>15.164</ele>
        <time>2019-10-15T14:54:40Z</time>
      </trkpt>
      <trkpt lat="38.19258" lon="-8.3047">
        <ele>21.545</ele>
        <time>2019-10-15T14:55:00Z</time>
      </trkpt>
      <trkpt lat="38.19303" lon="-8.30518">
        <ele>21.677</ele>
        <time>2019-10-15T14:55:20Z</time>
      </trkpt>
      <trkpt lat="38.19311" lon="-8.30531">
        <ele>21.497</ele>
        <time>2019-10-15T14:55:40Z</time>
      </trkpt>
      <trkpt lat="38.19366" lon="-8.30622">
        <ele>21.018</ele>
        <time>2019-10-15T14:56:00Z</time>
      </trkpt>
      <trkpt lat="38.19448" lon="-8.30746">
        <ele>15.798</ele>
        <time>2019-10-15T14:56:20Z</time>
      </trkpt>
      <trkpt lat="38.19511" lon="-8.30902">
        <ele>17.517</ele>
        <time>2019-10-15T14:56:40Z</time>
      </trkpt>
      <trkpt lat="38.19558" lon="-8.31062">
        <ele>17.608</ele>
        <time>2019-10-15T14:57:00Z</time>
      </trkpt>
      <trkpt lat="38.19603" lon="-8.31209">
        <ele>14.685</ele>
        <time>2019-10-15T14:57:20Z</time>
      </trkpt>
      <trkpt lat="38.1961" lon="-8.31257">
        <ele>15.173</ele>
        <time>2019-10-15T14:57:40Z</time>
      </trkpt>
      <trkpt lat="38.19628" lon="-8.31398">
        <ele>12.835</ele>
        <time>2019-10-15T14:58:00Z</time>
      </trkpt>
      <trkpt lat="38.19631" lon="-8.31534">
        <ele>14.985</ele>
        <time>2019-10-15T14:58:20Z</time>
      </trkpt>
      <trkpt lat="38.19639" lon="-8.3157">
        <ele>14.057</ele>
        <time>2019-10-15T14:58:40Z</time>
      </trkpt>
      <trkpt lat="38.19662" lon="-8.31685">
        <ele>14.518</ele>
        <time>2019-10-15T14:59:00Z</time>
      </trkpt>
      <trkpt lat="38.19688" lon="-8.31768">
        <ele>12.58</ele>
        <time>2019-10-15T14:59:20Z</time>
      </trkpt>
      <trkpt lat="38.19736" lon="-8.31857">
        <ele>14.35</ele>
        <time>2019-10-15T14:59:40Z</time>
      </trkpt>
      <trkpt lat="38.19757" lon="-8.31891">
        <ele>14.558</ele>
        <time>2019-10-15T15:00:00Z</time>
      </trkpt>
      <trkpt lat="38.19755" lon="-8.31887">
        <ele>14.652</ele>
        <time>2019-10-15T15:00:20Z</time>
      </trkpt>
      <trkpt lat="38.19754" lon="-8.31886">
        <ele>14.617</ele>
        <time>2019-10-15T15:00:40Z</time>
      </trkpt>
      <trkpt lat="38.19754" lon="-8.31886">
        <ele>14.608</ele>
        <time>2019-10-15T15:01:00Z</time>
      </trkpt>
      <trkpt lat="38.19771" lon="-8.31912">
        <ele>13.589</ele>
        <time>2019-10-15T15:01:20Z</time>
      </trkpt>
      <trkpt lat="38.19836" lon="-8.3201">
        <ele>12.887</ele>
        <time>2019-10-15T15:01:40Z</time>
      </trkpt>
      <trkpt lat="38.1989" lon="-8.32069">
        <ele>12.919</ele>
        <time>2019-10-15T15:02:00Z</time>
      </trkpt>
      <trkpt lat="38.19917" lon="-8.32094">
        <ele>12.369</ele>
        <time>2019-10-15T15:02:20Z</time>
      </trkpt>
      <trkpt lat="38.19957" lon="-8.32131">
        <ele>11.631</ele>
        <time>2019-10-15T15:02:40Z</time>
      </trkpt>
      <trkpt lat="38.20031" lon="-8.32216">
        <ele>12.342</ele>
        <time>2019-10-15T15:03:00Z</time>
      </trkpt>
      <trkpt lat="38.20053" lon="-8.32242">
        <ele>11.864</ele>
        <time>2019-10-15T15:03:20Z</time>
      </trkpt>
      <trkpt lat="38.20086" lon="-8.3227">
        <ele>13.544</ele>
        <time>2019-10-15T15:03:40Z</time>
      </trkpt>
      <trkpt lat="38.20095" lon="-8.32277">
        <ele>13.144</ele>
        <time>2019-10-15T15:04:00Z</time>
      </trkpt>
      <trkpt lat="38.20181" lon="-8.32341">
        <ele>12.805</ele>
        <time>2019-10-15T15:04:20Z</time>
      </trkpt>
      <trkpt lat="38.20295" lon="-8.32417">
        <ele>13.415</ele>
        <time>2019-10-15T15:04:40Z</time>
      </trkpt>
      <trkpt lat="38.20306" lon="-8.32423">
        <ele>13.408</ele>
        <time>2019-10-15T15:05:00Z</time>
      </trkpt>
      <trkpt lat="38.20386" lon="-8.32456">
        <ele>13.578</ele>
        <time>2019-10-15T15:05:20Z</time>
      </trkpt>
      <trkpt lat="38.20397" lon="-8.3246">
        <ele>13.636</ele>
        <time>2019-10-15T15:05:40Z</time>
      </trkpt>
      <trkpt lat="38.20447" lon="-8.32457">
        <ele>13.998</ele>
        <time>2019-10-15T15:06:00Z</time>
      </trkpt>
      <trkpt lat="38.20635" lon="-8.32456">
        <ele>16.628</ele>
        <time>2019-10-15T15:06:20Z</time>
      </trkpt>
      <trkpt lat="38.20733" lon="-8.32447">
        <ele>15.52</ele>
        <time>2019-10-15T15:06:40Z</time>
      </trkpt>
      <trkpt lat="38.20863" lon="-8.32441">
        <ele>12.511</ele>
        <time>2019-10-15T15:07:00Z</time>
      </trkpt>
      <trkpt lat="38.21015" lon="-8.32433">
        <ele>16.023</ele>
        <time>2019-10-15T15:07:20Z</time>
      </trkpt>
      <trkpt lat="38.211" lon="-8.32437">
        <ele>15.443</ele>
        <time>2019-10-15T15:07:40Z</time>
      </trkpt>
      <trkpt lat="38.21193" lon="-8.32439">
        <ele>12.623</ele>
        <time>2019-10-15T15:08:00Z</time>
      </trkpt>
      <trkpt lat="38.21293" lon="-8.32449">
        <ele>12.883</ele>
        <time>2019-10-15T15:08:20Z</time>
      </trkpt>
      <trkpt lat="38.21301" lon="-8.32451">
        <ele>12.611</ele>
        <time>2019-10-15T15:08:40Z</time>
      </trkpt>
      <trkpt lat="38.2131" lon="-8.32453">
        <ele>12.608</ele>
        <time>2019-10-15T15:09:00Z</time>
      </trkpt>
      <trkpt lat="38.21344" lon="-8.32471">
        <ele>12.696</ele>
        <time>2019-10-15T15:09:20Z</time>
      </trkpt>
      <trkpt lat="38.21406" lon="-8.32498">
        <ele>11.994</ele>
        <time>2019-10-15T15:09:40Z</time>
      </trkpt>
      <trkpt lat="38.21413" lon="-8.325">
        <ele>12.096</ele>
        <time>2019-10-15T15:10:00Z</time>
      </trkpt>
      <trkpt lat="38.2142" lon="-8.32501">
        <ele>12.126</ele>
        <time>2019-10-15T15:10:20Z</time>
      </trkpt>
      <trkpt lat="38.21491" lon="-8.32496">
        <ele>13.618</ele>
        <time>2019-10-15T15:10:40Z</time>
      </trkpt>
      <trkpt lat="38.21498" lon="-8.32497">
        <ele>13.719</ele>
        <time>2019-10-15T15:11:00Z</time>
      </trkpt>
      <trkpt lat="38.21505" lon="-8.325">
        <ele>13.871</ele>
        <time>2019-10-15T15:11:20Z</time>
      </trkpt>
      <trkpt lat="38.21567" lon="-8.32545">
        <ele>14.071</ele>
        <time>2019-10-15T15:11:40Z</time>
      </trkpt>
      <trkpt lat="38.21616" lon="-8.32591">
        <ele>13.954</ele>
        <time>2019-10-15T15:12:00Z</time>
      </trkpt>
      <trkpt lat="38.21619" lon="-8.32597">
        <ele>13.756</ele>
        <time>2019-10-15T15:12:20Z</time>
      </trkpt>
      <trkpt lat="38.2163" lon="-8.32616">
        <ele>14.011</ele>
        <time>2019-10-15T15:12:40Z</time>
      </trkpt>
      <trkpt lat="38.21657" lon="-8.32676">
        <ele>17.308</ele>
        <time>2019-10-15T15:13:00Z</time>
      </trkpt>
      <trkpt lat="38.21701" lon="-8.32738">
        <ele>14.159</ele>
        <time>2019-10-15T15:13:20Z</time>
      </trkpt>
      <trkpt lat="38.21725" lon="-8.32763">
        <ele>14.487</ele>
        <time>2019-10-15T15:13:40Z</time>
      </trkpt>
      <trkpt lat="38.21729" lon="-8.32768">
        <ele>15.039</ele>
        <time>2019-10-15T15:14:00Z</time>
      </trkpt>
      <trkpt lat="38.21734" lon="-8.32773">
        <ele>15.529</ele>
        <time>2019-10-15T15:14:20Z</time>
      </trkpt>
      <trkpt lat="38.21738" lon="-8.32776">
        <ele>15.921</ele>
        <time>2019-10-15T15:14:40Z</time>
      </trkpt>
      <trkpt lat="38.21743" lon="-8.32779">
        <ele>16.012</ele>
        <time>2019-10-15T15:15:00Z</time>
      </trkpt>
      <trkpt lat="38.21753" lon="-8.32786">
        <ele>15.954</ele>
        <time>2019-10-15T15:15:20Z</time>
      </trkpt>
      <trkpt lat="38.21793" lon="-8.32826">
        <ele>14.184</ele>
        <time>2019-10-15T15:15:40Z</time>
      </trkpt>
      <trkpt lat="38.21802" lon="-8.32836">
        <ele>13.687</ele>
        <time>2019-10-15T15:16:00Z</time>
      </trkpt>
      <trkpt lat="38.21826" lon="-8.32858">
        <ele>12.642</ele>
        <time>2019-10-15T15:16:20Z</time>
      </trkpt>
      <trkpt lat="38.21875" lon="-8.32876">
        <ele>13.326</ele>
        <time>2019-10-15T15:16:40Z</time>
      </trkpt>
      <trkpt lat="38.2195" lon="-8.329">
        <ele>14.308</ele>
        <time>2019-10-15T15:17:00Z</time>
      </trkpt>
      <trkpt lat="38.2199" lon="-8.32918">
        <ele>10.942</ele>
        <time>2019-10-15T15:17:20Z</time>
      </trkpt>
      <trkpt lat="38.22031" lon="-8.32946">
        <ele>13.16</ele>
        <time>2019-10-15T15:17:40Z</time>
      </trkpt>
      <trkpt lat="38.22064" lon="-8.32977">
        <ele>16.422</ele>
        <time>2019-10-15T15:18:00Z</time>
      </trkpt>
      <trkpt lat="38.22148" lon="-8.33029">
        <ele>14.182</ele>
        <time>2019-10-15T15:18:20Z</time>
      </trkpt>
      <trkpt lat="38.22173" lon="-8.33047">
        <ele>14.754</ele>
        <time>2019-10-15T15:18:40Z</time>
      </trkpt>
      <trkpt lat="38.2223" lon="-8.33079">
        <ele>13.085</ele>
        <time>2019-10-15T15:19:00Z</time>
      </trkpt>
      <trkpt lat="38.22246" lon="-8.33089">
        <ele>13.047</ele>
        <time>2019-10-15T15:19:20Z</time>
      </trkpt>
      <trkpt lat="38.22293" lon="-8.33129">
        <ele>15.217</ele>
        <time>2019-10-15T15:19:40Z</time>
      </trkpt>
      <trkpt lat="38.22313" lon="-8.33143">
        <ele>15.583</ele>
        <time>2019-10-15T15:20:00Z</time>
      </trkpt>
      <trkpt lat="38.22379" lon="-8.33191">
        <ele>15.425</ele>
        <time>2019-10-15T15:20:20Z</time>
      </trkpt>
      <trkpt lat="38.22406" lon="-8.3321">
        <ele>16.517</ele>
        <time>2019-10-15T15:20:40Z</time>
      </trkpt>
      <trkpt lat="38.22443" lon="-8.33232">
        <ele>15.308</ele>
        <time>2019-10-15T15:21:00Z</time>
      </trkpt>
      <trkpt lat="38.22449" lon="-8.33235">
        <ele>14.642</ele>
        <time>2019-10-15T15:21:20Z</time>
      </trkpt>
      <trkpt lat="38.2245" lon="-8.33238">
        <ele>14.81</ele>
        <time>2019-10-15T15:21:40Z</time>
      </trkpt>
      <trkpt lat="38.22451" lon="-8.33239">
        <ele>14.872</ele>
        <time>2019-10-15T15:22:00Z</time>
      </trkpt>
      <trkpt lat="38.22451" lon="-8.33239">
        <ele>14.872</ele>
        <time>2019-10-15T15:22:20Z</time>
      </trkpt>
      <trkpt lat="38.22458" lon="-8.33244">
        <ele>13.954</ele>
        <time>2019-10-15T15:22:40Z</time>
      </trkpt>
      <trkpt lat="38.22478" lon="-8.33256">
        <ele>14.255</ele>
        <time>2019-10-15T15:23:00Z</time>
      </trkpt>
      <trkpt lat="38.22486" lon="-8.3326">
        <ele>15.357</ele>
        <time>2019-10-15T15:23:20Z</time>
      </trkpt>
      <trkpt lat="38.22493" lon="-8.33265">
        <ele>16.427</ele>
        <time>2019-10-15T15:23:40Z</time>
      </trkpt>
      <trkpt lat="38.22519" lon="-8.33279">
        <ele>17.744</ele>
        <time>2019-10-15T15:24:00Z</time>
      </trkpt>
      <trkpt lat="38.2255" lon="-8.33291">
        <ele>17.305</ele>
        <time>2019-10-15T15:24:20Z</time>
      </trkpt>
      <trkpt lat="38.22567" lon="-8.33296">
        <ele>16.915</ele>
        <time>2019-10-15T15:24:40Z</time>
      </trkpt>
      <trkpt lat="38.22599" lon="-8.33307">
        <ele>16.208</ele>
        <time>2019-10-15T15:25:00Z</time>
      </trkpt>
      <trkpt lat="38.22622" lon="-8.33312">
        <ele>15.918</ele>
        <time>2019-10-15T15:25:20Z</time>
      </trkpt>
      <trkpt lat="38.22687" lon="-8.33323">
        <ele>12.586</ele>
        <time>2019-10-15T15:25:40Z</time>
      </trkpt>
      <trkpt lat="38.22699" lon="-8.33328">
        <ele>12.368</ele>
        <time>2019-10-15T15:26:00Z</time>
      </trkpt>
      <trkpt lat="38.22724" lon="-8.33331">
        <ele>10.778</ele>
        <time>2019-10-15T15:26:20Z</time>
      </trkpt>
      <trkpt lat="38.22743" lon="-8.33339">
        <ele>13.03</ele>
        <time>2019-10-15T15:26:40Z</time>
      </trkpt>
      <trkpt lat="38.22773" lon="-8.33341">
        <ele>12.961</ele>
        <time>2019-10-15T15:27:00Z</time>
      </trkpt>
      <trkpt lat="38.22811" lon="-8.33349">
        <ele>14.443</ele>
        <time>2019-10-15T15:27:20Z</time>
      </trkpt>
      <trkpt lat="38.22818" lon="-8.33349">
        <ele>14.643</ele>
        <time>2019-10-15T15:27:40Z</time>
      </trkpt>
      <trkpt lat="38.22863" lon="-8.33358">
        <ele>16.262</ele>
        <time>2019-10-15T15:28:00Z</time>
      </trkpt>
      <trkpt lat="38.22945" lon="-8.33371">
        <ele>12.283</ele>
        <time>2019-10-15T15:28:20Z</time>
      </trkpt>
      <trkpt lat="38.23005" lon="-8.33382">
        <ele>15.811</ele>
        <time>2019-10-15T15:28:40Z</time>
      </trkpt>
      <trkpt lat="38.23028" lon="-8.33383">
        <ele>16.208</ele>
        <time>2019-10-15T15:29:00Z</time>
      </trkpt>
      <trkpt lat="38.23064" lon="-8.33379">
        <ele>13.35</ele>
        <time>2019-10-15T15:29:20Z</time>
      </trkpt>
      <trkpt lat="38.23112" lon="-8.33379">
        <ele>13.388</ele>
        <time>2019-10-15T15:29:40Z</time>
      </trkpt>
      <trkpt lat="38.23132" lon="-8.33374">
        <ele>13.23</ele>
        <time>2019-10-15T15:30:00Z</time>
      </trkpt>
      <trkpt lat="38.23175" lon="-8.33361">
        <ele>13.71</ele>
        <time>2019-10-15T15:30:20Z</time>
      </trkpt>
      <trkpt lat="38.23274" lon="-8.3335">
        <ele>12.452</ele>
        <time>2019-10-15T15:30:40Z</time>
      </trkpt>
      <trkpt lat="38.23295" lon="-8.33351">
        <ele>13.363</ele>
        <time>2019-10-15T15:31:00Z</time>
      </trkpt>
      <trkpt lat="38.23336" lon="-8.33339">
        <ele>12.855</ele>
        <time>2019-10-15T15:31:20Z</time>
      </trkpt>
      <trkpt lat="38.23372" lon="-8.33322">
        <ele>11.415</ele>
        <time>2019-10-15T15:31:40Z</time>
      </trkpt>
      <trkpt lat="38.23379" lon="-8.33318">
        <ele>11.291</ele>
        <time>2019-10-15T15:32:00Z</time>
      </trkpt>
      <trkpt lat="38.23442" lon="-8.33295">
        <ele>11.881</ele>
        <time>2019-10-15T15:32:20Z</time>
      </trkpt>
      <trkpt lat="38.23451" lon="-8.33295">
        <ele>11.819</ele>
        <time>2019-10-15T15:32:40Z</time>
      </trkpt>
      <trkpt lat="38.2348" lon="-8.33291">
        <ele>12.008</ele>
        <time>2019-10-15T15:33:00Z</time>
      </trkpt>
      <trkpt lat="38.23563" lon="-8.3327">
        <ele>13.613</ele>
        <time>2019-10-15T15:33:20Z</time>
      </trkpt>
      <trkpt lat="38.23642" lon="-8.33247">
        <ele>15.791</ele>
        <time>2019-10-15T15:33:40Z</time>
      </trkpt>
      <trkpt lat="38.23772" lon="-8.3324">
        <ele>16.933</ele>
        <time>2019-10-15T15:34:00Z</time>
      </trkpt>
      <trkpt lat="38.23781" lon="-8.33241">
        <ele>17.223</ele>
        <time>2019-10-15T15:34:20Z</time>
      </trkpt>
      <trkpt lat="38.23836" lon="-8.33256">
        <ele>19.415</ele>
        <time>2019-10-15T15:34:40Z</time>
      </trkpt>
      <trkpt lat="38.23903" lon="-8.33244">
        <ele>17.836</ele>
        <time>2019-10-15T15:35:00Z</time>
      </trkpt>
      <trkpt lat="38.23918" lon="-8.33244">
        <ele>18.318</ele>
        <time>2019-10-15T15:35:20Z</time>
      </trkpt>
      <trkpt lat="38.23962" lon="-8.33258">
        <ele>17.578</ele>
        <time>2019-10-15T15:35:40Z</time>
      </trkpt>
      <trkpt lat="38.23975" lon="-8.33266">
        <ele>17.458</ele>
        <time>2019-10-15T15:36:00Z</time>
      </trkpt>
      <trkpt lat="38.23989" lon="-8.33271">
        <ele>16.452</ele>
        <time>2019-10-15T15:36:20Z</time>
      </trkpt>
      <trkpt lat="38.24004" lon="-8.33276">
        <ele>15.517</ele>
        <time>2019-10-15T15:36:40Z</time>
      </trkpt>
      <trkpt lat="38.2406" lon="-8.33295">
        <ele>13.708</ele>
        <time>2019-10-15T15:37:00Z</time>
      </trkpt>
      <trkpt lat="38.24068" lon="-8.33296">
        <ele>13.839</ele>
        <time>2019-10-15T15:37:20Z</time>
      </trkpt>
      <trkpt lat="38.2416" lon="-8.33316">
        <ele>12.567</ele>
        <time>2019-10-15T15:37:40Z</time>
      </trkpt>
      <trkpt lat="38.24215" lon="-8.33353">
        <ele>11.719</ele>
        <time>2019-10-15T15:38:00Z</time>
      </trkpt>
      <trkpt lat="38.24237" lon="-8.33378">
        <ele>13.099</ele>
        <time>2019-10-15T15:38:20Z</time>
      </trkpt>
      <trkpt lat="38.24334" lon="-8.33443">
        <ele>17.551</ele>
        <time>2019-10-15T15:38:40Z</time>
      </trkpt>
      <trkpt lat="38.24343" lon="-8.3345">
        <ele>17.112</ele>
        <time>2019-10-15T15:39:00Z</time>
      </trkpt>
      <trkpt lat="38.24399" lon="-8.33511">
        <ele>12.434</ele>
        <time>2019-10-15T15:39:20Z</time>
      </trkpt>
      <trkpt lat="38.24449" lon="-8.33582">
        <ele>10.744</ele>
        <time>2019-10-15T15:39:40Z</time>
      </trkpt>
      <trkpt lat="38.24459" lon="-8.33604">
        <ele>12.366</ele>
        <time>2019-10-15T15:40:00Z</time>
      </trkpt>
      <trkpt lat="38.24511" lon="-8.33711">
        <ele>14.829</ele>
        <time>2019-10-15T15:40:20Z</time>
      </trkpt>
      <trkpt lat="38.24556" lon="-8.33846">
        <ele>11.521</ele>
        <time>2019-10-15T15:40:40Z</time>
      </trkpt>
      <trkpt lat="38.24592" lon="-8.33964">
        <ele>11.408</ele>
        <time>2019-10-15T15:41:00Z</time>
      </trkpt>
      <trkpt lat="38.24601" lon="-8.33999">
        <ele>10.42</ele>
        <time>2019-10-15T15:41:20Z</time>
      </trkpt>
      <trkpt lat="38.24616" lon="-8.34047">
        <ele>8.098</ele>
        <time>2019-10-15T15:41:40Z</time>
      </trkpt>
      <trkpt lat="38.24632" lon="-8.34155">
        <ele>10.11</ele>
        <time>2019-10-15T15:42:00Z</time>
      </trkpt>
      <trkpt lat="38.24652" lon="-8.34321">
        <ele>10.64</ele>
        <time>2019-10-15T15:42:20Z</time>
      </trkpt>
      <trkpt lat="38.24691" lon="-8.34428">
        <ele>8.652</ele>
        <time>2019-10-15T15:42:40Z</time>
      </trkpt>
      <trkpt lat="38.24701" lon="-8.34553">
        <ele>7.713</ele>
        <time>2019-10-15T15:43:00Z</time>
      </trkpt>
      <trkpt lat="38.24694" lon="-8.34636">
        <ele>12.185</ele>
        <time>2019-10-15T15:43:20Z</time>
      </trkpt>
      <trkpt lat="38.24699" lon="-8.34709">
        <ele>11.625</ele>
        <time>2019-10-15T15:43:40Z</time>
      </trkpt>
      <trkpt lat="38.247" lon="-8.34742">
        <ele>11.634</ele>
        <time>2019-10-15T15:44:00Z</time>
      </trkpt>
      <trkpt lat="38.247" lon="-8.34808">
        <ele>10.555</ele>
        <time>2019-10-15T15:44:20Z</time>
      </trkpt>
      <trkpt lat="38.24684" lon="-8.34871">
        <ele>10.51</ele>
        <time>2019-10-15T15:44:40Z</time>
      </trkpt>
      <trkpt lat="38.24684" lon="-8.34904">
        <ele>10.508</ele>
        <time>2019-10-15T15:45:00Z</time>
      </trkpt>
      <trkpt lat="38.24685" lon="-8.3499">
        <ele>10.487</ele>
        <time>2019-10-15T15:45:20Z</time>
      </trkpt>
      <trkpt lat="38.24686" lon="-8.35003">
        <ele>10.795</ele>
        <time>2019-10-15T15:45:40Z</time>
      </trkpt>
      <trkpt lat="38.24687" lon="-8.35007">
        <ele>10.697</ele>
        <time>2019-10-15T15:46:00Z</time>
      </trkpt>
      <trkpt lat="38.24691" lon="-8.35012">
        <ele>10.347</ele>
        <time>2019-10-15T15:46:20Z</time>
      </trkpt>
      <trkpt lat="38.24699" lon="-8.35012">
        <ele>9.949</ele>
        <time>2019-10-15T15:46:40Z</time>
      </trkpt>
      <trkpt lat="38.24705" lon="-8.35014">
        <ele>9.89</ele>
        <time>2019-10-15T15:47:00Z</time>
      </trkpt>
      <trkpt lat="38.24705" lon="-8.35016">
        <ele>9.842</ele>
        <time>2019-10-15T15:47:20Z</time>
      </trkpt>
      <trkpt lat="38.24705" lon="-8.35019">
        <ele>9.922</ele>
        <time>2019-10-15T15:47:40Z</time>
      </trkpt>
      <trkpt lat="38.24704" lon="-8.35024">
        <ele>10.037</ele>
        <time>2019-10-15T15:48:00Z</time>
      </trkpt>
      <trkpt lat="38.24703" lon="-8.35031">
        <ele>10.149</ele>
        <time>2019-10-15T15:48:20Z</time>
      </trkpt>
      <trkpt lat="38.24705" lon="-8.35079">
        <ele>10.613</ele>
        <time>2019-10-15T15:48:40Z</time>
      </trkpt>
      <trkpt lat="38.24708" lon="-8.35207">
        <ele>11.708</ele>
        <time>2019-10-15T15:49:00Z</time>
      </trkpt>
      <trkpt lat="38.24709" lon="-8.35216">
        <ele>11.927</ele>
        <time>2019-10-15T15:49:20Z</time>
      </trkpt>
      <trkpt lat="38.24711" lon="-8.35225">
        <ele>12.065</ele>
        <time>2019-10-15T15:49:40Z</time>
      </trkpt>
      <trkpt lat="38.24733" lon="-8.35275">
        <ele>12.047</ele>
        <time>2019-10-15T15:50:00Z</time>
      </trkpt>
      <trkpt lat="38.24738" lon="-8.35283">
        <ele>12.077</ele>
        <time>2019-10-15T15:50:20Z</time>
      </trkpt>
      <trkpt lat="38.24741" lon="-8.35291">
        <ele>12.099</ele>
        <time>2019-10-15T15:50:40Z</time>
      </trkpt>
      <trkpt lat="38.24745" lon="-8.35299">
        <ele>12.02</ele>
        <time>2019-10-15T15:51:00Z</time>
      </trkpt>
      <trkpt lat="38.24747" lon="-8.35308">
        <ele>11.952</ele>
        <time>2019-10-15T15:51:20Z</time>
      </trkpt>
      <trkpt lat="38.24748" lon="-8.35316">
        <ele>11.782</ele>
        <time>2019-10-15T15:51:40Z</time>
      </trkpt>
      <trkpt lat="38.24747" lon="-8.35325">
        <ele>11.419</ele>
        <time>2019-10-15T15:52:00Z</time>
      </trkpt>
      <trkpt lat="38.24723" lon="-8.35407">
        <ele>12.009</ele>
        <time>2019-10-15T15:52:20Z</time>
      </trkpt>
      <trkpt lat="38.2472" lon="-8.35415">
        <ele>12.219</ele>
        <time>2019-10-15T15:52:40Z</time>
      </trkpt>
      <trkpt lat="38.24719" lon="-8.35423">
        <ele>12.208</ele>
        <time>2019-10-15T15:53:00Z</time>
      </trkpt>
      <trkpt lat="38.24717" lon="-8.3543">
        <ele>12.125</ele>
        <time>2019-10-15T15:53:20Z</time>
      </trkpt>
      <trkpt lat="38.24717" lon="-8.35438">
        <ele>12.053</ele>
        <time>2019-10-15T15:53:40Z</time>
      </trkpt>
      <trkpt lat="38.24718" lon="-8.35479">
        <ele>11.815</ele>
        <time>2019-10-15T15:54:00Z</time>
      </trkpt>
      <trkpt lat="38.24719" lon="-8.35488">
        <ele>11.625</ele>
        <time>2019-10-15T15:54:20Z</time>
      </trkpt>
      <trkpt lat="38.24721" lon="-8.35496">
        <ele>11.387</ele>
        <time>2019-10-15T15:54:40Z</time>
      </trkpt>
      <trkpt lat="38.24723" lon="-8.35504">
        <ele>10.828</ele>
        <time>2019-10-15T15:55:00Z</time>
      </trkpt>
      <trkpt lat="38.24726" lon="-8.35511">
        <ele>10.28</ele>
        <time>2019-10-15T15:55:20Z</time>
      </trkpt>
      <trkpt lat="38.2473" lon="-8.35517">
        <ele>9.79</ele>
        <time>2019-10-15T15:55:40Z</time>
      </trkpt>
      <trkpt lat="38.24733" lon="-8.35523">
        <ele>9.331</ele>
        <time>2019-10-15T15:56:00Z</time>
      </trkpt>
      <trkpt lat="38.24735" lon="-8.3553">
        <ele>9.161</ele>
        <time>2019-10-15T15:56:20Z</time>
      </trkpt>
      <trkpt lat="38.24735" lon="-8.35537">
        <ele>9.207</ele>
        <time>2019-10-15T15:56:40Z</time>
      </trkpt>
      <trkpt lat="38.24733" lon="-8.35552">
        <ele>9.808</ele>
        <time>2019-10-15T15:57:00Z</time>
      </trkpt>
      <trkpt lat="38.24731" lon="-8.3556">
        <ele>10.317</ele>
        <time>2019-10-15T15:57:20Z</time>
      </trkpt>
      <trkpt lat="38.24731" lon="-8.35568">
        <ele>10.895</ele>
        <time>2019-10-15T15:57:40Z</time>
      </trkpt>
      <trkpt lat="38.24739" lon="-8.3562">
        <ele>12.847</ele>
        <time>2019-10-15T15:58:00Z</time>
      </trkpt>
      <trkpt lat="38.24741" lon="-8.35628">
        <ele>12.717</ele>
        <time>2019-10-15T15:58:20Z</time>
      </trkpt>
      <trkpt lat="38.24743" lon="-8.35636">
        <ele>12.419</ele>
        <time>2019-10-15T15:58:40Z</time>
      </trkpt>
      <trkpt lat="38.2476" lon="-8.3567">
        <ele>11.86</ele>
        <time>2019-10-15T15:59:00Z</time>
      </trkpt>
      <trkpt lat="38.24802" lon="-8.35734">
        <ele>8.472</ele>
        <time>2019-10-15T15:59:20Z</time>
      </trkpt>
      <trkpt lat="38.24811" lon="-8.35755">
        <ele>8.032</ele>
        <time>2019-10-15T15:59:40Z</time>
      </trkpt>
      <trkpt lat="38.24812" lon="-8.35764">
        <ele>7.922</ele>
        <time>2019-10-15T16:00:00Z</time>
      </trkpt>
      <trkpt lat="38.2482" lon="-8.35801">
        <ele>8.362</ele>
        <time>2019-10-15T16:00:20Z</time>
      </trkpt>
      <trkpt lat="38.24829" lon="-8.35818">
        <ele>9.008</ele>
        <time>2019-10-15T16:00:40Z</time>
      </trkpt>
      <trkpt lat="38.2484" lon="-8.35841">
        <ele>9.808</ele>
        <time>2019-10-15T16:01:00Z</time>
      </trkpt>
      <trkpt lat="38.24852" lon="-8.35867">
        <ele>9.366</ele>
        <time>2019-10-15T16:01:20Z</time>
      </trkpt>
      <trkpt lat="38.24858" lon="-8.35879">
        <ele>9.014</ele>
        <time>2019-10-15T16:01:40Z</time>
      </trkpt>
      <trkpt lat="38.24864" lon="-8.3589">
        <ele>9.056</ele>
        <time>2019-10-15T16:02:00Z</time>
      </trkpt>
      <trkpt lat="38.24872" lon="-8.35899">
        <ele>8.636</ele>
        <time>2019-10-15T16:02:20Z</time>
      </trkpt>
      <trkpt lat="38.24881" lon="-8.35905">
        <ele>8.458</ele>
        <time>2019-10-15T16:02:40Z</time>
      </trkpt>
      <trkpt lat="38.24891" lon="-8.35907">
        <ele>8.349</ele>
        <time>2019-10-15T16:03:00Z</time>
      </trkpt>
      <trkpt lat="38.24903" lon="-8.35906">
        <ele>8.281</ele>
        <time>2019-10-15T16:03:20Z</time>
      </trkpt>
      <trkpt lat="38.24947" lon="-8.35894">
        <ele>6.941</ele>
        <time>2019-10-15T16:03:40Z</time>
      </trkpt>
      <trkpt lat="38.24978" lon="-8.35886">
        <ele>6.263</ele>
        <time>2019-10-15T16:04:00Z</time>
      </trkpt>
      <trkpt lat="38.25081" lon="-8.35857">
        <ele>7.744</ele>
        <time>2019-10-15T16:04:20Z</time>
      </trkpt>
      <trkpt lat="38.2509" lon="-8.35854">
        <ele>7.518</ele>
        <time>2019-10-15T16:04:40Z</time>
      </trkpt>
      <trkpt lat="38.25099" lon="-8.35852">
        <ele>7.508</ele>
        <time>2019-10-15T16:05:00Z</time>
      </trkpt>
      <trkpt lat="38.25107" lon="-8.35852">
        <ele>7.66</ele>
        <time>2019-10-15T16:05:20Z</time>
      </trkpt>
      <trkpt lat="38.25115" lon="-8.35857">
        <ele>8.098</ele>
        <time>2019-10-15T16:05:40Z</time>
      </trkpt>
      <trkpt lat="38.25128" lon="-8.35875">
        <ele>8.64</ele>
        <time>2019-10-15T16:06:00Z</time>
      </trkpt>
      <trkpt lat="38.25134" lon="-8.35886">
        <ele>8.86</ele>
        <time>2019-10-15T16:06:20Z</time>
      </trkpt>
      <trkpt lat="38.25141" lon="-8.35896">
        <ele>8.622</ele>
        <time>2019-10-15T16:06:40Z</time>
      </trkpt>
      <trkpt lat="38.25149" lon="-8.35904">
        <ele>7.863</ele>
        <time>2019-10-15T16:07:00Z</time>
      </trkpt>
      <trkpt lat="38.25158" lon="-8.35908">
        <ele>7.025</ele>
        <time>2019-10-15T16:07:20Z</time>
      </trkpt>
      <trkpt lat="38.25246" lon="-8.35903">
        <ele>6.765</ele>
        <time>2019-10-15T16:07:40Z</time>
      </trkpt>
      <trkpt lat="38.25322" lon="-8.35893">
        <ele>10.175</ele>
        <time>2019-10-15T16:08:00Z</time>
      </trkpt>
      <trkpt lat="38.25329" lon="-8.35891">
        <ele>10.728</ele>
        <time>2019-10-15T16:08:20Z</time>
      </trkpt>
      <trkpt lat="38.25335" lon="-8.35889">
        <ele>11.22</ele>
        <time>2019-10-15T16:08:40Z</time>
      </trkpt>
      <trkpt lat="38.2534" lon="-8.35886">
        <ele>12.008</ele>
        <time>2019-10-15T16:09:00Z</time>
      </trkpt>
      <trkpt lat="38.25344" lon="-8.3588">
        <ele>12.591</ele>
        <time>2019-10-15T16:09:20Z</time>
      </trkpt>
      <trkpt lat="38.25346" lon="-8.35872">
        <ele>12.889</ele>
        <time>2019-10-15T16:09:40Z</time>
      </trkpt>
      <trkpt lat="38.25346" lon="-8.35863">
        <ele>12.841</ele>
        <time>2019-10-15T16:10:00Z</time>
      </trkpt>
      <trkpt lat="38.25343" lon="-8.3584">
        <ele>12.421</ele>
        <time>2019-10-15T16:10:20Z</time>
      </trkpt>
      <trkpt lat="38.25341" lon="-8.35828">
        <ele>12.023</ele>
        <time>2019-10-15T16:10:40Z</time>
      </trkpt>
      <trkpt lat="38.25338" lon="-8.35817">
        <ele>11.624</ele>
        <time>2019-10-15T16:11:00Z</time>
      </trkpt>
      <trkpt lat="38.25338" lon="-8.35806">
        <ele>11.576</ele>
        <time>2019-10-15T16:11:20Z</time>
      </trkpt>
      <trkpt lat="38.25341" lon="-8.35797">
        <ele>12.276</ele>
        <time>2019-10-15T16:11:40Z</time>
      </trkpt>
      <trkpt lat="38.25348" lon="-8.35791">
        <ele>13.195</ele>
        <time>2019-10-15T16:12:00Z</time>
      </trkpt>
      <trkpt lat="38.25367" lon="-8.35784">
        <ele>15.549</ele>
        <time>2019-10-15T16:12:20Z</time>
      </trkpt>
      <trkpt lat="38.25393" lon="-8.35778">
        <ele>18.323</ele>
        <time>2019-10-15T16:12:40Z</time>
      </trkpt>
      <trkpt lat="38.25438" lon="-8.35765">
        <ele>20.708</ele>
        <time>2019-10-15T16:13:00Z</time>
      </trkpt>
      <trkpt lat="38.25473" lon="-8.35756">
        <ele>24.183</ele>
        <time>2019-10-15T16:13:20Z</time>
      </trkpt>
      <trkpt lat="38.25491" lon="-8.35752">
        <ele>26.761</ele>
        <time>2019-10-15T16:13:40Z</time>
      </trkpt>
      <trkpt lat="38.25549" lon="-8.35737">
        <ele>35.063</ele>
        <time>2019-10-15T16:14:00Z</time>
      </trkpt>
      <trkpt lat="38.2559" lon="-8.35726">
        <ele>38.353</ele>
        <time>2019-10-15T16:14:20Z</time>
      </trkpt>
      <trkpt lat="38.2563" lon="-8.35715">
        <ele>39.715</ele>
        <time>2019-10-15T16:14:40Z</time>
      </trkpt>
      <trkpt lat="38.2565" lon="-8.3571">
        <ele>41.066</ele>
        <time>2019-10-15T16:15:00Z</time>
      </trkpt>
      <trkpt lat="38.2569" lon="-8.357">
        <ele>43.988</ele>
        <time>2019-10-15T16:15:20Z</time>
      </trkpt>
      <trkpt lat="38.25709" lon="-8.35695">
        <ele>44.558</ele>
        <time>2019-10-15T16:15:40Z</time>
      </trkpt>
      <trkpt lat="38.25766" lon="-8.35679">
        <ele>47.761</ele>
        <time>2019-10-15T16:16:00Z</time>
      </trkpt>
      <trkpt lat="38.25783" lon="-8.35672">
        <ele>49.421</ele>
        <time>2019-10-15T16:16:20Z</time>
      </trkpt>
      <trkpt lat="38.25799" lon="-8.35662">
        <ele>50.713</ele>
        <time>2019-10-15T16:16:40Z</time>
      </trkpt>
      <trkpt lat="38.25815" lon="-8.3565">
        <ele>51.908</ele>
        <time>2019-10-15T16:17:00Z</time>
      </trkpt>
      <trkpt lat="38.25888" lon="-8.35573">
        <ele>53.04</ele>
        <time>2019-10-15T16:17:20Z</time>
      </trkpt>
      <trkpt lat="38.26015" lon="-8.3544">
        <ele>53.078</ele>
        <time>2019-10-15T16:17:40Z</time>
      </trkpt>
      <trkpt lat="38.26078" lon="-8.35374">
        <ele>53.16</ele>
        <time>2019-10-15T16:18:00Z</time>
      </trkpt>
      <trkpt lat="38.26089" lon="-8.35362">
        <ele>53.86</ele>
        <time>2019-10-15T16:18:20Z</time>
      </trkpt>
      <trkpt lat="38.26112" lon="-8.35337">
        <ele>53.942</ele>
        <time>2019-10-15T16:18:40Z</time>
      </trkpt>
      <trkpt lat="38.26133" lon="-8.35315">
        <ele>54.183</ele>
        <time>2019-10-15T16:19:00Z</time>
      </trkpt>
      <trkpt lat="38.26216" lon="-8.35227">
        <ele>56.395</ele>
        <time>2019-10-15T16:19:20Z</time>
      </trkpt>
      <trkpt lat="38.2623" lon="-8.3521">
        <ele>56.855</ele>
        <time>2019-10-15T16:19:40Z</time>
      </trkpt>
      <trkpt lat="38.26277" lon="-8.35136">
        <ele>55.265</ele>
        <time>2019-10-15T16:20:00Z</time>
      </trkpt>
      <trkpt lat="38.26334" lon="-8.3504">
        <ele>55.468</ele>
        <time>2019-10-15T16:20:20Z</time>
      </trkpt>
      <trkpt lat="38.26411" lon="-8.34908">
        <ele>54.514</ele>
        <time>2019-10-15T16:20:40Z</time>
      </trkpt>
      <trkpt lat="38.26431" lon="-8.34874">
        <ele>52.908</ele>
        <time>2019-10-15T16:21:00Z</time>
      </trkpt>
      <trkpt lat="38.26485" lon="-8.34782">
        <ele>53.08</ele>
        <time>2019-10-15T16:21:20Z</time>
      </trkpt>
      <trkpt lat="38.26522" lon="-8.34718">
        <ele>54.088</ele>
        <time>2019-10-15T16:21:40Z</time>
      </trkpt>
      <trkpt lat="38.26527" lon="-8.34707">
        <ele>54.02</ele>
        <time>2019-10-15T16:22:00Z</time>
      </trkpt>
      <trkpt lat="38.26533" lon="-8.34698">
        <ele>54.06</ele>
        <time>2019-10-15T16:22:20Z</time>
      </trkpt>
      <trkpt lat="38.26539" lon="-8.34691">
        <ele>53.942</ele>
        <time>2019-10-15T16:22:40Z</time>
      </trkpt>
      <trkpt lat="38.26545" lon="-8.34687">
        <ele>53.973</ele>
        <time>2019-10-15T16:23:00Z</time>
      </trkpt>
      <trkpt lat="38.26552" lon="-8.34688">
        <ele>54.095</ele>
        <time>2019-10-15T16:23:20Z</time>
      </trkpt>
      <trkpt lat="38.26558" lon="-8.34692">
        <ele>54.115</ele>
        <time>2019-10-15T16:23:40Z</time>
      </trkpt>
      <trkpt lat="38.26562" lon="-8.34699">
        <ele>54.224</ele>
        <time>2019-10-15T16:24:00Z</time>
      </trkpt>
      <trkpt lat="38.26583" lon="-8.34799">
        <ele>53.204</ele>
        <time>2019-10-15T16:24:20Z</time>
      </trkpt>
      <trkpt lat="38.26595" lon="-8.34858">
        <ele>53.214</ele>
        <time>2019-10-15T16:24:40Z</time>
      </trkpt>
      <trkpt lat="38.26606" lon="-8.34915">
        <ele>54.708</ele>
        <time>2019-10-15T16:25:00Z</time>
      </trkpt>
      <trkpt lat="38.26614" lon="-8.34953">
        <ele>54.466</ele>
        <time>2019-10-15T16:25:20Z</time>
      </trkpt>
      <trkpt lat="38.26625" lon="-8.35012">
        <ele>49.324</ele>
        <time>2019-10-15T16:25:40Z</time>
      </trkpt>
      <trkpt lat="38.26641" lon="-8.35095">
        <ele>40.686</ele>
        <time>2019-10-15T16:26:00Z</time>
      </trkpt>
      <trkpt lat="38.26654" lon="-8.35162">
        <ele>39.086</ele>
        <time>2019-10-15T16:26:20Z</time>
      </trkpt>
      <trkpt lat="38.26671" lon="-8.35249">
        <ele>35.588</ele>
        <time>2019-10-15T16:26:40Z</time>
      </trkpt>
      <trkpt lat="38.26687" lon="-8.35324">
        <ele>34.889</ele>
        <time>2019-10-15T16:27:00Z</time>
      </trkpt>
      <trkpt lat="38.26691" lon="-8.3534">
        <ele>35.011</ele>
        <time>2019-10-15T16:27:20Z</time>
      </trkpt>
      <trkpt lat="38.26714" lon="-8.35382">
        <ele>34.361</ele>
        <time>2019-10-15T16:27:40Z</time>
      </trkpt>
      <trkpt lat="38.26741" lon="-8.35422">
        <ele>33.965</ele>
        <time>2019-10-15T16:28:00Z</time>
      </trkpt>
      <trkpt lat="38.2676" lon="-8.35449">
        <ele>32.968</ele>
        <time>2019-10-15T16:28:20Z</time>
      </trkpt>
      <trkpt lat="38.26822" lon="-8.3554">
        <ele>31.314</ele>
        <time>2019-10-15T16:28:40Z</time>
      </trkpt>
      <trkpt lat="38.26855" lon="-8.35587">
        <ele>29.708</ele>
        <time>2019-10-15T16:29:00Z</time>
      </trkpt>
      <trkpt lat="38.26895" lon="-8.35646">
        <ele>28.29</ele>
        <time>2019-10-15T16:29:20Z</time>
      </trkpt>
      <trkpt lat="38.26928" lon="-8.35692">
        <ele>26.028</ele>
        <time>2019-10-15T16:29:40Z</time>
      </trkpt>
      <trkpt lat="38.26938" lon="-8.35715">
        <ele>22.54</ele>
        <time>2019-10-15T16:30:00Z</time>
      </trkpt>
      <trkpt lat="38.26938" lon="-8.35718">
        <ele>22.24</ele>
        <time>2019-10-15T16:30:20Z</time>
      </trkpt>
      <trkpt lat="38.26937" lon="-8.35716">
        <ele>22.662</ele>
        <time>2019-10-15T16:30:40Z</time>
      </trkpt>
      <trkpt lat="38.26936" lon="-8.35714">
        <ele>22.983</ele>
        <time>2019-10-15T16:31:00Z</time>
      </trkpt>
      <trkpt lat="38.26938" lon="-8.35719">
        <ele>22.045</ele>
        <time>2019-10-15T16:31:20Z</time>
      </trkpt>
      <trkpt lat="38.26955" lon="-8.35741">
        <ele>18.985</ele>
        <time>2019-10-15T16:31:40Z</time>
      </trkpt>
      <trkpt lat="38.26963" lon="-8.35751">
        <ele>17.771</ele>
        <time>2019-10-15T16:32:00Z</time>
      </trkpt>
      <trkpt lat="38.26971" lon="-8.35761">
        <ele>17.141</ele>
        <time>2019-10-15T16:32:20Z</time>
      </trkpt>
      <trkpt lat="38.27059" lon="-8.35812">
        <ele>11.415</ele>
        <time>2019-10-15T16:32:40Z</time>
      </trkpt>
      <trkpt lat="38.27083" lon="-8.35825">
        <ele>9.008</ele>
        <time>2019-10-15T16:33:00Z</time>
      </trkpt>
      <trkpt lat="38.27159" lon="-8.35866">
        <ele>6.171</ele>
        <time>2019-10-15T16:33:20Z</time>
      </trkpt>
      <trkpt lat="38.27167" lon="-8.3587">
        <ele>5.719</ele>
        <time>2019-10-15T16:33:40Z</time>
      </trkpt>
      <trkpt lat="38.27175" lon="-8.35874">
        <ele>6.381</ele>
        <time>2019-10-15T16:34:00Z</time>
      </trkpt>
      <trkpt lat="38.27181" lon="-8.35878">
        <ele>6.821</ele>
        <time>2019-10-15T16:34:20Z</time>
      </trkpt>
      <trkpt lat="38.27186" lon="-8.35884">
        <ele>7.153</ele>
        <time>2019-10-15T16:34:40Z</time>
      </trkpt>
      <trkpt lat="38.27189" lon="-8.35893">
        <ele>7.724</ele>
        <time>2019-10-15T16:35:00Z</time>
      </trkpt>
      <trkpt lat="38.27189" lon="-8.35936">
        <ele>10.916</ele>
        <time>2019-10-15T16:35:20Z</time>
      </trkpt>
      <trkpt lat="38.27184" lon="-8.36011">
        <ele>15.096</ele>
        <time>2019-10-15T16:35:40Z</time>
      </trkpt>
      <trkpt lat="38.27185" lon="-8.36174">
        <ele>15.458</ele>
        <time>2019-10-15T16:36:00Z</time>
      </trkpt>
      <trkpt lat="38.27204" lon="-8.36253">
        <ele>14.752</ele>
        <time>2019-10-15T16:36:20Z</time>
      </trkpt>
      <trkpt lat="38.27227" lon="-8.36332">
        <ele>16.317</ele>
        <time>2019-10-15T16:36:40Z</time>
      </trkpt>
      <trkpt lat="38.27287" lon="-8.36537">
        <ele>12.808</ele>
        <time>2019-10-15T16:37:00Z</time>
      </trkpt>
      <trkpt lat="38.27296" lon="-8.36569">
        <ele>13.489</ele>
        <time>2019-10-15T16:37:20Z</time>
      </trkpt>
      <trkpt lat="38.27328" lon="-8.36719">
        <ele>11.637</ele>
        <time>2019-10-15T16:37:40Z</time>
      </trkpt>
      <trkpt lat="38.27337" lon="-8.36802">
        <ele>9.399</ele>
        <time>2019-10-15T16:38:00Z</time>
      </trkpt>
      <trkpt lat="38.27346" lon="-8.36875">
        <ele>10.359</ele>
        <time>2019-10-15T16:38:20Z</time>
      </trkpt>
      <trkpt lat="38.27359" lon="-8.36997">
        <ele>10.931</ele>
        <time>2019-10-15T16:38:40Z</time>
      </trkpt>
      <trkpt lat="38.27366" lon="-8.3706">
        <ele>10.562</ele>
        <time>2019-10-15T16:39:00Z</time>
      </trkpt>
      <trkpt lat="38.27367" lon="-8.37065">
        <ele>10.464</ele>
        <time>2019-10-15T16:39:20Z</time>
      </trkpt>
      <trkpt lat="38.27366" lon="-8.3707">
        <ele>10.134</ele>
        <time>2019-10-15T16:39:40Z</time>
      </trkpt>
      <trkpt lat="38.2737" lon="-8.37104">
        <ele>9.764</ele>
        <time>2019-10-15T16:40:00Z</time>
      </trkpt>
      <trkpt lat="38.27376" lon="-8.3716">
        <ele>11.906</ele>
        <time>2019-10-15T16:40:20Z</time>
      </trkpt>
      <trkpt lat="38.27378" lon="-8.37177">
        <ele>12.616</ele>
        <time>2019-10-15T16:40:40Z</time>
      </trkpt>
      <trkpt lat="38.2738" lon="-8.37195">
        <ele>13.408</ele>
        <time>2019-10-15T16:41:00Z</time>
      </trkpt>
      <trkpt lat="38.27406" lon="-8.37431">
        <ele>20.98</ele>
        <time>2019-10-15T16:41:20Z</time>
      </trkpt>
      <trkpt lat="38.27409" lon="-8.37453">
        <ele>20.578</ele>
        <time>2019-10-15T16:41:40Z</time>
      </trkpt>
      <trkpt lat="38.27412" lon="-8.37475">
        <ele>20.22</ele>
        <time>2019-10-15T16:42:00Z</time>
      </trkpt>
      <trkpt lat="38.27417" lon="-8.37495">
        <ele>20.24</ele>
        <time>2019-10-15T16:42:20Z</time>
      </trkpt>
      <trkpt lat="38.27425" lon="-8.37514">
        <ele>17.892</ele>
        <time>2019-10-15T16:42:40Z</time>
      </trkpt>
      <trkpt lat="38.27436" lon="-8.3753">
        <ele>16.083</ele>
        <time>2019-10-15T16:43:00Z</time>
      </trkpt>
      <trkpt lat="38.27449" lon="-8.37543">
        <ele>14.435</ele>
        <time>2019-10-15T16:43:20Z</time>
      </trkpt>
      <trkpt lat="38.27481" lon="-8.37563">
        <ele>11.685</ele>
        <time>2019-10-15T16:43:40Z</time>
      </trkpt>
      <trkpt lat="38.27534" lon="-8.37593">
        <ele>11.033</ele>
        <time>2019-10-15T16:44:00Z</time>
      </trkpt>
      <trkpt lat="38.27551" lon="-8.37603">
        <ele>10.323</ele>
        <time>2019-10-15T16:44:20Z</time>
      </trkpt>
      <trkpt lat="38.27691" lon="-8.37688">
        <ele>14.715</ele>
        <time>2019-10-15T16:44:40Z</time>
      </trkpt>
      <trkpt lat="38.27745" lon="-8.37753">
        <ele>14.508</ele>
        <time>2019-10-15T16:45:00Z</time>
      </trkpt>
      <trkpt lat="38.27855" lon="-8.38002">
        <ele>13.237</ele>
        <time>2019-10-15T16:45:20Z</time>
      </trkpt>
      <trkpt lat="38.2788" lon="-8.38065">
        <ele>13.875</ele>
        <time>2019-10-15T16:45:40Z</time>
      </trkpt>
      <trkpt lat="38.27944" lon="-8.38073">
        <ele>23.347</ele>
        <time>2019-10-15T16:46:00Z</time>
      </trkpt>
      <trkpt lat="38.28508" lon="-8.37654">
        <ele>67.797</ele>
        <time>2019-10-15T16:46:20Z</time>
      </trkpt>
      <trkpt lat="38.28705" lon="-8.37499">
        <ele>72.189</ele>
        <time>2019-10-15T16:46:40Z</time>
      </trkpt>
      <trkpt lat="38.28759" lon="-8.37465">
        <ele>76.97</ele>
        <time>2019-10-15T16:47:00Z</time>
      </trkpt>
      <trkpt lat="38.28858" lon="-8.37381">
        <ele>85.742</ele>
        <time>2019-10-15T16:47:20Z</time>
      </trkpt>
      <trkpt lat="38.28944" lon="-8.37322">
        <ele>91.432</ele>
        <time>2019-10-15T16:47:40Z</time>
      </trkpt>
      <trkpt lat="38.29012" lon="-8.37263">
        <ele>93.413</ele>
        <time>2019-10-15T16:48:00Z</time>
      </trkpt>
      <trkpt lat="38.29029" lon="-8.37263">
        <ele>94.143</ele>
        <time>2019-10-15T16:48:20Z</time>
      </trkpt>
      <trkpt lat="38.29029" lon="-8.37277">
        <ele>94.107</ele>
        <time>2019-10-15T16:48:40Z</time>
      </trkpt>
      <trkpt lat="38.29031" lon="-8.37263">
        <ele>94.108</ele>
        <time>2019-10-15T16:49:00Z</time>
      </trkpt>
      <trkpt lat="38.29208" lon="-8.37051">
        <ele>101.465</ele>
        <time>2019-10-15T16:49:20Z</time>
      </trkpt>
      <trkpt lat="38.29347" lon="-8.36783">
        <ele>102.213</ele>
        <time>2019-10-15T16:49:40Z</time>
      </trkpt>
      <trkpt lat="38.29369" lon="-8.36722">
        <ele>102.285</ele>
        <time>2019-10-15T16:50:00Z</time>
      </trkpt>
      <trkpt lat="38.29394" lon="-8.36677">
        <ele>99.275</ele>
        <time>2019-10-15T16:50:20Z</time>
      </trkpt>
      <trkpt lat="38.29609" lon="-8.36455">
        <ele>96.547</ele>
        <time>2019-10-15T16:50:40Z</time>
      </trkpt>
      <trkpt lat="38.2972" lon="-8.36321">
        <ele>97.528</ele>
        <time>2019-10-15T16:51:00Z</time>
      </trkpt>
      <trkpt lat="38.29739" lon="-8.36245">
        <ele>97.13</ele>
        <time>2019-10-15T16:51:20Z</time>
      </trkpt>
      <trkpt lat="38.2978" lon="-8.35963">
        <ele>96.24</ele>
        <time>2019-10-15T16:51:40Z</time>
      </trkpt>
      <trkpt lat="38.2981" lon="-8.35926">
        <ele>96.727</ele>
        <time>2019-10-15T16:52:00Z</time>
      </trkpt>
      <trkpt lat="38.29916" lon="-8.35864">
        <ele>96.168</ele>
        <time>2019-10-15T16:52:20Z</time>
      </trkpt>
      <trkpt lat="38.30021" lon="-8.35783">
        <ele>97.614</ele>
        <time>2019-10-15T16:52:40Z</time>
      </trkpt>
      <trkpt lat="38.30071" lon="-8.3576">
        <ele>97.708</ele>
        <time>2019-10-15T16:53:00Z</time>
      </trkpt>
      <trkpt lat="38.30179" lon="-8.35671">
        <ele>96.896</ele>
        <time>2019-10-15T16:53:20Z</time>
      </trkpt>
      <trkpt lat="38.3033" lon="-8.35581">
        <ele>96.794</ele>
        <time>2019-10-15T16:53:40Z</time>
      </trkpt>
      <trkpt lat="38.30465" lon="-8.3557">
        <ele>97.366</ele>
        <time>2019-10-15T16:54:00Z</time>
      </trkpt>
      <trkpt lat="38.30536" lon="-8.35555">
        <ele>99.096</ele>
        <time>2019-10-15T16:54:20Z</time>
      </trkpt>
      <trkpt lat="38.30658" lon="-8.35611">
        <ele>98.398</ele>
        <time>2019-10-15T16:54:40Z</time>
      </trkpt>
      <trkpt lat="38.30738" lon="-8.3567">
        <ele>98.099</ele>
        <time>2019-10-15T16:55:00Z</time>
      </trkpt>
      <trkpt lat="38.30763" lon="-8.35676">
        <ele>98.061</ele>
        <time>2019-10-15T16:55:20Z</time>
      </trkpt>
      <trkpt lat="38.31061" lon="-8.35845">
        <ele>101.381</ele>
        <time>2019-10-15T16:55:40Z</time>
      </trkpt>
      <trkpt lat="38.31085" lon="-8.35847">
        <ele>100.945</ele>
        <time>2019-10-15T16:56:00Z</time>
      </trkpt>
      <trkpt lat="38.31274" lon="-8.35933">
        <ele>101.447</ele>
        <time>2019-10-15T16:56:20Z</time>
      </trkpt>
      <trkpt lat="38.31321" lon="-8.35965">
        <ele>102.011</ele>
        <time>2019-10-15T16:56:40Z</time>
      </trkpt>
      <trkpt lat="38.31358" lon="-8.35974">
        <ele>102.908</ele>
        <time>2019-10-15T16:57:00Z</time>
      </trkpt>
      <trkpt lat="38.316" lon="-8.36079">
        <ele>105.318</ele>
        <time>2019-10-15T16:57:20Z</time>
      </trkpt>
      <trkpt lat="38.31709" lon="-8.36141">
        <ele>103.516</ele>
        <time>2019-10-15T16:57:40Z</time>
      </trkpt>
      <trkpt lat="38.32647" lon="-8.36712">
        <ele>104.258</ele>
        <time>2019-10-15T16:58:00Z</time>
      </trkpt>
      <trkpt lat="38.3325" lon="-8.37342">
        <ele>106.018</ele>
        <time>2019-10-15T16:58:20Z</time>
      </trkpt>
      <trkpt lat="38.33246" lon="-8.37362">
        <ele>106.03</ele>
        <time>2019-10-15T16:58:40Z</time>
      </trkpt>
      <trkpt lat="38.33065" lon="-8.37731">
        <ele>105.621</ele>
        <time>2019-10-15T16:59:00Z</time>
      </trkpt>
      <trkpt lat="38.32887" lon="-8.38073">
        <ele>102.673</ele>
        <time>2019-10-15T16:59:20Z</time>
      </trkpt>
      <trkpt lat="38.32851" lon="-8.38154">
        <ele>103.383</ele>
        <time>2019-10-15T16:59:40Z</time>
      </trkpt>
      <trkpt lat="38.32849" lon="-8.38192">
        <ele>104.096</ele>
        <time>2019-10-15T17:00:00Z</time>
      </trkpt>
      <trkpt lat="38.32928" lon="-8.3834">
        <ele>102.931</ele>
        <time>2019-10-15T17:00:20Z</time>
      </trkpt>
      <trkpt lat="38.32952" lon="-8.38371">
        <ele>101.724</ele>
        <time>2019-10-15T17:00:40Z</time>
      </trkpt>
      <trkpt lat="38.3309" lon="-8.38641">
        <ele>101.108</ele>
        <time>2019-10-15T17:01:00Z</time>
      </trkpt>
      <trkpt lat="38.3316" lon="-8.38761">
        <ele>99.793</ele>
        <time>2019-10-15T17:01:20Z</time>
      </trkpt>
      <trkpt lat="38.3331" lon="-8.39103">
        <ele>97.891</ele>
        <time>2019-10-15T17:01:40Z</time>
      </trkpt>
      <trkpt lat="38.33383" lon="-8.39235">
        <ele>97.033</ele>
        <time>2019-10-15T17:02:00Z</time>
      </trkpt>
      <trkpt lat="38.33413" lon="-8.3933">
        <ele>96.993</ele>
        <time>2019-10-15T17:02:20Z</time>
      </trkpt>
      <trkpt lat="38.33459" lon="-8.394">
        <ele>92.035</ele>
        <time>2019-10-15T17:02:40Z</time>
      </trkpt>
      <trkpt lat="38.3348" lon="-8.39482">
        <ele>92.836</ele>
        <time>2019-10-15T17:03:00Z</time>
      </trkpt>
      <trkpt lat="38.33495" lon="-8.39589">
        <ele>91.948</ele>
        <time>2019-10-15T17:03:20Z</time>
      </trkpt>
      <trkpt lat="38.33527" lon="-8.39647">
        <ele>91.688</ele>
        <time>2019-10-15T17:03:40Z</time>
      </trkpt>
      <trkpt lat="38.33536" lon="-8.39709">
        <ele>85.837</ele>
        <time>2019-10-15T17:04:00Z</time>
      </trkpt>
      <trkpt lat="38.33525" lon="-8.39772">
        <ele>75.549</ele>
        <time>2019-10-15T17:04:20Z</time>
      </trkpt>
      <trkpt lat="38.33529" lon="-8.39845">
        <ele>69.213</ele>
        <time>2019-10-15T17:04:40Z</time>
      </trkpt>
      <trkpt lat="38.33555" lon="-8.39871">
        <ele>67.708</ele>
        <time>2019-10-15T17:05:00Z</time>
      </trkpt>
      <trkpt lat="38.33714" lon="-8.39907">
        <ele>72.797</ele>
        <time>2019-10-15T17:05:20Z</time>
      </trkpt>
      <trkpt lat="38.33739" lon="-8.39939">
        <ele>72.725</ele>
        <time>2019-10-15T17:05:40Z</time>
      </trkpt>
      <trkpt lat="38.3381" lon="-8.39984">
        <ele>79.737</ele>
        <time>2019-10-15T17:06:00Z</time>
      </trkpt>
      <trkpt lat="38.33864" lon="-8.39995">
        <ele>81.367</ele>
        <time>2019-10-15T17:06:20Z</time>
      </trkpt>
      <trkpt lat="38.33903" lon="-8.40012">
        <ele>82.529</ele>
        <time>2019-10-15T17:06:40Z</time>
      </trkpt>
      <trkpt lat="38.3393" lon="-8.40051">
        <ele>86.39</ele>
        <time>2019-10-15T17:07:00Z</time>
      </trkpt>
      <trkpt lat="38.33952" lon="-8.40098">
        <ele>87.952</ele>
        <time>2019-10-15T17:07:20Z</time>
      </trkpt>
      <trkpt lat="38.3399" lon="-8.40236">
        <ele>88.412</ele>
        <time>2019-10-15T17:07:40Z</time>
      </trkpt>
      <trkpt lat="38.34002" lon="-8.40326">
        <ele>87.935</ele>
        <time>2019-10-15T17:08:00Z</time>
      </trkpt>
      <trkpt lat="38.34006" lon="-8.40439">
        <ele>78.286</ele>
        <time>2019-10-15T17:08:20Z</time>
      </trkpt>
      <trkpt lat="38.34014" lon="-8.4048">
        <ele>74.814</ele>
        <time>2019-10-15T17:08:40Z</time>
      </trkpt>
      <trkpt lat="38.341" lon="-8.40639">
        <ele>59.808</ele>
        <time>2019-10-15T17:09:00Z</time>
      </trkpt>
      <trkpt lat="38.34186" lon="-8.40716">
        <ele>57.977</ele>
        <time>2019-10-15T17:09:20Z</time>
      </trkpt>
      <trkpt lat="38.34209" lon="-8.40654">
        <ele>56.825</ele>
        <time>2019-10-15T17:09:40Z</time>
      </trkpt>
      <trkpt lat="38.34246" lon="-8.40587">
        <ele>59.777</ele>
        <time>2019-10-15T17:10:00Z</time>
      </trkpt>
      <trkpt lat="38.34274" lon="-8.40514">
        <ele>59.947</ele>
        <time>2019-10-15T17:10:20Z</time>
      </trkpt>
      <trkpt lat="38.34415" lon="-8.40336">
        <ele>64.149</ele>
        <time>2019-10-15T17:10:40Z</time>
      </trkpt>
      <trkpt lat="38.34456" lon="-8.40298">
        <ele>64.41</ele>
        <time>2019-10-15T17:11:00Z</time>
      </trkpt>
      <trkpt lat="38.34506" lon="-8.40265">
        <ele>66.352</ele>
        <time>2019-10-15T17:11:20Z</time>
      </trkpt>
      <trkpt lat="38.34578" lon="-8.40158">
        <ele>65.962</ele>
        <time>2019-10-15T17:11:40Z</time>
      </trkpt>
      <trkpt lat="38.34595" lon="-8.40152">
        <ele>66.245</ele>
        <time>2019-10-15T17:12:00Z</time>
      </trkpt>
      <trkpt lat="38.34624" lon="-8.40124">
        <ele>66.547</ele>
        <time>2019-10-15T17:12:20Z</time>
      </trkpt>
      <trkpt lat="38.34632" lon="-8.40098">
        <ele>66.311</ele>
        <time>2019-10-15T17:12:40Z</time>
      </trkpt>
      <trkpt lat="38.34655" lon="-8.40081">
        <ele>66.508</ele>
        <time>2019-10-15T17:13:00Z</time>
      </trkpt>
      <trkpt lat="38.34752" lon="-8.39954">
        <ele>68.688</ele>
        <time>2019-10-15T17:13:20Z</time>
      </trkpt>
      <trkpt lat="38.34849" lon="-8.39872">
        <ele>70.676</ele>
        <time>2019-10-15T17:13:40Z</time>
      </trkpt>
      <trkpt lat="38.34976" lon="-8.39849">
        <ele>71.478</ele>
        <time>2019-10-15T17:14:00Z</time>
      </trkpt>
      <trkpt lat="38.35051" lon="-8.39854">
        <ele>71.518</ele>
        <time>2019-10-15T17:14:20Z</time>
      </trkpt>
      <trkpt lat="38.35134" lon="-8.39838">
        <ele>73.88</ele>
        <time>2019-10-15T17:14:40Z</time>
      </trkpt>
      <trkpt lat="38.3516" lon="-8.39808">
        <ele>74.971</ele>
        <time>2019-10-15T17:15:00Z</time>
      </trkpt>
      <trkpt lat="38.35173" lon="-8.39765">
        <ele>77.283</ele>
        <time>2019-10-15T17:15:20Z</time>
      </trkpt>
      <trkpt lat="38.35162" lon="-8.39661">
        <ele>82.043</ele>
        <time>2019-10-15T17:15:40Z</time>
      </trkpt>
      <trkpt lat="38.35167" lon="-8.39589">
        <ele>82.093</ele>
        <time>2019-10-15T17:16:00Z</time>
      </trkpt>
      <trkpt lat="38.3519" lon="-8.39498">
        <ele>86.765</ele>
        <time>2019-10-15T17:16:20Z</time>
      </trkpt>
      <trkpt lat="38.35258" lon="-8.39426">
        <ele>86.521</ele>
        <time>2019-10-15T17:16:40Z</time>
      </trkpt>
      <trkpt lat="38.35308" lon="-8.39352">
        <ele>77.508</ele>
        <time>2019-10-15T17:17:00Z</time>
      </trkpt>
      <trkpt lat="38.35332" lon="-8.39328">
        <ele>75.523</ele>
        <time>2019-10-15T17:17:20Z</time>
      </trkpt>
      <trkpt lat="38.35379" lon="-8.39304">
        <ele>80.351</ele>
        <time>2019-10-15T17:17:40Z</time>
      </trkpt>
      <trkpt lat="38.35417" lon="-8.39297">
        <ele>80.713</ele>
        <time>2019-10-15T17:18:00Z</time>
      </trkpt>
      <trkpt lat="38.35861" lon="-8.3945">
        <ele>95.463</ele>
        <time>2019-10-15T17:18:20Z</time>
      </trkpt>
      <trkpt lat="38.35984" lon="-8.39461">
        <ele>97.825</ele>
        <time>2019-10-15T17:18:40Z</time>
      </trkpt>
      <trkpt lat="38.36027" lon="-8.39473">
        <ele>99.186</ele>
        <time>2019-10-15T17:19:00Z</time>
      </trkpt>
      <trkpt lat="38.36967" lon="-8.39802">
        <ele>117.798</ele>
        <time>2019-10-15T17:19:20Z</time>
      </trkpt>
      <trkpt lat="38.37209" lon="-8.39924">
        <ele>120.548</ele>
        <time>2019-10-15T17:19:40Z</time>
      </trkpt>
      <trkpt lat="38.37237" lon="-8.39922">
        <ele>120.094</ele>
        <time>2019-10-15T17:20:00Z</time>
      </trkpt>
      <trkpt lat="38.37261" lon="-8.39879">
        <ele>119.457</ele>
        <time>2019-10-15T17:20:20Z</time>
      </trkpt>
      <trkpt lat="38.3731" lon="-8.39759">
        <ele>117.622</ele>
        <time>2019-10-15T17:20:40Z</time>
      </trkpt>
      <trkpt lat="38.37349" lon="-8.39684">
        <ele>115.008</ele>
        <time>2019-10-15T17:21:00Z</time>
      </trkpt>
      <trkpt lat="38.37398" lon="-8.39626">
        <ele>114.223</ele>
        <time>2019-10-15T17:21:20Z</time>
      </trkpt>
      <trkpt lat="38.37492" lon="-8.3958">
        <ele>116.421</ele>
        <time>2019-10-15T17:21:40Z</time>
      </trkpt>
      <trkpt lat="38.37527" lon="-8.39553">
        <ele>116.143</ele>
        <time>2019-10-15T17:22:00Z</time>
      </trkpt>
      <trkpt lat="38.37636" lon="-8.39347">
        <ele>110.893</ele>
        <time>2019-10-15T17:22:20Z</time>
      </trkpt>
      <trkpt lat="38.37679" lon="-8.39358">
        <ele>113.685</ele>
        <time>2019-10-15T17:22:40Z</time>
      </trkpt>
      <trkpt lat="38.37812" lon="-8.39342">
        <ele>114.716</ele>
        <time>2019-10-15T17:23:00Z</time>
      </trkpt>
      <trkpt lat="38.37993" lon="-8.39261">
        <ele>115.238</ele>
        <time>2019-10-15T17:23:20Z</time>
      </trkpt>
      <trkpt lat="38.3801" lon="-8.39261">
        <ele>115.368</ele>
        <time>2019-10-15T17:23:40Z</time>
      </trkpt>
      <trkpt lat="38.38029" lon="-8.39276">
        <ele>115.137</ele>
        <time>2019-10-15T17:24:00Z</time>
      </trkpt>
      <trkpt lat="38.38046" lon="-8.39276">
        <ele>116.349</ele>
        <time>2019-10-15T17:24:20Z</time>
      </trkpt>
      <trkpt lat="38.38065" lon="-8.39255">
        <ele>117.413</ele>
        <time>2019-10-15T17:24:40Z</time>
      </trkpt>
      <trkpt lat="38.38082" lon="-8.39184">
        <ele>118.008</ele>
        <time>2019-10-15T17:25:00Z</time>
      </trkpt>
      <trkpt lat="38.3808" lon="-8.39134">
        <ele>118.087</ele>
        <time>2019-10-15T17:25:20Z</time>
      </trkpt>
      <trkpt lat="38.38097" lon="-8.39126">
        <ele>118.075</ele>
        <time>2019-10-15T17:25:40Z</time>
      </trkpt>
      <trkpt lat="38.38087" lon="-8.39064">
        <ele>117.037</ele>
        <time>2019-10-15T17:26:00Z</time>
      </trkpt>
      <trkpt lat="38.38115" lon="-8.39008">
        <ele>117.027</ele>
        <time>2019-10-15T17:26:20Z</time>
      </trkpt>
      <trkpt lat="38.38231" lon="-8.38915">
        <ele>117.019</ele>
        <time>2019-10-15T17:26:40Z</time>
      </trkpt>
      <trkpt lat="38.38241" lon="-8.38929">
        <ele>117.12</ele>
        <time>2019-10-15T17:27:00Z</time>
      </trkpt>
      <trkpt lat="38.38265" lon="-8.39014">
        <ele>118.582</ele>
        <time>2019-10-15T17:27:20Z</time>
      </trkpt>
      <trkpt lat="38.38287" lon="-8.39059">
        <ele>119.132</ele>
        <time>2019-10-15T17:27:40Z</time>
      </trkpt>
      <trkpt lat="38.38304" lon="-8.39117">
        <ele>118.295</ele>
        <time>2019-10-15T17:28:00Z</time>
      </trkpt>
      <trkpt lat="38.38325" lon="-8.39122">
        <ele>117.049</ele>
        <time>2019-10-15T17:28:20Z</time>
      </trkpt>
      <trkpt lat="38.38499" lon="-8.39058">
        <ele>110.023</ele>
        <time>2019-10-15T17:28:40Z</time>
      </trkpt>
      <trkpt lat="38.3857" lon="-8.39014">
        <ele>99.208</ele>
        <time>2019-10-15T17:29:00Z</time>
      </trkpt>
      <trkpt lat="38.38705" lon="-8.38915">
        <ele>94.153</ele>
        <time>2019-10-15T17:29:20Z</time>
      </trkpt>
      <trkpt lat="38.38732" lon="-8.3894">
        <ele>92.171</ele>
        <time>2019-10-15T17:29:40Z</time>
      </trkpt>
      <trkpt lat="38.38795" lon="-8.38957">
        <ele>91.123</ele>
        <time>2019-10-15T17:30:00Z</time>
      </trkpt>
      <trkpt lat="38.38862" lon="-8.39019">
        <ele>87.993</ele>
        <time>2019-10-15T17:30:20Z</time>
      </trkpt>
      <trkpt lat="38.38893" lon="-8.3903">
        <ele>85.335</ele>
        <time>2019-10-15T17:30:40Z</time>
      </trkpt>
      <trkpt lat="38.38906" lon="-8.39025">
        <ele>84.426</ele>
        <time>2019-10-15T17:31:00Z</time>
      </trkpt>
      <trkpt lat="38.38924" lon="-8.38965">
        <ele>88.058</ele>
        <time>2019-10-15T17:31:20Z</time>
      </trkpt>
      <trkpt lat="38.38924" lon="-8.38922">
        <ele>88.048</ele>
        <time>2019-10-15T17:31:40Z</time>
      </trkpt>
      <trkpt lat="38.38902" lon="-8.38847">
        <ele>91.447</ele>
        <time>2019-10-15T17:32:00Z</time>
      </trkpt>
      <trkpt lat="38.38889" lon="-8.38744">
        <ele>95.429</ele>
        <time>2019-10-15T17:32:20Z</time>
      </trkpt>
      <trkpt lat="38.38902" lon="-8.38688">
        <ele>96.821</ele>
        <time>2019-10-15T17:32:40Z</time>
      </trkpt>
      <trkpt lat="38.3899" lon="-8.38439">
        <ele>100.908</ele>
        <time>2019-10-15T17:33:00Z</time>
      </trkpt>
      <trkpt lat="38.39001" lon="-8.38427">
        <ele>100.648</ele>
        <time>2019-10-15T17:33:20Z</time>
      </trkpt>
      <trkpt lat="38.3904" lon="-8.38478">
        <ele>101.166</ele>
        <time>2019-10-15T17:33:40Z</time>
      </trkpt>
      <trkpt lat="38.39102" lon="-8.38583">
        <ele>98.758</ele>
        <time>2019-10-15T17:34:00Z</time>
      </trkpt>
      <trkpt lat="38.39179" lon="-8.38697">
        <ele>99.028</ele>
        <time>2019-10-15T17:34:20Z</time>
      </trkpt>
      <trkpt lat="38.39235" lon="-8.38802">
        <ele>99.02</ele>
        <time>2019-10-15T17:34:40Z</time>
      </trkpt>
      <trkpt lat="38.39254" lon="-8.38828">
        <ele>99.391</ele>
        <time>2019-10-15T17:35:00Z</time>
      </trkpt>
      <trkpt lat="38.39269" lon="-8.38875">
        <ele>98.273</ele>
        <time>2019-10-15T17:35:20Z</time>
      </trkpt>
      <trkpt lat="38.39267" lon="-8.38895">
        <ele>97.593</ele>
        <time>2019-10-15T17:35:40Z</time>
      </trkpt>
      <trkpt lat="38.39235" lon="-8.38959">
        <ele>94.521</ele>
        <time>2019-10-15T17:36:00Z</time>
      </trkpt>
      <trkpt lat="38.39226" lon="-8.39025">
        <ele>92.041</ele>
        <time>2019-10-15T17:36:20Z</time>
      </trkpt>
      <trkpt lat="38.39233" lon="-8.391">
        <ele>87.305</ele>
        <time>2019-10-15T17:36:40Z</time>
      </trkpt>
      <trkpt lat="38.3925" lon="-8.39148">
        <ele>83.408</ele>
        <time>2019-10-15T17:37:00Z</time>
      </trkpt>
      <trkpt lat="38.39256" lon="-8.39214">
        <ele>80.536</ele>
        <time>2019-10-15T17:37:20Z</time>
      </trkpt>
      <trkpt lat="38.39247" lon="-8.39345">
        <ele>73.764</ele>
        <time>2019-10-15T17:37:40Z</time>
      </trkpt>
      <trkpt lat="38.39301" lon="-8.39373">
        <ele>77.316</ele>
        <time>2019-10-15T17:38:00Z</time>
      </trkpt>
      <trkpt lat="38.39312" lon="-8.39415">
        <ele>81.186</ele>
        <time>2019-10-15T17:38:20Z</time>
      </trkpt>
      <trkpt lat="38.39346" lon="-8.39476">
        <ele>83.298</ele>
        <time>2019-10-15T17:38:40Z</time>
      </trkpt>
      <trkpt lat="38.39417" lon="-8.39523">
        <ele>87.819</ele>
        <time>2019-10-15T17:39:00Z</time>
      </trkpt>
      <trkpt lat="38.39439" lon="-8.39525">
        <ele>89.421</ele>
        <time>2019-10-15T17:39:20Z</time>
      </trkpt>
      <trkpt lat="38.39462" lon="-8.39473">
        <ele>86.761</ele>
        <time>2019-10-15T17:39:40Z</time>
      </trkpt>
      <trkpt lat="38.39512" lon="-8.39428">
        <ele>84.728</ele>
        <time>2019-10-15T17:40:00Z</time>
      </trkpt>
      <trkpt lat="38.39627" lon="-8.39452">
        <ele>74.989</ele>
        <time>2019-10-15T17:40:20Z</time>
      </trkpt>
      <trkpt lat="38.39694" lon="-8.39456">
        <ele>67.917</ele>
        <time>2019-10-15T17:40:40Z</time>
      </trkpt>
      <trkpt lat="38.39748" lon="-8.39439">
        <ele>62.308</ele>
        <time>2019-10-15T17:41:00Z</time>
      </trkpt>
      <trkpt lat="38.39737" lon="-8.39403">
        <ele>63.626</ele>
        <time>2019-10-15T17:41:20Z</time>
      </trkpt>
      <trkpt lat="38.39666" lon="-8.39362">
        <ele>63.334</ele>
        <time>2019-10-15T17:41:40Z</time>
      </trkpt>
      <trkpt lat="38.39647" lon="-8.39336">
        <ele>63.176</ele>
        <time>2019-10-15T17:42:00Z</time>
      </trkpt>
      <trkpt lat="38.39657" lon="-8.39308">
        <ele>62.636</ele>
        <time>2019-10-15T17:42:20Z</time>
      </trkpt>
      <trkpt lat="38.3969" lon="-8.39293">
        <ele>65.998</ele>
        <time>2019-10-15T17:42:40Z</time>
      </trkpt>
      <trkpt lat="38.39752" lon="-8.39283">
        <ele>70.929</ele>
        <time>2019-10-15T17:43:00Z</time>
      </trkpt>
      <trkpt lat="38.39778" lon="-8.39268">
        <ele>71.611</ele>
        <time>2019-10-15T17:43:20Z</time>
      </trkpt>
      <trkpt lat="38.39859" lon="-8.39244">
        <ele>77.861</ele>
        <time>2019-10-15T17:43:40Z</time>
      </trkpt>
      <trkpt lat="38.39896" lon="-8.39223">
        <ele>78.769</ele>
        <time>2019-10-15T17:44:00Z</time>
      </trkpt>
      <trkpt lat="38.39915" lon="-8.39201">
        <ele>79.504</ele>
        <time>2019-10-15T17:44:20Z</time>
      </trkpt>
      <trkpt lat="38.39952" lon="-8.39126">
        <ele>87.824</ele>
        <time>2019-10-15T17:44:40Z</time>
      </trkpt>
      <trkpt lat="38.40012" lon="-8.39078">
        <ele>91.808</ele>
        <time>2019-10-15T17:45:00Z</time>
      </trkpt>
      <trkpt lat="38.40039" lon="-8.38993">
        <ele>100.16</ele>
        <time>2019-10-15T17:45:20Z</time>
      </trkpt>
      <trkpt lat="38.40056" lon="-8.38957">
        <ele>102.048</ele>
        <time>2019-10-15T17:45:40Z</time>
      </trkpt>
      <trkpt lat="38.40082" lon="-8.38937">
        <ele>100.02</ele>
        <time>2019-10-15T17:46:00Z</time>
      </trkpt>
      <trkpt lat="38.40164" lon="-8.38954">
        <ele>102.11</ele>
        <time>2019-10-15T17:46:20Z</time>
      </trkpt>
      <trkpt lat="38.40252" lon="-8.38937">
        <ele>104.542</ele>
        <time>2019-10-15T17:46:40Z</time>
      </trkpt>
      <trkpt lat="38.40333" lon="-8.38913">
        <ele>103.943</ele>
        <time>2019-10-15T17:47:00Z</time>
      </trkpt>
      <trkpt lat="38.40368" lon="-8.38892">
        <ele>103.635</ele>
        <time>2019-10-15T17:47:20Z</time>
      </trkpt>
      <trkpt lat="38.40385" lon="-8.38856">
        <ele>103.885</ele>
        <time>2019-10-15T17:47:40Z</time>
      </trkpt>
      <trkpt lat="38.40378" lon="-8.38819">
        <ele>103.126</ele>
        <time>2019-10-15T17:48:00Z</time>
      </trkpt>
      <trkpt lat="38.40378" lon="-8.38767">
        <ele>101.847</ele>
        <time>2019-10-15T17:48:20Z</time>
      </trkpt>
      <trkpt lat="38.40397" lon="-8.38703">
        <ele>102.911</ele>
        <time>2019-10-15T17:48:40Z</time>
      </trkpt>
      <trkpt lat="38.40436" lon="-8.38643">
        <ele>106.608</ele>
        <time>2019-10-15T17:49:00Z</time>
      </trkpt>
      <trkpt lat="38.40471" lon="-8.38495">
        <ele>104.146</ele>
        <time>2019-10-15T17:49:20Z</time>
      </trkpt>
      <trkpt lat="38.40511" lon="-8.38418">
        <ele>105.994</ele>
        <time>2019-10-15T17:49:40Z</time>
      </trkpt>
      <trkpt lat="38.40535" lon="-8.38401">
        <ele>106.316</ele>
        <time>2019-10-15T17:50:00Z</time>
      </trkpt>
      <trkpt lat="38.40589" lon="-8.38379">
        <ele>107.226</ele>
        <time>2019-10-15T17:50:20Z</time>
      </trkpt>
      <trkpt lat="38.40647" lon="-8.38388">
        <ele>109.048</ele>
        <time>2019-10-15T17:50:40Z</time>
      </trkpt>
      <trkpt lat="38.40686" lon="-8.38418">
        <ele>109.749</ele>
        <time>2019-10-15T17:51:00Z</time>
      </trkpt>
      <trkpt lat="38.40715" lon="-8.38465">
        <ele>111.021</ele>
        <time>2019-10-15T17:51:20Z</time>
      </trkpt>
      <trkpt lat="38.40754" lon="-8.38474">
        <ele>109.721</ele>
        <time>2019-10-15T17:51:40Z</time>
      </trkpt>
      <trkpt lat="38.40831" lon="-8.38458">
        <ele>105.663</ele>
        <time>2019-10-15T17:52:00Z</time>
      </trkpt>
      <trkpt lat="38.40915" lon="-8.385">
        <ele>103.044</ele>
        <time>2019-10-15T17:52:20Z</time>
      </trkpt>
      <trkpt lat="38.40965" lon="-8.38548">
        <ele>100.918</ele>
        <time>2019-10-15T17:52:40Z</time>
      </trkpt>
      <trkpt lat="38.41097" lon="-8.38648">
        <ele>95.008</ele>
        <time>2019-10-15T17:53:00Z</time>
      </trkpt>
      <trkpt lat="38.41215" lon="-8.38688">
        <ele>91.03</ele>
        <time>2019-10-15T17:53:20Z</time>
      </trkpt>
      <trkpt lat="38.41316" lon="-8.38735">
        <ele>87.558</ele>
        <time>2019-10-15T17:53:40Z</time>
      </trkpt>
      <trkpt lat="38.41381" lon="-8.38817">
        <ele>87.82</ele>
        <time>2019-10-15T17:54:00Z</time>
      </trkpt>
      <trkpt lat="38.41424" lon="-8.38895">
        <ele>84.48</ele>
        <time>2019-10-15T17:54:20Z</time>
      </trkpt>
      <trkpt lat="38.41542" lon="-8.38993">
        <ele>78.582</ele>
        <time>2019-10-15T17:54:40Z</time>
      </trkpt>
      <trkpt lat="38.41559" lon="-8.39023">
        <ele>76.983</ele>
        <time>2019-10-15T17:55:00Z</time>
      </trkpt>
      <trkpt lat="38.41567" lon="-8.39061">
        <ele>76.375</ele>
        <time>2019-10-15T17:55:20Z</time>
      </trkpt>
      <trkpt lat="38.41544" lon="-8.39105">
        <ele>76.775</ele>
        <time>2019-10-15T17:55:40Z</time>
      </trkpt>
      <trkpt lat="38.41525" lon="-8.39126">
        <ele>74.734</ele>
        <time>2019-10-15T17:56:00Z</time>
      </trkpt>
      <trkpt lat="38.41529" lon="-8.39158">
        <ele>75.055</ele>
        <time>2019-10-15T17:56:20Z</time>
      </trkpt>
      <trkpt lat="38.4158" lon="-8.39199">
        <ele>70.51</ele>
        <time>2019-10-15T17:56:40Z</time>
      </trkpt>
      <trkpt lat="38.4164" lon="-8.39233">
        <ele>66.408</ele>
        <time>2019-10-15T17:57:00Z</time>
      </trkpt>
      <trkpt lat="38.41662" lon="-8.39235">
        <ele>66.517</ele>
        <time>2019-10-15T17:57:20Z</time>
      </trkpt>
      <trkpt lat="38.41689" lon="-8.39227">
        <ele>62.725</ele>
        <time>2019-10-15T17:57:40Z</time>
      </trkpt>
      <trkpt lat="38.41715" lon="-8.39203">
        <ele>53.687</ele>
        <time>2019-10-15T17:58:00Z</time>
      </trkpt>
      <trkpt lat="38.41895" lon="-8.39193">
        <ele>49.027</ele>
        <time>2019-10-15T17:58:20Z</time>
      </trkpt>
      <trkpt lat="38.41986" lon="-8.39212">
        <ele>59.859</ele>
        <time>2019-10-15T17:58:40Z</time>
      </trkpt>
      <trkpt lat="38.42029" lon="-8.39201">
        <ele>56.22</ele>
        <time>2019-10-15T17:59:00Z</time>
      </trkpt>
      <trkpt lat="38.42073" lon="-8.39227">
        <ele>58.482</ele>
        <time>2019-10-15T17:59:20Z</time>
      </trkpt>
      <trkpt lat="38.42056" lon="-8.39263">
        <ele>64.362</ele>
        <time>2019-10-15T17:59:40Z</time>
      </trkpt>
      <trkpt lat="38.42027" lon="-8.39285">
        <ele>69.065</ele>
        <time>2019-10-15T18:00:00Z</time>
      </trkpt>
      <trkpt lat="38.41994" lon="-8.39289">
        <ele>69.068</ele>
        <time>2019-10-15T18:00:20Z</time>
      </trkpt>
      <trkpt lat="38.41992" lon="-8.39283">
        <ele>68.614</ele>
        <time>2019-10-15T18:00:40Z</time>
      </trkpt>
      <trkpt lat="38.42007" lon="-8.39297">
        <ele>69.508</ele>
        <time>2019-10-15T18:01:00Z</time>
      </trkpt>
      <trkpt lat="38.42027" lon="-8.39345">
        <ele>70.05</ele>
        <time>2019-10-15T18:01:20Z</time>
      </trkpt>
      <trkpt lat="38.42039" lon="-8.39362">
        <ele>69.198</ele>
        <time>2019-10-15T18:01:40Z</time>
      </trkpt>
      <trkpt lat="38.42056" lon="-8.39375">
        <ele>67.59</ele>
        <time>2019-10-15T18:02:00Z</time>
      </trkpt>
      <trkpt lat="38.42102" lon="-8.39388">
        <ele>66.06</ele>
        <time>2019-10-15T18:02:20Z</time>
      </trkpt>
      <trkpt lat="38.42135" lon="-8.39377">
        <ele>65.182</ele>
        <time>2019-10-15T18:02:40Z</time>
      </trkpt>
      <trkpt lat="38.42234" lon="-8.39375">
        <ele>64.363</ele>
        <time>2019-10-15T18:03:00Z</time>
      </trkpt>
      <trkpt lat="38.42273" lon="-8.39383">
        <ele>63.075</ele>
        <time>2019-10-15T18:03:20Z</time>
      </trkpt>
      <trkpt lat="38.42294" lon="-8.39445">
        <ele>64.765</ele>
        <time>2019-10-15T18:03:40Z</time>
      </trkpt>
      <trkpt lat="38.42299" lon="-8.39484">
        <ele>62.937</ele>
        <time>2019-10-15T18:04:00Z</time>
      </trkpt>
      <trkpt lat="38.42265" lon="-8.39515">
        <ele>58.049</ele>
        <time>2019-10-15T18:04:20Z</time>
      </trkpt>
      <trkpt lat="38.42215" lon="-8.39534">
        <ele>57.313</ele>
        <time>2019-10-15T18:04:40Z</time>
      </trkpt>
      <trkpt lat="38.42191" lon="-8.39566">
        <ele>55.208</ele>
        <time>2019-10-15T18:05:00Z</time>
      </trkpt>
      <trkpt lat="38.422" lon="-8.39616">
        <ele>52.137</ele>
        <time>2019-10-15T18:05:20Z</time>
      </trkpt>
      <trkpt lat="38.42228" lon="-8.39647">
        <ele>51.125</ele>
        <time>2019-10-15T18:05:40Z</time>
      </trkpt>
      <trkpt lat="38.42228" lon="-8.39658">
        <ele>49.977</ele>
        <time>2019-10-15T18:06:00Z</time>
      </trkpt>
      <trkpt lat="38.42198" lon="-8.39692">
        <ele>46.487</ele>
        <time>2019-10-15T18:06:20Z</time>
      </trkpt>
      <trkpt lat="38.42162" lon="-8.39708">
        <ele>43.969</ele>
        <time>2019-10-15T18:06:40Z</time>
      </trkpt>
      <trkpt lat="38.42143" lon="-8.39754">
        <ele>43.73</ele>
        <time>2019-10-15T18:07:00Z</time>
      </trkpt>
      <trkpt lat="38.42145" lon="-8.39796">
        <ele>41.832</ele>
        <time>2019-10-15T18:07:20Z</time>
      </trkpt>
      <trkpt lat="38.42129" lon="-8.39871">
        <ele>41.082</ele>
        <time>2019-10-15T18:07:40Z</time>
      </trkpt>
      <trkpt lat="38.42078" lon="-8.39954">
        <ele>39.438</ele>
        <time>2019-10-15T18:08:00Z</time>
      </trkpt>
      <trkpt lat="38.42073" lon="-8.40048">
        <ele>35.67</ele>
        <time>2019-10-15T18:08:20Z</time>
      </trkpt>
      <trkpt lat="38.42104" lon="-8.40152">
        <ele>33.317</ele>
        <time>2019-10-15T18:08:40Z</time>
      </trkpt>
      <trkpt lat="38.42119" lon="-8.40261">
        <ele>26.108</ele>
        <time>2019-10-15T18:09:00Z</time>
      </trkpt>
      <trkpt lat="38.42112" lon="-8.40454">
        <ele>16.647</ele>
        <time>2019-10-15T18:09:20Z</time>
      </trkpt>
      <trkpt lat="38.42162" lon="-8.40544">
        <ele>16.155</ele>
        <time>2019-10-15T18:09:40Z</time>
      </trkpt>
      <trkpt lat="38.42213" lon="-8.40594">
        <ele>15.567</ele>
        <time>2019-10-15T18:10:00Z</time>
      </trkpt>
      <trkpt lat="38.42269" lon="-8.40623">
        <ele>14.127</ele>
        <time>2019-10-15T18:10:20Z</time>
      </trkpt>
      <trkpt lat="38.42374" lon="-8.40877">
        <ele>15.759</ele>
        <time>2019-10-15T18:10:40Z</time>
      </trkpt>
      <trkpt lat="38.42425" lon="-8.40923">
        <ele>17.14</ele>
        <time>2019-10-15T18:11:00Z</time>
      </trkpt>
      <trkpt lat="38.42474" lon="-8.4092">
        <ele>19.992</ele>
        <time>2019-10-15T18:11:20Z</time>
      </trkpt>
      <trkpt lat="38.42489" lon="-8.40888">
        <ele>20.862</ele>
        <time>2019-10-15T18:11:40Z</time>
      </trkpt>
      <trkpt lat="38.42506" lon="-8.40847">
        <ele>21.515</ele>
        <time>2019-10-15T18:12:00Z</time>
      </trkpt>
      <trkpt lat="38.42531" lon="-8.40818">
        <ele>22.165</ele>
        <time>2019-10-15T18:12:20Z</time>
      </trkpt>
      <trkpt lat="38.42561" lon="-8.40802">
        <ele>23.211</ele>
        <time>2019-10-15T18:12:40Z</time>
      </trkpt>
      <trkpt lat="38.42638" lon="-8.408">
        <ele>29.708</ele>
        <time>2019-10-15T18:13:00Z</time>
      </trkpt>
      <trkpt lat="38.42713" lon="-8.4083">
        <ele>36.035</ele>
        <time>2019-10-15T18:13:20Z</time>
      </trkpt>
      <trkpt lat="38.42837" lon="-8.40806">
        <ele>34.373</ele>
        <time>2019-10-15T18:13:40Z</time>
      </trkpt>
      <trkpt lat="38.42947" lon="-8.40769">
        <ele>34.585</ele>
        <time>2019-10-15T18:14:00Z</time>
      </trkpt>
      <trkpt lat="38.43093" lon="-8.40634">
        <ele>34.955</ele>
        <time>2019-10-15T18:14:20Z</time>
      </trkpt>
      <trkpt lat="38.43651" lon="-8.40083">
        <ele>37.057</ele>
        <time>2019-10-15T18:14:40Z</time>
      </trkpt>
      <trkpt lat="38.4367" lon="-8.40057">
        <ele>38.878</ele>
        <time>2019-10-15T18:15:00Z</time>
      </trkpt>
      <trkpt lat="38.43704" lon="-8.39954">
        <ele>34.49</ele>
        <time>2019-10-15T18:15:20Z</time>
      </trkpt>
      <trkpt lat="38.43747" lon="-8.39871">
        <ele>36.05</ele>
        <time>2019-10-15T18:15:40Z</time>
      </trkpt>
      <trkpt lat="38.43767" lon="-8.39804">
        <ele>38.522</ele>
        <time>2019-10-15T18:16:00Z</time>
      </trkpt>
      <trkpt lat="38.43773" lon="-8.39701">
        <ele>39.962</ele>
        <time>2019-10-15T18:16:20Z</time>
      </trkpt>
      <trkpt lat="38.43839" lon="-8.39598">
        <ele>38.408</ele>
        <time>2019-10-15T18:16:40Z</time>
      </trkpt>
      <trkpt lat="38.43925" lon="-8.39532">
        <ele>35.408</ele>
        <time>2019-10-15T18:17:00Z</time>
      </trkpt>
      <trkpt lat="38.44101" lon="-8.39435">
        <ele>36.016</ele>
        <time>2019-10-15T18:17:20Z</time>
      </trkpt>
      <trkpt lat="38.44303" lon="-8.3939">
        <ele>31.084</ele>
        <time>2019-10-15T18:17:40Z</time>
      </trkpt>
      <trkpt lat="38.44367" lon="-8.39362">
        <ele>31.276</ele>
        <time>2019-10-15T18:18:00Z</time>
      </trkpt>
      <trkpt lat="38.44551" lon="-8.39356">
        <ele>35.816</ele>
        <time>2019-10-15T18:18:20Z</time>
      </trkpt>
      <trkpt lat="38.44677" lon="-8.39273">
        <ele>36.458</ele>
        <time>2019-10-15T18:18:40Z</time>
      </trkpt>
      <trkpt lat="38.4478" lon="-8.39195">
        <ele>42.049</ele>
        <time>2019-10-15T18:19:00Z</time>
      </trkpt>
      <trkpt lat="38.44813" lon="-8.39173">
        <ele>42.641</ele>
        <time>2019-10-15T18:19:20Z</time>
      </trkpt>
      <trkpt lat="38.44848" lon="-8.39149">
        <ele>42.331</ele>
        <time>2019-10-15T18:19:40Z</time>
      </trkpt>
      <trkpt lat="38.449" lon="-8.39114">
        <ele>44.352</ele>
        <time>2019-10-15T18:20:00Z</time>
      </trkpt>
      <trkpt lat="38.44916" lon="-8.39102">
        <ele>45.053</ele>
        <time>2019-10-15T18:20:20Z</time>
      </trkpt>
      <trkpt lat="38.44925" lon="-8.39096">
        <ele>45.608</ele>
        <time>2019-10-15T18:20:40Z</time>
      </trkpt>
      <trkpt lat="38.44932" lon="-8.39092">
        <ele>46.108</ele>
        <time>2019-10-15T18:21:00Z</time>
      </trkpt>
      <trkpt lat="38.44934" lon="-8.39073">
        <ele>46.039</ele>
        <time>2019-10-15T18:21:20Z</time>
      </trkpt>
      <trkpt lat="38.4496" lon="-8.39058">
        <ele>47.287</ele>
        <time>2019-10-15T18:21:40Z</time>
      </trkpt>
      <trkpt lat="38.44968" lon="-8.39066">
        <ele>48.149</ele>
        <time>2019-10-15T18:22:00Z</time>
      </trkpt>
      <trkpt lat="38.45" lon="-8.3904">
        <ele>48.449</ele>
        <time>2019-10-15T18:22:20Z</time>
      </trkpt>
      <trkpt lat="38.45051" lon="-8.39003">
        <ele>50.831</ele>
        <time>2019-10-15T18:22:40Z</time>
      </trkpt>
      <trkpt lat="38.4512" lon="-8.38935">
        <ele>52.182</ele>
        <time>2019-10-15T18:23:00Z</time>
      </trkpt>
      <trkpt lat="38.45205" lon="-8.38834">
        <ele>58.854</ele>
        <time>2019-10-15T18:23:20Z</time>
      </trkpt>
      <trkpt lat="38.45269" lon="-8.3874">
        <ele>57.454</ele>
        <time>2019-10-15T18:23:40Z</time>
      </trkpt>
      <trkpt lat="38.45304" lon="-8.38678">
        <ele>59.369</ele>
        <time>2019-10-15T18:24:00Z</time>
      </trkpt>
      <trkpt lat="38.45325" lon="-8.38633">
        <ele>60.904</ele>
        <time>2019-10-15T18:24:20Z</time>
      </trkpt>
      <trkpt lat="38.45342" lon="-8.38595">
        <ele>60.024</ele>
        <time>2019-10-15T18:24:40Z</time>
      </trkpt>
      <trkpt lat="38.45361" lon="-8.3855">
        <ele>62.708</ele>
        <time>2019-10-15T18:25:00Z</time>
      </trkpt>
      <trkpt lat="38.45372" lon="-8.38524">
        <ele>66.56</ele>
        <time>2019-10-15T18:25:20Z</time>
      </trkpt>
      <trkpt lat="38.45374" lon="-8.38518">
        <ele>67.388</ele>
        <time>2019-10-15T18:25:40Z</time>
      </trkpt>
      <trkpt lat="38.45376" lon="-8.38511">
        <ele>68.18</ele>
        <time>2019-10-15T18:26:00Z</time>
      </trkpt>
      <trkpt lat="38.4539" lon="-8.38482">
        <ele>71.57</ele>
        <time>2019-10-15T18:26:20Z</time>
      </trkpt>
      <trkpt lat="38.45412" lon="-8.38433">
        <ele>75.392</ele>
        <time>2019-10-15T18:26:40Z</time>
      </trkpt>
      <trkpt lat="38.45448" lon="-8.38351">
        <ele>74.943</ele>
        <time>2019-10-15T18:27:00Z</time>
      </trkpt>
      <trkpt lat="38.455" lon="-8.38227">
        <ele>76.715</ele>
        <time>2019-10-15T18:27:20Z</time>
      </trkpt>
      <trkpt lat="38.45545" lon="-8.38131">
        <ele>81.035</ele>
        <time>2019-10-15T18:27:40Z</time>
      </trkpt>
      <trkpt lat="38.45598" lon="-8.38059">
        <ele>83.285</ele>
        <time>2019-10-15T18:28:00Z</time>
      </trkpt>
      <trkpt lat="38.45683" lon="-8.37977">
        <ele>84.489</ele>
        <time>2019-10-15T18:28:20Z</time>
      </trkpt>
      <trkpt lat="38.45853" lon="-8.37816">
        <ele>94.617</ele>
        <time>2019-10-15T18:28:40Z</time>
      </trkpt>
      <trkpt lat="38.45982" lon="-8.37694">
        <ele>97.308</ele>
        <time>2019-10-15T18:29:00Z</time>
      </trkpt>
      <trkpt lat="38.46099" lon="-8.37582">
        <ele>101.712</ele>
        <time>2019-10-15T18:29:20Z</time>
      </trkpt>
      <trkpt lat="38.46252" lon="-8.37437">
        <ele>109.07</ele>
        <time>2019-10-15T18:29:40Z</time>
      </trkpt>
      <trkpt lat="38.46405" lon="-8.3729">
        <ele>113.372</ele>
        <time>2019-10-15T18:30:00Z</time>
      </trkpt>
      <trkpt lat="38.46538" lon="-8.37165">
        <ele>120.662</ele>
        <time>2019-10-15T18:30:20Z</time>
      </trkpt>
      <trkpt lat="38.46601" lon="-8.37125">
        <ele>120.554</ele>
        <time>2019-10-15T18:30:40Z</time>
      </trkpt>
      <trkpt lat="38.46671" lon="-8.37107">
        <ele>125.375</ele>
        <time>2019-10-15T18:31:00Z</time>
      </trkpt>
      <trkpt lat="38.46743" lon="-8.37111">
        <ele>128.097</ele>
        <time>2019-10-15T18:31:20Z</time>
      </trkpt>
      <trkpt lat="38.46875" lon="-8.37136">
        <ele>130.317</ele>
        <time>2019-10-15T18:31:40Z</time>
      </trkpt>
      <trkpt lat="38.4696" lon="-8.37153">
        <ele>139.011</ele>
        <time>2019-10-15T18:32:00Z</time>
      </trkpt>
      <trkpt lat="38.47071" lon="-8.3717">
        <ele>131.921</ele>
        <time>2019-10-15T18:32:20Z</time>
      </trkpt>
      <trkpt lat="38.4711" lon="-8.37177">
        <ele>132.203</ele>
        <time>2019-10-15T18:32:40Z</time>
      </trkpt>
      <trkpt lat="38.47127" lon="-8.37182">
        <ele>131.608</ele>
        <time>2019-10-15T18:33:00Z</time>
      </trkpt>
      <trkpt lat="38.47144" lon="-8.37201">
        <ele>130.725</ele>
        <time>2019-10-15T18:33:20Z</time>
      </trkpt>
      <trkpt lat="38.47147" lon="-8.37221">
        <ele>130.723</ele>
        <time>2019-10-15T18:33:40Z</time>
      </trkpt>
      <trkpt lat="38.47155" lon="-8.37295">
        <ele>131.445</ele>
        <time>2019-10-15T18:34:00Z</time>
      </trkpt>
      <trkpt lat="38.47178" lon="-8.37345">
        <ele>128.645</ele>
        <time>2019-10-15T18:34:20Z</time>
      </trkpt>
      <trkpt lat="38.4721" lon="-8.37371">
        <ele>127.847</ele>
        <time>2019-10-15T18:34:40Z</time>
      </trkpt>
      <trkpt lat="38.47224" lon="-8.37376">
        <ele>127.658</ele>
        <time>2019-10-15T18:35:00Z</time>
      </trkpt>
      <trkpt lat="38.47284" lon="-8.37396">
        <ele>130.36</ele>
        <time>2019-10-15T18:35:20Z</time>
      </trkpt>
      <trkpt lat="38.47326" lon="-8.37431">
        <ele>132.47</ele>
        <time>2019-10-15T18:35:40Z</time>
      </trkpt>
      <trkpt lat="38.47348" lon="-8.37472">
        <ele>133.439</ele>
        <time>2019-10-15T18:36:00Z</time>
      </trkpt>
      <trkpt lat="38.4736" lon="-8.37524">
        <ele>133.901</ele>
        <time>2019-10-15T18:36:20Z</time>
      </trkpt>
      <trkpt lat="38.47359" lon="-8.37566">
        <ele>132.821</ele>
        <time>2019-10-15T18:36:40Z</time>
      </trkpt>
      <trkpt lat="38.47346" lon="-8.37675">
        <ele>129.108</ele>
        <time>2019-10-15T18:37:00Z</time>
      </trkpt>
      <trkpt lat="38.47354" lon="-8.3775">
        <ele>128.547</ele>
        <time>2019-10-15T18:37:20Z</time>
      </trkpt>
      <trkpt lat="38.47379" lon="-8.378">
        <ele>130.415</ele>
        <time>2019-10-15T18:37:40Z</time>
      </trkpt>
      <trkpt lat="38.47406" lon="-8.3783">
        <ele>132.857</ele>
        <time>2019-10-15T18:38:00Z</time>
      </trkpt>
      <trkpt lat="38.47437" lon="-8.37848">
        <ele>133.287</ele>
        <time>2019-10-15T18:38:20Z</time>
      </trkpt>
      <trkpt lat="38.47446" lon="-8.37851">
        <ele>133.389</ele>
        <time>2019-10-15T18:38:40Z</time>
      </trkpt>
      <trkpt lat="38.47513" lon="-8.37865">
        <ele>134.26</ele>
        <time>2019-10-15T18:39:00Z</time>
      </trkpt>
      <trkpt lat="38.47559" lon="-8.379">
        <ele>136.222</ele>
        <time>2019-10-15T18:39:20Z</time>
      </trkpt>
      <trkpt lat="38.4758" lon="-8.37929">
        <ele>135.132</ele>
        <time>2019-10-15T18:39:40Z</time>
      </trkpt>
      <trkpt lat="38.47664" lon="-8.38058">
        <ele>136.856</ele>
        <time>2019-10-15T18:40:00Z</time>
      </trkpt>
      <trkpt lat="38.47691" lon="-8.38087">
        <ele>136.859</ele>
        <time>2019-10-15T18:40:20Z</time>
      </trkpt>
      <trkpt lat="38.47774" lon="-8.3814">
        <ele>136.314</ele>
        <time>2019-10-15T18:40:40Z</time>
      </trkpt>
      <trkpt lat="38.47836" lon="-8.38179">
        <ele>138.908</ele>
        <time>2019-10-15T18:41:00Z</time>
      </trkpt>
      <trkpt lat="38.47849" lon="-8.38189">
        <ele>139.739</ele>
        <time>2019-10-15T18:41:20Z</time>
      </trkpt>
      <trkpt lat="38.47909" lon="-8.38265">
        <ele>139.857</ele>
        <time>2019-10-15T18:41:40Z</time>
      </trkpt>
      <trkpt lat="38.4797" lon="-8.38358">
        <ele>136.339</ele>
        <time>2019-10-15T18:42:00Z</time>
      </trkpt>
      <trkpt lat="38.47981" lon="-8.38373">
        <ele>136.379</ele>
        <time>2019-10-15T18:42:20Z</time>
      </trkpt>
      <trkpt lat="38.48037" lon="-8.38409">
        <ele>136.391</ele>
        <time>2019-10-15T18:42:40Z</time>
      </trkpt>
      <trkpt lat="38.48066" lon="-8.38414">
        <ele>135.022</ele>
        <time>2019-10-15T18:43:00Z</time>
      </trkpt>
      <trkpt lat="38.48121" lon="-8.38412">
        <ele>136.844</ele>
        <time>2019-10-15T18:43:20Z</time>
      </trkpt>
      <trkpt lat="38.48159" lon="-8.3841">
        <ele>136.774</ele>
        <time>2019-10-15T18:43:40Z</time>
      </trkpt>
      <trkpt lat="38.48226" lon="-8.38405">
        <ele>136.977</ele>
        <time>2019-10-15T18:44:00Z</time>
      </trkpt>
      <trkpt lat="38.48341" lon="-8.38399">
        <ele>137.761</ele>
        <time>2019-10-15T18:44:20Z</time>
      </trkpt>
      <trkpt lat="38.48389" lon="-8.38399">
        <ele>135.427</ele>
        <time>2019-10-15T18:44:40Z</time>
      </trkpt>
      <trkpt lat="38.48468" lon="-8.38427">
        <ele>135.708</ele>
        <time>2019-10-15T18:45:00Z</time>
      </trkpt>
      <trkpt lat="38.48559" lon="-8.38466">
        <ele>130.761</ele>
        <time>2019-10-15T18:45:20Z</time>
      </trkpt>
      <trkpt lat="38.48588" lon="-8.38477">
        <ele>130.439</ele>
        <time>2019-10-15T18:45:40Z</time>
      </trkpt>
      <trkpt lat="38.48641" lon="-8.38473">
        <ele>132.011</ele>
        <time>2019-10-15T18:46:00Z</time>
      </trkpt>
      <trkpt lat="38.48677" lon="-8.38442">
        <ele>130.331</ele>
        <time>2019-10-15T18:46:20Z</time>
      </trkpt>
      <trkpt lat="38.48753" lon="-8.3834">
        <ele>132.043</ele>
        <time>2019-10-15T18:46:40Z</time>
      </trkpt>
      <trkpt lat="38.48854" lon="-8.38204">
        <ele>135.044</ele>
        <time>2019-10-15T18:47:00Z</time>
      </trkpt>
      <trkpt lat="38.48896" lon="-8.3816">
        <ele>131.756</ele>
        <time>2019-10-15T18:47:20Z</time>
      </trkpt>
      <trkpt lat="38.48962" lon="-8.38125">
        <ele>133.136</ele>
        <time>2019-10-15T18:47:40Z</time>
      </trkpt>
      <trkpt lat="38.49082" lon="-8.38085">
        <ele>136.047</ele>
        <time>2019-10-15T18:48:00Z</time>
      </trkpt>
      <trkpt lat="38.49193" lon="-8.38047">
        <ele>132.129</ele>
        <time>2019-10-15T18:48:20Z</time>
      </trkpt>
      <trkpt lat="38.49242" lon="-8.38038">
        <ele>133.021</ele>
        <time>2019-10-15T18:48:40Z</time>
      </trkpt>
      <trkpt lat="38.49297" lon="-8.38055">
        <ele>136.708</ele>
        <time>2019-10-15T18:49:00Z</time>
      </trkpt>
      <trkpt lat="38.49336" lon="-8.38081">
        <ele>136.148</ele>
        <time>2019-10-15T18:49:20Z</time>
      </trkpt>
      <trkpt lat="38.49345" lon="-8.38088">
        <ele>136.496</ele>
        <time>2019-10-15T18:49:40Z</time>
      </trkpt>
      <trkpt lat="38.49345" lon="-8.38088">
        <ele>136.338</ele>
        <time>2019-10-15T18:50:00Z</time>
      </trkpt>
      <trkpt lat="38.49335" lon="-8.38082">
        <ele>136.188</ele>
        <time>2019-10-15T18:50:20Z</time>
      </trkpt>
      <trkpt lat="38.49321" lon="-8.38074">
        <ele>136.14</ele>
        <time>2019-10-15T18:50:40Z</time>
      </trkpt>
      <trkpt lat="38.49292" lon="-8.38056">
        <ele>136.551</ele>
        <time>2019-10-15T18:51:00Z</time>
      </trkpt>
      <trkpt lat="38.49279" lon="-8.38049">
        <ele>135.853</ele>
        <time>2019-10-15T18:51:20Z</time>
      </trkpt>
      <trkpt lat="38.49278" lon="-8.38049">
        <ele>135.883</ele>
        <time>2019-10-15T18:51:40Z</time>
      </trkpt>
      <trkpt lat="38.49287" lon="-8.38049">
        <ele>136.077</ele>
        <time>2019-10-15T18:52:00Z</time>
      </trkpt>
      <trkpt lat="38.49287" lon="-8.38049">
        <ele>136.061</ele>
        <time>2019-10-15T18:52:20Z</time>
      </trkpt>
      <trkpt lat="38.49287" lon="-8.38049">
        <ele>136.027</ele>
        <time>2019-10-15T18:52:40Z</time>
      </trkpt>
      <trkpt lat="38.493" lon="-8.38063">
        <ele>136.508</ele>
        <time>2019-10-15T18:53:00Z</time>
      </trkpt>
      <trkpt lat="38.49351" lon="-8.38097">
        <ele>136.351</ele>
        <time>2019-10-15T18:53:20Z</time>
      </trkpt>
      <trkpt lat="38.49422" lon="-8.38143">
        <ele>132.239</ele>
        <time>2019-10-15T18:53:40Z</time>
      </trkpt>
      <trkpt lat="38.49533" lon="-8.38221">
        <ele>133.211</ele>
        <time>2019-10-15T18:54:00Z</time>
      </trkpt>
      <trkpt lat="38.49588" lon="-8.38288">
        <ele>130.621</ele>
        <time>2019-10-15T18:54:20Z</time>
      </trkpt>
      <trkpt lat="38.49656" lon="-8.38396">
        <ele>130.143</ele>
        <time>2019-10-15T18:54:40Z</time>
      </trkpt>
      <trkpt lat="38.498" lon="-8.3862">
        <ele>128.284</ele>
        <time>2019-10-15T18:55:00Z</time>
      </trkpt>
      <trkpt lat="38.4991" lon="-8.38792">
        <ele>116.736</ele>
        <time>2019-10-15T18:55:20Z</time>
      </trkpt>
      <trkpt lat="38.49961" lon="-8.38868">
        <ele>108.046</ele>
        <time>2019-10-15T18:55:40Z</time>
      </trkpt>
      <trkpt lat="38.50025" lon="-8.38926">
        <ele>102.534</ele>
        <time>2019-10-15T18:56:00Z</time>
      </trkpt>
      <trkpt lat="38.50123" lon="-8.38989">
        <ele>99.855</ele>
        <time>2019-10-15T18:56:20Z</time>
      </trkpt>
      <trkpt lat="38.50297" lon="-8.39096">
        <ele>100.11</ele>
        <time>2019-10-15T18:56:40Z</time>
      </trkpt>
      <trkpt lat="38.50432" lon="-8.39169">
        <ele>99.308</ele>
        <time>2019-10-15T18:57:00Z</time>
      </trkpt>
      <trkpt lat="38.50513" lon="-8.3919">
        <ele>100.247</ele>
        <time>2019-10-15T18:57:20Z</time>
      </trkpt>
      <trkpt lat="38.50594" lon="-8.3919">
        <ele>100.145</ele>
        <time>2019-10-15T18:57:40Z</time>
      </trkpt>
      <trkpt lat="38.50778" lon="-8.39174">
        <ele>101.817</ele>
        <time>2019-10-15T18:58:00Z</time>
      </trkpt>
      <trkpt lat="38.50912" lon="-8.39164">
        <ele>103.087</ele>
        <time>2019-10-15T18:58:20Z</time>
      </trkpt>
      <trkpt lat="38.50989" lon="-8.39177">
        <ele>102.519</ele>
        <time>2019-10-15T18:58:40Z</time>
      </trkpt>
      <trkpt lat="38.51082" lon="-8.39218">
        <ele>105.47</ele>
        <time>2019-10-15T18:59:00Z</time>
      </trkpt>
      <trkpt lat="38.51146" lon="-8.39247">
        <ele>106.272</ele>
        <time>2019-10-15T18:59:20Z</time>
      </trkpt>
      <trkpt lat="38.51762" lon="-8.39146">
        <ele>122.652</ele>
        <time>2019-10-15T18:59:40Z</time>
      </trkpt>
      <trkpt lat="38.52086" lon="-8.39079">
        <ele>132.255</ele>
        <time>2019-10-15T19:00:00Z</time>
      </trkpt>
      <trkpt lat="38.52652" lon="-8.38779">
        <ele>152.107</ele>
        <time>2019-10-15T19:00:20Z</time>
      </trkpt>
      <trkpt lat="38.52948" lon="-8.38796">
        <ele>165.117</ele>
        <time>2019-10-15T19:00:40Z</time>
      </trkpt>
      <trkpt lat="38.53258" lon="-8.38446">
        <ele>169.708</ele>
        <time>2019-10-15T19:01:00Z</time>
      </trkpt>
      <trkpt lat="38.53474" lon="-8.38413">
        <ele>175.969</ele>
        <time>2019-10-15T19:01:20Z</time>
      </trkpt>
      <trkpt lat="38.53635" lon="-8.38046">
        <ele>181.367</ele>
        <time>2019-10-15T19:01:40Z</time>
      </trkpt>
      <trkpt lat="38.53905" lon="-8.37996">
        <ele>187.849</ele>
        <time>2019-10-15T19:02:00Z</time>
      </trkpt>
      <trkpt lat="38.54107" lon="-8.3773">
        <ele>192.459</ele>
        <time>2019-10-15T19:02:20Z</time>
      </trkpt>
      <trkpt lat="38.5408" lon="-8.37197">
        <ele>200.661</ele>
        <time>2019-10-15T19:02:40Z</time>
      </trkpt>
      <trkpt lat="38.53959" lon="-8.3678">
        <ele>200.032</ele>
        <time>2019-10-15T19:03:00Z</time>
      </trkpt>
      <trkpt lat="38.53797" lon="-8.36647">
        <ele>198.814</ele>
        <time>2019-10-15T19:03:20Z</time>
      </trkpt>
      <trkpt lat="38.54013" lon="-8.3633">
        <ele>186.124</ele>
        <time>2019-10-15T19:03:40Z</time>
      </trkpt>
      <trkpt lat="38.54282" lon="-8.35597">
        <ele>206.831</ele>
        <time>2019-10-15T19:04:00Z</time>
      </trkpt>
      <trkpt lat="38.54161" lon="-8.34714">
        <ele>198.961</ele>
        <time>2019-10-15T19:04:20Z</time>
      </trkpt>
      <trkpt lat="38.54889" lon="-8.33882">
        <ele>191.307</ele>
        <time>2019-10-15T19:04:40Z</time>
      </trkpt>
      <trkpt lat="38.55347" lon="-8.34081">
        <ele>209.508</ele>
        <time>2019-10-15T19:05:00Z</time>
      </trkpt>
      <trkpt lat="38.56962" lon="-8.34112">
        <ele>210.637</ele>
        <time>2019-10-15T19:05:20Z</time>
      </trkpt>
      <trkpt lat="38.56955" lon="-8.33624">
        <ele>212.055</ele>
        <time>2019-10-15T19:05:40Z</time>
      </trkpt>
      <trkpt lat="38.56959" lon="-8.33618">
        <ele>212.097</ele>
        <time>2019-10-15T19:06:00Z</time>
      </trkpt>
      <trkpt lat="38.5709" lon="-8.33532">
        <ele>214.137</ele>
        <time>2019-10-15T19:06:20Z</time>
      </trkpt>
      <trkpt lat="38.57156" lon="-8.33474">
        <ele>217.299</ele>
        <time>2019-10-15T19:06:40Z</time>
      </trkpt>
      <trkpt lat="38.57265" lon="-8.33276">
        <ele>213.46</ele>
        <time>2019-10-15T19:07:00Z</time>
      </trkpt>
      <trkpt lat="38.57334" lon="-8.33197">
        <ele>211.952</ele>
        <time>2019-10-15T19:07:20Z</time>
      </trkpt>
      <trkpt lat="38.57377" lon="-8.33103">
        <ele>208.042</ele>
        <time>2019-10-15T19:07:40Z</time>
      </trkpt>
      <trkpt lat="38.57517" lon="-8.32729">
        <ele>203.571</ele>
        <time>2019-10-15T19:08:00Z</time>
      </trkpt>
      <trkpt lat="38.57753" lon="-8.32403">
        <ele>192.041</ele>
        <time>2019-10-15T19:08:20Z</time>
      </trkpt>
      <trkpt lat="38.5778" lon="-8.32378">
        <ele>190.115</ele>
        <time>2019-10-15T19:08:40Z</time>
      </trkpt>
      <trkpt lat="38.57819" lon="-8.32361">
        <ele>189.008</ele>
        <time>2019-10-15T19:09:00Z</time>
      </trkpt>
      <trkpt lat="38.57819" lon="-8.32288">
        <ele>191.321</ele>
        <time>2019-10-15T19:09:20Z</time>
      </trkpt>
      <trkpt lat="38.57807" lon="-8.32246">
        <ele>190.139</ele>
        <time>2019-10-15T19:09:40Z</time>
      </trkpt>
      <trkpt lat="38.57798" lon="-8.32182">
        <ele>190.441</ele>
        <time>2019-10-15T19:10:00Z</time>
      </trkpt>
      <trkpt lat="38.5792" lon="-8.31781">
        <ele>211.061</ele>
        <time>2019-10-15T19:10:20Z</time>
      </trkpt>
      <trkpt lat="38.57946" lon="-8.3173">
        <ele>212.993</ele>
        <time>2019-10-15T19:10:40Z</time>
      </trkpt>
      <trkpt lat="38.57942" lon="-8.31659">
        <ele>211.454</ele>
        <time>2019-10-15T19:11:00Z</time>
      </trkpt>
      <trkpt lat="38.57946" lon="-8.31598">
        <ele>209.786</ele>
        <time>2019-10-15T19:11:20Z</time>
      </trkpt>
      <trkpt lat="38.58068" lon="-8.31242">
        <ele>215.176</ele>
        <time>2019-10-15T19:11:40Z</time>
      </trkpt>
      <trkpt lat="38.58098" lon="-8.3112">
        <ele>219.874</ele>
        <time>2019-10-15T19:12:00Z</time>
      </trkpt>
      <trkpt lat="38.5816" lon="-8.30955">
        <ele>223.956</ele>
        <time>2019-10-15T19:12:20Z</time>
      </trkpt>
      <trkpt lat="38.58197" lon="-8.3088">
        <ele>223.021</ele>
        <time>2019-10-15T19:12:40Z</time>
      </trkpt>
      <trkpt lat="38.58234" lon="-8.30847">
        <ele>223.108</ele>
        <time>2019-10-15T19:13:00Z</time>
      </trkpt>
      <trkpt lat="38.5831" lon="-8.30753">
        <ele>219.881</ele>
        <time>2019-10-15T19:13:20Z</time>
      </trkpt>
      <trkpt lat="38.58379" lon="-8.30609">
        <ele>221.499</ele>
        <time>2019-10-15T19:13:40Z</time>
      </trkpt>
      <trkpt lat="38.58444" lon="-8.30491">
        <ele>225.331</ele>
        <time>2019-10-15T19:14:00Z</time>
      </trkpt>
      <trkpt lat="38.5851" lon="-8.3042">
        <ele>227.441</ele>
        <time>2019-10-15T19:14:20Z</time>
      </trkpt>
      <trkpt lat="38.58572" lon="-8.30279">
        <ele>223.753</ele>
        <time>2019-10-15T19:14:40Z</time>
      </trkpt>
      <trkpt lat="38.58603" lon="-8.30195">
        <ele>224.474</ele>
        <time>2019-10-15T19:15:00Z</time>
      </trkpt>
      <trkpt lat="38.5865" lon="-8.30131">
        <ele>225.856</ele>
        <time>2019-10-15T19:15:20Z</time>
      </trkpt>
      <trkpt lat="38.58837" lon="-8.30025">
        <ele>227.596</ele>
        <time>2019-10-15T19:15:40Z</time>
      </trkpt>
      <trkpt lat="38.58843" lon="-8.29989">
        <ele>230.388</ele>
        <time>2019-10-15T19:16:00Z</time>
      </trkpt>
      <trkpt lat="38.58798" lon="-8.2988">
        <ele>234.824</ele>
        <time>2019-10-15T19:16:20Z</time>
      </trkpt>
      <trkpt lat="38.58585" lon="-8.2943">
        <ele>238.026</ele>
        <time>2019-10-15T19:16:40Z</time>
      </trkpt>
      <trkpt lat="38.58558" lon="-8.29414">
        <ele>238.908</ele>
        <time>2019-10-15T19:17:00Z</time>
      </trkpt>
      <trkpt lat="38.58493" lon="-8.29459">
        <ele>237.162</ele>
        <time>2019-10-15T19:17:20Z</time>
      </trkpt>
      <trkpt lat="38.58499" lon="-8.2944">
        <ele>237.08</ele>
        <time>2019-10-15T19:17:40Z</time>
      </trkpt>
      <trkpt lat="38.58624" lon="-8.29348">
        <ele>237.572</ele>
        <time>2019-10-15T19:18:00Z</time>
      </trkpt>
      <trkpt lat="38.58714" lon="-8.29221">
        <ele>240.762</ele>
        <time>2019-10-15T19:18:20Z</time>
      </trkpt>
      <trkpt lat="38.58755" lon="-8.2911">
        <ele>240.054</ele>
        <time>2019-10-15T19:18:40Z</time>
      </trkpt>
      <trkpt lat="38.58911" lon="-8.28646">
        <ele>247.965</ele>
        <time>2019-10-15T19:19:00Z</time>
      </trkpt>
      <trkpt lat="38.5889" lon="-8.28622">
        <ele>244.917</ele>
        <time>2019-10-15T19:19:20Z</time>
      </trkpt>
      <trkpt lat="38.58388" lon="-8.28715">
        <ele>233.797</ele>
        <time>2019-10-15T19:19:40Z</time>
      </trkpt>
      <trkpt lat="38.58373" lon="-8.28699">
        <ele>232.757</ele>
        <time>2019-10-15T19:20:00Z</time>
      </trkpt>
      <trkpt lat="38.58334" lon="-8.28449">
        <ele>235.5</ele>
        <time>2019-10-15T19:20:20Z</time>
      </trkpt>
      <trkpt lat="38.5832" lon="-8.28404">
        <ele>237.22</ele>
        <time>2019-10-15T19:20:40Z</time>
      </trkpt>
      <trkpt lat="38.58317" lon="-8.28362">
        <ele>237.808</ele>
        <time>2019-10-15T19:21:00Z</time>
      </trkpt>
      <trkpt lat="38.58341" lon="-8.28262">
        <ele>238.369</ele>
        <time>2019-10-15T19:21:20Z</time>
      </trkpt>
      <trkpt lat="38.58414" lon="-8.28103">
        <ele>244.247</ele>
        <time>2019-10-15T19:21:40Z</time>
      </trkpt>
      <trkpt lat="38.58433" lon="-8.28">
        <ele>246.249</ele>
        <time>2019-10-15T19:22:00Z</time>
      </trkpt>
      <trkpt lat="38.58414" lon="-8.2785">
        <ele>245.899</ele>
        <time>2019-10-15T19:22:20Z</time>
      </trkpt>
      <trkpt lat="38.58414" lon="-8.27803">
        <ele>247.261</ele>
        <time>2019-10-15T19:22:40Z</time>
      </trkpt>
      <trkpt lat="38.58431" lon="-8.277">
        <ele>251.672</ele>
        <time>2019-10-15T19:23:00Z</time>
      </trkpt>
      <trkpt lat="38.58615" lon="-8.2756">
        <ele>258.324</ele>
        <time>2019-10-15T19:23:20Z</time>
      </trkpt>
      <trkpt lat="38.5863" lon="-8.27526">
        <ele>259.454</ele>
        <time>2019-10-15T19:23:40Z</time>
      </trkpt>
      <trkpt lat="38.58648" lon="-8.27358">
        <ele>262.473</ele>
        <time>2019-10-15T19:24:00Z</time>
      </trkpt>
      <trkpt lat="38.58596" lon="-8.27156">
        <ele>262.185</ele>
        <time>2019-10-15T19:24:20Z</time>
      </trkpt>
      <trkpt lat="38.58587" lon="-8.26966">
        <ele>263.313</ele>
        <time>2019-10-15T19:24:40Z</time>
      </trkpt>
      <trkpt lat="38.58529" lon="-8.26494">
        <ele>267.108</ele>
        <time>2019-10-15T19:25:00Z</time>
      </trkpt>
      <trkpt lat="38.58487" lon="-8.26367">
        <ele>266.971</ele>
        <time>2019-10-15T19:25:20Z</time>
      </trkpt>
      <trkpt lat="38.58396" lon="-8.26149">
        <ele>270.429</ele>
        <time>2019-10-15T19:25:40Z</time>
      </trkpt>
      <trkpt lat="38.58375" lon="-8.26114">
        <ele>269.081</ele>
        <time>2019-10-15T19:26:00Z</time>
      </trkpt>
      <trkpt lat="38.58134" lon="-8.25982">
        <ele>264.991</ele>
        <time>2019-10-15T19:26:20Z</time>
      </trkpt>
      <trkpt lat="38.5814" lon="-8.25951">
        <ele>265.883</ele>
        <time>2019-10-15T19:26:40Z</time>
      </trkpt>
      <trkpt lat="38.58196" lon="-8.25887">
        <ele>265.054</ele>
        <time>2019-10-15T19:27:00Z</time>
      </trkpt>
      <trkpt lat="38.58277" lon="-8.25661">
        <ele>259.976</ele>
        <time>2019-10-15T19:27:20Z</time>
      </trkpt>
      <trkpt lat="38.58323" lon="-8.25551">
        <ele>260.286</ele>
        <time>2019-10-15T19:27:40Z</time>
      </trkpt>
      <trkpt lat="38.58349" lon="-8.25481">
        <ele>261.184</ele>
        <time>2019-10-15T19:28:00Z</time>
      </trkpt>
      <trkpt lat="38.58416" lon="-8.25397">
        <ele>266.507</ele>
        <time>2019-10-15T19:28:20Z</time>
      </trkpt>
      <trkpt lat="38.58544" lon="-8.25344">
        <ele>267.917</ele>
        <time>2019-10-15T19:28:40Z</time>
      </trkpt>
      <trkpt lat="38.58641" lon="-8.25327">
        <ele>271.508</ele>
        <time>2019-10-15T19:29:00Z</time>
      </trkpt>
      <trkpt lat="38.58648" lon="-8.25314">
        <ele>270.612</ele>
        <time>2019-10-15T19:29:20Z</time>
      </trkpt>
      <trkpt lat="38.58643" lon="-8.25275">
        <ele>270.02</ele>
        <time>2019-10-15T19:29:40Z</time>
      </trkpt>
      <trkpt lat="38.58618" lon="-8.25155">
        <ele>270.692</ele>
        <time>2019-10-15T19:30:00Z</time>
      </trkpt>
      <trkpt lat="38.58624" lon="-8.25099">
        <ele>272.252</ele>
        <time>2019-10-15T19:30:20Z</time>
      </trkpt>
      <trkpt lat="38.58723" lon="-8.24825">
        <ele>280.084</ele>
        <time>2019-10-15T19:30:40Z</time>
      </trkpt>
      <trkpt lat="38.58772" lon="-8.24745">
        <ele>281.425</ele>
        <time>2019-10-15T19:31:00Z</time>
      </trkpt>
      <trkpt lat="38.58815" lon="-8.24713">
        <ele>282.087</ele>
        <time>2019-10-15T19:31:20Z</time>
      </trkpt>
      <trkpt lat="38.58834" lon="-8.24687">
        <ele>281.787</ele>
        <time>2019-10-15T19:31:40Z</time>
      </trkpt>
      <trkpt lat="38.58881" lon="-8.24567">
        <ele>275.286</ele>
        <time>2019-10-15T19:32:00Z</time>
      </trkpt>
      <trkpt lat="38.58886" lon="-8.24543">
        <ele>274.16</ele>
        <time>2019-10-15T19:32:20Z</time>
      </trkpt>
      <trkpt lat="38.58834" lon="-8.24374">
        <ele>262.526</ele>
        <time>2019-10-15T19:32:40Z</time>
      </trkpt>
      <trkpt lat="38.58841" lon="-8.24351">
        <ele>261.908</ele>
        <time>2019-10-15T19:33:00Z</time>
      </trkpt>
      <trkpt lat="38.58856" lon="-8.2434">
        <ele>262.062</ele>
        <time>2019-10-15T19:33:20Z</time>
      </trkpt>
      <trkpt lat="38.58845" lon="-8.24342">
        <ele>261.78</ele>
        <time>2019-10-15T19:33:40Z</time>
      </trkpt>
      <trkpt lat="38.58825" lon="-8.24368">
        <ele>262.392</ele>
        <time>2019-10-15T19:34:00Z</time>
      </trkpt>
      <trkpt lat="38.58832" lon="-8.24351">
        <ele>261.662</ele>
        <time>2019-10-15T19:34:20Z</time>
      </trkpt>
      <trkpt lat="38.58858" lon="-8.24314">
        <ele>261.164</ele>
        <time>2019-10-15T19:34:40Z</time>
      </trkpt>
      <trkpt lat="38.58864" lon="-8.2425">
        <ele>257.185</ele>
        <time>2019-10-15T19:35:00Z</time>
      </trkpt>
      <trkpt lat="38.58879" lon="-8.24189">
        <ele>251.267</ele>
        <time>2019-10-15T19:35:20Z</time>
      </trkpt>
      <trkpt lat="38.58978" lon="-8.24132">
        <ele>247.127</ele>
        <time>2019-10-15T19:35:40Z</time>
      </trkpt>
      <trkpt lat="38.59006" lon="-8.24104">
        <ele>249.566</ele>
        <time>2019-10-15T19:36:00Z</time>
      </trkpt>
      <trkpt lat="38.59016" lon="-8.2408">
        <ele>250.929</ele>
        <time>2019-10-15T19:36:20Z</time>
      </trkpt>
      <trkpt lat="38.59008" lon="-8.24056">
        <ele>250.821</ele>
        <time>2019-10-15T19:36:40Z</time>
      </trkpt>
      <trkpt lat="38.59102" lon="-8.24039">
        <ele>254.108</ele>
        <time>2019-10-15T19:37:00Z</time>
      </trkpt>
      <trkpt lat="38.59219" lon="-8.24007">
        <ele>258.54</ele>
        <time>2019-10-15T19:37:20Z</time>
      </trkpt>
      <trkpt lat="38.59307" lon="-8.23953">
        <ele>264.718</ele>
        <time>2019-10-15T19:37:40Z</time>
      </trkpt>
      <trkpt lat="38.59416" lon="-8.23872">
        <ele>269.38</ele>
        <time>2019-10-15T19:38:00Z</time>
      </trkpt>
      <trkpt lat="38.59491" lon="-8.23793">
        <ele>274.24</ele>
        <time>2019-10-15T19:38:20Z</time>
      </trkpt>
      <trkpt lat="38.59641" lon="-8.23777">
        <ele>282.082</ele>
        <time>2019-10-15T19:38:40Z</time>
      </trkpt>
      <trkpt lat="38.59993" lon="-8.23803">
        <ele>289.943</ele>
        <time>2019-10-15T19:39:00Z</time>
      </trkpt>
      <trkpt lat="38.60093" lon="-8.23818">
        <ele>294.495</ele>
        <time>2019-10-15T19:39:20Z</time>
      </trkpt>
      <trkpt lat="38.60231" lon="-8.23861">
        <ele>291.475</ele>
        <time>2019-10-15T19:39:40Z</time>
      </trkpt>
      <trkpt lat="38.60242" lon="-8.23858">
        <ele>290.711</ele>
        <time>2019-10-15T19:40:00Z</time>
      </trkpt>
      <trkpt lat="38.60322" lon="-8.236">
        <ele>299.321</ele>
        <time>2019-10-15T19:40:20Z</time>
      </trkpt>
      <trkpt lat="38.60259" lon="-8.23498">
        <ele>300.403</ele>
        <time>2019-10-15T19:40:40Z</time>
      </trkpt>
      <trkpt lat="38.60158" lon="-8.23055">
        <ele>308.808</ele>
        <time>2019-10-15T19:41:00Z</time>
      </trkpt>
      <trkpt lat="38.6007" lon="-8.23001">
        <ele>302.545</ele>
        <time>2019-10-15T19:41:20Z</time>
      </trkpt>
      <trkpt lat="38.59925" lon="-8.22705">
        <ele>298.913</ele>
        <time>2019-10-15T19:41:40Z</time>
      </trkpt>
      <trkpt lat="38.6012" lon="-8.22542">
        <ele>313.095</ele>
        <time>2019-10-15T19:42:00Z</time>
      </trkpt>
      <trkpt lat="38.60196" lon="-8.22379">
        <ele>318.885</ele>
        <time>2019-10-15T19:42:20Z</time>
      </trkpt>
      <trkpt lat="38.60322" lon="-8.22239">
        <ele>319.967</ele>
        <time>2019-10-15T19:42:40Z</time>
      </trkpt>
      <trkpt lat="38.6024" lon="-8.21578">
        <ele>323.558</ele>
        <time>2019-10-15T19:43:00Z</time>
      </trkpt>
      <trkpt lat="38.60227" lon="-8.21446">
        <ele>314.31</ele>
        <time>2019-10-15T19:43:20Z</time>
      </trkpt>
      <trkpt lat="38.60466" lon="-8.21501">
        <ele>296.21</ele>
        <time>2019-10-15T19:43:40Z</time>
      </trkpt>
      <trkpt lat="38.61045" lon="-8.20552">
        <ele>261.278</ele>
        <time>2019-10-15T19:44:00Z</time>
      </trkpt>
      <trkpt lat="38.61164" lon="-8.20684">
        <ele>256.633</ele>
        <time>2019-10-15T19:44:20Z</time>
      </trkpt>
      <trkpt lat="38.61497" lon="-8.20793">
        <ele>253.626</ele>
        <time>2019-10-15T19:44:40Z</time>
      </trkpt>
      <trkpt lat="38.61609" lon="-8.20876">
        <ele>254.408</ele>
        <time>2019-10-15T19:45:00Z</time>
      </trkpt>
      <trkpt lat="38.61917" lon="-8.20853">
        <ele>239.411</ele>
        <time>2019-10-15T19:45:20Z</time>
      </trkpt>
      <trkpt lat="38.62018" lon="-8.20931">
        <ele>239.989</ele>
        <time>2019-10-15T19:45:40Z</time>
      </trkpt>
      <trkpt lat="38.62445" lon="-8.20931">
        <ele>228.541</ele>
        <time>2019-10-15T19:46:00Z</time>
      </trkpt>
      <trkpt lat="38.6286" lon="-8.20876">
        <ele>205.621</ele>
        <time>2019-10-15T19:46:20Z</time>
      </trkpt>
      <trkpt lat="38.62973" lon="-8.20869">
        <ele>208.773</ele>
        <time>2019-10-15T19:46:40Z</time>
      </trkpt>
      <trkpt lat="38.63036" lon="-8.2083">
        <ele>203.024</ele>
        <time>2019-10-15T19:47:00Z</time>
      </trkpt>
      <trkpt lat="38.6342" lon="-8.20667">
        <ele>193.086</ele>
        <time>2019-10-15T19:47:20Z</time>
      </trkpt>
      <trkpt lat="38.63476" lon="-8.2069">
        <ele>193.466</ele>
        <time>2019-10-15T19:47:40Z</time>
      </trkpt>
      <trkpt lat="38.63621" lon="-8.20737">
        <ele>202.542</ele>
        <time>2019-10-15T19:48:00Z</time>
      </trkpt>
      <trkpt lat="38.63715" lon="-8.2076">
        <ele>208.322</ele>
        <time>2019-10-15T19:48:20Z</time>
      </trkpt>
      <trkpt lat="38.6386" lon="-8.20814">
        <ele>215.814</ele>
        <time>2019-10-15T19:48:40Z</time>
      </trkpt>
      <trkpt lat="38.64124" lon="-8.21133">
        <ele>235.608</ele>
        <time>2019-10-15T19:49:00Z</time>
      </trkpt>
      <trkpt lat="38.64319" lon="-8.21288">
        <ele>251.328</ele>
        <time>2019-10-15T19:49:20Z</time>
      </trkpt>
      <trkpt lat="38.64363" lon="-8.21296">
        <ele>250.786</ele>
        <time>2019-10-15T19:49:40Z</time>
      </trkpt>
      <trkpt lat="38.64411" lon="-8.21092">
        <ele>236.258</ele>
        <time>2019-10-15T19:50:00Z</time>
      </trkpt>
      <trkpt lat="38.64457" lon="-8.20876">
        <ele>231.128</ele>
        <time>2019-10-15T19:50:20Z</time>
      </trkpt>
      <trkpt lat="38.6452" lon="-8.20721">
        <ele>227.49</ele>
        <time>2019-10-15T19:50:40Z</time>
      </trkpt>
      <trkpt lat="38.64602" lon="-8.20324">
        <ele>233.811</ele>
        <time>2019-10-15T19:51:00Z</time>
      </trkpt>
      <trkpt lat="38.64772" lon="-8.20962">
        <ele>241.923</ele>
        <time>2019-10-15T19:51:20Z</time>
      </trkpt>
      <trkpt lat="38.64907" lon="-8.21547">
        <ele>241.293</ele>
        <time>2019-10-15T19:51:40Z</time>
      </trkpt>
      <trkpt lat="38.6502" lon="-8.21938">
        <ele>226.498</ele>
        <time>2019-10-15T19:52:00Z</time>
      </trkpt>
      <trkpt lat="38.65088" lon="-8.22114">
        <ele>226.715</ele>
        <time>2019-10-15T19:52:20Z</time>
      </trkpt>
      <trkpt lat="38.65329" lon="-8.22351">
        <ele>216.526</ele>
        <time>2019-10-15T19:52:40Z</time>
      </trkpt>
      <trkpt lat="38.65408" lon="-8.22413">
        <ele>210.308</ele>
        <time>2019-10-15T19:53:00Z</time>
      </trkpt>
      <trkpt lat="38.65413" lon="-8.22489">
        <ele>210.383</ele>
        <time>2019-10-15T19:53:20Z</time>
      </trkpt>
      <trkpt lat="38.65397" lon="-8.22556">
        <ele>213.751</ele>
        <time>2019-10-15T19:53:40Z</time>
      </trkpt>
      <trkpt lat="38.6537" lon="-8.22631">
        <ele>214.733</ele>
        <time>2019-10-15T19:54:00Z</time>
      </trkpt>
      <trkpt lat="38.65356" lon="-8.22776">
        <ele>204.333</ele>
        <time>2019-10-15T19:54:20Z</time>
      </trkpt>
      <trkpt lat="38.65332" lon="-8.22873">
        <ele>200.665</ele>
        <time>2019-10-15T19:54:40Z</time>
      </trkpt>
      <trkpt lat="38.65298" lon="-8.22907">
        <ele>199.456</ele>
        <time>2019-10-15T19:55:00Z</time>
      </trkpt>
      <trkpt lat="38.65329" lon="-8.23084">
        <ele>198.438</ele>
        <time>2019-10-15T19:55:20Z</time>
      </trkpt>
      <trkpt lat="38.65476" lon="-8.23284">
        <ele>182.158</ele>
        <time>2019-10-15T19:55:40Z</time>
      </trkpt>
      <trkpt lat="38.656" lon="-8.234">
        <ele>170.813</ele>
        <time>2019-10-15T19:56:00Z</time>
      </trkpt>
      <trkpt lat="38.65704" lon="-8.23426">
        <ele>162.843</ele>
        <time>2019-10-15T19:56:20Z</time>
      </trkpt>
      <trkpt lat="38.65803" lon="-8.2352">
        <ele>155.207</ele>
        <time>2019-10-15T19:56:40Z</time>
      </trkpt>
      <trkpt lat="38.65992" lon="-8.23524">
        <ele>158.808</ele>
        <time>2019-10-15T19:57:00Z</time>
      </trkpt>
      <trkpt lat="38.66015" lon="-8.23562">
        <ele>158.265</ele>
        <time>2019-10-15T19:57:20Z</time>
      </trkpt>
      <trkpt lat="38.66069" lon="-8.23684">
        <ele>161.513</ele>
        <time>2019-10-15T19:57:40Z</time>
      </trkpt>
      <trkpt lat="38.66119" lon="-8.23835">
        <ele>164.045</ele>
        <time>2019-10-15T19:58:00Z</time>
      </trkpt>
      <trkpt lat="38.66126" lon="-8.23917">
        <ele>162.415</ele>
        <time>2019-10-15T19:58:20Z</time>
      </trkpt>
      <trkpt lat="38.66177" lon="-8.24024">
        <ele>158.167</ele>
        <time>2019-10-15T19:58:40Z</time>
      </trkpt>
      <trkpt lat="38.66292" lon="-8.2419">
        <ele>154.698</ele>
        <time>2019-10-15T19:59:00Z</time>
      </trkpt>
      <trkpt lat="38.66435" lon="-8.24435">
        <ele>148.94</ele>
        <time>2019-10-15T19:59:20Z</time>
      </trkpt>
      <trkpt lat="38.66369" lon="-8.24541">
        <ele>145.49</ele>
        <time>2019-10-15T19:59:40Z</time>
      </trkpt>
      <trkpt lat="38.66328" lon="-8.24604">
        <ele>147.767</ele>
        <time>2019-10-15T20:00:00Z</time>
      </trkpt>
      <trkpt lat="38.66259" lon="-8.24828">
        <ele>154.281</ele>
        <time>2019-10-15T20:00:20Z</time>
      </trkpt>
      <trkpt lat="38.66225" lon="-8.25441">
        <ele>172.119</ele>
        <time>2019-10-15T20:00:40Z</time>
      </trkpt>
      <trkpt lat="38.66482" lon="-8.25748">
        <ele>168.508</ele>
        <time>2019-10-15T20:01:00Z</time>
      </trkpt>
      <trkpt lat="38.66532" lon="-8.26081">
        <ele>175.82</ele>
        <time>2019-10-15T20:01:20Z</time>
      </trkpt>
      <trkpt lat="38.66344" lon="-8.26434">
        <ele>184.088</ele>
        <time>2019-10-15T20:01:40Z</time>
      </trkpt>
      <trkpt lat="38.66236" lon="-8.26794">
        <ele>193.12</ele>
        <time>2019-10-15T20:02:00Z</time>
      </trkpt>
      <trkpt lat="38.66344" lon="-8.26883">
        <ele>189.26</ele>
        <time>2019-10-15T20:02:20Z</time>
      </trkpt>
      <trkpt lat="38.66453" lon="-8.26887">
        <ele>183.392</ele>
        <time>2019-10-15T20:02:40Z</time>
      </trkpt>
      <trkpt lat="38.66624" lon="-8.26967">
        <ele>183.493</ele>
        <time>2019-10-15T20:03:00Z</time>
      </trkpt>
      <trkpt lat="38.66831" lon="-8.27254">
        <ele>178.985</ele>
        <time>2019-10-15T20:03:20Z</time>
      </trkpt>
      <trkpt lat="38.66876" lon="-8.27385">
        <ele>175.725</ele>
        <time>2019-10-15T20:03:40Z</time>
      </trkpt>
      <trkpt lat="38.66982" lon="-8.27487">
        <ele>171.834</ele>
        <time>2019-10-15T20:04:00Z</time>
      </trkpt>
      <trkpt lat="38.67308" lon="-8.2821">
        <ele>168.555</ele>
        <time>2019-10-15T20:04:20Z</time>
      </trkpt>
      <trkpt lat="38.67412" lon="-8.28614">
        <ele>160.11</ele>
        <time>2019-10-15T20:04:40Z</time>
      </trkpt>
      <trkpt lat="38.67874" lon="-8.28583">
        <ele>139.608</ele>
        <time>2019-10-15T20:05:00Z</time>
      </trkpt>
      <trkpt lat="38.67898" lon="-8.28556">
        <ele>135.467</ele>
        <time>2019-10-15T20:05:20Z</time>
      </trkpt>
      <trkpt lat="38.68004" lon="-8.28534">
        <ele>130.065</ele>
        <time>2019-10-15T20:05:40Z</time>
      </trkpt>
      <trkpt lat="38.6812" lon="-8.28336">
        <ele>130.337</ele>
        <time>2019-10-15T20:06:00Z</time>
      </trkpt>
      <trkpt lat="38.68184" lon="-8.28387">
        <ele>126.027</ele>
        <time>2019-10-15T20:06:20Z</time>
      </trkpt>
      <trkpt lat="38.68314" lon="-8.28401">
        <ele>131.639</ele>
        <time>2019-10-15T20:06:40Z</time>
      </trkpt>
      <trkpt lat="38.68476" lon="-8.28615">
        <ele>148.18</ele>
        <time>2019-10-15T20:07:00Z</time>
      </trkpt>
      <trkpt lat="38.68802" lon="-8.28532">
        <ele>165.782</ele>
        <time>2019-10-15T20:07:20Z</time>
      </trkpt>
      <trkpt lat="38.68924" lon="-8.28371">
        <ele>173.982</ele>
        <time>2019-10-15T20:07:40Z</time>
      </trkpt>
      <trkpt lat="38.6924" lon="-8.28202">
        <ele>177.614</ele>
        <time>2019-10-15T20:08:00Z</time>
      </trkpt>
      <trkpt lat="38.69609" lon="-8.28275">
        <ele>187.954</ele>
        <time>2019-10-15T20:08:20Z</time>
      </trkpt>
      <trkpt lat="38.70078" lon="-8.28278">
        <ele>187.209</ele>
        <time>2019-10-15T20:08:40Z</time>
      </trkpt>
      <trkpt lat="38.70293" lon="-8.28383">
        <ele>178.908</ele>
        <time>2019-10-15T20:09:00Z</time>
      </trkpt>
      <trkpt lat="38.70432" lon="-8.285">
        <ele>177.585</ele>
        <time>2019-10-15T20:09:20Z</time>
      </trkpt>
      <trkpt lat="38.70804" lon="-8.28302">
        <ele>183.133</ele>
        <time>2019-10-15T20:09:40Z</time>
      </trkpt>
      <trkpt lat="38.71286" lon="-8.28023">
        <ele>191.235</ele>
        <time>2019-10-15T20:10:00Z</time>
      </trkpt>
      <trkpt lat="38.71715" lon="-8.27549">
        <ele>203.725</ele>
        <time>2019-10-15T20:10:20Z</time>
      </trkpt>
      <trkpt lat="38.72059" lon="-8.27604">
        <ele>202.787</ele>
        <time>2019-10-15T20:10:40Z</time>
      </trkpt>
      <trkpt lat="38.72768" lon="-8.27509">
        <ele>197.428</ele>
        <time>2019-10-15T20:11:00Z</time>
      </trkpt>
      <trkpt lat="38.7329" lon="-8.27711">
        <ele>186.48</ele>
        <time>2019-10-15T20:11:20Z</time>
      </trkpt>
      <trkpt lat="38.73455" lon="-8.27716">
        <ele>190.34</ele>
        <time>2019-10-15T20:11:40Z</time>
      </trkpt>
      <trkpt lat="38.73527" lon="-8.27639">
        <ele>187.098</ele>
        <time>2019-10-15T20:12:00Z</time>
      </trkpt>
      <trkpt lat="38.7398" lon="-8.27513">
        <ele>180.315</ele>
        <time>2019-10-15T20:12:20Z</time>
      </trkpt>
      <trkpt lat="38.74092" lon="-8.27536">
        <ele>170.726</ele>
        <time>2019-10-15T20:12:40Z</time>
      </trkpt>
      <trkpt lat="38.74262" lon="-8.27278">
        <ele>163.708</ele>
        <time>2019-10-15T20:13:00Z</time>
      </trkpt>
      <trkpt lat="38.74423" lon="-8.27262">
        <ele>163.783</ele>
        <time>2019-10-15T20:13:20Z</time>
      </trkpt>
      <trkpt lat="38.74507" lon="-8.27091">
        <ele>164.871</ele>
        <time>2019-10-15T20:13:40Z</time>
      </trkpt>
      <trkpt lat="38.74472" lon="-8.26948">
        <ele>168.033</ele>
        <time>2019-10-15T20:14:00Z</time>
      </trkpt>
      <trkpt lat="38.74617" lon="-8.26743">
        <ele>161.223</ele>
        <time>2019-10-15T20:14:20Z</time>
      </trkpt>
      <trkpt lat="38.74843" lon="-8.26668">
        <ele>157.625</ele>
        <time>2019-10-15T20:14:40Z</time>
      </trkpt>
      <trkpt lat="38.7497" lon="-8.26458">
        <ele>151.486</ele>
        <time>2019-10-15T20:15:00Z</time>
      </trkpt>
      <trkpt lat="38.74969" lon="-8.2637">
        <ele>150.848</ele>
        <time>2019-10-15T20:15:20Z</time>
      </trkpt>
      <trkpt lat="38.75065" lon="-8.26366">
        <ele>144.078</ele>
        <time>2019-10-15T20:15:40Z</time>
      </trkpt>
      <trkpt lat="38.75128" lon="-8.26409">
        <ele>144.629</ele>
        <time>2019-10-15T20:16:00Z</time>
      </trkpt>
      <trkpt lat="38.75199" lon="-8.26356">
        <ele>144.5</ele>
        <time>2019-10-15T20:16:20Z</time>
      </trkpt>
      <trkpt lat="38.75395" lon="-8.26276">
        <ele>155.62</ele>
        <time>2019-10-15T20:16:40Z</time>
      </trkpt>
      <trkpt lat="38.75615" lon="-8.26058">
        <ele>161.108</ele>
        <time>2019-10-15T20:17:00Z</time>
      </trkpt>
      <trkpt lat="38.75855" lon="-8.26011">
        <ele>169.626</ele>
        <time>2019-10-15T20:17:20Z</time>
      </trkpt>
      <trkpt lat="38.76145" lon="-8.26174">
        <ele>170.454</ele>
        <time>2019-10-15T20:17:40Z</time>
      </trkpt>
      <trkpt lat="38.76512" lon="-8.26051">
        <ele>168.116</ele>
        <time>2019-10-15T20:18:00Z</time>
      </trkpt>
      <trkpt lat="38.7657" lon="-8.25877">
        <ele>160.796</ele>
        <time>2019-10-15T20:18:20Z</time>
      </trkpt>
      <trkpt lat="38.76559" lon="-8.25002">
        <ele>170.848</ele>
        <time>2019-10-15T20:18:40Z</time>
      </trkpt>
      <trkpt lat="38.7668" lon="-8.24474">
        <ele>164.469</ele>
        <time>2019-10-15T20:19:00Z</time>
      </trkpt>
      <trkpt lat="38.76871" lon="-8.24325">
        <ele>169.841</ele>
        <time>2019-10-15T20:19:20Z</time>
      </trkpt>
      <trkpt lat="38.76391" lon="-8.23237">
        <ele>182.841</ele>
        <time>2019-10-15T20:19:40Z</time>
      </trkpt>
      <trkpt lat="38.77134" lon="-8.22971">
        <ele>161.128</ele>
        <time>2019-10-15T20:20:00Z</time>
      </trkpt>
      <trkpt lat="38.77345" lon="-8.22998">
        <ele>169.689</ele>
        <time>2019-10-15T20:20:20Z</time>
      </trkpt>
      <trkpt lat="38.77959" lon="-8.22709">
        <ele>178.717</ele>
        <time>2019-10-15T20:20:40Z</time>
      </trkpt>
      <trkpt lat="38.7855" lon="-8.22582">
        <ele>178.008</ele>
        <time>2019-10-15T20:21:00Z</time>
      </trkpt>
      <trkpt lat="38.7866" lon="-8.22528">
        <ele>175.846</ele>
        <time>2019-10-15T20:21:20Z</time>
      </trkpt>
      <trkpt lat="38.78713" lon="-8.22553">
        <ele>178.684</ele>
        <time>2019-10-15T20:21:40Z</time>
      </trkpt>
      <trkpt lat="38.78813" lon="-8.22674">
        <ele>177.916</ele>
        <time>2019-10-15T20:22:00Z</time>
      </trkpt>
      <trkpt lat="38.79064" lon="-8.22655">
        <ele>174.446</ele>
        <time>2019-10-15T20:22:20Z</time>
      </trkpt>
      <trkpt lat="38.79196" lon="-8.22787">
        <ele>176.938</ele>
        <time>2019-10-15T20:22:40Z</time>
      </trkpt>
      <trkpt lat="38.79839" lon="-8.22864">
        <ele>151.619</ele>
        <time>2019-10-15T20:23:00Z</time>
      </trkpt>
      <trkpt lat="38.79957" lon="-8.22818">
        <ele>143.691</ele>
        <time>2019-10-15T20:23:20Z</time>
      </trkpt>
      <trkpt lat="38.80186" lon="-8.22811">
        <ele>136.041</ele>
        <time>2019-10-15T20:23:40Z</time>
      </trkpt>
      <trkpt lat="38.8035" lon="-8.22882">
        <ele>124.936</ele>
        <time>2019-10-15T20:24:00Z</time>
      </trkpt>
      <trkpt lat="38.80439" lon="-8.22979">
        <ele>116.117</ele>
        <time>2019-10-15T20:24:20Z</time>
      </trkpt>
      <trkpt lat="38.805" lon="-8.2314">
        <ele>106.018</ele>
        <time>2019-10-15T20:24:40Z</time>
      </trkpt>
      <trkpt lat="38.80609" lon="-8.23183">
        <ele>104.808</ele>
        <time>2019-10-15T20:25:00Z</time>
      </trkpt>
      <trkpt lat="38.80706" lon="-8.23293">
        <ele>103.827</ele>
        <time>2019-10-15T20:25:20Z</time>
      </trkpt>
      <trkpt lat="38.8077" lon="-8.23282">
        <ele>99.275</ele>
        <time>2019-10-15T20:25:40Z</time>
      </trkpt>
      <trkpt lat="38.81083" lon="-8.23834">
        <ele>98.017</ele>
        <time>2019-10-15T20:26:00Z</time>
      </trkpt>
      <trkpt lat="38.81501" lon="-8.24195">
        <ele>96.027</ele>
        <time>2019-10-15T20:26:20Z</time>
      </trkpt>
      <trkpt lat="38.81547" lon="-8.24178">
        <ele>96.469</ele>
        <time>2019-10-15T20:26:40Z</time>
      </trkpt>
      <trkpt lat="38.81551" lon="-8.24183">
        <ele>96.42</ele>
        <time>2019-10-15T20:27:00Z</time>
      </trkpt>
      <trkpt lat="38.81556" lon="-8.24189">
        <ele>96.272</ele>
        <time>2019-10-15T20:27:20Z</time>
      </trkpt>
      <trkpt lat="38.81567" lon="-8.24205">
        <ele>96.422</ele>
        <time>2019-10-15T20:27:40Z</time>
      </trkpt>
      <trkpt lat="38.81572" lon="-8.24215">
        <ele>96.663</ele>
        <time>2019-10-15T20:28:00Z</time>
      </trkpt>
      <trkpt lat="38.8159" lon="-8.24259">
        <ele>98.944</ele>
        <time>2019-10-15T20:28:20Z</time>
      </trkpt>
      <trkpt lat="38.81606" lon="-8.24296">
        <ele>100.318</ele>
        <time>2019-10-15T20:28:40Z</time>
      </trkpt>
      <trkpt lat="38.81611" lon="-8.24305">
        <ele>100.008</ele>
        <time>2019-10-15T20:29:00Z</time>
      </trkpt>
      <trkpt lat="38.81644" lon="-8.24353">
        <ele>98.13</ele>
        <time>2019-10-15T20:29:20Z</time>
      </trkpt>
      <trkpt lat="38.81664" lon="-8.24376">
        <ele>98.358</ele>
        <time>2019-10-15T20:29:40Z</time>
      </trkpt>
      <trkpt lat="38.81675" lon="-8.24387">
        <ele>99.24</ele>
        <time>2019-10-15T20:30:00Z</time>
      </trkpt>
      <trkpt lat="38.81678" lon="-8.24393">
        <ele>99.61</ele>
        <time>2019-10-15T20:30:20Z</time>
      </trkpt>
      <trkpt lat="38.8168" lon="-8.244">
        <ele>99.682</ele>
        <time>2019-10-15T20:30:40Z</time>
      </trkpt>
      <trkpt lat="38.81682" lon="-8.24408">
        <ele>99.463</ele>
        <time>2019-10-15T20:31:00Z</time>
      </trkpt>
      <trkpt lat="38.81683" lon="-8.24416">
        <ele>99.295</ele>
        <time>2019-10-15T20:31:20Z</time>
      </trkpt>
      <trkpt lat="38.81684" lon="-8.24423">
        <ele>98.985</ele>
        <time>2019-10-15T20:31:40Z</time>
      </trkpt>
      <trkpt lat="38.81691" lon="-8.24447">
        <ele>97.644</ele>
        <time>2019-10-15T20:32:00Z</time>
      </trkpt>
      <trkpt lat="38.81693" lon="-8.24453">
        <ele>97.005</ele>
        <time>2019-10-15T20:32:20Z</time>
      </trkpt>
      <trkpt lat="38.81696" lon="-8.24459">
        <ele>96.715</ele>
        <time>2019-10-15T20:32:40Z</time>
      </trkpt>
      <trkpt lat="38.81701" lon="-8.24464">
        <ele>96.608</ele>
        <time>2019-10-15T20:33:00Z</time>
      </trkpt>
      <trkpt lat="38.81705" lon="-8.24471">
        <ele>96.468</ele>
        <time>2019-10-15T20:33:20Z</time>
      </trkpt>
      <trkpt lat="38.81724" lon="-8.24493">
        <ele>95.266</ele>
        <time>2019-10-15T20:33:40Z</time>
      </trkpt>
      <trkpt lat="38.81757" lon="-8.2453">
        <ele>94.018</ele>
        <time>2019-10-15T20:34:00Z</time>
      </trkpt>
      <trkpt lat="38.81761" lon="-8.24539">
        <ele>93.498</ele>
        <time>2019-10-15T20:34:20Z</time>
      </trkpt>
      <trkpt lat="38.81767" lon="-8.24549">
        <ele>92.78</ele>
        <time>2019-10-15T20:34:40Z</time>
      </trkpt>
      <trkpt lat="38.81773" lon="-8.2456">
        <ele>92.541</ele>
        <time>2019-10-15T20:35:00Z</time>
      </trkpt>
      <trkpt lat="38.8178" lon="-8.24569">
        <ele>92.523</ele>
        <time>2019-10-15T20:35:20Z</time>
      </trkpt>
      <trkpt lat="38.81787" lon="-8.24579">
        <ele>92.563</ele>
        <time>2019-10-15T20:35:40Z</time>
      </trkpt>
      <trkpt lat="38.81803" lon="-8.24596">
        <ele>92.486</ele>
        <time>2019-10-15T20:36:00Z</time>
      </trkpt>
      <trkpt lat="38.81811" lon="-8.24603">
        <ele>92.56</ele>
        <time>2019-10-15T20:36:20Z</time>
      </trkpt>
      <trkpt lat="38.81819" lon="-8.24609">
        <ele>92.526</ele>
        <time>2019-10-15T20:36:40Z</time>
      </trkpt>
      <trkpt lat="38.81827" lon="-8.24614">
        <ele>92.708</ele>
        <time>2019-10-15T20:37:00Z</time>
      </trkpt>
      <trkpt lat="38.81836" lon="-8.24618">
        <ele>92.962</ele>
        <time>2019-10-15T20:37:20Z</time>
      </trkpt>
      <trkpt lat="38.81869" lon="-8.24631">
        <ele>94.67</ele>
        <time>2019-10-15T20:37:40Z</time>
      </trkpt>
      <trkpt lat="38.81896" lon="-8.24642">
        <ele>95.132</ele>
        <time>2019-10-15T20:38:00Z</time>
      </trkpt>
      <trkpt lat="38.81957" lon="-8.2466">
        <ele>96.052</ele>
        <time>2019-10-15T20:38:20Z</time>
      </trkpt>
      <trkpt lat="38.82017" lon="-8.24677">
        <ele>96.444</ele>
        <time>2019-10-15T20:38:40Z</time>
      </trkpt>
      <trkpt lat="38.82121" lon="-8.24699">
        <ele>96.295</ele>
        <time>2019-10-15T20:39:00Z</time>
      </trkpt>
      <trkpt lat="38.82132" lon="-8.24696">
        <ele>96.747</ele>
        <time>2019-10-15T20:39:20Z</time>
      </trkpt>
      <trkpt lat="38.82143" lon="-8.2469">
        <ele>97.437</ele>
        <time>2019-10-15T20:39:40Z</time>
      </trkpt>
      <trkpt lat="38.82153" lon="-8.24682">
        <ele>98.284</ele>
        <time>2019-10-15T20:40:00Z</time>
      </trkpt>
      <trkpt lat="38.82163" lon="-8.24673">
        <ele>98.807</ele>
        <time>2019-10-15T20:40:20Z</time>
      </trkpt>
      <trkpt lat="38.82171" lon="-8.24663">
        <ele>99.117</ele>
        <time>2019-10-15T20:40:40Z</time>
      </trkpt>
      <trkpt lat="38.82179" lon="-8.24653">
        <ele>99.208</ele>
        <time>2019-10-15T20:41:00Z</time>
      </trkpt>
      <trkpt lat="38.82233" lon="-8.24546">
        <ele>100.412</ele>
        <time>2019-10-15T20:41:20Z</time>
      </trkpt>
      <trkpt lat="38.82243" lon="-8.24512">
        <ele>101.13</ele>
        <time>2019-10-15T20:41:40Z</time>
      </trkpt>
      <trkpt lat="38.82248" lon="-8.24502">
        <ele>101.162</ele>
        <time>2019-10-15T20:42:00Z</time>
      </trkpt>
      <trkpt lat="38.82253" lon="-8.24493">
        <ele>101.182</ele>
        <time>2019-10-15T20:42:20Z</time>
      </trkpt>
      <trkpt lat="38.8226" lon="-8.24486">
        <ele>101.024</ele>
        <time>2019-10-15T20:42:40Z</time>
      </trkpt>
      <trkpt lat="38.82268" lon="-8.2448">
        <ele>100.635</ele>
        <time>2019-10-15T20:43:00Z</time>
      </trkpt>
      <trkpt lat="38.82277" lon="-8.24477">
        <ele>100.147</ele>
        <time>2019-10-15T20:43:20Z</time>
      </trkpt>
      <trkpt lat="38.82287" lon="-8.24476">
        <ele>100.087</ele>
        <time>2019-10-15T20:43:40Z</time>
      </trkpt>
      <trkpt lat="38.82297" lon="-8.24477">
        <ele>100.092</ele>
        <time>2019-10-15T20:44:00Z</time>
      </trkpt>
      <trkpt lat="38.82307" lon="-8.24479">
        <ele>100.073</ele>
        <time>2019-10-15T20:44:20Z</time>
      </trkpt>
      <trkpt lat="38.82316" lon="-8.24482">
        <ele>99.72</ele>
        <time>2019-10-15T20:44:40Z</time>
      </trkpt>
      <trkpt lat="38.82327" lon="-8.24486">
        <ele>99.608</ele>
        <time>2019-10-15T20:45:00Z</time>
      </trkpt>
      <trkpt lat="38.82338" lon="-8.24491">
        <ele>99.963</ele>
        <time>2019-10-15T20:45:20Z</time>
      </trkpt>
      <trkpt lat="38.82348" lon="-8.24496">
        <ele>100.441</ele>
        <time>2019-10-15T20:45:40Z</time>
      </trkpt>
      <trkpt lat="38.82356" lon="-8.24497">
        <ele>100.813</ele>
        <time>2019-10-15T20:46:00Z</time>
      </trkpt>
      <trkpt lat="38.82363" lon="-8.24495">
        <ele>101.253</ele>
        <time>2019-10-15T20:46:20Z</time>
      </trkpt>
      <trkpt lat="38.82371" lon="-8.2449">
        <ele>101.945</ele>
        <time>2019-10-15T20:46:40Z</time>
      </trkpt>
      <trkpt lat="38.82379" lon="-8.24483">
        <ele>102.556</ele>
        <time>2019-10-15T20:47:00Z</time>
      </trkpt>
      <trkpt lat="38.824" lon="-8.24466">
        <ele>104.788</ele>
        <time>2019-10-15T20:47:20Z</time>
      </trkpt>
      <trkpt lat="38.82425" lon="-8.24448">
        <ele>109.048</ele>
        <time>2019-10-15T20:47:40Z</time>
      </trkpt>
      <trkpt lat="38.82452" lon="-8.24429">
        <ele>115.385</ele>
        <time>2019-10-15T20:48:00Z</time>
      </trkpt>
      <trkpt lat="38.82479" lon="-8.24409">
        <ele>118.889</ele>
        <time>2019-10-15T20:48:20Z</time>
      </trkpt>
      <trkpt lat="38.82504" lon="-8.24392">
        <ele>120.717</ele>
        <time>2019-10-15T20:48:40Z</time>
      </trkpt>
      <trkpt lat="38.82513" lon="-8.24388">
        <ele>121.008</ele>
        <time>2019-10-15T20:49:00Z</time>
      </trkpt>
      <trkpt lat="38.82523" lon="-8.24387">
        <ele>121.152</ele>
        <time>2019-10-15T20:49:20Z</time>
      </trkpt>
      <trkpt lat="38.82534" lon="-8.24389">
        <ele>120.88</ele>
        <time>2019-10-15T20:49:40Z</time>
      </trkpt>
      <trkpt lat="38.82545" lon="-8.24392">
        <ele>120.222</ele>
        <time>2019-10-15T20:50:00Z</time>
      </trkpt>
      <trkpt lat="38.82593" lon="-8.24403">
        <ele>118.392</ele>
        <time>2019-10-15T20:50:20Z</time>
      </trkpt>
      <trkpt lat="38.82599" lon="-8.24405">
        <ele>118.154</ele>
        <time>2019-10-15T20:50:40Z</time>
      </trkpt>
      <trkpt lat="38.82637" lon="-8.24418">
        <ele>116.015</ele>
        <time>2019-10-15T20:51:00Z</time>
      </trkpt>
      <trkpt lat="38.82643" lon="-8.2442">
        <ele>115.637</ele>
        <time>2019-10-15T20:51:20Z</time>
      </trkpt>
      <trkpt lat="38.82656" lon="-8.24421">
        <ele>115.047</ele>
        <time>2019-10-15T20:51:40Z</time>
      </trkpt>
      <trkpt lat="38.82662" lon="-8.2442">
        <ele>114.922</ele>
        <time>2019-10-15T20:52:00Z</time>
      </trkpt>
      <trkpt lat="38.82669" lon="-8.24417">
        <ele>115.062</ele>
        <time>2019-10-15T20:52:20Z</time>
      </trkpt>
      <trkpt lat="38.82677" lon="-8.24414">
        <ele>115.208</ele>
        <time>2019-10-15T20:52:40Z</time>
      </trkpt>
      <trkpt lat="38.82684" lon="-8.24412">
        <ele>115.408</ele>
        <time>2019-10-15T20:53:00Z</time>
      </trkpt>
      <trkpt lat="38.82693" lon="-8.2441">
        <ele>115.526</ele>
        <time>2019-10-15T20:53:20Z</time>
      </trkpt>
      <trkpt lat="38.82718" lon="-8.24402">
        <ele>115.294</ele>
        <time>2019-10-15T20:53:40Z</time>
      </trkpt>
      <trkpt lat="38.82726" lon="-8.24397">
        <ele>114.986</ele>
        <time>2019-10-15T20:54:00Z</time>
      </trkpt>
      <trkpt lat="38.82733" lon="-8.24391">
        <ele>114.686</ele>
        <time>2019-10-15T20:54:20Z</time>
      </trkpt>
      <trkpt lat="38.82794" lon="-8.24321">
        <ele>114.538</ele>
        <time>2019-10-15T20:54:40Z</time>
      </trkpt>
      <trkpt lat="38.82802" lon="-8.24315">
        <ele>114.539</ele>
        <time>2019-10-15T20:55:00Z</time>
      </trkpt>
      <trkpt lat="38.82809" lon="-8.2431">
        <ele>114.241</ele>
        <time>2019-10-15T20:55:20Z</time>
      </trkpt>
      <trkpt lat="38.82883" lon="-8.24251">
        <ele>114.491</ele>
        <time>2019-10-15T20:55:40Z</time>
      </trkpt>
      <trkpt lat="38.82905" lon="-8.24235">
        <ele>113.971</ele>
        <time>2019-10-15T20:56:00Z</time>
      </trkpt>
      <trkpt lat="38.82931" lon="-8.24218">
        <ele>113.341</ele>
        <time>2019-10-15T20:56:20Z</time>
      </trkpt>
      <trkpt lat="38.82943" lon="-8.24208">
        <ele>113.115</ele>
        <time>2019-10-15T20:56:40Z</time>
      </trkpt>
      <trkpt lat="38.82968" lon="-8.24186">
        <ele>112.908</ele>
        <time>2019-10-15T20:57:00Z</time>
      </trkpt>
      <trkpt lat="38.82979" lon="-8.24173">
        <ele>113.351</ele>
        <time>2019-10-15T20:57:20Z</time>
      </trkpt>
      <trkpt lat="38.83028" lon="-8.24112">
        <ele>113.079</ele>
        <time>2019-10-15T20:57:40Z</time>
      </trkpt>
      <trkpt lat="38.83064" lon="-8.24077">
        <ele>112.491</ele>
        <time>2019-10-15T20:58:00Z</time>
      </trkpt>
      <trkpt lat="38.83076" lon="-8.24069">
        <ele>113.061</ele>
        <time>2019-10-15T20:58:20Z</time>
      </trkpt>
      <trkpt lat="38.83089" lon="-8.24062">
        <ele>113.823</ele>
        <time>2019-10-15T20:58:40Z</time>
      </trkpt>
      <trkpt lat="38.83103" lon="-8.24057">
        <ele>114.694</ele>
        <time>2019-10-15T20:59:00Z</time>
      </trkpt>
      <trkpt lat="38.83115" lon="-8.24054">
        <ele>115.246</ele>
        <time>2019-10-15T20:59:20Z</time>
      </trkpt>
      <trkpt lat="38.83126" lon="-8.24053">
        <ele>115.716</ele>
        <time>2019-10-15T20:59:40Z</time>
      </trkpt>
      <trkpt lat="38.83139" lon="-8.24053">
        <ele>116.112</ele>
        <time>2019-10-15T21:00:00Z</time>
      </trkpt>
      <trkpt lat="38.83143" lon="-8.24054">
        <ele>116.232</ele>
        <time>2019-10-15T21:00:20Z</time>
      </trkpt>
      <trkpt lat="38.83146" lon="-8.24056">
        <ele>116.205</ele>
        <time>2019-10-15T21:00:40Z</time>
      </trkpt>
      <trkpt lat="38.83149" lon="-8.2406">
        <ele>116.208</ele>
        <time>2019-10-15T21:01:00Z</time>
      </trkpt>
      <trkpt lat="38.83152" lon="-8.24065">
        <ele>116.145</ele>
        <time>2019-10-15T21:01:20Z</time>
      </trkpt>
      <trkpt lat="38.83154" lon="-8.24071">
        <ele>116.063</ele>
        <time>2019-10-15T21:01:40Z</time>
      </trkpt>
      <trkpt lat="38.83156" lon="-8.24079">
        <ele>115.895</ele>
        <time>2019-10-15T21:02:00Z</time>
      </trkpt>
      <trkpt lat="38.83155" lon="-8.24088">
        <ele>115.735</ele>
        <time>2019-10-15T21:02:20Z</time>
      </trkpt>
      <trkpt lat="38.83151" lon="-8.24098">
        <ele>116.027</ele>
        <time>2019-10-15T21:02:40Z</time>
      </trkpt>
      <trkpt lat="38.83146" lon="-8.2411">
        <ele>116.248</ele>
        <time>2019-10-15T21:03:00Z</time>
      </trkpt>
      <trkpt lat="38.8314" lon="-8.24124">
        <ele>116.56</ele>
        <time>2019-10-15T21:03:20Z</time>
      </trkpt>
      <trkpt lat="38.83127" lon="-8.24156">
        <ele>117.14</ele>
        <time>2019-10-15T21:03:40Z</time>
      </trkpt>
      <trkpt lat="38.83102" lon="-8.2424">
        <ele>115.969</ele>
        <time>2019-10-15T21:04:00Z</time>
      </trkpt>
      <trkpt lat="38.83102" lon="-8.24255">
        <ele>116.104</ele>
        <time>2019-10-15T21:04:20Z</time>
      </trkpt>
      <trkpt lat="38.83104" lon="-8.24269">
        <ele>116.424</ele>
        <time>2019-10-15T21:04:40Z</time>
      </trkpt>
      <trkpt lat="38.83109" lon="-8.24281">
        <ele>116.808</ele>
        <time>2019-10-15T21:05:00Z</time>
      </trkpt>
      <trkpt lat="38.83116" lon="-8.2429">
        <ele>117.02</ele>
        <time>2019-10-15T21:05:20Z</time>
      </trkpt>
      <trkpt lat="38.83125" lon="-8.24299">
        <ele>117.688</ele>
        <time>2019-10-15T21:05:40Z</time>
      </trkpt>
      <trkpt lat="38.83136" lon="-8.24308">
        <ele>118.56</ele>
        <time>2019-10-15T21:06:00Z</time>
      </trkpt>
      <trkpt lat="38.83148" lon="-8.24318">
        <ele>119.03</ele>
        <time>2019-10-15T21:06:20Z</time>
      </trkpt>
      <trkpt lat="38.832" lon="-8.24361">
        <ele>123.092</ele>
        <time>2019-10-15T21:06:40Z</time>
      </trkpt>
      <trkpt lat="38.83231" lon="-8.24379">
        <ele>123.183</ele>
        <time>2019-10-15T21:07:00Z</time>
      </trkpt>
      <trkpt lat="38.83265" lon="-8.244">
        <ele>121.725</ele>
        <time>2019-10-15T21:07:20Z</time>
      </trkpt>
      <trkpt lat="38.83316" lon="-8.2443">
        <ele>123.785</ele>
        <time>2019-10-15T21:07:40Z</time>
      </trkpt>
      <trkpt lat="38.83411" lon="-8.24457">
        <ele>124.866</ele>
        <time>2019-10-15T21:08:00Z</time>
      </trkpt>
      <trkpt lat="38.83443" lon="-8.24459">
        <ele>126.929</ele>
        <time>2019-10-15T21:08:20Z</time>
      </trkpt>
      <trkpt lat="38.83456" lon="-8.24462">
        <ele>127.021</ele>
        <time>2019-10-15T21:08:40Z</time>
      </trkpt>
      <trkpt lat="38.83468" lon="-8.24466">
        <ele>127.008</ele>
        <time>2019-10-15T21:09:00Z</time>
      </trkpt>
      <trkpt lat="38.83479" lon="-8.24469">
        <ele>127.21</ele>
        <time>2019-10-15T21:09:20Z</time>
      </trkpt>
      <trkpt lat="38.8349" lon="-8.2447">
        <ele>127.728</ele>
        <time>2019-10-15T21:09:40Z</time>
      </trkpt>
      <trkpt lat="38.83503" lon="-8.24467">
        <ele>128.01</ele>
        <time>2019-10-15T21:10:00Z</time>
      </trkpt>
      <trkpt lat="38.83517" lon="-8.24463">
        <ele>128.01</ele>
        <time>2019-10-15T21:10:20Z</time>
      </trkpt>
      <trkpt lat="38.83549" lon="-8.24458">
        <ele>127.682</ele>
        <time>2019-10-15T21:10:40Z</time>
      </trkpt>
      <trkpt lat="38.83617" lon="-8.24453">
        <ele>130.713</ele>
        <time>2019-10-15T21:11:00Z</time>
      </trkpt>
      <trkpt lat="38.83673" lon="-8.24454">
        <ele>132.595</ele>
        <time>2019-10-15T21:11:20Z</time>
      </trkpt>
      <trkpt lat="38.83692" lon="-8.24452">
        <ele>133.975</ele>
        <time>2019-10-15T21:11:40Z</time>
      </trkpt>
      <trkpt lat="38.8371" lon="-8.2445">
        <ele>135.115</ele>
        <time>2019-10-15T21:12:00Z</time>
      </trkpt>
      <trkpt lat="38.83724" lon="-8.2445">
        <ele>136.065</ele>
        <time>2019-10-15T21:12:20Z</time>
      </trkpt>
      <trkpt lat="38.83738" lon="-8.24453">
        <ele>135.811</ele>
        <time>2019-10-15T21:12:40Z</time>
      </trkpt>
      <trkpt lat="38.8375" lon="-8.24457">
        <ele>135.608</ele>
        <time>2019-10-15T21:13:00Z</time>
      </trkpt>
      <trkpt lat="38.8376" lon="-8.24463">
        <ele>135.335</ele>
        <time>2019-10-15T21:13:20Z</time>
      </trkpt>
      <trkpt lat="38.83769" lon="-8.24471">
        <ele>135.023</ele>
        <time>2019-10-15T21:13:40Z</time>
      </trkpt>
      <trkpt lat="38.83777" lon="-8.24481">
        <ele>135.045</ele>
        <time>2019-10-15T21:14:00Z</time>
      </trkpt>
      <trkpt lat="38.83784" lon="-8.24493">
        <ele>134.865</ele>
        <time>2019-10-15T21:14:20Z</time>
      </trkpt>
      <trkpt lat="38.83792" lon="-8.24508">
        <ele>134.227</ele>
        <time>2019-10-15T21:14:40Z</time>
      </trkpt>
      <trkpt lat="38.83798" lon="-8.24526">
        <ele>133.398</ele>
        <time>2019-10-15T21:15:00Z</time>
      </trkpt>
      <trkpt lat="38.83805" lon="-8.24546">
        <ele>131.74</ele>
        <time>2019-10-15T21:15:20Z</time>
      </trkpt>
      <trkpt lat="38.83842" lon="-8.24634">
        <ele>131.11</ele>
        <time>2019-10-15T21:15:40Z</time>
      </trkpt>
      <trkpt lat="38.83851" lon="-8.24655">
        <ele>130.297</ele>
        <time>2019-10-15T21:16:00Z</time>
      </trkpt>
      <trkpt lat="38.83868" lon="-8.24697">
        <ele>126.723</ele>
        <time>2019-10-15T21:16:20Z</time>
      </trkpt>
      <trkpt lat="38.83874" lon="-8.24721">
        <ele>126.125</ele>
        <time>2019-10-15T21:16:40Z</time>
      </trkpt>
      <trkpt lat="38.83878" lon="-8.24747">
        <ele>125.808</ele>
        <time>2019-10-15T21:17:00Z</time>
      </trkpt>
      <trkpt lat="38.83887" lon="-8.24826">
        <ele>124.793</ele>
        <time>2019-10-15T21:17:20Z</time>
      </trkpt>
      <trkpt lat="38.83893" lon="-8.24885">
        <ele>127.851</ele>
        <time>2019-10-15T21:17:40Z</time>
      </trkpt>
      <trkpt lat="38.83897" lon="-8.24901">
        <ele>128.393</ele>
        <time>2019-10-15T21:18:00Z</time>
      </trkpt>
      <trkpt lat="38.83903" lon="-8.24916">
        <ele>128.573</ele>
        <time>2019-10-15T21:18:20Z</time>
      </trkpt>
      <trkpt lat="38.8391" lon="-8.2493">
        <ele>128.285</ele>
        <time>2019-10-15T21:18:40Z</time>
      </trkpt>
      <trkpt lat="38.83927" lon="-8.24958">
        <ele>127.916</ele>
        <time>2019-10-15T21:19:00Z</time>
      </trkpt>
      <trkpt lat="38.83938" lon="-8.2497">
        <ele>127.578</ele>
        <time>2019-10-15T21:19:20Z</time>
      </trkpt>
      <trkpt lat="38.83951" lon="-8.24981">
        <ele>127.018</ele>
        <time>2019-10-15T21:19:40Z</time>
      </trkpt>
      <trkpt lat="38.83976" lon="-8.25001">
        <ele>125.972</ele>
        <time>2019-10-15T21:20:00Z</time>
      </trkpt>
      <trkpt lat="38.83986" lon="-8.25013">
        <ele>126.213</ele>
        <time>2019-10-15T21:20:20Z</time>
      </trkpt>
      <trkpt lat="38.83994" lon="-8.25027">
        <ele>126.914</ele>
        <time>2019-10-15T21:20:40Z</time>
      </trkpt>
      <trkpt lat="38.84001" lon="-8.25041">
        <ele>127.908</ele>
        <time>2019-10-15T21:21:00Z</time>
      </trkpt>
      <trkpt lat="38.84007" lon="-8.25056">
        <ele>129.041</ele>
        <time>2019-10-15T21:21:20Z</time>
      </trkpt>
      <trkpt lat="38.84013" lon="-8.25072">
        <ele>129.079</ele>
        <time>2019-10-15T21:21:40Z</time>
      </trkpt>
      <trkpt lat="38.84027" lon="-8.25114">
        <ele>126.961</ele>
        <time>2019-10-15T21:22:00Z</time>
      </trkpt>
      <trkpt lat="38.84034" lon="-8.25123">
        <ele>126.671</ele>
        <time>2019-10-15T21:22:20Z</time>
      </trkpt>
      <trkpt lat="38.84042" lon="-8.2513">
        <ele>126.393</ele>
        <time>2019-10-15T21:22:40Z</time>
      </trkpt>
      <trkpt lat="38.84063" lon="-8.25147">
        <ele>126.184</ele>
        <time>2019-10-15T21:23:00Z</time>
      </trkpt>
      <trkpt lat="38.84075" lon="-8.25158">
        <ele>126.596</ele>
        <time>2019-10-15T21:23:20Z</time>
      </trkpt>
      <trkpt lat="38.84085" lon="-8.2517">
        <ele>127.176</ele>
        <time>2019-10-15T21:23:40Z</time>
      </trkpt>
      <trkpt lat="38.84103" lon="-8.2519">
        <ele>128.329</ele>
        <time>2019-10-15T21:24:00Z</time>
      </trkpt>
      <trkpt lat="38.84112" lon="-8.25196">
        <ele>129.1</ele>
        <time>2019-10-15T21:24:20Z</time>
      </trkpt>
      <trkpt lat="38.84122" lon="-8.25199">
        <ele>129.82</ele>
        <time>2019-10-15T21:24:40Z</time>
      </trkpt>
      <trkpt lat="38.84133" lon="-8.252">
        <ele>130.608</ele>
        <time>2019-10-15T21:25:00Z</time>
      </trkpt>
      <trkpt lat="38.84146" lon="-8.252">
        <ele>131.226</ele>
        <time>2019-10-15T21:25:20Z</time>
      </trkpt>
      <trkpt lat="38.84158" lon="-8.25198">
        <ele>131.714</ele>
        <time>2019-10-15T21:25:40Z</time>
      </trkpt>
      <trkpt lat="38.84171" lon="-8.25195">
        <ele>131.916</ele>
        <time>2019-10-15T21:26:00Z</time>
      </trkpt>
      <trkpt lat="38.84185" lon="-8.25192">
        <ele>131.326</ele>
        <time>2019-10-15T21:26:20Z</time>
      </trkpt>
      <trkpt lat="38.842" lon="-8.25191">
        <ele>130.918</ele>
        <time>2019-10-15T21:26:40Z</time>
      </trkpt>
      <trkpt lat="38.84216" lon="-8.25191">
        <ele>130.959</ele>
        <time>2019-10-15T21:27:00Z</time>
      </trkpt>
      <trkpt lat="38.84339" lon="-8.25192">
        <ele>124.191</ele>
        <time>2019-10-15T21:27:20Z</time>
      </trkpt>
      <trkpt lat="38.84404" lon="-8.25189">
        <ele>125.011</ele>
        <time>2019-10-15T21:27:40Z</time>
      </trkpt>
      <trkpt lat="38.84437" lon="-8.25184">
        <ele>124.362</ele>
        <time>2019-10-15T21:28:00Z</time>
      </trkpt>
      <trkpt lat="38.84454" lon="-8.25183">
        <ele>124.083</ele>
        <time>2019-10-15T21:28:20Z</time>
      </trkpt>
      <trkpt lat="38.84471" lon="-8.25184">
        <ele>124.011</ele>
        <time>2019-10-15T21:28:40Z</time>
      </trkpt>
      <trkpt lat="38.84616" lon="-8.25209">
        <ele>123.108</ele>
        <time>2019-10-15T21:29:00Z</time>
      </trkpt>
      <trkpt lat="38.84699" lon="-8.25234">
        <ele>119.59</ele>
        <time>2019-10-15T21:29:20Z</time>
      </trkpt>
      <trkpt lat="38.84715" lon="-8.25243">
        <ele>119.998</ele>
        <time>2019-10-15T21:29:40Z</time>
      </trkpt>
      <trkpt lat="38.84731" lon="-8.25255">
        <ele>119.77</ele>
        <time>2019-10-15T21:30:00Z</time>
      </trkpt>
      <trkpt lat="38.84881" lon="-8.25357">
        <ele>117.91</ele>
        <time>2019-10-15T21:30:20Z</time>
      </trkpt>
      <trkpt lat="38.84917" lon="-8.25377">
        <ele>116.672</ele>
        <time>2019-10-15T21:30:40Z</time>
      </trkpt>
      <trkpt lat="38.8495" lon="-8.25392">
        <ele>117.133</ele>
        <time>2019-10-15T21:31:00Z</time>
      </trkpt>
      <trkpt lat="38.84968" lon="-8.25396">
        <ele>117.225</ele>
        <time>2019-10-15T21:31:20Z</time>
      </trkpt>
      <trkpt lat="38.85046" lon="-8.25406">
        <ele>114.665</ele>
        <time>2019-10-15T21:31:40Z</time>
      </trkpt>
      <trkpt lat="38.8506" lon="-8.25411">
        <ele>114.834</ele>
        <time>2019-10-15T21:32:00Z</time>
      </trkpt>
      <trkpt lat="38.85091" lon="-8.25426">
        <ele>114.755</ele>
        <time>2019-10-15T21:32:20Z</time>
      </trkpt>
      <trkpt lat="38.85117" lon="-8.25443">
        <ele>112.81</ele>
        <time>2019-10-15T21:32:40Z</time>
      </trkpt>
      <trkpt lat="38.85128" lon="-8.25455">
        <ele>112.508</ele>
        <time>2019-10-15T21:33:00Z</time>
      </trkpt>
      <trkpt lat="38.8514" lon="-8.25469">
        <ele>112.057</ele>
        <time>2019-10-15T21:33:20Z</time>
      </trkpt>
      <trkpt lat="38.85167" lon="-8.25503">
        <ele>112.965</ele>
        <time>2019-10-15T21:33:40Z</time>
      </trkpt>
      <trkpt lat="38.85222" lon="-8.25572">
        <ele>110.437</ele>
        <time>2019-10-15T21:34:00Z</time>
      </trkpt>
      <trkpt lat="38.85307" lon="-8.25643">
        <ele>109.867</ele>
        <time>2019-10-15T21:34:20Z</time>
      </trkpt>
      <trkpt lat="38.85334" lon="-8.25658">
        <ele>110.769</ele>
        <time>2019-10-15T21:34:40Z</time>
      </trkpt>
      <trkpt lat="38.8535" lon="-8.25662">
        <ele>111.57</ele>
        <time>2019-10-15T21:35:00Z</time>
      </trkpt>
      <trkpt lat="38.85399" lon="-8.25671">
        <ele>112.452</ele>
        <time>2019-10-15T21:35:20Z</time>
      </trkpt>
      <trkpt lat="38.85417" lon="-8.25677">
        <ele>113.052</ele>
        <time>2019-10-15T21:35:40Z</time>
      </trkpt>
      <trkpt lat="38.85456" lon="-8.25693">
        <ele>114.051</ele>
        <time>2019-10-15T21:36:00Z</time>
      </trkpt>
      <trkpt lat="38.85516" lon="-8.25719">
        <ele>113.001</ele>
        <time>2019-10-15T21:36:20Z</time>
      </trkpt>
      <trkpt lat="38.85532" lon="-8.25725">
        <ele>113.011</ele>
        <time>2019-10-15T21:36:40Z</time>
      </trkpt>
      <trkpt lat="38.85562" lon="-8.25736">
        <ele>113.208</ele>
        <time>2019-10-15T21:37:00Z</time>
      </trkpt>
      <trkpt lat="38.85591" lon="-8.2575">
        <ele>114.319</ele>
        <time>2019-10-15T21:37:20Z</time>
      </trkpt>
      <trkpt lat="38.85607" lon="-8.25754">
        <ele>114.657</ele>
        <time>2019-10-15T21:37:40Z</time>
      </trkpt>
      <trkpt lat="38.85623" lon="-8.25756">
        <ele>114.549</ele>
        <time>2019-10-15T21:38:00Z</time>
      </trkpt>
      <trkpt lat="38.85669" lon="-8.25757">
        <ele>114.679</ele>
        <time>2019-10-15T21:38:20Z</time>
      </trkpt>
      <trkpt lat="38.85679" lon="-8.25758">
        <ele>115.031</ele>
        <time>2019-10-15T21:38:40Z</time>
      </trkpt>
      <trkpt lat="38.85686" lon="-8.2576">
        <ele>115.212</ele>
        <time>2019-10-15T21:39:00Z</time>
      </trkpt>
      <trkpt lat="38.8569" lon="-8.25764">
        <ele>115.244</ele>
        <time>2019-10-15T21:39:20Z</time>
      </trkpt>
      <trkpt lat="38.85694" lon="-8.2577">
        <ele>115.264</ele>
        <time>2019-10-15T21:39:40Z</time>
      </trkpt>
      <trkpt lat="38.85698" lon="-8.25777">
        <ele>115.494</ele>
        <time>2019-10-15T21:40:00Z</time>
      </trkpt>
      <trkpt lat="38.85707" lon="-8.25796">
        <ele>117.057</ele>
        <time>2019-10-15T21:40:20Z</time>
      </trkpt>
      <trkpt lat="38.85711" lon="-8.25807">
        <ele>117.822</ele>
        <time>2019-10-15T21:40:40Z</time>
      </trkpt>
      <trkpt lat="38.85714" lon="-8.25819">
        <ele>119.008</ele>
        <time>2019-10-15T21:41:00Z</time>
      </trkpt>
      <trkpt lat="38.85719" lon="-8.25832">
        <ele>120.533</ele>
        <time>2019-10-15T21:41:20Z</time>
      </trkpt>
      <trkpt lat="38.85725" lon="-8.25845">
        <ele>121.251</ele>
        <time>2019-10-15T21:41:40Z</time>
      </trkpt>
      <trkpt lat="38.8573" lon="-8.25858">
        <ele>121.383</ele>
        <time>2019-10-15T21:42:00Z</time>
      </trkpt>
      <trkpt lat="38.85733" lon="-8.2587">
        <ele>121.453</ele>
        <time>2019-10-15T21:42:20Z</time>
      </trkpt>
      <trkpt lat="38.85734" lon="-8.25883">
        <ele>121.455</ele>
        <time>2019-10-15T21:42:40Z</time>
      </trkpt>
      <trkpt lat="38.85733" lon="-8.25897">
        <ele>121.346</ele>
        <time>2019-10-15T21:43:00Z</time>
      </trkpt>
      <trkpt lat="38.85729" lon="-8.25912">
        <ele>121.098</ele>
        <time>2019-10-15T21:43:20Z</time>
      </trkpt>
      <trkpt lat="38.85725" lon="-8.25928">
        <ele>121.448</ele>
        <time>2019-10-15T21:43:40Z</time>
      </trkpt>
      <trkpt lat="38.8572" lon="-8.25944">
        <ele>121.821</ele>
        <time>2019-10-15T21:44:00Z</time>
      </trkpt>
      <trkpt lat="38.85712" lon="-8.25973">
        <ele>121.641</ele>
        <time>2019-10-15T21:44:20Z</time>
      </trkpt>
      <trkpt lat="38.8571" lon="-8.25989">
        <ele>121.605</ele>
        <time>2019-10-15T21:44:40Z</time>
      </trkpt>
      <trkpt lat="38.8571" lon="-8.26005">
        <ele>121.508</ele>
        <time>2019-10-15T21:45:00Z</time>
      </trkpt>
      <trkpt lat="38.85711" lon="-8.26021">
        <ele>121.326</ele>
        <time>2019-10-15T21:45:20Z</time>
      </trkpt>
      <trkpt lat="38.85713" lon="-8.26036">
        <ele>121.124</ele>
        <time>2019-10-15T21:45:40Z</time>
      </trkpt>
      <trkpt lat="38.85718" lon="-8.26051">
        <ele>121.036</ele>
        <time>2019-10-15T21:46:00Z</time>
      </trkpt>
      <trkpt lat="38.85724" lon="-8.26066">
        <ele>120.766</ele>
        <time>2019-10-15T21:46:20Z</time>
      </trkpt>
      <trkpt lat="38.85732" lon="-8.2608">
        <ele>120.558</ele>
        <time>2019-10-15T21:46:40Z</time>
      </trkpt>
      <trkpt lat="38.8574" lon="-8.26092">
        <ele>120.379</ele>
        <time>2019-10-15T21:47:00Z</time>
      </trkpt>
      <trkpt lat="38.85746" lon="-8.26104">
        <ele>120.131</ele>
        <time>2019-10-15T21:47:20Z</time>
      </trkpt>
      <trkpt lat="38.8575" lon="-8.26115">
        <ele>120.061</ele>
        <time>2019-10-15T21:47:40Z</time>
      </trkpt>
      <trkpt lat="38.85752" lon="-8.26127">
        <ele>120.049</ele>
        <time>2019-10-15T21:48:00Z</time>
      </trkpt>
      <trkpt lat="38.85753" lon="-8.26141">
        <ele>120.002</ele>
        <time>2019-10-15T21:48:20Z</time>
      </trkpt>
      <trkpt lat="38.85752" lon="-8.26157">
        <ele>120.022</ele>
        <time>2019-10-15T21:48:40Z</time>
      </trkpt>
      <trkpt lat="38.85753" lon="-8.26175">
        <ele>119.708</ele>
        <time>2019-10-15T21:49:00Z</time>
      </trkpt>
      <trkpt lat="38.85754" lon="-8.26193">
        <ele>119.058</ele>
        <time>2019-10-15T21:49:20Z</time>
      </trkpt>
      <trkpt lat="38.85756" lon="-8.26211">
        <ele>118.426</ele>
        <time>2019-10-15T21:49:40Z</time>
      </trkpt>
      <trkpt lat="38.85757" lon="-8.26228">
        <ele>117.968</ele>
        <time>2019-10-15T21:50:00Z</time>
      </trkpt>
      <trkpt lat="38.85756" lon="-8.26244">
        <ele>117.788</ele>
        <time>2019-10-15T21:50:20Z</time>
      </trkpt>
      <trkpt lat="38.85754" lon="-8.26258">
        <ele>117.58</ele>
        <time>2019-10-15T21:50:40Z</time>
      </trkpt>
      <trkpt lat="38.85753" lon="-8.26272">
        <ele>117.191</ele>
        <time>2019-10-15T21:51:00Z</time>
      </trkpt>
      <trkpt lat="38.85754" lon="-8.26284">
        <ele>116.693</ele>
        <time>2019-10-15T21:51:20Z</time>
      </trkpt>
      <trkpt lat="38.85758" lon="-8.26295">
        <ele>116.113</ele>
        <time>2019-10-15T21:51:40Z</time>
      </trkpt>
      <trkpt lat="38.8576" lon="-8.26306">
        <ele>115.678</ele>
        <time>2019-10-15T21:52:00Z</time>
      </trkpt>
      <trkpt lat="38.85762" lon="-8.26316">
        <ele>115.233</ele>
        <time>2019-10-15T21:52:20Z</time>
      </trkpt>
      <trkpt lat="38.85761" lon="-8.26326">
        <ele>114.826</ele>
        <time>2019-10-15T21:52:40Z</time>
      </trkpt>
      <trkpt lat="38.8576" lon="-8.26335">
        <ele>114.608</ele>
        <time>2019-10-15T21:53:00Z</time>
      </trkpt>
      <trkpt lat="38.85759" lon="-8.26341">
        <ele>114.321</ele>
        <time>2019-10-15T21:53:20Z</time>
      </trkpt>
      <trkpt lat="38.85759" lon="-8.26344">
        <ele>114.289</ele>
        <time>2019-10-15T21:53:40Z</time>
      </trkpt>
      <trkpt lat="38.85756" lon="-8.26342">
        <ele>114.391</ele>
        <time>2019-10-15T21:54:00Z</time>
      </trkpt>
      <trkpt lat="38.85756" lon="-8.2634">
        <ele>114.431</ele>
        <time>2019-10-15T21:54:20Z</time>
      </trkpt>
      <trkpt lat="38.85756" lon="-8.26338">
        <ele>114.513</ele>
        <time>2019-10-15T21:54:40Z</time>
      </trkpt>
      <trkpt lat="38.85757" lon="-8.26336">
        <ele>114.614</ele>
        <time>2019-10-15T21:55:00Z</time>
      </trkpt>
      <trkpt lat="38.85757" lon="-8.26335">
        <ele>114.656</ele>
        <time>2019-10-15T21:55:20Z</time>
      </trkpt>
      <trkpt lat="38.85761" lon="-8.26341">
        <ele>114.336</ele>
        <time>2019-10-15T21:55:40Z</time>
      </trkpt>
      <trkpt lat="38.85762" lon="-8.26345">
        <ele>114.126</ele>
        <time>2019-10-15T21:56:00Z</time>
      </trkpt>
      <trkpt lat="38.85763" lon="-8.26351">
        <ele>113.947</ele>
        <time>2019-10-15T21:56:20Z</time>
      </trkpt>
      <trkpt lat="38.85767" lon="-8.26357">
        <ele>113.711</ele>
        <time>2019-10-15T21:56:40Z</time>
      </trkpt>
      <trkpt lat="38.85772" lon="-8.26362">
        <ele>113.808</ele>
        <time>2019-10-15T21:57:00Z</time>
      </trkpt>
      <trkpt lat="38.85778" lon="-8.26365">
        <ele>114.046</ele>
        <time>2019-10-15T21:57:20Z</time>
      </trkpt>
      <trkpt lat="38.85786" lon="-8.26366">
        <ele>113.884</ele>
        <time>2019-10-15T21:57:40Z</time>
      </trkpt>
      <trkpt lat="38.85794" lon="-8.26363">
        <ele>113.596</ele>
        <time>2019-10-15T21:58:00Z</time>
      </trkpt>
      <trkpt lat="38.85803" lon="-8.26359">
        <ele>113.056</ele>
        <time>2019-10-15T21:58:20Z</time>
      </trkpt>
      <trkpt lat="38.85814" lon="-8.26353">
        <ele>112.658</ele>
        <time>2019-10-15T21:58:40Z</time>
      </trkpt>
      <trkpt lat="38.85874" lon="-8.2633">
        <ele>111.119</ele>
        <time>2019-10-15T21:59:00Z</time>
      </trkpt>
      <trkpt lat="38.85897" lon="-8.26319">
        <ele>109.521</ele>
        <time>2019-10-15T21:59:20Z</time>
      </trkpt>
      <trkpt lat="38.85904" lon="-8.26311">
        <ele>108.261</ele>
        <time>2019-10-15T21:59:40Z</time>
      </trkpt>
      <trkpt lat="38.85911" lon="-8.26301">
        <ele>107.085</ele>
        <time>2019-10-15T22:00:00Z</time>
      </trkpt>
      <trkpt lat="38.85918" lon="-8.26289">
        <ele>106.389</ele>
        <time>2019-10-15T22:00:20Z</time>
      </trkpt>
      <trkpt lat="38.85927" lon="-8.26277">
        <ele>105.717</ele>
        <time>2019-10-15T22:00:40Z</time>
      </trkpt>
      <trkpt lat="38.85966" lon="-8.26221">
        <ele>103.208</ele>
        <time>2019-10-15T22:01:00Z</time>
      </trkpt>
      <trkpt lat="38.85976" lon="-8.26208">
        <ele>102.232</ele>
        <time>2019-10-15T22:01:20Z</time>
      </trkpt>
      <trkpt lat="38.85987" lon="-8.26197">
        <ele>101.04</ele>
        <time>2019-10-15T22:01:40Z</time>
      </trkpt>
      <trkpt lat="38.86" lon="-8.26187">
        <ele>100.092</ele>
        <time>2019-10-15T22:02:00Z</time>
      </trkpt>
      <trkpt lat="38.86092" lon="-8.26134">
        <ele>93.962</ele>
        <time>2019-10-15T22:02:20Z</time>
      </trkpt>
      <trkpt lat="38.86149" lon="-8.26096">
        <ele>90.954</ele>
        <time>2019-10-15T22:02:40Z</time>
      </trkpt>
      <trkpt lat="38.86167" lon="-8.26084">
        <ele>89.035</ele>
        <time>2019-10-15T22:03:00Z</time>
      </trkpt>
      <trkpt lat="38.86177" lon="-8.26077">
        <ele>88.257</ele>
        <time>2019-10-15T22:03:20Z</time>
      </trkpt>
      <trkpt lat="38.86178" lon="-8.26075">
        <ele>88.177</ele>
        <time>2019-10-15T22:03:40Z</time>
      </trkpt>
      <trkpt lat="38.86182" lon="-8.26064">
        <ele>87.549</ele>
        <time>2019-10-15T22:04:00Z</time>
      </trkpt>
      <trkpt lat="38.86187" lon="-8.26048">
        <ele>86.902</ele>
        <time>2019-10-15T22:04:20Z</time>
      </trkpt>
      <trkpt lat="38.86192" lon="-8.26038">
        <ele>86.422</ele>
        <time>2019-10-15T22:04:40Z</time>
      </trkpt>
      <trkpt lat="38.86198" lon="-8.26029">
        <ele>85.908</ele>
        <time>2019-10-15T22:05:00Z</time>
      </trkpt>
      <trkpt lat="38.86206" lon="-8.26022">
        <ele>85.868</ele>
        <time>2019-10-15T22:05:20Z</time>
      </trkpt>
      <trkpt lat="38.86215" lon="-8.26014">
        <ele>85.856</ele>
        <time>2019-10-15T22:05:40Z</time>
      </trkpt>
      <trkpt lat="38.86225" lon="-8.26008">
        <ele>85.748</ele>
        <time>2019-10-15T22:06:00Z</time>
      </trkpt>
      <trkpt lat="38.86235" lon="-8.26002">
        <ele>85.938</ele>
        <time>2019-10-15T22:06:20Z</time>
      </trkpt>
      <trkpt lat="38.86244" lon="-8.25999">
        <ele>86.19</ele>
        <time>2019-10-15T22:06:40Z</time>
      </trkpt>
      <trkpt lat="38.86255" lon="-8.25997">
        <ele>85.751</ele>
        <time>2019-10-15T22:07:00Z</time>
      </trkpt>
      <trkpt lat="38.86268" lon="-8.25997">
        <ele>84.873</ele>
        <time>2019-10-15T22:07:20Z</time>
      </trkpt>
      <trkpt lat="38.86281" lon="-8.25997">
        <ele>83.963</ele>
        <time>2019-10-15T22:07:40Z</time>
      </trkpt>
      <trkpt lat="38.86395" lon="-8.25983">
        <ele>78.979</ele>
        <time>2019-10-15T22:08:00Z</time>
      </trkpt>
      <trkpt lat="38.86411" lon="-8.2598">
        <ele>78.405</ele>
        <time>2019-10-15T22:08:20Z</time>
      </trkpt>
      <trkpt lat="38.86493" lon="-8.2595">
        <ele>73.325</ele>
        <time>2019-10-15T22:08:40Z</time>
      </trkpt>
      <trkpt lat="38.86565" lon="-8.25929">
        <ele>70.108</ele>
        <time>2019-10-15T22:09:00Z</time>
      </trkpt>
      <trkpt lat="38.86581" lon="-8.25925">
        <ele>69.841</ele>
        <time>2019-10-15T22:09:20Z</time>
      </trkpt>
      <trkpt lat="38.86597" lon="-8.2592">
        <ele>69.979</ele>
        <time>2019-10-15T22:09:40Z</time>
      </trkpt>
      <trkpt lat="38.86613" lon="-8.25916">
        <ele>70.211</ele>
        <time>2019-10-15T22:10:00Z</time>
      </trkpt>
      <trkpt lat="38.8663" lon="-8.25911">
        <ele>72.061</ele>
        <time>2019-10-15T22:10:20Z</time>
      </trkpt>
      <trkpt lat="38.86671" lon="-8.259">
        <ele>75.583</ele>
        <time>2019-10-15T22:10:40Z</time>
      </trkpt>
      <trkpt lat="38.86686" lon="-8.25894">
        <ele>77.754</ele>
        <time>2019-10-15T22:11:00Z</time>
      </trkpt>
      <trkpt lat="38.86689" lon="-8.25889">
        <ele>78.336</ele>
        <time>2019-10-15T22:11:20Z</time>
      </trkpt>
      <trkpt lat="38.8669" lon="-8.25883">
        <ele>78.246</ele>
        <time>2019-10-15T22:11:40Z</time>
      </trkpt>
      <trkpt lat="38.86688" lon="-8.25875">
        <ele>77.831</ele>
        <time>2019-10-15T22:12:00Z</time>
      </trkpt>
      <trkpt lat="38.86685" lon="-8.25866">
        <ele>77.161</ele>
        <time>2019-10-15T22:12:20Z</time>
      </trkpt>
      <trkpt lat="38.86681" lon="-8.25854">
        <ele>76.607</ele>
        <time>2019-10-15T22:12:40Z</time>
      </trkpt>
      <trkpt lat="38.86671" lon="-8.25822">
        <ele>75.708</ele>
        <time>2019-10-15T22:13:00Z</time>
      </trkpt>
      <trkpt lat="38.86651" lon="-8.25765">
        <ele>77.997</ele>
        <time>2019-10-15T22:13:20Z</time>
      </trkpt>
      <trkpt lat="38.86604" lon="-8.2566">
        <ele>79.925</ele>
        <time>2019-10-15T22:13:40Z</time>
      </trkpt>
      <trkpt lat="38.86589" lon="-8.25624">
        <ele>81.277</ele>
        <time>2019-10-15T22:14:00Z</time>
      </trkpt>
      <trkpt lat="38.86587" lon="-8.25613">
        <ele>81.537</ele>
        <time>2019-10-15T22:14:20Z</time>
      </trkpt>
      <trkpt lat="38.8658" lon="-8.25563">
        <ele>83.069</ele>
        <time>2019-10-15T22:14:40Z</time>
      </trkpt>
      <trkpt lat="38.86578" lon="-8.25551">
        <ele>83.38</ele>
        <time>2019-10-15T22:15:00Z</time>
      </trkpt>
      <trkpt lat="38.86578" lon="-8.2554">
        <ele>83.292</ele>
        <time>2019-10-15T22:15:20Z</time>
      </trkpt>
      <trkpt lat="38.86579" lon="-8.2553">
        <ele>83.342</ele>
        <time>2019-10-15T22:15:40Z</time>
      </trkpt>
      <trkpt lat="38.86581" lon="-8.25519">
        <ele>83.425</ele>
        <time>2019-10-15T22:16:00Z</time>
      </trkpt>
      <trkpt lat="38.86585" lon="-8.25509">
        <ele>83.426</ele>
        <time>2019-10-15T22:16:20Z</time>
      </trkpt>
      <trkpt lat="38.8659" lon="-8.25499">
        <ele>83.408</ele>
        <time>2019-10-15T22:16:40Z</time>
      </trkpt>
      <trkpt lat="38.86596" lon="-8.25489">
        <ele>83.108</ele>
        <time>2019-10-15T22:17:00Z</time>
      </trkpt>
      <trkpt lat="38.86603" lon="-8.25481">
        <ele>83.196</ele>
        <time>2019-10-15T22:17:20Z</time>
      </trkpt>
      <trkpt lat="38.86611" lon="-8.25474">
        <ele>83.144</ele>
        <time>2019-10-15T22:17:40Z</time>
      </trkpt>
      <trkpt lat="38.8662" lon="-8.25468">
        <ele>82.996</ele>
        <time>2019-10-15T22:18:00Z</time>
      </trkpt>
      <trkpt lat="38.86629" lon="-8.25462">
        <ele>82.886</ele>
        <time>2019-10-15T22:18:20Z</time>
      </trkpt>
      <trkpt lat="38.86699" lon="-8.25424">
        <ele>84.618</ele>
        <time>2019-10-15T22:18:40Z</time>
      </trkpt>
      <trkpt lat="38.86743" lon="-8.25403">
        <ele>84.829</ele>
        <time>2019-10-15T22:19:00Z</time>
      </trkpt>
      <trkpt lat="38.86759" lon="-8.25394">
        <ele>85.191</ele>
        <time>2019-10-15T22:19:20Z</time>
      </trkpt>
      <trkpt lat="38.86839" lon="-8.25351">
        <ele>90.661</ele>
        <time>2019-10-15T22:19:40Z</time>
      </trkpt>
      <trkpt lat="38.86855" lon="-8.25347">
        <ele>91.128</ele>
        <time>2019-10-15T22:20:00Z</time>
      </trkpt>
      <trkpt lat="38.86891" lon="-8.25343">
        <ele>91.889</ele>
        <time>2019-10-15T22:20:20Z</time>
      </trkpt>
      <trkpt lat="38.8693" lon="-8.25338">
        <ele>93.917</ele>
        <time>2019-10-15T22:20:40Z</time>
      </trkpt>
      <trkpt lat="38.86971" lon="-8.25335">
        <ele>95.008</ele>
        <time>2019-10-15T22:21:00Z</time>
      </trkpt>
      <trkpt lat="38.86992" lon="-8.25334">
        <ele>95.796</ele>
        <time>2019-10-15T22:21:20Z</time>
      </trkpt>
      <trkpt lat="38.87072" lon="-8.25325">
        <ele>99.714</ele>
        <time>2019-10-15T22:21:40Z</time>
      </trkpt>
      <trkpt lat="38.87093" lon="-8.25321">
        <ele>102.426</ele>
        <time>2019-10-15T22:22:00Z</time>
      </trkpt>
      <trkpt lat="38.8725" lon="-8.25291">
        <ele>110.196</ele>
        <time>2019-10-15T22:22:20Z</time>
      </trkpt>
      <trkpt lat="38.87263" lon="-8.25287">
        <ele>111.988</ele>
        <time>2019-10-15T22:22:40Z</time>
      </trkpt>
      <trkpt lat="38.87273" lon="-8.2528">
        <ele>113.449</ele>
        <time>2019-10-15T22:23:00Z</time>
      </trkpt>
      <trkpt lat="38.87282" lon="-8.25271">
        <ele>114.461</ele>
        <time>2019-10-15T22:23:20Z</time>
      </trkpt>
      <trkpt lat="38.873" lon="-8.25248">
        <ele>115.111</ele>
        <time>2019-10-15T22:23:40Z</time>
      </trkpt>
      <trkpt lat="38.87315" lon="-8.25223">
        <ele>116.386</ele>
        <time>2019-10-15T22:24:00Z</time>
      </trkpt>
      <trkpt lat="38.8732" lon="-8.2521">
        <ele>117.16</ele>
        <time>2019-10-15T22:24:20Z</time>
      </trkpt>
      <trkpt lat="38.87322" lon="-8.25199">
        <ele>117.826</ele>
        <time>2019-10-15T22:24:40Z</time>
      </trkpt>
      <trkpt lat="38.87324" lon="-8.25187">
        <ele>118.208</ele>
        <time>2019-10-15T22:25:00Z</time>
      </trkpt>
      <trkpt lat="38.87323" lon="-8.25173">
        <ele>118.562</ele>
        <time>2019-10-15T22:25:20Z</time>
      </trkpt>
      <trkpt lat="38.8732" lon="-8.25158">
        <ele>118.81</ele>
        <time>2019-10-15T22:25:40Z</time>
      </trkpt>
      <trkpt lat="38.87317" lon="-8.2514">
        <ele>119.482</ele>
        <time>2019-10-15T22:26:00Z</time>
      </trkpt>
      <trkpt lat="38.87316" lon="-8.25121">
        <ele>119.432</ele>
        <time>2019-10-15T22:26:20Z</time>
      </trkpt>
      <trkpt lat="38.87316" lon="-8.25101">
        <ele>119.724</ele>
        <time>2019-10-15T22:26:40Z</time>
      </trkpt>
      <trkpt lat="38.87317" lon="-8.25081">
        <ele>120.425</ele>
        <time>2019-10-15T22:27:00Z</time>
      </trkpt>
      <trkpt lat="38.87319" lon="-8.2506">
        <ele>120.967</ele>
        <time>2019-10-15T22:27:20Z</time>
      </trkpt>
      <trkpt lat="38.87322" lon="-8.25042">
        <ele>121.737</ele>
        <time>2019-10-15T22:27:40Z</time>
      </trkpt>
      <trkpt lat="38.87328" lon="-8.25015">
        <ele>123.131</ele>
        <time>2019-10-15T22:28:00Z</time>
      </trkpt>
      <trkpt lat="38.87332" lon="-8.25007">
        <ele>123.761</ele>
        <time>2019-10-15T22:28:20Z</time>
      </trkpt>
      <trkpt lat="38.87338" lon="-8.25001">
        <ele>124.107</ele>
        <time>2019-10-15T22:28:40Z</time>
      </trkpt>
      <trkpt lat="38.87345" lon="-8.24996">
        <ele>124.608</ele>
        <time>2019-10-15T22:29:00Z</time>
      </trkpt>
      <trkpt lat="38.87354" lon="-8.24992">
        <ele>125.067</ele>
        <time>2019-10-15T22:29:20Z</time>
      </trkpt>
      <trkpt lat="38.87364" lon="-8.24989">
        <ele>125.525</ele>
        <time>2019-10-15T22:29:40Z</time>
      </trkpt>
      <trkpt lat="38.87439" lon="-8.24971">
        <ele>126.927</ele>
        <time>2019-10-15T22:30:00Z</time>
      </trkpt>
      <trkpt lat="38.87536" lon="-8.24915">
        <ele>125.047</ele>
        <time>2019-10-15T22:30:20Z</time>
      </trkpt>
      <trkpt lat="38.87546" lon="-8.24908">
        <ele>124.949</ele>
        <time>2019-10-15T22:30:40Z</time>
      </trkpt>
      <trkpt lat="38.87624" lon="-8.24856">
        <ele>127.02</ele>
        <time>2019-10-15T22:31:00Z</time>
      </trkpt>
      <trkpt lat="38.87657" lon="-8.24829">
        <ele>127.092</ele>
        <time>2019-10-15T22:31:20Z</time>
      </trkpt>
      <trkpt lat="38.87666" lon="-8.24819">
        <ele>127.082</ele>
        <time>2019-10-15T22:31:40Z</time>
      </trkpt>
      <trkpt lat="38.87674" lon="-8.24809">
        <ele>126.745</ele>
        <time>2019-10-15T22:32:00Z</time>
      </trkpt>
      <trkpt lat="38.8768" lon="-8.24797">
        <ele>126.547</ele>
        <time>2019-10-15T22:32:20Z</time>
      </trkpt>
      <trkpt lat="38.87684" lon="-8.24783">
        <ele>126.411</ele>
        <time>2019-10-15T22:32:40Z</time>
      </trkpt>
      <trkpt lat="38.87687" lon="-8.2477">
        <ele>126.408</ele>
        <time>2019-10-15T22:33:00Z</time>
      </trkpt>
      <trkpt lat="38.87699" lon="-8.24753">
        <ele>125.818</ele>
        <time>2019-10-15T22:33:20Z</time>
      </trkpt>
      <trkpt lat="38.8771" lon="-8.2474">
        <ele>125.666</ele>
        <time>2019-10-15T22:33:40Z</time>
      </trkpt>
      <trkpt lat="38.87721" lon="-8.24726">
        <ele>125.118</ele>
        <time>2019-10-15T22:34:00Z</time>
      </trkpt>
      <trkpt lat="38.87692" lon="-8.24654">
        <ele>126.048</ele>
        <time>2019-10-15T22:34:20Z</time>
      </trkpt>
      <trkpt lat="38.87535" lon="-8.24514">
        <ele>129.11</ele>
        <time>2019-10-15T22:34:40Z</time>
      </trkpt>
      <trkpt lat="38.87485" lon="-8.24024">
        <ele>130.411</ele>
        <time>2019-10-15T22:35:00Z</time>
      </trkpt>
      <trkpt lat="38.87252" lon="-8.23674">
        <ele>131.643</ele>
        <time>2019-10-15T22:35:20Z</time>
      </trkpt>
      <trkpt lat="38.87334" lon="-8.23013">
        <ele>141.073</ele>
        <time>2019-10-15T22:35:40Z</time>
      </trkpt>
      <trkpt lat="38.87227" lon="-8.22905">
        <ele>139.718</ele>
        <time>2019-10-15T22:36:00Z</time>
      </trkpt>
      <trkpt lat="38.87151" lon="-8.22866">
        <ele>136.698</ele>
        <time>2019-10-15T22:36:20Z</time>
      </trkpt>
      <trkpt lat="38.87139" lon="-8.22772">
        <ele>135.017</ele>
        <time>2019-10-15T22:36:40Z</time>
      </trkpt>
      <trkpt lat="38.87114" lon="-8.22516">
        <ele>137.708</ele>
        <time>2019-10-15T22:37:00Z</time>
      </trkpt>
      <trkpt lat="38.87044" lon="-8.22353">
        <ele>141.955</ele>
        <time>2019-10-15T22:37:20Z</time>
      </trkpt>
      <trkpt lat="38.86975" lon="-8.22244">
        <ele>138.453</ele>
        <time>2019-10-15T22:37:40Z</time>
      </trkpt>
      <trkpt lat="38.8689" lon="-8.22177">
        <ele>141.095</ele>
        <time>2019-10-15T22:38:00Z</time>
      </trkpt>
      <trkpt lat="38.86863" lon="-8.22022">
        <ele>143.785</ele>
        <time>2019-10-15T22:38:20Z</time>
      </trkpt>
      <trkpt lat="38.868" lon="-8.21922">
        <ele>143.467</ele>
        <time>2019-10-15T22:38:40Z</time>
      </trkpt>
      <trkpt lat="38.86746" lon="-8.21733">
        <ele>149.988</ele>
        <time>2019-10-15T22:39:00Z</time>
      </trkpt>
      <trkpt lat="38.86836" lon="-8.21489">
        <ele>144.19</ele>
        <time>2019-10-15T22:39:20Z</time>
      </trkpt>
      <trkpt lat="38.86818" lon="-8.21244">
        <ele>145.01</ele>
        <time>2019-10-15T22:39:40Z</time>
      </trkpt>
      <trkpt lat="38.86585" lon="-8.20911">
        <ele>156.218</ele>
        <time>2019-10-15T22:40:00Z</time>
      </trkpt>
      <trkpt lat="38.86414" lon="-8.20545">
        <ele>155.198</ele>
        <time>2019-10-15T22:40:20Z</time>
      </trkpt>
      <trkpt lat="38.8636" lon="-8.204">
        <ele>157.517</ele>
        <time>2019-10-15T22:40:40Z</time>
      </trkpt>
      <trkpt lat="38.86387" lon="-8.20045">
        <ele>146.208</ele>
        <time>2019-10-15T22:41:00Z</time>
      </trkpt>
      <trkpt lat="38.86225" lon="-8.19834">
        <ele>147.035</ele>
        <time>2019-10-15T22:41:20Z</time>
      </trkpt>
      <trkpt lat="38.86621" lon="-8.19545">
        <ele>147.453</ele>
        <time>2019-10-15T22:41:40Z</time>
      </trkpt>
      <trkpt lat="38.86881" lon="-8.19545">
        <ele>140.575</ele>
        <time>2019-10-15T22:42:00Z</time>
      </trkpt>
      <trkpt lat="38.87079" lon="-8.19034">
        <ele>110.735</ele>
        <time>2019-10-15T22:42:20Z</time>
      </trkpt>
      <trkpt lat="38.86971" lon="-8.18668">
        <ele>88.117</ele>
        <time>2019-10-15T22:42:40Z</time>
      </trkpt>
      <trkpt lat="38.86827" lon="-8.18301">
        <ele>81.668</ele>
        <time>2019-10-15T22:43:00Z</time>
      </trkpt>
      <trkpt lat="38.86612" lon="-8.18124">
        <ele>89.19</ele>
        <time>2019-10-15T22:43:20Z</time>
      </trkpt>
      <trkpt lat="38.86513" lon="-8.18024">
        <ele>91.38</ele>
        <time>2019-10-15T22:43:40Z</time>
      </trkpt>
      <trkpt lat="38.86261" lon="-8.18024">
        <ele>82.473</ele>
        <time>2019-10-15T22:44:00Z</time>
      </trkpt>
      <trkpt lat="38.86216" lon="-8.17713">
        <ele>97.085</ele>
        <time>2019-10-15T22:44:20Z</time>
      </trkpt>
      <trkpt lat="38.86117" lon="-8.17435">
        <ele>102.313</ele>
        <time>2019-10-15T22:44:40Z</time>
      </trkpt>
      <trkpt lat="38.8627" lon="-8.17246">
        <ele>107.508</ele>
        <time>2019-10-15T22:45:00Z</time>
      </trkpt>
      <trkpt lat="38.86378" lon="-8.17124">
        <ele>115.021</ele>
        <time>2019-10-15T22:45:20Z</time>
      </trkpt>
      <trkpt lat="38.86459" lon="-8.16902">
        <ele>123.559</ele>
        <time>2019-10-15T22:45:40Z</time>
      </trkpt>
      <trkpt lat="38.86809" lon="-8.16513">
        <ele>136.371</ele>
        <time>2019-10-15T22:46:00Z</time>
      </trkpt>
      <trkpt lat="38.86782" lon="-8.16291">
        <ele>136.111</ele>
        <time>2019-10-15T22:46:20Z</time>
      </trkpt>
      <trkpt lat="38.86674" lon="-8.1608">
        <ele>135.633</ele>
        <time>2019-10-15T22:46:40Z</time>
      </trkpt>
      <trkpt lat="38.86638" lon="-8.15603">
        <ele>148.374</ele>
        <time>2019-10-15T22:47:00Z</time>
      </trkpt>
      <trkpt lat="38.86477" lon="-8.15336">
        <ele>141.946</ele>
        <time>2019-10-15T22:47:20Z</time>
      </trkpt>
      <trkpt lat="38.86432" lon="-8.15258">
        <ele>147.246</ele>
        <time>2019-10-15T22:47:40Z</time>
      </trkpt>
      <trkpt lat="38.86585" lon="-8.15147">
        <ele>145.687</ele>
        <time>2019-10-15T22:48:00Z</time>
      </trkpt>
      <trkpt lat="38.86881" lon="-8.15058">
        <ele>142.342</ele>
        <time>2019-10-15T22:48:20Z</time>
      </trkpt>
      <trkpt lat="38.87115" lon="-8.15182">
        <ele>126.926</ele>
        <time>2019-10-15T22:48:40Z</time>
      </trkpt>
      <trkpt lat="38.87151" lon="-8.15314">
        <ele>114.708</ele>
        <time>2019-10-15T22:49:00Z</time>
      </trkpt>
      <trkpt lat="38.87188" lon="-8.15415">
        <ele>116.172</ele>
        <time>2019-10-15T22:49:20Z</time>
      </trkpt>
      <trkpt lat="38.87115" lon="-8.15758">
        <ele>106.43</ele>
        <time>2019-10-15T22:49:40Z</time>
      </trkpt>
      <trkpt lat="38.87301" lon="-8.16061">
        <ele>99.792</ele>
        <time>2019-10-15T22:50:00Z</time>
      </trkpt>
      <trkpt lat="38.8769" lon="-8.17127">
        <ele>87.032</ele>
        <time>2019-10-15T22:50:20Z</time>
      </trkpt>
      <trkpt lat="38.87943" lon="-8.17381">
        <ele>82.774</ele>
        <time>2019-10-15T22:50:40Z</time>
      </trkpt>
      <trkpt lat="38.88005" lon="-8.17384">
        <ele>80.045</ele>
        <time>2019-10-15T22:51:00Z</time>
      </trkpt>
      <trkpt lat="38.88075" lon="-8.17337">
        <ele>79.287</ele>
        <time>2019-10-15T22:51:20Z</time>
      </trkpt>
      <trkpt lat="38.88309" lon="-8.17301">
        <ele>82.457</ele>
        <time>2019-10-15T22:51:40Z</time>
      </trkpt>
      <trkpt lat="38.88258" lon="-8.17077">
        <ele>78.074</ele>
        <time>2019-10-15T22:52:00Z</time>
      </trkpt>
      <trkpt lat="38.88237" lon="-8.16854">
        <ele>78.356</ele>
        <time>2019-10-15T22:52:20Z</time>
      </trkpt>
      <trkpt lat="38.88342" lon="-8.16578">
        <ele>80.521</ele>
        <time>2019-10-15T22:52:40Z</time>
      </trkpt>
      <trkpt lat="38.8842" lon="-8.16471">
        <ele>83.108</ele>
        <time>2019-10-15T22:53:00Z</time>
      </trkpt>
      <trkpt lat="38.88495" lon="-8.16308">
        <ele>87.821</ele>
        <time>2019-10-15T22:53:20Z</time>
      </trkpt>
      <trkpt lat="38.88565" lon="-8.16015">
        <ele>98.479</ele>
        <time>2019-10-15T22:53:40Z</time>
      </trkpt>
      <trkpt lat="38.88695" lon="-8.15888">
        <ele>108.051</ele>
        <time>2019-10-15T22:54:00Z</time>
      </trkpt>
      <trkpt lat="38.88738" lon="-8.15775">
        <ele>112.031</ele>
        <time>2019-10-15T22:54:20Z</time>
      </trkpt>
      <trkpt lat="38.88792" lon="-8.15758">
        <ele>113.033</ele>
        <time>2019-10-15T22:54:40Z</time>
      </trkpt>
      <trkpt lat="38.88897" lon="-8.15761">
        <ele>116.694</ele>
        <time>2019-10-15T22:55:00Z</time>
      </trkpt>
      <trkpt lat="38.89053" lon="-8.15745">
        <ele>124.056</ele>
        <time>2019-10-15T22:55:20Z</time>
      </trkpt>
      <trkpt lat="38.89156" lon="-8.15721">
        <ele>131.666</ele>
        <time>2019-10-15T22:55:40Z</time>
      </trkpt>
      <trkpt lat="38.89223" lon="-8.15661">
        <ele>132.899</ele>
        <time>2019-10-15T22:56:00Z</time>
      </trkpt>
      <trkpt lat="38.89277" lon="-8.15558">
        <ele>135.907</ele>
        <time>2019-10-15T22:56:20Z</time>
      </trkpt>
      <trkpt lat="38.89369" lon="-8.15498">
        <ele>141.227</ele>
        <time>2019-10-15T22:56:40Z</time>
      </trkpt>
      <trkpt lat="38.89449" lon="-8.15395">
        <ele>145.108</ele>
        <time>2019-10-15T22:57:00Z</time>
      </trkpt>
      <trkpt lat="38.8956" lon="-8.15298">
        <ele>138.593</ele>
        <time>2019-10-15T22:57:20Z</time>
      </trkpt>
      <trkpt lat="38.89654" lon="-8.15102">
        <ele>141.441</ele>
        <time>2019-10-15T22:57:40Z</time>
      </trkpt>
      <trkpt lat="38.89735" lon="-8.14832">
        <ele>139.083</ele>
        <time>2019-10-15T22:58:00Z</time>
      </trkpt>
      <trkpt lat="38.89765" lon="-8.14775">
        <ele>138.533</ele>
        <time>2019-10-15T22:58:20Z</time>
      </trkpt>
      <trkpt lat="38.89805" lon="-8.14762">
        <ele>137.455</ele>
        <time>2019-10-15T22:58:40Z</time>
      </trkpt>
      <trkpt lat="38.89875" lon="-8.14669">
        <ele>139.456</ele>
        <time>2019-10-15T22:59:00Z</time>
      </trkpt>
      <trkpt lat="38.90013" lon="-8.14605">
        <ele>143.388</ele>
        <time>2019-10-15T22:59:20Z</time>
      </trkpt>
      <trkpt lat="38.90059" lon="-8.14565">
        <ele>141.088</ele>
        <time>2019-10-15T22:59:40Z</time>
      </trkpt>
      <trkpt lat="38.90199" lon="-8.14532">
        <ele>142.447</ele>
        <time>2019-10-15T23:00:00Z</time>
      </trkpt>
      <trkpt lat="38.90244" lon="-8.14549">
        <ele>144.629</ele>
        <time>2019-10-15T23:00:20Z</time>
      </trkpt>
      <trkpt lat="38.90333" lon="-8.14409">
        <ele>146.021</ele>
        <time>2019-10-15T23:00:40Z</time>
      </trkpt>
      <trkpt lat="38.90401" lon="-8.14222">
        <ele>143.408</ele>
        <time>2019-10-15T23:01:00Z</time>
      </trkpt>
      <trkpt lat="38.90428" lon="-8.13967">
        <ele>147.658</ele>
        <time>2019-10-15T23:01:20Z</time>
      </trkpt>
      <trkpt lat="38.905" lon="-8.13623">
        <ele>145.016</ele>
        <time>2019-10-15T23:01:40Z</time>
      </trkpt>
      <trkpt lat="38.90356" lon="-8.13278">
        <ele>148.218</ele>
        <time>2019-10-15T23:02:00Z</time>
      </trkpt>
      <trkpt lat="38.90257" lon="-8.12556">
        <ele>158.788</ele>
        <time>2019-10-15T23:02:20Z</time>
      </trkpt>
      <trkpt lat="38.90392" lon="-8.12534">
        <ele>156.62</ele>
        <time>2019-10-15T23:02:40Z</time>
      </trkpt>
      <trkpt lat="38.9058" lon="-8.12345">
        <ele>154.691</ele>
        <time>2019-10-15T23:03:00Z</time>
      </trkpt>
      <trkpt lat="38.90814" lon="-8.12212">
        <ele>154.043</ele>
        <time>2019-10-15T23:03:20Z</time>
      </trkpt>
      <trkpt lat="38.9103" lon="-8.12234">
        <ele>155.473</ele>
        <time>2019-10-15T23:03:40Z</time>
      </trkpt>
      <trkpt lat="38.91236" lon="-8.12245">
        <ele>152.051</ele>
        <time>2019-10-15T23:04:00Z</time>
      </trkpt>
      <trkpt lat="38.91326" lon="-8.12257">
        <ele>153.001</ele>
        <time>2019-10-15T23:04:20Z</time>
      </trkpt>
      <trkpt lat="38.91605" lon="-8.12134">
        <ele>156.011</ele>
        <time>2019-10-15T23:04:40Z</time>
      </trkpt>
      <trkpt lat="38.91748" lon="-8.12168">
        <ele>152.108</ele>
        <time>2019-10-15T23:05:00Z</time>
      </trkpt>
      <trkpt lat="38.92123" lon="-8.12105">
        <ele>154.999</ele>
        <time>2019-10-15T23:05:20Z</time>
      </trkpt>
      <trkpt lat="38.9222" lon="-8.12136">
        <ele>157.837</ele>
        <time>2019-10-15T23:05:40Z</time>
      </trkpt>
      <trkpt lat="38.92262" lon="-8.12121">
        <ele>159.169</ele>
        <time>2019-10-15T23:06:00Z</time>
      </trkpt>
      <trkpt lat="38.9231" lon="-8.12116">
        <ele>160.579</ele>
        <time>2019-10-15T23:06:20Z</time>
      </trkpt>
      <trkpt lat="38.92366" lon="-8.12132">
        <ele>158.081</ele>
        <time>2019-10-15T23:06:40Z</time>
      </trkpt>
      <trkpt lat="38.92456" lon="-8.12168">
        <ele>160.482</ele>
        <time>2019-10-15T23:07:00Z</time>
      </trkpt>
      <trkpt lat="38.92533" lon="-8.12134">
        <ele>159.184</ele>
        <time>2019-10-15T23:07:20Z</time>
      </trkpt>
      <trkpt lat="38.92586" lon="-8.12179">
        <ele>158.344</ele>
        <time>2019-10-15T23:07:40Z</time>
      </trkpt>
      <trkpt lat="38.92654" lon="-8.12184">
        <ele>157.855</ele>
        <time>2019-10-15T23:08:00Z</time>
      </trkpt>
      <trkpt lat="38.9271" lon="-8.12192">
        <ele>158.307</ele>
        <time>2019-10-15T23:08:20Z</time>
      </trkpt>
      <trkpt lat="38.92753" lon="-8.12167">
        <ele>156.817</ele>
        <time>2019-10-15T23:08:40Z</time>
      </trkpt>
      <trkpt lat="38.92765" lon="-8.12156">
        <ele>155.608</ele>
        <time>2019-10-15T23:09:00Z</time>
      </trkpt>
      <trkpt lat="38.92776" lon="-8.12153">
        <ele>154.699</ele>
        <time>2019-10-15T23:09:20Z</time>
      </trkpt>
      <trkpt lat="38.92799" lon="-8.12147">
        <ele>153.367</ele>
        <time>2019-10-15T23:09:40Z</time>
      </trkpt>
      <trkpt lat="38.92835" lon="-8.12133">
        <ele>149.659</ele>
        <time>2019-10-15T23:10:00Z</time>
      </trkpt>
      <trkpt lat="38.92847" lon="-8.1213">
        <ele>148.649</ele>
        <time>2019-10-15T23:10:20Z</time>
      </trkpt>
      <trkpt lat="38.92858" lon="-8.12127">
        <ele>147.791</ele>
        <time>2019-10-15T23:10:40Z</time>
      </trkpt>
      <trkpt lat="38.92869" lon="-8.12126">
        <ele>146.882</ele>
        <time>2019-10-15T23:11:00Z</time>
      </trkpt>
      <trkpt lat="38.9288" lon="-8.12126">
        <ele>145.754</ele>
        <time>2019-10-15T23:11:20Z</time>
      </trkpt>
      <trkpt lat="38.92903" lon="-8.12128">
        <ele>143.254</ele>
        <time>2019-10-15T23:11:40Z</time>
      </trkpt>
      <trkpt lat="38.92973" lon="-8.12126">
        <ele>142.641</ele>
        <time>2019-10-15T23:12:00Z</time>
      </trkpt>
      <trkpt lat="38.92986" lon="-8.12122">
        <ele>143.481</ele>
        <time>2019-10-15T23:12:20Z</time>
      </trkpt>
      <trkpt lat="38.92998" lon="-8.12118">
        <ele>144.109</ele>
        <time>2019-10-15T23:12:40Z</time>
      </trkpt>
      <trkpt lat="38.93008" lon="-8.12115">
        <ele>144.208</ele>
        <time>2019-10-15T23:13:00Z</time>
      </trkpt>
      <trkpt lat="38.93019" lon="-8.12115">
        <ele>144.238</ele>
        <time>2019-10-15T23:13:20Z</time>
      </trkpt>
      <trkpt lat="38.9303" lon="-8.12117">
        <ele>144.486</ele>
        <time>2019-10-15T23:13:40Z</time>
      </trkpt>
      <trkpt lat="38.93043" lon="-8.12119">
        <ele>144.698</ele>
        <time>2019-10-15T23:14:00Z</time>
      </trkpt>
      <trkpt lat="38.93083" lon="-8.12129">
        <ele>143.768</ele>
        <time>2019-10-15T23:14:20Z</time>
      </trkpt>
      <trkpt lat="38.9309" lon="-8.12129">
        <ele>143.34</ele>
        <time>2019-10-15T23:14:40Z</time>
      </trkpt>
      <trkpt lat="38.93096" lon="-8.12127">
        <ele>143.131</ele>
        <time>2019-10-15T23:15:00Z</time>
      </trkpt>
      <trkpt lat="38.93099" lon="-8.12124">
        <ele>142.963</ele>
        <time>2019-10-15T23:15:20Z</time>
      </trkpt>
      <trkpt lat="38.93101" lon="-8.1212">
        <ele>142.973</ele>
        <time>2019-10-15T23:15:40Z</time>
      </trkpt>
      <trkpt lat="38.93102" lon="-8.12117">
        <ele>142.944</ele>
        <time>2019-10-15T23:16:00Z</time>
      </trkpt>
      <trkpt lat="38.93103" lon="-8.12114">
        <ele>143.005</ele>
        <time>2019-10-15T23:16:20Z</time>
      </trkpt>
      <trkpt lat="38.93104" lon="-8.12111">
        <ele>143.015</ele>
        <time>2019-10-15T23:16:40Z</time>
      </trkpt>
      <trkpt lat="38.93106" lon="-8.1211">
        <ele>143.008</ele>
        <time>2019-10-15T23:17:00Z</time>
      </trkpt>
      <trkpt lat="38.93107" lon="-8.1211">
        <ele>143.018</ele>
        <time>2019-10-15T23:17:20Z</time>
      </trkpt>
      <trkpt lat="38.93108" lon="-8.12112">
        <ele>143.096</ele>
        <time>2019-10-15T23:17:40Z</time>
      </trkpt>
      <trkpt lat="38.93111" lon="-8.12112">
        <ele>143.088</ele>
        <time>2019-10-15T23:18:00Z</time>
      </trkpt>
      <trkpt lat="38.93115" lon="-8.12112">
        <ele>142.848</ele>
        <time>2019-10-15T23:18:20Z</time>
      </trkpt>
      <trkpt lat="38.93116" lon="-8.12113">
        <ele>142.81</ele>
        <time>2019-10-15T23:18:40Z</time>
      </trkpt>
      <trkpt lat="38.93118" lon="-8.12113">
        <ele>142.791</ele>
        <time>2019-10-15T23:19:00Z</time>
      </trkpt>
      <trkpt lat="38.93121" lon="-8.12112">
        <ele>142.633</ele>
        <time>2019-10-15T23:19:20Z</time>
      </trkpt>
      <trkpt lat="38.93125" lon="-8.12108">
        <ele>142.533</ele>
        <time>2019-10-15T23:19:40Z</time>
      </trkpt>
      <trkpt lat="38.9313" lon="-8.12103">
        <ele>142.356</ele>
        <time>2019-10-15T23:20:00Z</time>
      </trkpt>
      <trkpt lat="38.93136" lon="-8.12097">
        <ele>142.159</ele>
        <time>2019-10-15T23:20:20Z</time>
      </trkpt>
      <trkpt lat="38.93142" lon="-8.12092">
        <ele>142.014</ele>
        <time>2019-10-15T23:20:40Z</time>
      </trkpt>
      <trkpt lat="38.93151" lon="-8.12086">
        <ele>142.008</ele>
        <time>2019-10-15T23:21:00Z</time>
      </trkpt>
      <trkpt lat="38.9316" lon="-8.1208">
        <ele>142.189</ele>
        <time>2019-10-15T23:21:20Z</time>
      </trkpt>
      <trkpt lat="38.93234" lon="-8.12043">
        <ele>143.237</ele>
        <time>2019-10-15T23:21:40Z</time>
      </trkpt>
      <trkpt lat="38.93279" lon="-8.12019">
        <ele>143.079</ele>
        <time>2019-10-15T23:22:00Z</time>
      </trkpt>
      <trkpt lat="38.93282" lon="-8.12011">
        <ele>143.139</ele>
        <time>2019-10-15T23:22:20Z</time>
      </trkpt>
      <trkpt lat="38.93283" lon="-8.12005">
        <ele>143.211</ele>
        <time>2019-10-15T23:22:40Z</time>
      </trkpt>
      <trkpt lat="38.93291" lon="-8.11976">
        <ele>143.592</ele>
        <time>2019-10-15T23:23:00Z</time>
      </trkpt>
      <trkpt lat="38.93293" lon="-8.11963">
        <ele>143.254</ele>
        <time>2019-10-15T23:23:20Z</time>
      </trkpt>
      <trkpt lat="38.93294" lon="-8.11951">
        <ele>142.884</ele>
        <time>2019-10-15T23:23:40Z</time>
      </trkpt>
      <trkpt lat="38.93297" lon="-8.11924">
        <ele>142.463</ele>
        <time>2019-10-15T23:24:00Z</time>
      </trkpt>
      <trkpt lat="38.93308" lon="-8.11882">
        <ele>143.544</ele>
        <time>2019-10-15T23:24:20Z</time>
      </trkpt>
      <trkpt lat="38.93338" lon="-8.11827">
        <ele>143.718</ele>
        <time>2019-10-15T23:24:40Z</time>
      </trkpt>
      <trkpt lat="38.93363" lon="-8.11789">
        <ele>142.408</ele>
        <time>2019-10-15T23:25:00Z</time>
      </trkpt>
      <trkpt lat="38.93424" lon="-8.1175">
        <ele>142.01</ele>
        <time>2019-10-15T23:25:20Z</time>
      </trkpt>
      <trkpt lat="38.93431" lon="-8.11742">
        <ele>142.048</ele>
        <time>2019-10-15T23:25:40Z</time>
      </trkpt>
      <trkpt lat="38.93444" lon="-8.11724">
        <ele>142.09</ele>
        <time>2019-10-15T23:26:00Z</time>
      </trkpt>
      <trkpt lat="38.93468" lon="-8.11667">
        <ele>139.03</ele>
        <time>2019-10-15T23:26:20Z</time>
      </trkpt>
      <trkpt lat="38.9349" lon="-8.11628">
        <ele>141.762</ele>
        <time>2019-10-15T23:26:40Z</time>
      </trkpt>
      <trkpt lat="38.93511" lon="-8.11543">
        <ele>145.183</ele>
        <time>2019-10-15T23:27:00Z</time>
      </trkpt>
      <trkpt lat="38.93514" lon="-8.11525">
        <ele>145.565</ele>
        <time>2019-10-15T23:27:20Z</time>
      </trkpt>
      <trkpt lat="38.93518" lon="-8.11448">
        <ele>145.085</ele>
        <time>2019-10-15T23:27:40Z</time>
      </trkpt>
      <trkpt lat="38.93528" lon="-8.11416">
        <ele>145.144</ele>
        <time>2019-10-15T23:28:00Z</time>
      </trkpt>
      <trkpt lat="38.93543" lon="-8.11395">
        <ele>146.605</ele>
        <time>2019-10-15T23:28:20Z</time>
      </trkpt>
      <trkpt lat="38.93575" lon="-8.1136">
        <ele>146.715</ele>
        <time>2019-10-15T23:28:40Z</time>
      </trkpt>
      <trkpt lat="38.93608" lon="-8.1134">
        <ele>146.908</ele>
        <time>2019-10-15T23:29:00Z</time>
      </trkpt>
      <trkpt lat="38.93658" lon="-8.11308">
        <ele>150.318</ele>
        <time>2019-10-15T23:29:20Z</time>
      </trkpt>
      <trkpt lat="38.93684" lon="-8.11296">
        <ele>151.846</ele>
        <time>2019-10-15T23:29:40Z</time>
      </trkpt>
      <trkpt lat="38.93712" lon="-8.11283">
        <ele>154.288</ele>
        <time>2019-10-15T23:30:00Z</time>
      </trkpt>
      <trkpt lat="38.9375" lon="-8.11267">
        <ele>155.698</ele>
        <time>2019-10-15T23:30:20Z</time>
      </trkpt>
      <trkpt lat="38.93797" lon="-8.11269">
        <ele>154.79</ele>
        <time>2019-10-15T23:30:40Z</time>
      </trkpt>
      <trkpt lat="38.93814" lon="-8.11277">
        <ele>154.681</ele>
        <time>2019-10-15T23:31:00Z</time>
      </trkpt>
      <trkpt lat="38.93823" lon="-8.11281">
        <ele>154.513</ele>
        <time>2019-10-15T23:31:20Z</time>
      </trkpt>
      <trkpt lat="38.93834" lon="-8.11287">
        <ele>154.333</ele>
        <time>2019-10-15T23:31:40Z</time>
      </trkpt>
      <trkpt lat="38.93865" lon="-8.11301">
        <ele>154.075</ele>
        <time>2019-10-15T23:32:00Z</time>
      </trkpt>
      <trkpt lat="38.93879" lon="-8.11306">
        <ele>154.028</ele>
        <time>2019-10-15T23:32:20Z</time>
      </trkpt>
      <trkpt lat="38.93906" lon="-8.1132">
        <ele>153.82</ele>
        <time>2019-10-15T23:32:40Z</time>
      </trkpt>
      <trkpt lat="38.93918" lon="-8.11324">
        <ele>154.108</ele>
        <time>2019-10-15T23:33:00Z</time>
      </trkpt>
      <trkpt lat="38.93937" lon="-8.11334">
        <ele>155.521</ele>
        <time>2019-10-15T23:33:20Z</time>
      </trkpt>
      <trkpt lat="38.93974" lon="-8.11342">
        <ele>158.069</ele>
        <time>2019-10-15T23:33:40Z</time>
      </trkpt>
      <trkpt lat="38.9398" lon="-8.11337">
        <ele>158.091</ele>
        <time>2019-10-15T23:34:00Z</time>
      </trkpt>
      <trkpt lat="38.94027" lon="-8.11297">
        <ele>158.751</ele>
        <time>2019-10-15T23:34:20Z</time>
      </trkpt>
      <trkpt lat="38.94067" lon="-8.11233">
        <ele>156.073</ele>
        <time>2019-10-15T23:34:40Z</time>
      </trkpt>
      <trkpt lat="38.94077" lon="-8.1119">
        <ele>152.844</ele>
        <time>2019-10-15T23:35:00Z</time>
      </trkpt>
      <trkpt lat="38.94086" lon="-8.11157">
        <ele>151.646</ele>
        <time>2019-10-15T23:35:20Z</time>
      </trkpt>
      <trkpt lat="38.94094" lon="-8.1112">
        <ele>149.556</ele>
        <time>2019-10-15T23:35:40Z</time>
      </trkpt>
      <trkpt lat="38.94119" lon="-8.11102">
        <ele>149.062</ele>
        <time>2019-10-15T23:36:00Z</time>
      </trkpt>
      <trkpt lat="38.94125" lon="-8.11116">
        <ele>149.183</ele>
        <time>2019-10-15T23:36:20Z</time>
      </trkpt>
      <trkpt lat="38.9416" lon="-8.11186">
        <ele>147.911</ele>
        <time>2019-10-15T23:36:40Z</time>
      </trkpt>
      <trkpt lat="38.94166" lon="-8.112">
        <ele>147.308</ele>
        <time>2019-10-15T23:37:00Z</time>
      </trkpt>
      <trkpt lat="38.94189" lon="-8.11234">
        <ele>146.03</ele>
        <time>2019-10-15T23:37:20Z</time>
      </trkpt>
      <trkpt lat="38.94204" lon="-8.11271">
        <ele>145.928</ele>
        <time>2019-10-15T23:37:40Z</time>
      </trkpt>
      <trkpt lat="38.94221" lon="-8.11348">
        <ele>145.11</ele>
        <time>2019-10-15T23:38:00Z</time>
      </trkpt>
      <trkpt lat="38.94223" lon="-8.11373">
        <ele>145.05</ele>
        <time>2019-10-15T23:38:20Z</time>
      </trkpt>
      <trkpt lat="38.94228" lon="-8.11387">
        <ele>145.032</ele>
        <time>2019-10-15T23:38:40Z</time>
      </trkpt>
      <trkpt lat="38.94238" lon="-8.11395">
        <ele>145.173</ele>
        <time>2019-10-15T23:39:00Z</time>
      </trkpt>
      <trkpt lat="38.94256" lon="-8.11411">
        <ele>145.415</ele>
        <time>2019-10-15T23:39:20Z</time>
      </trkpt>
      <trkpt lat="38.94288" lon="-8.11432">
        <ele>142.955</ele>
        <time>2019-10-15T23:39:40Z</time>
      </trkpt>
      <trkpt lat="38.94311" lon="-8.11441">
        <ele>141.684</ele>
        <time>2019-10-15T23:40:00Z</time>
      </trkpt>
      <trkpt lat="38.94328" lon="-8.11469">
        <ele>140.007</ele>
        <time>2019-10-15T23:40:20Z</time>
      </trkpt>
      <trkpt lat="38.94338" lon="-8.11497">
        <ele>138.917</ele>
        <time>2019-10-15T23:40:40Z</time>
      </trkpt>
      <trkpt lat="38.94342" lon="-8.11511">
        <ele>138.408</ele>
        <time>2019-10-15T23:41:00Z</time>
      </trkpt>
      <trkpt lat="38.94348" lon="-8.11535">
        <ele>137.762</ele>
        <time>2019-10-15T23:41:20Z</time>
      </trkpt>
      <trkpt lat="38.94368" lon="-8.11578">
        <ele>136.02</ele>
        <time>2019-10-15T23:41:40Z</time>
      </trkpt>
      <trkpt lat="38.94397" lon="-8.11601">
        <ele>133.212</ele>
        <time>2019-10-15T23:42:00Z</time>
      </trkpt>
      <trkpt lat="38.94405" lon="-8.11604">
        <ele>132.612</ele>
        <time>2019-10-15T23:42:20Z</time>
      </trkpt>
      <trkpt lat="38.94425" lon="-8.11612">
        <ele>130.614</ele>
        <time>2019-10-15T23:42:40Z</time>
      </trkpt>
      <trkpt lat="38.94439" lon="-8.11623">
        <ele>129.455</ele>
        <time>2019-10-15T23:43:00Z</time>
      </trkpt>
      <trkpt lat="38.9445" lon="-8.11633">
        <ele>128.097</ele>
        <time>2019-10-15T23:43:20Z</time>
      </trkpt>
      <trkpt lat="38.94455" lon="-8.11636">
        <ele>127.457</ele>
        <time>2019-10-15T23:43:40Z</time>
      </trkpt>
      <trkpt lat="38.94482" lon="-8.11639">
        <ele>125.748</ele>
        <time>2019-10-15T23:44:00Z</time>
      </trkpt>
      <trkpt lat="38.94488" lon="-8.11643">
        <ele>125.461</ele>
        <time>2019-10-15T23:44:20Z</time>
      </trkpt>
      <trkpt lat="38.94491" lon="-8.11648">
        <ele>125.117</ele>
        <time>2019-10-15T23:44:40Z</time>
      </trkpt>
      <trkpt lat="38.94528" lon="-8.11694">
        <ele>123.908</ele>
        <time>2019-10-15T23:45:00Z</time>
      </trkpt>
      <trkpt lat="38.94547" lon="-8.11707">
        <ele>124.738</ele>
        <time>2019-10-15T23:45:20Z</time>
      </trkpt>
      <trkpt lat="38.94552" lon="-8.11708">
        <ele>124.616</ele>
        <time>2019-10-15T23:45:40Z</time>
      </trkpt>
      <trkpt lat="38.94577" lon="-8.11703">
        <ele>124.068</ele>
        <time>2019-10-15T23:46:00Z</time>
      </trkpt>
      <trkpt lat="38.94586" lon="-8.11698">
        <ele>123.548</ele>
        <time>2019-10-15T23:46:20Z</time>
      </trkpt>
      <trkpt lat="38.94616" lon="-8.11693">
        <ele>125.29</ele>
        <time>2019-10-15T23:46:40Z</time>
      </trkpt>
      <trkpt lat="38.94634" lon="-8.11692">
        <ele>126.511</ele>
        <time>2019-10-15T23:47:00Z</time>
      </trkpt>
      <trkpt lat="38.94642" lon="-8.11691">
        <ele>126.973</ele>
        <time>2019-10-15T23:47:20Z</time>
      </trkpt>
      <trkpt lat="38.94664" lon="-8.11674">
        <ele>126.493</ele>
        <time>2019-10-15T23:47:40Z</time>
      </trkpt>
      <trkpt lat="38.94695" lon="-8.11675">
        <ele>125.555</ele>
        <time>2019-10-15T23:48:00Z</time>
      </trkpt>
      <trkpt lat="38.94708" lon="-8.11676">
        <ele>124.707</ele>
        <time>2019-10-15T23:48:20Z</time>
      </trkpt>
      <trkpt lat="38.94733" lon="-8.11666">
        <ele>121.117</ele>
        <time>2019-10-15T23:48:40Z</time>
      </trkpt>
      <trkpt lat="38.9477" lon="-8.11647">
        <ele>114.508</ele>
        <time>2019-10-15T23:49:00Z</time>
      </trkpt>
      <trkpt lat="38.94783" lon="-8.11638">
        <ele>112.599</ele>
        <time>2019-10-15T23:49:20Z</time>
      </trkpt>
      <trkpt lat="38.94806" lon="-8.11625">
        <ele>109.587</ele>
        <time>2019-10-15T23:49:40Z</time>
      </trkpt>
      <trkpt lat="38.94822" lon="-8.11619">
        <ele>108.129</ele>
        <time>2019-10-15T23:50:00Z</time>
      </trkpt>
      <trkpt lat="38.94826" lon="-8.11617">
        <ele>107.759</ele>
        <time>2019-10-15T23:50:20Z</time>
      </trkpt>
      <trkpt lat="38.94832" lon="-8.11616">
        <ele>107.381</ele>
        <time>2019-10-15T23:50:40Z</time>
      </trkpt>
      <trkpt lat="38.94851" lon="-8.11614">
        <ele>106.432</ele>
        <time>2019-10-15T23:51:00Z</time>
      </trkpt>
      <trkpt lat="38.94858" lon="-8.11614">
        <ele>106.154</ele>
        <time>2019-10-15T23:51:20Z</time>
      </trkpt>
      <trkpt lat="38.94866" lon="-8.11617">
        <ele>105.324</ele>
        <time>2019-10-15T23:51:40Z</time>
      </trkpt>
      <trkpt lat="38.94874" lon="-8.11621">
        <ele>104.392</ele>
        <time>2019-10-15T23:52:00Z</time>
      </trkpt>
      <trkpt lat="38.94883" lon="-8.11628">
        <ele>103.473</ele>
        <time>2019-10-15T23:52:20Z</time>
      </trkpt>
      <trkpt lat="38.94891" lon="-8.11636">
        <ele>102.82</ele>
        <time>2019-10-15T23:52:40Z</time>
      </trkpt>
      <trkpt lat="38.94915" lon="-8.11655">
        <ele>102.608</ele>
        <time>2019-10-15T23:53:00Z</time>
      </trkpt>
      <trkpt lat="38.94923" lon="-8.11657">
        <ele>103.063</ele>
        <time>2019-10-15T23:53:20Z</time>
      </trkpt>
      <trkpt lat="38.94934" lon="-8.11658">
        <ele>103.511</ele>
        <time>2019-10-15T23:53:40Z</time>
      </trkpt>
      <trkpt lat="38.94956" lon="-8.1166">
        <ele>104.323</ele>
        <time>2019-10-15T23:54:00Z</time>
      </trkpt>
      <trkpt lat="38.94966" lon="-8.11663">
        <ele>104.743</ele>
        <time>2019-10-15T23:54:20Z</time>
      </trkpt>
      <trkpt lat="38.94977" lon="-8.11667">
        <ele>104.745</ele>
        <time>2019-10-15T23:54:40Z</time>
      </trkpt>
      <trkpt lat="38.94995" lon="-8.11675">
        <ele>103.566</ele>
        <time>2019-10-15T23:55:00Z</time>
      </trkpt>
      <trkpt lat="38.95003" lon="-8.11674">
        <ele>103.268</ele>
        <time>2019-10-15T23:55:20Z</time>
      </trkpt>
      <trkpt lat="38.9501" lon="-8.11671">
        <ele>102.888</ele>
        <time>2019-10-15T23:55:40Z</time>
      </trkpt>
      <trkpt lat="38.95016" lon="-8.11667">
        <ele>102.471</ele>
        <time>2019-10-15T23:56:00Z</time>
      </trkpt>
      <trkpt lat="38.95019" lon="-8.11659">
        <ele>102.141</ele>
        <time>2019-10-15T23:56:20Z</time>
      </trkpt>
      <trkpt lat="38.95021" lon="-8.11651">
        <ele>101.815</ele>
        <time>2019-10-15T23:56:40Z</time>
      </trkpt>
      <trkpt lat="38.95021" lon="-8.1164">
        <ele>101.508</ele>
        <time>2019-10-15T23:57:00Z</time>
      </trkpt>
      <trkpt lat="38.9502" lon="-8.11628">
        <ele>101.451</ele>
        <time>2019-10-15T23:57:20Z</time>
      </trkpt>
      <trkpt lat="38.9502" lon="-8.11616">
        <ele>101.349</ele>
        <time>2019-10-15T23:57:40Z</time>
      </trkpt>
      <trkpt lat="38.95021" lon="-8.11605">
        <ele>101.381</ele>
        <time>2019-10-15T23:58:00Z</time>
      </trkpt>
      <trkpt lat="38.95024" lon="-8.11596">
        <ele>101.191</ele>
        <time>2019-10-15T23:58:20Z</time>
      </trkpt>
      <trkpt lat="38.95029" lon="-8.11589">
        <ele>101.073</ele>
        <time>2019-10-15T23:58:40Z</time>
      </trkpt>
      <trkpt lat="38.95036" lon="-8.11584">
        <ele>101.014</ele>
        <time>2019-10-15T23:59:00Z</time>
      </trkpt>
      <trkpt lat="38.95045" lon="-8.11581">
        <ele>100.986</ele>
        <time>2019-10-15T23:59:20Z</time>
      </trkpt>
      <trkpt lat="38.95055" lon="-8.11578">
        <ele>100.836</ele>
        <time>2019-10-15T23:59:40Z</time>
      </trkpt>
      <trkpt lat="38.95064" lon="-8.11576">
        <ele>100.181</ele>
        <time>2019-10-16T00:00:00Z</time>
      </trkpt>
      <trkpt lat="38.95091" lon="-8.1157">
        <ele>97.661</ele>
        <time>2019-10-16T00:00:20Z</time>
      </trkpt>
      <trkpt lat="38.95115" lon="-8.11566">
        <ele>94.917</ele>
        <time>2019-10-16T00:00:40Z</time>
      </trkpt>
      <trkpt lat="38.9512" lon="-8.11563">
        <ele>94.208</ele>
        <time>2019-10-16T00:01:00Z</time>
      </trkpt>
      <trkpt lat="38.95124" lon="-8.11557">
        <ele>93.652</ele>
        <time>2019-10-16T00:01:20Z</time>
      </trkpt>
      <trkpt lat="38.95128" lon="-8.1155">
        <ele>93.12</ele>
        <time>2019-10-16T00:01:40Z</time>
      </trkpt>
      <trkpt lat="38.9513" lon="-8.11543">
        <ele>92.752</ele>
        <time>2019-10-16T00:02:00Z</time>
      </trkpt>
      <trkpt lat="38.95131" lon="-8.11534">
        <ele>92.372</ele>
        <time>2019-10-16T00:02:20Z</time>
      </trkpt>
      <trkpt lat="38.95132" lon="-8.11524">
        <ele>92.094</ele>
        <time>2019-10-16T00:02:40Z</time>
      </trkpt>
      <trkpt lat="38.95133" lon="-8.11512">
        <ele>91.445</ele>
        <time>2019-10-16T00:03:00Z</time>
      </trkpt>
      <trkpt lat="38.95136" lon="-8.11498">
        <ele>90.647</ele>
        <time>2019-10-16T00:03:20Z</time>
      </trkpt>
      <trkpt lat="38.9514" lon="-8.11485">
        <ele>90.497</ele>
        <time>2019-10-16T00:03:40Z</time>
      </trkpt>
      <trkpt lat="38.95147" lon="-8.11458">
        <ele>89.114</ele>
        <time>2019-10-16T00:04:00Z</time>
      </trkpt>
      <trkpt lat="38.95154" lon="-8.11424">
        <ele>87.554</ele>
        <time>2019-10-16T00:04:20Z</time>
      </trkpt>
      <trkpt lat="38.95155" lon="-8.11416">
        <ele>87.309</ele>
        <time>2019-10-16T00:04:40Z</time>
      </trkpt>
      <trkpt lat="38.95154" lon="-8.11407">
        <ele>87.408</ele>
        <time>2019-10-16T00:05:00Z</time>
      </trkpt>
      <trkpt lat="38.95152" lon="-8.11398">
        <ele>87.675</ele>
        <time>2019-10-16T00:05:20Z</time>
      </trkpt>
      <trkpt lat="38.95148" lon="-8.11388">
        <ele>88.083</ele>
        <time>2019-10-16T00:05:40Z</time>
      </trkpt>
      <trkpt lat="38.95143" lon="-8.11377">
        <ele>88.575</ele>
        <time>2019-10-16T00:06:00Z</time>
      </trkpt>
      <trkpt lat="38.95137" lon="-8.11365">
        <ele>89.125</ele>
        <time>2019-10-16T00:06:20Z</time>
      </trkpt>
      <trkpt lat="38.95126" lon="-8.11341">
        <ele>88.357</ele>
        <time>2019-10-16T00:06:40Z</time>
      </trkpt>
      <trkpt lat="38.95104" lon="-8.11281">
        <ele>87.418</ele>
        <time>2019-10-16T00:07:00Z</time>
      </trkpt>
      <trkpt lat="38.95101" lon="-8.1127">
        <ele>87.18</ele>
        <time>2019-10-16T00:07:20Z</time>
      </trkpt>
      <trkpt lat="38.95099" lon="-8.1126">
        <ele>86.84</ele>
        <time>2019-10-16T00:07:40Z</time>
      </trkpt>
      <trkpt lat="38.95095" lon="-8.11228">
        <ele>86.146</ele>
        <time>2019-10-16T00:08:00Z</time>
      </trkpt>
      <trkpt lat="38.95095" lon="-8.11219">
        <ele>85.888</ele>
        <time>2019-10-16T00:08:20Z</time>
      </trkpt>
      <trkpt lat="38.95097" lon="-8.1121">
        <ele>85.116</ele>
        <time>2019-10-16T00:08:40Z</time>
      </trkpt>
      <trkpt lat="38.95101" lon="-8.11202">
        <ele>84.508</ele>
        <time>2019-10-16T00:09:00Z</time>
      </trkpt>
      <trkpt lat="38.95107" lon="-8.11192">
        <ele>83.948</ele>
        <time>2019-10-16T00:09:20Z</time>
      </trkpt>
      <trkpt lat="38.95115" lon="-8.1118">
        <ele>83.496</ele>
        <time>2019-10-16T00:09:40Z</time>
      </trkpt>
      <trkpt lat="38.95123" lon="-8.11165">
        <ele>83.138</ele>
        <time>2019-10-16T00:10:00Z</time>
      </trkpt>
      <trkpt lat="38.95131" lon="-8.11149">
        <ele>83.668</ele>
        <time>2019-10-16T00:10:20Z</time>
      </trkpt>
      <trkpt lat="38.95137" lon="-8.11132">
        <ele>84.06</ele>
        <time>2019-10-16T00:10:40Z</time>
      </trkpt>
      <trkpt lat="38.95143" lon="-8.11114">
        <ele>83.761</ele>
        <time>2019-10-16T00:11:00Z</time>
      </trkpt>
      <trkpt lat="38.95165" lon="-8.11054">
        <ele>82.133</ele>
        <time>2019-10-16T00:11:20Z</time>
      </trkpt>
      <trkpt lat="38.9518" lon="-8.11005">
        <ele>81.453</ele>
        <time>2019-10-16T00:11:40Z</time>
      </trkpt>
      <trkpt lat="38.95184" lon="-8.10997">
        <ele>81.421</ele>
        <time>2019-10-16T00:12:00Z</time>
      </trkpt>
      <trkpt lat="38.95187" lon="-8.10992">
        <ele>81.341</ele>
        <time>2019-10-16T00:12:20Z</time>
      </trkpt>
      <trkpt lat="38.95191" lon="-8.10989">
        <ele>81.105</ele>
        <time>2019-10-16T00:12:40Z</time>
      </trkpt>
      <trkpt lat="38.95196" lon="-8.10986">
        <ele>80.808</ele>
        <time>2019-10-16T00:13:00Z</time>
      </trkpt>
      <trkpt lat="38.95203" lon="-8.10985">
        <ele>79.916</ele>
        <time>2019-10-16T00:13:20Z</time>
      </trkpt>
      <trkpt lat="38.9521" lon="-8.10985">
        <ele>79.064</ele>
        <time>2019-10-16T00:13:40Z</time>
      </trkpt>
      <trkpt lat="38.95217" lon="-8.10988">
        <ele>78.246</ele>
        <time>2019-10-16T00:14:00Z</time>
      </trkpt>
      <trkpt lat="38.95225" lon="-8.10993">
        <ele>77.666</ele>
        <time>2019-10-16T00:14:20Z</time>
      </trkpt>
      <trkpt lat="38.95234" lon="-8.11001">
        <ele>77.648</ele>
        <time>2019-10-16T00:14:40Z</time>
      </trkpt>
      <trkpt lat="38.95244" lon="-8.1101">
        <ele>77.969</ele>
        <time>2019-10-16T00:15:00Z</time>
      </trkpt>
      <trkpt lat="38.95306" lon="-8.11068">
        <ele>78.121</ele>
        <time>2019-10-16T00:15:20Z</time>
      </trkpt>
      <trkpt lat="38.95315" lon="-8.11079">
        <ele>78.721</ele>
        <time>2019-10-16T00:15:40Z</time>
      </trkpt>
      <trkpt lat="38.9534" lon="-8.11114">
        <ele>78.311</ele>
        <time>2019-10-16T00:16:00Z</time>
      </trkpt>
      <trkpt lat="38.95348" lon="-8.11122">
        <ele>77.721</ele>
        <time>2019-10-16T00:16:20Z</time>
      </trkpt>
      <trkpt lat="38.95359" lon="-8.11129">
        <ele>77.103</ele>
        <time>2019-10-16T00:16:40Z</time>
      </trkpt>
      <trkpt lat="38.95371" lon="-8.11137">
        <ele>77.008</ele>
        <time>2019-10-16T00:17:00Z</time>
      </trkpt>
      <trkpt lat="38.95384" lon="-8.11145">
        <ele>77.385</ele>
        <time>2019-10-16T00:17:20Z</time>
      </trkpt>
      <trkpt lat="38.95409" lon="-8.11157">
        <ele>78.133</ele>
        <time>2019-10-16T00:17:40Z</time>
      </trkpt>
      <trkpt lat="38.95439" lon="-8.11167">
        <ele>79.055</ele>
        <time>2019-10-16T00:18:00Z</time>
      </trkpt>
      <trkpt lat="38.95455" lon="-8.11173">
        <ele>78.675</ele>
        <time>2019-10-16T00:18:20Z</time>
      </trkpt>
      <trkpt lat="38.9547" lon="-8.11179">
        <ele>78.477</ele>
        <time>2019-10-16T00:18:40Z</time>
      </trkpt>
      <trkpt lat="38.95522" lon="-8.11207">
        <ele>77.638</ele>
        <time>2019-10-16T00:19:00Z</time>
      </trkpt>
      <trkpt lat="38.9554" lon="-8.11218">
        <ele>78.34</ele>
        <time>2019-10-16T00:19:20Z</time>
      </trkpt>
      <trkpt lat="38.95546" lon="-8.11221">
        <ele>78.67</ele>
        <time>2019-10-16T00:19:40Z</time>
      </trkpt>
      <trkpt lat="38.95551" lon="-8.11222">
        <ele>78.871</ele>
        <time>2019-10-16T00:20:00Z</time>
      </trkpt>
      <trkpt lat="38.95554" lon="-8.1122">
        <ele>78.941</ele>
        <time>2019-10-16T00:20:20Z</time>
      </trkpt>
      <trkpt lat="38.95555" lon="-8.11217">
        <ele>78.815</ele>
        <time>2019-10-16T00:20:40Z</time>
      </trkpt>
      <trkpt lat="38.95554" lon="-8.11214">
        <ele>78.608</ele>
        <time>2019-10-16T00:21:00Z</time>
      </trkpt>
      <trkpt lat="38.95552" lon="-8.1121">
        <ele>78.481</ele>
        <time>2019-10-16T00:21:20Z</time>
      </trkpt>
      <trkpt lat="38.95549" lon="-8.11204">
        <ele>78.199</ele>
        <time>2019-10-16T00:21:40Z</time>
      </trkpt>
      <trkpt lat="38.95546" lon="-8.11196">
        <ele>77.721</ele>
        <time>2019-10-16T00:22:00Z</time>
      </trkpt>
      <trkpt lat="38.95543" lon="-8.11186">
        <ele>76.961</ele>
        <time>2019-10-16T00:22:20Z</time>
      </trkpt>
      <trkpt lat="38.95541" lon="-8.11175">
        <ele>76.063</ele>
        <time>2019-10-16T00:22:40Z</time>
      </trkpt>
      <trkpt lat="38.9554" lon="-8.11163">
        <ele>74.934</ele>
        <time>2019-10-16T00:23:00Z</time>
      </trkpt>
      <trkpt lat="38.95539" lon="-8.11152">
        <ele>73.336</ele>
        <time>2019-10-16T00:23:20Z</time>
      </trkpt>
      <trkpt lat="38.95537" lon="-8.11143">
        <ele>71.996</ele>
        <time>2019-10-16T00:23:40Z</time>
      </trkpt>
      <trkpt lat="38.95533" lon="-8.11137">
        <ele>70.719</ele>
        <time>2019-10-16T00:24:00Z</time>
      </trkpt>
      <trkpt lat="38.95526" lon="-8.11133">
        <ele>69.909</ele>
        <time>2019-10-16T00:24:20Z</time>
      </trkpt>
      <trkpt lat="38.95518" lon="-8.11132">
        <ele>70.119</ele>
        <time>2019-10-16T00:24:40Z</time>
      </trkpt>
      <trkpt lat="38.95509" lon="-8.11131">
        <ele>70.508</ele>
        <time>2019-10-16T00:25:00Z</time>
      </trkpt>
      <trkpt lat="38.95499" lon="-8.11131">
        <ele>71.165</ele>
        <time>2019-10-16T00:25:20Z</time>
      </trkpt>
      <trkpt lat="38.95483" lon="-8.1113">
        <ele>71.853</ele>
        <time>2019-10-16T00:25:40Z</time>
      </trkpt>
      <trkpt lat="38.95477" lon="-8.11128">
        <ele>71.735</ele>
        <time>2019-10-16T00:26:00Z</time>
      </trkpt>
      <trkpt lat="38.95474" lon="-8.11125">
        <ele>71.385</ele>
        <time>2019-10-16T00:26:20Z</time>
      </trkpt>
      <trkpt lat="38.95472" lon="-8.11121">
        <ele>70.777</ele>
        <time>2019-10-16T00:26:40Z</time>
      </trkpt>
      <trkpt lat="38.95472" lon="-8.11117">
        <ele>70.028</ele>
        <time>2019-10-16T00:27:00Z</time>
      </trkpt>
      <trkpt lat="38.95473" lon="-8.11112">
        <ele>69.18</ele>
        <time>2019-10-16T00:27:20Z</time>
      </trkpt>
      <trkpt lat="38.95475" lon="-8.1107">
        <ele>63.75</ele>
        <time>2019-10-16T00:27:40Z</time>
      </trkpt>
      <trkpt lat="38.95477" lon="-8.11014">
        <ele>61.785</ele>
        <time>2019-10-16T00:28:00Z</time>
      </trkpt>
      <trkpt lat="38.95478" lon="-8.11013">
        <ele>61.789</ele>
        <time>2019-10-16T00:28:20Z</time>
      </trkpt>
      <trkpt lat="38.95478" lon="-8.1101">
        <ele>61.717</ele>
        <time>2019-10-16T00:28:40Z</time>
      </trkpt>
      <trkpt lat="38.9548" lon="-8.10987">
        <ele>61.008</ele>
        <time>2019-10-16T00:29:00Z</time>
      </trkpt>
      <trkpt lat="38.95485" lon="-8.10899">
        <ele>63.812</ele>
        <time>2019-10-16T00:29:20Z</time>
      </trkpt>
      <trkpt lat="38.95488" lon="-8.10856">
        <ele>67.73</ele>
        <time>2019-10-16T00:29:40Z</time>
      </trkpt>
      <trkpt lat="38.9549" lon="-8.10786">
        <ele>70.792</ele>
        <time>2019-10-16T00:30:00Z</time>
      </trkpt>
      <trkpt lat="38.95494" lon="-8.10784">
        <ele>70.892</ele>
        <time>2019-10-16T00:30:20Z</time>
      </trkpt>
      <trkpt lat="38.95507" lon="-8.10782">
        <ele>70.884</ele>
        <time>2019-10-16T00:30:40Z</time>
      </trkpt>
      <trkpt lat="38.95511" lon="-8.10775">
        <ele>71.175</ele>
        <time>2019-10-16T00:31:00Z</time>
      </trkpt>
      <trkpt lat="38.95514" lon="-8.1077">
        <ele>71.447</ele>
        <time>2019-10-16T00:31:20Z</time>
      </trkpt>
      <trkpt lat="38.95507" lon="-8.10751">
        <ele>72.227</ele>
        <time>2019-10-16T00:31:40Z</time>
      </trkpt>
      <trkpt lat="38.95412" lon="-8.10479">
        <ele>91.072</ele>
        <time>2019-10-16T00:32:00Z</time>
      </trkpt>
      <trkpt lat="38.95444" lon="-8.10386">
        <ele>91.013</ele>
        <time>2019-10-16T00:32:20Z</time>
      </trkpt>
      <trkpt lat="38.95439" lon="-8.10336">
        <ele>90.814</ele>
        <time>2019-10-16T00:32:40Z</time>
      </trkpt>
      <trkpt lat="38.9538" lon="-8.10296">
        <ele>90.908</ele>
        <time>2019-10-16T00:33:00Z</time>
      </trkpt>
      <trkpt lat="38.95331" lon="-8.10286">
        <ele>92.711</ele>
        <time>2019-10-16T00:33:20Z</time>
      </trkpt>
      <trkpt lat="38.95296" lon="-8.10239">
        <ele>91.119</ele>
        <time>2019-10-16T00:33:40Z</time>
      </trkpt>
      <trkpt lat="38.95215" lon="-8.10139">
        <ele>97.051</ele>
        <time>2019-10-16T00:34:00Z</time>
      </trkpt>
      <trkpt lat="38.95194" lon="-8.10096">
        <ele>100.581</ele>
        <time>2019-10-16T00:34:20Z</time>
      </trkpt>
      <trkpt lat="38.95161" lon="-8.10083">
        <ele>100.863</ele>
        <time>2019-10-16T00:34:40Z</time>
      </trkpt>
      <trkpt lat="38.95137" lon="-8.09953">
        <ele>104.794</ele>
        <time>2019-10-16T00:35:00Z</time>
      </trkpt>
      <trkpt lat="38.95072" lon="-8.09829">
        <ele>112.746</ele>
        <time>2019-10-16T00:35:20Z</time>
      </trkpt>
      <trkpt lat="38.94997" lon="-8.0961">
        <ele>128.996</ele>
        <time>2019-10-16T00:35:40Z</time>
      </trkpt>
      <trkpt lat="38.95013" lon="-8.09533">
        <ele>130.439</ele>
        <time>2019-10-16T00:36:00Z</time>
      </trkpt>
      <trkpt lat="38.94975" lon="-8.09393">
        <ele>133.701</ele>
        <time>2019-10-16T00:36:20Z</time>
      </trkpt>
      <trkpt lat="38.94892" lon="-8.09303">
        <ele>126.921</ele>
        <time>2019-10-16T00:36:40Z</time>
      </trkpt>
      <trkpt lat="38.9483" lon="-8.09137">
        <ele>118.708</ele>
        <time>2019-10-16T00:37:00Z</time>
      </trkpt>
      <trkpt lat="38.94816" lon="-8.09037">
        <ele>114.027</ele>
        <time>2019-10-16T00:37:20Z</time>
      </trkpt>
      <trkpt lat="38.94722" lon="-8.08903">
        <ele>95.075</ele>
        <time>2019-10-16T00:37:40Z</time>
      </trkpt>
      <trkpt lat="38.94504" lon="-8.08867">
        <ele>84.617</ele>
        <time>2019-10-16T00:38:00Z</time>
      </trkpt>
      <trkpt lat="38.9449" lon="-8.08843">
        <ele>84.497</ele>
        <time>2019-10-16T00:38:20Z</time>
      </trkpt>
      <trkpt lat="38.94471" lon="-8.08747">
        <ele>74.819</ele>
        <time>2019-10-16T00:38:40Z</time>
      </trkpt>
      <trkpt lat="38.94485" lon="-8.0866">
        <ele>67.82</ele>
        <time>2019-10-16T00:39:00Z</time>
      </trkpt>
      <trkpt lat="38.94401" lon="-8.0865">
        <ele>65.742</ele>
        <time>2019-10-16T00:39:20Z</time>
      </trkpt>
      <trkpt lat="38.94264" lon="-8.0821">
        <ele>64.052</ele>
        <time>2019-10-16T00:39:40Z</time>
      </trkpt>
      <trkpt lat="38.94285" lon="-8.08177">
        <ele>63.524</ele>
        <time>2019-10-16T00:40:00Z</time>
      </trkpt>
      <trkpt lat="38.94388" lon="-8.0817">
        <ele>66.104</ele>
        <time>2019-10-16T00:40:20Z</time>
      </trkpt>
      <trkpt lat="38.94509" lon="-8.08177">
        <ele>70.314</ele>
        <time>2019-10-16T00:40:40Z</time>
      </trkpt>
      <trkpt lat="38.94552" lon="-8.08054">
        <ele>71.908</ele>
        <time>2019-10-16T00:41:00Z</time>
      </trkpt>
      <trkpt lat="38.94401" lon="-8.07324">
        <ele>76.726</ele>
        <time>2019-10-16T00:41:20Z</time>
      </trkpt>
      <trkpt lat="38.94356" lon="-8.07221">
        <ele>77.794</ele>
        <time>2019-10-16T00:41:40Z</time>
      </trkpt>
      <trkpt lat="38.94393" lon="-8.06928">
        <ele>76.526</ele>
        <time>2019-10-16T00:42:00Z</time>
      </trkpt>
      <trkpt lat="38.94622" lon="-8.06724">
        <ele>78.126</ele>
        <time>2019-10-16T00:42:20Z</time>
      </trkpt>
      <trkpt lat="38.94706" lon="-8.06768">
        <ele>79.598</ele>
        <time>2019-10-16T00:42:40Z</time>
      </trkpt>
      <trkpt lat="38.94814" lon="-8.06568">
        <ele>82.629</ele>
        <time>2019-10-16T00:43:00Z</time>
      </trkpt>
      <trkpt lat="38.94886" lon="-8.06085">
        <ele>81.031</ele>
        <time>2019-10-16T00:43:20Z</time>
      </trkpt>
      <trkpt lat="38.94843" lon="-8.05605">
        <ele>81.681</ele>
        <time>2019-10-16T00:43:40Z</time>
      </trkpt>
      <trkpt lat="38.94895" lon="-8.05398">
        <ele>80.513</ele>
        <time>2019-10-16T00:44:00Z</time>
      </trkpt>
      <trkpt lat="38.94733" lon="-8.04959">
        <ele>82.443</ele>
        <time>2019-10-16T00:44:20Z</time>
      </trkpt>
      <trkpt lat="38.94587" lon="-8.04462">
        <ele>72.907</ele>
        <time>2019-10-16T00:44:40Z</time>
      </trkpt>
      <trkpt lat="38.9442" lon="-8.04279">
        <ele>84.008</ele>
        <time>2019-10-16T00:45:00Z</time>
      </trkpt>
      <trkpt lat="38.94215" lon="-8.03126">
        <ele>89.925</ele>
        <time>2019-10-16T00:45:20Z</time>
      </trkpt>
      <trkpt lat="38.94267" lon="-8.029">
        <ele>85.613</ele>
        <time>2019-10-16T00:45:40Z</time>
      </trkpt>
      <trkpt lat="38.94453" lon="-8.0264">
        <ele>93.395</ele>
        <time>2019-10-16T00:46:00Z</time>
      </trkpt>
      <trkpt lat="38.94644" lon="-8.02556">
        <ele>86.225</ele>
        <time>2019-10-16T00:46:20Z</time>
      </trkpt>
      <trkpt lat="38.94684" lon="-8.025">
        <ele>84.347</ele>
        <time>2019-10-16T00:46:40Z</time>
      </trkpt>
      <trkpt lat="38.9469" lon="-8.02367">
        <ele>77.238</ele>
        <time>2019-10-16T00:47:00Z</time>
      </trkpt>
      <trkpt lat="38.94649" lon="-8.02057">
        <ele>81.06</ele>
        <time>2019-10-16T00:47:20Z</time>
      </trkpt>
      <trkpt lat="38.94873" lon="-8.01107">
        <ele>93.62</ele>
        <time>2019-10-16T00:47:40Z</time>
      </trkpt>
      <trkpt lat="38.94881" lon="-8.00977">
        <ele>98.846</ele>
        <time>2019-10-16T00:48:00Z</time>
      </trkpt>
      <trkpt lat="38.94876" lon="-8.00894">
        <ele>98.688</ele>
        <time>2019-10-16T00:48:20Z</time>
      </trkpt>
      <trkpt lat="38.94873" lon="-8.00801">
        <ele>99.916</ele>
        <time>2019-10-16T00:48:40Z</time>
      </trkpt>
      <trkpt lat="38.94862" lon="-8.00711">
        <ele>100.908</ele>
        <time>2019-10-16T00:49:00Z</time>
      </trkpt>
      <trkpt lat="38.94779" lon="-8.00574">
        <ele>105.468</ele>
        <time>2019-10-16T00:49:20Z</time>
      </trkpt>
      <trkpt lat="38.94935" lon="-8.00334">
        <ele>111.766</ele>
        <time>2019-10-16T00:49:40Z</time>
      </trkpt>
      <trkpt lat="38.95048" lon="-8.00171">
        <ele>117.558</ele>
        <time>2019-10-16T00:50:00Z</time>
      </trkpt>
      <trkpt lat="38.95145" lon="-8.00101">
        <ele>125.818</ele>
        <time>2019-10-16T00:50:20Z</time>
      </trkpt>
      <trkpt lat="38.95194" lon="-7.99961">
        <ele>130.03</ele>
        <time>2019-10-16T00:50:40Z</time>
      </trkpt>
      <trkpt lat="38.95169" lon="-7.99831">
        <ele>126.961</ele>
        <time>2019-10-16T00:51:00Z</time>
      </trkpt>
      <trkpt lat="38.95143" lon="-7.99661">
        <ele>113.553</ele>
        <time>2019-10-16T00:51:20Z</time>
      </trkpt>
      <trkpt lat="38.95156" lon="-7.99531">
        <ele>109.553</ele>
        <time>2019-10-16T00:51:40Z</time>
      </trkpt>
      <trkpt lat="38.95134" lon="-7.99355">
        <ele>117.496</ele>
        <time>2019-10-16T00:52:00Z</time>
      </trkpt>
      <trkpt lat="38.95312" lon="-7.99341">
        <ele>115.531</ele>
        <time>2019-10-16T00:52:20Z</time>
      </trkpt>
      <trkpt lat="38.95517" lon="-7.99348">
        <ele>120.924</ele>
        <time>2019-10-16T00:52:40Z</time>
      </trkpt>
      <trkpt lat="38.95644" lon="-7.99332">
        <ele>125.408</ele>
        <time>2019-10-16T00:53:00Z</time>
      </trkpt>
      <trkpt lat="38.95811" lon="-7.99368">
        <ele>132.043</ele>
        <time>2019-10-16T00:53:20Z</time>
      </trkpt>
      <trkpt lat="38.95935" lon="-7.99448">
        <ele>131.751</ele>
        <time>2019-10-16T00:53:40Z</time>
      </trkpt>
      <trkpt lat="38.96075" lon="-7.99451">
        <ele>131.163</ele>
        <time>2019-10-16T00:54:00Z</time>
      </trkpt>
      <trkpt lat="38.96121" lon="-7.99481">
        <ele>126.993</ele>
        <time>2019-10-16T00:54:20Z</time>
      </trkpt>
      <trkpt lat="38.96199" lon="-7.99548">
        <ele>108.895</ele>
        <time>2019-10-16T00:54:40Z</time>
      </trkpt>
      <trkpt lat="38.96237" lon="-7.99605">
        <ele>103.396</ele>
        <time>2019-10-16T00:55:00Z</time>
      </trkpt>
      <trkpt lat="38.96318" lon="-7.99568">
        <ele>99.198</ele>
        <time>2019-10-16T00:55:20Z</time>
      </trkpt>
      <trkpt lat="38.96522" lon="-7.99515">
        <ele>92.058</ele>
        <time>2019-10-16T00:55:40Z</time>
      </trkpt>
      <trkpt lat="38.9663" lon="-7.99708">
        <ele>86.688</ele>
        <time>2019-10-16T00:56:00Z</time>
      </trkpt>
      <trkpt lat="38.96803" lon="-7.99661">
        <ele>88.024</ele>
        <time>2019-10-16T00:56:20Z</time>
      </trkpt>
      <trkpt lat="38.97635" lon="-7.99855">
        <ele>88.926</ele>
        <time>2019-10-16T00:56:40Z</time>
      </trkpt>
      <trkpt lat="38.97695" lon="-7.99958">
        <ele>88.508</ele>
        <time>2019-10-16T00:57:00Z</time>
      </trkpt>
      <trkpt lat="38.98129" lon="-8.00234">
        <ele>85.962</ele>
        <time>2019-10-16T00:57:20Z</time>
      </trkpt>
      <trkpt lat="38.9853" lon="-8.00404">
        <ele>89.54</ele>
        <time>2019-10-16T00:57:40Z</time>
      </trkpt>
      <trkpt lat="38.99196" lon="-8.00571">
        <ele>92.042</ele>
        <time>2019-10-16T00:58:00Z</time>
      </trkpt>
      <trkpt lat="38.99468" lon="-8.00474">
        <ele>90.992</ele>
        <time>2019-10-16T00:58:20Z</time>
      </trkpt>
      <trkpt lat="38.99697" lon="-8.00531">
        <ele>87.844</ele>
        <time>2019-10-16T00:58:40Z</time>
      </trkpt>
      <trkpt lat="38.99921" lon="-8.00414">
        <ele>94.945</ele>
        <time>2019-10-16T00:59:00Z</time>
      </trkpt>
      <trkpt lat="39.00166" lon="-7.99795">
        <ele>97.857</ele>
        <time>2019-10-16T00:59:20Z</time>
      </trkpt>
      <trkpt lat="39.00341" lon="-7.99658">
        <ele>101.167</ele>
        <time>2019-10-16T00:59:40Z</time>
      </trkpt>
      <trkpt lat="39.00764" lon="-7.99168">
        <ele>98.446</ele>
        <time>2019-10-16T01:00:00Z</time>
      </trkpt>
      <trkpt lat="39.00837" lon="-7.98842">
        <ele>92.888</ele>
        <time>2019-10-16T01:00:20Z</time>
      </trkpt>
      <trkpt lat="39.00818" lon="-7.98565">
        <ele>110.116</ele>
        <time>2019-10-16T01:00:40Z</time>
      </trkpt>
      <trkpt lat="39.00845" lon="-7.98282">
        <ele>130.208</ele>
        <time>2019-10-16T01:01:00Z</time>
      </trkpt>
      <trkpt lat="39.01018" lon="-7.97945">
        <ele>146.868</ele>
        <time>2019-10-16T01:01:20Z</time>
      </trkpt>
      <trkpt lat="39.01025" lon="-7.97842">
        <ele>153.126</ele>
        <time>2019-10-16T01:01:40Z</time>
      </trkpt>
      <trkpt lat="39.01006" lon="-7.977">
        <ele>161.278</ele>
        <time>2019-10-16T01:02:00Z</time>
      </trkpt>
      <trkpt lat="39.00944" lon="-7.97529">
        <ele>171.028</ele>
        <time>2019-10-16T01:02:20Z</time>
      </trkpt>
      <trkpt lat="39.00971" lon="-7.97415">
        <ele>170.15</ele>
        <time>2019-10-16T01:02:40Z</time>
      </trkpt>
      <trkpt lat="39.00992" lon="-7.97414">
        <ele>169.591</ele>
        <time>2019-10-16T01:03:00Z</time>
      </trkpt>
      <trkpt lat="39.01004" lon="-7.97443">
        <ele>169.783</ele>
        <time>2019-10-16T01:03:20Z</time>
      </trkpt>
      <trkpt lat="39.01005" lon="-7.9747">
        <ele>169.673</ele>
        <time>2019-10-16T01:03:40Z</time>
      </trkpt>
      <trkpt lat="39.01025" lon="-7.97505">
        <ele>166.843</ele>
        <time>2019-10-16T01:04:00Z</time>
      </trkpt>
      <trkpt lat="39.01083" lon="-7.9756">
        <ele>161.564</ele>
        <time>2019-10-16T01:04:20Z</time>
      </trkpt>
      <trkpt lat="39.01158" lon="-7.97619">
        <ele>166.51</ele>
        <time>2019-10-16T01:04:40Z</time>
      </trkpt>
      <trkpt lat="39.01183" lon="-7.97651">
        <ele>166.908</ele>
        <time>2019-10-16T01:05:00Z</time>
      </trkpt>
      <trkpt lat="39.01247" lon="-7.97675">
        <ele>167.688</ele>
        <time>2019-10-16T01:05:20Z</time>
      </trkpt>
      <trkpt lat="39.01269" lon="-7.97712">
        <ele>167.166</ele>
        <time>2019-10-16T01:05:40Z</time>
      </trkpt>
      <trkpt lat="39.01289" lon="-7.97777">
        <ele>162.578</ele>
        <time>2019-10-16T01:06:00Z</time>
      </trkpt>
      <trkpt lat="39.01308" lon="-7.97793">
        <ele>161.218</ele>
        <time>2019-10-16T01:06:20Z</time>
      </trkpt>
      <trkpt lat="39.01367" lon="-7.97782">
        <ele>156.92</ele>
        <time>2019-10-16T01:06:40Z</time>
      </trkpt>
      <trkpt lat="39.01432" lon="-7.97766">
        <ele>145.671</ele>
        <time>2019-10-16T01:07:00Z</time>
      </trkpt>
      <trkpt lat="39.01448" lon="-7.9774">
        <ele>141.583</ele>
        <time>2019-10-16T01:07:20Z</time>
      </trkpt>
      <trkpt lat="39.0144" lon="-7.97696">
        <ele>140.763</ele>
        <time>2019-10-16T01:07:40Z</time>
      </trkpt>
      <trkpt lat="39.01427" lon="-7.97639">
        <ele>135.849</ele>
        <time>2019-10-16T01:08:00Z</time>
      </trkpt>
      <trkpt lat="39.01486" lon="-7.97596">
        <ele>122.002</ele>
        <time>2019-10-16T01:08:20Z</time>
      </trkpt>
      <trkpt lat="39.0159" lon="-7.97524">
        <ele>133.922</ele>
        <time>2019-10-16T01:08:40Z</time>
      </trkpt>
      <trkpt lat="39.01559" lon="-7.97464">
        <ele>134.008</ele>
        <time>2019-10-16T01:09:00Z</time>
      </trkpt>
      <trkpt lat="39.01485" lon="-7.97323">
        <ele>131.998</ele>
        <time>2019-10-16T01:09:20Z</time>
      </trkpt>
      <trkpt lat="39.01487" lon="-7.973">
        <ele>131.576</ele>
        <time>2019-10-16T01:09:40Z</time>
      </trkpt>
      <trkpt lat="39.01507" lon="-7.97293">
        <ele>131.658</ele>
        <time>2019-10-16T01:10:00Z</time>
      </trkpt>
      <trkpt lat="39.0154" lon="-7.9731">
        <ele>131.978</ele>
        <time>2019-10-16T01:10:20Z</time>
      </trkpt>
      <trkpt lat="39.01577" lon="-7.97344">
        <ele>133.88</ele>
        <time>2019-10-16T01:10:40Z</time>
      </trkpt>
      <trkpt lat="39.01591" lon="-7.97378">
        <ele>135.741</ele>
        <time>2019-10-16T01:11:00Z</time>
      </trkpt>
      <trkpt lat="39.01599" lon="-7.97393">
        <ele>134.983</ele>
        <time>2019-10-16T01:11:20Z</time>
      </trkpt>
      <trkpt lat="39.01609" lon="-7.97434">
        <ele>136.633</ele>
        <time>2019-10-16T01:11:40Z</time>
      </trkpt>
      <trkpt lat="39.01633" lon="-7.9755">
        <ele>141.575</ele>
        <time>2019-10-16T01:12:00Z</time>
      </trkpt>
      <trkpt lat="39.01646" lon="-7.97609">
        <ele>140.828</ele>
        <time>2019-10-16T01:12:20Z</time>
      </trkpt>
      <trkpt lat="39.01657" lon="-7.97638">
        <ele>142.92</ele>
        <time>2019-10-16T01:12:40Z</time>
      </trkpt>
      <trkpt lat="39.0168" lon="-7.9767">
        <ele>149.508</ele>
        <time>2019-10-16T01:13:00Z</time>
      </trkpt>
      <trkpt lat="39.01716" lon="-7.97738">
        <ele>164.261</ele>
        <time>2019-10-16T01:13:20Z</time>
      </trkpt>
      <trkpt lat="39.01728" lon="-7.97757">
        <ele>165.939</ele>
        <time>2019-10-16T01:13:40Z</time>
      </trkpt>
      <trkpt lat="39.01766" lon="-7.9779">
        <ele>167.111</ele>
        <time>2019-10-16T01:14:00Z</time>
      </trkpt>
      <trkpt lat="39.01868" lon="-7.97888">
        <ele>167.191</ele>
        <time>2019-10-16T01:14:20Z</time>
      </trkpt>
      <trkpt lat="39.01919" lon="-7.97963">
        <ele>170.443</ele>
        <time>2019-10-16T01:14:40Z</time>
      </trkpt>
      <trkpt lat="39.02136" lon="-7.9814">
        <ele>174.144</ele>
        <time>2019-10-16T01:15:00Z</time>
      </trkpt>
      <trkpt lat="39.02353" lon="-7.98167">
        <ele>169.376</ele>
        <time>2019-10-16T01:15:20Z</time>
      </trkpt>
      <trkpt lat="39.02474" lon="-7.9836">
        <ele>169.286</ele>
        <time>2019-10-16T01:15:40Z</time>
      </trkpt>
      <trkpt lat="39.02515" lon="-7.98545">
        <ele>167.178</ele>
        <time>2019-10-16T01:16:00Z</time>
      </trkpt>
      <trkpt lat="39.02479" lon="-7.98693">
        <ele>169.033</ele>
        <time>2019-10-16T01:16:20Z</time>
      </trkpt>
      <trkpt lat="39.02475" lon="-7.98807">
        <ele>170.726</ele>
        <time>2019-10-16T01:16:40Z</time>
      </trkpt>
      <trkpt lat="39.02519" lon="-7.98944">
        <ele>170.708</ele>
        <time>2019-10-16T01:17:00Z</time>
      </trkpt>
      <trkpt lat="39.02528" lon="-7.9906">
        <ele>173.091</ele>
        <time>2019-10-16T01:17:20Z</time>
      </trkpt>
      <trkpt lat="39.02538" lon="-7.99111">
        <ele>174.079</ele>
        <time>2019-10-16T01:17:40Z</time>
      </trkpt>
      <trkpt lat="39.02621" lon="-7.99238">
        <ele>176.561</ele>
        <time>2019-10-16T01:18:00Z</time>
      </trkpt>
      <trkpt lat="39.02718" lon="-7.993">
        <ele>178.881</ele>
        <time>2019-10-16T01:18:20Z</time>
      </trkpt>
      <trkpt lat="39.02871" lon="-7.99355">
        <ele>180.873</ele>
        <time>2019-10-16T01:18:40Z</time>
      </trkpt>
      <trkpt lat="39.03023" lon="-7.99546">
        <ele>179.184</ele>
        <time>2019-10-16T01:19:00Z</time>
      </trkpt>
      <trkpt lat="39.03216" lon="-7.99764">
        <ele>180.526</ele>
        <time>2019-10-16T01:19:20Z</time>
      </trkpt>
      <trkpt lat="39.03257" lon="-7.99815">
        <ele>178.376</ele>
        <time>2019-10-16T01:19:40Z</time>
      </trkpt>
      <trkpt lat="39.03383" lon="-8.00135">
        <ele>181.948</ele>
        <time>2019-10-16T01:20:00Z</time>
      </trkpt>
      <trkpt lat="39.03395" lon="-8.00244">
        <ele>182.861</ele>
        <time>2019-10-16T01:20:20Z</time>
      </trkpt>
      <trkpt lat="39.03397" lon="-8.00293">
        <ele>182.417</ele>
        <time>2019-10-16T01:20:40Z</time>
      </trkpt>
      <trkpt lat="39.03428" lon="-8.00344">
        <ele>181.608</ele>
        <time>2019-10-16T01:21:00Z</time>
      </trkpt>
      <trkpt lat="39.03541" lon="-8.00417">
        <ele>183.048</ele>
        <time>2019-10-16T01:21:20Z</time>
      </trkpt>
      <trkpt lat="39.03624" lon="-8.00532">
        <ele>178.736</ele>
        <time>2019-10-16T01:21:40Z</time>
      </trkpt>
      <trkpt lat="39.03685" lon="-8.00681">
        <ele>173.578</ele>
        <time>2019-10-16T01:22:00Z</time>
      </trkpt>
      <trkpt lat="39.03719" lon="-8.00763">
        <ele>167.678</ele>
        <time>2019-10-16T01:22:20Z</time>
      </trkpt>
      <trkpt lat="39.03782" lon="-8.00828">
        <ele>171.45</ele>
        <time>2019-10-16T01:22:40Z</time>
      </trkpt>
      <trkpt lat="39.03778" lon="-8.0091">
        <ele>173.861</ele>
        <time>2019-10-16T01:23:00Z</time>
      </trkpt>
      <trkpt lat="39.03832" lon="-8.01017">
        <ele>176.313</ele>
        <time>2019-10-16T01:23:20Z</time>
      </trkpt>
      <trkpt lat="39.03864" lon="-8.01141">
        <ele>175.023</ele>
        <time>2019-10-16T01:23:40Z</time>
      </trkpt>
      <trkpt lat="39.03922" lon="-8.01121">
        <ele>174.783</ele>
        <time>2019-10-16T01:24:00Z</time>
      </trkpt>
      <trkpt lat="39.03968" lon="-8.01108">
        <ele>175.925</ele>
        <time>2019-10-16T01:24:20Z</time>
      </trkpt>
      <trkpt lat="39.03994" lon="-8.01068">
        <ele>177.317</ele>
        <time>2019-10-16T01:24:40Z</time>
      </trkpt>
      <trkpt lat="39.04085" lon="-8.01003">
        <ele>178.008</ele>
        <time>2019-10-16T01:25:00Z</time>
      </trkpt>
      <trkpt lat="39.04206" lon="-8.00866">
        <ele>177.672</ele>
        <time>2019-10-16T01:25:20Z</time>
      </trkpt>
      <trkpt lat="39.04304" lon="-8.00819">
        <ele>177.59</ele>
        <time>2019-10-16T01:25:40Z</time>
      </trkpt>
      <trkpt lat="39.04383" lon="-8.0081">
        <ele>180.012</ele>
        <time>2019-10-16T01:26:00Z</time>
      </trkpt>
      <trkpt lat="39.04445" lon="-8.0079">
        <ele>179.012</ele>
        <time>2019-10-16T01:26:20Z</time>
      </trkpt>
      <trkpt lat="39.0452" lon="-8.00744">
        <ele>177.074</ele>
        <time>2019-10-16T01:26:40Z</time>
      </trkpt>
      <trkpt lat="39.0456" lon="-8.00741">
        <ele>178.395</ele>
        <time>2019-10-16T01:27:00Z</time>
      </trkpt>
      <trkpt lat="39.04644" lon="-8.00803">
        <ele>174.117</ele>
        <time>2019-10-16T01:27:20Z</time>
      </trkpt>
      <trkpt lat="39.04682" lon="-8.0081">
        <ele>173.187</ele>
        <time>2019-10-16T01:27:40Z</time>
      </trkpt>
      <trkpt lat="39.04723" lon="-8.00799">
        <ele>172.239</ele>
        <time>2019-10-16T01:28:00Z</time>
      </trkpt>
      <trkpt lat="39.04763" lon="-8.00795">
        <ele>171.301</ele>
        <time>2019-10-16T01:28:20Z</time>
      </trkpt>
      <trkpt lat="39.04878" lon="-8.00719">
        <ele>170.621</ele>
        <time>2019-10-16T01:28:40Z</time>
      </trkpt>
      <trkpt lat="39.04809" lon="-8.00832">
        <ele>170.008</ele>
        <time>2019-10-16T01:29:00Z</time>
      </trkpt>
      <trkpt lat="39.04763" lon="-8.00917">
        <ele>167.477</ele>
        <time>2019-10-16T01:29:20Z</time>
      </trkpt>
      <trkpt lat="39.04694" lon="-8.01048">
        <ele>167.015</ele>
        <time>2019-10-16T01:29:40Z</time>
      </trkpt>
      <trkpt lat="39.04639" lon="-8.01143">
        <ele>166.357</ele>
        <time>2019-10-16T01:30:00Z</time>
      </trkpt>
      <trkpt lat="39.04604" lon="-8.01208">
        <ele>166.997</ele>
        <time>2019-10-16T01:30:20Z</time>
      </trkpt>
      <trkpt lat="39.04569" lon="-8.01243">
        <ele>166.059</ele>
        <time>2019-10-16T01:30:40Z</time>
      </trkpt>
      <trkpt lat="39.04545" lon="-8.0127">
        <ele>164.93</ele>
        <time>2019-10-16T01:31:00Z</time>
      </trkpt>
      <trkpt lat="39.0452" lon="-8.01319">
        <ele>164.372</ele>
        <time>2019-10-16T01:31:20Z</time>
      </trkpt>
      <trkpt lat="39.04498" lon="-8.01417">
        <ele>161.952</ele>
        <time>2019-10-16T01:31:40Z</time>
      </trkpt>
      <trkpt lat="39.04502" lon="-8.01468">
        <ele>164.064</ele>
        <time>2019-10-16T01:32:00Z</time>
      </trkpt>
      <trkpt lat="39.04588" lon="-8.01548">
        <ele>163.106</ele>
        <time>2019-10-16T01:32:20Z</time>
      </trkpt>
      <trkpt lat="39.04736" lon="-8.01619">
        <ele>168.216</ele>
        <time>2019-10-16T01:32:40Z</time>
      </trkpt>
      <trkpt lat="39.04824" lon="-8.01701">
        <ele>168.708</ele>
        <time>2019-10-16T01:33:00Z</time>
      </trkpt>
      <trkpt lat="39.04967" lon="-8.01712">
        <ele>171.87</ele>
        <time>2019-10-16T01:33:20Z</time>
      </trkpt>
      <trkpt lat="39.05016" lon="-8.0171">
        <ele>171.928</ele>
        <time>2019-10-16T01:33:40Z</time>
      </trkpt>
      <trkpt lat="39.05102" lon="-8.01694">
        <ele>172.02</ele>
        <time>2019-10-16T01:34:00Z</time>
      </trkpt>
      <trkpt lat="39.05246" lon="-8.01687">
        <ele>173.64</ele>
        <time>2019-10-16T01:34:20Z</time>
      </trkpt>
      <trkpt lat="39.05336" lon="-8.0167">
        <ele>175.292</ele>
        <time>2019-10-16T01:34:40Z</time>
      </trkpt>
      <trkpt lat="39.05463" lon="-8.01685">
        <ele>178.663</ele>
        <time>2019-10-16T01:35:00Z</time>
      </trkpt>
      <trkpt lat="39.05537" lon="-8.01741">
        <ele>181.395</ele>
        <time>2019-10-16T01:35:20Z</time>
      </trkpt>
      <trkpt lat="39.05602" lon="-8.01823">
        <ele>183.395</ele>
        <time>2019-10-16T01:35:40Z</time>
      </trkpt>
      <trkpt lat="39.05614" lon="-8.01841">
        <ele>183.786</ele>
        <time>2019-10-16T01:36:00Z</time>
      </trkpt>
      <trkpt lat="39.0563" lon="-8.01852">
        <ele>183.36</ele>
        <time>2019-10-16T01:36:20Z</time>
      </trkpt>
      <trkpt lat="39.05603" lon="-8.01901">
        <ele>182.126</ele>
        <time>2019-10-16T01:36:40Z</time>
      </trkpt>
      <trkpt lat="39.05593" lon="-8.01927">
        <ele>181.408</ele>
        <time>2019-10-16T01:37:00Z</time>
      </trkpt>
      <trkpt lat="39.05571" lon="-8.01974">
        <ele>180.082</ele>
        <time>2019-10-16T01:37:20Z</time>
      </trkpt>
      <trkpt lat="39.05573" lon="-8.02032">
        <ele>179.66</ele>
        <time>2019-10-16T01:37:40Z</time>
      </trkpt>
      <trkpt lat="39.05537" lon="-8.02123">
        <ele>181.322</ele>
        <time>2019-10-16T01:38:00Z</time>
      </trkpt>
      <trkpt lat="39.05515" lon="-8.02172">
        <ele>183.862</ele>
        <time>2019-10-16T01:38:20Z</time>
      </trkpt>
      <trkpt lat="39.05425" lon="-8.02272">
        <ele>180.424</ele>
        <time>2019-10-16T01:38:40Z</time>
      </trkpt>
      <trkpt lat="39.05458" lon="-8.02434">
        <ele>179.785</ele>
        <time>2019-10-16T01:39:00Z</time>
      </trkpt>
      <trkpt lat="39.0553" lon="-8.02525">
        <ele>179.947</ele>
        <time>2019-10-16T01:39:20Z</time>
      </trkpt>
      <trkpt lat="39.05589" lon="-8.02594">
        <ele>179.937</ele>
        <time>2019-10-16T01:39:40Z</time>
      </trkpt>
      <trkpt lat="39.05632" lon="-8.02745">
        <ele>180.896</ele>
        <time>2019-10-16T01:40:00Z</time>
      </trkpt>
      <trkpt lat="39.05632" lon="-8.02876">
        <ele>179.431</ele>
        <time>2019-10-16T01:40:20Z</time>
      </trkpt>
      <trkpt lat="39.05632" lon="-8.03009">
        <ele>180.024</ele>
        <time>2019-10-16T01:40:40Z</time>
      </trkpt>
      <trkpt lat="39.05637" lon="-8.03114">
        <ele>179.908</ele>
        <time>2019-10-16T01:41:00Z</time>
      </trkpt>
      <trkpt lat="39.05672" lon="-8.03213">
        <ele>178.133</ele>
        <time>2019-10-16T01:41:20Z</time>
      </trkpt>
      <trkpt lat="39.05747" lon="-8.03318">
        <ele>177.041</ele>
        <time>2019-10-16T01:41:40Z</time>
      </trkpt>
      <trkpt lat="39.05832" lon="-8.03413">
        <ele>176.963</ele>
        <time>2019-10-16T01:42:00Z</time>
      </trkpt>
      <trkpt lat="39.05923" lon="-8.03558">
        <ele>176.063</ele>
        <time>2019-10-16T01:42:20Z</time>
      </trkpt>
      <trkpt lat="39.05964" lon="-8.03631">
        <ele>175.745</ele>
        <time>2019-10-16T01:42:40Z</time>
      </trkpt>
      <trkpt lat="39.06053" lon="-8.03733">
        <ele>177.596</ele>
        <time>2019-10-16T01:43:00Z</time>
      </trkpt>
      <trkpt lat="39.06094" lon="-8.03853">
        <ele>175.718</ele>
        <time>2019-10-16T01:43:20Z</time>
      </trkpt>
      <trkpt lat="39.06088" lon="-8.03989">
        <ele>175.978</ele>
        <time>2019-10-16T01:43:40Z</time>
      </trkpt>
      <trkpt lat="39.06139" lon="-8.0416">
        <ele>172.272</ele>
        <time>2019-10-16T01:44:00Z</time>
      </trkpt>
      <trkpt lat="39.06141" lon="-8.04204">
        <ele>171.613</ele>
        <time>2019-10-16T01:44:20Z</time>
      </trkpt>
      <trkpt lat="39.06187" lon="-8.04309">
        <ele>167.914</ele>
        <time>2019-10-16T01:44:40Z</time>
      </trkpt>
      <trkpt lat="39.06196" lon="-8.04448">
        <ele>167.108</ele>
        <time>2019-10-16T01:45:00Z</time>
      </trkpt>
      <trkpt lat="39.06196" lon="-8.04551">
        <ele>168.981</ele>
        <time>2019-10-16T01:45:20Z</time>
      </trkpt>
      <trkpt lat="39.06139" lon="-8.04684">
        <ele>166.079</ele>
        <time>2019-10-16T01:45:40Z</time>
      </trkpt>
      <trkpt lat="39.06076" lon="-8.04811">
        <ele>165.361</ele>
        <time>2019-10-16T01:46:00Z</time>
      </trkpt>
      <trkpt lat="39.06029" lon="-8.04837">
        <ele>163.081</ele>
        <time>2019-10-16T01:46:20Z</time>
      </trkpt>
      <trkpt lat="39.06022" lon="-8.04882">
        <ele>163.433</ele>
        <time>2019-10-16T01:46:40Z</time>
      </trkpt>
      <trkpt lat="39.06002" lon="-8.05008">
        <ele>164.064</ele>
        <time>2019-10-16T01:47:00Z</time>
      </trkpt>
      <trkpt lat="39.05975" lon="-8.0513">
        <ele>166.786</ele>
        <time>2019-10-16T01:47:20Z</time>
      </trkpt>
      <trkpt lat="39.05988" lon="-8.05177">
        <ele>165.596</ele>
        <time>2019-10-16T01:47:40Z</time>
      </trkpt>
      <trkpt lat="39.06001" lon="-8.05273">
        <ele>162.018</ele>
        <time>2019-10-16T01:48:00Z</time>
      </trkpt>
      <trkpt lat="39.0591" lon="-8.05486">
        <ele>165.198</ele>
        <time>2019-10-16T01:48:20Z</time>
      </trkpt>
      <trkpt lat="39.05899" lon="-8.05592">
        <ele>166.817</ele>
        <time>2019-10-16T01:48:40Z</time>
      </trkpt>
      <trkpt lat="39.05891" lon="-8.05766">
        <ele>168.108</ele>
        <time>2019-10-16T01:49:00Z</time>
      </trkpt>
      <trkpt lat="39.05899" lon="-8.05896">
        <ele>165.455</ele>
        <time>2019-10-16T01:49:20Z</time>
      </trkpt>
      <trkpt lat="39.05974" lon="-8.05996">
        <ele>165.243</ele>
        <time>2019-10-16T01:49:40Z</time>
      </trkpt>
      <trkpt lat="39.06028" lon="-8.06116">
        <ele>159.095</ele>
        <time>2019-10-16T01:50:00Z</time>
      </trkpt>
      <trkpt lat="39.06004" lon="-8.06229">
        <ele>158.485</ele>
        <time>2019-10-16T01:50:20Z</time>
      </trkpt>
      <trkpt lat="39.05972" lon="-8.06289">
        <ele>161.017</ele>
        <time>2019-10-16T01:50:40Z</time>
      </trkpt>
      <trkpt lat="39.0592" lon="-8.06389">
        <ele>164.048</ele>
        <time>2019-10-16T01:51:00Z</time>
      </trkpt>
      <trkpt lat="39.05869" lon="-8.06445">
        <ele>164.04</ele>
        <time>2019-10-16T01:51:20Z</time>
      </trkpt>
      <trkpt lat="39.05845" lon="-8.06562">
        <ele>163.08</ele>
        <time>2019-10-16T01:51:40Z</time>
      </trkpt>
      <trkpt lat="39.05969" lon="-8.06835">
        <ele>163.876</ele>
        <time>2019-10-16T01:52:00Z</time>
      </trkpt>
      <trkpt lat="39.06125" lon="-8.06992">
        <ele>159.79</ele>
        <time>2019-10-16T01:52:20Z</time>
      </trkpt>
      <trkpt lat="39.06247" lon="-8.07052">
        <ele>159.219</ele>
        <time>2019-10-16T01:52:40Z</time>
      </trkpt>
      <trkpt lat="39.06295" lon="-8.07135">
        <ele>159.908</ele>
        <time>2019-10-16T01:53:00Z</time>
      </trkpt>
      <trkpt lat="39.06263" lon="-8.07268">
        <ele>159.721</ele>
        <time>2019-10-16T01:53:20Z</time>
      </trkpt>
      <trkpt lat="39.06233" lon="-8.07378">
        <ele>160.819</ele>
        <time>2019-10-16T01:53:40Z</time>
      </trkpt>
      <trkpt lat="39.06279" lon="-8.07545">
        <ele>160.021</ele>
        <time>2019-10-16T01:54:00Z</time>
      </trkpt>
      <trkpt lat="39.06438" lon="-8.07661">
        <ele>156.431</ele>
        <time>2019-10-16T01:54:20Z</time>
      </trkpt>
      <trkpt lat="39.06527" lon="-8.07648">
        <ele>157.093</ele>
        <time>2019-10-16T01:54:40Z</time>
      </trkpt>
      <trkpt lat="39.06629" lon="-8.07838">
        <ele>156.594</ele>
        <time>2019-10-16T01:55:00Z</time>
      </trkpt>
      <trkpt lat="39.0671" lon="-8.08074">
        <ele>157.726</ele>
        <time>2019-10-16T01:55:20Z</time>
      </trkpt>
      <trkpt lat="39.06729" lon="-8.08134">
        <ele>155.386</ele>
        <time>2019-10-16T01:55:40Z</time>
      </trkpt>
      <trkpt lat="39.06764" lon="-8.08174">
        <ele>153.812</ele>
        <time>2019-10-16T01:56:00Z</time>
      </trkpt>
      <trkpt lat="39.06761" lon="-8.08248">
        <ele>155.632</ele>
        <time>2019-10-16T01:56:20Z</time>
      </trkpt>
      <trkpt lat="39.06834" lon="-8.08381">
        <ele>152.205</ele>
        <time>2019-10-16T01:56:40Z</time>
      </trkpt>
      <trkpt lat="39.06872" lon="-8.08461">
        <ele>153.208</ele>
        <time>2019-10-16T01:57:00Z</time>
      </trkpt>
      <trkpt lat="39.07001" lon="-8.08594">
        <ele>156.515</ele>
        <time>2019-10-16T01:57:20Z</time>
      </trkpt>
      <trkpt lat="39.07061" lon="-8.08657">
        <ele>160.843</ele>
        <time>2019-10-16T01:57:40Z</time>
      </trkpt>
      <trkpt lat="39.07155" lon="-8.08704">
        <ele>152.565</ele>
        <time>2019-10-16T01:58:00Z</time>
      </trkpt>
      <trkpt lat="39.07217" lon="-8.08737">
        <ele>150.235</ele>
        <time>2019-10-16T01:58:20Z</time>
      </trkpt>
      <trkpt lat="39.07295" lon="-8.08714">
        <ele>152.587</ele>
        <time>2019-10-16T01:58:40Z</time>
      </trkpt>
      <trkpt lat="39.07414" lon="-8.08701">
        <ele>151.738</ele>
        <time>2019-10-16T01:59:00Z</time>
      </trkpt>
      <trkpt lat="39.07462" lon="-8.08687">
        <ele>152.73</ele>
        <time>2019-10-16T01:59:20Z</time>
      </trkpt>
      <trkpt lat="39.07505" lon="-8.08689">
        <ele>153.22</ele>
        <time>2019-10-16T01:59:40Z</time>
      </trkpt>
      <trkpt lat="39.07532" lon="-8.08677">
        <ele>153.441</ele>
        <time>2019-10-16T02:00:00Z</time>
      </trkpt>
      <trkpt lat="39.07566" lon="-8.08648">
        <ele>152.281</ele>
        <time>2019-10-16T02:00:20Z</time>
      </trkpt>
      <trkpt lat="39.07602" lon="-8.08587">
        <ele>152.609</ele>
        <time>2019-10-16T02:00:40Z</time>
      </trkpt>
      <trkpt lat="39.07657" lon="-8.08524">
        <ele>154.608</ele>
        <time>2019-10-16T02:01:00Z</time>
      </trkpt>
      <trkpt lat="39.07679" lon="-8.08504">
        <ele>154.478</ele>
        <time>2019-10-16T02:01:20Z</time>
      </trkpt>
      <trkpt lat="39.07703" lon="-8.0849">
        <ele>154.626</ele>
        <time>2019-10-16T02:01:40Z</time>
      </trkpt>
      <trkpt lat="39.07722" lon="-8.08512">
        <ele>154.588</ele>
        <time>2019-10-16T02:02:00Z</time>
      </trkpt>
      <trkpt lat="39.07735" lon="-8.08484">
        <ele>155.048</ele>
        <time>2019-10-16T02:02:20Z</time>
      </trkpt>
      <trkpt lat="39.07743" lon="-8.08456">
        <ele>154.34</ele>
        <time>2019-10-16T02:02:40Z</time>
      </trkpt>
      <trkpt lat="39.0776" lon="-8.08422">
        <ele>152.621</ele>
        <time>2019-10-16T02:03:00Z</time>
      </trkpt>
      <trkpt lat="39.07778" lon="-8.08398">
        <ele>153.073</ele>
        <time>2019-10-16T02:03:20Z</time>
      </trkpt>
      <trkpt lat="39.07807" lon="-8.08382">
        <ele>154.033</ele>
        <time>2019-10-16T02:03:40Z</time>
      </trkpt>
      <trkpt lat="39.07829" lon="-8.08371">
        <ele>153.774</ele>
        <time>2019-10-16T02:04:00Z</time>
      </trkpt>
      <trkpt lat="39.0784" lon="-8.08343">
        <ele>155.256</ele>
        <time>2019-10-16T02:04:20Z</time>
      </trkpt>
      <trkpt lat="39.07847" lon="-8.08313">
        <ele>155.121</ele>
        <time>2019-10-16T02:04:40Z</time>
      </trkpt>
      <trkpt lat="39.07855" lon="-8.08278">
        <ele>153.808</ele>
        <time>2019-10-16T02:05:00Z</time>
      </trkpt>
      <trkpt lat="39.07867" lon="-8.08246">
        <ele>153.751</ele>
        <time>2019-10-16T02:05:20Z</time>
      </trkpt>
      <trkpt lat="39.07876" lon="-8.08211">
        <ele>153.089</ele>
        <time>2019-10-16T02:05:40Z</time>
      </trkpt>
      <trkpt lat="39.07883" lon="-8.08174">
        <ele>152.831</ele>
        <time>2019-10-16T02:06:00Z</time>
      </trkpt>
      <trkpt lat="39.07887" lon="-8.08133">
        <ele>152.781</ele>
        <time>2019-10-16T02:06:20Z</time>
      </trkpt>
      <trkpt lat="39.07892" lon="-8.08092">
        <ele>151.363</ele>
        <time>2019-10-16T02:06:40Z</time>
      </trkpt>
      <trkpt lat="39.07893" lon="-8.08054">
        <ele>149.254</ele>
        <time>2019-10-16T02:07:00Z</time>
      </trkpt>
      <trkpt lat="39.07893" lon="-8.08016">
        <ele>150.646</ele>
        <time>2019-10-16T02:07:20Z</time>
      </trkpt>
      <trkpt lat="39.07905" lon="-8.0798">
        <ele>151.646</ele>
        <time>2019-10-16T02:07:40Z</time>
      </trkpt>
      <trkpt lat="39.07926" lon="-8.07964">
        <ele>152.234</ele>
        <time>2019-10-16T02:08:00Z</time>
      </trkpt>
      <trkpt lat="39.07952" lon="-8.07967">
        <ele>151.455</ele>
        <time>2019-10-16T02:08:20Z</time>
      </trkpt>
      <trkpt lat="39.0798" lon="-8.07967">
        <ele>149.51</ele>
        <time>2019-10-16T02:08:40Z</time>
      </trkpt>
      <trkpt lat="39.07999" lon="-8.07944">
        <ele>149.108</ele>
        <time>2019-10-16T02:09:00Z</time>
      </trkpt>
      <trkpt lat="39.08011" lon="-8.07904">
        <ele>150.097</ele>
        <time>2019-10-16T02:09:20Z</time>
      </trkpt>
      <trkpt lat="39.08019" lon="-8.07877">
        <ele>150.315</ele>
        <time>2019-10-16T02:09:40Z</time>
      </trkpt>
      <trkpt lat="39.08043" lon="-8.07849">
        <ele>149.827</ele>
        <time>2019-10-16T02:10:00Z</time>
      </trkpt>
      <trkpt lat="39.08064" lon="-8.07835">
        <ele>150.097</ele>
        <time>2019-10-16T02:10:20Z</time>
      </trkpt>
      <trkpt lat="39.08083" lon="-8.07817">
        <ele>150.079</ele>
        <time>2019-10-16T02:10:40Z</time>
      </trkpt>
      <trkpt lat="39.08102" lon="-8.078">
        <ele>149.71</ele>
        <time>2019-10-16T02:11:00Z</time>
      </trkpt>
      <trkpt lat="39.08123" lon="-8.07768">
        <ele>147.862</ele>
        <time>2019-10-16T02:11:20Z</time>
      </trkpt>
      <trkpt lat="39.08133" lon="-8.07742">
        <ele>146.042</ele>
        <time>2019-10-16T02:11:40Z</time>
      </trkpt>
      <trkpt lat="39.08147" lon="-8.07704">
        <ele>142.826</ele>
        <time>2019-10-16T02:12:00Z</time>
      </trkpt>
      <trkpt lat="39.08155" lon="-8.07672">
        <ele>140.047</ele>
        <time>2019-10-16T02:12:20Z</time>
      </trkpt>
      <trkpt lat="39.08167" lon="-8.0764">
        <ele>139.011</ele>
        <time>2019-10-16T02:12:40Z</time>
      </trkpt>
      <trkpt lat="39.08185" lon="-8.07613">
        <ele>135.508</ele>
        <time>2019-10-16T02:13:00Z</time>
      </trkpt>
      <trkpt lat="39.08194" lon="-8.07582">
        <ele>133.816</ele>
        <time>2019-10-16T02:13:20Z</time>
      </trkpt>
      <trkpt lat="39.08192" lon="-8.07548">
        <ele>131.714</ele>
        <time>2019-10-16T02:13:40Z</time>
      </trkpt>
      <trkpt lat="39.08194" lon="-8.07514">
        <ele>130.026</ele>
        <time>2019-10-16T02:14:00Z</time>
      </trkpt>
      <trkpt lat="39.08212" lon="-8.07482">
        <ele>128.086</ele>
        <time>2019-10-16T02:14:20Z</time>
      </trkpt>
      <trkpt lat="39.08228" lon="-8.07461">
        <ele>126.078</ele>
        <time>2019-10-16T02:14:40Z</time>
      </trkpt>
      <trkpt lat="39.08248" lon="-8.07444">
        <ele>124.979</ele>
        <time>2019-10-16T02:15:00Z</time>
      </trkpt>
      <trkpt lat="39.08269" lon="-8.07427">
        <ele>123.211</ele>
        <time>2019-10-16T02:15:20Z</time>
      </trkpt>
      <trkpt lat="39.0829" lon="-8.0741">
        <ele>122.141</ele>
        <time>2019-10-16T02:15:40Z</time>
      </trkpt>
      <trkpt lat="39.08311" lon="-8.07398">
        <ele>121.597</ele>
        <time>2019-10-16T02:16:00Z</time>
      </trkpt>
      <trkpt lat="39.08342" lon="-8.0739">
        <ele>120.423</ele>
        <time>2019-10-16T02:16:20Z</time>
      </trkpt>
      <trkpt lat="39.0837" lon="-8.07393">
        <ele>116.825</ele>
        <time>2019-10-16T02:16:40Z</time>
      </trkpt>
      <trkpt lat="39.08401" lon="-8.07402">
        <ele>110.508</ele>
        <time>2019-10-16T02:17:00Z</time>
      </trkpt>
      <trkpt lat="39.08431" lon="-8.07408">
        <ele>107.343</ele>
        <time>2019-10-16T02:17:20Z</time>
      </trkpt>
      <trkpt lat="39.08455" lon="-8.07413">
        <ele>105.571</ele>
        <time>2019-10-16T02:17:40Z</time>
      </trkpt>
      <trkpt lat="39.08479" lon="-8.07413">
        <ele>103.633</ele>
        <time>2019-10-16T02:18:00Z</time>
      </trkpt>
      <trkpt lat="39.08507" lon="-8.07409">
        <ele>100.943</ele>
        <time>2019-10-16T02:18:20Z</time>
      </trkpt>
      <trkpt lat="39.08527" lon="-8.07431">
        <ele>98.075</ele>
        <time>2019-10-16T02:18:40Z</time>
      </trkpt>
      <trkpt lat="39.08544" lon="-8.07452">
        <ele>95.856</ele>
        <time>2019-10-16T02:19:00Z</time>
      </trkpt>
      <trkpt lat="39.08571" lon="-8.07435">
        <ele>93.518</ele>
        <time>2019-10-16T02:19:20Z</time>
      </trkpt>
      <trkpt lat="39.08588" lon="-8.07411">
        <ele>90.938</ele>
        <time>2019-10-16T02:19:40Z</time>
      </trkpt>
      <trkpt lat="39.08597" lon="-8.07381">
        <ele>87.758</ele>
        <time>2019-10-16T02:20:00Z</time>
      </trkpt>
      <trkpt lat="39.08607" lon="-8.07348">
        <ele>85.652</ele>
        <time>2019-10-16T02:20:20Z</time>
      </trkpt>
      <trkpt lat="39.08607" lon="-8.07305">
        <ele>85.517</ele>
        <time>2019-10-16T02:20:40Z</time>
      </trkpt>
      <trkpt lat="39.08604" lon="-8.07276">
        <ele>84.008</ele>
        <time>2019-10-16T02:21:00Z</time>
      </trkpt>
      <trkpt lat="39.08598" lon="-8.07248">
        <ele>84.099</ele>
        <time>2019-10-16T02:21:20Z</time>
      </trkpt>
      <trkpt lat="39.0859" lon="-8.07221">
        <ele>86.367</ele>
        <time>2019-10-16T02:21:40Z</time>
      </trkpt>
      <trkpt lat="39.08584" lon="-8.07188">
        <ele>87.459</ele>
        <time>2019-10-16T02:22:00Z</time>
      </trkpt>
      <trkpt lat="39.0859" lon="-8.07159">
        <ele>85.289</ele>
        <time>2019-10-16T02:22:20Z</time>
      </trkpt>
      <trkpt lat="39.08614" lon="-8.07152">
        <ele>83.821</ele>
        <time>2019-10-16T02:22:40Z</time>
      </trkpt>
      <trkpt lat="39.08635" lon="-8.07165">
        <ele>83.242</ele>
        <time>2019-10-16T02:23:00Z</time>
      </trkpt>
      <trkpt lat="39.08662" lon="-8.07176">
        <ele>83.194</ele>
        <time>2019-10-16T02:23:20Z</time>
      </trkpt>
      <trkpt lat="39.08683" lon="-8.07165">
        <ele>82.534</ele>
        <time>2019-10-16T02:23:40Z</time>
      </trkpt>
      <trkpt lat="39.08687" lon="-8.07131">
        <ele>83.738</ele>
        <time>2019-10-16T02:24:00Z</time>
      </trkpt>
      <trkpt lat="39.08696" lon="-8.07098">
        <ele>84.67</ele>
        <time>2019-10-16T02:24:20Z</time>
      </trkpt>
      <trkpt lat="39.08711" lon="-8.07075">
        <ele>85.717</ele>
        <time>2019-10-16T02:24:40Z</time>
      </trkpt>
      <trkpt lat="39.08731" lon="-8.07056">
        <ele>86.308</ele>
        <time>2019-10-16T02:25:00Z</time>
      </trkpt>
      <trkpt lat="39.08754" lon="-8.07038">
        <ele>87.387</ele>
        <time>2019-10-16T02:25:20Z</time>
      </trkpt>
      <trkpt lat="39.08777" lon="-8.07054">
        <ele>88.175</ele>
        <time>2019-10-16T02:25:40Z</time>
      </trkpt>
      <trkpt lat="39.08783" lon="-8.07088">
        <ele>89.877</ele>
        <time>2019-10-16T02:26:00Z</time>
      </trkpt>
      <trkpt lat="39.08772" lon="-8.07128">
        <ele>88.147</ele>
        <time>2019-10-16T02:26:20Z</time>
      </trkpt>
      <trkpt lat="39.08769" lon="-8.07162">
        <ele>87.459</ele>
        <time>2019-10-16T02:26:40Z</time>
      </trkpt>
      <trkpt lat="39.0877" lon="-8.07196">
        <ele>86.82</ele>
        <time>2019-10-16T02:27:00Z</time>
      </trkpt>
      <trkpt lat="39.08775" lon="-8.07231">
        <ele>86.432</ele>
        <time>2019-10-16T02:27:20Z</time>
      </trkpt>
      <trkpt lat="39.08781" lon="-8.07268">
        <ele>86.692</ele>
        <time>2019-10-16T02:27:40Z</time>
      </trkpt>
      <trkpt lat="39.08786" lon="-8.07306">
        <ele>86.259</ele>
        <time>2019-10-16T02:28:00Z</time>
      </trkpt>
      <trkpt lat="39.08791" lon="-8.07338">
        <ele>86.403</ele>
        <time>2019-10-16T02:28:20Z</time>
      </trkpt>
      <trkpt lat="39.08795" lon="-8.07369">
        <ele>86.623</ele>
        <time>2019-10-16T02:28:40Z</time>
      </trkpt>
      <trkpt lat="39.08792" lon="-8.074">
        <ele>85.008</ele>
        <time>2019-10-16T02:29:00Z</time>
      </trkpt>
      <trkpt lat="39.08791" lon="-8.07432">
        <ele>83.469</ele>
        <time>2019-10-16T02:29:20Z</time>
      </trkpt>
      <trkpt lat="39.08805" lon="-8.07466">
        <ele>83.217</ele>
        <time>2019-10-16T02:29:40Z</time>
      </trkpt>
      <trkpt lat="39.08827" lon="-8.07491">
        <ele>84.619</ele>
        <time>2019-10-16T02:30:00Z</time>
      </trkpt>
      <trkpt lat="39.08845" lon="-8.07515">
        <ele>86.789</ele>
        <time>2019-10-16T02:30:20Z</time>
      </trkpt>
      <trkpt lat="39.08861" lon="-8.07537">
        <ele>88.921</ele>
        <time>2019-10-16T02:30:40Z</time>
      </trkpt>
      <trkpt lat="39.08883" lon="-8.07553">
        <ele>90.672</ele>
        <time>2019-10-16T02:31:00Z</time>
      </trkpt>
      <trkpt lat="39.0891" lon="-8.07541">
        <ele>92.554</ele>
        <time>2019-10-16T02:31:20Z</time>
      </trkpt>
      <trkpt lat="39.08937" lon="-8.07531">
        <ele>95.284</ele>
        <time>2019-10-16T02:31:40Z</time>
      </trkpt>
      <trkpt lat="39.08963" lon="-8.07527">
        <ele>98.096</ele>
        <time>2019-10-16T02:32:00Z</time>
      </trkpt>
      <trkpt lat="39.08982" lon="-8.07548">
        <ele>98.231</ele>
        <time>2019-10-16T02:32:20Z</time>
      </trkpt>
      <trkpt lat="39.08996" lon="-8.07584">
        <ele>98.424</ele>
        <time>2019-10-16T02:32:40Z</time>
      </trkpt>
      <trkpt lat="39.09006" lon="-8.07614">
        <ele>98.108</ele>
        <time>2019-10-16T02:33:00Z</time>
      </trkpt>
      <trkpt lat="39.09016" lon="-8.07647">
        <ele>98.513</ele>
        <time>2019-10-16T02:33:20Z</time>
      </trkpt>
      <trkpt lat="39.09026" lon="-8.07682">
        <ele>97.511</ele>
        <time>2019-10-16T02:33:40Z</time>
      </trkpt>
      <trkpt lat="39.09037" lon="-8.07715">
        <ele>95.373</ele>
        <time>2019-10-16T02:34:00Z</time>
      </trkpt>
      <trkpt lat="39.0905" lon="-8.07746">
        <ele>95.163</ele>
        <time>2019-10-16T02:34:20Z</time>
      </trkpt>
      <trkpt lat="39.09066" lon="-8.07774">
        <ele>93.755</ele>
        <time>2019-10-16T02:34:40Z</time>
      </trkpt>
      <trkpt lat="39.09083" lon="-8.07804">
        <ele>92.156</ele>
        <time>2019-10-16T02:35:00Z</time>
      </trkpt>
      <trkpt lat="39.09097" lon="-8.07832">
        <ele>91.118</ele>
        <time>2019-10-16T02:35:20Z</time>
      </trkpt>
      <trkpt lat="39.09113" lon="-8.07854">
        <ele>90.498</ele>
        <time>2019-10-16T02:35:40Z</time>
      </trkpt>
      <trkpt lat="39.09135" lon="-8.07879">
        <ele>92.461</ele>
        <time>2019-10-16T02:36:00Z</time>
      </trkpt>
      <trkpt lat="39.09148" lon="-8.07903">
        <ele>91.821</ele>
        <time>2019-10-16T02:36:20Z</time>
      </trkpt>
      <trkpt lat="39.0917" lon="-8.07929">
        <ele>91.913</ele>
        <time>2019-10-16T02:36:40Z</time>
      </trkpt>
      <trkpt lat="39.09193" lon="-8.0795">
        <ele>92.508</ele>
        <time>2019-10-16T02:37:00Z</time>
      </trkpt>
      <trkpt lat="39.09218" lon="-8.07977">
        <ele>93.28</ele>
        <time>2019-10-16T02:37:20Z</time>
      </trkpt>
      <trkpt lat="39.09245" lon="-8.08001">
        <ele>94.348</ele>
        <time>2019-10-16T02:37:40Z</time>
      </trkpt>
      <trkpt lat="39.09283" lon="-8.08089">
        <ele>91.74</ele>
        <time>2019-10-16T02:38:00Z</time>
      </trkpt>
      <trkpt lat="39.09345" lon="-8.08099">
        <ele>100.02</ele>
        <time>2019-10-16T02:38:20Z</time>
      </trkpt>
      <trkpt lat="39.09383" lon="-8.08083">
        <ele>102.812</ele>
        <time>2019-10-16T02:38:40Z</time>
      </trkpt>
      <trkpt lat="39.09429" lon="-8.08053">
        <ele>106.843</ele>
        <time>2019-10-16T02:39:00Z</time>
      </trkpt>
      <trkpt lat="39.09515" lon="-8.07926">
        <ele>119.455</ele>
        <time>2019-10-16T02:39:20Z</time>
      </trkpt>
      <trkpt lat="39.09607" lon="-8.07823">
        <ele>135.045</ele>
        <time>2019-10-16T02:39:40Z</time>
      </trkpt>
      <trkpt lat="39.09685" lon="-8.07716">
        <ele>154.383</ele>
        <time>2019-10-16T02:40:00Z</time>
      </trkpt>
      <trkpt lat="39.09839" lon="-8.07673">
        <ele>157.025</ele>
        <time>2019-10-16T02:40:20Z</time>
      </trkpt>
      <trkpt lat="39.09968" lon="-8.07583">
        <ele>164.517</ele>
        <time>2019-10-16T02:40:40Z</time>
      </trkpt>
      <trkpt lat="39.10027" lon="-8.0754">
        <ele>167.108</ele>
        <time>2019-10-16T02:41:00Z</time>
      </trkpt>
      <trkpt lat="39.10006" lon="-8.07656">
        <ele>161.392</ele>
        <time>2019-10-16T02:41:20Z</time>
      </trkpt>
      <trkpt lat="39.1003" lon="-8.07733">
        <ele>155.88</ele>
        <time>2019-10-16T02:41:40Z</time>
      </trkpt>
      <trkpt lat="39.09973" lon="-8.07786">
        <ele>150.782</ele>
        <time>2019-10-16T02:42:00Z</time>
      </trkpt>
      <trkpt lat="39.09963" lon="-8.07956">
        <ele>143.672</ele>
        <time>2019-10-16T02:42:20Z</time>
      </trkpt>
      <trkpt lat="39.09971" lon="-8.07999">
        <ele>143.134</ele>
        <time>2019-10-16T02:42:40Z</time>
      </trkpt>
      <trkpt lat="39.10043" lon="-8.07996">
        <ele>139.025</ele>
        <time>2019-10-16T02:43:00Z</time>
      </trkpt>
      <trkpt lat="39.10116" lon="-8.08076">
        <ele>132.557</ele>
        <time>2019-10-16T02:43:20Z</time>
      </trkpt>
      <trkpt lat="39.10154" lon="-8.08203">
        <ele>126.947</ele>
        <time>2019-10-16T02:43:40Z</time>
      </trkpt>
      <trkpt lat="39.10211" lon="-8.08329">
        <ele>113.179</ele>
        <time>2019-10-16T02:44:00Z</time>
      </trkpt>
      <trkpt lat="39.1027" lon="-8.08433">
        <ele>102.505</ele>
        <time>2019-10-16T02:44:20Z</time>
      </trkpt>
      <trkpt lat="39.10289" lon="-8.08476">
        <ele>96.625</ele>
        <time>2019-10-16T02:44:40Z</time>
      </trkpt>
      <trkpt lat="39.1027" lon="-8.08533">
        <ele>91.908</ele>
        <time>2019-10-16T02:45:00Z</time>
      </trkpt>
      <trkpt lat="39.10256" lon="-8.08563">
        <ele>89.891</ele>
        <time>2019-10-16T02:45:20Z</time>
      </trkpt>
      <trkpt lat="39.10184" lon="-8.08572">
        <ele>89.069</ele>
        <time>2019-10-16T02:45:40Z</time>
      </trkpt>
      <trkpt lat="39.10192" lon="-8.08596">
        <ele>88.511</ele>
        <time>2019-10-16T02:46:00Z</time>
      </trkpt>
      <trkpt lat="39.10173" lon="-8.08629">
        <ele>89.491</ele>
        <time>2019-10-16T02:46:20Z</time>
      </trkpt>
      <trkpt lat="39.10151" lon="-8.08656">
        <ele>88.763</ele>
        <time>2019-10-16T02:46:40Z</time>
      </trkpt>
      <trkpt lat="39.10111" lon="-8.08749">
        <ele>93.994</ele>
        <time>2019-10-16T02:47:00Z</time>
      </trkpt>
      <trkpt lat="39.10057" lon="-8.08739">
        <ele>91.896</ele>
        <time>2019-10-16T02:47:20Z</time>
      </trkpt>
      <trkpt lat="39.09992" lon="-8.08746">
        <ele>92.746</ele>
        <time>2019-10-16T02:47:40Z</time>
      </trkpt>
      <trkpt lat="39.09855" lon="-8.08829">
        <ele>91.284</ele>
        <time>2019-10-16T02:48:00Z</time>
      </trkpt>
      <trkpt lat="39.09825" lon="-8.08851">
        <ele>89.307</ele>
        <time>2019-10-16T02:48:20Z</time>
      </trkpt>
      <trkpt lat="39.09806" lon="-8.08867">
        <ele>89.217</ele>
        <time>2019-10-16T02:48:40Z</time>
      </trkpt>
      <trkpt lat="39.09782" lon="-8.08896">
        <ele>89.508</ele>
        <time>2019-10-16T02:49:00Z</time>
      </trkpt>
      <trkpt lat="39.09769" lon="-8.08923">
        <ele>89.752</ele>
        <time>2019-10-16T02:49:20Z</time>
      </trkpt>
      <trkpt lat="39.09755" lon="-8.08952">
        <ele>89.39</ele>
        <time>2019-10-16T02:49:40Z</time>
      </trkpt>
      <trkpt lat="39.09742" lon="-8.08976">
        <ele>89.092</ele>
        <time>2019-10-16T02:50:00Z</time>
      </trkpt>
      <trkpt lat="39.09725" lon="-8.09006">
        <ele>87.752</ele>
        <time>2019-10-16T02:50:20Z</time>
      </trkpt>
      <trkpt lat="39.09718" lon="-8.09042">
        <ele>89.154</ele>
        <time>2019-10-16T02:50:40Z</time>
      </trkpt>
      <trkpt lat="39.0971" lon="-8.09081">
        <ele>87.875</ele>
        <time>2019-10-16T02:51:00Z</time>
      </trkpt>
      <trkpt lat="39.09709" lon="-8.09111">
        <ele>86.687</ele>
        <time>2019-10-16T02:51:20Z</time>
      </trkpt>
      <trkpt lat="39.09711" lon="-8.09147">
        <ele>85.287</ele>
        <time>2019-10-16T02:51:40Z</time>
      </trkpt>
      <trkpt lat="39.09716" lon="-8.09186">
        <ele>84.619</ele>
        <time>2019-10-16T02:52:00Z</time>
      </trkpt>
      <trkpt lat="39.09723" lon="-8.09223">
        <ele>85.109</ele>
        <time>2019-10-16T02:52:20Z</time>
      </trkpt>
      <trkpt lat="39.09732" lon="-8.09258">
        <ele>87.019</ele>
        <time>2019-10-16T02:52:40Z</time>
      </trkpt>
      <trkpt lat="39.09742" lon="-8.09287">
        <ele>87.808</ele>
        <time>2019-10-16T02:53:00Z</time>
      </trkpt>
      <trkpt lat="39.09754" lon="-8.09321">
        <ele>87.415</ele>
        <time>2019-10-16T02:53:20Z</time>
      </trkpt>
      <trkpt lat="39.09771" lon="-8.09357">
        <ele>86.883</ele>
        <time>2019-10-16T02:53:40Z</time>
      </trkpt>
      <trkpt lat="39.09788" lon="-8.09391">
        <ele>86.045</ele>
        <time>2019-10-16T02:54:00Z</time>
      </trkpt>
      <trkpt lat="39.0981" lon="-8.09418">
        <ele>87.615</ele>
        <time>2019-10-16T02:54:20Z</time>
      </trkpt>
      <trkpt lat="39.0984" lon="-8.09439">
        <ele>93.057</ele>
        <time>2019-10-16T02:54:40Z</time>
      </trkpt>
      <trkpt lat="39.09861" lon="-8.09454">
        <ele>96.398</ele>
        <time>2019-10-16T02:55:00Z</time>
      </trkpt>
      <trkpt lat="39.09881" lon="-8.09472">
        <ele>96.41</ele>
        <time>2019-10-16T02:55:20Z</time>
      </trkpt>
      <trkpt lat="39.09897" lon="-8.09493">
        <ele>95.73</ele>
        <time>2019-10-16T02:55:40Z</time>
      </trkpt>
      <trkpt lat="39.0991" lon="-8.09519">
        <ele>96.325</ele>
        <time>2019-10-16T02:56:00Z</time>
      </trkpt>
      <trkpt lat="39.09922" lon="-8.09548">
        <ele>96.426</ele>
        <time>2019-10-16T02:56:20Z</time>
      </trkpt>
      <trkpt lat="39.09935" lon="-8.09575">
        <ele>95.408</ele>
        <time>2019-10-16T02:56:40Z</time>
      </trkpt>
      <trkpt lat="39.09947" lon="-8.09612">
        <ele>93.208</ele>
        <time>2019-10-16T02:57:00Z</time>
      </trkpt>
      <trkpt lat="39.0994" lon="-8.09649">
        <ele>90.696</ele>
        <time>2019-10-16T02:57:20Z</time>
      </trkpt>
      <trkpt lat="39.09929" lon="-8.09685">
        <ele>89.724</ele>
        <time>2019-10-16T02:57:40Z</time>
      </trkpt>
      <trkpt lat="39.09939" lon="-8.09718">
        <ele>91.436</ele>
        <time>2019-10-16T02:58:00Z</time>
      </trkpt>
      <trkpt lat="39.09962" lon="-8.09745">
        <ele>91.996</ele>
        <time>2019-10-16T02:58:20Z</time>
      </trkpt>
      <trkpt lat="39.0998" lon="-8.09769">
        <ele>92.028</ele>
        <time>2019-10-16T02:58:40Z</time>
      </trkpt>
      <trkpt lat="39.09997" lon="-8.09797">
        <ele>91.599</ele>
        <time>2019-10-16T02:59:00Z</time>
      </trkpt>
      <trkpt lat="39.10014" lon="-8.09824">
        <ele>91.571</ele>
        <time>2019-10-16T02:59:20Z</time>
      </trkpt>
      <trkpt lat="39.10031" lon="-8.09847">
        <ele>91.841</ele>
        <time>2019-10-16T02:59:40Z</time>
      </trkpt>
      <trkpt lat="39.10047" lon="-8.09873">
        <ele>92.548</ele>
        <time>2019-10-16T03:00:00Z</time>
      </trkpt>
      <trkpt lat="39.10062" lon="-8.09902">
        <ele>91.861</ele>
        <time>2019-10-16T03:00:20Z</time>
      </trkpt>
      <trkpt lat="39.10081" lon="-8.09926">
        <ele>91.917</ele>
        <time>2019-10-16T03:00:40Z</time>
      </trkpt>
      <trkpt lat="39.10101" lon="-8.09949">
        <ele>93.408</ele>
        <time>2019-10-16T03:01:00Z</time>
      </trkpt>
      <trkpt lat="39.10123" lon="-8.0997">
        <ele>95.268</ele>
        <time>2019-10-16T03:01:20Z</time>
      </trkpt>
      <trkpt lat="39.10143" lon="-8.09991">
        <ele>97.566</ele>
        <time>2019-10-16T03:01:40Z</time>
      </trkpt>
      <trkpt lat="39.10162" lon="-8.1001">
        <ele>99.298</ele>
        <time>2019-10-16T03:02:00Z</time>
      </trkpt>
      <trkpt lat="39.10181" lon="-8.10042">
        <ele>99.268</ele>
        <time>2019-10-16T03:02:20Z</time>
      </trkpt>
      <trkpt lat="39.10189" lon="-8.10071">
        <ele>99.15</ele>
        <time>2019-10-16T03:02:40Z</time>
      </trkpt>
      <trkpt lat="39.10194" lon="-8.101">
        <ele>99.091</ele>
        <time>2019-10-16T03:03:00Z</time>
      </trkpt>
      <trkpt lat="39.10193" lon="-8.10132">
        <ele>99.793</ele>
        <time>2019-10-16T03:03:20Z</time>
      </trkpt>
      <trkpt lat="39.10196" lon="-8.10164">
        <ele>99.113</ele>
        <time>2019-10-16T03:03:40Z</time>
      </trkpt>
      <trkpt lat="39.10201" lon="-8.10196">
        <ele>98.416</ele>
        <time>2019-10-16T03:04:00Z</time>
      </trkpt>
      <trkpt lat="39.10204" lon="-8.10225">
        <ele>98.376</ele>
        <time>2019-10-16T03:04:20Z</time>
      </trkpt>
      <trkpt lat="39.10201" lon="-8.10268">
        <ele>97.713</ele>
        <time>2019-10-16T03:04:40Z</time>
      </trkpt>
      <trkpt lat="39.10202" lon="-8.10298">
        <ele>97.208</ele>
        <time>2019-10-16T03:05:00Z</time>
      </trkpt>
      <trkpt lat="39.10208" lon="-8.1034">
        <ele>97.485</ele>
        <time>2019-10-16T03:05:20Z</time>
      </trkpt>
      <trkpt lat="39.1022" lon="-8.10374">
        <ele>98.333</ele>
        <time>2019-10-16T03:05:40Z</time>
      </trkpt>
      <trkpt lat="39.10228" lon="-8.10412">
        <ele>98.475</ele>
        <time>2019-10-16T03:06:00Z</time>
      </trkpt>
      <trkpt lat="39.1023" lon="-8.10441">
        <ele>97.785</ele>
        <time>2019-10-16T03:06:20Z</time>
      </trkpt>
      <trkpt lat="39.10235" lon="-8.1047">
        <ele>97.547</ele>
        <time>2019-10-16T03:06:40Z</time>
      </trkpt>
      <trkpt lat="39.10245" lon="-8.10508">
        <ele>96.378</ele>
        <time>2019-10-16T03:07:00Z</time>
      </trkpt>
      <trkpt lat="39.10261" lon="-8.1054">
        <ele>96.11</ele>
        <time>2019-10-16T03:07:20Z</time>
      </trkpt>
      <trkpt lat="39.10273" lon="-8.10565">
        <ele>96.29</ele>
        <time>2019-10-16T03:07:40Z</time>
      </trkpt>
      <trkpt lat="39.10284" lon="-8.10602">
        <ele>96.879</ele>
        <time>2019-10-16T03:08:00Z</time>
      </trkpt>
      <trkpt lat="39.1029" lon="-8.10631">
        <ele>96.305</ele>
        <time>2019-10-16T03:08:20Z</time>
      </trkpt>
      <trkpt lat="39.10299" lon="-8.10661">
        <ele>95.325</ele>
        <time>2019-10-16T03:08:40Z</time>
      </trkpt>
      <trkpt lat="39.10311" lon="-8.10689">
        <ele>93.608</ele>
        <time>2019-10-16T03:09:00Z</time>
      </trkpt>
      <trkpt lat="39.10324" lon="-8.10719">
        <ele>91.641</ele>
        <time>2019-10-16T03:09:20Z</time>
      </trkpt>
      <trkpt lat="39.10342" lon="-8.10742">
        <ele>91.169</ele>
        <time>2019-10-16T03:09:40Z</time>
      </trkpt>
      <trkpt lat="39.10358" lon="-8.10765">
        <ele>92.211</ele>
        <time>2019-10-16T03:10:00Z</time>
      </trkpt>
      <trkpt lat="39.10381" lon="-8.10785">
        <ele>95.461</ele>
        <time>2019-10-16T03:10:20Z</time>
      </trkpt>
      <trkpt lat="39.10404" lon="-8.10781">
        <ele>96.653</ele>
        <time>2019-10-16T03:10:40Z</time>
      </trkpt>
      <trkpt lat="39.10434" lon="-8.10765">
        <ele>96.694</ele>
        <time>2019-10-16T03:11:00Z</time>
      </trkpt>
      <trkpt lat="39.10456" lon="-8.10754">
        <ele>97.636</ele>
        <time>2019-10-16T03:11:20Z</time>
      </trkpt>
      <trkpt lat="39.10478" lon="-8.10745">
        <ele>98.726</ele>
        <time>2019-10-16T03:11:40Z</time>
      </trkpt>
      <trkpt lat="39.10502" lon="-8.10733">
        <ele>97.945</ele>
        <time>2019-10-16T03:12:00Z</time>
      </trkpt>
      <trkpt lat="39.10522" lon="-8.10719">
        <ele>97.647</ele>
        <time>2019-10-16T03:12:20Z</time>
      </trkpt>
      <trkpt lat="39.10539" lon="-8.107">
        <ele>98.011</ele>
        <time>2019-10-16T03:12:40Z</time>
      </trkpt>
      <trkpt lat="39.10557" lon="-8.10674">
        <ele>98.708</ele>
        <time>2019-10-16T03:13:00Z</time>
      </trkpt>
      <trkpt lat="39.10574" lon="-8.10648">
        <ele>100.868</ele>
        <time>2019-10-16T03:13:20Z</time>
      </trkpt>
      <trkpt lat="39.10591" lon="-8.10625">
        <ele>101.936</ele>
        <time>2019-10-16T03:13:40Z</time>
      </trkpt>
      <trkpt lat="39.10609" lon="-8.10605">
        <ele>101.528</ele>
        <time>2019-10-16T03:14:00Z</time>
      </trkpt>
      <trkpt lat="39.10625" lon="-8.10583">
        <ele>100.598</ele>
        <time>2019-10-16T03:14:20Z</time>
      </trkpt>
      <trkpt lat="39.10649" lon="-8.10559">
        <ele>102.17</ele>
        <time>2019-10-16T03:14:40Z</time>
      </trkpt>
      <trkpt lat="39.10669" lon="-8.10544">
        <ele>103.791</ele>
        <time>2019-10-16T03:15:00Z</time>
      </trkpt>
      <trkpt lat="39.10688" lon="-8.10523">
        <ele>103.563</ele>
        <time>2019-10-16T03:15:20Z</time>
      </trkpt>
      <trkpt lat="39.10708" lon="-8.10496">
        <ele>104.473</ele>
        <time>2019-10-16T03:15:40Z</time>
      </trkpt>
      <trkpt lat="39.10727" lon="-8.10466">
        <ele>107.684</ele>
        <time>2019-10-16T03:16:00Z</time>
      </trkpt>
      <trkpt lat="39.10747" lon="-8.1044">
        <ele>108.607</ele>
        <time>2019-10-16T03:16:20Z</time>
      </trkpt>
      <trkpt lat="39.1077" lon="-8.10418">
        <ele>108.817</ele>
        <time>2019-10-16T03:16:40Z</time>
      </trkpt>
      <trkpt lat="39.10797" lon="-8.10401">
        <ele>111.108</ele>
        <time>2019-10-16T03:17:00Z</time>
      </trkpt>
      <trkpt lat="39.10825" lon="-8.10383">
        <ele>113.512</ele>
        <time>2019-10-16T03:17:20Z</time>
      </trkpt>
      <trkpt lat="39.10854" lon="-8.10366">
        <ele>115.03</ele>
        <time>2019-10-16T03:17:40Z</time>
      </trkpt>
      <trkpt lat="39.10879" lon="-8.10349">
        <ele>115.282</ele>
        <time>2019-10-16T03:18:00Z</time>
      </trkpt>
      <trkpt lat="39.10905" lon="-8.10335">
        <ele>115.162</ele>
        <time>2019-10-16T03:18:20Z</time>
      </trkpt>
      <trkpt lat="39.10932" lon="-8.10325">
        <ele>115.934</ele>
        <time>2019-10-16T03:18:40Z</time>
      </trkpt>
      <trkpt lat="39.1096" lon="-8.10317">
        <ele>117.725</ele>
        <time>2019-10-16T03:19:00Z</time>
      </trkpt>
      <trkpt lat="39.10987" lon="-8.10311">
        <ele>118.197</ele>
        <time>2019-10-16T03:19:20Z</time>
      </trkpt>
      <trkpt lat="39.1101" lon="-8.10306">
        <ele>118.797</ele>
        <time>2019-10-16T03:19:40Z</time>
      </trkpt>
      <trkpt lat="39.11038" lon="-8.10288">
        <ele>120.381</ele>
        <time>2019-10-16T03:20:00Z</time>
      </trkpt>
      <trkpt lat="39.11053" lon="-8.10265">
        <ele>121.161</ele>
        <time>2019-10-16T03:20:20Z</time>
      </trkpt>
      <trkpt lat="39.11068" lon="-8.10237">
        <ele>122.117</ele>
        <time>2019-10-16T03:20:40Z</time>
      </trkpt>
      <trkpt lat="39.11083" lon="-8.10214">
        <ele>123.008</ele>
        <time>2019-10-16T03:21:00Z</time>
      </trkpt>
      <trkpt lat="39.11102" lon="-8.10195">
        <ele>124.352</ele>
        <time>2019-10-16T03:21:20Z</time>
      </trkpt>
      <trkpt lat="39.11124" lon="-8.10176">
        <ele>126.24</ele>
        <time>2019-10-16T03:21:40Z</time>
      </trkpt>
      <trkpt lat="39.11143" lon="-8.10142">
        <ele>126.772</ele>
        <time>2019-10-16T03:22:00Z</time>
      </trkpt>
      <trkpt lat="39.11154" lon="-8.10114">
        <ele>126.782</ele>
        <time>2019-10-16T03:22:20Z</time>
      </trkpt>
      <trkpt lat="39.11168" lon="-8.10083">
        <ele>127.194</ele>
        <time>2019-10-16T03:22:40Z</time>
      </trkpt>
      <trkpt lat="39.11183" lon="-8.10052">
        <ele>127.735</ele>
        <time>2019-10-16T03:23:00Z</time>
      </trkpt>
      <trkpt lat="39.11199" lon="-8.10022">
        <ele>128.257</ele>
        <time>2019-10-16T03:23:20Z</time>
      </trkpt>
      <trkpt lat="39.11212" lon="-8.09991">
        <ele>128.167</ele>
        <time>2019-10-16T03:23:40Z</time>
      </trkpt>
      <trkpt lat="39.11223" lon="-8.0996">
        <ele>127.229</ele>
        <time>2019-10-16T03:24:00Z</time>
      </trkpt>
      <trkpt lat="39.1123" lon="-8.09928">
        <ele>127.7</ele>
        <time>2019-10-16T03:24:20Z</time>
      </trkpt>
      <trkpt lat="39.11236" lon="-8.09893">
        <ele>128.52</ele>
        <time>2019-10-16T03:24:40Z</time>
      </trkpt>
      <trkpt lat="39.1124" lon="-8.09861">
        <ele>129.608</ele>
        <time>2019-10-16T03:25:00Z</time>
      </trkpt>
      <trkpt lat="39.1125" lon="-8.09832">
        <ele>130.076</ele>
        <time>2019-10-16T03:25:20Z</time>
      </trkpt>
      <trkpt lat="39.11269" lon="-8.09809">
        <ele>130.854</ele>
        <time>2019-10-16T03:25:40Z</time>
      </trkpt>
      <trkpt lat="39.11293" lon="-8.0979">
        <ele>132.696</ele>
        <time>2019-10-16T03:26:00Z</time>
      </trkpt>
      <trkpt lat="39.11316" lon="-8.09777">
        <ele>134.176</ele>
        <time>2019-10-16T03:26:20Z</time>
      </trkpt>
      <trkpt lat="39.11344" lon="-8.09756">
        <ele>135.178</ele>
        <time>2019-10-16T03:26:40Z</time>
      </trkpt>
      <trkpt lat="39.11359" lon="-8.09733">
        <ele>136.259</ele>
        <time>2019-10-16T03:27:00Z</time>
      </trkpt>
      <trkpt lat="39.11377" lon="-8.09709">
        <ele>138.021</ele>
        <time>2019-10-16T03:27:20Z</time>
      </trkpt>
      <trkpt lat="39.11396" lon="-8.09689">
        <ele>139.851</ele>
        <time>2019-10-16T03:27:40Z</time>
      </trkpt>
      <trkpt lat="39.11417" lon="-8.09678">
        <ele>143.088</ele>
        <time>2019-10-16T03:28:00Z</time>
      </trkpt>
      <trkpt lat="39.11442" lon="-8.09671">
        <ele>145.924</ele>
        <time>2019-10-16T03:28:20Z</time>
      </trkpt>
      <trkpt lat="39.1147" lon="-8.09663">
        <ele>146.826</ele>
        <time>2019-10-16T03:28:40Z</time>
      </trkpt>
      <trkpt lat="39.11496" lon="-8.09658">
        <ele>147.808</ele>
        <time>2019-10-16T03:29:00Z</time>
      </trkpt>
      <trkpt lat="39.11522" lon="-8.09661">
        <ele>148.642</ele>
        <time>2019-10-16T03:29:20Z</time>
      </trkpt>
      <trkpt lat="39.11548" lon="-8.09667">
        <ele>149.76</ele>
        <time>2019-10-16T03:29:40Z</time>
      </trkpt>
      <trkpt lat="39.11581" lon="-8.09668">
        <ele>151.072</ele>
        <time>2019-10-16T03:30:00Z</time>
      </trkpt>
      <trkpt lat="39.1161" lon="-8.09649">
        <ele>152.692</ele>
        <time>2019-10-16T03:30:20Z</time>
      </trkpt>
      <trkpt lat="39.11628" lon="-8.09615">
        <ele>154.764</ele>
        <time>2019-10-16T03:30:40Z</time>
      </trkpt>
      <trkpt lat="39.11636" lon="-8.09585">
        <ele>157.415</ele>
        <time>2019-10-16T03:31:00Z</time>
      </trkpt>
      <trkpt lat="39.11644" lon="-8.09555">
        <ele>160.217</ele>
        <time>2019-10-16T03:31:20Z</time>
      </trkpt>
      <trkpt lat="39.11652" lon="-8.09522">
        <ele>160.557</ele>
        <time>2019-10-16T03:31:40Z</time>
      </trkpt>
      <trkpt lat="39.11656" lon="-8.09489">
        <ele>161.611</ele>
        <time>2019-10-16T03:32:00Z</time>
      </trkpt>
      <trkpt lat="39.11661" lon="-8.09455">
        <ele>162.721</ele>
        <time>2019-10-16T03:32:20Z</time>
      </trkpt>
      <trkpt lat="39.11665" lon="-8.09423">
        <ele>163.003</ele>
        <time>2019-10-16T03:32:40Z</time>
      </trkpt>
      <trkpt lat="39.11668" lon="-8.09392">
        <ele>163.908</ele>
        <time>2019-10-16T03:33:00Z</time>
      </trkpt>
      <trkpt lat="39.11675" lon="-8.09361">
        <ele>165.315</ele>
        <time>2019-10-16T03:33:20Z</time>
      </trkpt>
      <trkpt lat="39.11689" lon="-8.09337">
        <ele>165.673</ele>
        <time>2019-10-16T03:33:40Z</time>
      </trkpt>
      <trkpt lat="39.11709" lon="-8.09322">
        <ele>165.425</ele>
        <time>2019-10-16T03:34:00Z</time>
      </trkpt>
      <trkpt lat="39.11739" lon="-8.09302">
        <ele>167.835</ele>
        <time>2019-10-16T03:34:20Z</time>
      </trkpt>
      <trkpt lat="39.11761" lon="-8.09285">
        <ele>170.137</ele>
        <time>2019-10-16T03:34:40Z</time>
      </trkpt>
      <trkpt lat="39.11784" lon="-8.09269">
        <ele>171.018</ele>
        <time>2019-10-16T03:35:00Z</time>
      </trkpt>
      <trkpt lat="39.11808" lon="-8.09252">
        <ele>171.09</ele>
        <time>2019-10-16T03:35:20Z</time>
      </trkpt>
      <trkpt lat="39.11833" lon="-8.09234">
        <ele>170.42</ele>
        <time>2019-10-16T03:35:40Z</time>
      </trkpt>
      <trkpt lat="39.11858" lon="-8.09217">
        <ele>172.539</ele>
        <time>2019-10-16T03:36:00Z</time>
      </trkpt>
      <trkpt lat="39.11882" lon="-8.09204">
        <ele>174.601</ele>
        <time>2019-10-16T03:36:20Z</time>
      </trkpt>
      <trkpt lat="39.11906" lon="-8.09197">
        <ele>174.521</ele>
        <time>2019-10-16T03:36:40Z</time>
      </trkpt>
      <trkpt lat="39.11929" lon="-8.09187">
        <ele>173.108</ele>
        <time>2019-10-16T03:37:00Z</time>
      </trkpt>
      <trkpt lat="39.1195" lon="-8.09169">
        <ele>172.147</ele>
        <time>2019-10-16T03:37:20Z</time>
      </trkpt>
      <trkpt lat="39.11969" lon="-8.09145">
        <ele>172.775</ele>
        <time>2019-10-16T03:37:40Z</time>
      </trkpt>
      <trkpt lat="39.11982" lon="-8.09116">
        <ele>172.717</ele>
        <time>2019-10-16T03:38:00Z</time>
      </trkpt>
      <trkpt lat="39.11992" lon="-8.09084">
        <ele>172.327</ele>
        <time>2019-10-16T03:38:20Z</time>
      </trkpt>
      <trkpt lat="39.12003" lon="-8.0905">
        <ele>172.019</ele>
        <time>2019-10-16T03:38:40Z</time>
      </trkpt>
      <trkpt lat="39.12018" lon="-8.09019">
        <ele>172.59</ele>
        <time>2019-10-16T03:39:00Z</time>
      </trkpt>
      <trkpt lat="39.1204" lon="-8.08988">
        <ele>174.672</ele>
        <time>2019-10-16T03:39:20Z</time>
      </trkpt>
      <trkpt lat="39.1206" lon="-8.08957">
        <ele>175.972</ele>
        <time>2019-10-16T03:39:40Z</time>
      </trkpt>
      <trkpt lat="39.12075" lon="-8.08925">
        <ele>176.032</ele>
        <time>2019-10-16T03:40:00Z</time>
      </trkpt>
      <trkpt lat="39.12083" lon="-8.08895">
        <ele>175.292</ele>
        <time>2019-10-16T03:40:20Z</time>
      </trkpt>
      <trkpt lat="39.12084" lon="-8.08863">
        <ele>175.911</ele>
        <time>2019-10-16T03:40:40Z</time>
      </trkpt>
      <trkpt lat="39.12086" lon="-8.0883">
        <ele>176.908</ele>
        <time>2019-10-16T03:41:00Z</time>
      </trkpt>
      <trkpt lat="39.12094" lon="-8.08799">
        <ele>177.877</ele>
        <time>2019-10-16T03:41:20Z</time>
      </trkpt>
      <trkpt lat="39.12107" lon="-8.08769">
        <ele>178.455</ele>
        <time>2019-10-16T03:41:40Z</time>
      </trkpt>
      <trkpt lat="39.12126" lon="-8.08743">
        <ele>178.367</ele>
        <time>2019-10-16T03:42:00Z</time>
      </trkpt>
      <trkpt lat="39.1215" lon="-8.08718">
        <ele>178.087</ele>
        <time>2019-10-16T03:42:20Z</time>
      </trkpt>
      <trkpt lat="39.12177" lon="-8.087">
        <ele>177.949</ele>
        <time>2019-10-16T03:42:40Z</time>
      </trkpt>
      <trkpt lat="39.12206" lon="-8.08691">
        <ele>176.16</ele>
        <time>2019-10-16T03:43:00Z</time>
      </trkpt>
      <trkpt lat="39.12238" lon="-8.08686">
        <ele>172.042</ele>
        <time>2019-10-16T03:43:20Z</time>
      </trkpt>
      <trkpt lat="39.12271" lon="-8.08676">
        <ele>169.622</ele>
        <time>2019-10-16T03:43:40Z</time>
      </trkpt>
      <trkpt lat="39.12304" lon="-8.08661">
        <ele>168.879</ele>
        <time>2019-10-16T03:44:00Z</time>
      </trkpt>
      <trkpt lat="39.12338" lon="-8.08643">
        <ele>168.705</ele>
        <time>2019-10-16T03:44:20Z</time>
      </trkpt>
      <trkpt lat="39.12369" lon="-8.08624">
        <ele>168.925</ele>
        <time>2019-10-16T03:44:40Z</time>
      </trkpt>
      <trkpt lat="39.12397" lon="-8.08602">
        <ele>170.808</ele>
        <time>2019-10-16T03:45:00Z</time>
      </trkpt>
      <trkpt lat="39.12423" lon="-8.08578">
        <ele>172.491</ele>
        <time>2019-10-16T03:45:20Z</time>
      </trkpt>
      <trkpt lat="39.12446" lon="-8.08556">
        <ele>173.049</ele>
        <time>2019-10-16T03:45:40Z</time>
      </trkpt>
      <trkpt lat="39.12465" lon="-8.08534">
        <ele>173.281</ele>
        <time>2019-10-16T03:46:00Z</time>
      </trkpt>
      <trkpt lat="39.12477" lon="-8.08505">
        <ele>172.631</ele>
        <time>2019-10-16T03:46:20Z</time>
      </trkpt>
      <trkpt lat="39.12488" lon="-8.0847">
        <ele>171.973</ele>
        <time>2019-10-16T03:46:40Z</time>
      </trkpt>
      <trkpt lat="39.12501" lon="-8.08438">
        <ele>171.674</ele>
        <time>2019-10-16T03:47:00Z</time>
      </trkpt>
      <trkpt lat="39.12516" lon="-8.08412">
        <ele>170.346</ele>
        <time>2019-10-16T03:47:20Z</time>
      </trkpt>
      <trkpt lat="39.12539" lon="-8.08391">
        <ele>169.116</ele>
        <time>2019-10-16T03:47:40Z</time>
      </trkpt>
      <trkpt lat="39.12566" lon="-8.0837">
        <ele>168.137</ele>
        <time>2019-10-16T03:48:00Z</time>
      </trkpt>
      <trkpt lat="39.12592" lon="-8.08348">
        <ele>168.749</ele>
        <time>2019-10-16T03:48:20Z</time>
      </trkpt>
      <trkpt lat="39.12616" lon="-8.08323">
        <ele>169.213</ele>
        <time>2019-10-16T03:48:40Z</time>
      </trkpt>
      <trkpt lat="39.12638" lon="-8.08295">
        <ele>169.408</ele>
        <time>2019-10-16T03:49:00Z</time>
      </trkpt>
      <trkpt lat="39.12664" lon="-8.08268">
        <ele>170.467</ele>
        <time>2019-10-16T03:49:20Z</time>
      </trkpt>
      <trkpt lat="39.12693" lon="-8.08244">
        <ele>171.215</ele>
        <time>2019-10-16T03:49:40Z</time>
      </trkpt>
      <trkpt lat="39.12724" lon="-8.08226">
        <ele>172.847</ele>
        <time>2019-10-16T03:50:00Z</time>
      </trkpt>
      <trkpt lat="39.12753" lon="-8.08212">
        <ele>173.917</ele>
        <time>2019-10-16T03:50:20Z</time>
      </trkpt>
      <trkpt lat="39.12785" lon="-8.08202">
        <ele>173.259</ele>
        <time>2019-10-16T03:50:40Z</time>
      </trkpt>
      <trkpt lat="39.12817" lon="-8.08191">
        <ele>173.22</ele>
        <time>2019-10-16T03:51:00Z</time>
      </trkpt>
      <trkpt lat="39.12848" lon="-8.08177">
        <ele>174.852</ele>
        <time>2019-10-16T03:51:20Z</time>
      </trkpt>
      <trkpt lat="39.12878" lon="-8.08158">
        <ele>175.762</ele>
        <time>2019-10-16T03:51:40Z</time>
      </trkpt>
      <trkpt lat="39.12907" lon="-8.08136">
        <ele>176.153</ele>
        <time>2019-10-16T03:52:00Z</time>
      </trkpt>
      <trkpt lat="39.12935" lon="-8.08112">
        <ele>177.004</ele>
        <time>2019-10-16T03:52:20Z</time>
      </trkpt>
      <trkpt lat="39.12961" lon="-8.08086">
        <ele>177.314</ele>
        <time>2019-10-16T03:52:40Z</time>
      </trkpt>
      <trkpt lat="39.12983" lon="-8.08057">
        <ele>176.608</ele>
        <time>2019-10-16T03:53:00Z</time>
      </trkpt>
      <trkpt lat="39.13" lon="-8.08022">
        <ele>175.289</ele>
        <time>2019-10-16T03:53:20Z</time>
      </trkpt>
      <trkpt lat="39.13013" lon="-8.0798">
        <ele>175.437</ele>
        <time>2019-10-16T03:53:40Z</time>
      </trkpt>
      <trkpt lat="39.13023" lon="-8.07934">
        <ele>176.219</ele>
        <time>2019-10-16T03:54:00Z</time>
      </trkpt>
      <trkpt lat="39.13029" lon="-8.07887">
        <ele>177.089</ele>
        <time>2019-10-16T03:54:20Z</time>
      </trkpt>
      <trkpt lat="39.13031" lon="-8.07844">
        <ele>176.941</ele>
        <time>2019-10-16T03:54:40Z</time>
      </trkpt>
      <trkpt lat="39.13035" lon="-8.07805">
        <ele>178.032</ele>
        <time>2019-10-16T03:55:00Z</time>
      </trkpt>
      <trkpt lat="39.13046" lon="-8.07769">
        <ele>178.264</ele>
        <time>2019-10-16T03:55:20Z</time>
      </trkpt>
      <trkpt lat="39.13067" lon="-8.07738">
        <ele>178.894</ele>
        <time>2019-10-16T03:55:40Z</time>
      </trkpt>
      <trkpt lat="39.13097" lon="-8.07709">
        <ele>178.038</ele>
        <time>2019-10-16T03:56:00Z</time>
      </trkpt>
      <trkpt lat="39.13127" lon="-8.07684">
        <ele>177.17</ele>
        <time>2019-10-16T03:56:20Z</time>
      </trkpt>
      <trkpt lat="39.13157" lon="-8.07667">
        <ele>177.017</ele>
        <time>2019-10-16T03:56:40Z</time>
      </trkpt>
      <trkpt lat="39.13189" lon="-8.07661">
        <ele>178.008</ele>
        <time>2019-10-16T03:57:00Z</time>
      </trkpt>
      <trkpt lat="39.13219" lon="-8.07659">
        <ele>178.337</ele>
        <time>2019-10-16T03:57:20Z</time>
      </trkpt>
      <trkpt lat="39.13244" lon="-8.07649">
        <ele>177.495</ele>
        <time>2019-10-16T03:57:40Z</time>
      </trkpt>
      <trkpt lat="39.1327" lon="-8.07629">
        <ele>175.697</ele>
        <time>2019-10-16T03:58:00Z</time>
      </trkpt>
      <trkpt lat="39.133" lon="-8.07605">
        <ele>173.997</ele>
        <time>2019-10-16T03:58:20Z</time>
      </trkpt>
      <trkpt lat="39.1333" lon="-8.07579">
        <ele>172.829</ele>
        <time>2019-10-16T03:58:40Z</time>
      </trkpt>
      <trkpt lat="39.13359" lon="-8.07556">
        <ele>172.93</ele>
        <time>2019-10-16T03:59:00Z</time>
      </trkpt>
      <trkpt lat="39.13388" lon="-8.07533">
        <ele>174.072</ele>
        <time>2019-10-16T03:59:20Z</time>
      </trkpt>
      <trkpt lat="39.13418" lon="-8.0751">
        <ele>175.072</ele>
        <time>2019-10-16T03:59:40Z</time>
      </trkpt>
      <trkpt lat="39.13447" lon="-8.07488">
        <ele>176.466</ele>
        <time>2019-10-16T04:00:00Z</time>
      </trkpt>
      <trkpt lat="39.13471" lon="-8.07466">
        <ele>177.229</ele>
        <time>2019-10-16T04:00:20Z</time>
      </trkpt>
      <trkpt lat="39.13491" lon="-8.0744">
        <ele>178.721</ele>
        <time>2019-10-16T04:00:40Z</time>
      </trkpt>
      <trkpt lat="39.1351" lon="-8.07411">
        <ele>178.808</ele>
        <time>2019-10-16T04:01:00Z</time>
      </trkpt>
      <trkpt lat="39.13537" lon="-8.0739">
        <ele>178.03</ele>
        <time>2019-10-16T04:01:20Z</time>
      </trkpt>
      <trkpt lat="39.13569" lon="-8.07372">
        <ele>178.358</ele>
        <time>2019-10-16T04:01:40Z</time>
      </trkpt>
      <trkpt lat="39.13601" lon="-8.07351">
        <ele>177.64</ele>
        <time>2019-10-16T04:02:00Z</time>
      </trkpt>
      <trkpt lat="39.13633" lon="-8.07328">
        <ele>176.49</ele>
        <time>2019-10-16T04:02:20Z</time>
      </trkpt>
      <trkpt lat="39.13666" lon="-8.07309">
        <ele>176.892</ele>
        <time>2019-10-16T04:02:40Z</time>
      </trkpt>
      <trkpt lat="39.137" lon="-8.07291">
        <ele>178.713</ele>
        <time>2019-10-16T04:03:00Z</time>
      </trkpt>
      <trkpt lat="39.13733" lon="-8.07276">
        <ele>179.555</ele>
        <time>2019-10-16T04:03:20Z</time>
      </trkpt>
      <trkpt lat="39.13765" lon="-8.07258">
        <ele>177.215</ele>
        <time>2019-10-16T04:03:40Z</time>
      </trkpt>
      <trkpt lat="39.13795" lon="-8.07234">
        <ele>175.465</ele>
        <time>2019-10-16T04:04:00Z</time>
      </trkpt>
      <trkpt lat="39.13823" lon="-8.07204">
        <ele>175.068</ele>
        <time>2019-10-16T04:04:20Z</time>
      </trkpt>
      <trkpt lat="39.13848" lon="-8.0717">
        <ele>174.914</ele>
        <time>2019-10-16T04:04:40Z</time>
      </trkpt>
      <trkpt lat="39.13872" lon="-8.07142">
        <ele>175.908</ele>
        <time>2019-10-16T04:05:00Z</time>
      </trkpt>
      <trkpt lat="39.13898" lon="-8.07121">
        <ele>176.03</ele>
        <time>2019-10-16T04:05:20Z</time>
      </trkpt>
      <trkpt lat="39.13928" lon="-8.07106">
        <ele>176.238</ele>
        <time>2019-10-16T04:05:40Z</time>
      </trkpt>
      <trkpt lat="39.13962" lon="-8.07093">
        <ele>177.88</ele>
        <time>2019-10-16T04:06:00Z</time>
      </trkpt>
      <trkpt lat="39.13997" lon="-8.07083">
        <ele>180.68</ele>
        <time>2019-10-16T04:06:20Z</time>
      </trkpt>
      <trkpt lat="39.14032" lon="-8.07076">
        <ele>179.442</ele>
        <time>2019-10-16T04:06:40Z</time>
      </trkpt>
      <trkpt lat="39.14063" lon="-8.07074">
        <ele>179.623</ele>
        <time>2019-10-16T04:07:00Z</time>
      </trkpt>
      <trkpt lat="39.14093" lon="-8.0707">
        <ele>180.385</ele>
        <time>2019-10-16T04:07:20Z</time>
      </trkpt>
      <trkpt lat="39.14125" lon="-8.07058">
        <ele>181.065</ele>
        <time>2019-10-16T04:07:40Z</time>
      </trkpt>
      <trkpt lat="39.14157" lon="-8.07041">
        <ele>180.813</ele>
        <time>2019-10-16T04:08:00Z</time>
      </trkpt>
      <trkpt lat="39.14188" lon="-8.0702">
        <ele>179.743</ele>
        <time>2019-10-16T04:08:20Z</time>
      </trkpt>
      <trkpt lat="39.14219" lon="-8.06998">
        <ele>179.807</ele>
        <time>2019-10-16T04:08:40Z</time>
      </trkpt>
      <trkpt lat="39.14245" lon="-8.0697">
        <ele>180.608</ele>
        <time>2019-10-16T04:09:00Z</time>
      </trkpt>
      <trkpt lat="39.14267" lon="-8.06934">
        <ele>180.995</ele>
        <time>2019-10-16T04:09:20Z</time>
      </trkpt>
      <trkpt lat="39.14287" lon="-8.06896">
        <ele>180.453</ele>
        <time>2019-10-16T04:09:40Z</time>
      </trkpt>
      <trkpt lat="39.14304" lon="-8.06861">
        <ele>181.915</ele>
        <time>2019-10-16T04:10:00Z</time>
      </trkpt>
      <trkpt lat="39.14324" lon="-8.0683">
        <ele>182.055</ele>
        <time>2019-10-16T04:10:20Z</time>
      </trkpt>
      <trkpt lat="39.14346" lon="-8.06808">
        <ele>182.087</ele>
        <time>2019-10-16T04:10:40Z</time>
      </trkpt>
      <trkpt lat="39.14375" lon="-8.06799">
        <ele>181.848</ele>
        <time>2019-10-16T04:11:00Z</time>
      </trkpt>
      <trkpt lat="39.1441" lon="-8.06798">
        <ele>181.74</ele>
        <time>2019-10-16T04:11:20Z</time>
      </trkpt>
      <trkpt lat="39.14444" lon="-8.06798">
        <ele>181.76</ele>
        <time>2019-10-16T04:11:40Z</time>
      </trkpt>
      <trkpt lat="39.14473" lon="-8.06796">
        <ele>182.677</ele>
        <time>2019-10-16T04:12:00Z</time>
      </trkpt>
      <trkpt lat="39.14502" lon="-8.06787">
        <ele>181.361</ele>
        <time>2019-10-16T04:12:20Z</time>
      </trkpt>
      <trkpt lat="39.14528" lon="-8.06765">
        <ele>179.527</ele>
        <time>2019-10-16T04:12:40Z</time>
      </trkpt>
      <trkpt lat="39.1455" lon="-8.06733">
        <ele>179.208</ele>
        <time>2019-10-16T04:13:00Z</time>
      </trkpt>
      <trkpt lat="39.14568" lon="-8.06705">
        <ele>179.391</ele>
        <time>2019-10-16T04:13:20Z</time>
      </trkpt>
      <trkpt lat="39.14581" lon="-8.06679">
        <ele>179.699</ele>
        <time>2019-10-16T04:13:40Z</time>
      </trkpt>
      <trkpt lat="39.14587" lon="-8.06648">
        <ele>180.481</ele>
        <time>2019-10-16T04:14:00Z</time>
      </trkpt>
      <trkpt lat="39.14588" lon="-8.06607">
        <ele>180.561</ele>
        <time>2019-10-16T04:14:20Z</time>
      </trkpt>
      <trkpt lat="39.1459" lon="-8.0656">
        <ele>179.113</ele>
        <time>2019-10-16T04:14:40Z</time>
      </trkpt>
      <trkpt lat="39.14595" lon="-8.06512">
        <ele>177.214</ele>
        <time>2019-10-16T04:15:00Z</time>
      </trkpt>
      <trkpt lat="39.146" lon="-8.06464">
        <ele>176.456</ele>
        <time>2019-10-16T04:15:20Z</time>
      </trkpt>
      <trkpt lat="39.14605" lon="-8.06415">
        <ele>175.056</ele>
        <time>2019-10-16T04:15:40Z</time>
      </trkpt>
      <trkpt lat="39.1461" lon="-8.06371">
        <ele>175.654</ele>
        <time>2019-10-16T04:16:00Z</time>
      </trkpt>
      <trkpt lat="39.14616" lon="-8.06331">
        <ele>177.156</ele>
        <time>2019-10-16T04:16:20Z</time>
      </trkpt>
      <trkpt lat="39.14628" lon="-8.06294">
        <ele>176.511</ele>
        <time>2019-10-16T04:16:40Z</time>
      </trkpt>
      <trkpt lat="39.14648" lon="-8.06255">
        <ele>175.208</ele>
        <time>2019-10-16T04:17:00Z</time>
      </trkpt>
      <trkpt lat="39.14669" lon="-8.06215">
        <ele>175.379</ele>
        <time>2019-10-16T04:17:20Z</time>
      </trkpt>
      <trkpt lat="39.14689" lon="-8.06178">
        <ele>177.137</ele>
        <time>2019-10-16T04:17:40Z</time>
      </trkpt>
      <trkpt lat="39.1471" lon="-8.06148">
        <ele>178.559</ele>
        <time>2019-10-16T04:18:00Z</time>
      </trkpt>
      <trkpt lat="39.14739" lon="-8.06124">
        <ele>178.769</ele>
        <time>2019-10-16T04:18:20Z</time>
      </trkpt>
      <trkpt lat="39.1477" lon="-8.06099">
        <ele>177.681</ele>
        <time>2019-10-16T04:18:40Z</time>
      </trkpt>
      <trkpt lat="39.14796" lon="-8.06069">
        <ele>178.782</ele>
        <time>2019-10-16T04:19:00Z</time>
      </trkpt>
      <trkpt lat="39.14824" lon="-8.06036">
        <ele>178.784</ele>
        <time>2019-10-16T04:19:20Z</time>
      </trkpt>
      <trkpt lat="39.1485" lon="-8.06001">
        <ele>178.334</ele>
        <time>2019-10-16T04:19:40Z</time>
      </trkpt>
      <trkpt lat="39.14878" lon="-8.05966">
        <ele>178.232</ele>
        <time>2019-10-16T04:20:00Z</time>
      </trkpt>
      <trkpt lat="39.14906" lon="-8.05931">
        <ele>179.092</ele>
        <time>2019-10-16T04:20:20Z</time>
      </trkpt>
      <trkpt lat="39.14935" lon="-8.05896">
        <ele>177.511</ele>
        <time>2019-10-16T04:20:40Z</time>
      </trkpt>
      <trkpt lat="39.14963" lon="-8.05862">
        <ele>176.308</ele>
        <time>2019-10-16T04:21:00Z</time>
      </trkpt>
      <trkpt lat="39.14991" lon="-8.05829">
        <ele>176.867</ele>
        <time>2019-10-16T04:21:20Z</time>
      </trkpt>
      <trkpt lat="39.15023" lon="-8.05801">
        <ele>177.995</ele>
        <time>2019-10-16T04:21:40Z</time>
      </trkpt>
      <trkpt lat="39.15055" lon="-8.05774">
        <ele>177.087</ele>
        <time>2019-10-16T04:22:00Z</time>
      </trkpt>
      <trkpt lat="39.15084" lon="-8.05743">
        <ele>177.397</ele>
        <time>2019-10-16T04:22:20Z</time>
      </trkpt>
      <trkpt lat="39.1511" lon="-8.05707">
        <ele>177.069</ele>
        <time>2019-10-16T04:22:40Z</time>
      </trkpt>
      <trkpt lat="39.15136" lon="-8.0567">
        <ele>176.95</ele>
        <time>2019-10-16T04:23:00Z</time>
      </trkpt>
      <trkpt lat="39.15162" lon="-8.05634">
        <ele>177.812</ele>
        <time>2019-10-16T04:23:20Z</time>
      </trkpt>
      <trkpt lat="39.15185" lon="-8.05594">
        <ele>178.692</ele>
        <time>2019-10-16T04:23:40Z</time>
      </trkpt>
      <trkpt lat="39.15208" lon="-8.05557">
        <ele>179.571</ele>
        <time>2019-10-16T04:24:00Z</time>
      </trkpt>
      <trkpt lat="39.15234" lon="-8.05522">
        <ele>180.841</ele>
        <time>2019-10-16T04:24:20Z</time>
      </trkpt>
      <trkpt lat="39.1526" lon="-8.05485">
        <ele>180.515</ele>
        <time>2019-10-16T04:24:40Z</time>
      </trkpt>
      <trkpt lat="39.15287" lon="-8.0545">
        <ele>179.108</ele>
        <time>2019-10-16T04:25:00Z</time>
      </trkpt>
      <trkpt lat="39.15316" lon="-8.05418">
        <ele>178.451</ele>
        <time>2019-10-16T04:25:20Z</time>
      </trkpt>
      <trkpt lat="39.15349" lon="-8.0539">
        <ele>178.039</ele>
        <time>2019-10-16T04:25:40Z</time>
      </trkpt>
      <trkpt lat="39.15381" lon="-8.05363">
        <ele>177.061</ele>
        <time>2019-10-16T04:26:00Z</time>
      </trkpt>
      <trkpt lat="39.15413" lon="-8.05338">
        <ele>178.661</ele>
        <time>2019-10-16T04:26:20Z</time>
      </trkpt>
      <trkpt lat="39.15439" lon="-8.05313">
        <ele>179.883</ele>
        <time>2019-10-16T04:26:40Z</time>
      </trkpt>
      <trkpt lat="39.1546" lon="-8.05288">
        <ele>179.494</ele>
        <time>2019-10-16T04:27:00Z</time>
      </trkpt>
      <trkpt lat="39.15476" lon="-8.05257">
        <ele>178.186</ele>
        <time>2019-10-16T04:27:20Z</time>
      </trkpt>
      <trkpt lat="39.15489" lon="-8.05222">
        <ele>177.216</ele>
        <time>2019-10-16T04:27:40Z</time>
      </trkpt>
      <trkpt lat="39.15501" lon="-8.05187">
        <ele>177.013</ele>
        <time>2019-10-16T04:28:00Z</time>
      </trkpt>
      <trkpt lat="39.1551" lon="-8.05148">
        <ele>178.543</ele>
        <time>2019-10-16T04:28:20Z</time>
      </trkpt>
      <trkpt lat="39.15515" lon="-8.05103">
        <ele>179.407</ele>
        <time>2019-10-16T04:28:40Z</time>
      </trkpt>
      <trkpt lat="39.15519" lon="-8.05057">
        <ele>178.708</ele>
        <time>2019-10-16T04:29:00Z</time>
      </trkpt>
      <trkpt lat="39.15523" lon="-8.05006">
        <ele>177.895</ele>
        <time>2019-10-16T04:29:20Z</time>
      </trkpt>
      <trkpt lat="39.15528" lon="-8.04956">
        <ele>178.013</ele>
        <time>2019-10-16T04:29:40Z</time>
      </trkpt>
      <trkpt lat="39.15536" lon="-8.04908">
        <ele>176.725</ele>
        <time>2019-10-16T04:30:00Z</time>
      </trkpt>
      <trkpt lat="39.15545" lon="-8.04862">
        <ele>175.065</ele>
        <time>2019-10-16T04:30:20Z</time>
      </trkpt>
      <trkpt lat="39.15551" lon="-8.04815">
        <ele>174.967</ele>
        <time>2019-10-16T04:30:40Z</time>
      </trkpt>
      <trkpt lat="39.15551" lon="-8.04766">
        <ele>174.928</ele>
        <time>2019-10-16T04:31:00Z</time>
      </trkpt>
      <trkpt lat="39.15547" lon="-8.04717">
        <ele>175.04</ele>
        <time>2019-10-16T04:31:20Z</time>
      </trkpt>
      <trkpt lat="39.15541" lon="-8.04667">
        <ele>175.09</ele>
        <time>2019-10-16T04:31:40Z</time>
      </trkpt>
      <trkpt lat="39.15536" lon="-8.04617">
        <ele>174.734</ele>
        <time>2019-10-16T04:32:00Z</time>
      </trkpt>
      <trkpt lat="39.15528" lon="-8.04572">
        <ele>175.055</ele>
        <time>2019-10-16T04:32:20Z</time>
      </trkpt>
      <trkpt lat="39.15517" lon="-8.04534">
        <ele>174.61</ele>
        <time>2019-10-16T04:32:40Z</time>
      </trkpt>
      <trkpt lat="39.15512" lon="-8.04499">
        <ele>174.908</ele>
        <time>2019-10-16T04:33:00Z</time>
      </trkpt>
      <trkpt lat="39.15517" lon="-8.0446">
        <ele>173.447</ele>
        <time>2019-10-16T04:33:20Z</time>
      </trkpt>
      <trkpt lat="39.15527" lon="-8.04417">
        <ele>172.045</ele>
        <time>2019-10-16T04:33:40Z</time>
      </trkpt>
      <trkpt lat="39.15538" lon="-8.04372">
        <ele>174.017</ele>
        <time>2019-10-16T04:34:00Z</time>
      </trkpt>
      <trkpt lat="39.15548" lon="-8.04326">
        <ele>176.387</ele>
        <time>2019-10-16T04:34:20Z</time>
      </trkpt>
      <trkpt lat="39.15558" lon="-8.04278">
        <ele>176.949</ele>
        <time>2019-10-16T04:34:40Z</time>
      </trkpt>
      <trkpt lat="39.15568" lon="-8.04232">
        <ele>176.15</ele>
        <time>2019-10-16T04:35:00Z</time>
      </trkpt>
      <trkpt lat="39.15577" lon="-8.04187">
        <ele>177.322</ele>
        <time>2019-10-16T04:35:20Z</time>
      </trkpt>
      <trkpt lat="39.15587" lon="-8.04142">
        <ele>179.822</ele>
        <time>2019-10-16T04:35:40Z</time>
      </trkpt>
      <trkpt lat="39.15599" lon="-8.04098">
        <ele>180.389</ele>
        <time>2019-10-16T04:36:00Z</time>
      </trkpt>
      <trkpt lat="39.15612" lon="-8.04053">
        <ele>179.906</ele>
        <time>2019-10-16T04:36:20Z</time>
      </trkpt>
      <trkpt lat="39.15626" lon="-8.04009">
        <ele>177.526</ele>
        <time>2019-10-16T04:36:40Z</time>
      </trkpt>
      <trkpt lat="39.15641" lon="-8.03965">
        <ele>178.608</ele>
        <time>2019-10-16T04:37:00Z</time>
      </trkpt>
      <trkpt lat="39.15655" lon="-8.03921">
        <ele>182.012</ele>
        <time>2019-10-16T04:37:20Z</time>
      </trkpt>
      <trkpt lat="39.15669" lon="-8.03877">
        <ele>186.79</ele>
        <time>2019-10-16T04:37:40Z</time>
      </trkpt>
      <trkpt lat="39.15683" lon="-8.03834">
        <ele>190.052</ele>
        <time>2019-10-16T04:38:00Z</time>
      </trkpt>
      <trkpt lat="39.15694" lon="-8.03794">
        <ele>191.042</ele>
        <time>2019-10-16T04:38:20Z</time>
      </trkpt>
      <trkpt lat="39.15709" lon="-8.0376">
        <ele>193.034</ele>
        <time>2019-10-16T04:38:40Z</time>
      </trkpt>
      <trkpt lat="39.15731" lon="-8.03735">
        <ele>196.685</ele>
        <time>2019-10-16T04:39:00Z</time>
      </trkpt>
      <trkpt lat="39.15757" lon="-8.03714">
        <ele>197.937</ele>
        <time>2019-10-16T04:39:20Z</time>
      </trkpt>
      <trkpt lat="39.1578" lon="-8.0369">
        <ele>197.137</ele>
        <time>2019-10-16T04:39:40Z</time>
      </trkpt>
      <trkpt lat="39.15799" lon="-8.0366">
        <ele>196.782</ele>
        <time>2019-10-16T04:40:00Z</time>
      </trkpt>
      <trkpt lat="39.15817" lon="-8.03623">
        <ele>198.443</ele>
        <time>2019-10-16T04:40:20Z</time>
      </trkpt>
      <trkpt lat="39.15835" lon="-8.03583">
        <ele>201.117</ele>
        <time>2019-10-16T04:40:40Z</time>
      </trkpt>
      <trkpt lat="39.15851" lon="-8.03545">
        <ele>200.908</ele>
        <time>2019-10-16T04:41:00Z</time>
      </trkpt>
      <trkpt lat="39.1587" lon="-8.03507">
        <ele>200.222</ele>
        <time>2019-10-16T04:41:20Z</time>
      </trkpt>
      <trkpt lat="39.15888" lon="-8.03467">
        <ele>197.87</ele>
        <time>2019-10-16T04:41:40Z</time>
      </trkpt>
      <trkpt lat="39.15906" lon="-8.03428">
        <ele>197.572</ele>
        <time>2019-10-16T04:42:00Z</time>
      </trkpt>
      <trkpt lat="39.15924" lon="-8.03386">
        <ele>198.312</ele>
        <time>2019-10-16T04:42:20Z</time>
      </trkpt>
      <trkpt lat="39.1594" lon="-8.03342">
        <ele>201.044</ele>
        <time>2019-10-16T04:42:40Z</time>
      </trkpt>
      <trkpt lat="39.15956" lon="-8.03299">
        <ele>202.075</ele>
        <time>2019-10-16T04:43:00Z</time>
      </trkpt>
      <trkpt lat="39.15972" lon="-8.03253">
        <ele>200.167</ele>
        <time>2019-10-16T04:43:20Z</time>
      </trkpt>
      <trkpt lat="39.15989" lon="-8.03208">
        <ele>199.187</ele>
        <time>2019-10-16T04:43:40Z</time>
      </trkpt>
      <trkpt lat="39.16006" lon="-8.03165">
        <ele>198.674</ele>
        <time>2019-10-16T04:44:00Z</time>
      </trkpt>
      <trkpt lat="39.16022" lon="-8.03122">
        <ele>198.956</ele>
        <time>2019-10-16T04:44:20Z</time>
      </trkpt>
      <trkpt lat="39.16039" lon="-8.0308">
        <ele>200.821</ele>
        <time>2019-10-16T04:44:40Z</time>
      </trkpt>
      <trkpt lat="39.1605" lon="-8.03037">
        <ele>204.308</ele>
        <time>2019-10-16T04:45:00Z</time>
      </trkpt>
      <trkpt lat="39.16054" lon="-8.02995">
        <ele>206.431</ele>
        <time>2019-10-16T04:45:20Z</time>
      </trkpt>
      <trkpt lat="39.16054" lon="-8.02953">
        <ele>208.629</ele>
        <time>2019-10-16T04:45:40Z</time>
      </trkpt>
      <trkpt lat="39.16053" lon="-8.02911">
        <ele>207.651</ele>
        <time>2019-10-16T04:46:00Z</time>
      </trkpt>
      <trkpt lat="39.1605" lon="-8.02864">
        <ele>205.321</ele>
        <time>2019-10-16T04:46:20Z</time>
      </trkpt>
      <trkpt lat="39.16046" lon="-8.02817">
        <ele>204.543</ele>
        <time>2019-10-16T04:46:40Z</time>
      </trkpt>
      <trkpt lat="39.16044" lon="-8.02773">
        <ele>205.174</ele>
        <time>2019-10-16T04:47:00Z</time>
      </trkpt>
      <trkpt lat="39.16052" lon="-8.02732">
        <ele>207.566</ele>
        <time>2019-10-16T04:47:20Z</time>
      </trkpt>
      <trkpt lat="39.16068" lon="-8.02689">
        <ele>209.196</ele>
        <time>2019-10-16T04:47:40Z</time>
      </trkpt>
      <trkpt lat="39.16086" lon="-8.02649">
        <ele>209.723</ele>
        <time>2019-10-16T04:48:00Z</time>
      </trkpt>
      <trkpt lat="39.16104" lon="-8.02613">
        <ele>209.583</ele>
        <time>2019-10-16T04:48:20Z</time>
      </trkpt>
      <trkpt lat="39.16121" lon="-8.0258">
        <ele>210.111</ele>
        <time>2019-10-16T04:48:40Z</time>
      </trkpt>
      <trkpt lat="39.16136" lon="-8.02547">
        <ele>210.508</ele>
        <time>2019-10-16T04:49:00Z</time>
      </trkpt>
      <trkpt lat="39.16146" lon="-8.0251">
        <ele>210.026</ele>
        <time>2019-10-16T04:49:20Z</time>
      </trkpt>
      <trkpt lat="39.16148" lon="-8.02472">
        <ele>211.034</ele>
        <time>2019-10-16T04:49:40Z</time>
      </trkpt>
      <trkpt lat="39.16146" lon="-8.02428">
        <ele>211.046</ele>
        <time>2019-10-16T04:50:00Z</time>
      </trkpt>
      <trkpt lat="39.16145" lon="-8.02381">
        <ele>210.836</ele>
        <time>2019-10-16T04:50:20Z</time>
      </trkpt>
      <trkpt lat="39.16155" lon="-8.02336">
        <ele>211.078</ele>
        <time>2019-10-16T04:50:40Z</time>
      </trkpt>
      <trkpt lat="39.16172" lon="-8.0229">
        <ele>211.469</ele>
        <time>2019-10-16T04:51:00Z</time>
      </trkpt>
      <trkpt lat="39.16189" lon="-8.02241">
        <ele>210.941</ele>
        <time>2019-10-16T04:51:20Z</time>
      </trkpt>
      <trkpt lat="39.16205" lon="-8.02191">
        <ele>210.971</ele>
        <time>2019-10-16T04:51:40Z</time>
      </trkpt>
      <trkpt lat="39.1622" lon="-8.02142">
        <ele>213.115</ele>
        <time>2019-10-16T04:52:00Z</time>
      </trkpt>
      <trkpt lat="39.16235" lon="-8.02093">
        <ele>214.265</ele>
        <time>2019-10-16T04:52:20Z</time>
      </trkpt>
      <trkpt lat="39.16249" lon="-8.0205">
        <ele>215.011</ele>
        <time>2019-10-16T04:52:40Z</time>
      </trkpt>
      <trkpt lat="39.16259" lon="-8.02007">
        <ele>215.208</ele>
        <time>2019-10-16T04:53:00Z</time>
      </trkpt>
      <trkpt lat="39.1626" lon="-8.01958">
        <ele>214.745</ele>
        <time>2019-10-16T04:53:20Z</time>
      </trkpt>
      <trkpt lat="39.16257" lon="-8.01907">
        <ele>213.853</ele>
        <time>2019-10-16T04:53:40Z</time>
      </trkpt>
      <trkpt lat="39.16256" lon="-8.01855">
        <ele>214.815</ele>
        <time>2019-10-16T04:54:00Z</time>
      </trkpt>
      <trkpt lat="39.16255" lon="-8.01806">
        <ele>216.385</ele>
        <time>2019-10-16T04:54:20Z</time>
      </trkpt>
      <trkpt lat="39.16249" lon="-8.0176">
        <ele>216.287</ele>
        <time>2019-10-16T04:54:40Z</time>
      </trkpt>
      <trkpt lat="39.16238" lon="-8.0172">
        <ele>213.598</ele>
        <time>2019-10-16T04:55:00Z</time>
      </trkpt>
      <trkpt lat="39.16226" lon="-8.01683">
        <ele>212.34</ele>
        <time>2019-10-16T04:55:20Z</time>
      </trkpt>
      <trkpt lat="39.16212" lon="-8.01645">
        <ele>212.17</ele>
        <time>2019-10-16T04:55:40Z</time>
      </trkpt>
      <trkpt lat="39.16199" lon="-8.01604">
        <ele>210.427</ele>
        <time>2019-10-16T04:56:00Z</time>
      </trkpt>
      <trkpt lat="39.16188" lon="-8.01557">
        <ele>209.368</ele>
        <time>2019-10-16T04:56:20Z</time>
      </trkpt>
      <trkpt lat="39.16181" lon="-8.0151">
        <ele>211.414</ele>
        <time>2019-10-16T04:56:40Z</time>
      </trkpt>
      <trkpt lat="39.16176" lon="-8.01464">
        <ele>214.008</ele>
        <time>2019-10-16T04:57:00Z</time>
      </trkpt>
      <trkpt lat="39.16172" lon="-8.01421">
        <ele>216.676</ele>
        <time>2019-10-16T04:57:20Z</time>
      </trkpt>
      <trkpt lat="39.16167" lon="-8.01381">
        <ele>217.794</ele>
        <time>2019-10-16T04:57:40Z</time>
      </trkpt>
      <trkpt lat="39.16159" lon="-8.01337">
        <ele>216.736</ele>
        <time>2019-10-16T04:58:00Z</time>
      </trkpt>
      <trkpt lat="39.16149" lon="-8.01291">
        <ele>218.976</ele>
        <time>2019-10-16T04:58:20Z</time>
      </trkpt>
      <trkpt lat="39.1614" lon="-8.01245">
        <ele>219.498</ele>
        <time>2019-10-16T04:58:40Z</time>
      </trkpt>
      <trkpt lat="39.16132" lon="-8.01199">
        <ele>220.479</ele>
        <time>2019-10-16T04:59:00Z</time>
      </trkpt>
      <trkpt lat="39.16126" lon="-8.01152">
        <ele>220.561</ele>
        <time>2019-10-16T04:59:20Z</time>
      </trkpt>
      <trkpt lat="39.1612" lon="-8.01104">
        <ele>222.061</ele>
        <time>2019-10-16T04:59:40Z</time>
      </trkpt>
      <trkpt lat="39.16293" lon="-8.00767">
        <ele>221.748</ele>
        <time>2019-10-16T05:00:00Z</time>
      </trkpt>
      <trkpt lat="39.16494" lon="-8.00676">
        <ele>214.561</ele>
        <time>2019-10-16T05:00:20Z</time>
      </trkpt>
      <trkpt lat="39.16796" lon="-8.00741">
        <ele>210.017</ele>
        <time>2019-10-16T05:00:40Z</time>
      </trkpt>
      <trkpt lat="39.17166" lon="-8.00741">
        <ele>197.708</ele>
        <time>2019-10-16T05:01:00Z</time>
      </trkpt>
      <trkpt lat="39.17524" lon="-8.00909">
        <ele>169.548</ele>
        <time>2019-10-16T05:01:20Z</time>
      </trkpt>
      <trkpt lat="39.17681" lon="-8.0088">
        <ele>162.976</ele>
        <time>2019-10-16T05:01:40Z</time>
      </trkpt>
      <trkpt lat="39.17954" lon="-8.00705">
        <ele>152.488</ele>
        <time>2019-10-16T05:02:00Z</time>
      </trkpt>
      <trkpt lat="39.18296" lon="-8.00646">
        <ele>137.748</ele>
        <time>2019-10-16T05:02:20Z</time>
      </trkpt>
      <trkpt lat="39.18278" lon="-8.00132">
        <ele>143.96</ele>
        <time>2019-10-16T05:02:40Z</time>
      </trkpt>
      <trkpt lat="39.18192" lon="-7.99969">
        <ele>141.531</ele>
        <time>2019-10-16T05:03:00Z</time>
      </trkpt>
      <trkpt lat="39.18283" lon="-7.99895">
        <ele>142.463</ele>
        <time>2019-10-16T05:03:20Z</time>
      </trkpt>
      <trkpt lat="39.18348" lon="-7.9933">
        <ele>140.173</ele>
        <time>2019-10-16T05:03:40Z</time>
      </trkpt>
      <trkpt lat="39.18726" lon="-7.99462">
        <ele>157.193</ele>
        <time>2019-10-16T05:04:00Z</time>
      </trkpt>
      <trkpt lat="39.19236" lon="-7.99132">
        <ele>185.965</ele>
        <time>2019-10-16T05:04:20Z</time>
      </trkpt>
      <trkpt lat="39.19413" lon="-7.99271">
        <ele>196.921</ele>
        <time>2019-10-16T05:04:40Z</time>
      </trkpt>
      <trkpt lat="39.19609" lon="-7.99499">
        <ele>199.908</ele>
        <time>2019-10-16T05:05:00Z</time>
      </trkpt>
      <trkpt lat="39.19862" lon="-7.99439">
        <ele>183.193</ele>
        <time>2019-10-16T05:05:20Z</time>
      </trkpt>
      <trkpt lat="39.19996" lon="-7.99614">
        <ele>170.671</ele>
        <time>2019-10-16T05:05:40Z</time>
      </trkpt>
      <trkpt lat="39.2028" lon="-7.99763">
        <ele>151.483</ele>
        <time>2019-10-16T05:06:00Z</time>
      </trkpt>
      <trkpt lat="39.20472" lon="-7.99418">
        <ele>149.023</ele>
        <time>2019-10-16T05:06:20Z</time>
      </trkpt>
      <trkpt lat="39.20659" lon="-7.99318">
        <ele>161.675</ele>
        <time>2019-10-16T05:06:40Z</time>
      </trkpt>
      <trkpt lat="39.21112" lon="-7.9959">
        <ele>186.376</ele>
        <time>2019-10-16T05:07:00Z</time>
      </trkpt>
      <trkpt lat="39.21221" lon="-7.99576">
        <ele>189.738</ele>
        <time>2019-10-16T05:07:20Z</time>
      </trkpt>
      <trkpt lat="39.21395" lon="-7.99542">
        <ele>190.158</ele>
        <time>2019-10-16T05:07:40Z</time>
      </trkpt>
      <trkpt lat="39.22338" lon="-7.9986">
        <ele>181.544</ele>
        <time>2019-10-16T05:08:00Z</time>
      </trkpt>
      <trkpt lat="39.23026" lon="-8.00094">
        <ele>190.405</ele>
        <time>2019-10-16T05:08:20Z</time>
      </trkpt>
      <trkpt lat="39.23768" lon="-8.00159">
        <ele>167.315</ele>
        <time>2019-10-16T05:08:40Z</time>
      </trkpt>
      <trkpt lat="39.23906" lon="-8.00081">
        <ele>160.908</ele>
        <time>2019-10-16T05:09:00Z</time>
      </trkpt>
      <trkpt lat="39.24076" lon="-7.99701">
        <ele>139.878</ele>
        <time>2019-10-16T05:09:20Z</time>
      </trkpt>
      <trkpt lat="39.24311" lon="-7.99635">
        <ele>129.016</ele>
        <time>2019-10-16T05:09:40Z</time>
      </trkpt>
      <trkpt lat="39.24433" lon="-7.99954">
        <ele>109.978</ele>
        <time>2019-10-16T05:10:00Z</time>
      </trkpt>
      <trkpt lat="39.24473" lon="-8.00142">
        <ele>104.848</ele>
        <time>2019-10-16T05:10:20Z</time>
      </trkpt>
      <trkpt lat="39.24436" lon="-8.0037">
        <ele>101.32</ele>
        <time>2019-10-16T05:10:40Z</time>
      </trkpt>
      <trkpt lat="39.24527" lon="-8.00487">
        <ele>99.511</ele>
        <time>2019-10-16T05:11:00Z</time>
      </trkpt>
      <trkpt lat="39.24666" lon="-8.00486">
        <ele>100.063</ele>
        <time>2019-10-16T05:11:20Z</time>
      </trkpt>
      <trkpt lat="39.24668" lon="-8.00493">
        <ele>99.563</ele>
        <time>2019-10-16T05:11:40Z</time>
      </trkpt>
      <trkpt lat="39.24675" lon="-8.00592">
        <ele>99.454</ele>
        <time>2019-10-16T05:12:00Z</time>
      </trkpt>
      <trkpt lat="39.24682" lon="-8.00655">
        <ele>104.156</ele>
        <time>2019-10-16T05:12:20Z</time>
      </trkpt>
      <trkpt lat="39.24686" lon="-8.00661">
        <ele>104.511</ele>
        <time>2019-10-16T05:12:40Z</time>
      </trkpt>
      <trkpt lat="39.2469" lon="-8.00665">
        <ele>104.808</ele>
        <time>2019-10-16T05:13:00Z</time>
      </trkpt>
      <trkpt lat="39.24698" lon="-8.00666">
        <ele>104.869</ele>
        <time>2019-10-16T05:13:20Z</time>
      </trkpt>
      <trkpt lat="39.24777" lon="-8.00666">
        <ele>103.097</ele>
        <time>2019-10-16T05:13:40Z</time>
      </trkpt>
      <trkpt lat="39.24902" lon="-8.00656">
        <ele>103.219</ele>
        <time>2019-10-16T05:14:00Z</time>
      </trkpt>
      <trkpt lat="39.25073" lon="-8.00612">
        <ele>101.649</ele>
        <time>2019-10-16T05:14:20Z</time>
      </trkpt>
      <trkpt lat="39.25256" lon="-8.00562">
        <ele>101.751</ele>
        <time>2019-10-16T05:14:40Z</time>
      </trkpt>
      <trkpt lat="39.25392" lon="-8.0054">
        <ele>104.092</ele>
        <time>2019-10-16T05:15:00Z</time>
      </trkpt>
      <trkpt lat="39.25412" lon="-8.00544">
        <ele>104.024</ele>
        <time>2019-10-16T05:15:20Z</time>
      </trkpt>
      <trkpt lat="39.25422" lon="-8.00545">
        <ele>103.914</ele>
        <time>2019-10-16T05:15:40Z</time>
      </trkpt>
      <trkpt lat="39.25431" lon="-8.00544">
        <ele>103.651</ele>
        <time>2019-10-16T05:16:00Z</time>
      </trkpt>
      <trkpt lat="39.2544" lon="-8.00538">
        <ele>103.001</ele>
        <time>2019-10-16T05:16:20Z</time>
      </trkpt>
      <trkpt lat="39.25448" lon="-8.00529">
        <ele>102.111</ele>
        <time>2019-10-16T05:16:40Z</time>
      </trkpt>
      <trkpt lat="39.25457" lon="-8.00519">
        <ele>101.508</ele>
        <time>2019-10-16T05:17:00Z</time>
      </trkpt>
      <trkpt lat="39.25518" lon="-8.00452">
        <ele>102.029</ele>
        <time>2019-10-16T05:17:20Z</time>
      </trkpt>
      <trkpt lat="39.25532" lon="-8.00435">
        <ele>101.337</ele>
        <time>2019-10-16T05:17:40Z</time>
      </trkpt>
      <trkpt lat="39.2553" lon="-8.00434">
        <ele>101.319</ele>
        <time>2019-10-16T05:18:00Z</time>
      </trkpt>
      <trkpt lat="39.25528" lon="-8.00434">
        <ele>101.289</ele>
        <time>2019-10-16T05:18:20Z</time>
      </trkpt>
      <trkpt lat="39.25526" lon="-8.00431">
        <ele>101.171</ele>
        <time>2019-10-16T05:18:40Z</time>
      </trkpt>
      <trkpt lat="39.25524" lon="-8.00429">
        <ele>100.972</ele>
        <time>2019-10-16T05:19:00Z</time>
      </trkpt>
      <trkpt lat="39.25521" lon="-8.00426">
        <ele>100.794</ele>
        <time>2019-10-16T05:19:20Z</time>
      </trkpt>
      <trkpt lat="39.25509" lon="-8.00419">
        <ele>100.144</ele>
        <time>2019-10-16T05:19:40Z</time>
      </trkpt>
      <trkpt lat="39.25506" lon="-8.00419">
        <ele>100.274</ele>
        <time>2019-10-16T05:20:00Z</time>
      </trkpt>
      <trkpt lat="39.25505" lon="-8.0042">
        <ele>100.256</ele>
        <time>2019-10-16T05:20:20Z</time>
      </trkpt>
      <trkpt lat="39.25503" lon="-8.00416">
        <ele>99.921</ele>
        <time>2019-10-16T05:20:40Z</time>
      </trkpt>
      <trkpt lat="39.25502" lon="-8.00413">
        <ele>99.708</ele>
        <time>2019-10-16T05:21:00Z</time>
      </trkpt>
      <trkpt lat="39.25501" lon="-8.00408">
        <ele>99.351</ele>
        <time>2019-10-16T05:21:20Z</time>
      </trkpt>
      <trkpt lat="39.25497" lon="-8.00378">
        <ele>98.319</ele>
        <time>2019-10-16T05:21:40Z</time>
      </trkpt>
      <trkpt lat="39.25497" lon="-8.00369">
        <ele>98.581</ele>
        <time>2019-10-16T05:22:00Z</time>
      </trkpt>
      <trkpt lat="39.25499" lon="-8.00361">
        <ele>98.441</ele>
        <time>2019-10-16T05:22:20Z</time>
      </trkpt>
      <trkpt lat="39.25501" lon="-8.00353">
        <ele>99.173</ele>
        <time>2019-10-16T05:22:40Z</time>
      </trkpt>
      <trkpt lat="39.25503" lon="-8.00346">
        <ele>100.064</ele>
        <time>2019-10-16T05:23:00Z</time>
      </trkpt>
      <trkpt lat="39.25504" lon="-8.00339">
        <ele>100.886</ele>
        <time>2019-10-16T05:23:20Z</time>
      </trkpt>
      <trkpt lat="39.25504" lon="-8.00333">
        <ele>101.646</ele>
        <time>2019-10-16T05:23:40Z</time>
      </trkpt>
      <trkpt lat="39.25504" lon="-8.00329">
        <ele>102.129</ele>
        <time>2019-10-16T05:24:00Z</time>
      </trkpt>
      <trkpt lat="39.25503" lon="-8.00326">
        <ele>102.5</ele>
        <time>2019-10-16T05:24:20Z</time>
      </trkpt>
      <trkpt lat="39.25503" lon="-8.00323">
        <ele>102.82</ele>
        <time>2019-10-16T05:24:40Z</time>
      </trkpt>
      <trkpt lat="39.25502" lon="-8.00322">
        <ele>103.008</ele>
        <time>2019-10-16T05:25:00Z</time>
      </trkpt>
      <trkpt lat="39.25501" lon="-8.00315">
        <ele>103.936</ele>
        <time>2019-10-16T05:25:20Z</time>
      </trkpt>
      <trkpt lat="39.25497" lon="-8.00312">
        <ele>105.574</ele>
        <time>2019-10-16T05:25:40Z</time>
      </trkpt>
      <trkpt lat="39.25496" lon="-8.00312">
        <ele>106.256</ele>
        <time>2019-10-16T05:26:00Z</time>
      </trkpt>
      <trkpt lat="39.25495" lon="-8.00313">
        <ele>106.656</ele>
        <time>2019-10-16T05:26:20Z</time>
      </trkpt>
      <trkpt lat="39.25493" lon="-8.00313">
        <ele>107.368</ele>
        <time>2019-10-16T05:26:40Z</time>
      </trkpt>
      <trkpt lat="39.25491" lon="-8.00311">
        <ele>108.369</ele>
        <time>2019-10-16T05:27:00Z</time>
      </trkpt>
      <trkpt lat="39.2549" lon="-8.00308">
        <ele>109.421</ele>
        <time>2019-10-16T05:27:20Z</time>
      </trkpt>
      <trkpt lat="39.25489" lon="-8.00304">
        <ele>110.121</ele>
        <time>2019-10-16T05:27:40Z</time>
      </trkpt>
      <trkpt lat="39.25489" lon="-8.00299">
        <ele>110.258</ele>
        <time>2019-10-16T05:28:00Z</time>
      </trkpt>
      <trkpt lat="39.2549" lon="-8.00293">
        <ele>110.152</ele>
        <time>2019-10-16T05:28:20Z</time>
      </trkpt>
      <trkpt lat="39.25491" lon="-8.00286">
        <ele>110.117</ele>
        <time>2019-10-16T05:28:40Z</time>
      </trkpt>
      <trkpt lat="39.2549" lon="-8.00279">
        <ele>110.508</ele>
        <time>2019-10-16T05:29:00Z</time>
      </trkpt>
      <trkpt lat="39.2549" lon="-8.00272">
        <ele>111.079</ele>
        <time>2019-10-16T05:29:20Z</time>
      </trkpt>
      <trkpt lat="39.25486" lon="-8.00219">
        <ele>114.727</ele>
        <time>2019-10-16T05:29:40Z</time>
      </trkpt>
      <trkpt lat="39.25486" lon="-8.00206">
        <ele>114.629</ele>
        <time>2019-10-16T05:30:00Z</time>
      </trkpt>
      <trkpt lat="39.25486" lon="-8.00199">
        <ele>114.539</ele>
        <time>2019-10-16T05:30:20Z</time>
      </trkpt>
      <trkpt lat="39.25487" lon="-8.00155">
        <ele>113.181</ele>
        <time>2019-10-16T05:30:40Z</time>
      </trkpt>
      <trkpt lat="39.25488" lon="-8.0015">
        <ele>112.692</ele>
        <time>2019-10-16T05:31:00Z</time>
      </trkpt>
      <trkpt lat="39.25489" lon="-8.00146">
        <ele>111.944</ele>
        <time>2019-10-16T05:31:20Z</time>
      </trkpt>
      <trkpt lat="39.25491" lon="-8.00142">
        <ele>111.244</ele>
        <time>2019-10-16T05:31:40Z</time>
      </trkpt>
      <trkpt lat="39.25493" lon="-8.0014">
        <ele>110.742</ele>
        <time>2019-10-16T05:32:00Z</time>
      </trkpt>
      <trkpt lat="39.25493" lon="-8.00139">
        <ele>110.722</ele>
        <time>2019-10-16T05:32:20Z</time>
      </trkpt>
      <trkpt lat="39.25498" lon="-8.0013">
        <ele>108.414</ele>
        <time>2019-10-16T05:32:40Z</time>
      </trkpt>
      <trkpt lat="39.25503" lon="-8.00123">
        <ele>107.108</ele>
        <time>2019-10-16T05:33:00Z</time>
      </trkpt>
      <trkpt lat="39.2551" lon="-8.00117">
        <ele>106.198</ele>
        <time>2019-10-16T05:33:20Z</time>
      </trkpt>
      <trkpt lat="39.25585" lon="-8.00047">
        <ele>107.036</ele>
        <time>2019-10-16T05:33:40Z</time>
      </trkpt>
      <trkpt lat="39.25626" lon="-8.0001">
        <ele>108.328</ele>
        <time>2019-10-16T05:34:00Z</time>
      </trkpt>
      <trkpt lat="39.25794" lon="-7.99867">
        <ele>104.198</ele>
        <time>2019-10-16T05:34:20Z</time>
      </trkpt>
      <trkpt lat="39.25906" lon="-7.99788">
        <ele>108.44</ele>
        <time>2019-10-16T05:34:40Z</time>
      </trkpt>
      <trkpt lat="39.26102" lon="-7.99606">
        <ele>109.971</ele>
        <time>2019-10-16T05:35:00Z</time>
      </trkpt>
      <trkpt lat="39.26256" lon="-7.9949">
        <ele>111.123</ele>
        <time>2019-10-16T05:35:20Z</time>
      </trkpt>
      <trkpt lat="39.26352" lon="-7.99419">
        <ele>112.393</ele>
        <time>2019-10-16T05:35:40Z</time>
      </trkpt>
      <trkpt lat="39.26522" lon="-7.99314">
        <ele>111.439</ele>
        <time>2019-10-16T05:36:00Z</time>
      </trkpt>
      <trkpt lat="39.26706" lon="-7.9917">
        <ele>112.401</ele>
        <time>2019-10-16T05:36:20Z</time>
      </trkpt>
      <trkpt lat="39.26966" lon="-7.98994">
        <ele>113.621</ele>
        <time>2019-10-16T05:36:40Z</time>
      </trkpt>
      <trkpt lat="39.27164" lon="-7.98812">
        <ele>115.808</ele>
        <time>2019-10-16T05:37:00Z</time>
      </trkpt>
      <trkpt lat="39.27261" lon="-7.98746">
        <ele>117.397</ele>
        <time>2019-10-16T05:37:20Z</time>
      </trkpt>
      <trkpt lat="39.27278" lon="-7.98741">
        <ele>119.075</ele>
        <time>2019-10-16T05:37:40Z</time>
      </trkpt>
      <trkpt lat="39.274" lon="-7.98697">
        <ele>117.247</ele>
        <time>2019-10-16T05:38:00Z</time>
      </trkpt>
      <trkpt lat="39.27411" lon="-7.98689">
        <ele>116.467</ele>
        <time>2019-10-16T05:38:20Z</time>
      </trkpt>
      <trkpt lat="39.27422" lon="-7.98679">
        <ele>115.579</ele>
        <time>2019-10-16T05:38:40Z</time>
      </trkpt>
      <trkpt lat="39.27432" lon="-7.98668">
        <ele>114.97</ele>
        <time>2019-10-16T05:39:00Z</time>
      </trkpt>
      <trkpt lat="39.27463" lon="-7.98631">
        <ele>114.332</ele>
        <time>2019-10-16T05:39:20Z</time>
      </trkpt>
      <trkpt lat="39.27475" lon="-7.98622">
        <ele>114.932</ele>
        <time>2019-10-16T05:39:40Z</time>
      </trkpt>
      <trkpt lat="39.27489" lon="-7.98614">
        <ele>115.765</ele>
        <time>2019-10-16T05:40:00Z</time>
      </trkpt>
      <trkpt lat="39.27504" lon="-7.98609">
        <ele>116.568</ele>
        <time>2019-10-16T05:40:20Z</time>
      </trkpt>
      <trkpt lat="39.27519" lon="-7.98606">
        <ele>118.014</ele>
        <time>2019-10-16T05:40:40Z</time>
      </trkpt>
      <trkpt lat="39.27535" lon="-7.98604">
        <ele>119.008</ele>
        <time>2019-10-16T05:41:00Z</time>
      </trkpt>
      <trkpt lat="39.276" lon="-7.98591">
        <ele>119.35</ele>
        <time>2019-10-16T05:41:20Z</time>
      </trkpt>
      <trkpt lat="39.27616" lon="-7.98583">
        <ele>119.728</ele>
        <time>2019-10-16T05:41:40Z</time>
      </trkpt>
      <trkpt lat="39.27631" lon="-7.98573">
        <ele>119.23</ele>
        <time>2019-10-16T05:42:00Z</time>
      </trkpt>
      <trkpt lat="39.27766" lon="-7.98435">
        <ele>121.43</ele>
        <time>2019-10-16T05:42:20Z</time>
      </trkpt>
      <trkpt lat="39.27884" lon="-7.98255">
        <ele>119.532</ele>
        <time>2019-10-16T05:42:40Z</time>
      </trkpt>
      <trkpt lat="39.28002" lon="-7.98043">
        <ele>120.953</ele>
        <time>2019-10-16T05:43:00Z</time>
      </trkpt>
      <trkpt lat="39.28013" lon="-7.98016">
        <ele>120.165</ele>
        <time>2019-10-16T05:43:20Z</time>
      </trkpt>
      <trkpt lat="39.28017" lon="-7.98003">
        <ele>119.555</ele>
        <time>2019-10-16T05:43:40Z</time>
      </trkpt>
      <trkpt lat="39.28024" lon="-7.97985">
        <ele>119.664</ele>
        <time>2019-10-16T05:44:00Z</time>
      </trkpt>
      <trkpt lat="39.28028" lon="-7.97975">
        <ele>119.706</ele>
        <time>2019-10-16T05:44:20Z</time>
      </trkpt>
      <trkpt lat="39.28031" lon="-7.97972">
        <ele>119.616</ele>
        <time>2019-10-16T05:44:40Z</time>
      </trkpt>
      <trkpt lat="39.28033" lon="-7.9797">
        <ele>119.508</ele>
        <time>2019-10-16T05:45:00Z</time>
      </trkpt>
      <trkpt lat="39.28035" lon="-7.97968">
        <ele>119.49</ele>
        <time>2019-10-16T05:45:20Z</time>
      </trkpt>
      <trkpt lat="39.28039" lon="-7.97965">
        <ele>119.288</ele>
        <time>2019-10-16T05:45:40Z</time>
      </trkpt>
      <trkpt lat="39.28042" lon="-7.97962">
        <ele>119.18</ele>
        <time>2019-10-16T05:46:00Z</time>
      </trkpt>
      <trkpt lat="39.28043" lon="-7.9796">
        <ele>119.14</ele>
        <time>2019-10-16T05:46:20Z</time>
      </trkpt>
      <trkpt lat="39.28045" lon="-7.97958">
        <ele>119.172</ele>
        <time>2019-10-16T05:46:40Z</time>
      </trkpt>
      <trkpt lat="39.28084" lon="-7.97917">
        <ele>118.963</ele>
        <time>2019-10-16T05:47:00Z</time>
      </trkpt>
      <trkpt lat="39.28111" lon="-7.97892">
        <ele>116.815</ele>
        <time>2019-10-16T05:47:20Z</time>
      </trkpt>
      <trkpt lat="39.28116" lon="-7.97884">
        <ele>117.085</ele>
        <time>2019-10-16T05:47:40Z</time>
      </trkpt>
      <trkpt lat="39.2812" lon="-7.97875">
        <ele>117.496</ele>
        <time>2019-10-16T05:48:00Z</time>
      </trkpt>
      <trkpt lat="39.28123" lon="-7.97867">
        <ele>117.731</ele>
        <time>2019-10-16T05:48:20Z</time>
      </trkpt>
      <trkpt lat="39.28127" lon="-7.97862">
        <ele>117.824</ele>
        <time>2019-10-16T05:48:40Z</time>
      </trkpt>
      <trkpt lat="39.2813" lon="-7.9786">
        <ele>117.708</ele>
        <time>2019-10-16T05:49:00Z</time>
      </trkpt>
      <trkpt lat="39.28134" lon="-7.97862">
        <ele>117.373</ele>
        <time>2019-10-16T05:49:20Z</time>
      </trkpt>
      <trkpt lat="39.28136" lon="-7.97866">
        <ele>116.811</ele>
        <time>2019-10-16T05:49:40Z</time>
      </trkpt>
      <trkpt lat="39.28136" lon="-7.97872">
        <ele>116.493</ele>
        <time>2019-10-16T05:50:00Z</time>
      </trkpt>
      <trkpt lat="39.28136" lon="-7.97877">
        <ele>116.013</ele>
        <time>2019-10-16T05:50:20Z</time>
      </trkpt>
      <trkpt lat="39.28137" lon="-7.97881">
        <ele>115.765</ele>
        <time>2019-10-16T05:50:40Z</time>
      </trkpt>
      <trkpt lat="39.28139" lon="-7.97883">
        <ele>115.466</ele>
        <time>2019-10-16T05:51:00Z</time>
      </trkpt>
      <trkpt lat="39.28141" lon="-7.97885">
        <ele>115.328</ele>
        <time>2019-10-16T05:51:20Z</time>
      </trkpt>
      <trkpt lat="39.28143" lon="-7.97886">
        <ele>115.248</ele>
        <time>2019-10-16T05:51:40Z</time>
      </trkpt>
      <trkpt lat="39.2817" lon="-7.97889">
        <ele>115.175</ele>
        <time>2019-10-16T05:52:00Z</time>
      </trkpt>
      <trkpt lat="39.28195" lon="-7.97882">
        <ele>116.428</ele>
        <time>2019-10-16T05:52:20Z</time>
      </trkpt>
      <trkpt lat="39.28201" lon="-7.97883">
        <ele>117.12</ele>
        <time>2019-10-16T05:52:40Z</time>
      </trkpt>
      <trkpt lat="39.28203" lon="-7.97885">
        <ele>117.308</ele>
        <time>2019-10-16T05:53:00Z</time>
      </trkpt>
      <trkpt lat="39.28231" lon="-7.97936">
        <ele>119.921</ele>
        <time>2019-10-16T05:53:20Z</time>
      </trkpt>
      <trkpt lat="39.28234" lon="-7.97941">
        <ele>120.279</ele>
        <time>2019-10-16T05:53:40Z</time>
      </trkpt>
      <trkpt lat="39.28234" lon="-7.97944">
        <ele>120.341</ele>
        <time>2019-10-16T05:54:00Z</time>
      </trkpt>
      <trkpt lat="39.28232" lon="-7.97981">
        <ele>120.831</ele>
        <time>2019-10-16T05:54:20Z</time>
      </trkpt>
      <trkpt lat="39.28242" lon="-7.98046">
        <ele>121.943</ele>
        <time>2019-10-16T05:54:40Z</time>
      </trkpt>
      <trkpt lat="39.28244" lon="-7.98053">
        <ele>122.234</ele>
        <time>2019-10-16T05:55:00Z</time>
      </trkpt>
      <trkpt lat="39.28247" lon="-7.98058">
        <ele>122.696</ele>
        <time>2019-10-16T05:55:20Z</time>
      </trkpt>
      <trkpt lat="39.28251" lon="-7.98062">
        <ele>123.126</ele>
        <time>2019-10-16T05:55:40Z</time>
      </trkpt>
      <trkpt lat="39.28254" lon="-7.98066">
        <ele>123.981</ele>
        <time>2019-10-16T05:56:00Z</time>
      </trkpt>
      <trkpt lat="39.28259" lon="-7.98069">
        <ele>124.961</ele>
        <time>2019-10-16T05:56:20Z</time>
      </trkpt>
      <trkpt lat="39.28264" lon="-7.98071">
        <ele>125.917</ele>
        <time>2019-10-16T05:56:40Z</time>
      </trkpt>
      <trkpt lat="39.28269" lon="-7.98073">
        <ele>127.208</ele>
        <time>2019-10-16T05:57:00Z</time>
      </trkpt>
      <trkpt lat="39.28276" lon="-7.98072">
        <ele>128.582</ele>
        <time>2019-10-16T05:57:20Z</time>
      </trkpt>
      <trkpt lat="39.28282" lon="-7.98071">
        <ele>130.01</ele>
        <time>2019-10-16T05:57:40Z</time>
      </trkpt>
      <trkpt lat="39.28289" lon="-7.98068">
        <ele>131.542</ele>
        <time>2019-10-16T05:58:00Z</time>
      </trkpt>
      <trkpt lat="39.28295" lon="-7.98066">
        <ele>133.092</ele>
        <time>2019-10-16T05:58:20Z</time>
      </trkpt>
      <trkpt lat="39.28302" lon="-7.98064">
        <ele>134.654</ele>
        <time>2019-10-16T05:58:40Z</time>
      </trkpt>
      <trkpt lat="39.2831" lon="-7.98064">
        <ele>135.765</ele>
        <time>2019-10-16T05:59:00Z</time>
      </trkpt>
      <trkpt lat="39.2834" lon="-7.98065">
        <ele>137.577</ele>
        <time>2019-10-16T05:59:20Z</time>
      </trkpt>
      <trkpt lat="39.28347" lon="-7.98064">
        <ele>137.347</ele>
        <time>2019-10-16T05:59:40Z</time>
      </trkpt>
      <trkpt lat="39.28348" lon="-7.98062">
        <ele>137.314</ele>
        <time>2019-10-16T06:00:00Z</time>
      </trkpt>
      <trkpt lat="39.28348" lon="-7.9806">
        <ele>137.454</ele>
        <time>2019-10-16T06:00:20Z</time>
      </trkpt>
      <trkpt lat="39.28347" lon="-7.98058">
        <ele>137.509</ele>
        <time>2019-10-16T06:00:40Z</time>
      </trkpt>
      <trkpt lat="39.28346" lon="-7.98056">
        <ele>137.508</ele>
        <time>2019-10-16T06:01:00Z</time>
      </trkpt>
      <trkpt lat="39.28345" lon="-7.98054">
        <ele>137.635</ele>
        <time>2019-10-16T06:01:20Z</time>
      </trkpt>
      <trkpt lat="39.28346" lon="-7.98053">
        <ele>137.643</ele>
        <time>2019-10-16T06:01:40Z</time>
      </trkpt>
      <trkpt lat="39.28332" lon="-7.9804">
        <ele>137.995</ele>
        <time>2019-10-16T06:02:00Z</time>
      </trkpt>
      <trkpt lat="39.2832" lon="-7.98028">
        <ele>136.055</ele>
        <time>2019-10-16T06:02:20Z</time>
      </trkpt>
      <trkpt lat="39.28314" lon="-7.98022">
        <ele>135.217</ele>
        <time>2019-10-16T06:02:40Z</time>
      </trkpt>
      <trkpt lat="39.28301" lon="-7.98004">
        <ele>133.338</ele>
        <time>2019-10-16T06:03:00Z</time>
      </trkpt>
      <trkpt lat="39.28299" lon="-7.97999">
        <ele>133.14</ele>
        <time>2019-10-16T06:03:20Z</time>
      </trkpt>
      <trkpt lat="39.28299" lon="-7.97994">
        <ele>133.01</ele>
        <time>2019-10-16T06:03:40Z</time>
      </trkpt>
      <trkpt lat="39.283" lon="-7.97989">
        <ele>133.254</ele>
        <time>2019-10-16T06:04:00Z</time>
      </trkpt>
      <trkpt lat="39.28304" lon="-7.97983">
        <ele>133.756</ele>
        <time>2019-10-16T06:04:20Z</time>
      </trkpt>
      <trkpt lat="39.28354" lon="-7.97952">
        <ele>137.611</ele>
        <time>2019-10-16T06:04:40Z</time>
      </trkpt>
      <trkpt lat="39.2837" lon="-7.97941">
        <ele>138.008</ele>
        <time>2019-10-16T06:05:00Z</time>
      </trkpt>
      <trkpt lat="39.28384" lon="-7.97924">
        <ele>138.019</ele>
        <time>2019-10-16T06:05:20Z</time>
      </trkpt>
      <trkpt lat="39.28402" lon="-7.97872">
        <ele>136.847</ele>
        <time>2019-10-16T06:05:40Z</time>
      </trkpt>
      <trkpt lat="39.28405" lon="-7.9785">
        <ele>135.529</ele>
        <time>2019-10-16T06:06:00Z</time>
      </trkpt>
      <trkpt lat="39.28405" lon="-7.97829">
        <ele>134.369</ele>
        <time>2019-10-16T06:06:20Z</time>
      </trkpt>
      <trkpt lat="39.28412" lon="-7.97803">
        <ele>133.181</ele>
        <time>2019-10-16T06:06:40Z</time>
      </trkpt>
      <trkpt lat="39.28495" lon="-7.97763">
        <ele>135.012</ele>
        <time>2019-10-16T06:07:00Z</time>
      </trkpt>
      <trkpt lat="39.28578" lon="-7.97731">
        <ele>135.584</ele>
        <time>2019-10-16T06:07:20Z</time>
      </trkpt>
      <trkpt lat="39.28679" lon="-7.9771">
        <ele>135.634</ele>
        <time>2019-10-16T06:07:40Z</time>
      </trkpt>
      <trkpt lat="39.2873" lon="-7.97692">
        <ele>138.827</ele>
        <time>2019-10-16T06:08:00Z</time>
      </trkpt>
      <trkpt lat="39.28765" lon="-7.97686">
        <ele>137.668</ele>
        <time>2019-10-16T06:08:20Z</time>
      </trkpt>
      <trkpt lat="39.289" lon="-7.97657">
        <ele>137.614</ele>
        <time>2019-10-16T06:08:40Z</time>
      </trkpt>
      <trkpt lat="39.2896" lon="-7.97641">
        <ele>135.808</ele>
        <time>2019-10-16T06:09:00Z</time>
      </trkpt>
      <trkpt lat="39.29018" lon="-7.97669">
        <ele>135.756</ele>
        <time>2019-10-16T06:09:20Z</time>
      </trkpt>
      <trkpt lat="39.29043" lon="-7.97673">
        <ele>136.494</ele>
        <time>2019-10-16T06:09:40Z</time>
      </trkpt>
      <trkpt lat="39.29065" lon="-7.97668">
        <ele>136.656</ele>
        <time>2019-10-16T06:10:00Z</time>
      </trkpt>
      <trkpt lat="39.2907" lon="-7.97671">
        <ele>136.496</ele>
        <time>2019-10-16T06:10:20Z</time>
      </trkpt>
      <trkpt lat="39.29073" lon="-7.97676">
        <ele>136.258</ele>
        <time>2019-10-16T06:10:40Z</time>
      </trkpt>
      <trkpt lat="39.29076" lon="-7.97685">
        <ele>136.199</ele>
        <time>2019-10-16T06:11:00Z</time>
      </trkpt>
      <trkpt lat="39.29079" lon="-7.97695">
        <ele>136.081</ele>
        <time>2019-10-16T06:11:20Z</time>
      </trkpt>
      <trkpt lat="39.29081" lon="-7.97706">
        <ele>135.241</ele>
        <time>2019-10-16T06:11:40Z</time>
      </trkpt>
      <trkpt lat="39.29083" lon="-7.97717">
        <ele>134.465</ele>
        <time>2019-10-16T06:12:00Z</time>
      </trkpt>
      <trkpt lat="39.29093" lon="-7.97778">
        <ele>136.068</ele>
        <time>2019-10-16T06:12:20Z</time>
      </trkpt>
      <trkpt lat="39.29097" lon="-7.97784">
        <ele>136.314</ele>
        <time>2019-10-16T06:12:40Z</time>
      </trkpt>
      <trkpt lat="39.29103" lon="-7.97787">
        <ele>136.608</ele>
        <time>2019-10-16T06:13:00Z</time>
      </trkpt>
      <trkpt lat="39.2911" lon="-7.97789">
        <ele>136.81</ele>
        <time>2019-10-16T06:13:20Z</time>
      </trkpt>
      <trkpt lat="39.29117" lon="-7.97788">
        <ele>137.058</ele>
        <time>2019-10-16T06:13:40Z</time>
      </trkpt>
      <trkpt lat="39.29124" lon="-7.97788">
        <ele>137.25</ele>
        <time>2019-10-16T06:14:00Z</time>
      </trkpt>
      <trkpt lat="39.29131" lon="-7.97788">
        <ele>137.58</ele>
        <time>2019-10-16T06:14:20Z</time>
      </trkpt>
      <trkpt lat="39.29138" lon="-7.9779">
        <ele>137.972</ele>
        <time>2019-10-16T06:14:40Z</time>
      </trkpt>
      <trkpt lat="39.29147" lon="-7.97793">
        <ele>138.163</ele>
        <time>2019-10-16T06:15:00Z</time>
      </trkpt>
      <trkpt lat="39.29156" lon="-7.97797">
        <ele>138.435</ele>
        <time>2019-10-16T06:15:20Z</time>
      </trkpt>
      <trkpt lat="39.29174" lon="-7.97809">
        <ele>138.975</ele>
        <time>2019-10-16T06:15:40Z</time>
      </trkpt>
      <trkpt lat="39.29218" lon="-7.9785">
        <ele>137.556</ele>
        <time>2019-10-16T06:16:00Z</time>
      </trkpt>
      <trkpt lat="39.29259" lon="-7.97908">
        <ele>137.559</ele>
        <time>2019-10-16T06:16:20Z</time>
      </trkpt>
      <trkpt lat="39.29339" lon="-7.97994">
        <ele>137.714</ele>
        <time>2019-10-16T06:16:40Z</time>
      </trkpt>
      <trkpt lat="39.29365" lon="-7.98019">
        <ele>138.008</ele>
        <time>2019-10-16T06:17:00Z</time>
      </trkpt>
      <trkpt lat="39.29374" lon="-7.98025">
        <ele>138.979</ele>
        <time>2019-10-16T06:17:20Z</time>
      </trkpt>
      <trkpt lat="39.29383" lon="-7.9803">
        <ele>139.697</ele>
        <time>2019-10-16T06:17:40Z</time>
      </trkpt>
      <trkpt lat="39.29393" lon="-7.98034">
        <ele>140.459</ele>
        <time>2019-10-16T06:18:00Z</time>
      </trkpt>
      <trkpt lat="39.29403" lon="-7.98036">
        <ele>141.529</ele>
        <time>2019-10-16T06:18:20Z</time>
      </trkpt>
      <trkpt lat="39.29412" lon="-7.98036">
        <ele>142.591</ele>
        <time>2019-10-16T06:18:40Z</time>
      </trkpt>
      <trkpt lat="39.29421" lon="-7.98035">
        <ele>143.072</ele>
        <time>2019-10-16T06:19:00Z</time>
      </trkpt>
      <trkpt lat="39.29428" lon="-7.98034">
        <ele>143.074</ele>
        <time>2019-10-16T06:19:20Z</time>
      </trkpt>
      <trkpt lat="39.29445" lon="-7.98031">
        <ele>143.084</ele>
        <time>2019-10-16T06:19:40Z</time>
      </trkpt>
      <trkpt lat="39.29449" lon="-7.98031">
        <ele>142.869</ele>
        <time>2019-10-16T06:20:00Z</time>
      </trkpt>
      <trkpt lat="39.29452" lon="-7.98032">
        <ele>142.704</ele>
        <time>2019-10-16T06:20:20Z</time>
      </trkpt>
      <trkpt lat="39.29461" lon="-7.98038">
        <ele>142.424</ele>
        <time>2019-10-16T06:20:40Z</time>
      </trkpt>
      <trkpt lat="39.29465" lon="-7.98039">
        <ele>142.208</ele>
        <time>2019-10-16T06:21:00Z</time>
      </trkpt>
      <trkpt lat="39.29471" lon="-7.98038">
        <ele>142.14</ele>
        <time>2019-10-16T06:21:20Z</time>
      </trkpt>
      <trkpt lat="39.29496" lon="-7.98018">
        <ele>140.858</ele>
        <time>2019-10-16T06:21:40Z</time>
      </trkpt>
      <trkpt lat="39.29508" lon="-7.98001">
        <ele>140.64</ele>
        <time>2019-10-16T06:22:00Z</time>
      </trkpt>
      <trkpt lat="39.29534" lon="-7.97975">
        <ele>141.54</ele>
        <time>2019-10-16T06:22:20Z</time>
      </trkpt>
      <trkpt lat="39.29584" lon="-7.9796">
        <ele>143.152</ele>
        <time>2019-10-16T06:22:40Z</time>
      </trkpt>
      <trkpt lat="39.29603" lon="-7.9796">
        <ele>143.483</ele>
        <time>2019-10-16T06:23:00Z</time>
      </trkpt>
      <trkpt lat="39.2964" lon="-7.97942">
        <ele>143.135</ele>
        <time>2019-10-16T06:23:20Z</time>
      </trkpt>
      <trkpt lat="39.29654" lon="-7.97926">
        <ele>143.585</ele>
        <time>2019-10-16T06:23:40Z</time>
      </trkpt>
      <trkpt lat="39.29668" lon="-7.97909">
        <ele>143.578</ele>
        <time>2019-10-16T06:24:00Z</time>
      </trkpt>
      <trkpt lat="39.29706" lon="-7.97854">
        <ele>145.433</ele>
        <time>2019-10-16T06:24:20Z</time>
      </trkpt>
      <trkpt lat="39.29731" lon="-7.97834">
        <ele>146.026</ele>
        <time>2019-10-16T06:24:40Z</time>
      </trkpt>
      <trkpt lat="39.2975" lon="-7.97825">
        <ele>145.708</ele>
        <time>2019-10-16T06:25:00Z</time>
      </trkpt>
      <trkpt lat="39.29769" lon="-7.97784">
        <ele>145.341</ele>
        <time>2019-10-16T06:25:20Z</time>
      </trkpt>
      <trkpt lat="39.29774" lon="-7.97741">
        <ele>147.799</ele>
        <time>2019-10-16T06:25:40Z</time>
      </trkpt>
      <trkpt lat="39.29775" lon="-7.97704">
        <ele>147.291</ele>
        <time>2019-10-16T06:26:00Z</time>
      </trkpt>
      <trkpt lat="39.29791" lon="-7.97665">
        <ele>144.511</ele>
        <time>2019-10-16T06:26:20Z</time>
      </trkpt>
      <trkpt lat="39.29788" lon="-7.97627">
        <ele>145.173</ele>
        <time>2019-10-16T06:26:40Z</time>
      </trkpt>
      <trkpt lat="39.29783" lon="-7.97621">
        <ele>145.484</ele>
        <time>2019-10-16T06:27:00Z</time>
      </trkpt>
      <trkpt lat="39.29775" lon="-7.97619">
        <ele>145.366</ele>
        <time>2019-10-16T06:27:20Z</time>
      </trkpt>
      <trkpt lat="39.29739" lon="-7.97567">
        <ele>145.056</ele>
        <time>2019-10-16T06:27:40Z</time>
      </trkpt>
      <trkpt lat="39.29725" lon="-7.97541">
        <ele>143.697</ele>
        <time>2019-10-16T06:28:00Z</time>
      </trkpt>
      <trkpt lat="39.29735" lon="-7.97474">
        <ele>142.523</ele>
        <time>2019-10-16T06:28:20Z</time>
      </trkpt>
      <trkpt lat="39.29746" lon="-7.97467">
        <ele>142.525</ele>
        <time>2019-10-16T06:28:40Z</time>
      </trkpt>
      <trkpt lat="39.29776" lon="-7.97419">
        <ele>138.308</ele>
        <time>2019-10-16T06:29:00Z</time>
      </trkpt>
      <trkpt lat="39.29756" lon="-7.97393">
        <ele>136.323</ele>
        <time>2019-10-16T06:29:20Z</time>
      </trkpt>
      <trkpt lat="39.29726" lon="-7.9737">
        <ele>134.421</ele>
        <time>2019-10-16T06:29:40Z</time>
      </trkpt>
      <trkpt lat="39.29707" lon="-7.97337">
        <ele>133.123</ele>
        <time>2019-10-16T06:30:00Z</time>
      </trkpt>
      <trkpt lat="39.29707" lon="-7.9731">
        <ele>133.343</ele>
        <time>2019-10-16T06:30:20Z</time>
      </trkpt>
      <trkpt lat="39.297" lon="-7.97249">
        <ele>132.895</ele>
        <time>2019-10-16T06:30:40Z</time>
      </trkpt>
      <trkpt lat="39.297" lon="-7.97198">
        <ele>133.596</ele>
        <time>2019-10-16T06:31:00Z</time>
      </trkpt>
      <trkpt lat="39.29699" lon="-7.97111">
        <ele>135.818</ele>
        <time>2019-10-16T06:31:20Z</time>
      </trkpt>
      <trkpt lat="39.29699" lon="-7.97066">
        <ele>133.958</ele>
        <time>2019-10-16T06:31:40Z</time>
      </trkpt>
      <trkpt lat="39.29702" lon="-7.97052">
        <ele>133.424</ele>
        <time>2019-10-16T06:32:00Z</time>
      </trkpt>
      <trkpt lat="39.29707" lon="-7.97025">
        <ele>133.804</ele>
        <time>2019-10-16T06:32:20Z</time>
      </trkpt>
      <trkpt lat="39.29708" lon="-7.97012">
        <ele>134.214</ele>
        <time>2019-10-16T06:32:40Z</time>
      </trkpt>
      <trkpt lat="39.29707" lon="-7.96932">
        <ele>135.308</ele>
        <time>2019-10-16T06:33:00Z</time>
      </trkpt>
      <trkpt lat="39.29709" lon="-7.96919">
        <ele>135.596</ele>
        <time>2019-10-16T06:33:20Z</time>
      </trkpt>
      <trkpt lat="39.2972" lon="-7.96839">
        <ele>135.924</ele>
        <time>2019-10-16T06:33:40Z</time>
      </trkpt>
      <trkpt lat="39.29723" lon="-7.96825">
        <ele>135.946</ele>
        <time>2019-10-16T06:34:00Z</time>
      </trkpt>
      <trkpt lat="39.29728" lon="-7.96813">
        <ele>136.346</ele>
        <time>2019-10-16T06:34:20Z</time>
      </trkpt>
      <trkpt lat="39.29733" lon="-7.96803">
        <ele>136.818</ele>
        <time>2019-10-16T06:34:40Z</time>
      </trkpt>
      <trkpt lat="39.29739" lon="-7.96793">
        <ele>137.319</ele>
        <time>2019-10-16T06:35:00Z</time>
      </trkpt>
      <trkpt lat="39.29744" lon="-7.96781">
        <ele>137.411</ele>
        <time>2019-10-16T06:35:20Z</time>
      </trkpt>
      <trkpt lat="39.29748" lon="-7.96767">
        <ele>137.351</ele>
        <time>2019-10-16T06:35:40Z</time>
      </trkpt>
      <trkpt lat="39.29751" lon="-7.96751">
        <ele>137.241</ele>
        <time>2019-10-16T06:36:00Z</time>
      </trkpt>
      <trkpt lat="39.29755" lon="-7.96736">
        <ele>137.381</ele>
        <time>2019-10-16T06:36:20Z</time>
      </trkpt>
      <trkpt lat="39.2976" lon="-7.96721">
        <ele>137.409</ele>
        <time>2019-10-16T06:36:40Z</time>
      </trkpt>
      <trkpt lat="39.29767" lon="-7.96705">
        <ele>138.008</ele>
        <time>2019-10-16T06:37:00Z</time>
      </trkpt>
      <trkpt lat="39.29787" lon="-7.96659">
        <ele>138.888</ele>
        <time>2019-10-16T06:37:20Z</time>
      </trkpt>
      <trkpt lat="39.29792" lon="-7.96644">
        <ele>138.776</ele>
        <time>2019-10-16T06:37:40Z</time>
      </trkpt>
      <trkpt lat="39.29794" lon="-7.96628">
        <ele>138.228</ele>
        <time>2019-10-16T06:38:00Z</time>
      </trkpt>
      <trkpt lat="39.29797" lon="-7.96613">
        <ele>137.568</ele>
        <time>2019-10-16T06:38:20Z</time>
      </trkpt>
      <trkpt lat="39.298" lon="-7.96599">
        <ele>136.78</ele>
        <time>2019-10-16T06:38:40Z</time>
      </trkpt>
      <trkpt lat="39.29806" lon="-7.96586">
        <ele>136.211</ele>
        <time>2019-10-16T06:39:00Z</time>
      </trkpt>
      <trkpt lat="39.29813" lon="-7.96575">
        <ele>136.693</ele>
        <time>2019-10-16T06:39:20Z</time>
      </trkpt>
      <trkpt lat="39.29823" lon="-7.96563">
        <ele>137.613</ele>
        <time>2019-10-16T06:39:40Z</time>
      </trkpt>
      <trkpt lat="39.29833" lon="-7.96551">
        <ele>139.111</ele>
        <time>2019-10-16T06:40:00Z</time>
      </trkpt>
      <trkpt lat="39.29907" lon="-7.96462">
        <ele>140.121</ele>
        <time>2019-10-16T06:40:20Z</time>
      </trkpt>
      <trkpt lat="39.29916" lon="-7.96454">
        <ele>139.903</ele>
        <time>2019-10-16T06:40:40Z</time>
      </trkpt>
      <trkpt lat="39.29926" lon="-7.96448">
        <ele>141.008</ele>
        <time>2019-10-16T06:41:00Z</time>
      </trkpt>
      <trkpt lat="39.29937" lon="-7.96446">
        <ele>142.715</ele>
        <time>2019-10-16T06:41:20Z</time>
      </trkpt>
      <trkpt lat="39.29948" lon="-7.96445">
        <ele>144.373</ele>
        <time>2019-10-16T06:41:40Z</time>
      </trkpt>
      <trkpt lat="39.2996" lon="-7.96445">
        <ele>145.175</ele>
        <time>2019-10-16T06:42:00Z</time>
      </trkpt>
      <trkpt lat="39.29971" lon="-7.96446">
        <ele>146.015</ele>
        <time>2019-10-16T06:42:20Z</time>
      </trkpt>
      <trkpt lat="39.30005" lon="-7.96444">
        <ele>147.037</ele>
        <time>2019-10-16T06:42:40Z</time>
      </trkpt>
      <trkpt lat="39.30026" lon="-7.96445">
        <ele>147.048</ele>
        <time>2019-10-16T06:43:00Z</time>
      </trkpt>
      <trkpt lat="39.30036" lon="-7.96443">
        <ele>147.25</ele>
        <time>2019-10-16T06:43:20Z</time>
      </trkpt>
      <trkpt lat="39.30065" lon="-7.96436">
        <ele>146.47</ele>
        <time>2019-10-16T06:43:40Z</time>
      </trkpt>
      <trkpt lat="39.3008" lon="-7.96428">
        <ele>144.588</ele>
        <time>2019-10-16T06:44:00Z</time>
      </trkpt>
      <trkpt lat="39.30087" lon="-7.96423">
        <ele>143.524</ele>
        <time>2019-10-16T06:44:20Z</time>
      </trkpt>
      <trkpt lat="39.30093" lon="-7.96416">
        <ele>142.626</ele>
        <time>2019-10-16T06:44:40Z</time>
      </trkpt>
      <trkpt lat="39.30101" lon="-7.96409">
        <ele>141.808</ele>
        <time>2019-10-16T06:45:00Z</time>
      </trkpt>
      <trkpt lat="39.30111" lon="-7.96404">
        <ele>141.132</ele>
        <time>2019-10-16T06:45:20Z</time>
      </trkpt>
      <trkpt lat="39.30122" lon="-7.964">
        <ele>140.05</ele>
        <time>2019-10-16T06:45:40Z</time>
      </trkpt>
      <trkpt lat="39.30132" lon="-7.96397">
        <ele>139.062</ele>
        <time>2019-10-16T06:46:00Z</time>
      </trkpt>
      <trkpt lat="39.3014" lon="-7.96391">
        <ele>138.242</ele>
        <time>2019-10-16T06:46:20Z</time>
      </trkpt>
      <trkpt lat="39.30147" lon="-7.96384">
        <ele>137.624</ele>
        <time>2019-10-16T06:46:40Z</time>
      </trkpt>
      <trkpt lat="39.30153" lon="-7.96374">
        <ele>136.975</ele>
        <time>2019-10-16T06:47:00Z</time>
      </trkpt>
      <trkpt lat="39.30159" lon="-7.96364">
        <ele>136.237</ele>
        <time>2019-10-16T06:47:20Z</time>
      </trkpt>
      <trkpt lat="39.3017" lon="-7.96345">
        <ele>134.817</ele>
        <time>2019-10-16T06:47:40Z</time>
      </trkpt>
      <trkpt lat="39.30178" lon="-7.96338">
        <ele>135.164</ele>
        <time>2019-10-16T06:48:00Z</time>
      </trkpt>
      <trkpt lat="39.30186" lon="-7.96332">
        <ele>135.606</ele>
        <time>2019-10-16T06:48:20Z</time>
      </trkpt>
      <trkpt lat="39.30193" lon="-7.96328">
        <ele>135.916</ele>
        <time>2019-10-16T06:48:40Z</time>
      </trkpt>
      <trkpt lat="39.302" lon="-7.96325">
        <ele>135.808</ele>
        <time>2019-10-16T06:49:00Z</time>
      </trkpt>
      <trkpt lat="39.30208" lon="-7.96323">
        <ele>136.05</ele>
        <time>2019-10-16T06:49:20Z</time>
      </trkpt>
      <trkpt lat="39.30217" lon="-7.96322">
        <ele>136.358</ele>
        <time>2019-10-16T06:49:40Z</time>
      </trkpt>
      <trkpt lat="39.30227" lon="-7.96323">
        <ele>136.58</ele>
        <time>2019-10-16T06:50:00Z</time>
      </trkpt>
      <trkpt lat="39.30238" lon="-7.96324">
        <ele>136.29</ele>
        <time>2019-10-16T06:50:20Z</time>
      </trkpt>
      <trkpt lat="39.30261" lon="-7.96325">
        <ele>135.472</ele>
        <time>2019-10-16T06:50:40Z</time>
      </trkpt>
      <trkpt lat="39.30273" lon="-7.96323">
        <ele>134.783</ele>
        <time>2019-10-16T06:51:00Z</time>
      </trkpt>
      <trkpt lat="39.30344" lon="-7.96306">
        <ele>132.665</ele>
        <time>2019-10-16T06:51:20Z</time>
      </trkpt>
      <trkpt lat="39.30369" lon="-7.96296">
        <ele>131.725</ele>
        <time>2019-10-16T06:51:40Z</time>
      </trkpt>
      <trkpt lat="39.30381" lon="-7.96289">
        <ele>132.123</ele>
        <time>2019-10-16T06:52:00Z</time>
      </trkpt>
      <trkpt lat="39.30394" lon="-7.9628">
        <ele>133.183</ele>
        <time>2019-10-16T06:52:20Z</time>
      </trkpt>
      <trkpt lat="39.30432" lon="-7.96246">
        <ele>137.911</ele>
        <time>2019-10-16T06:52:40Z</time>
      </trkpt>
      <trkpt lat="39.30525" lon="-7.96128">
        <ele>136.408</ele>
        <time>2019-10-16T06:53:00Z</time>
      </trkpt>
      <trkpt lat="39.30625" lon="-7.96007">
        <ele>135.576</ele>
        <time>2019-10-16T06:53:20Z</time>
      </trkpt>
      <trkpt lat="39.30646" lon="-7.95992">
        <ele>135.444</ele>
        <time>2019-10-16T06:53:40Z</time>
      </trkpt>
      <trkpt lat="39.30665" lon="-7.95981">
        <ele>135.926</ele>
        <time>2019-10-16T06:54:00Z</time>
      </trkpt>
      <trkpt lat="39.30673" lon="-7.95974">
        <ele>136.246</ele>
        <time>2019-10-16T06:54:20Z</time>
      </trkpt>
      <trkpt lat="39.3068" lon="-7.95964">
        <ele>136.568</ele>
        <time>2019-10-16T06:54:40Z</time>
      </trkpt>
      <trkpt lat="39.30687" lon="-7.95953">
        <ele>136.489</ele>
        <time>2019-10-16T06:55:00Z</time>
      </trkpt>
      <trkpt lat="39.30693" lon="-7.9594">
        <ele>135.771</ele>
        <time>2019-10-16T06:55:20Z</time>
      </trkpt>
      <trkpt lat="39.3074" lon="-7.9585">
        <ele>132.081</ele>
        <time>2019-10-16T06:55:40Z</time>
      </trkpt>
      <trkpt lat="39.30799" lon="-7.95763">
        <ele>141.369</ele>
        <time>2019-10-16T06:56:00Z</time>
      </trkpt>
      <trkpt lat="39.30858" lon="-7.95662">
        <ele>140.404</ele>
        <time>2019-10-16T06:56:20Z</time>
      </trkpt>
      <trkpt lat="39.30925" lon="-7.95517">
        <ele>139.924</ele>
        <time>2019-10-16T06:56:40Z</time>
      </trkpt>
      <trkpt lat="39.30988" lon="-7.95393">
        <ele>139.408</ele>
        <time>2019-10-16T06:57:00Z</time>
      </trkpt>
      <trkpt lat="39.31003" lon="-7.95365">
        <ele>137.09</ele>
        <time>2019-10-16T06:57:20Z</time>
      </trkpt>
      <trkpt lat="39.31009" lon="-7.95352">
        <ele>136.888</ele>
        <time>2019-10-16T06:57:40Z</time>
      </trkpt>
      <trkpt lat="39.31012" lon="-7.9534">
        <ele>137.03</ele>
        <time>2019-10-16T06:58:00Z</time>
      </trkpt>
      <trkpt lat="39.31014" lon="-7.95328">
        <ele>137.12</ele>
        <time>2019-10-16T06:58:20Z</time>
      </trkpt>
      <trkpt lat="39.31014" lon="-7.95313">
        <ele>137.462</ele>
        <time>2019-10-16T06:58:40Z</time>
      </trkpt>
      <trkpt lat="39.31015" lon="-7.95299">
        <ele>137.913</ele>
        <time>2019-10-16T06:59:00Z</time>
      </trkpt>
      <trkpt lat="39.31018" lon="-7.95284">
        <ele>138.825</ele>
        <time>2019-10-16T06:59:20Z</time>
      </trkpt>
      <trkpt lat="39.31024" lon="-7.95268">
        <ele>139.665</ele>
        <time>2019-10-16T06:59:40Z</time>
      </trkpt>
      <trkpt lat="39.31078" lon="-7.95129">
        <ele>141.669</ele>
        <time>2019-10-16T07:00:00Z</time>
      </trkpt>
      <trkpt lat="39.31145" lon="-7.95023">
        <ele>142.704</ele>
        <time>2019-10-16T07:00:20Z</time>
      </trkpt>
      <trkpt lat="39.31153" lon="-7.95009">
        <ele>142.024</ele>
        <time>2019-10-16T07:00:40Z</time>
      </trkpt>
      <trkpt lat="39.3116" lon="-7.94994">
        <ele>141.208</ele>
        <time>2019-10-16T07:01:00Z</time>
      </trkpt>
      <trkpt lat="39.31166" lon="-7.94977">
        <ele>139.55</ele>
        <time>2019-10-16T07:01:20Z</time>
      </trkpt>
      <trkpt lat="39.31183" lon="-7.94922">
        <ele>135.678</ele>
        <time>2019-10-16T07:01:40Z</time>
      </trkpt>
      <trkpt lat="39.31223" lon="-7.94798">
        <ele>135.09</ele>
        <time>2019-10-16T07:02:00Z</time>
      </trkpt>
      <trkpt lat="39.31243" lon="-7.94741">
        <ele>133.58</ele>
        <time>2019-10-16T07:02:20Z</time>
      </trkpt>
      <trkpt lat="39.31319" lon="-7.94549">
        <ele>140.872</ele>
        <time>2019-10-16T07:02:40Z</time>
      </trkpt>
      <trkpt lat="39.31366" lon="-7.94441">
        <ele>140.233</ele>
        <time>2019-10-16T07:03:00Z</time>
      </trkpt>
      <trkpt lat="39.31432" lon="-7.94285">
        <ele>145.685</ele>
        <time>2019-10-16T07:03:20Z</time>
      </trkpt>
      <trkpt lat="39.31462" lon="-7.94137">
        <ele>142.185</ele>
        <time>2019-10-16T07:03:40Z</time>
      </trkpt>
      <trkpt lat="39.31467" lon="-7.94122">
        <ele>142.015</ele>
        <time>2019-10-16T07:04:00Z</time>
      </trkpt>
      <trkpt lat="39.31473" lon="-7.94107">
        <ele>141.965</ele>
        <time>2019-10-16T07:04:20Z</time>
      </trkpt>
      <trkpt lat="39.31519" lon="-7.94013">
        <ele>139.911</ele>
        <time>2019-10-16T07:04:40Z</time>
      </trkpt>
      <trkpt lat="39.31594" lon="-7.93864">
        <ele>146.208</ele>
        <time>2019-10-16T07:05:00Z</time>
      </trkpt>
      <trkpt lat="39.31602" lon="-7.93854">
        <ele>146.125</ele>
        <time>2019-10-16T07:05:20Z</time>
      </trkpt>
      <trkpt lat="39.31612" lon="-7.93846">
        <ele>145.973</ele>
        <time>2019-10-16T07:05:40Z</time>
      </trkpt>
      <trkpt lat="39.31674" lon="-7.93805">
        <ele>145.675</ele>
        <time>2019-10-16T07:06:00Z</time>
      </trkpt>
      <trkpt lat="39.31681" lon="-7.93795">
        <ele>146.865</ele>
        <time>2019-10-16T07:06:20Z</time>
      </trkpt>
      <trkpt lat="39.31687" lon="-7.93784">
        <ele>147.327</ele>
        <time>2019-10-16T07:06:40Z</time>
      </trkpt>
      <trkpt lat="39.31692" lon="-7.93771">
        <ele>147.628</ele>
        <time>2019-10-16T07:07:00Z</time>
      </trkpt>
      <trkpt lat="39.31695" lon="-7.93757">
        <ele>148.18</ele>
        <time>2019-10-16T07:07:20Z</time>
      </trkpt>
      <trkpt lat="39.31698" lon="-7.93741">
        <ele>148.58</ele>
        <time>2019-10-16T07:07:40Z</time>
      </trkpt>
      <trkpt lat="39.31707" lon="-7.93692">
        <ele>149.131</ele>
        <time>2019-10-16T07:08:00Z</time>
      </trkpt>
      <trkpt lat="39.31713" lon="-7.9366">
        <ele>147.961</ele>
        <time>2019-10-16T07:08:20Z</time>
      </trkpt>
      <trkpt lat="39.31713" lon="-7.93645">
        <ele>147.107</ele>
        <time>2019-10-16T07:08:40Z</time>
      </trkpt>
      <trkpt lat="39.31706" lon="-7.93521">
        <ele>143.008</ele>
        <time>2019-10-16T07:09:00Z</time>
      </trkpt>
      <trkpt lat="39.31708" lon="-7.93382">
        <ele>141.737</ele>
        <time>2019-10-16T07:09:20Z</time>
      </trkpt>
      <trkpt lat="39.31708" lon="-7.93353">
        <ele>144.725</ele>
        <time>2019-10-16T07:09:40Z</time>
      </trkpt>
      <trkpt lat="39.31706" lon="-7.93339">
        <ele>145.937</ele>
        <time>2019-10-16T07:10:00Z</time>
      </trkpt>
      <trkpt lat="39.31702" lon="-7.93325">
        <ele>146.627</ele>
        <time>2019-10-16T07:10:20Z</time>
      </trkpt>
      <trkpt lat="39.31697" lon="-7.93311">
        <ele>146.919</ele>
        <time>2019-10-16T07:10:40Z</time>
      </trkpt>
      <trkpt lat="39.31692" lon="-7.93296">
        <ele>146.92</ele>
        <time>2019-10-16T07:11:00Z</time>
      </trkpt>
      <trkpt lat="39.31643" lon="-7.93152">
        <ele>146.122</ele>
        <time>2019-10-16T07:11:20Z</time>
      </trkpt>
      <trkpt lat="39.31631" lon="-7.93033">
        <ele>143.262</ele>
        <time>2019-10-16T07:11:40Z</time>
      </trkpt>
      <trkpt lat="39.31643" lon="-7.92894">
        <ele>138.895</ele>
        <time>2019-10-16T07:12:00Z</time>
      </trkpt>
      <trkpt lat="39.31645" lon="-7.92879">
        <ele>139.149</ele>
        <time>2019-10-16T07:12:20Z</time>
      </trkpt>
      <trkpt lat="39.31645" lon="-7.92864">
        <ele>139.623</ele>
        <time>2019-10-16T07:12:40Z</time>
      </trkpt>
      <trkpt lat="39.31645" lon="-7.92849">
        <ele>140.208</ele>
        <time>2019-10-16T07:13:00Z</time>
      </trkpt>
      <trkpt lat="39.31646" lon="-7.92833">
        <ele>141.093</ele>
        <time>2019-10-16T07:13:20Z</time>
      </trkpt>
      <trkpt lat="39.31648" lon="-7.92817">
        <ele>140.941</ele>
        <time>2019-10-16T07:13:40Z</time>
      </trkpt>
      <trkpt lat="39.31682" lon="-7.927">
        <ele>142.263</ele>
        <time>2019-10-16T07:14:00Z</time>
      </trkpt>
      <trkpt lat="39.31721" lon="-7.92636">
        <ele>141.743</ele>
        <time>2019-10-16T07:14:20Z</time>
      </trkpt>
      <trkpt lat="39.31727" lon="-7.92622">
        <ele>142.075</ele>
        <time>2019-10-16T07:14:40Z</time>
      </trkpt>
      <trkpt lat="39.31755" lon="-7.92531">
        <ele>142.936</ele>
        <time>2019-10-16T07:15:00Z</time>
      </trkpt>
      <trkpt lat="39.31758" lon="-7.92516">
        <ele>143.448</ele>
        <time>2019-10-16T07:15:20Z</time>
      </trkpt>
      <trkpt lat="39.31761" lon="-7.925">
        <ele>144.098</ele>
        <time>2019-10-16T07:15:40Z</time>
      </trkpt>
      <trkpt lat="39.31765" lon="-7.92484">
        <ele>144.169</ele>
        <time>2019-10-16T07:16:00Z</time>
      </trkpt>
      <trkpt lat="39.31771" lon="-7.92467">
        <ele>144.604</ele>
        <time>2019-10-16T07:16:20Z</time>
      </trkpt>
      <trkpt lat="39.31776" lon="-7.92452">
        <ele>145.024</ele>
        <time>2019-10-16T07:16:40Z</time>
      </trkpt>
      <trkpt lat="39.31792" lon="-7.92411">
        <ele>144.908</ele>
        <time>2019-10-16T07:17:00Z</time>
      </trkpt>
      <trkpt lat="39.318" lon="-7.92397">
        <ele>145.01</ele>
        <time>2019-10-16T07:17:20Z</time>
      </trkpt>
      <trkpt lat="39.31886" lon="-7.92254">
        <ele>137.868</ele>
        <time>2019-10-16T07:17:40Z</time>
      </trkpt>
      <trkpt lat="39.31915" lon="-7.92212">
        <ele>140.12</ele>
        <time>2019-10-16T07:18:00Z</time>
      </trkpt>
      <trkpt lat="39.31962" lon="-7.92161">
        <ele>138.69</ele>
        <time>2019-10-16T07:18:20Z</time>
      </trkpt>
      <trkpt lat="39.31974" lon="-7.9215">
        <ele>137.812</ele>
        <time>2019-10-16T07:18:40Z</time>
      </trkpt>
      <trkpt lat="39.32069" lon="-7.92063">
        <ele>139.033</ele>
        <time>2019-10-16T07:19:00Z</time>
      </trkpt>
      <trkpt lat="39.32214" lon="-7.91937">
        <ele>138.465</ele>
        <time>2019-10-16T07:19:20Z</time>
      </trkpt>
      <trkpt lat="39.32226" lon="-7.91931">
        <ele>138.265</ele>
        <time>2019-10-16T07:19:40Z</time>
      </trkpt>
      <trkpt lat="39.3225" lon="-7.91919">
        <ele>138.286</ele>
        <time>2019-10-16T07:20:00Z</time>
      </trkpt>
      <trkpt lat="39.323" lon="-7.91878">
        <ele>142.26</ele>
        <time>2019-10-16T07:20:20Z</time>
      </trkpt>
      <trkpt lat="39.32312" lon="-7.91863">
        <ele>142.126</ele>
        <time>2019-10-16T07:20:40Z</time>
      </trkpt>
      <trkpt lat="39.32396" lon="-7.91752">
        <ele>141.408</ele>
        <time>2019-10-16T07:21:00Z</time>
      </trkpt>
      <trkpt lat="39.32407" lon="-7.91738">
        <ele>141.292</ele>
        <time>2019-10-16T07:21:20Z</time>
      </trkpt>
      <trkpt lat="39.32413" lon="-7.91734">
        <ele>141.39</ele>
        <time>2019-10-16T07:21:40Z</time>
      </trkpt>
      <trkpt lat="39.32431" lon="-7.91721">
        <ele>140.432</ele>
        <time>2019-10-16T07:22:00Z</time>
      </trkpt>
      <trkpt lat="39.32435" lon="-7.91722">
        <ele>140.372</ele>
        <time>2019-10-16T07:22:20Z</time>
      </trkpt>
      <trkpt lat="39.32438" lon="-7.91724">
        <ele>140.224</ele>
        <time>2019-10-16T07:22:40Z</time>
      </trkpt>
      <trkpt lat="39.32441" lon="-7.91727">
        <ele>140.185</ele>
        <time>2019-10-16T07:23:00Z</time>
      </trkpt>
      <trkpt lat="39.32445" lon="-7.91731">
        <ele>140.087</ele>
        <time>2019-10-16T07:23:20Z</time>
      </trkpt>
      <trkpt lat="39.32451" lon="-7.91734">
        <ele>140.037</ele>
        <time>2019-10-16T07:23:40Z</time>
      </trkpt>
      <trkpt lat="39.32458" lon="-7.91739">
        <ele>140.084</ele>
        <time>2019-10-16T07:24:00Z</time>
      </trkpt>
      <trkpt lat="39.32517" lon="-7.9177">
        <ele>141.407</ele>
        <time>2019-10-16T07:24:20Z</time>
      </trkpt>
      <trkpt lat="39.32525" lon="-7.91771">
        <ele>141.717</ele>
        <time>2019-10-16T07:24:40Z</time>
      </trkpt>
      <trkpt lat="39.32532" lon="-7.91769">
        <ele>142.108</ele>
        <time>2019-10-16T07:25:00Z</time>
      </trkpt>
      <trkpt lat="39.32539" lon="-7.91764">
        <ele>142.512</ele>
        <time>2019-10-16T07:25:20Z</time>
      </trkpt>
      <trkpt lat="39.32545" lon="-7.91757">
        <ele>142.64</ele>
        <time>2019-10-16T07:25:40Z</time>
      </trkpt>
      <trkpt lat="39.3255" lon="-7.91751">
        <ele>142.672</ele>
        <time>2019-10-16T07:26:00Z</time>
      </trkpt>
      <trkpt lat="39.32593" lon="-7.91708">
        <ele>146.132</ele>
        <time>2019-10-16T07:26:20Z</time>
      </trkpt>
      <trkpt lat="39.32648" lon="-7.91658">
        <ele>146.834</ele>
        <time>2019-10-16T07:26:40Z</time>
      </trkpt>
      <trkpt lat="39.32656" lon="-7.91646">
        <ele>146.785</ele>
        <time>2019-10-16T07:27:00Z</time>
      </trkpt>
      <trkpt lat="39.32708" lon="-7.91558">
        <ele>148.117</ele>
        <time>2019-10-16T07:27:20Z</time>
      </trkpt>
      <trkpt lat="39.32745" lon="-7.91475">
        <ele>145.027</ele>
        <time>2019-10-16T07:27:40Z</time>
      </trkpt>
      <trkpt lat="39.32804" lon="-7.91331">
        <ele>140.952</ele>
        <time>2019-10-16T07:28:00Z</time>
      </trkpt>
      <trkpt lat="39.32813" lon="-7.91318">
        <ele>140.753</ele>
        <time>2019-10-16T07:28:20Z</time>
      </trkpt>
      <trkpt lat="39.32872" lon="-7.9123">
        <ele>136.808</ele>
        <time>2019-10-16T07:28:40Z</time>
      </trkpt>
      <trkpt lat="39.32899" lon="-7.91173">
        <ele>139.208</ele>
        <time>2019-10-16T07:29:00Z</time>
      </trkpt>
      <trkpt lat="39.32903" lon="-7.91158">
        <ele>139.219</ele>
        <time>2019-10-16T07:29:20Z</time>
      </trkpt>
      <trkpt lat="39.32906" lon="-7.91141">
        <ele>138.737</ele>
        <time>2019-10-16T07:29:40Z</time>
      </trkpt>
      <trkpt lat="39.32914" lon="-7.91104">
        <ele>138.989</ele>
        <time>2019-10-16T07:30:00Z</time>
      </trkpt>
      <trkpt lat="39.32919" lon="-7.91087">
        <ele>139.349</ele>
        <time>2019-10-16T07:30:20Z</time>
      </trkpt>
      <trkpt lat="39.32974" lon="-7.90946">
        <ele>140.991</ele>
        <time>2019-10-16T07:30:40Z</time>
      </trkpt>
      <trkpt lat="39.33015" lon="-7.90863">
        <ele>142.112</ele>
        <time>2019-10-16T07:31:00Z</time>
      </trkpt>
      <trkpt lat="39.33077" lon="-7.90738">
        <ele>145.414</ele>
        <time>2019-10-16T07:31:20Z</time>
      </trkpt>
      <trkpt lat="39.33093" lon="-7.90711">
        <ele>147.474</ele>
        <time>2019-10-16T07:31:40Z</time>
      </trkpt>
      <trkpt lat="39.331" lon="-7.90697">
        <ele>147.615</ele>
        <time>2019-10-16T07:32:00Z</time>
      </trkpt>
      <trkpt lat="39.33107" lon="-7.90683">
        <ele>147.065</ele>
        <time>2019-10-16T07:32:20Z</time>
      </trkpt>
      <trkpt lat="39.33116" lon="-7.90669">
        <ele>146.211</ele>
        <time>2019-10-16T07:32:40Z</time>
      </trkpt>
      <trkpt lat="39.33125" lon="-7.90657">
        <ele>145.408</ele>
        <time>2019-10-16T07:33:00Z</time>
      </trkpt>
      <trkpt lat="39.3314" lon="-7.90633">
        <ele>144.995</ele>
        <time>2019-10-16T07:33:20Z</time>
      </trkpt>
      <trkpt lat="39.33147" lon="-7.90621">
        <ele>144.853</ele>
        <time>2019-10-16T07:33:40Z</time>
      </trkpt>
      <trkpt lat="39.33154" lon="-7.90609">
        <ele>144.995</ele>
        <time>2019-10-16T07:34:00Z</time>
      </trkpt>
      <trkpt lat="39.33162" lon="-7.90597">
        <ele>144.785</ele>
        <time>2019-10-16T07:34:20Z</time>
      </trkpt>
      <trkpt lat="39.33171" lon="-7.90586">
        <ele>144.337</ele>
        <time>2019-10-16T07:34:40Z</time>
      </trkpt>
      <trkpt lat="39.33195" lon="-7.90552">
        <ele>142.918</ele>
        <time>2019-10-16T07:35:00Z</time>
      </trkpt>
      <trkpt lat="39.332" lon="-7.9054">
        <ele>142.98</ele>
        <time>2019-10-16T07:35:20Z</time>
      </trkpt>
      <trkpt lat="39.33204" lon="-7.90527">
        <ele>142.78</ele>
        <time>2019-10-16T07:35:40Z</time>
      </trkpt>
      <trkpt lat="39.33209" lon="-7.90513">
        <ele>143.332</ele>
        <time>2019-10-16T07:36:00Z</time>
      </trkpt>
      <trkpt lat="39.33214" lon="-7.905">
        <ele>144.192</ele>
        <time>2019-10-16T07:36:20Z</time>
      </trkpt>
      <trkpt lat="39.3322" lon="-7.9049">
        <ele>144.711</ele>
        <time>2019-10-16T07:36:40Z</time>
      </trkpt>
      <trkpt lat="39.33225" lon="-7.90482">
        <ele>145.208</ele>
        <time>2019-10-16T07:37:00Z</time>
      </trkpt>
      <trkpt lat="39.33231" lon="-7.90476">
        <ele>145.667</ele>
        <time>2019-10-16T07:37:20Z</time>
      </trkpt>
      <trkpt lat="39.33237" lon="-7.90471">
        <ele>146.055</ele>
        <time>2019-10-16T07:37:40Z</time>
      </trkpt>
      <trkpt lat="39.33244" lon="-7.90468">
        <ele>146.277</ele>
        <time>2019-10-16T07:38:00Z</time>
      </trkpt>
      <trkpt lat="39.33252" lon="-7.90466">
        <ele>146.587</ele>
        <time>2019-10-16T07:38:20Z</time>
      </trkpt>
      <trkpt lat="39.33262" lon="-7.90467">
        <ele>147.429</ele>
        <time>2019-10-16T07:38:40Z</time>
      </trkpt>
      <trkpt lat="39.33272" lon="-7.9047">
        <ele>148.47</ele>
        <time>2019-10-16T07:39:00Z</time>
      </trkpt>
      <trkpt lat="39.33283" lon="-7.90473">
        <ele>149.222</ele>
        <time>2019-10-16T07:39:20Z</time>
      </trkpt>
      <trkpt lat="39.33294" lon="-7.90475">
        <ele>149.612</ele>
        <time>2019-10-16T07:39:40Z</time>
      </trkpt>
      <trkpt lat="39.33305" lon="-7.90478">
        <ele>150.024</ele>
        <time>2019-10-16T07:40:00Z</time>
      </trkpt>
      <trkpt lat="39.33341" lon="-7.90482">
        <ele>152.504</ele>
        <time>2019-10-16T07:40:20Z</time>
      </trkpt>
      <trkpt lat="39.33354" lon="-7.90481">
        <ele>154.914</ele>
        <time>2019-10-16T07:40:40Z</time>
      </trkpt>
      <trkpt lat="39.33376" lon="-7.90477">
        <ele>158.808</ele>
        <time>2019-10-16T07:41:00Z</time>
      </trkpt>
      <trkpt lat="39.33401" lon="-7.90472">
        <ele>161.196</ele>
        <time>2019-10-16T07:41:20Z</time>
      </trkpt>
      <trkpt lat="39.3341" lon="-7.9047">
        <ele>161.434</ele>
        <time>2019-10-16T07:41:40Z</time>
      </trkpt>
      <trkpt lat="39.33421" lon="-7.90466">
        <ele>162.376</ele>
        <time>2019-10-16T07:42:00Z</time>
      </trkpt>
      <trkpt lat="39.33432" lon="-7.9046">
        <ele>163.566</ele>
        <time>2019-10-16T07:42:20Z</time>
      </trkpt>
      <trkpt lat="39.33444" lon="-7.90453">
        <ele>164.818</ele>
        <time>2019-10-16T07:42:40Z</time>
      </trkpt>
      <trkpt lat="39.33479" lon="-7.90431">
        <ele>166.829</ele>
        <time>2019-10-16T07:43:00Z</time>
      </trkpt>
      <trkpt lat="39.33509" lon="-7.90412">
        <ele>168.381</ele>
        <time>2019-10-16T07:43:20Z</time>
      </trkpt>
      <trkpt lat="39.33518" lon="-7.90408">
        <ele>168.471</ele>
        <time>2019-10-16T07:43:40Z</time>
      </trkpt>
      <trkpt lat="39.33526" lon="-7.90407">
        <ele>168.673</ele>
        <time>2019-10-16T07:44:00Z</time>
      </trkpt>
      <trkpt lat="39.33533" lon="-7.90408">
        <ele>169.085</ele>
        <time>2019-10-16T07:44:20Z</time>
      </trkpt>
      <trkpt lat="39.33538" lon="-7.90411">
        <ele>169.513</ele>
        <time>2019-10-16T07:44:40Z</time>
      </trkpt>
      <trkpt lat="39.33541" lon="-7.90415">
        <ele>169.908</ele>
        <time>2019-10-16T07:45:00Z</time>
      </trkpt>
      <trkpt lat="39.33543" lon="-7.9042">
        <ele>170.341</ele>
        <time>2019-10-16T07:45:20Z</time>
      </trkpt>
      <trkpt lat="39.33545" lon="-7.90424">
        <ele>170.749</ele>
        <time>2019-10-16T07:45:40Z</time>
      </trkpt>
      <trkpt lat="39.33571" lon="-7.9044">
        <ele>173.761</ele>
        <time>2019-10-16T07:46:00Z</time>
      </trkpt>
      <trkpt lat="39.33581" lon="-7.90438">
        <ele>174.231</ele>
        <time>2019-10-16T07:46:20Z</time>
      </trkpt>
      <trkpt lat="39.33581" lon="-7.90437">
        <ele>174.073</ele>
        <time>2019-10-16T07:46:40Z</time>
      </trkpt>
      <trkpt lat="39.33579" lon="-7.90438">
        <ele>174.024</ele>
        <time>2019-10-16T07:47:00Z</time>
      </trkpt>
      <trkpt lat="39.33579" lon="-7.90437">
        <ele>173.946</ele>
        <time>2019-10-16T07:47:20Z</time>
      </trkpt>
      <trkpt lat="39.33581" lon="-7.9044">
        <ele>174.386</ele>
        <time>2019-10-16T07:47:40Z</time>
      </trkpt>
      <trkpt lat="39.33581" lon="-7.90439">
        <ele>174.234</ele>
        <time>2019-10-16T07:48:00Z</time>
      </trkpt>
      <trkpt lat="39.33587" lon="-7.90433">
        <ele>173.855</ele>
        <time>2019-10-16T07:48:20Z</time>
      </trkpt>
      <trkpt lat="39.33608" lon="-7.90411">
        <ele>171.81</ele>
        <time>2019-10-16T07:48:40Z</time>
      </trkpt>
      <trkpt lat="39.3361" lon="-7.90405">
        <ele>171.608</ele>
        <time>2019-10-16T07:49:00Z</time>
      </trkpt>
      <trkpt lat="39.3361" lon="-7.90398">
        <ele>171.337</ele>
        <time>2019-10-16T07:49:20Z</time>
      </trkpt>
      <trkpt lat="39.33608" lon="-7.90389">
        <ele>170.995</ele>
        <time>2019-10-16T07:49:40Z</time>
      </trkpt>
      <trkpt lat="39.33605" lon="-7.9038">
        <ele>170.737</ele>
        <time>2019-10-16T07:50:00Z</time>
      </trkpt>
      <trkpt lat="39.33604" lon="-7.9037">
        <ele>170.487</ele>
        <time>2019-10-16T07:50:20Z</time>
      </trkpt>
      <trkpt lat="39.33604" lon="-7.9036">
        <ele>170.229</ele>
        <time>2019-10-16T07:50:40Z</time>
      </trkpt>
      <trkpt lat="39.33605" lon="-7.9035">
        <ele>170.58</ele>
        <time>2019-10-16T07:51:00Z</time>
      </trkpt>
      <trkpt lat="39.33607" lon="-7.90339">
        <ele>171.092</ele>
        <time>2019-10-16T07:51:20Z</time>
      </trkpt>
      <trkpt lat="39.33609" lon="-7.90326">
        <ele>171.612</ele>
        <time>2019-10-16T07:51:40Z</time>
      </trkpt>
      <trkpt lat="39.33619" lon="-7.90273">
        <ele>174.426</ele>
        <time>2019-10-16T07:52:00Z</time>
      </trkpt>
      <trkpt lat="39.33624" lon="-7.90261">
        <ele>175.547</ele>
        <time>2019-10-16T07:52:20Z</time>
      </trkpt>
      <trkpt lat="39.33651" lon="-7.90209">
        <ele>178.511</ele>
        <time>2019-10-16T07:52:40Z</time>
      </trkpt>
      <trkpt lat="39.33676" lon="-7.90176">
        <ele>181.608</ele>
        <time>2019-10-16T07:53:00Z</time>
      </trkpt>
      <trkpt lat="39.33723" lon="-7.90116">
        <ele>179.396</ele>
        <time>2019-10-16T07:53:20Z</time>
      </trkpt>
      <trkpt lat="39.33731" lon="-7.9011">
        <ele>178.444</ele>
        <time>2019-10-16T07:53:40Z</time>
      </trkpt>
      <trkpt lat="39.33739" lon="-7.90104">
        <ele>177.886</ele>
        <time>2019-10-16T07:54:00Z</time>
      </trkpt>
      <trkpt lat="39.33749" lon="-7.90098">
        <ele>177.146</ele>
        <time>2019-10-16T07:54:20Z</time>
      </trkpt>
      <trkpt lat="39.3376" lon="-7.90093">
        <ele>176.918</ele>
        <time>2019-10-16T07:54:40Z</time>
      </trkpt>
      <trkpt lat="39.33773" lon="-7.90088">
        <ele>176.599</ele>
        <time>2019-10-16T07:55:00Z</time>
      </trkpt>
      <trkpt lat="39.33848" lon="-7.90057">
        <ele>174.631</ele>
        <time>2019-10-16T07:55:20Z</time>
      </trkpt>
      <trkpt lat="39.33859" lon="-7.90053">
        <ele>174.781</ele>
        <time>2019-10-16T07:55:40Z</time>
      </trkpt>
      <trkpt lat="39.3389" lon="-7.90041">
        <ele>174.489</ele>
        <time>2019-10-16T07:56:00Z</time>
      </trkpt>
      <trkpt lat="39.33901" lon="-7.9004">
        <ele>174.106</ele>
        <time>2019-10-16T07:56:20Z</time>
      </trkpt>
      <trkpt lat="39.33949" lon="-7.90043">
        <ele>173.926</ele>
        <time>2019-10-16T07:56:40Z</time>
      </trkpt>
      <trkpt lat="39.33958" lon="-7.90041">
        <ele>173.508</ele>
        <time>2019-10-16T07:57:00Z</time>
      </trkpt>
      <trkpt lat="39.33965" lon="-7.90036">
        <ele>172.952</ele>
        <time>2019-10-16T07:57:20Z</time>
      </trkpt>
      <trkpt lat="39.33971" lon="-7.90029">
        <ele>172.18</ele>
        <time>2019-10-16T07:57:40Z</time>
      </trkpt>
      <trkpt lat="39.33976" lon="-7.9002">
        <ele>172.412</ele>
        <time>2019-10-16T07:58:00Z</time>
      </trkpt>
      <trkpt lat="39.33979" lon="-7.90009">
        <ele>172.772</ele>
        <time>2019-10-16T07:58:20Z</time>
      </trkpt>
      <trkpt lat="39.33982" lon="-7.89994">
        <ele>173.084</ele>
        <time>2019-10-16T07:58:40Z</time>
      </trkpt>
      <trkpt lat="39.33985" lon="-7.89981">
        <ele>173.485</ele>
        <time>2019-10-16T07:59:00Z</time>
      </trkpt>
      <trkpt lat="39.33989" lon="-7.89971">
        <ele>173.737</ele>
        <time>2019-10-16T07:59:20Z</time>
      </trkpt>
      <trkpt lat="39.33994" lon="-7.89962">
        <ele>173.797</ele>
        <time>2019-10-16T07:59:40Z</time>
      </trkpt>
      <trkpt lat="39.34" lon="-7.89953">
        <ele>173.719</ele>
        <time>2019-10-16T08:00:00Z</time>
      </trkpt>
      <trkpt lat="39.34007" lon="-7.89946">
        <ele>173.909</ele>
        <time>2019-10-16T08:00:20Z</time>
      </trkpt>
      <trkpt lat="39.34013" lon="-7.89941">
        <ele>174.019</ele>
        <time>2019-10-16T08:00:40Z</time>
      </trkpt>
      <trkpt lat="39.34023" lon="-7.89932">
        <ele>173.908</ele>
        <time>2019-10-16T08:01:00Z</time>
      </trkpt>
      <trkpt lat="39.34029" lon="-7.8993">
        <ele>174.095</ele>
        <time>2019-10-16T08:01:20Z</time>
      </trkpt>
      <trkpt lat="39.34036" lon="-7.89929">
        <ele>174.953</ele>
        <time>2019-10-16T08:01:40Z</time>
      </trkpt>
      <trkpt lat="39.34055" lon="-7.89927">
        <ele>177.565</ele>
        <time>2019-10-16T08:02:00Z</time>
      </trkpt>
      <trkpt lat="39.34086" lon="-7.8993">
        <ele>182.835</ele>
        <time>2019-10-16T08:02:20Z</time>
      </trkpt>
      <trkpt lat="39.34121" lon="-7.89937">
        <ele>186.757</ele>
        <time>2019-10-16T08:02:40Z</time>
      </trkpt>
      <trkpt lat="39.34133" lon="-7.89944">
        <ele>187.198</ele>
        <time>2019-10-16T08:03:00Z</time>
      </trkpt>
      <trkpt lat="39.34143" lon="-7.8995">
        <ele>187.47</ele>
        <time>2019-10-16T08:03:20Z</time>
      </trkpt>
      <trkpt lat="39.34151" lon="-7.89958">
        <ele>187.88</ele>
        <time>2019-10-16T08:03:40Z</time>
      </trkpt>
      <trkpt lat="39.34158" lon="-7.89968">
        <ele>188.321</ele>
        <time>2019-10-16T08:04:00Z</time>
      </trkpt>
      <trkpt lat="39.34165" lon="-7.89979">
        <ele>188.241</ele>
        <time>2019-10-16T08:04:20Z</time>
      </trkpt>
      <trkpt lat="39.34171" lon="-7.8999">
        <ele>187.605</ele>
        <time>2019-10-16T08:04:40Z</time>
      </trkpt>
      <trkpt lat="39.34188" lon="-7.90023">
        <ele>185.708</ele>
        <time>2019-10-16T08:05:00Z</time>
      </trkpt>
      <trkpt lat="39.34193" lon="-7.90031">
        <ele>185.186</ele>
        <time>2019-10-16T08:05:20Z</time>
      </trkpt>
      <trkpt lat="39.342" lon="-7.90036">
        <ele>184.624</ele>
        <time>2019-10-16T08:05:40Z</time>
      </trkpt>
      <trkpt lat="39.34208" lon="-7.90039">
        <ele>184.186</ele>
        <time>2019-10-16T08:06:00Z</time>
      </trkpt>
      <trkpt lat="39.34217" lon="-7.90041">
        <ele>183.416</ele>
        <time>2019-10-16T08:06:20Z</time>
      </trkpt>
      <trkpt lat="39.34226" lon="-7.90041">
        <ele>183.198</ele>
        <time>2019-10-16T08:06:40Z</time>
      </trkpt>
      <trkpt lat="39.34236" lon="-7.90038">
        <ele>183.449</ele>
        <time>2019-10-16T08:07:00Z</time>
      </trkpt>
      <trkpt lat="39.34247" lon="-7.90034">
        <ele>183.491</ele>
        <time>2019-10-16T08:07:20Z</time>
      </trkpt>
      <trkpt lat="39.34257" lon="-7.9003">
        <ele>184.491</ele>
        <time>2019-10-16T08:07:40Z</time>
      </trkpt>
      <trkpt lat="39.34267" lon="-7.90024">
        <ele>185.719</ele>
        <time>2019-10-16T08:08:00Z</time>
      </trkpt>
      <trkpt lat="39.34278" lon="-7.90017">
        <ele>186.809</ele>
        <time>2019-10-16T08:08:20Z</time>
      </trkpt>
      <trkpt lat="39.34309" lon="-7.9">
        <ele>188.219</ele>
        <time>2019-10-16T08:08:40Z</time>
      </trkpt>
      <trkpt lat="39.34319" lon="-7.89997">
        <ele>188.608</ele>
        <time>2019-10-16T08:09:00Z</time>
      </trkpt>
      <trkpt lat="39.34328" lon="-7.89996">
        <ele>189.265</ele>
        <time>2019-10-16T08:09:20Z</time>
      </trkpt>
      <trkpt lat="39.34349" lon="-7.89994">
        <ele>191.113</ele>
        <time>2019-10-16T08:09:40Z</time>
      </trkpt>
      <trkpt lat="39.34387" lon="-7.89989">
        <ele>190.755</ele>
        <time>2019-10-16T08:10:00Z</time>
      </trkpt>
      <trkpt lat="39.34387" lon="-7.89992">
        <ele>190.895</ele>
        <time>2019-10-16T08:10:20Z</time>
      </trkpt>
      <trkpt lat="39.34387" lon="-7.89992">
        <ele>190.817</ele>
        <time>2019-10-16T08:10:40Z</time>
      </trkpt>
      <trkpt lat="39.34386" lon="-7.8999">
        <ele>190.778</ele>
        <time>2019-10-16T08:11:00Z</time>
      </trkpt>
      <trkpt lat="39.34386" lon="-7.89992">
        <ele>190.96</ele>
        <time>2019-10-16T08:11:20Z</time>
      </trkpt>
      <trkpt lat="39.34384" lon="-7.89994">
        <ele>191.17</ele>
        <time>2019-10-16T08:11:40Z</time>
      </trkpt>
      <trkpt lat="39.34386" lon="-7.89993">
        <ele>190.955</ele>
        <time>2019-10-16T08:12:00Z</time>
      </trkpt>
      <trkpt lat="39.34386" lon="-7.89995">
        <ele>191.007</ele>
        <time>2019-10-16T08:12:20Z</time>
      </trkpt>
      <trkpt lat="39.34385" lon="-7.89992">
        <ele>190.917</ele>
        <time>2019-10-16T08:12:40Z</time>
      </trkpt>
      <trkpt lat="39.34383" lon="-7.8999">
        <ele>190.908</ele>
        <time>2019-10-16T08:13:00Z</time>
      </trkpt>
      <trkpt lat="39.34383" lon="-7.89992">
        <ele>191.029</ele>
        <time>2019-10-16T08:13:20Z</time>
      </trkpt>
      <trkpt lat="39.34385" lon="-7.89991">
        <ele>190.837</ele>
        <time>2019-10-16T08:13:40Z</time>
      </trkpt>
      <trkpt lat="39.34385" lon="-7.89992">
        <ele>190.959</ele>
        <time>2019-10-16T08:14:00Z</time>
      </trkpt>
      <trkpt lat="39.34398" lon="-7.89995">
        <ele>189.679</ele>
        <time>2019-10-16T08:14:20Z</time>
      </trkpt>
      <trkpt lat="39.34411" lon="-7.90002">
        <ele>187.921</ele>
        <time>2019-10-16T08:14:40Z</time>
      </trkpt>
      <trkpt lat="39.3446" lon="-7.90046">
        <ele>186.762</ele>
        <time>2019-10-16T08:15:00Z</time>
      </trkpt>
      <trkpt lat="39.345" lon="-7.90076">
        <ele>185.034</ele>
        <time>2019-10-16T08:15:20Z</time>
      </trkpt>
      <trkpt lat="39.34506" lon="-7.90077">
        <ele>184.634</ele>
        <time>2019-10-16T08:15:40Z</time>
      </trkpt>
      <trkpt lat="39.3451" lon="-7.90076">
        <ele>184.373</ele>
        <time>2019-10-16T08:16:00Z</time>
      </trkpt>
      <trkpt lat="39.34514" lon="-7.90073">
        <ele>184.085</ele>
        <time>2019-10-16T08:16:20Z</time>
      </trkpt>
      <trkpt lat="39.34517" lon="-7.90069">
        <ele>183.813</ele>
        <time>2019-10-16T08:16:40Z</time>
      </trkpt>
      <trkpt lat="39.3452" lon="-7.90066">
        <ele>183.608</ele>
        <time>2019-10-16T08:17:00Z</time>
      </trkpt>
      <trkpt lat="39.34524" lon="-7.90064">
        <ele>183.321</ele>
        <time>2019-10-16T08:17:20Z</time>
      </trkpt>
      <trkpt lat="39.34528" lon="-7.90065">
        <ele>183.059</ele>
        <time>2019-10-16T08:17:40Z</time>
      </trkpt>
      <trkpt lat="39.34533" lon="-7.90067">
        <ele>183.011</ele>
        <time>2019-10-16T08:18:00Z</time>
      </trkpt>
      <trkpt lat="39.3454" lon="-7.90071">
        <ele>183.081</ele>
        <time>2019-10-16T08:18:20Z</time>
      </trkpt>
      <trkpt lat="39.34547" lon="-7.90075">
        <ele>183.043</ele>
        <time>2019-10-16T08:18:40Z</time>
      </trkpt>
      <trkpt lat="39.34557" lon="-7.90077">
        <ele>183.024</ele>
        <time>2019-10-16T08:19:00Z</time>
      </trkpt>
      <trkpt lat="39.34567" lon="-7.90078">
        <ele>183.336</ele>
        <time>2019-10-16T08:19:20Z</time>
      </trkpt>
      <trkpt lat="39.34626" lon="-7.90075">
        <ele>184.446</ele>
        <time>2019-10-16T08:19:40Z</time>
      </trkpt>
      <trkpt lat="39.3463" lon="-7.90072">
        <ele>184.431</ele>
        <time>2019-10-16T08:20:00Z</time>
      </trkpt>
      <trkpt lat="39.34633" lon="-7.90067">
        <ele>184.361</ele>
        <time>2019-10-16T08:20:20Z</time>
      </trkpt>
      <trkpt lat="39.34636" lon="-7.90061">
        <ele>184.207</ele>
        <time>2019-10-16T08:20:40Z</time>
      </trkpt>
      <trkpt lat="39.34639" lon="-7.90052">
        <ele>183.808</ele>
        <time>2019-10-16T08:21:00Z</time>
      </trkpt>
      <trkpt lat="39.34661" lon="-7.89992">
        <ele>178.957</ele>
        <time>2019-10-16T08:21:20Z</time>
      </trkpt>
      <trkpt lat="39.34662" lon="-7.89983">
        <ele>178.515</ele>
        <time>2019-10-16T08:21:40Z</time>
      </trkpt>
      <trkpt lat="39.34663" lon="-7.89974">
        <ele>178.117</ele>
        <time>2019-10-16T08:22:00Z</time>
      </trkpt>
      <trkpt lat="39.34662" lon="-7.89965">
        <ele>177.827</ele>
        <time>2019-10-16T08:22:20Z</time>
      </trkpt>
      <trkpt lat="39.34662" lon="-7.89957">
        <ele>177.579</ele>
        <time>2019-10-16T08:22:40Z</time>
      </trkpt>
      <trkpt lat="39.34661" lon="-7.89951">
        <ele>177.23</ele>
        <time>2019-10-16T08:23:00Z</time>
      </trkpt>
      <trkpt lat="39.34666" lon="-7.89902">
        <ele>179.062</ele>
        <time>2019-10-16T08:23:20Z</time>
      </trkpt>
      <trkpt lat="39.34669" lon="-7.89886">
        <ele>180.122</ele>
        <time>2019-10-16T08:23:40Z</time>
      </trkpt>
      <trkpt lat="39.34668" lon="-7.89881">
        <ele>180.098</ele>
        <time>2019-10-16T08:24:00Z</time>
      </trkpt>
      <trkpt lat="39.34668" lon="-7.89876">
        <ele>180.115</ele>
        <time>2019-10-16T08:24:20Z</time>
      </trkpt>
      <trkpt lat="39.34669" lon="-7.89869">
        <ele>180.126</ele>
        <time>2019-10-16T08:24:40Z</time>
      </trkpt>
      <trkpt lat="39.3467" lon="-7.89862">
        <ele>180.308</ele>
        <time>2019-10-16T08:25:00Z</time>
      </trkpt>
      <trkpt lat="39.34673" lon="-7.89852">
        <ele>181.033</ele>
        <time>2019-10-16T08:25:20Z</time>
      </trkpt>
      <trkpt lat="39.34695" lon="-7.89821">
        <ele>184.381</ele>
        <time>2019-10-16T08:25:40Z</time>
      </trkpt>
      <trkpt lat="39.34727" lon="-7.89817">
        <ele>185.793</ele>
        <time>2019-10-16T08:26:00Z</time>
      </trkpt>
      <trkpt lat="39.34746" lon="-7.89825">
        <ele>187.463</ele>
        <time>2019-10-16T08:26:20Z</time>
      </trkpt>
      <trkpt lat="39.34804" lon="-7.89864">
        <ele>188.915</ele>
        <time>2019-10-16T08:26:40Z</time>
      </trkpt>
      <trkpt lat="39.34842" lon="-7.89852">
        <ele>191.086</ele>
        <time>2019-10-16T08:27:00Z</time>
      </trkpt>
      <trkpt lat="39.34842" lon="-7.8983">
        <ele>191.768</ele>
        <time>2019-10-16T08:27:20Z</time>
      </trkpt>
      <trkpt lat="39.34837" lon="-7.89745">
        <ele>196.448</ele>
        <time>2019-10-16T08:27:40Z</time>
      </trkpt>
      <trkpt lat="39.34814" lon="-7.89691">
        <ele>200.047</ele>
        <time>2019-10-16T08:28:00Z</time>
      </trkpt>
      <trkpt lat="39.34789" lon="-7.89628">
        <ele>204.629</ele>
        <time>2019-10-16T08:28:20Z</time>
      </trkpt>
      <trkpt lat="39.34764" lon="-7.89551">
        <ele>209.321</ele>
        <time>2019-10-16T08:28:40Z</time>
      </trkpt>
      <trkpt lat="39.34761" lon="-7.89525">
        <ele>211.008</ele>
        <time>2019-10-16T08:29:00Z</time>
      </trkpt>
      <trkpt lat="39.34761" lon="-7.89466">
        <ele>216.618</ele>
        <time>2019-10-16T08:29:20Z</time>
      </trkpt>
      <trkpt lat="39.3476" lon="-7.8945">
        <ele>218.176</ele>
        <time>2019-10-16T08:29:40Z</time>
      </trkpt>
      <trkpt lat="39.34758" lon="-7.89373">
        <ele>222.858</ele>
        <time>2019-10-16T08:30:00Z</time>
      </trkpt>
      <trkpt lat="39.34769" lon="-7.89342">
        <ele>224.828</ele>
        <time>2019-10-16T08:30:20Z</time>
      </trkpt>
      <trkpt lat="39.34774" lon="-7.89335">
        <ele>225.24</ele>
        <time>2019-10-16T08:30:40Z</time>
      </trkpt>
      <trkpt lat="39.34775" lon="-7.89334">
        <ele>225.181</ele>
        <time>2019-10-16T08:31:00Z</time>
      </trkpt>
      <trkpt lat="39.34778" lon="-7.89323">
        <ele>226.073</ele>
        <time>2019-10-16T08:31:20Z</time>
      </trkpt>
      <trkpt lat="39.3478" lon="-7.8931">
        <ele>227.383</ele>
        <time>2019-10-16T08:31:40Z</time>
      </trkpt>
      <trkpt lat="39.34795" lon="-7.89254">
        <ele>231.458</ele>
        <time>2019-10-16T08:32:00Z</time>
      </trkpt>
      <trkpt lat="39.34798" lon="-7.89243">
        <ele>232.052</ele>
        <time>2019-10-16T08:32:20Z</time>
      </trkpt>
      <trkpt lat="39.34802" lon="-7.89208">
        <ele>233.117</ele>
        <time>2019-10-16T08:32:40Z</time>
      </trkpt>
      <trkpt lat="39.34804" lon="-7.89205">
        <ele>233.008</ele>
        <time>2019-10-16T08:33:00Z</time>
      </trkpt>
      <trkpt lat="39.34808" lon="-7.89204">
        <ele>232.829</ele>
        <time>2019-10-16T08:33:20Z</time>
      </trkpt>
      <trkpt lat="39.34814" lon="-7.89204">
        <ele>232.397</ele>
        <time>2019-10-16T08:33:40Z</time>
      </trkpt>
      <trkpt lat="39.3482" lon="-7.89205">
        <ele>231.789</ele>
        <time>2019-10-16T08:34:00Z</time>
      </trkpt>
      <trkpt lat="39.34828" lon="-7.89207">
        <ele>231.059</ele>
        <time>2019-10-16T08:34:20Z</time>
      </trkpt>
      <trkpt lat="39.34836" lon="-7.89209">
        <ele>230.321</ele>
        <time>2019-10-16T08:34:40Z</time>
      </trkpt>
      <trkpt lat="39.34844" lon="-7.8921">
        <ele>229.732</ele>
        <time>2019-10-16T08:35:00Z</time>
      </trkpt>
      <trkpt lat="39.34852" lon="-7.89209">
        <ele>229.284</ele>
        <time>2019-10-16T08:35:20Z</time>
      </trkpt>
      <trkpt lat="39.3486" lon="-7.89204">
        <ele>228.724</ele>
        <time>2019-10-16T08:35:40Z</time>
      </trkpt>
      <trkpt lat="39.34868" lon="-7.89198">
        <ele>228.656</ele>
        <time>2019-10-16T08:36:00Z</time>
      </trkpt>
      <trkpt lat="39.34877" lon="-7.89195">
        <ele>228.459</ele>
        <time>2019-10-16T08:36:20Z</time>
      </trkpt>
      <trkpt lat="39.34885" lon="-7.89193">
        <ele>228.214</ele>
        <time>2019-10-16T08:36:40Z</time>
      </trkpt>
      <trkpt lat="39.34893" lon="-7.8919">
        <ele>227.908</ele>
        <time>2019-10-16T08:37:00Z</time>
      </trkpt>
      <trkpt lat="39.349" lon="-7.89185">
        <ele>227.699</ele>
        <time>2019-10-16T08:37:20Z</time>
      </trkpt>
      <trkpt lat="39.34911" lon="-7.89175">
        <ele>227.177</ele>
        <time>2019-10-16T08:37:40Z</time>
      </trkpt>
      <trkpt lat="39.34917" lon="-7.89173">
        <ele>226.749</ele>
        <time>2019-10-16T08:38:00Z</time>
      </trkpt>
      <trkpt lat="39.34924" lon="-7.89172">
        <ele>225.729</ele>
        <time>2019-10-16T08:38:20Z</time>
      </trkpt>
      <trkpt lat="39.34933" lon="-7.89174">
        <ele>224.511</ele>
        <time>2019-10-16T08:38:40Z</time>
      </trkpt>
      <trkpt lat="39.34942" lon="-7.89177">
        <ele>223.322</ele>
        <time>2019-10-16T08:39:00Z</time>
      </trkpt>
      <trkpt lat="39.34966" lon="-7.89189">
        <ele>219.164</ele>
        <time>2019-10-16T08:39:20Z</time>
      </trkpt>
      <trkpt lat="39.34975" lon="-7.89191">
        <ele>217.754</ele>
        <time>2019-10-16T08:39:40Z</time>
      </trkpt>
      <trkpt lat="39.34984" lon="-7.89193">
        <ele>216.757</ele>
        <time>2019-10-16T08:40:00Z</time>
      </trkpt>
      <trkpt lat="39.34994" lon="-7.89193">
        <ele>215.7</ele>
        <time>2019-10-16T08:40:20Z</time>
      </trkpt>
      <trkpt lat="39.35003" lon="-7.89191">
        <ele>215.12</ele>
        <time>2019-10-16T08:40:40Z</time>
      </trkpt>
      <trkpt lat="39.35011" lon="-7.8919">
        <ele>215.208</ele>
        <time>2019-10-16T08:41:00Z</time>
      </trkpt>
      <trkpt lat="39.35018" lon="-7.89189">
        <ele>215.279</ele>
        <time>2019-10-16T08:41:20Z</time>
      </trkpt>
      <trkpt lat="39.35024" lon="-7.89191">
        <ele>215.157</ele>
        <time>2019-10-16T08:41:40Z</time>
      </trkpt>
      <trkpt lat="39.35029" lon="-7.89195">
        <ele>215.149</ele>
        <time>2019-10-16T08:42:00Z</time>
      </trkpt>
      <trkpt lat="39.35034" lon="-7.89202">
        <ele>215.089</ele>
        <time>2019-10-16T08:42:20Z</time>
      </trkpt>
      <trkpt lat="39.35039" lon="-7.89211">
        <ele>214.851</ele>
        <time>2019-10-16T08:42:40Z</time>
      </trkpt>
      <trkpt lat="39.35043" lon="-7.89222">
        <ele>214.752</ele>
        <time>2019-10-16T08:43:00Z</time>
      </trkpt>
      <trkpt lat="39.35049" lon="-7.89232">
        <ele>214.954</ele>
        <time>2019-10-16T08:43:20Z</time>
      </trkpt>
      <trkpt lat="39.35055" lon="-7.8924">
        <ele>215.344</ele>
        <time>2019-10-16T08:43:40Z</time>
      </trkpt>
      <trkpt lat="39.35063" lon="-7.89246">
        <ele>215.413</ele>
        <time>2019-10-16T08:44:00Z</time>
      </trkpt>
      <trkpt lat="39.35072" lon="-7.8925">
        <ele>215.643</ele>
        <time>2019-10-16T08:44:20Z</time>
      </trkpt>
      <trkpt lat="39.35081" lon="-7.89253">
        <ele>215.907</ele>
        <time>2019-10-16T08:44:40Z</time>
      </trkpt>
      <trkpt lat="39.35091" lon="-7.89257">
        <ele>216.308</ele>
        <time>2019-10-16T08:45:00Z</time>
      </trkpt>
      <trkpt lat="39.35099" lon="-7.89263">
        <ele>216.855</ele>
        <time>2019-10-16T08:45:20Z</time>
      </trkpt>
      <trkpt lat="39.35108" lon="-7.89272">
        <ele>217.633</ele>
        <time>2019-10-16T08:45:40Z</time>
      </trkpt>
      <trkpt lat="39.35116" lon="-7.89282">
        <ele>218.695</ele>
        <time>2019-10-16T08:46:00Z</time>
      </trkpt>
      <trkpt lat="39.35124" lon="-7.89292">
        <ele>219.465</ele>
        <time>2019-10-16T08:46:20Z</time>
      </trkpt>
      <trkpt lat="39.35132" lon="-7.893">
        <ele>219.927</ele>
        <time>2019-10-16T08:46:40Z</time>
      </trkpt>
      <trkpt lat="39.35141" lon="-7.89306">
        <ele>220.388</ele>
        <time>2019-10-16T08:47:00Z</time>
      </trkpt>
      <trkpt lat="39.35151" lon="-7.89311">
        <ele>221.33</ele>
        <time>2019-10-16T08:47:20Z</time>
      </trkpt>
      <trkpt lat="39.35162" lon="-7.89314">
        <ele>222.31</ele>
        <time>2019-10-16T08:47:40Z</time>
      </trkpt>
      <trkpt lat="39.35174" lon="-7.89317">
        <ele>222.639</ele>
        <time>2019-10-16T08:48:00Z</time>
      </trkpt>
      <trkpt lat="39.35207" lon="-7.89323">
        <ele>221.601</ele>
        <time>2019-10-16T08:48:20Z</time>
      </trkpt>
      <trkpt lat="39.35217" lon="-7.89327">
        <ele>220.821</ele>
        <time>2019-10-16T08:48:40Z</time>
      </trkpt>
      <trkpt lat="39.35226" lon="-7.89333">
        <ele>219.508</ele>
        <time>2019-10-16T08:49:00Z</time>
      </trkpt>
      <trkpt lat="39.35234" lon="-7.89341">
        <ele>217.817</ele>
        <time>2019-10-16T08:49:20Z</time>
      </trkpt>
      <trkpt lat="39.3524" lon="-7.89352">
        <ele>216.325</ele>
        <time>2019-10-16T08:49:40Z</time>
      </trkpt>
      <trkpt lat="39.35247" lon="-7.89364">
        <ele>215.237</ele>
        <time>2019-10-16T08:50:00Z</time>
      </trkpt>
      <trkpt lat="39.35268" lon="-7.89398">
        <ele>214.717</ele>
        <time>2019-10-16T08:50:20Z</time>
      </trkpt>
      <trkpt lat="39.35274" lon="-7.89409">
        <ele>214.359</ele>
        <time>2019-10-16T08:50:40Z</time>
      </trkpt>
      <trkpt lat="39.35291" lon="-7.89442">
        <ele>212.14</ele>
        <time>2019-10-16T08:51:00Z</time>
      </trkpt>
      <trkpt lat="39.35297" lon="-7.89451">
        <ele>211.562</ele>
        <time>2019-10-16T08:51:20Z</time>
      </trkpt>
      <trkpt lat="39.35304" lon="-7.89459">
        <ele>211.172</ele>
        <time>2019-10-16T08:51:40Z</time>
      </trkpt>
      <trkpt lat="39.35329" lon="-7.89481">
        <ele>206.985</ele>
        <time>2019-10-16T08:52:00Z</time>
      </trkpt>
      <trkpt lat="39.35339" lon="-7.89486">
        <ele>205.389</ele>
        <time>2019-10-16T08:52:20Z</time>
      </trkpt>
      <trkpt lat="39.3535" lon="-7.8949">
        <ele>203.717</ele>
        <time>2019-10-16T08:52:40Z</time>
      </trkpt>
      <trkpt lat="39.35361" lon="-7.89493">
        <ele>202.208</ele>
        <time>2019-10-16T08:53:00Z</time>
      </trkpt>
      <trkpt lat="39.35372" lon="-7.89496">
        <ele>201.812</ele>
        <time>2019-10-16T08:53:20Z</time>
      </trkpt>
      <trkpt lat="39.35383" lon="-7.89499">
        <ele>201.32</ele>
        <time>2019-10-16T08:53:40Z</time>
      </trkpt>
      <trkpt lat="39.35415" lon="-7.89509">
        <ele>200.762</ele>
        <time>2019-10-16T08:54:00Z</time>
      </trkpt>
      <trkpt lat="39.35426" lon="-7.8951">
        <ele>200.552</ele>
        <time>2019-10-16T08:54:20Z</time>
      </trkpt>
      <trkpt lat="39.35437" lon="-7.89509">
        <ele>200.424</ele>
        <time>2019-10-16T08:54:40Z</time>
      </trkpt>
      <trkpt lat="39.35448" lon="-7.89509">
        <ele>200.335</ele>
        <time>2019-10-16T08:55:00Z</time>
      </trkpt>
      <trkpt lat="39.35459" lon="-7.89509">
        <ele>200.017</ele>
        <time>2019-10-16T08:55:20Z</time>
      </trkpt>
      <trkpt lat="39.3547" lon="-7.89509">
        <ele>199.717</ele>
        <time>2019-10-16T08:55:40Z</time>
      </trkpt>
      <trkpt lat="39.35481" lon="-7.89507">
        <ele>199.788</ele>
        <time>2019-10-16T08:56:00Z</time>
      </trkpt>
      <trkpt lat="39.35562" lon="-7.89488">
        <ele>198.624</ele>
        <time>2019-10-16T08:56:20Z</time>
      </trkpt>
      <trkpt lat="39.35572" lon="-7.89487">
        <ele>197.826</ele>
        <time>2019-10-16T08:56:40Z</time>
      </trkpt>
      <trkpt lat="39.35582" lon="-7.89488">
        <ele>196.908</ele>
        <time>2019-10-16T08:57:00Z</time>
      </trkpt>
      <trkpt lat="39.35592" lon="-7.8949">
        <ele>195.722</ele>
        <time>2019-10-16T08:57:20Z</time>
      </trkpt>
      <trkpt lat="39.35601" lon="-7.89494">
        <ele>194.49</ele>
        <time>2019-10-16T08:57:40Z</time>
      </trkpt>
      <trkpt lat="39.35611" lon="-7.89497">
        <ele>193.182</ele>
        <time>2019-10-16T08:58:00Z</time>
      </trkpt>
      <trkpt lat="39.35621" lon="-7.89499">
        <ele>192.392</ele>
        <time>2019-10-16T08:58:20Z</time>
      </trkpt>
      <trkpt lat="39.3563" lon="-7.89498">
        <ele>191.714</ele>
        <time>2019-10-16T08:58:40Z</time>
      </trkpt>
      <trkpt lat="39.35639" lon="-7.89497">
        <ele>191.125</ele>
        <time>2019-10-16T08:59:00Z</time>
      </trkpt>
      <trkpt lat="39.35647" lon="-7.89498">
        <ele>190.857</ele>
        <time>2019-10-16T08:59:20Z</time>
      </trkpt>
      <trkpt lat="39.35654" lon="-7.89502">
        <ele>190.417</ele>
        <time>2019-10-16T08:59:40Z</time>
      </trkpt>
      <trkpt lat="39.35661" lon="-7.8951">
        <ele>190.132</ele>
        <time>2019-10-16T09:00:00Z</time>
      </trkpt>
      <trkpt lat="39.35669" lon="-7.89521">
        <ele>190.192</ele>
        <time>2019-10-16T09:00:20Z</time>
      </trkpt>
      <trkpt lat="39.35677" lon="-7.89532">
        <ele>190.211</ele>
        <time>2019-10-16T09:00:40Z</time>
      </trkpt>
      <trkpt lat="39.35687" lon="-7.89543">
        <ele>189.808</ele>
        <time>2019-10-16T09:01:00Z</time>
      </trkpt>
      <trkpt lat="39.35771" lon="-7.89631">
        <ele>186.087</ele>
        <time>2019-10-16T09:01:20Z</time>
      </trkpt>
      <trkpt lat="39.3579" lon="-7.89647">
        <ele>186.175</ele>
        <time>2019-10-16T09:01:40Z</time>
      </trkpt>
      <trkpt lat="39.358" lon="-7.89653">
        <ele>186.277</ele>
        <time>2019-10-16T09:02:00Z</time>
      </trkpt>
      <trkpt lat="39.35809" lon="-7.89658">
        <ele>186.067</ele>
        <time>2019-10-16T09:02:20Z</time>
      </trkpt>
      <trkpt lat="39.35818" lon="-7.89666">
        <ele>185.159</ele>
        <time>2019-10-16T09:02:40Z</time>
      </trkpt>
      <trkpt lat="39.35827" lon="-7.89674">
        <ele>184.74</ele>
        <time>2019-10-16T09:03:00Z</time>
      </trkpt>
      <trkpt lat="39.35849" lon="-7.89695">
        <ele>184.012</ele>
        <time>2019-10-16T09:03:20Z</time>
      </trkpt>
      <trkpt lat="39.35857" lon="-7.89696">
        <ele>184.072</ele>
        <time>2019-10-16T09:03:40Z</time>
      </trkpt>
      <trkpt lat="39.35887" lon="-7.89697">
        <ele>185.945</ele>
        <time>2019-10-16T09:04:00Z</time>
      </trkpt>
      <trkpt lat="39.36003" lon="-7.89707">
        <ele>187.247</ele>
        <time>2019-10-16T09:04:20Z</time>
      </trkpt>
      <trkpt lat="39.36101" lon="-7.89755">
        <ele>187.811</ele>
        <time>2019-10-16T09:04:40Z</time>
      </trkpt>
      <trkpt lat="39.36112" lon="-7.89757">
        <ele>188.308</ele>
        <time>2019-10-16T09:05:00Z</time>
      </trkpt>
      <trkpt lat="39.36122" lon="-7.89757">
        <ele>188.988</ele>
        <time>2019-10-16T09:05:20Z</time>
      </trkpt>
      <trkpt lat="39.36146" lon="-7.89752">
        <ele>190.236</ele>
        <time>2019-10-16T09:05:40Z</time>
      </trkpt>
      <trkpt lat="39.36268" lon="-7.89737">
        <ele>191.988</ele>
        <time>2019-10-16T09:06:00Z</time>
      </trkpt>
      <trkpt lat="39.36302" lon="-7.89733">
        <ele>189.868</ele>
        <time>2019-10-16T09:06:20Z</time>
      </trkpt>
      <trkpt lat="39.36407" lon="-7.8973">
        <ele>187.12</ele>
        <time>2019-10-16T09:06:40Z</time>
      </trkpt>
      <trkpt lat="39.36482" lon="-7.89737">
        <ele>189.011</ele>
        <time>2019-10-16T09:07:00Z</time>
      </trkpt>
      <trkpt lat="39.36498" lon="-7.8974">
        <ele>189.983</ele>
        <time>2019-10-16T09:07:20Z</time>
      </trkpt>
      <trkpt lat="39.36532" lon="-7.89745">
        <ele>190.023</ele>
        <time>2019-10-16T09:07:40Z</time>
      </trkpt>
      <trkpt lat="39.36578" lon="-7.89746">
        <ele>188.667</ele>
        <time>2019-10-16T09:08:00Z</time>
      </trkpt>
      <trkpt lat="39.36586" lon="-7.89745">
        <ele>188.581</ele>
        <time>2019-10-16T09:08:20Z</time>
      </trkpt>
      <trkpt lat="39.36594" lon="-7.89741">
        <ele>188.919</ele>
        <time>2019-10-16T09:08:40Z</time>
      </trkpt>
      <trkpt lat="39.36625" lon="-7.89719">
        <ele>191.908</ele>
        <time>2019-10-16T09:09:00Z</time>
      </trkpt>
      <trkpt lat="39.36633" lon="-7.89711">
        <ele>193.34</ele>
        <time>2019-10-16T09:09:20Z</time>
      </trkpt>
      <trkpt lat="39.3664" lon="-7.89703">
        <ele>194.448</ele>
        <time>2019-10-16T09:09:40Z</time>
      </trkpt>
      <trkpt lat="39.36646" lon="-7.89693">
        <ele>195.12</ele>
        <time>2019-10-16T09:10:00Z</time>
      </trkpt>
      <trkpt lat="39.36652" lon="-7.89685">
        <ele>195.68</ele>
        <time>2019-10-16T09:10:20Z</time>
      </trkpt>
      <trkpt lat="39.36658" lon="-7.89678">
        <ele>195.862</ele>
        <time>2019-10-16T09:10:40Z</time>
      </trkpt>
      <trkpt lat="39.36666" lon="-7.89673">
        <ele>195.843</ele>
        <time>2019-10-16T09:11:00Z</time>
      </trkpt>
      <trkpt lat="39.36674" lon="-7.89669">
        <ele>195.695</ele>
        <time>2019-10-16T09:11:20Z</time>
      </trkpt>
      <trkpt lat="39.367" lon="-7.89662">
        <ele>195.215</ele>
        <time>2019-10-16T09:11:40Z</time>
      </trkpt>
      <trkpt lat="39.36648" lon="-7.89634">
        <ele>199.444</ele>
        <time>2019-10-16T09:12:00Z</time>
      </trkpt>
      <trkpt lat="39.36625" lon="-7.89621">
        <ele>199.805</ele>
        <time>2019-10-16T09:12:20Z</time>
      </trkpt>
      <trkpt lat="39.3661" lon="-7.89542">
        <ele>203.915</ele>
        <time>2019-10-16T09:12:40Z</time>
      </trkpt>
      <trkpt lat="39.36612" lon="-7.89471">
        <ele>209.108</ele>
        <time>2019-10-16T09:13:00Z</time>
      </trkpt>
      <trkpt lat="39.36689" lon="-7.89292">
        <ele>227.348</ele>
        <time>2019-10-16T09:13:20Z</time>
      </trkpt>
      <trkpt lat="39.36666" lon="-7.89228">
        <ele>230.536</ele>
        <time>2019-10-16T09:13:40Z</time>
      </trkpt>
      <trkpt lat="39.36655" lon="-7.89161">
        <ele>230.768</ele>
        <time>2019-10-16T09:14:00Z</time>
      </trkpt>
      <trkpt lat="39.36638" lon="-7.8903">
        <ele>241.788</ele>
        <time>2019-10-16T09:14:20Z</time>
      </trkpt>
      <trkpt lat="39.36623" lon="-7.88895">
        <ele>249.16</ele>
        <time>2019-10-16T09:14:40Z</time>
      </trkpt>
      <trkpt lat="39.36583" lon="-7.88781">
        <ele>251.821</ele>
        <time>2019-10-16T09:15:00Z</time>
      </trkpt>
      <trkpt lat="39.36592" lon="-7.88696">
        <ele>256.463</ele>
        <time>2019-10-16T09:15:20Z</time>
      </trkpt>
      <trkpt lat="39.36584" lon="-7.88431">
        <ele>254.593</ele>
        <time>2019-10-16T09:15:40Z</time>
      </trkpt>
      <trkpt lat="39.3657" lon="-7.8833">
        <ele>258.219</ele>
        <time>2019-10-16T09:16:00Z</time>
      </trkpt>
      <trkpt lat="39.36572" lon="-7.88276">
        <ele>261.309</ele>
        <time>2019-10-16T09:16:20Z</time>
      </trkpt>
      <trkpt lat="39.36535" lon="-7.88168">
        <ele>264.819</ele>
        <time>2019-10-16T09:16:40Z</time>
      </trkpt>
      <trkpt lat="39.36585" lon="-7.88076">
        <ele>262.308</ele>
        <time>2019-10-16T09:17:00Z</time>
      </trkpt>
      <trkpt lat="39.36806" lon="-7.87985">
        <ele>266.195</ele>
        <time>2019-10-16T09:17:20Z</time>
      </trkpt>
      <trkpt lat="39.37006" lon="-7.879">
        <ele>263.653</ele>
        <time>2019-10-16T09:17:40Z</time>
      </trkpt>
      <trkpt lat="39.37149" lon="-7.87858">
        <ele>267.615</ele>
        <time>2019-10-16T09:18:00Z</time>
      </trkpt>
      <trkpt lat="39.37277" lon="-7.87856">
        <ele>264.265</ele>
        <time>2019-10-16T09:18:20Z</time>
      </trkpt>
      <trkpt lat="39.37456" lon="-7.87966">
        <ele>261.917</ele>
        <time>2019-10-16T09:18:40Z</time>
      </trkpt>
      <trkpt lat="39.37619" lon="-7.88098">
        <ele>262.898</ele>
        <time>2019-10-16T09:19:00Z</time>
      </trkpt>
      <trkpt lat="39.37805" lon="-7.88225">
        <ele>267.86</ele>
        <time>2019-10-16T09:19:20Z</time>
      </trkpt>
      <trkpt lat="39.3793" lon="-7.88318">
        <ele>264.23</ele>
        <time>2019-10-16T09:19:40Z</time>
      </trkpt>
      <trkpt lat="39.38244" lon="-7.88401">
        <ele>263.229</ele>
        <time>2019-10-16T09:20:00Z</time>
      </trkpt>
      <trkpt lat="39.38349" lon="-7.88404">
        <ele>265.8</ele>
        <time>2019-10-16T09:20:20Z</time>
      </trkpt>
      <trkpt lat="39.38422" lon="-7.88321">
        <ele>266.52</ele>
        <time>2019-10-16T09:20:40Z</time>
      </trkpt>
      <trkpt lat="39.38646" lon="-7.88175">
        <ele>273.208</ele>
        <time>2019-10-16T09:21:00Z</time>
      </trkpt>
      <trkpt lat="39.39129" lon="-7.87783">
        <ele>275.926</ele>
        <time>2019-10-16T09:21:20Z</time>
      </trkpt>
      <trkpt lat="39.39447" lon="-7.8771">
        <ele>271.324</ele>
        <time>2019-10-16T09:21:40Z</time>
      </trkpt>
      <trkpt lat="39.39501" lon="-7.87473">
        <ele>274.926</ele>
        <time>2019-10-16T09:22:00Z</time>
      </trkpt>
      <trkpt lat="39.39722" lon="-7.8726">
        <ele>278.036</ele>
        <time>2019-10-16T09:22:20Z</time>
      </trkpt>
      <trkpt lat="39.401" lon="-7.87114">
        <ele>267.078</ele>
        <time>2019-10-16T09:22:40Z</time>
      </trkpt>
      <trkpt lat="39.40237" lon="-7.87184">
        <ele>266.999</ele>
        <time>2019-10-16T09:23:00Z</time>
      </trkpt>
      <trkpt lat="39.40372" lon="-7.8728">
        <ele>252.881</ele>
        <time>2019-10-16T09:23:20Z</time>
      </trkpt>
      <trkpt lat="39.40431" lon="-7.87423">
        <ele>244.971</ele>
        <time>2019-10-16T09:23:40Z</time>
      </trkpt>
      <trkpt lat="39.40512" lon="-7.8766">
        <ele>240.518</ele>
        <time>2019-10-16T09:24:00Z</time>
      </trkpt>
      <trkpt lat="39.40607" lon="-7.87946">
        <ele>231.098</ele>
        <time>2019-10-16T09:24:20Z</time>
      </trkpt>
      <trkpt lat="39.40608" lon="-7.87952">
        <ele>230.417</ele>
        <time>2019-10-16T09:24:40Z</time>
      </trkpt>
      <trkpt lat="39.40609" lon="-7.87958">
        <ele>229.708</ele>
        <time>2019-10-16T09:25:00Z</time>
      </trkpt>
      <trkpt lat="39.4061" lon="-7.87963">
        <ele>229.165</ele>
        <time>2019-10-16T09:25:20Z</time>
      </trkpt>
      <trkpt lat="39.40631" lon="-7.88026">
        <ele>225.363</ele>
        <time>2019-10-16T09:25:40Z</time>
      </trkpt>
      <trkpt lat="39.40664" lon="-7.881">
        <ele>221.115</ele>
        <time>2019-10-16T09:26:00Z</time>
      </trkpt>
      <trkpt lat="39.4068" lon="-7.88127">
        <ele>219.965</ele>
        <time>2019-10-16T09:26:20Z</time>
      </trkpt>
      <trkpt lat="39.40685" lon="-7.88127">
        <ele>219.827</ele>
        <time>2019-10-16T09:26:40Z</time>
      </trkpt>
      <trkpt lat="39.4069" lon="-7.88124">
        <ele>219.768</ele>
        <time>2019-10-16T09:27:00Z</time>
      </trkpt>
      <trkpt lat="39.40696" lon="-7.8812">
        <ele>219.66</ele>
        <time>2019-10-16T09:27:20Z</time>
      </trkpt>
      <trkpt lat="39.40703" lon="-7.88115">
        <ele>219.53</ele>
        <time>2019-10-16T09:27:40Z</time>
      </trkpt>
      <trkpt lat="39.40709" lon="-7.88111">
        <ele>219.516</ele>
        <time>2019-10-16T09:28:00Z</time>
      </trkpt>
      <trkpt lat="39.40732" lon="-7.88097">
        <ele>219.876</ele>
        <time>2019-10-16T09:28:20Z</time>
      </trkpt>
      <trkpt lat="39.40741" lon="-7.88091">
        <ele>220.313</ele>
        <time>2019-10-16T09:28:40Z</time>
      </trkpt>
      <trkpt lat="39.40749" lon="-7.88083">
        <ele>221.108</ele>
        <time>2019-10-16T09:29:00Z</time>
      </trkpt>
      <trkpt lat="39.40828" lon="-7.88002">
        <ele>221.595</ele>
        <time>2019-10-16T09:29:20Z</time>
      </trkpt>
      <trkpt lat="39.40852" lon="-7.87977">
        <ele>222.233</ele>
        <time>2019-10-16T09:29:40Z</time>
      </trkpt>
      <trkpt lat="39.40858" lon="-7.87967">
        <ele>223.115</ele>
        <time>2019-10-16T09:30:00Z</time>
      </trkpt>
      <trkpt lat="39.40863" lon="-7.87958">
        <ele>223.995</ele>
        <time>2019-10-16T09:30:20Z</time>
      </trkpt>
      <trkpt lat="39.40867" lon="-7.87947">
        <ele>224.657</ele>
        <time>2019-10-16T09:30:40Z</time>
      </trkpt>
      <trkpt lat="39.40871" lon="-7.87937">
        <ele>224.418</ele>
        <time>2019-10-16T09:31:00Z</time>
      </trkpt>
      <trkpt lat="39.40876" lon="-7.87927">
        <ele>223.69</ele>
        <time>2019-10-16T09:31:20Z</time>
      </trkpt>
      <trkpt lat="39.40881" lon="-7.87917">
        <ele>222.38</ele>
        <time>2019-10-16T09:31:40Z</time>
      </trkpt>
      <trkpt lat="39.40886" lon="-7.87907">
        <ele>221.364</ele>
        <time>2019-10-16T09:32:00Z</time>
      </trkpt>
      <trkpt lat="39.40896" lon="-7.87886">
        <ele>220.706</ele>
        <time>2019-10-16T09:32:20Z</time>
      </trkpt>
      <trkpt lat="39.40902" lon="-7.87877">
        <ele>220.916</ele>
        <time>2019-10-16T09:32:40Z</time>
      </trkpt>
      <trkpt lat="39.40928" lon="-7.87836">
        <ele>223.808</ele>
        <time>2019-10-16T09:33:00Z</time>
      </trkpt>
      <trkpt lat="39.40936" lon="-7.87826">
        <ele>225.26</ele>
        <time>2019-10-16T09:33:20Z</time>
      </trkpt>
      <trkpt lat="39.40963" lon="-7.87801">
        <ele>227.748</ele>
        <time>2019-10-16T09:33:40Z</time>
      </trkpt>
      <trkpt lat="39.40973" lon="-7.87796">
        <ele>227.26</ele>
        <time>2019-10-16T09:34:00Z</time>
      </trkpt>
      <trkpt lat="39.40984" lon="-7.87772">
        <ele>228.68</ele>
        <time>2019-10-16T09:34:20Z</time>
      </trkpt>
      <trkpt lat="39.40987" lon="-7.87765">
        <ele>228.992</ele>
        <time>2019-10-16T09:34:40Z</time>
      </trkpt>
      <trkpt lat="39.40997" lon="-7.8773">
        <ele>232.243</ele>
        <time>2019-10-16T09:35:00Z</time>
      </trkpt>
      <trkpt lat="39.40999" lon="-7.87712">
        <ele>233.945</ele>
        <time>2019-10-16T09:35:20Z</time>
      </trkpt>
      <trkpt lat="39.4099" lon="-7.87682">
        <ele>236.555</ele>
        <time>2019-10-16T09:35:40Z</time>
      </trkpt>
      <trkpt lat="39.40967" lon="-7.8766">
        <ele>243.374</ele>
        <time>2019-10-16T09:36:00Z</time>
      </trkpt>
      <trkpt lat="39.40954" lon="-7.87646">
        <ele>247.956</ele>
        <time>2019-10-16T09:36:20Z</time>
      </trkpt>
      <trkpt lat="39.40948" lon="-7.87639">
        <ele>250.121</ele>
        <time>2019-10-16T09:36:40Z</time>
      </trkpt>
      <trkpt lat="39.40928" lon="-7.87624">
        <ele>254.808</ele>
        <time>2019-10-16T09:37:00Z</time>
      </trkpt>
      <trkpt lat="39.4092" lon="-7.87623">
        <ele>256.311</ele>
        <time>2019-10-16T09:37:20Z</time>
      </trkpt>
      <trkpt lat="39.40903" lon="-7.87624">
        <ele>258.749</ele>
        <time>2019-10-16T09:37:40Z</time>
      </trkpt>
      <trkpt lat="39.40886" lon="-7.87628">
        <ele>261.061</ele>
        <time>2019-10-16T09:38:00Z</time>
      </trkpt>
      <trkpt lat="39.40871" lon="-7.87631">
        <ele>262.611</ele>
        <time>2019-10-16T09:38:20Z</time>
      </trkpt>
      <trkpt lat="39.40859" lon="-7.87625">
        <ele>263.643</ele>
        <time>2019-10-16T09:38:40Z</time>
      </trkpt>
      <trkpt lat="39.40837" lon="-7.87619">
        <ele>264.824</ele>
        <time>2019-10-16T09:39:00Z</time>
      </trkpt>
      <trkpt lat="39.40821" lon="-7.87585">
        <ele>265.496</ele>
        <time>2019-10-16T09:39:20Z</time>
      </trkpt>
      <trkpt lat="39.40797" lon="-7.87532">
        <ele>267.996</ele>
        <time>2019-10-16T09:39:40Z</time>
      </trkpt>
      <trkpt lat="39.40794" lon="-7.87524">
        <ele>267.926</ele>
        <time>2019-10-16T09:40:00Z</time>
      </trkpt>
      <trkpt lat="39.40786" lon="-7.87506">
        <ele>268.147</ele>
        <time>2019-10-16T09:40:20Z</time>
      </trkpt>
      <trkpt lat="39.40732" lon="-7.87446">
        <ele>268.111</ele>
        <time>2019-10-16T09:40:40Z</time>
      </trkpt>
      <trkpt lat="39.40708" lon="-7.8738">
        <ele>267.508</ele>
        <time>2019-10-16T09:41:00Z</time>
      </trkpt>
      <trkpt lat="39.40698" lon="-7.87308">
        <ele>267.666</ele>
        <time>2019-10-16T09:41:20Z</time>
      </trkpt>
      <trkpt lat="39.40686" lon="-7.87272">
        <ele>268.694</ele>
        <time>2019-10-16T09:41:40Z</time>
      </trkpt>
      <trkpt lat="39.40671" lon="-7.87246">
        <ele>270.566</ele>
        <time>2019-10-16T09:42:00Z</time>
      </trkpt>
      <trkpt lat="39.40667" lon="-7.87169">
        <ele>271.096</ele>
        <time>2019-10-16T09:42:20Z</time>
      </trkpt>
      <trkpt lat="39.4069" lon="-7.8712">
        <ele>273.318</ele>
        <time>2019-10-16T09:42:40Z</time>
      </trkpt>
      <trkpt lat="39.40723" lon="-7.87078">
        <ele>274.529</ele>
        <time>2019-10-16T09:43:00Z</time>
      </trkpt>
      <trkpt lat="39.40728" lon="-7.87035">
        <ele>273.081</ele>
        <time>2019-10-16T09:43:20Z</time>
      </trkpt>
      <trkpt lat="39.40725" lon="-7.87024">
        <ele>273.091</ele>
        <time>2019-10-16T09:43:40Z</time>
      </trkpt>
      <trkpt lat="39.40693" lon="-7.86874">
        <ele>272.144</ele>
        <time>2019-10-16T09:44:00Z</time>
      </trkpt>
      <trkpt lat="39.40672" lon="-7.86738">
        <ele>273.905</ele>
        <time>2019-10-16T09:44:20Z</time>
      </trkpt>
      <trkpt lat="39.40672" lon="-7.86708">
        <ele>274.415</ele>
        <time>2019-10-16T09:44:40Z</time>
      </trkpt>
      <trkpt lat="39.40654" lon="-7.86674">
        <ele>274.108</ele>
        <time>2019-10-16T09:45:00Z</time>
      </trkpt>
      <trkpt lat="39.40638" lon="-7.86663">
        <ele>273.038</ele>
        <time>2019-10-16T09:45:20Z</time>
      </trkpt>
      <trkpt lat="39.4063" lon="-7.86658">
        <ele>272.536</ele>
        <time>2019-10-16T09:45:40Z</time>
      </trkpt>
      <trkpt lat="39.40623" lon="-7.86652">
        <ele>272.238</ele>
        <time>2019-10-16T09:46:00Z</time>
      </trkpt>
      <trkpt lat="39.40608" lon="-7.86642">
        <ele>272.058</ele>
        <time>2019-10-16T09:46:20Z</time>
      </trkpt>
      <trkpt lat="39.40593" lon="-7.86633">
        <ele>273.03</ele>
        <time>2019-10-16T09:46:40Z</time>
      </trkpt>
      <trkpt lat="39.40567" lon="-7.86624">
        <ele>275.311</ele>
        <time>2019-10-16T09:47:00Z</time>
      </trkpt>
      <trkpt lat="39.40558" lon="-7.86621">
        <ele>276.113</ele>
        <time>2019-10-16T09:47:20Z</time>
      </trkpt>
      <trkpt lat="39.40549" lon="-7.86619">
        <ele>276.633</ele>
        <time>2019-10-16T09:47:40Z</time>
      </trkpt>
      <trkpt lat="39.40541" lon="-7.86618">
        <ele>277.094</ele>
        <time>2019-10-16T09:48:00Z</time>
      </trkpt>
      <trkpt lat="39.40532" lon="-7.86617">
        <ele>277.457</ele>
        <time>2019-10-16T09:48:20Z</time>
      </trkpt>
      <trkpt lat="39.40515" lon="-7.86615">
        <ele>277.422</ele>
        <time>2019-10-16T09:48:40Z</time>
      </trkpt>
      <trkpt lat="39.4049" lon="-7.86603">
        <ele>275.808</ele>
        <time>2019-10-16T09:49:00Z</time>
      </trkpt>
      <trkpt lat="39.40488" lon="-7.86597">
        <ele>275.353</ele>
        <time>2019-10-16T09:49:20Z</time>
      </trkpt>
      <trkpt lat="39.40479" lon="-7.8657">
        <ele>273.551</ele>
        <time>2019-10-16T09:49:40Z</time>
      </trkpt>
      <trkpt lat="39.40476" lon="-7.86561">
        <ele>273.153</ele>
        <time>2019-10-16T09:50:00Z</time>
      </trkpt>
      <trkpt lat="39.40441" lon="-7.86515">
        <ele>273.393</ele>
        <time>2019-10-16T09:50:20Z</time>
      </trkpt>
      <trkpt lat="39.40437" lon="-7.86501">
        <ele>272.985</ele>
        <time>2019-10-16T09:50:40Z</time>
      </trkpt>
      <trkpt lat="39.40437" lon="-7.86494">
        <ele>272.666</ele>
        <time>2019-10-16T09:51:00Z</time>
      </trkpt>
      <trkpt lat="39.40438" lon="-7.86486">
        <ele>272.188</ele>
        <time>2019-10-16T09:51:20Z</time>
      </trkpt>
      <trkpt lat="39.40458" lon="-7.864">
        <ele>269.578</ele>
        <time>2019-10-16T09:51:40Z</time>
      </trkpt>
      <trkpt lat="39.40463" lon="-7.86383">
        <ele>269.612</ele>
        <time>2019-10-16T09:52:00Z</time>
      </trkpt>
      <trkpt lat="39.40467" lon="-7.86377">
        <ele>269.632</ele>
        <time>2019-10-16T09:52:20Z</time>
      </trkpt>
      <trkpt lat="39.40473" lon="-7.86373">
        <ele>269.605</ele>
        <time>2019-10-16T09:52:40Z</time>
      </trkpt>
      <trkpt lat="39.40548" lon="-7.86336">
        <ele>271.208</ele>
        <time>2019-10-16T09:53:00Z</time>
      </trkpt>
      <trkpt lat="39.40647" lon="-7.86261">
        <ele>274.775</ele>
        <time>2019-10-16T09:53:20Z</time>
      </trkpt>
      <trkpt lat="39.40737" lon="-7.86214">
        <ele>272.063</ele>
        <time>2019-10-16T09:53:40Z</time>
      </trkpt>
      <trkpt lat="39.40856" lon="-7.86111">
        <ele>269.295</ele>
        <time>2019-10-16T09:54:00Z</time>
      </trkpt>
      <trkpt lat="39.40949" lon="-7.85995">
        <ele>272.245</ele>
        <time>2019-10-16T09:54:20Z</time>
      </trkpt>
      <trkpt lat="39.40973" lon="-7.85964">
        <ele>272.227</ele>
        <time>2019-10-16T09:54:40Z</time>
      </trkpt>
      <trkpt lat="39.40983" lon="-7.85956">
        <ele>272.278</ele>
        <time>2019-10-16T09:55:00Z</time>
      </trkpt>
      <trkpt lat="39.41042" lon="-7.85915">
        <ele>271.91</ele>
        <time>2019-10-16T09:55:20Z</time>
      </trkpt>
      <trkpt lat="39.41069" lon="-7.8589">
        <ele>270.14</ele>
        <time>2019-10-16T09:55:40Z</time>
      </trkpt>
      <trkpt lat="39.41088" lon="-7.85876">
        <ele>270.059</ele>
        <time>2019-10-16T09:56:00Z</time>
      </trkpt>
      <trkpt lat="39.41093" lon="-7.85873">
        <ele>270.003</ele>
        <time>2019-10-16T09:56:20Z</time>
      </trkpt>
      <trkpt lat="39.41156" lon="-7.85835">
        <ele>270.023</ele>
        <time>2019-10-16T09:56:40Z</time>
      </trkpt>
      <trkpt lat="39.41213" lon="-7.85805">
        <ele>271.708</ele>
        <time>2019-10-16T09:57:00Z</time>
      </trkpt>
      <trkpt lat="39.41224" lon="-7.85797">
        <ele>272.049</ele>
        <time>2019-10-16T09:57:20Z</time>
      </trkpt>
      <trkpt lat="39.41255" lon="-7.8577">
        <ele>272.277</ele>
        <time>2019-10-16T09:57:40Z</time>
      </trkpt>
      <trkpt lat="39.41396" lon="-7.85669">
        <ele>270.059</ele>
        <time>2019-10-16T09:58:00Z</time>
      </trkpt>
      <trkpt lat="39.41441" lon="-7.85616">
        <ele>270.099</ele>
        <time>2019-10-16T09:58:20Z</time>
      </trkpt>
      <trkpt lat="39.41509" lon="-7.85537">
        <ele>267.681</ele>
        <time>2019-10-16T09:58:40Z</time>
      </trkpt>
      <trkpt lat="39.4161" lon="-7.85475">
        <ele>268.172</ele>
        <time>2019-10-16T09:59:00Z</time>
      </trkpt>
      <trkpt lat="39.41665" lon="-7.85459">
        <ele>270.994</ele>
        <time>2019-10-16T09:59:20Z</time>
      </trkpt>
      <trkpt lat="39.41677" lon="-7.85458">
        <ele>272.144</ele>
        <time>2019-10-16T09:59:40Z</time>
      </trkpt>
      <trkpt lat="39.4169" lon="-7.85459">
        <ele>273.539</ele>
        <time>2019-10-16T10:00:00Z</time>
      </trkpt>
      <trkpt lat="39.41778" lon="-7.85473">
        <ele>273.101</ele>
        <time>2019-10-16T10:00:20Z</time>
      </trkpt>
      <trkpt lat="39.41795" lon="-7.8548">
        <ele>273.421</ele>
        <time>2019-10-16T10:00:40Z</time>
      </trkpt>
      <trkpt lat="39.41797" lon="-7.85479">
        <ele>273.308</ele>
        <time>2019-10-16T10:01:00Z</time>
      </trkpt>
      <trkpt lat="39.41797" lon="-7.85479">
        <ele>273.397</ele>
        <time>2019-10-16T10:01:20Z</time>
      </trkpt>
      <trkpt lat="39.41798" lon="-7.8548">
        <ele>273.425</ele>
        <time>2019-10-16T10:01:40Z</time>
      </trkpt>
      <trkpt lat="39.41799" lon="-7.85483">
        <ele>273.577</ele>
        <time>2019-10-16T10:02:00Z</time>
      </trkpt>
      <trkpt lat="39.418" lon="-7.85488">
        <ele>273.757</ele>
        <time>2019-10-16T10:02:20Z</time>
      </trkpt>
      <trkpt lat="39.41802" lon="-7.85494">
        <ele>273.949</ele>
        <time>2019-10-16T10:02:40Z</time>
      </trkpt>
      <trkpt lat="39.41804" lon="-7.85502">
        <ele>274.02</ele>
        <time>2019-10-16T10:03:00Z</time>
      </trkpt>
      <trkpt lat="39.41807" lon="-7.85511">
        <ele>273.652</ele>
        <time>2019-10-16T10:03:20Z</time>
      </trkpt>
      <trkpt lat="39.41811" lon="-7.85521">
        <ele>273.482</ele>
        <time>2019-10-16T10:03:40Z</time>
      </trkpt>
      <trkpt lat="39.41816" lon="-7.8553">
        <ele>273.331</ele>
        <time>2019-10-16T10:04:00Z</time>
      </trkpt>
      <trkpt lat="39.41822" lon="-7.85538">
        <ele>273.261</ele>
        <time>2019-10-16T10:04:20Z</time>
      </trkpt>
      <trkpt lat="39.41829" lon="-7.85546">
        <ele>273.207</ele>
        <time>2019-10-16T10:04:40Z</time>
      </trkpt>
      <trkpt lat="39.41837" lon="-7.85552">
        <ele>272.808</ele>
        <time>2019-10-16T10:05:00Z</time>
      </trkpt>
      <trkpt lat="39.41846" lon="-7.85559">
        <ele>272.017</ele>
        <time>2019-10-16T10:05:20Z</time>
      </trkpt>
      <trkpt lat="39.41889" lon="-7.85585">
        <ele>269.015</ele>
        <time>2019-10-16T10:05:40Z</time>
      </trkpt>
      <trkpt lat="39.41899" lon="-7.85592">
        <ele>268.697</ele>
        <time>2019-10-16T10:06:00Z</time>
      </trkpt>
      <trkpt lat="39.41927" lon="-7.8561">
        <ele>267.667</ele>
        <time>2019-10-16T10:06:20Z</time>
      </trkpt>
      <trkpt lat="39.41945" lon="-7.85627">
        <ele>267.029</ele>
        <time>2019-10-16T10:06:40Z</time>
      </trkpt>
      <trkpt lat="39.42002" lon="-7.85733">
        <ele>261.05</ele>
        <time>2019-10-16T10:07:00Z</time>
      </trkpt>
      <trkpt lat="39.42006" lon="-7.85746">
        <ele>260.832</ele>
        <time>2019-10-16T10:07:20Z</time>
      </trkpt>
      <trkpt lat="39.42008" lon="-7.8576">
        <ele>260.772</ele>
        <time>2019-10-16T10:07:40Z</time>
      </trkpt>
      <trkpt lat="39.4201" lon="-7.85785">
        <ele>260.818</ele>
        <time>2019-10-16T10:08:00Z</time>
      </trkpt>
      <trkpt lat="39.42019" lon="-7.85795">
        <ele>260.598</ele>
        <time>2019-10-16T10:08:20Z</time>
      </trkpt>
      <trkpt lat="39.42025" lon="-7.85806">
        <ele>260.217</ele>
        <time>2019-10-16T10:08:40Z</time>
      </trkpt>
      <trkpt lat="39.42041" lon="-7.85812">
        <ele>259.908</ele>
        <time>2019-10-16T10:09:00Z</time>
      </trkpt>
      <trkpt lat="39.42057" lon="-7.85819">
        <ele>259.435</ele>
        <time>2019-10-16T10:09:20Z</time>
      </trkpt>
      <trkpt lat="39.42106" lon="-7.85859">
        <ele>255.663</ele>
        <time>2019-10-16T10:09:40Z</time>
      </trkpt>
      <trkpt lat="39.42135" lon="-7.85884">
        <ele>255.255</ele>
        <time>2019-10-16T10:10:00Z</time>
      </trkpt>
      <trkpt lat="39.42145" lon="-7.85899">
        <ele>255.755</ele>
        <time>2019-10-16T10:10:20Z</time>
      </trkpt>
      <trkpt lat="39.42162" lon="-7.85923">
        <ele>254.487</ele>
        <time>2019-10-16T10:10:40Z</time>
      </trkpt>
      <trkpt lat="39.42168" lon="-7.85929">
        <ele>253.138</ele>
        <time>2019-10-16T10:11:00Z</time>
      </trkpt>
      <trkpt lat="39.42175" lon="-7.85932">
        <ele>251.36</ele>
        <time>2019-10-16T10:11:20Z</time>
      </trkpt>
      <trkpt lat="39.42183" lon="-7.85936">
        <ele>249.53</ele>
        <time>2019-10-16T10:11:40Z</time>
      </trkpt>
      <trkpt lat="39.42191" lon="-7.85938">
        <ele>247.848</ele>
        <time>2019-10-16T10:12:00Z</time>
      </trkpt>
      <trkpt lat="39.42199" lon="-7.8594">
        <ele>245.961</ele>
        <time>2019-10-16T10:12:20Z</time>
      </trkpt>
      <trkpt lat="39.42222" lon="-7.85943">
        <ele>239.417</ele>
        <time>2019-10-16T10:12:40Z</time>
      </trkpt>
      <trkpt lat="39.42229" lon="-7.85946">
        <ele>239.008</ele>
        <time>2019-10-16T10:13:00Z</time>
      </trkpt>
      <trkpt lat="39.42236" lon="-7.85951">
        <ele>238.938</ele>
        <time>2019-10-16T10:13:20Z</time>
      </trkpt>
      <trkpt lat="39.42241" lon="-7.85956">
        <ele>238.926</ele>
        <time>2019-10-16T10:13:40Z</time>
      </trkpt>
      <trkpt lat="39.42245" lon="-7.85962">
        <ele>238.998</ele>
        <time>2019-10-16T10:14:00Z</time>
      </trkpt>
      <trkpt lat="39.42247" lon="-7.85966">
        <ele>238.958</ele>
        <time>2019-10-16T10:14:20Z</time>
      </trkpt>
      <trkpt lat="39.42249" lon="-7.8597">
        <ele>239.06</ele>
        <time>2019-10-16T10:14:40Z</time>
      </trkpt>
      <trkpt lat="39.4225" lon="-7.85973">
        <ele>239.071</ele>
        <time>2019-10-16T10:15:00Z</time>
      </trkpt>
      <trkpt lat="39.4225" lon="-7.85975">
        <ele>239.043</ele>
        <time>2019-10-16T10:15:20Z</time>
      </trkpt>
      <trkpt lat="39.42251" lon="-7.85978">
        <ele>239.043</ele>
        <time>2019-10-16T10:15:40Z</time>
      </trkpt>
      <trkpt lat="39.42251" lon="-7.85981">
        <ele>239.083</ele>
        <time>2019-10-16T10:16:00Z</time>
      </trkpt>
      <trkpt lat="39.4225" lon="-7.85991">
        <ele>239.025</ele>
        <time>2019-10-16T10:16:20Z</time>
      </trkpt>
      <trkpt lat="39.4225" lon="-7.86006">
        <ele>239.217</ele>
        <time>2019-10-16T10:16:40Z</time>
      </trkpt>
      <trkpt lat="39.42249" lon="-7.86043">
        <ele>239.908</ele>
        <time>2019-10-16T10:17:00Z</time>
      </trkpt>
      <trkpt lat="39.42249" lon="-7.86052">
        <ele>240.072</ele>
        <time>2019-10-16T10:17:20Z</time>
      </trkpt>
      <trkpt lat="39.42258" lon="-7.86085">
        <ele>242.05</ele>
        <time>2019-10-16T10:17:40Z</time>
      </trkpt>
      <trkpt lat="39.42262" lon="-7.86088">
        <ele>242.562</ele>
        <time>2019-10-16T10:18:00Z</time>
      </trkpt>
      <trkpt lat="39.42266" lon="-7.8609">
        <ele>243.142</ele>
        <time>2019-10-16T10:18:20Z</time>
      </trkpt>
      <trkpt lat="39.4227" lon="-7.86091">
        <ele>243.594</ele>
        <time>2019-10-16T10:18:40Z</time>
      </trkpt>
      <trkpt lat="39.42275" lon="-7.86088">
        <ele>243.835</ele>
        <time>2019-10-16T10:19:00Z</time>
      </trkpt>
      <trkpt lat="39.42279" lon="-7.86084">
        <ele>244.017</ele>
        <time>2019-10-16T10:19:20Z</time>
      </trkpt>
      <trkpt lat="39.42284" lon="-7.86078">
        <ele>243.857</ele>
        <time>2019-10-16T10:19:40Z</time>
      </trkpt>
      <trkpt lat="39.42289" lon="-7.86072">
        <ele>243.549</ele>
        <time>2019-10-16T10:20:00Z</time>
      </trkpt>
      <trkpt lat="39.42302" lon="-7.86058">
        <ele>243.002</ele>
        <time>2019-10-16T10:20:20Z</time>
      </trkpt>
      <trkpt lat="39.42334" lon="-7.86027">
        <ele>245.022</ele>
        <time>2019-10-16T10:20:40Z</time>
      </trkpt>
      <trkpt lat="39.42342" lon="-7.86016">
        <ele>244.508</ele>
        <time>2019-10-16T10:21:00Z</time>
      </trkpt>
      <trkpt lat="39.4238" lon="-7.8597">
        <ele>245.028</ele>
        <time>2019-10-16T10:21:20Z</time>
      </trkpt>
      <trkpt lat="39.42504" lon="-7.85835">
        <ele>247.216</ele>
        <time>2019-10-16T10:21:40Z</time>
      </trkpt>
      <trkpt lat="39.42601" lon="-7.85718">
        <ele>249.468</ele>
        <time>2019-10-16T10:22:00Z</time>
      </trkpt>
      <trkpt lat="39.42709" lon="-7.85604">
        <ele>248.548</ele>
        <time>2019-10-16T10:22:20Z</time>
      </trkpt>
      <trkpt lat="39.42719" lon="-7.85599">
        <ele>248.11</ele>
        <time>2019-10-16T10:22:40Z</time>
      </trkpt>
      <trkpt lat="39.42729" lon="-7.85595">
        <ele>248.021</ele>
        <time>2019-10-16T10:23:00Z</time>
      </trkpt>
      <trkpt lat="39.42741" lon="-7.85594">
        <ele>248.133</ele>
        <time>2019-10-16T10:23:20Z</time>
      </trkpt>
      <trkpt lat="39.42753" lon="-7.85595">
        <ele>248.433</ele>
        <time>2019-10-16T10:23:40Z</time>
      </trkpt>
      <trkpt lat="39.42764" lon="-7.85596">
        <ele>249.389</ele>
        <time>2019-10-16T10:24:00Z</time>
      </trkpt>
      <trkpt lat="39.42773" lon="-7.85594">
        <ele>249.806</ele>
        <time>2019-10-16T10:24:20Z</time>
      </trkpt>
      <trkpt lat="39.42782" lon="-7.85589">
        <ele>250.026</ele>
        <time>2019-10-16T10:24:40Z</time>
      </trkpt>
      <trkpt lat="39.42789" lon="-7.85581">
        <ele>250.008</ele>
        <time>2019-10-16T10:25:00Z</time>
      </trkpt>
      <trkpt lat="39.42795" lon="-7.85571">
        <ele>249.662</ele>
        <time>2019-10-16T10:25:20Z</time>
      </trkpt>
      <trkpt lat="39.42799" lon="-7.85561">
        <ele>249.24</ele>
        <time>2019-10-16T10:25:40Z</time>
      </trkpt>
      <trkpt lat="39.42804" lon="-7.85551">
        <ele>249.032</ele>
        <time>2019-10-16T10:26:00Z</time>
      </trkpt>
      <trkpt lat="39.4281" lon="-7.85542">
        <ele>248.872</ele>
        <time>2019-10-16T10:26:20Z</time>
      </trkpt>
      <trkpt lat="39.42818" lon="-7.85535">
        <ele>248.924</ele>
        <time>2019-10-16T10:26:40Z</time>
      </trkpt>
      <trkpt lat="39.42909" lon="-7.85452">
        <ele>252.995</ele>
        <time>2019-10-16T10:27:00Z</time>
      </trkpt>
      <trkpt lat="39.43006" lon="-7.85361">
        <ele>257.627</ele>
        <time>2019-10-16T10:27:20Z</time>
      </trkpt>
      <trkpt lat="39.43041" lon="-7.85312">
        <ele>255.777</ele>
        <time>2019-10-16T10:27:40Z</time>
      </trkpt>
      <trkpt lat="39.43066" lon="-7.85284">
        <ele>254.446</ele>
        <time>2019-10-16T10:28:00Z</time>
      </trkpt>
      <trkpt lat="39.43097" lon="-7.85259">
        <ele>256.088</ele>
        <time>2019-10-16T10:28:20Z</time>
      </trkpt>
      <trkpt lat="39.43107" lon="-7.85249">
        <ele>256.316</ele>
        <time>2019-10-16T10:28:40Z</time>
      </trkpt>
      <trkpt lat="39.4321" lon="-7.8512">
        <ele>257.508</ele>
        <time>2019-10-16T10:29:00Z</time>
      </trkpt>
      <trkpt lat="39.43242" lon="-7.85084">
        <ele>257.078</ele>
        <time>2019-10-16T10:29:20Z</time>
      </trkpt>
      <trkpt lat="39.43248" lon="-7.85075">
        <ele>257.396</ele>
        <time>2019-10-16T10:29:40Z</time>
      </trkpt>
      <trkpt lat="39.43252" lon="-7.85066">
        <ele>257.698</ele>
        <time>2019-10-16T10:30:00Z</time>
      </trkpt>
      <trkpt lat="39.43254" lon="-7.85056">
        <ele>258.048</ele>
        <time>2019-10-16T10:30:20Z</time>
      </trkpt>
      <trkpt lat="39.43255" lon="-7.85046">
        <ele>258.59</ele>
        <time>2019-10-16T10:30:40Z</time>
      </trkpt>
      <trkpt lat="39.43253" lon="-7.85036">
        <ele>258.951</ele>
        <time>2019-10-16T10:31:00Z</time>
      </trkpt>
      <trkpt lat="39.43252" lon="-7.85027">
        <ele>259.133</ele>
        <time>2019-10-16T10:31:20Z</time>
      </trkpt>
      <trkpt lat="39.43249" lon="-7.84997">
        <ele>258.973</ele>
        <time>2019-10-16T10:31:40Z</time>
      </trkpt>
      <trkpt lat="39.43251" lon="-7.84995">
        <ele>259.172</ele>
        <time>2019-10-16T10:32:00Z</time>
      </trkpt>
      <trkpt lat="39.43253" lon="-7.84992">
        <ele>259.313</ele>
        <time>2019-10-16T10:32:20Z</time>
      </trkpt>
      <trkpt lat="39.43256" lon="-7.84989">
        <ele>259.614</ele>
        <time>2019-10-16T10:32:40Z</time>
      </trkpt>
      <trkpt lat="39.4326" lon="-7.84985">
        <ele>260.108</ele>
        <time>2019-10-16T10:33:00Z</time>
      </trkpt>
      <trkpt lat="39.43267" lon="-7.84981">
        <ele>260.851</ele>
        <time>2019-10-16T10:33:20Z</time>
      </trkpt>
      <trkpt lat="39.43274" lon="-7.84976">
        <ele>261.689</ele>
        <time>2019-10-16T10:33:40Z</time>
      </trkpt>
      <trkpt lat="39.43282" lon="-7.84968">
        <ele>262.261</ele>
        <time>2019-10-16T10:34:00Z</time>
      </trkpt>
      <trkpt lat="39.43289" lon="-7.84959">
        <ele>262.651</ele>
        <time>2019-10-16T10:34:20Z</time>
      </trkpt>
      <trkpt lat="39.43322" lon="-7.84925">
        <ele>264.253</ele>
        <time>2019-10-16T10:34:40Z</time>
      </trkpt>
      <trkpt lat="39.43361" lon="-7.84892">
        <ele>267.834</ele>
        <time>2019-10-16T10:35:00Z</time>
      </trkpt>
      <trkpt lat="39.43435" lon="-7.84837">
        <ele>271.746</ele>
        <time>2019-10-16T10:35:20Z</time>
      </trkpt>
      <trkpt lat="39.43542" lon="-7.84751">
        <ele>271.596</ele>
        <time>2019-10-16T10:35:40Z</time>
      </trkpt>
      <trkpt lat="39.43567" lon="-7.84732">
        <ele>272.494</ele>
        <time>2019-10-16T10:36:00Z</time>
      </trkpt>
      <trkpt lat="39.43731" lon="-7.84615">
        <ele>273.357</ele>
        <time>2019-10-16T10:36:20Z</time>
      </trkpt>
      <trkpt lat="39.43883" lon="-7.84513">
        <ele>278.822</ele>
        <time>2019-10-16T10:36:40Z</time>
      </trkpt>
      <trkpt lat="39.4395" lon="-7.84445">
        <ele>276.208</ele>
        <time>2019-10-16T10:37:00Z</time>
      </trkpt>
      <trkpt lat="39.43952" lon="-7.84443">
        <ele>276.243</ele>
        <time>2019-10-16T10:37:20Z</time>
      </trkpt>
      <trkpt lat="39.43951" lon="-7.84443">
        <ele>276.251</ele>
        <time>2019-10-16T10:37:40Z</time>
      </trkpt>
      <trkpt lat="39.43951" lon="-7.84443">
        <ele>276.273</ele>
        <time>2019-10-16T10:38:00Z</time>
      </trkpt>
      <trkpt lat="39.43951" lon="-7.84443">
        <ele>276.283</ele>
        <time>2019-10-16T10:38:20Z</time>
      </trkpt>
      <trkpt lat="39.4395" lon="-7.84443">
        <ele>276.275</ele>
        <time>2019-10-16T10:38:40Z</time>
      </trkpt>
      <trkpt lat="39.43957" lon="-7.84437">
        <ele>276.366</ele>
        <time>2019-10-16T10:39:00Z</time>
      </trkpt>
      <trkpt lat="39.43961" lon="-7.84433">
        <ele>276.438</ele>
        <time>2019-10-16T10:39:20Z</time>
      </trkpt>
      <trkpt lat="39.43967" lon="-7.84427">
        <ele>276.798</ele>
        <time>2019-10-16T10:39:40Z</time>
      </trkpt>
      <trkpt lat="39.44019" lon="-7.84364">
        <ele>274.814</ele>
        <time>2019-10-16T10:40:00Z</time>
      </trkpt>
      <trkpt lat="39.4411" lon="-7.84244">
        <ele>276.254</ele>
        <time>2019-10-16T10:40:20Z</time>
      </trkpt>
      <trkpt lat="39.44187" lon="-7.84123">
        <ele>277.709</ele>
        <time>2019-10-16T10:40:40Z</time>
      </trkpt>
      <trkpt lat="39.44246" lon="-7.84015">
        <ele>280.008</ele>
        <time>2019-10-16T10:41:00Z</time>
      </trkpt>
      <trkpt lat="39.44313" lon="-7.83891">
        <ele>279.095</ele>
        <time>2019-10-16T10:41:20Z</time>
      </trkpt>
      <trkpt lat="39.44318" lon="-7.83883">
        <ele>279.453</ele>
        <time>2019-10-16T10:41:40Z</time>
      </trkpt>
      <trkpt lat="39.44322" lon="-7.83878">
        <ele>279.885</ele>
        <time>2019-10-16T10:42:00Z</time>
      </trkpt>
      <trkpt lat="39.44326" lon="-7.83875">
        <ele>280.095</ele>
        <time>2019-10-16T10:42:20Z</time>
      </trkpt>
      <trkpt lat="39.44329" lon="-7.83873">
        <ele>280.217</ele>
        <time>2019-10-16T10:42:40Z</time>
      </trkpt>
      <trkpt lat="39.44331" lon="-7.83872">
        <ele>280.218</ele>
        <time>2019-10-16T10:43:00Z</time>
      </trkpt>
      <trkpt lat="39.44332" lon="-7.83873">
        <ele>280.22</ele>
        <time>2019-10-16T10:43:20Z</time>
      </trkpt>
      <trkpt lat="39.44338" lon="-7.83872">
        <ele>279.97</ele>
        <time>2019-10-16T10:43:40Z</time>
      </trkpt>
      <trkpt lat="39.44343" lon="-7.8387">
        <ele>279.753</ele>
        <time>2019-10-16T10:44:00Z</time>
      </trkpt>
      <trkpt lat="39.44348" lon="-7.83867">
        <ele>279.704</ele>
        <time>2019-10-16T10:44:20Z</time>
      </trkpt>
      <trkpt lat="39.44352" lon="-7.83861">
        <ele>279.714</ele>
        <time>2019-10-16T10:44:40Z</time>
      </trkpt>
      <trkpt lat="39.44355" lon="-7.83855">
        <ele>279.508</ele>
        <time>2019-10-16T10:45:00Z</time>
      </trkpt>
      <trkpt lat="39.44358" lon="-7.83848">
        <ele>279.319</ele>
        <time>2019-10-16T10:45:20Z</time>
      </trkpt>
      <trkpt lat="39.44391" lon="-7.83753">
        <ele>277.717</ele>
        <time>2019-10-16T10:45:40Z</time>
      </trkpt>
      <trkpt lat="39.4445" lon="-7.83632">
        <ele>279.059</ele>
        <time>2019-10-16T10:46:00Z</time>
      </trkpt>
      <trkpt lat="39.44457" lon="-7.83618">
        <ele>279.339</ele>
        <time>2019-10-16T10:46:20Z</time>
      </trkpt>
      <trkpt lat="39.44464" lon="-7.83603">
        <ele>279.631</ele>
        <time>2019-10-16T10:46:40Z</time>
      </trkpt>
      <trkpt lat="39.4447" lon="-7.83587">
        <ele>279.252</ele>
        <time>2019-10-16T10:47:00Z</time>
      </trkpt>
      <trkpt lat="39.44475" lon="-7.83569">
        <ele>279.164</ele>
        <time>2019-10-16T10:47:20Z</time>
      </trkpt>
      <trkpt lat="39.44479" lon="-7.83552">
        <ele>279.424</ele>
        <time>2019-10-16T10:47:40Z</time>
      </trkpt>
      <trkpt lat="39.44518" lon="-7.83421">
        <ele>283.581</ele>
        <time>2019-10-16T10:48:00Z</time>
      </trkpt>
      <trkpt lat="39.44534" lon="-7.8338">
        <ele>283.261</ele>
        <time>2019-10-16T10:48:20Z</time>
      </trkpt>
      <trkpt lat="39.44541" lon="-7.83367">
        <ele>283.117</ele>
        <time>2019-10-16T10:48:40Z</time>
      </trkpt>
      <trkpt lat="39.44541" lon="-7.83364">
        <ele>283.108</ele>
        <time>2019-10-16T10:49:00Z</time>
      </trkpt>
      <trkpt lat="39.4454" lon="-7.8336">
        <ele>283.012</ele>
        <time>2019-10-16T10:49:20Z</time>
      </trkpt>
      <trkpt lat="39.44538" lon="-7.83354">
        <ele>283.29</ele>
        <time>2019-10-16T10:49:40Z</time>
      </trkpt>
      <trkpt lat="39.44535" lon="-7.83348">
        <ele>283.472</ele>
        <time>2019-10-16T10:50:00Z</time>
      </trkpt>
      <trkpt lat="39.44532" lon="-7.83341">
        <ele>283.662</ele>
        <time>2019-10-16T10:50:20Z</time>
      </trkpt>
      <trkpt lat="39.4453" lon="-7.83333">
        <ele>283.914</ele>
        <time>2019-10-16T10:50:40Z</time>
      </trkpt>
      <trkpt lat="39.4453" lon="-7.83325">
        <ele>284.255</ele>
        <time>2019-10-16T10:51:00Z</time>
      </trkpt>
      <trkpt lat="39.44531" lon="-7.83315">
        <ele>284.647</ele>
        <time>2019-10-16T10:51:20Z</time>
      </trkpt>
      <trkpt lat="39.44534" lon="-7.83303">
        <ele>285.187</ele>
        <time>2019-10-16T10:51:40Z</time>
      </trkpt>
      <trkpt lat="39.44539" lon="-7.83276">
        <ele>286.095</ele>
        <time>2019-10-16T10:52:00Z</time>
      </trkpt>
      <trkpt lat="39.44546" lon="-7.83192">
        <ele>284.649</ele>
        <time>2019-10-16T10:52:20Z</time>
      </trkpt>
      <trkpt lat="39.44548" lon="-7.83178">
        <ele>284.123</ele>
        <time>2019-10-16T10:52:40Z</time>
      </trkpt>
      <trkpt lat="39.44551" lon="-7.83165">
        <ele>283.808</ele>
        <time>2019-10-16T10:53:00Z</time>
      </trkpt>
      <trkpt lat="39.44558" lon="-7.8314">
        <ele>283.283</ele>
        <time>2019-10-16T10:53:20Z</time>
      </trkpt>
      <trkpt lat="39.44563" lon="-7.83129">
        <ele>283.541</ele>
        <time>2019-10-16T10:53:40Z</time>
      </trkpt>
      <trkpt lat="39.44569" lon="-7.83117">
        <ele>284.033</ele>
        <time>2019-10-16T10:54:00Z</time>
      </trkpt>
      <trkpt lat="39.44576" lon="-7.83105">
        <ele>284.583</ele>
        <time>2019-10-16T10:54:20Z</time>
      </trkpt>
      <trkpt lat="39.44584" lon="-7.83094">
        <ele>285.015</ele>
        <time>2019-10-16T10:54:40Z</time>
      </trkpt>
      <trkpt lat="39.44606" lon="-7.83064">
        <ele>285.726</ele>
        <time>2019-10-16T10:55:00Z</time>
      </trkpt>
      <trkpt lat="39.44615" lon="-7.83057">
        <ele>286.088</ele>
        <time>2019-10-16T10:55:20Z</time>
      </trkpt>
      <trkpt lat="39.44623" lon="-7.83051">
        <ele>286.028</ele>
        <time>2019-10-16T10:55:40Z</time>
      </trkpt>
      <trkpt lat="39.44633" lon="-7.83046">
        <ele>286.042</ele>
        <time>2019-10-16T10:56:00Z</time>
      </trkpt>
      <trkpt lat="39.44645" lon="-7.83041">
        <ele>286.022</ele>
        <time>2019-10-16T10:56:20Z</time>
      </trkpt>
      <trkpt lat="39.44658" lon="-7.83037">
        <ele>286.014</ele>
        <time>2019-10-16T10:56:40Z</time>
      </trkpt>
      <trkpt lat="39.44706" lon="-7.83017">
        <ele>286.208</ele>
        <time>2019-10-16T10:57:00Z</time>
      </trkpt>
      <trkpt lat="39.44712" lon="-7.83012">
        <ele>286.418</ele>
        <time>2019-10-16T10:57:20Z</time>
      </trkpt>
      <trkpt lat="39.44718" lon="-7.83006">
        <ele>286.726</ele>
        <time>2019-10-16T10:57:40Z</time>
      </trkpt>
      <trkpt lat="39.44723" lon="-7.82998">
        <ele>287.078</ele>
        <time>2019-10-16T10:58:00Z</time>
      </trkpt>
      <trkpt lat="39.44727" lon="-7.82988">
        <ele>287.418</ele>
        <time>2019-10-16T10:58:20Z</time>
      </trkpt>
      <trkpt lat="39.4473" lon="-7.82975">
        <ele>287.64</ele>
        <time>2019-10-16T10:58:40Z</time>
      </trkpt>
      <trkpt lat="39.44768" lon="-7.82827">
        <ele>284.421</ele>
        <time>2019-10-16T10:59:00Z</time>
      </trkpt>
      <trkpt lat="39.44809" lon="-7.82679">
        <ele>279.133</ele>
        <time>2019-10-16T10:59:20Z</time>
      </trkpt>
      <trkpt lat="39.44863" lon="-7.82502">
        <ele>281.953</ele>
        <time>2019-10-16T10:59:40Z</time>
      </trkpt>
      <trkpt lat="39.449" lon="-7.82367">
        <ele>286.429</ele>
        <time>2019-10-16T11:00:00Z</time>
      </trkpt>
      <trkpt lat="39.44953" lon="-7.82177">
        <ele>285.9</ele>
        <time>2019-10-16T11:00:20Z</time>
      </trkpt>
      <trkpt lat="39.44992" lon="-7.82041">
        <ele>287.82</ele>
        <time>2019-10-16T11:00:40Z</time>
      </trkpt>
      <trkpt lat="39.45041" lon="-7.81862">
        <ele>290.508</ele>
        <time>2019-10-16T11:01:00Z</time>
      </trkpt>
      <trkpt lat="39.45073" lon="-7.81743">
        <ele>291.566</ele>
        <time>2019-10-16T11:01:20Z</time>
      </trkpt>
      <trkpt lat="39.45079" lon="-7.81714">
        <ele>292.014</ele>
        <time>2019-10-16T11:01:40Z</time>
      </trkpt>
      <trkpt lat="39.45091" lon="-7.81668">
        <ele>291.466</ele>
        <time>2019-10-16T11:02:00Z</time>
      </trkpt>
      <trkpt lat="39.45115" lon="-7.81595">
        <ele>290.786</ele>
        <time>2019-10-16T11:02:20Z</time>
      </trkpt>
      <trkpt lat="39.4512" lon="-7.8157">
        <ele>291.348</ele>
        <time>2019-10-16T11:02:40Z</time>
      </trkpt>
      <trkpt lat="39.45131" lon="-7.81514">
        <ele>291.439</ele>
        <time>2019-10-16T11:03:00Z</time>
      </trkpt>
      <trkpt lat="39.45144" lon="-7.81472">
        <ele>291.251</ele>
        <time>2019-10-16T11:03:20Z</time>
      </trkpt>
      <trkpt lat="39.45144" lon="-7.8146">
        <ele>291.121</ele>
        <time>2019-10-16T11:03:40Z</time>
      </trkpt>
      <trkpt lat="39.45143" lon="-7.81447">
        <ele>291.087</ele>
        <time>2019-10-16T11:04:00Z</time>
      </trkpt>
      <trkpt lat="39.45141" lon="-7.81435">
        <ele>290.642</ele>
        <time>2019-10-16T11:04:20Z</time>
      </trkpt>
      <trkpt lat="39.45137" lon="-7.81423">
        <ele>290.126</ele>
        <time>2019-10-16T11:04:40Z</time>
      </trkpt>
      <trkpt lat="39.45131" lon="-7.81413">
        <ele>289.208</ele>
        <time>2019-10-16T11:05:00Z</time>
      </trkpt>
      <trkpt lat="39.45124" lon="-7.81403">
        <ele>288.212</ele>
        <time>2019-10-16T11:05:20Z</time>
      </trkpt>
      <trkpt lat="39.45116" lon="-7.81394">
        <ele>287.47</ele>
        <time>2019-10-16T11:05:40Z</time>
      </trkpt>
      <trkpt lat="39.45107" lon="-7.81386">
        <ele>286.962</ele>
        <time>2019-10-16T11:06:00Z</time>
      </trkpt>
      <trkpt lat="39.4503" lon="-7.81332">
        <ele>288.832</ele>
        <time>2019-10-16T11:06:20Z</time>
      </trkpt>
      <trkpt lat="39.44998" lon="-7.813">
        <ele>288.734</ele>
        <time>2019-10-16T11:06:40Z</time>
      </trkpt>
      <trkpt lat="39.44991" lon="-7.8129">
        <ele>288.125</ele>
        <time>2019-10-16T11:07:00Z</time>
      </trkpt>
      <trkpt lat="39.44986" lon="-7.81279">
        <ele>287.517</ele>
        <time>2019-10-16T11:07:20Z</time>
      </trkpt>
      <trkpt lat="39.44935" lon="-7.81145">
        <ele>288.897</ele>
        <time>2019-10-16T11:07:40Z</time>
      </trkpt>
      <trkpt lat="39.44919" lon="-7.81091">
        <ele>287.548</ele>
        <time>2019-10-16T11:08:00Z</time>
      </trkpt>
      <trkpt lat="39.4486" lon="-7.80952">
        <ele>284.361</ele>
        <time>2019-10-16T11:08:20Z</time>
      </trkpt>
      <trkpt lat="39.44809" lon="-7.80841">
        <ele>284.817</ele>
        <time>2019-10-16T11:08:40Z</time>
      </trkpt>
      <trkpt lat="39.44805" lon="-7.80828">
        <ele>284.708</ele>
        <time>2019-10-16T11:09:00Z</time>
      </trkpt>
      <trkpt lat="39.4477" lon="-7.80703">
        <ele>286.048</ele>
        <time>2019-10-16T11:09:20Z</time>
      </trkpt>
      <trkpt lat="39.44691" lon="-7.80461">
        <ele>288.926</ele>
        <time>2019-10-16T11:09:40Z</time>
      </trkpt>
      <trkpt lat="39.44641" lon="-7.80298">
        <ele>287.598</ele>
        <time>2019-10-16T11:10:00Z</time>
      </trkpt>
      <trkpt lat="39.44608" lon="-7.80169">
        <ele>287.268</ele>
        <time>2019-10-16T11:10:20Z</time>
      </trkpt>
      <trkpt lat="39.44587" lon="-7.80092">
        <ele>287.25</ele>
        <time>2019-10-16T11:10:40Z</time>
      </trkpt>
      <trkpt lat="39.44582" lon="-7.80085">
        <ele>287.291</ele>
        <time>2019-10-16T11:11:00Z</time>
      </trkpt>
      <trkpt lat="39.44576" lon="-7.80076">
        <ele>286.843</ele>
        <time>2019-10-16T11:11:20Z</time>
      </trkpt>
      <trkpt lat="39.44574" lon="-7.80068">
        <ele>286.333</ele>
        <time>2019-10-16T11:11:40Z</time>
      </trkpt>
      <trkpt lat="39.44569" lon="-7.7998">
        <ele>283.122</ele>
        <time>2019-10-16T11:12:00Z</time>
      </trkpt>
      <trkpt lat="39.44571" lon="-7.7981">
        <ele>286.762</ele>
        <time>2019-10-16T11:12:20Z</time>
      </trkpt>
      <trkpt lat="39.44573" lon="-7.79783">
        <ele>283.908</ele>
        <time>2019-10-16T11:12:40Z</time>
      </trkpt>
      <trkpt lat="39.44618" lon="-7.79565">
        <ele>284.508</ele>
        <time>2019-10-16T11:13:00Z</time>
      </trkpt>
      <trkpt lat="39.44724" lon="-7.7933">
        <ele>287.036</ele>
        <time>2019-10-16T11:13:20Z</time>
      </trkpt>
      <trkpt lat="39.44886" lon="-7.78999">
        <ele>284.884</ele>
        <time>2019-10-16T11:13:40Z</time>
      </trkpt>
      <trkpt lat="39.44993" lon="-7.78863">
        <ele>288.036</ele>
        <time>2019-10-16T11:14:00Z</time>
      </trkpt>
      <trkpt lat="39.45157" lon="-7.78731">
        <ele>285.386</ele>
        <time>2019-10-16T11:14:20Z</time>
      </trkpt>
      <trkpt lat="39.45467" lon="-7.78491">
        <ele>287.358</ele>
        <time>2019-10-16T11:14:40Z</time>
      </trkpt>
      <trkpt lat="39.45582" lon="-7.78341">
        <ele>287.079</ele>
        <time>2019-10-16T11:15:00Z</time>
      </trkpt>
      <trkpt lat="39.45843" lon="-7.77947">
        <ele>288.961</ele>
        <time>2019-10-16T11:15:20Z</time>
      </trkpt>
      <trkpt lat="39.46032" lon="-7.77696">
        <ele>290.221</ele>
        <time>2019-10-16T11:15:40Z</time>
      </trkpt>
      <trkpt lat="39.46211" lon="-7.77413">
        <ele>289.525</ele>
        <time>2019-10-16T11:16:00Z</time>
      </trkpt>
      <trkpt lat="39.46396" lon="-7.77121">
        <ele>286.926</ele>
        <time>2019-10-16T11:16:20Z</time>
      </trkpt>
      <trkpt lat="39.46477" lon="-7.76932">
        <ele>282.008</ele>
        <time>2019-10-16T11:16:40Z</time>
      </trkpt>
      <trkpt lat="39.46563" lon="-7.76581">
        <ele>278.808</ele>
        <time>2019-10-16T11:17:00Z</time>
      </trkpt>
      <trkpt lat="39.46639" lon="-7.76209">
        <ele>283.576</ele>
        <time>2019-10-16T11:17:20Z</time>
      </trkpt>
      <trkpt lat="39.46728" lon="-7.75897">
        <ele>283.584</ele>
        <time>2019-10-16T11:17:40Z</time>
      </trkpt>
      <trkpt lat="39.4682" lon="-7.75573">
        <ele>285.286</ele>
        <time>2019-10-16T11:18:00Z</time>
      </trkpt>
      <trkpt lat="39.46869" lon="-7.75431">
        <ele>286.456</ele>
        <time>2019-10-16T11:18:20Z</time>
      </trkpt>
      <trkpt lat="39.4689" lon="-7.75399">
        <ele>286.658</ele>
        <time>2019-10-16T11:18:40Z</time>
      </trkpt>
      <trkpt lat="39.47007" lon="-7.75239">
        <ele>285.079</ele>
        <time>2019-10-16T11:19:00Z</time>
      </trkpt>
      <trkpt lat="39.4706" lon="-7.7517">
        <ele>286.081</ele>
        <time>2019-10-16T11:19:20Z</time>
      </trkpt>
      <trkpt lat="39.47144" lon="-7.75043">
        <ele>281.841</ele>
        <time>2019-10-16T11:19:40Z</time>
      </trkpt>
      <trkpt lat="39.47184" lon="-7.74977">
        <ele>281.079</ele>
        <time>2019-10-16T11:20:00Z</time>
      </trkpt>
      <trkpt lat="39.47249" lon="-7.7487">
        <ele>278.305</ele>
        <time>2019-10-16T11:20:20Z</time>
      </trkpt>
      <trkpt lat="39.47316" lon="-7.7476">
        <ele>274.625</ele>
        <time>2019-10-16T11:20:40Z</time>
      </trkpt>
      <trkpt lat="39.47411" lon="-7.74555">
        <ele>274.808</ele>
        <time>2019-10-16T11:21:00Z</time>
      </trkpt>
      <trkpt lat="39.47491" lon="-7.74344">
        <ele>276.861</ele>
        <time>2019-10-16T11:21:20Z</time>
      </trkpt>
      <trkpt lat="39.475" lon="-7.74325">
        <ele>278.329</ele>
        <time>2019-10-16T11:21:40Z</time>
      </trkpt>
      <trkpt lat="39.47568" lon="-7.74188">
        <ele>282.611</ele>
        <time>2019-10-16T11:22:00Z</time>
      </trkpt>
      <trkpt lat="39.47617" lon="-7.74089">
        <ele>282.631</ele>
        <time>2019-10-16T11:22:20Z</time>
      </trkpt>
      <trkpt lat="39.47692" lon="-7.73932">
        <ele>287.523</ele>
        <time>2019-10-16T11:22:40Z</time>
      </trkpt>
      <trkpt lat="39.47842" lon="-7.73599">
        <ele>292.044</ele>
        <time>2019-10-16T11:23:00Z</time>
      </trkpt>
      <trkpt lat="39.47955" lon="-7.73429">
        <ele>290.896</ele>
        <time>2019-10-16T11:23:20Z</time>
      </trkpt>
      <trkpt lat="39.48109" lon="-7.73171">
        <ele>287.986</ele>
        <time>2019-10-16T11:23:40Z</time>
      </trkpt>
      <trkpt lat="39.48189" lon="-7.73034">
        <ele>283.658</ele>
        <time>2019-10-16T11:24:00Z</time>
      </trkpt>
      <trkpt lat="39.48233" lon="-7.72954">
        <ele>283.752</ele>
        <time>2019-10-16T11:24:20Z</time>
      </trkpt>
      <trkpt lat="39.48279" lon="-7.72851">
        <ele>279.417</ele>
        <time>2019-10-16T11:24:40Z</time>
      </trkpt>
      <trkpt lat="39.48328" lon="-7.72704">
        <ele>278.408</ele>
        <time>2019-10-16T11:25:00Z</time>
      </trkpt>
      <trkpt lat="39.48331" lon="-7.72694">
        <ele>278.069</ele>
        <time>2019-10-16T11:25:20Z</time>
      </trkpt>
      <trkpt lat="39.48334" lon="-7.72691">
        <ele>278.067</ele>
        <time>2019-10-16T11:25:40Z</time>
      </trkpt>
      <trkpt lat="39.48365" lon="-7.7263">
        <ele>278.169</ele>
        <time>2019-10-16T11:26:00Z</time>
      </trkpt>
      <trkpt lat="39.48388" lon="-7.72583">
        <ele>278.129</ele>
        <time>2019-10-16T11:26:20Z</time>
      </trkpt>
      <trkpt lat="39.48395" lon="-7.72573">
        <ele>278.521</ele>
        <time>2019-10-16T11:26:40Z</time>
      </trkpt>
      <trkpt lat="39.48403" lon="-7.72565">
        <ele>278.812</ele>
        <time>2019-10-16T11:27:00Z</time>
      </trkpt>
      <trkpt lat="39.48456" lon="-7.72515">
        <ele>277.134</ele>
        <time>2019-10-16T11:27:20Z</time>
      </trkpt>
      <trkpt lat="39.4846" lon="-7.7251">
        <ele>276.864</ele>
        <time>2019-10-16T11:27:40Z</time>
      </trkpt>
      <trkpt lat="39.48465" lon="-7.72505">
        <ele>276.426</ele>
        <time>2019-10-16T11:28:00Z</time>
      </trkpt>
      <trkpt lat="39.48471" lon="-7.72499">
        <ele>276.047</ele>
        <time>2019-10-16T11:28:20Z</time>
      </trkpt>
      <trkpt lat="39.48476" lon="-7.72495">
        <ele>275.911</ele>
        <time>2019-10-16T11:28:40Z</time>
      </trkpt>
      <trkpt lat="39.48486" lon="-7.72483">
        <ele>275.608</ele>
        <time>2019-10-16T11:29:00Z</time>
      </trkpt>
      <trkpt lat="39.48491" lon="-7.72476">
        <ele>275.246</ele>
        <time>2019-10-16T11:29:20Z</time>
      </trkpt>
      <trkpt lat="39.48534" lon="-7.72417">
        <ele>272.094</ele>
        <time>2019-10-16T11:29:40Z</time>
      </trkpt>
      <trkpt lat="39.48569" lon="-7.72379">
        <ele>270.336</ele>
        <time>2019-10-16T11:30:00Z</time>
      </trkpt>
      <trkpt lat="39.48578" lon="-7.72373">
        <ele>269.746</ele>
        <time>2019-10-16T11:30:20Z</time>
      </trkpt>
      <trkpt lat="39.48587" lon="-7.72368">
        <ele>269.078</ele>
        <time>2019-10-16T11:30:40Z</time>
      </trkpt>
      <trkpt lat="39.48631" lon="-7.72351">
        <ele>265.419</ele>
        <time>2019-10-16T11:31:00Z</time>
      </trkpt>
      <trkpt lat="39.48711" lon="-7.72315">
        <ele>265.081</ele>
        <time>2019-10-16T11:31:20Z</time>
      </trkpt>
      <trkpt lat="39.48718" lon="-7.72307">
        <ele>265.031</ele>
        <time>2019-10-16T11:31:40Z</time>
      </trkpt>
      <trkpt lat="39.48722" lon="-7.72297">
        <ele>265.668</ele>
        <time>2019-10-16T11:32:00Z</time>
      </trkpt>
      <trkpt lat="39.48724" lon="-7.72287">
        <ele>266.442</ele>
        <time>2019-10-16T11:32:20Z</time>
      </trkpt>
      <trkpt lat="39.48726" lon="-7.72275">
        <ele>267.026</ele>
        <time>2019-10-16T11:32:40Z</time>
      </trkpt>
      <trkpt lat="39.48727" lon="-7.72262">
        <ele>267.108</ele>
        <time>2019-10-16T11:33:00Z</time>
      </trkpt>
      <trkpt lat="39.48738" lon="-7.72177">
        <ele>267.92</ele>
        <time>2019-10-16T11:33:20Z</time>
      </trkpt>
      <trkpt lat="39.48745" lon="-7.72034">
        <ele>263.228</ele>
        <time>2019-10-16T11:33:40Z</time>
      </trkpt>
      <trkpt lat="39.48747" lon="-7.7202">
        <ele>263.14</ele>
        <time>2019-10-16T11:34:00Z</time>
      </trkpt>
      <trkpt lat="39.48749" lon="-7.72007">
        <ele>263.02</ele>
        <time>2019-10-16T11:34:20Z</time>
      </trkpt>
      <trkpt lat="39.48753" lon="-7.71994">
        <ele>263.562</ele>
        <time>2019-10-16T11:34:40Z</time>
      </trkpt>
      <trkpt lat="39.48765" lon="-7.71962">
        <ele>264.373</ele>
        <time>2019-10-16T11:35:00Z</time>
      </trkpt>
      <trkpt lat="39.48771" lon="-7.71954">
        <ele>264.125</ele>
        <time>2019-10-16T11:35:20Z</time>
      </trkpt>
      <trkpt lat="39.48778" lon="-7.71948">
        <ele>263.935</ele>
        <time>2019-10-16T11:35:40Z</time>
      </trkpt>
      <trkpt lat="39.48786" lon="-7.71945">
        <ele>264.368</ele>
        <time>2019-10-16T11:36:00Z</time>
      </trkpt>
      <trkpt lat="39.48794" lon="-7.71944">
        <ele>264.642</ele>
        <time>2019-10-16T11:36:20Z</time>
      </trkpt>
      <trkpt lat="39.48802" lon="-7.71943">
        <ele>264.926</ele>
        <time>2019-10-16T11:36:40Z</time>
      </trkpt>
      <trkpt lat="39.4881" lon="-7.71941">
        <ele>265.308</ele>
        <time>2019-10-16T11:37:00Z</time>
      </trkpt>
      <trkpt lat="39.48818" lon="-7.71938">
        <ele>265.92</ele>
        <time>2019-10-16T11:37:20Z</time>
      </trkpt>
      <trkpt lat="39.48823" lon="-7.71934">
        <ele>266.368</ele>
        <time>2019-10-16T11:37:40Z</time>
      </trkpt>
      <trkpt lat="39.48828" lon="-7.71926">
        <ele>266.66</ele>
        <time>2019-10-16T11:38:00Z</time>
      </trkpt>
      <trkpt lat="39.48832" lon="-7.71916">
        <ele>266.85</ele>
        <time>2019-10-16T11:38:20Z</time>
      </trkpt>
      <trkpt lat="39.48835" lon="-7.71904">
        <ele>266.712</ele>
        <time>2019-10-16T11:38:40Z</time>
      </trkpt>
      <trkpt lat="39.48839" lon="-7.71893">
        <ele>266.783</ele>
        <time>2019-10-16T11:39:00Z</time>
      </trkpt>
      <trkpt lat="39.48854" lon="-7.71855">
        <ele>266.035</ele>
        <time>2019-10-16T11:39:20Z</time>
      </trkpt>
      <trkpt lat="39.48858" lon="-7.7184">
        <ele>265.935</ele>
        <time>2019-10-16T11:39:40Z</time>
      </trkpt>
      <trkpt lat="39.48861" lon="-7.71825">
        <ele>265.454</ele>
        <time>2019-10-16T11:40:00Z</time>
      </trkpt>
      <trkpt lat="39.48874" lon="-7.71725">
        <ele>264.556</ele>
        <time>2019-10-16T11:40:20Z</time>
      </trkpt>
      <trkpt lat="39.48878" lon="-7.71712">
        <ele>264.511</ele>
        <time>2019-10-16T11:40:40Z</time>
      </trkpt>
      <trkpt lat="39.48883" lon="-7.717">
        <ele>264.308</ele>
        <time>2019-10-16T11:41:00Z</time>
      </trkpt>
      <trkpt lat="39.4889" lon="-7.71689">
        <ele>264.119</ele>
        <time>2019-10-16T11:41:20Z</time>
      </trkpt>
      <trkpt lat="39.48897" lon="-7.71677">
        <ele>264.537</ele>
        <time>2019-10-16T11:41:40Z</time>
      </trkpt>
      <trkpt lat="39.4894" lon="-7.71559">
        <ele>264.959</ele>
        <time>2019-10-16T11:42:00Z</time>
      </trkpt>
      <trkpt lat="39.48965" lon="-7.71476">
        <ele>267.059</ele>
        <time>2019-10-16T11:42:20Z</time>
      </trkpt>
      <trkpt lat="39.4897" lon="-7.71463">
        <ele>267.341</ele>
        <time>2019-10-16T11:42:40Z</time>
      </trkpt>
      <trkpt lat="39.48977" lon="-7.71451">
        <ele>267.972</ele>
        <time>2019-10-16T11:43:00Z</time>
      </trkpt>
      <trkpt lat="39.48986" lon="-7.71439">
        <ele>267.924</ele>
        <time>2019-10-16T11:43:20Z</time>
      </trkpt>
      <trkpt lat="39.48994" lon="-7.71428">
        <ele>267.994</ele>
        <time>2019-10-16T11:43:40Z</time>
      </trkpt>
      <trkpt lat="39.49001" lon="-7.71414">
        <ele>268.042</ele>
        <time>2019-10-16T11:44:00Z</time>
      </trkpt>
      <trkpt lat="39.49007" lon="-7.714">
        <ele>268.122</ele>
        <time>2019-10-16T11:44:20Z</time>
      </trkpt>
      <trkpt lat="39.49012" lon="-7.71384">
        <ele>268.014</ele>
        <time>2019-10-16T11:44:40Z</time>
      </trkpt>
      <trkpt lat="39.49016" lon="-7.71366">
        <ele>268.008</ele>
        <time>2019-10-16T11:45:00Z</time>
      </trkpt>
      <trkpt lat="39.49018" lon="-7.71347">
        <ele>268.518</ele>
        <time>2019-10-16T11:45:20Z</time>
      </trkpt>
      <trkpt lat="39.49035" lon="-7.7119">
        <ele>270.316</ele>
        <time>2019-10-16T11:45:40Z</time>
      </trkpt>
      <trkpt lat="39.49037" lon="-7.71075">
        <ele>268.748</ele>
        <time>2019-10-16T11:46:00Z</time>
      </trkpt>
      <trkpt lat="39.49039" lon="-7.7106">
        <ele>268.818</ele>
        <time>2019-10-16T11:46:20Z</time>
      </trkpt>
      <trkpt lat="39.49044" lon="-7.7103">
        <ele>269.79</ele>
        <time>2019-10-16T11:46:40Z</time>
      </trkpt>
      <trkpt lat="39.49045" lon="-7.71016">
        <ele>269.971</ele>
        <time>2019-10-16T11:47:00Z</time>
      </trkpt>
      <trkpt lat="39.49044" lon="-7.71001">
        <ele>269.773</ele>
        <time>2019-10-16T11:47:20Z</time>
      </trkpt>
      <trkpt lat="39.49041" lon="-7.70987">
        <ele>269.463</ele>
        <time>2019-10-16T11:47:40Z</time>
      </trkpt>
      <trkpt lat="39.49035" lon="-7.70974">
        <ele>268.829</ele>
        <time>2019-10-16T11:48:00Z</time>
      </trkpt>
      <trkpt lat="39.4903" lon="-7.70962">
        <ele>268.2</ele>
        <time>2019-10-16T11:48:20Z</time>
      </trkpt>
      <trkpt lat="39.49021" lon="-7.7094">
        <ele>268.02</ele>
        <time>2019-10-16T11:48:40Z</time>
      </trkpt>
      <trkpt lat="39.49018" lon="-7.70929">
        <ele>268.008</ele>
        <time>2019-10-16T11:49:00Z</time>
      </trkpt>
      <trkpt lat="39.49018" lon="-7.70918">
        <ele>267.916</ele>
        <time>2019-10-16T11:49:20Z</time>
      </trkpt>
      <trkpt lat="39.49019" lon="-7.70905">
        <ele>268.194</ele>
        <time>2019-10-16T11:49:40Z</time>
      </trkpt>
      <trkpt lat="39.49023" lon="-7.70893">
        <ele>268.436</ele>
        <time>2019-10-16T11:50:00Z</time>
      </trkpt>
      <trkpt lat="39.49028" lon="-7.7088">
        <ele>269.396</ele>
        <time>2019-10-16T11:50:20Z</time>
      </trkpt>
      <trkpt lat="39.49035" lon="-7.70868">
        <ele>270.538</ele>
        <time>2019-10-16T11:50:40Z</time>
      </trkpt>
      <trkpt lat="39.49043" lon="-7.70856">
        <ele>271.749</ele>
        <time>2019-10-16T11:51:00Z</time>
      </trkpt>
      <trkpt lat="39.49051" lon="-7.70844">
        <ele>272.671</ele>
        <time>2019-10-16T11:51:20Z</time>
      </trkpt>
      <trkpt lat="39.49059" lon="-7.70831">
        <ele>272.851</ele>
        <time>2019-10-16T11:51:40Z</time>
      </trkpt>
      <trkpt lat="39.49066" lon="-7.70817">
        <ele>271.887</ele>
        <time>2019-10-16T11:52:00Z</time>
      </trkpt>
      <trkpt lat="39.49072" lon="-7.70803">
        <ele>271.042</ele>
        <time>2019-10-16T11:52:20Z</time>
      </trkpt>
      <trkpt lat="39.49081" lon="-7.70776">
        <ele>269.926</ele>
        <time>2019-10-16T11:52:40Z</time>
      </trkpt>
      <trkpt lat="39.49083" lon="-7.70762">
        <ele>270.008</ele>
        <time>2019-10-16T11:53:00Z</time>
      </trkpt>
      <trkpt lat="39.49084" lon="-7.70749">
        <ele>270.052</ele>
        <time>2019-10-16T11:53:20Z</time>
      </trkpt>
      <trkpt lat="39.49082" lon="-7.70735">
        <ele>270.06</ele>
        <time>2019-10-16T11:53:40Z</time>
      </trkpt>
      <trkpt lat="39.4908" lon="-7.70722">
        <ele>270.012</ele>
        <time>2019-10-16T11:54:00Z</time>
      </trkpt>
      <trkpt lat="39.49078" lon="-7.7071">
        <ele>270.422</ele>
        <time>2019-10-16T11:54:20Z</time>
      </trkpt>
      <trkpt lat="39.49074" lon="-7.70693">
        <ele>271.194</ele>
        <time>2019-10-16T11:54:40Z</time>
      </trkpt>
      <trkpt lat="39.4907" lon="-7.70682">
        <ele>271.565</ele>
        <time>2019-10-16T11:55:00Z</time>
      </trkpt>
      <trkpt lat="39.4907" lon="-7.70683">
        <ele>271.487</ele>
        <time>2019-10-16T11:55:20Z</time>
      </trkpt>
      <trkpt lat="39.49069" lon="-7.70675">
        <ele>271.787</ele>
        <time>2019-10-16T11:55:40Z</time>
      </trkpt>
      <trkpt lat="39.49068" lon="-7.70652">
        <ele>272.556</ele>
        <time>2019-10-16T11:56:00Z</time>
      </trkpt>
      <trkpt lat="39.49069" lon="-7.70643">
        <ele>272.859</ele>
        <time>2019-10-16T11:56:20Z</time>
      </trkpt>
      <trkpt lat="39.49071" lon="-7.70634">
        <ele>273.014</ele>
        <time>2019-10-16T11:56:40Z</time>
      </trkpt>
      <trkpt lat="39.49077" lon="-7.70614">
        <ele>273.008</ele>
        <time>2019-10-16T11:57:00Z</time>
      </trkpt>
      <trkpt lat="39.49103" lon="-7.70524">
        <ele>272.569</ele>
        <time>2019-10-16T11:57:20Z</time>
      </trkpt>
      <trkpt lat="39.49126" lon="-7.704">
        <ele>274.157</ele>
        <time>2019-10-16T11:57:40Z</time>
      </trkpt>
      <trkpt lat="39.4913" lon="-7.7038">
        <ele>273.879</ele>
        <time>2019-10-16T11:58:00Z</time>
      </trkpt>
      <trkpt lat="39.49131" lon="-7.7037">
        <ele>273.759</ele>
        <time>2019-10-16T11:58:20Z</time>
      </trkpt>
      <trkpt lat="39.4913" lon="-7.70358">
        <ele>273.441</ele>
        <time>2019-10-16T11:58:40Z</time>
      </trkpt>
      <trkpt lat="39.49127" lon="-7.70315">
        <ele>272.652</ele>
        <time>2019-10-16T11:59:00Z</time>
      </trkpt>
      <trkpt lat="39.49129" lon="-7.70305">
        <ele>272.914</ele>
        <time>2019-10-16T11:59:20Z</time>
      </trkpt>
      <trkpt lat="39.49131" lon="-7.70295">
        <ele>273.014</ele>
        <time>2019-10-16T11:59:40Z</time>
      </trkpt>
      <trkpt lat="39.49134" lon="-7.70285">
        <ele>273.027</ele>
        <time>2019-10-16T12:00:00Z</time>
      </trkpt>
      <trkpt lat="39.49138" lon="-7.70275">
        <ele>273.068</ele>
        <time>2019-10-16T12:00:20Z</time>
      </trkpt>
      <trkpt lat="39.49187" lon="-7.70162">
        <ele>277.514</ele>
        <time>2019-10-16T12:00:40Z</time>
      </trkpt>
      <trkpt lat="39.49252" lon="-7.70061">
        <ele>277.308</ele>
        <time>2019-10-16T12:01:00Z</time>
      </trkpt>
      <trkpt lat="39.49259" lon="-7.70052">
        <ele>277.116</ele>
        <time>2019-10-16T12:01:20Z</time>
      </trkpt>
      <trkpt lat="39.49339" lon="-7.69969">
        <ele>275.164</ele>
        <time>2019-10-16T12:01:40Z</time>
      </trkpt>
      <trkpt lat="39.49346" lon="-7.69959">
        <ele>275.066</ele>
        <time>2019-10-16T12:02:00Z</time>
      </trkpt>
      <trkpt lat="39.49366" lon="-7.6993">
        <ele>274.986</ele>
        <time>2019-10-16T12:02:20Z</time>
      </trkpt>
      <trkpt lat="39.49374" lon="-7.69922">
        <ele>275.568</ele>
        <time>2019-10-16T12:02:40Z</time>
      </trkpt>
      <trkpt lat="39.49382" lon="-7.69913">
        <ele>276.159</ele>
        <time>2019-10-16T12:03:00Z</time>
      </trkpt>
      <trkpt lat="39.49389" lon="-7.69903">
        <ele>276.541</ele>
        <time>2019-10-16T12:03:20Z</time>
      </trkpt>
      <trkpt lat="39.49396" lon="-7.69892">
        <ele>276.671</ele>
        <time>2019-10-16T12:03:40Z</time>
      </trkpt>
      <trkpt lat="39.49457" lon="-7.6979">
        <ele>276.756</ele>
        <time>2019-10-16T12:04:00Z</time>
      </trkpt>
      <trkpt lat="39.49517" lon="-7.69704">
        <ele>276.659</ele>
        <time>2019-10-16T12:04:20Z</time>
      </trkpt>
      <trkpt lat="39.49527" lon="-7.69695">
        <ele>277.014</ele>
        <time>2019-10-16T12:04:40Z</time>
      </trkpt>
      <trkpt lat="39.49621" lon="-7.69584">
        <ele>277.008</ele>
        <time>2019-10-16T12:05:00Z</time>
      </trkpt>
      <trkpt lat="39.49695" lon="-7.69458">
        <ele>278.559</ele>
        <time>2019-10-16T12:05:20Z</time>
      </trkpt>
      <trkpt lat="39.49715" lon="-7.69432">
        <ele>280.517</ele>
        <time>2019-10-16T12:05:40Z</time>
      </trkpt>
      <trkpt lat="39.4972" lon="-7.69421">
        <ele>280.899</ele>
        <time>2019-10-16T12:06:00Z</time>
      </trkpt>
      <trkpt lat="39.49723" lon="-7.69409">
        <ele>280.819</ele>
        <time>2019-10-16T12:06:20Z</time>
      </trkpt>
      <trkpt lat="39.49726" lon="-7.69397">
        <ele>280.731</ele>
        <time>2019-10-16T12:06:40Z</time>
      </trkpt>
      <trkpt lat="39.49731" lon="-7.69385">
        <ele>280.962</ele>
        <time>2019-10-16T12:07:00Z</time>
      </trkpt>
      <trkpt lat="39.49736" lon="-7.69373">
        <ele>281.284</ele>
        <time>2019-10-16T12:07:20Z</time>
      </trkpt>
      <trkpt lat="39.49743" lon="-7.69361">
        <ele>281.434</ele>
        <time>2019-10-16T12:07:40Z</time>
      </trkpt>
      <trkpt lat="39.49749" lon="-7.69349">
        <ele>280.234</ele>
        <time>2019-10-16T12:08:00Z</time>
      </trkpt>
      <trkpt lat="39.49753" lon="-7.69335">
        <ele>278.755</ele>
        <time>2019-10-16T12:08:20Z</time>
      </trkpt>
      <trkpt lat="39.49771" lon="-7.69279">
        <ele>279.01</ele>
        <time>2019-10-16T12:08:40Z</time>
      </trkpt>
      <trkpt lat="39.49774" lon="-7.69265">
        <ele>279.508</ele>
        <time>2019-10-16T12:09:00Z</time>
      </trkpt>
      <trkpt lat="39.49787" lon="-7.692">
        <ele>280.527</ele>
        <time>2019-10-16T12:09:20Z</time>
      </trkpt>
      <trkpt lat="39.49792" lon="-7.69189">
        <ele>280.975</ele>
        <time>2019-10-16T12:09:40Z</time>
      </trkpt>
      <trkpt lat="39.49799" lon="-7.69179">
        <ele>281.677</ele>
        <time>2019-10-16T12:10:00Z</time>
      </trkpt>
      <trkpt lat="39.49864" lon="-7.69117">
        <ele>281.757</ele>
        <time>2019-10-16T12:10:20Z</time>
      </trkpt>
      <trkpt lat="39.49874" lon="-7.69112">
        <ele>282.419</ele>
        <time>2019-10-16T12:10:40Z</time>
      </trkpt>
      <trkpt lat="39.49884" lon="-7.69109">
        <ele>283.54</ele>
        <time>2019-10-16T12:11:00Z</time>
      </trkpt>
      <trkpt lat="39.49895" lon="-7.69108">
        <ele>284.732</ele>
        <time>2019-10-16T12:11:20Z</time>
      </trkpt>
      <trkpt lat="39.49906" lon="-7.69106">
        <ele>285.862</ele>
        <time>2019-10-16T12:11:40Z</time>
      </trkpt>
      <trkpt lat="39.49932" lon="-7.691">
        <ele>287.519</ele>
        <time>2019-10-16T12:12:00Z</time>
      </trkpt>
      <trkpt lat="39.49938" lon="-7.69095">
        <ele>287.909</ele>
        <time>2019-10-16T12:12:20Z</time>
      </trkpt>
      <trkpt lat="39.49943" lon="-7.69089">
        <ele>288.519</ele>
        <time>2019-10-16T12:12:40Z</time>
      </trkpt>
      <trkpt lat="39.49946" lon="-7.69081">
        <ele>289.208</ele>
        <time>2019-10-16T12:13:00Z</time>
      </trkpt>
      <trkpt lat="39.4995" lon="-7.69072">
        <ele>289.555</ele>
        <time>2019-10-16T12:13:20Z</time>
      </trkpt>
      <trkpt lat="39.49955" lon="-7.69062">
        <ele>289.833</ele>
        <time>2019-10-16T12:13:40Z</time>
      </trkpt>
      <trkpt lat="39.49959" lon="-7.69054">
        <ele>290.095</ele>
        <time>2019-10-16T12:14:00Z</time>
      </trkpt>
      <trkpt lat="39.49962" lon="-7.69045">
        <ele>290.055</ele>
        <time>2019-10-16T12:14:20Z</time>
      </trkpt>
      <trkpt lat="39.49966" lon="-7.69035">
        <ele>290.017</ele>
        <time>2019-10-16T12:14:40Z</time>
      </trkpt>
      <trkpt lat="39.4997" lon="-7.69023">
        <ele>290.078</ele>
        <time>2019-10-16T12:15:00Z</time>
      </trkpt>
      <trkpt lat="39.49973" lon="-7.69009">
        <ele>290.01</ele>
        <time>2019-10-16T12:15:20Z</time>
      </trkpt>
      <trkpt lat="39.49976" lon="-7.68992">
        <ele>290.07</ele>
        <time>2019-10-16T12:15:40Z</time>
      </trkpt>
      <trkpt lat="39.49979" lon="-7.68973">
        <ele>290.033</ele>
        <time>2019-10-16T12:16:00Z</time>
      </trkpt>
      <trkpt lat="39.49989" lon="-7.68911">
        <ele>290.223</ele>
        <time>2019-10-16T12:16:20Z</time>
      </trkpt>
      <trkpt lat="39.50011" lon="-7.68703">
        <ele>295.715</ele>
        <time>2019-10-16T12:16:40Z</time>
      </trkpt>
      <trkpt lat="39.49997" lon="-7.68555">
        <ele>295.008</ele>
        <time>2019-10-16T12:17:00Z</time>
      </trkpt>
      <trkpt lat="39.49998" lon="-7.68194">
        <ele>300.017</ele>
        <time>2019-10-16T12:17:20Z</time>
      </trkpt>
      <trkpt lat="39.50005" lon="-7.67922">
        <ele>299.465</ele>
        <time>2019-10-16T12:17:40Z</time>
      </trkpt>
      <trkpt lat="39.50024" lon="-7.67635">
        <ele>297.087</ele>
        <time>2019-10-16T12:18:00Z</time>
      </trkpt>
      <trkpt lat="39.5003" lon="-7.67594">
        <ele>298.087</ele>
        <time>2019-10-16T12:18:20Z</time>
      </trkpt>
      <trkpt lat="39.50036" lon="-7.67574">
        <ele>297.849</ele>
        <time>2019-10-16T12:18:40Z</time>
      </trkpt>
      <trkpt lat="39.50079" lon="-7.67447">
        <ele>293.35</ele>
        <time>2019-10-16T12:19:00Z</time>
      </trkpt>
      <trkpt lat="39.501" lon="-7.67384">
        <ele>290.952</ele>
        <time>2019-10-16T12:19:20Z</time>
      </trkpt>
      <trkpt lat="39.50121" lon="-7.67324">
        <ele>288.722</ele>
        <time>2019-10-16T12:19:40Z</time>
      </trkpt>
      <trkpt lat="39.50135" lon="-7.67287">
        <ele>286.855</ele>
        <time>2019-10-16T12:20:00Z</time>
      </trkpt>
      <trkpt lat="39.50144" lon="-7.67268">
        <ele>285.807</ele>
        <time>2019-10-16T12:20:20Z</time>
      </trkpt>
      <trkpt lat="39.50154" lon="-7.6725">
        <ele>284.917</ele>
        <time>2019-10-16T12:20:40Z</time>
      </trkpt>
      <trkpt lat="39.50166" lon="-7.67232">
        <ele>286.008</ele>
        <time>2019-10-16T12:21:00Z</time>
      </trkpt>
      <trkpt lat="39.50179" lon="-7.67215">
        <ele>284.989</ele>
        <time>2019-10-16T12:21:20Z</time>
      </trkpt>
      <trkpt lat="39.50194" lon="-7.67199">
        <ele>283.057</ele>
        <time>2019-10-16T12:21:40Z</time>
      </trkpt>
      <trkpt lat="39.50285" lon="-7.6709">
        <ele>282.919</ele>
        <time>2019-10-16T12:22:00Z</time>
      </trkpt>
      <trkpt lat="39.5038" lon="-7.66925">
        <ele>280.119</ele>
        <time>2019-10-16T12:22:20Z</time>
      </trkpt>
      <trkpt lat="39.50439" lon="-7.66821">
        <ele>279.281</ele>
        <time>2019-10-16T12:22:40Z</time>
      </trkpt>
      <trkpt lat="39.50538" lon="-7.66716">
        <ele>275.842</ele>
        <time>2019-10-16T12:23:00Z</time>
      </trkpt>
      <trkpt lat="39.50642" lon="-7.66599">
        <ele>269.384</ele>
        <time>2019-10-16T12:23:20Z</time>
      </trkpt>
      <trkpt lat="39.50776" lon="-7.66403">
        <ele>272.984</ele>
        <time>2019-10-16T12:23:40Z</time>
      </trkpt>
      <trkpt lat="39.50804" lon="-7.66359">
        <ele>275.999</ele>
        <time>2019-10-16T12:24:00Z</time>
      </trkpt>
      <trkpt lat="39.50808" lon="-7.66354">
        <ele>276.207</ele>
        <time>2019-10-16T12:24:20Z</time>
      </trkpt>
      <trkpt lat="39.50808" lon="-7.66355">
        <ele>276.227</ele>
        <time>2019-10-16T12:24:40Z</time>
      </trkpt>
      <trkpt lat="39.50808" lon="-7.66355">
        <ele>276.208</ele>
        <time>2019-10-16T12:25:00Z</time>
      </trkpt>
      <trkpt lat="39.50808" lon="-7.66355">
        <ele>276.293</ele>
        <time>2019-10-16T12:25:20Z</time>
      </trkpt>
      <trkpt lat="39.50808" lon="-7.66355">
        <ele>276.291</ele>
        <time>2019-10-16T12:25:40Z</time>
      </trkpt>
      <trkpt lat="39.50808" lon="-7.66355">
        <ele>276.263</ele>
        <time>2019-10-16T12:26:00Z</time>
      </trkpt>
      <trkpt lat="39.50808" lon="-7.66355">
        <ele>276.293</ele>
        <time>2019-10-16T12:26:20Z</time>
      </trkpt>
      <trkpt lat="39.50808" lon="-7.66355">
        <ele>276.235</ele>
        <time>2019-10-16T12:26:40Z</time>
      </trkpt>
      <trkpt lat="39.50807" lon="-7.66354">
        <ele>276.166</ele>
        <time>2019-10-16T12:27:00Z</time>
      </trkpt>
      <trkpt lat="39.50807" lon="-7.66355">
        <ele>276.178</ele>
        <time>2019-10-16T12:27:20Z</time>
      </trkpt>
      <trkpt lat="39.50806" lon="-7.66355">
        <ele>276.058</ele>
        <time>2019-10-16T12:27:40Z</time>
      </trkpt>
      <trkpt lat="39.50806" lon="-7.66356">
        <ele>276.025</ele>
        <time>2019-10-16T12:28:00Z</time>
      </trkpt>
      <trkpt lat="39.50806" lon="-7.66355">
        <ele>276.126</ele>
        <time>2019-10-16T12:28:20Z</time>
      </trkpt>
      <trkpt lat="39.50806" lon="-7.66356">
        <ele>276.108</ele>
        <time>2019-10-16T12:28:40Z</time>
      </trkpt>
      <trkpt lat="39.50807" lon="-7.66355">
        <ele>276.108</ele>
        <time>2019-10-16T12:29:00Z</time>
      </trkpt>
      <trkpt lat="39.50807" lon="-7.66356">
        <ele>276.136</ele>
        <time>2019-10-16T12:29:20Z</time>
      </trkpt>
      <trkpt lat="39.50811" lon="-7.66349">
        <ele>276.574</ele>
        <time>2019-10-16T12:29:40Z</time>
      </trkpt>
      <trkpt lat="39.50813" lon="-7.66347">
        <ele>276.766</ele>
        <time>2019-10-16T12:30:00Z</time>
      </trkpt>
      <trkpt lat="39.50815" lon="-7.66345">
        <ele>276.966</ele>
        <time>2019-10-16T12:30:20Z</time>
      </trkpt>
      <trkpt lat="39.50818" lon="-7.66343">
        <ele>277.248</ele>
        <time>2019-10-16T12:30:40Z</time>
      </trkpt>
      <trkpt lat="39.50819" lon="-7.66342">
        <ele>277.329</ele>
        <time>2019-10-16T12:31:00Z</time>
      </trkpt>
      <trkpt lat="39.5082" lon="-7.6634">
        <ele>277.421</ele>
        <time>2019-10-16T12:31:20Z</time>
      </trkpt>
      <trkpt lat="39.50823" lon="-7.66333">
        <ele>277.961</ele>
        <time>2019-10-16T12:31:40Z</time>
      </trkpt>
      <trkpt lat="39.50826" lon="-7.66328">
        <ele>278.474</ele>
        <time>2019-10-16T12:32:00Z</time>
      </trkpt>
      <trkpt lat="39.50841" lon="-7.66306">
        <ele>280.656</ele>
        <time>2019-10-16T12:32:20Z</time>
      </trkpt>
      <trkpt lat="39.50898" lon="-7.66205">
        <ele>281.421</ele>
        <time>2019-10-16T12:32:40Z</time>
      </trkpt>
      <trkpt lat="39.50967" lon="-7.66034">
        <ele>282.708</ele>
        <time>2019-10-16T12:33:00Z</time>
      </trkpt>
      <trkpt lat="39.50991" lon="-7.65993">
        <ele>284.011</ele>
        <time>2019-10-16T12:33:20Z</time>
      </trkpt>
      <trkpt lat="39.51007" lon="-7.65964">
        <ele>284.259</ele>
        <time>2019-10-16T12:33:40Z</time>
      </trkpt>
      <trkpt lat="39.51127" lon="-7.65732">
        <ele>283.681</ele>
        <time>2019-10-16T12:34:00Z</time>
      </trkpt>
      <trkpt lat="39.51174" lon="-7.65645">
        <ele>285.721</ele>
        <time>2019-10-16T12:34:20Z</time>
      </trkpt>
      <trkpt lat="39.51232" lon="-7.65561">
        <ele>286.513</ele>
        <time>2019-10-16T12:34:40Z</time>
      </trkpt>
      <trkpt lat="39.51311" lon="-7.65494">
        <ele>291.854</ele>
        <time>2019-10-16T12:35:00Z</time>
      </trkpt>
      <trkpt lat="39.51374" lon="-7.65439">
        <ele>295.356</ele>
        <time>2019-10-16T12:35:20Z</time>
      </trkpt>
      <trkpt lat="39.51421" lon="-7.65397">
        <ele>299.416</ele>
        <time>2019-10-16T12:35:40Z</time>
      </trkpt>
      <trkpt lat="39.51438" lon="-7.65382">
        <ele>301.063</ele>
        <time>2019-10-16T12:36:00Z</time>
      </trkpt>
      <trkpt lat="39.51482" lon="-7.65344">
        <ele>301.444</ele>
        <time>2019-10-16T12:36:20Z</time>
      </trkpt>
      <trkpt lat="39.51497" lon="-7.65369">
        <ele>302.318</ele>
        <time>2019-10-16T12:36:40Z</time>
      </trkpt>
      <trkpt lat="39.5151" lon="-7.65517">
        <ele>301.008</ele>
        <time>2019-10-16T12:37:00Z</time>
      </trkpt>
      <trkpt lat="39.51533" lon="-7.6558">
        <ele>301.35</ele>
        <time>2019-10-16T12:37:20Z</time>
      </trkpt>
      <trkpt lat="39.51584" lon="-7.65655">
        <ele>302.088</ele>
        <time>2019-10-16T12:37:40Z</time>
      </trkpt>
      <trkpt lat="39.51644" lon="-7.65823">
        <ele>302.02</ele>
        <time>2019-10-16T12:38:00Z</time>
      </trkpt>
      <trkpt lat="39.51648" lon="-7.65852">
        <ele>302.05</ele>
        <time>2019-10-16T12:38:20Z</time>
      </trkpt>
      <trkpt lat="39.51629" lon="-7.65951">
        <ele>302.692</ele>
        <time>2019-10-16T12:38:40Z</time>
      </trkpt>
      <trkpt lat="39.51622" lon="-7.66004">
        <ele>302.543</ele>
        <time>2019-10-16T12:39:00Z</time>
      </trkpt>
      <trkpt lat="39.5165" lon="-7.66149">
        <ele>300.385</ele>
        <time>2019-10-16T12:39:20Z</time>
      </trkpt>
      <trkpt lat="39.51664" lon="-7.66218">
        <ele>299.165</ele>
        <time>2019-10-16T12:39:40Z</time>
      </trkpt>
      <trkpt lat="39.51669" lon="-7.66242">
        <ele>299.657</ele>
        <time>2019-10-16T12:40:00Z</time>
      </trkpt>
      <trkpt lat="39.51668" lon="-7.66262">
        <ele>300</ele>
        <time>2019-10-16T12:40:20Z</time>
      </trkpt>
      <trkpt lat="39.51668" lon="-7.66332">
        <ele>299.92</ele>
        <time>2019-10-16T12:40:40Z</time>
      </trkpt>
      <trkpt lat="39.5165" lon="-7.66517">
        <ele>300.608</ele>
        <time>2019-10-16T12:41:00Z</time>
      </trkpt>
      <trkpt lat="39.51626" lon="-7.6674">
        <ele>297.799</ele>
        <time>2019-10-16T12:41:20Z</time>
      </trkpt>
      <trkpt lat="39.51631" lon="-7.66774">
        <ele>296.067</ele>
        <time>2019-10-16T12:41:40Z</time>
      </trkpt>
      <trkpt lat="39.51648" lon="-7.66844">
        <ele>289.229</ele>
        <time>2019-10-16T12:42:00Z</time>
      </trkpt>
      <trkpt lat="39.51666" lon="-7.66915">
        <ele>288.999</ele>
        <time>2019-10-16T12:42:20Z</time>
      </trkpt>
      <trkpt lat="39.51697" lon="-7.67033">
        <ele>286.271</ele>
        <time>2019-10-16T12:42:40Z</time>
      </trkpt>
      <trkpt lat="39.51704" lon="-7.6706">
        <ele>287.052</ele>
        <time>2019-10-16T12:43:00Z</time>
      </trkpt>
      <trkpt lat="39.51708" lon="-7.6707">
        <ele>287.044</ele>
        <time>2019-10-16T12:43:20Z</time>
      </trkpt>
      <trkpt lat="39.51714" lon="-7.6708">
        <ele>286.614</ele>
        <time>2019-10-16T12:43:40Z</time>
      </trkpt>
      <trkpt lat="39.51734" lon="-7.67115">
        <ele>284.499</ele>
        <time>2019-10-16T12:44:00Z</time>
      </trkpt>
      <trkpt lat="39.51743" lon="-7.67125">
        <ele>283.707</ele>
        <time>2019-10-16T12:44:20Z</time>
      </trkpt>
      <trkpt lat="39.51755" lon="-7.67135">
        <ele>283.027</ele>
        <time>2019-10-16T12:44:40Z</time>
      </trkpt>
      <trkpt lat="39.51768" lon="-7.67144">
        <ele>282.208</ele>
        <time>2019-10-16T12:45:00Z</time>
      </trkpt>
      <trkpt lat="39.5178" lon="-7.67152">
        <ele>281.583</ele>
        <time>2019-10-16T12:45:20Z</time>
      </trkpt>
      <trkpt lat="39.51846" lon="-7.67187">
        <ele>282.091</ele>
        <time>2019-10-16T12:45:40Z</time>
      </trkpt>
      <trkpt lat="39.51908" lon="-7.67221">
        <ele>276.973</ele>
        <time>2019-10-16T12:46:00Z</time>
      </trkpt>
      <trkpt lat="39.51971" lon="-7.67252">
        <ele>274.943</ele>
        <time>2019-10-16T12:46:20Z</time>
      </trkpt>
      <trkpt lat="39.5204" lon="-7.67283">
        <ele>273.465</ele>
        <time>2019-10-16T12:46:40Z</time>
      </trkpt>
      <trkpt lat="39.5205" lon="-7.67285">
        <ele>273.146</ele>
        <time>2019-10-16T12:47:00Z</time>
      </trkpt>
      <trkpt lat="39.5206" lon="-7.67286">
        <ele>273.148</ele>
        <time>2019-10-16T12:47:20Z</time>
      </trkpt>
      <trkpt lat="39.5207" lon="-7.67284">
        <ele>273.558</ele>
        <time>2019-10-16T12:47:40Z</time>
      </trkpt>
      <trkpt lat="39.52081" lon="-7.67279">
        <ele>273.984</ele>
        <time>2019-10-16T12:48:00Z</time>
      </trkpt>
      <trkpt lat="39.52094" lon="-7.67271">
        <ele>273.607</ele>
        <time>2019-10-16T12:48:20Z</time>
      </trkpt>
      <trkpt lat="39.52175" lon="-7.67227">
        <ele>276.717</ele>
        <time>2019-10-16T12:48:40Z</time>
      </trkpt>
      <trkpt lat="39.5218" lon="-7.6722">
        <ele>277.008</ele>
        <time>2019-10-16T12:49:00Z</time>
      </trkpt>
      <trkpt lat="39.5218" lon="-7.67211">
        <ele>277.062</ele>
        <time>2019-10-16T12:49:20Z</time>
      </trkpt>
      <trkpt lat="39.52179" lon="-7.67196">
        <ele>277.08</ele>
        <time>2019-10-16T12:49:40Z</time>
      </trkpt>
      <trkpt lat="39.52179" lon="-7.67192">
        <ele>276.912</ele>
        <time>2019-10-16T12:50:00Z</time>
      </trkpt>
      <trkpt lat="39.5218" lon="-7.67189">
        <ele>276.832</ele>
        <time>2019-10-16T12:50:20Z</time>
      </trkpt>
      <trkpt lat="39.52183" lon="-7.67186">
        <ele>276.784</ele>
        <time>2019-10-16T12:50:40Z</time>
      </trkpt>
      <trkpt lat="39.52188" lon="-7.67184">
        <ele>276.625</ele>
        <time>2019-10-16T12:51:00Z</time>
      </trkpt>
      <trkpt lat="39.52248" lon="-7.67162">
        <ele>275.947</ele>
        <time>2019-10-16T12:51:20Z</time>
      </trkpt>
      <trkpt lat="39.52352" lon="-7.67122">
        <ele>270.417</ele>
        <time>2019-10-16T12:51:40Z</time>
      </trkpt>
      <trkpt lat="39.52454" lon="-7.67084">
        <ele>271.735</ele>
        <time>2019-10-16T12:52:00Z</time>
      </trkpt>
      <trkpt lat="39.52488" lon="-7.6707">
        <ele>273.886</ele>
        <time>2019-10-16T12:52:20Z</time>
      </trkpt>
      <trkpt lat="39.52508" lon="-7.67064">
        <ele>272.814</ele>
        <time>2019-10-16T12:52:40Z</time>
      </trkpt>
      <trkpt lat="39.52518" lon="-7.67063">
        <ele>271.908</ele>
        <time>2019-10-16T12:53:00Z</time>
      </trkpt>
      <trkpt lat="39.5253" lon="-7.67063">
        <ele>270.887</ele>
        <time>2019-10-16T12:53:20Z</time>
      </trkpt>
      <trkpt lat="39.52542" lon="-7.67065">
        <ele>269.845</ele>
        <time>2019-10-16T12:53:40Z</time>
      </trkpt>
      <trkpt lat="39.52548" lon="-7.67066">
        <ele>269.387</ele>
        <time>2019-10-16T12:54:00Z</time>
      </trkpt>
      <trkpt lat="39.52551" lon="-7.67062">
        <ele>269.137</ele>
        <time>2019-10-16T12:54:20Z</time>
      </trkpt>
      <trkpt lat="39.52558" lon="-7.67044">
        <ele>268.869</ele>
        <time>2019-10-16T12:54:40Z</time>
      </trkpt>
      <trkpt lat="39.5259" lon="-7.66952">
        <ele>262.32</ele>
        <time>2019-10-16T12:55:00Z</time>
      </trkpt>
      <trkpt lat="39.52605" lon="-7.66912">
        <ele>260.852</ele>
        <time>2019-10-16T12:55:20Z</time>
      </trkpt>
      <trkpt lat="39.52621" lon="-7.66865">
        <ele>258.882</ele>
        <time>2019-10-16T12:55:40Z</time>
      </trkpt>
      <trkpt lat="39.52624" lon="-7.66855">
        <ele>258.753</ele>
        <time>2019-10-16T12:56:00Z</time>
      </trkpt>
      <trkpt lat="39.52656" lon="-7.66769">
        <ele>261.704</ele>
        <time>2019-10-16T12:56:20Z</time>
      </trkpt>
      <trkpt lat="39.52658" lon="-7.66758">
        <ele>262.014</ele>
        <time>2019-10-16T12:56:40Z</time>
      </trkpt>
      <trkpt lat="39.52659" lon="-7.66747">
        <ele>262.508</ele>
        <time>2019-10-16T12:57:00Z</time>
      </trkpt>
      <trkpt lat="39.52658" lon="-7.66736">
        <ele>263.329</ele>
        <time>2019-10-16T12:57:20Z</time>
      </trkpt>
      <trkpt lat="39.52656" lon="-7.66725">
        <ele>264.217</ele>
        <time>2019-10-16T12:57:40Z</time>
      </trkpt>
      <trkpt lat="39.52653" lon="-7.66714">
        <ele>264.869</ele>
        <time>2019-10-16T12:58:00Z</time>
      </trkpt>
      <trkpt lat="39.52648" lon="-7.66703">
        <ele>265.379</ele>
        <time>2019-10-16T12:58:20Z</time>
      </trkpt>
      <trkpt lat="39.52643" lon="-7.66692">
        <ele>265.951</ele>
        <time>2019-10-16T12:58:40Z</time>
      </trkpt>
      <trkpt lat="39.52636" lon="-7.66682">
        <ele>266.822</ele>
        <time>2019-10-16T12:59:00Z</time>
      </trkpt>
      <trkpt lat="39.52629" lon="-7.66673">
        <ele>268.144</ele>
        <time>2019-10-16T12:59:20Z</time>
      </trkpt>
      <trkpt lat="39.52613" lon="-7.66654">
        <ele>270.814</ele>
        <time>2019-10-16T12:59:40Z</time>
      </trkpt>
      <trkpt lat="39.52609" lon="-7.6665">
        <ele>271.152</ele>
        <time>2019-10-16T13:00:00Z</time>
      </trkpt>
      <trkpt lat="39.52605" lon="-7.66648">
        <ele>271.253</ele>
        <time>2019-10-16T13:00:20Z</time>
      </trkpt>
      <trkpt lat="39.52602" lon="-7.66646">
        <ele>271.308</ele>
        <time>2019-10-16T13:00:40Z</time>
      </trkpt>
      <trkpt lat="39.52593" lon="-7.66638">
        <ele>271.608</ele>
        <time>2019-10-16T13:01:00Z</time>
      </trkpt>
      <trkpt lat="39.52591" lon="-7.66632">
        <ele>271.549</ele>
        <time>2019-10-16T13:01:20Z</time>
      </trkpt>
      <trkpt lat="39.52588" lon="-7.66624">
        <ele>271.327</ele>
        <time>2019-10-16T13:01:40Z</time>
      </trkpt>
      <trkpt lat="39.52584" lon="-7.66616">
        <ele>271.149</ele>
        <time>2019-10-16T13:02:00Z</time>
      </trkpt>
      <trkpt lat="39.52543" lon="-7.66536">
        <ele>268.979</ele>
        <time>2019-10-16T13:02:20Z</time>
      </trkpt>
      <trkpt lat="39.52477" lon="-7.66416">
        <ele>275.311</ele>
        <time>2019-10-16T13:02:40Z</time>
      </trkpt>
      <trkpt lat="39.52473" lon="-7.66407">
        <ele>276.022</ele>
        <time>2019-10-16T13:03:00Z</time>
      </trkpt>
      <trkpt lat="39.52467" lon="-7.66399">
        <ele>276.414</ele>
        <time>2019-10-16T13:03:20Z</time>
      </trkpt>
      <trkpt lat="39.52461" lon="-7.66393">
        <ele>277.124</ele>
        <time>2019-10-16T13:03:40Z</time>
      </trkpt>
      <trkpt lat="39.52454" lon="-7.66387">
        <ele>278.065</ele>
        <time>2019-10-16T13:04:00Z</time>
      </trkpt>
      <trkpt lat="39.52449" lon="-7.6638">
        <ele>278.668</ele>
        <time>2019-10-16T13:04:20Z</time>
      </trkpt>
      <trkpt lat="39.52444" lon="-7.6637">
        <ele>279.014</ele>
        <time>2019-10-16T13:04:40Z</time>
      </trkpt>
      <trkpt lat="39.52439" lon="-7.66357">
        <ele>278.708</ele>
        <time>2019-10-16T13:05:00Z</time>
      </trkpt>
      <trkpt lat="39.52434" lon="-7.66344">
        <ele>278.09</ele>
        <time>2019-10-16T13:05:20Z</time>
      </trkpt>
      <trkpt lat="39.52419" lon="-7.66301">
        <ele>275.868</ele>
        <time>2019-10-16T13:05:40Z</time>
      </trkpt>
      <trkpt lat="39.52374" lon="-7.66228">
        <ele>279.15</ele>
        <time>2019-10-16T13:06:00Z</time>
      </trkpt>
      <trkpt lat="39.5236" lon="-7.66212">
        <ele>280.08</ele>
        <time>2019-10-16T13:06:20Z</time>
      </trkpt>
      <trkpt lat="39.52355" lon="-7.66202">
        <ele>279.892</ele>
        <time>2019-10-16T13:06:40Z</time>
      </trkpt>
      <trkpt lat="39.52352" lon="-7.66191">
        <ele>279.853</ele>
        <time>2019-10-16T13:07:00Z</time>
      </trkpt>
      <trkpt lat="39.52349" lon="-7.66179">
        <ele>280.145</ele>
        <time>2019-10-16T13:07:20Z</time>
      </trkpt>
      <trkpt lat="39.52348" lon="-7.66165">
        <ele>280.525</ele>
        <time>2019-10-16T13:07:40Z</time>
      </trkpt>
      <trkpt lat="39.52347" lon="-7.66149">
        <ele>280.253</ele>
        <time>2019-10-16T13:08:00Z</time>
      </trkpt>
      <trkpt lat="39.5234" lon="-7.66085">
        <ele>281.404</ele>
        <time>2019-10-16T13:08:20Z</time>
      </trkpt>
      <trkpt lat="39.52327" lon="-7.66041">
        <ele>282.114</ele>
        <time>2019-10-16T13:08:40Z</time>
      </trkpt>
      <trkpt lat="39.52289" lon="-7.65927">
        <ele>285.008</ele>
        <time>2019-10-16T13:09:00Z</time>
      </trkpt>
      <trkpt lat="39.52287" lon="-7.65917">
        <ele>285.399</ele>
        <time>2019-10-16T13:09:20Z</time>
      </trkpt>
      <trkpt lat="39.52287" lon="-7.65909">
        <ele>285.567</ele>
        <time>2019-10-16T13:09:40Z</time>
      </trkpt>
      <trkpt lat="39.52287" lon="-7.65902">
        <ele>285.749</ele>
        <time>2019-10-16T13:10:00Z</time>
      </trkpt>
      <trkpt lat="39.5229" lon="-7.65849">
        <ele>286.179</ele>
        <time>2019-10-16T13:10:20Z</time>
      </trkpt>
      <trkpt lat="39.52295" lon="-7.65797">
        <ele>284.621</ele>
        <time>2019-10-16T13:10:40Z</time>
      </trkpt>
      <trkpt lat="39.52298" lon="-7.65789">
        <ele>284.272</ele>
        <time>2019-10-16T13:11:00Z</time>
      </trkpt>
      <trkpt lat="39.52301" lon="-7.6578">
        <ele>284.014</ele>
        <time>2019-10-16T13:11:20Z</time>
      </trkpt>
      <trkpt lat="39.52306" lon="-7.65771">
        <ele>284.044</ele>
        <time>2019-10-16T13:11:40Z</time>
      </trkpt>
      <trkpt lat="39.52312" lon="-7.65763">
        <ele>284.279</ele>
        <time>2019-10-16T13:12:00Z</time>
      </trkpt>
      <trkpt lat="39.5232" lon="-7.65754">
        <ele>284.505</ele>
        <time>2019-10-16T13:12:20Z</time>
      </trkpt>
      <trkpt lat="39.52363" lon="-7.6569">
        <ele>284.125</ele>
        <time>2019-10-16T13:12:40Z</time>
      </trkpt>
      <trkpt lat="39.52367" lon="-7.65687">
        <ele>284.208</ele>
        <time>2019-10-16T13:13:00Z</time>
      </trkpt>
      <trkpt lat="39.52371" lon="-7.65686">
        <ele>284.291</ele>
        <time>2019-10-16T13:13:20Z</time>
      </trkpt>
      <trkpt lat="39.52376" lon="-7.65687">
        <ele>284.149</ele>
        <time>2019-10-16T13:13:40Z</time>
      </trkpt>
      <trkpt lat="39.52383" lon="-7.65689">
        <ele>284.061</ele>
        <time>2019-10-16T13:14:00Z</time>
      </trkpt>
      <trkpt lat="39.52391" lon="-7.65693">
        <ele>283.911</ele>
        <time>2019-10-16T13:14:20Z</time>
      </trkpt>
      <trkpt lat="39.524" lon="-7.65698">
        <ele>283.613</ele>
        <time>2019-10-16T13:14:40Z</time>
      </trkpt>
      <trkpt lat="39.52496" lon="-7.65733">
        <ele>280.234</ele>
        <time>2019-10-16T13:15:00Z</time>
      </trkpt>
      <trkpt lat="39.52597" lon="-7.65746">
        <ele>279.416</ele>
        <time>2019-10-16T13:15:20Z</time>
      </trkpt>
      <trkpt lat="39.52677" lon="-7.65763">
        <ele>275.876</ele>
        <time>2019-10-16T13:15:40Z</time>
      </trkpt>
      <trkpt lat="39.52746" lon="-7.65785">
        <ele>271.194</ele>
        <time>2019-10-16T13:16:00Z</time>
      </trkpt>
      <trkpt lat="39.5277" lon="-7.65796">
        <ele>269.657</ele>
        <time>2019-10-16T13:16:20Z</time>
      </trkpt>
      <trkpt lat="39.52782" lon="-7.65804">
        <ele>268.922</ele>
        <time>2019-10-16T13:16:40Z</time>
      </trkpt>
      <trkpt lat="39.52794" lon="-7.65814">
        <ele>268.708</ele>
        <time>2019-10-16T13:17:00Z</time>
      </trkpt>
      <trkpt lat="39.52888" lon="-7.65875">
        <ele>266.083</ele>
        <time>2019-10-16T13:17:20Z</time>
      </trkpt>
      <trkpt lat="39.52958" lon="-7.65913">
        <ele>262.591</ele>
        <time>2019-10-16T13:17:40Z</time>
      </trkpt>
      <trkpt lat="39.52964" lon="-7.65918">
        <ele>262.353</ele>
        <time>2019-10-16T13:18:00Z</time>
      </trkpt>
      <trkpt lat="39.52971" lon="-7.65926">
        <ele>262.033</ele>
        <time>2019-10-16T13:18:20Z</time>
      </trkpt>
      <trkpt lat="39.52978" lon="-7.65936">
        <ele>261.715</ele>
        <time>2019-10-16T13:18:40Z</time>
      </trkpt>
      <trkpt lat="39.52985" lon="-7.65947">
        <ele>261.676</ele>
        <time>2019-10-16T13:19:00Z</time>
      </trkpt>
      <trkpt lat="39.52993" lon="-7.65961">
        <ele>261.468</ele>
        <time>2019-10-16T13:19:20Z</time>
      </trkpt>
      <trkpt lat="39.53078" lon="-7.66105">
        <ele>258.848</ele>
        <time>2019-10-16T13:19:40Z</time>
      </trkpt>
      <trkpt lat="39.5314" lon="-7.66188">
        <ele>263.015</ele>
        <time>2019-10-16T13:20:00Z</time>
      </trkpt>
      <trkpt lat="39.53156" lon="-7.66212">
        <ele>262.965</ele>
        <time>2019-10-16T13:20:20Z</time>
      </trkpt>
      <trkpt lat="39.53164" lon="-7.66226">
        <ele>261.911</ele>
        <time>2019-10-16T13:20:40Z</time>
      </trkpt>
      <trkpt lat="39.53249" lon="-7.66398">
        <ele>262.008</ele>
        <time>2019-10-16T13:21:00Z</time>
      </trkpt>
      <trkpt lat="39.53312" lon="-7.665">
        <ele>262.265</ele>
        <time>2019-10-16T13:21:20Z</time>
      </trkpt>
      <trkpt lat="39.53396" lon="-7.66613">
        <ele>262.343</ele>
        <time>2019-10-16T13:21:40Z</time>
      </trkpt>
      <trkpt lat="39.53429" lon="-7.6665">
        <ele>263.175</ele>
        <time>2019-10-16T13:22:00Z</time>
      </trkpt>
      <trkpt lat="39.53436" lon="-7.66654">
        <ele>263.165</ele>
        <time>2019-10-16T13:22:20Z</time>
      </trkpt>
      <trkpt lat="39.53442" lon="-7.66656">
        <ele>263.397</ele>
        <time>2019-10-16T13:22:40Z</time>
      </trkpt>
      <trkpt lat="39.53449" lon="-7.66655">
        <ele>263.628</ele>
        <time>2019-10-16T13:23:00Z</time>
      </trkpt>
      <trkpt lat="39.53455" lon="-7.66652">
        <ele>263.92</ele>
        <time>2019-10-16T13:23:20Z</time>
      </trkpt>
      <trkpt lat="39.53462" lon="-7.66648">
        <ele>264.39</ele>
        <time>2019-10-16T13:23:40Z</time>
      </trkpt>
      <trkpt lat="39.53469" lon="-7.66643">
        <ele>264.794</ele>
        <time>2019-10-16T13:24:00Z</time>
      </trkpt>
      <trkpt lat="39.53477" lon="-7.66638">
        <ele>265.257</ele>
        <time>2019-10-16T13:24:20Z</time>
      </trkpt>
      <trkpt lat="39.53486" lon="-7.66634">
        <ele>265.622</ele>
        <time>2019-10-16T13:24:40Z</time>
      </trkpt>
      <trkpt lat="39.53496" lon="-7.66631">
        <ele>265.908</ele>
        <time>2019-10-16T13:25:00Z</time>
      </trkpt>
      <trkpt lat="39.53549" lon="-7.66613">
        <ele>270.363</ele>
        <time>2019-10-16T13:25:20Z</time>
      </trkpt>
      <trkpt lat="39.53561" lon="-7.66608">
        <ele>271.131</ele>
        <time>2019-10-16T13:25:40Z</time>
      </trkpt>
      <trkpt lat="39.53599" lon="-7.66592">
        <ele>270.853</ele>
        <time>2019-10-16T13:26:00Z</time>
      </trkpt>
      <trkpt lat="39.53706" lon="-7.66524">
        <ele>275.953</ele>
        <time>2019-10-16T13:26:20Z</time>
      </trkpt>
      <trkpt lat="39.53751" lon="-7.665">
        <ele>277.035</ele>
        <time>2019-10-16T13:26:40Z</time>
      </trkpt>
      <trkpt lat="39.53829" lon="-7.66455">
        <ele>278.226</ele>
        <time>2019-10-16T13:27:00Z</time>
      </trkpt>
      <trkpt lat="39.53839" lon="-7.66447">
        <ele>278.328</ele>
        <time>2019-10-16T13:27:20Z</time>
      </trkpt>
      <trkpt lat="39.53847" lon="-7.66435">
        <ele>278.398</ele>
        <time>2019-10-16T13:27:40Z</time>
      </trkpt>
      <trkpt lat="39.53865" lon="-7.66411">
        <ele>279.425</ele>
        <time>2019-10-16T13:28:00Z</time>
      </trkpt>
      <trkpt lat="39.5388" lon="-7.66389">
        <ele>280.726</ele>
        <time>2019-10-16T13:28:20Z</time>
      </trkpt>
      <trkpt lat="39.53884" lon="-7.66377">
        <ele>280.808</ele>
        <time>2019-10-16T13:28:40Z</time>
      </trkpt>
      <trkpt lat="39.53887" lon="-7.66363">
        <ele>280.908</ele>
        <time>2019-10-16T13:29:00Z</time>
      </trkpt>
      <trkpt lat="39.53891" lon="-7.66331">
        <ele>280.116</ele>
        <time>2019-10-16T13:29:20Z</time>
      </trkpt>
      <trkpt lat="39.53914" lon="-7.66203">
        <ele>281.164</ele>
        <time>2019-10-16T13:29:40Z</time>
      </trkpt>
      <trkpt lat="39.5392" lon="-7.66186">
        <ele>281.076</ele>
        <time>2019-10-16T13:30:00Z</time>
      </trkpt>
      <trkpt lat="39.53926" lon="-7.6617">
        <ele>281.086</ele>
        <time>2019-10-16T13:30:20Z</time>
      </trkpt>
      <trkpt lat="39.5393" lon="-7.66152">
        <ele>281.418</ele>
        <time>2019-10-16T13:30:40Z</time>
      </trkpt>
      <trkpt lat="39.53932" lon="-7.66132">
        <ele>282.029</ele>
        <time>2019-10-16T13:31:00Z</time>
      </trkpt>
      <trkpt lat="39.53933" lon="-7.66111">
        <ele>283.111</ele>
        <time>2019-10-16T13:31:20Z</time>
      </trkpt>
      <trkpt lat="39.53954" lon="-7.65975">
        <ele>284.671</ele>
        <time>2019-10-16T13:31:40Z</time>
      </trkpt>
      <trkpt lat="39.53971" lon="-7.6589">
        <ele>288.084</ele>
        <time>2019-10-16T13:32:00Z</time>
      </trkpt>
      <trkpt lat="39.54" lon="-7.65763">
        <ele>290.007</ele>
        <time>2019-10-16T13:32:20Z</time>
      </trkpt>
      <trkpt lat="39.54041" lon="-7.65626">
        <ele>288.517</ele>
        <time>2019-10-16T13:32:40Z</time>
      </trkpt>
      <trkpt lat="39.54051" lon="-7.65553">
        <ele>286.808</ele>
        <time>2019-10-16T13:33:00Z</time>
      </trkpt>
      <trkpt lat="39.54049" lon="-7.65542">
        <ele>287.142</ele>
        <time>2019-10-16T13:33:20Z</time>
      </trkpt>
      <trkpt lat="39.54045" lon="-7.65533">
        <ele>287.41</ele>
        <time>2019-10-16T13:33:40Z</time>
      </trkpt>
      <trkpt lat="39.5404" lon="-7.65525">
        <ele>287.592</ele>
        <time>2019-10-16T13:34:00Z</time>
      </trkpt>
      <trkpt lat="39.54033" lon="-7.65517">
        <ele>287.412</ele>
        <time>2019-10-16T13:34:20Z</time>
      </trkpt>
      <trkpt lat="39.54025" lon="-7.6551">
        <ele>287.454</ele>
        <time>2019-10-16T13:34:40Z</time>
      </trkpt>
      <trkpt lat="39.53993" lon="-7.6548">
        <ele>286.525</ele>
        <time>2019-10-16T13:35:00Z</time>
      </trkpt>
      <trkpt lat="39.53989" lon="-7.65475">
        <ele>286.547</ele>
        <time>2019-10-16T13:35:20Z</time>
      </trkpt>
      <trkpt lat="39.53985" lon="-7.65471">
        <ele>286.547</ele>
        <time>2019-10-16T13:35:40Z</time>
      </trkpt>
      <trkpt lat="39.53979" lon="-7.65467">
        <ele>286.672</ele>
        <time>2019-10-16T13:36:00Z</time>
      </trkpt>
      <trkpt lat="39.53973" lon="-7.65462">
        <ele>286.813</ele>
        <time>2019-10-16T13:36:20Z</time>
      </trkpt>
      <trkpt lat="39.53894" lon="-7.65411">
        <ele>286.114</ele>
        <time>2019-10-16T13:36:40Z</time>
      </trkpt>
      <trkpt lat="39.53858" lon="-7.65386">
        <ele>287.108</ele>
        <time>2019-10-16T13:37:00Z</time>
      </trkpt>
      <trkpt lat="39.53852" lon="-7.65377">
        <ele>287.351</ele>
        <time>2019-10-16T13:37:20Z</time>
      </trkpt>
      <trkpt lat="39.53849" lon="-7.65366">
        <ele>287.419</ele>
        <time>2019-10-16T13:37:40Z</time>
      </trkpt>
      <trkpt lat="39.53849" lon="-7.65356">
        <ele>287.361</ele>
        <time>2019-10-16T13:38:00Z</time>
      </trkpt>
      <trkpt lat="39.53849" lon="-7.65348">
        <ele>287.011</ele>
        <time>2019-10-16T13:38:20Z</time>
      </trkpt>
      <trkpt lat="39.53853" lon="-7.65321">
        <ele>285.983</ele>
        <time>2019-10-16T13:38:40Z</time>
      </trkpt>
      <trkpt lat="39.53856" lon="-7.65319">
        <ele>285.984</ele>
        <time>2019-10-16T13:39:00Z</time>
      </trkpt>
      <trkpt lat="39.53867" lon="-7.65313">
        <ele>285.516</ele>
        <time>2019-10-16T13:39:20Z</time>
      </trkpt>
      <trkpt lat="39.53872" lon="-7.65308">
        <ele>285.156</ele>
        <time>2019-10-16T13:39:40Z</time>
      </trkpt>
      <trkpt lat="39.53877" lon="-7.65299">
        <ele>284.837</ele>
        <time>2019-10-16T13:40:00Z</time>
      </trkpt>
      <trkpt lat="39.5391" lon="-7.65241">
        <ele>283.449</ele>
        <time>2019-10-16T13:40:20Z</time>
      </trkpt>
      <trkpt lat="39.53914" lon="-7.65231">
        <ele>282.713</ele>
        <time>2019-10-16T13:40:40Z</time>
      </trkpt>
      <trkpt lat="39.53917" lon="-7.65223">
        <ele>282.008</ele>
        <time>2019-10-16T13:41:00Z</time>
      </trkpt>
      <trkpt lat="39.53918" lon="-7.65218">
        <ele>282.247</ele>
        <time>2019-10-16T13:41:20Z</time>
      </trkpt>
      <trkpt lat="39.53918" lon="-7.65216">
        <ele>282.275</ele>
        <time>2019-10-16T13:41:40Z</time>
      </trkpt>
      <trkpt lat="39.53919" lon="-7.65205">
        <ele>282.577</ele>
        <time>2019-10-16T13:42:00Z</time>
      </trkpt>
      <trkpt lat="39.53918" lon="-7.65182">
        <ele>284.217</ele>
        <time>2019-10-16T13:42:20Z</time>
      </trkpt>
      <trkpt lat="39.53916" lon="-7.65167">
        <ele>285.979</ele>
        <time>2019-10-16T13:42:40Z</time>
      </trkpt>
      <trkpt lat="39.53914" lon="-7.65138">
        <ele>287.88</ele>
        <time>2019-10-16T13:43:00Z</time>
      </trkpt>
      <trkpt lat="39.53915" lon="-7.65122">
        <ele>287.932</ele>
        <time>2019-10-16T13:43:20Z</time>
      </trkpt>
      <trkpt lat="39.53918" lon="-7.65094">
        <ele>286.732</ele>
        <time>2019-10-16T13:43:40Z</time>
      </trkpt>
      <trkpt lat="39.53921" lon="-7.65082">
        <ele>285.962</ele>
        <time>2019-10-16T13:44:00Z</time>
      </trkpt>
      <trkpt lat="39.53924" lon="-7.65071">
        <ele>285.683</ele>
        <time>2019-10-16T13:44:20Z</time>
      </trkpt>
      <trkpt lat="39.53928" lon="-7.65062">
        <ele>285.211</ele>
        <time>2019-10-16T13:44:40Z</time>
      </trkpt>
      <trkpt lat="39.53935" lon="-7.65053">
        <ele>285.008</ele>
        <time>2019-10-16T13:45:00Z</time>
      </trkpt>
      <trkpt lat="39.53942" lon="-7.65043">
        <ele>285.08</ele>
        <time>2019-10-16T13:45:20Z</time>
      </trkpt>
      <trkpt lat="39.54001" lon="-7.64965">
        <ele>283.128</ele>
        <time>2019-10-16T13:45:40Z</time>
      </trkpt>
      <trkpt lat="39.54007" lon="-7.64954">
        <ele>283.51</ele>
        <time>2019-10-16T13:46:00Z</time>
      </trkpt>
      <trkpt lat="39.54011" lon="-7.64942">
        <ele>283.85</ele>
        <time>2019-10-16T13:46:20Z</time>
      </trkpt>
      <trkpt lat="39.54022" lon="-7.64902">
        <ele>284.252</ele>
        <time>2019-10-16T13:46:40Z</time>
      </trkpt>
      <trkpt lat="39.54023" lon="-7.6489">
        <ele>283.933</ele>
        <time>2019-10-16T13:47:00Z</time>
      </trkpt>
      <trkpt lat="39.54022" lon="-7.64876">
        <ele>283.335</ele>
        <time>2019-10-16T13:47:20Z</time>
      </trkpt>
      <trkpt lat="39.54005" lon="-7.64764">
        <ele>280.035</ele>
        <time>2019-10-16T13:47:40Z</time>
      </trkpt>
      <trkpt lat="39.53997" lon="-7.647">
        <ele>281.765</ele>
        <time>2019-10-16T13:48:00Z</time>
      </trkpt>
      <trkpt lat="39.53997" lon="-7.64685">
        <ele>281.568</ele>
        <time>2019-10-16T13:48:20Z</time>
      </trkpt>
      <trkpt lat="39.53995" lon="-7.64669">
        <ele>280.914</ele>
        <time>2019-10-16T13:48:40Z</time>
      </trkpt>
      <trkpt lat="39.53992" lon="-7.64652">
        <ele>279.708</ele>
        <time>2019-10-16T13:49:00Z</time>
      </trkpt>
      <trkpt lat="39.53988" lon="-7.64634">
        <ele>278.24</ele>
        <time>2019-10-16T13:49:20Z</time>
      </trkpt>
      <trkpt lat="39.53977" lon="-7.64576">
        <ele>276.248</ele>
        <time>2019-10-16T13:49:40Z</time>
      </trkpt>
      <trkpt lat="39.53976" lon="-7.64557">
        <ele>276.84</ele>
        <time>2019-10-16T13:50:00Z</time>
      </trkpt>
      <trkpt lat="39.53973" lon="-7.64522">
        <ele>277.23</ele>
        <time>2019-10-16T13:50:20Z</time>
      </trkpt>
      <trkpt lat="39.53971" lon="-7.64506">
        <ele>277.822</ele>
        <time>2019-10-16T13:50:40Z</time>
      </trkpt>
      <trkpt lat="39.53967" lon="-7.64489">
        <ele>277.863</ele>
        <time>2019-10-16T13:51:00Z</time>
      </trkpt>
      <trkpt lat="39.53947" lon="-7.64414">
        <ele>273.125</ele>
        <time>2019-10-16T13:51:20Z</time>
      </trkpt>
      <trkpt lat="39.5394" lon="-7.64395">
        <ele>272.945</ele>
        <time>2019-10-16T13:51:40Z</time>
      </trkpt>
      <trkpt lat="39.53908" lon="-7.64302">
        <ele>274.458</ele>
        <time>2019-10-16T13:52:00Z</time>
      </trkpt>
      <trkpt lat="39.53903" lon="-7.64283">
        <ele>274.952</ele>
        <time>2019-10-16T13:52:20Z</time>
      </trkpt>
      <trkpt lat="39.53895" lon="-7.64264">
        <ele>275.417</ele>
        <time>2019-10-16T13:52:40Z</time>
      </trkpt>
      <trkpt lat="39.53868" lon="-7.6419">
        <ele>275.908</ele>
        <time>2019-10-16T13:53:00Z</time>
      </trkpt>
      <trkpt lat="39.53854" lon="-7.6414">
        <ele>273.549</ele>
        <time>2019-10-16T13:53:20Z</time>
      </trkpt>
      <trkpt lat="39.53848" lon="-7.64125">
        <ele>274.017</ele>
        <time>2019-10-16T13:53:40Z</time>
      </trkpt>
      <trkpt lat="39.53839" lon="-7.64111">
        <ele>274.679</ele>
        <time>2019-10-16T13:54:00Z</time>
      </trkpt>
      <trkpt lat="39.53816" lon="-7.64069">
        <ele>274.829</ele>
        <time>2019-10-16T13:54:20Z</time>
      </trkpt>
      <trkpt lat="39.53811" lon="-7.64053">
        <ele>274.881</ele>
        <time>2019-10-16T13:54:40Z</time>
      </trkpt>
      <trkpt lat="39.53807" lon="-7.64034">
        <ele>275.012</ele>
        <time>2019-10-16T13:55:00Z</time>
      </trkpt>
      <trkpt lat="39.53799" lon="-7.63992">
        <ele>275.374</ele>
        <time>2019-10-16T13:55:20Z</time>
      </trkpt>
      <trkpt lat="39.53771" lon="-7.6383">
        <ele>275.624</ele>
        <time>2019-10-16T13:55:40Z</time>
      </trkpt>
      <trkpt lat="39.53766" lon="-7.63758">
        <ele>276.358</ele>
        <time>2019-10-16T13:56:00Z</time>
      </trkpt>
      <trkpt lat="39.53762" lon="-7.63741">
        <ele>275.652</ele>
        <time>2019-10-16T13:56:20Z</time>
      </trkpt>
      <trkpt lat="39.5375" lon="-7.63677">
        <ele>273.617</ele>
        <time>2019-10-16T13:56:40Z</time>
      </trkpt>
      <trkpt lat="39.53745" lon="-7.63636">
        <ele>274.508</ele>
        <time>2019-10-16T13:57:00Z</time>
      </trkpt>
      <trkpt lat="39.53746" lon="-7.63623">
        <ele>274.659</ele>
        <time>2019-10-16T13:57:20Z</time>
      </trkpt>
      <trkpt lat="39.53747" lon="-7.63611">
        <ele>274.857</ele>
        <time>2019-10-16T13:57:40Z</time>
      </trkpt>
      <trkpt lat="39.53748" lon="-7.636">
        <ele>274.959</ele>
        <time>2019-10-16T13:58:00Z</time>
      </trkpt>
      <trkpt lat="39.53748" lon="-7.63556">
        <ele>273.159</ele>
        <time>2019-10-16T13:58:20Z</time>
      </trkpt>
      <trkpt lat="39.53746" lon="-7.63543">
        <ele>272.721</ele>
        <time>2019-10-16T13:58:40Z</time>
      </trkpt>
      <trkpt lat="39.53742" lon="-7.63529">
        <ele>272.322</ele>
        <time>2019-10-16T13:59:00Z</time>
      </trkpt>
      <trkpt lat="39.53738" lon="-7.63515">
        <ele>271.884</ele>
        <time>2019-10-16T13:59:20Z</time>
      </trkpt>
      <trkpt lat="39.5373" lon="-7.63483">
        <ele>270.564</ele>
        <time>2019-10-16T13:59:40Z</time>
      </trkpt>
      <trkpt lat="39.53729" lon="-7.63476">
        <ele>270.471</ele>
        <time>2019-10-16T14:00:00Z</time>
      </trkpt>
      <trkpt lat="39.53731" lon="-7.63471">
        <ele>270.341</ele>
        <time>2019-10-16T14:00:20Z</time>
      </trkpt>
      <trkpt lat="39.53734" lon="-7.63467">
        <ele>270.415</ele>
        <time>2019-10-16T14:00:40Z</time>
      </trkpt>
      <trkpt lat="39.53739" lon="-7.63466">
        <ele>270.608</ele>
        <time>2019-10-16T14:01:00Z</time>
      </trkpt>
      <trkpt lat="39.53746" lon="-7.63465">
        <ele>270.911</ele>
        <time>2019-10-16T14:01:20Z</time>
      </trkpt>
      <trkpt lat="39.53754" lon="-7.63465">
        <ele>271.049</ele>
        <time>2019-10-16T14:01:40Z</time>
      </trkpt>
      <trkpt lat="39.53764" lon="-7.63462">
        <ele>271.011</ele>
        <time>2019-10-16T14:02:00Z</time>
      </trkpt>
      <trkpt lat="39.53775" lon="-7.6346">
        <ele>271.061</ele>
        <time>2019-10-16T14:02:20Z</time>
      </trkpt>
      <trkpt lat="39.53788" lon="-7.6346">
        <ele>270.853</ele>
        <time>2019-10-16T14:02:40Z</time>
      </trkpt>
      <trkpt lat="39.53851" lon="-7.63462">
        <ele>268.124</ele>
        <time>2019-10-16T14:03:00Z</time>
      </trkpt>
      <trkpt lat="39.53861" lon="-7.63464">
        <ele>267.336</ele>
        <time>2019-10-16T14:03:20Z</time>
      </trkpt>
      <trkpt lat="39.53871" lon="-7.6347">
        <ele>267.196</ele>
        <time>2019-10-16T14:03:40Z</time>
      </trkpt>
      <trkpt lat="39.53928" lon="-7.63502">
        <ele>264.543</ele>
        <time>2019-10-16T14:04:00Z</time>
      </trkpt>
      <trkpt lat="39.53939" lon="-7.63505">
        <ele>264.264</ele>
        <time>2019-10-16T14:04:20Z</time>
      </trkpt>
      <trkpt lat="39.54001" lon="-7.63517">
        <ele>263.31</ele>
        <time>2019-10-16T14:04:40Z</time>
      </trkpt>
      <trkpt lat="39.54013" lon="-7.63524">
        <ele>262.308</ele>
        <time>2019-10-16T14:05:00Z</time>
      </trkpt>
      <trkpt lat="39.54036" lon="-7.63537">
        <ele>260.678</ele>
        <time>2019-10-16T14:05:20Z</time>
      </trkpt>
      <trkpt lat="39.54047" lon="-7.63541">
        <ele>260.016</ele>
        <time>2019-10-16T14:05:40Z</time>
      </trkpt>
      <trkpt lat="39.54059" lon="-7.63544">
        <ele>259.248</ele>
        <time>2019-10-16T14:06:00Z</time>
      </trkpt>
      <trkpt lat="39.54082" lon="-7.63547">
        <ele>257.738</ele>
        <time>2019-10-16T14:06:20Z</time>
      </trkpt>
      <trkpt lat="39.54093" lon="-7.63546">
        <ele>256.98</ele>
        <time>2019-10-16T14:06:40Z</time>
      </trkpt>
      <trkpt lat="39.54103" lon="-7.63542">
        <ele>256.121</ele>
        <time>2019-10-16T14:07:00Z</time>
      </trkpt>
      <trkpt lat="39.54118" lon="-7.63535">
        <ele>254.323</ele>
        <time>2019-10-16T14:07:20Z</time>
      </trkpt>
      <trkpt lat="39.54125" lon="-7.63534">
        <ele>253.483</ele>
        <time>2019-10-16T14:07:40Z</time>
      </trkpt>
      <trkpt lat="39.54131" lon="-7.63536">
        <ele>252.791</ele>
        <time>2019-10-16T14:08:00Z</time>
      </trkpt>
      <trkpt lat="39.54136" lon="-7.6354">
        <ele>252.381</ele>
        <time>2019-10-16T14:08:20Z</time>
      </trkpt>
      <trkpt lat="39.54141" lon="-7.63546">
        <ele>252.219</ele>
        <time>2019-10-16T14:08:40Z</time>
      </trkpt>
      <trkpt lat="39.54146" lon="-7.63553">
        <ele>252.408</ele>
        <time>2019-10-16T14:09:00Z</time>
      </trkpt>
      <trkpt lat="39.54151" lon="-7.63558">
        <ele>252.053</ele>
        <time>2019-10-16T14:09:20Z</time>
      </trkpt>
      <trkpt lat="39.54159" lon="-7.63562">
        <ele>251.231</ele>
        <time>2019-10-16T14:09:40Z</time>
      </trkpt>
      <trkpt lat="39.54167" lon="-7.63565">
        <ele>250.343</ele>
        <time>2019-10-16T14:10:00Z</time>
      </trkpt>
      <trkpt lat="39.54177" lon="-7.63567">
        <ele>249.753</ele>
        <time>2019-10-16T14:10:20Z</time>
      </trkpt>
      <trkpt lat="39.54188" lon="-7.6357">
        <ele>249.215</ele>
        <time>2019-10-16T14:10:40Z</time>
      </trkpt>
      <trkpt lat="39.54199" lon="-7.63572">
        <ele>249.216</ele>
        <time>2019-10-16T14:11:00Z</time>
      </trkpt>
      <trkpt lat="39.5421" lon="-7.63576">
        <ele>249.618</ele>
        <time>2019-10-16T14:11:20Z</time>
      </trkpt>
      <trkpt lat="39.54219" lon="-7.63582">
        <ele>249.998</ele>
        <time>2019-10-16T14:11:40Z</time>
      </trkpt>
      <trkpt lat="39.54229" lon="-7.63588">
        <ele>249.965</ele>
        <time>2019-10-16T14:12:00Z</time>
      </trkpt>
      <trkpt lat="39.54239" lon="-7.63592">
        <ele>249.568</ele>
        <time>2019-10-16T14:12:20Z</time>
      </trkpt>
      <trkpt lat="39.54249" lon="-7.63596">
        <ele>249.014</ele>
        <time>2019-10-16T14:12:40Z</time>
      </trkpt>
      <trkpt lat="39.54261" lon="-7.63598">
        <ele>248.208</ele>
        <time>2019-10-16T14:13:00Z</time>
      </trkpt>
      <trkpt lat="39.54365" lon="-7.63617">
        <ele>248.95</ele>
        <time>2019-10-16T14:13:20Z</time>
      </trkpt>
      <trkpt lat="39.54427" lon="-7.63637">
        <ele>243.128</ele>
        <time>2019-10-16T14:13:40Z</time>
      </trkpt>
      <trkpt lat="39.54438" lon="-7.63637">
        <ele>242.06</ele>
        <time>2019-10-16T14:14:00Z</time>
      </trkpt>
      <trkpt lat="39.54449" lon="-7.63636">
        <ele>241.34</ele>
        <time>2019-10-16T14:14:20Z</time>
      </trkpt>
      <trkpt lat="39.54461" lon="-7.63633">
        <ele>241.552</ele>
        <time>2019-10-16T14:14:40Z</time>
      </trkpt>
      <trkpt lat="39.54472" lon="-7.63629">
        <ele>242.183</ele>
        <time>2019-10-16T14:15:00Z</time>
      </trkpt>
      <trkpt lat="39.5448" lon="-7.63624">
        <ele>243.875</ele>
        <time>2019-10-16T14:15:20Z</time>
      </trkpt>
      <trkpt lat="39.54487" lon="-7.63618">
        <ele>245.695</ele>
        <time>2019-10-16T14:15:40Z</time>
      </trkpt>
      <trkpt lat="39.54495" lon="-7.63611">
        <ele>247.782</ele>
        <time>2019-10-16T14:16:00Z</time>
      </trkpt>
      <trkpt lat="39.54533" lon="-7.63587">
        <ele>254.643</ele>
        <time>2019-10-16T14:16:20Z</time>
      </trkpt>
      <trkpt lat="39.54543" lon="-7.63584">
        <ele>256.717</ele>
        <time>2019-10-16T14:16:40Z</time>
      </trkpt>
      <trkpt lat="39.54564" lon="-7.63578">
        <ele>260.108</ele>
        <time>2019-10-16T14:17:00Z</time>
      </trkpt>
      <trkpt lat="39.54574" lon="-7.63573">
        <ele>261.392</ele>
        <time>2019-10-16T14:17:20Z</time>
      </trkpt>
      <trkpt lat="39.54581" lon="-7.63567">
        <ele>262.64</ele>
        <time>2019-10-16T14:17:40Z</time>
      </trkpt>
      <trkpt lat="39.54587" lon="-7.63558">
        <ele>263.332</ele>
        <time>2019-10-16T14:18:00Z</time>
      </trkpt>
      <trkpt lat="39.54593" lon="-7.63548">
        <ele>263.952</ele>
        <time>2019-10-16T14:18:20Z</time>
      </trkpt>
      <trkpt lat="39.54597" lon="-7.63537">
        <ele>264.914</ele>
        <time>2019-10-16T14:18:40Z</time>
      </trkpt>
      <trkpt lat="39.54602" lon="-7.63524">
        <ele>265.885</ele>
        <time>2019-10-16T14:19:00Z</time>
      </trkpt>
      <trkpt lat="39.54611" lon="-7.63499">
        <ele>267.017</ele>
        <time>2019-10-16T14:19:20Z</time>
      </trkpt>
      <trkpt lat="39.54626" lon="-7.63454">
        <ele>269.697</ele>
        <time>2019-10-16T14:19:40Z</time>
      </trkpt>
      <trkpt lat="39.54647" lon="-7.63401">
        <ele>277.629</ele>
        <time>2019-10-16T14:20:00Z</time>
      </trkpt>
      <trkpt lat="39.54651" lon="-7.63389">
        <ele>279.9</ele>
        <time>2019-10-16T14:20:20Z</time>
      </trkpt>
      <trkpt lat="39.54657" lon="-7.63364">
        <ele>285.72</ele>
        <time>2019-10-16T14:20:40Z</time>
      </trkpt>
      <trkpt lat="39.54661" lon="-7.63341">
        <ele>289.908</ele>
        <time>2019-10-16T14:21:00Z</time>
      </trkpt>
      <trkpt lat="39.54665" lon="-7.63318">
        <ele>294.446</ele>
        <time>2019-10-16T14:21:20Z</time>
      </trkpt>
      <trkpt lat="39.54671" lon="-7.63288">
        <ele>298.534</ele>
        <time>2019-10-16T14:21:40Z</time>
      </trkpt>
      <trkpt lat="39.54677" lon="-7.63254">
        <ele>301.896</ele>
        <time>2019-10-16T14:22:00Z</time>
      </trkpt>
      <trkpt lat="39.54684" lon="-7.63217">
        <ele>306.136</ele>
        <time>2019-10-16T14:22:20Z</time>
      </trkpt>
      <trkpt lat="39.54692" lon="-7.63171">
        <ele>310.758</ele>
        <time>2019-10-16T14:22:40Z</time>
      </trkpt>
      <trkpt lat="39.54697" lon="-7.6315">
        <ele>310.979</ele>
        <time>2019-10-16T14:23:00Z</time>
      </trkpt>
      <trkpt lat="39.547" lon="-7.63143">
        <ele>310.961</ele>
        <time>2019-10-16T14:23:20Z</time>
      </trkpt>
      <trkpt lat="39.54704" lon="-7.63138">
        <ele>311.091</ele>
        <time>2019-10-16T14:23:40Z</time>
      </trkpt>
      <trkpt lat="39.54709" lon="-7.63135">
        <ele>310.923</ele>
        <time>2019-10-16T14:24:00Z</time>
      </trkpt>
      <trkpt lat="39.54713" lon="-7.63134">
        <ele>310.983</ele>
        <time>2019-10-16T14:24:20Z</time>
      </trkpt>
      <trkpt lat="39.54717" lon="-7.63134">
        <ele>310.911</ele>
        <time>2019-10-16T14:24:40Z</time>
      </trkpt>
      <trkpt lat="39.54721" lon="-7.63135">
        <ele>311.008</ele>
        <time>2019-10-16T14:25:00Z</time>
      </trkpt>
      <trkpt lat="39.54736" lon="-7.63138">
        <ele>309.556</ele>
        <time>2019-10-16T14:25:20Z</time>
      </trkpt>
      <trkpt lat="39.54747" lon="-7.63142">
        <ele>308.124</ele>
        <time>2019-10-16T14:25:40Z</time>
      </trkpt>
      <trkpt lat="39.54751" lon="-7.63143">
        <ele>307.616</ele>
        <time>2019-10-16T14:26:00Z</time>
      </trkpt>
      <trkpt lat="39.54761" lon="-7.63148">
        <ele>306.536</ele>
        <time>2019-10-16T14:26:20Z</time>
      </trkpt>
      <trkpt lat="39.54809" lon="-7.63187">
        <ele>301.778</ele>
        <time>2019-10-16T14:26:40Z</time>
      </trkpt>
      <trkpt lat="39.54833" lon="-7.63205">
        <ele>298.119</ele>
        <time>2019-10-16T14:27:00Z</time>
      </trkpt>
      <trkpt lat="39.54857" lon="-7.63221">
        <ele>298.871</ele>
        <time>2019-10-16T14:27:20Z</time>
      </trkpt>
      <trkpt lat="39.54889" lon="-7.6326">
        <ele>300.681</ele>
        <time>2019-10-16T14:27:40Z</time>
      </trkpt>
      <trkpt lat="39.54895" lon="-7.63271">
        <ele>300.953</ele>
        <time>2019-10-16T14:28:00Z</time>
      </trkpt>
      <trkpt lat="39.54901" lon="-7.63284">
        <ele>301.104</ele>
        <time>2019-10-16T14:28:20Z</time>
      </trkpt>
      <trkpt lat="39.54918" lon="-7.63332">
        <ele>302.114</ele>
        <time>2019-10-16T14:28:40Z</time>
      </trkpt>
      <trkpt lat="39.54922" lon="-7.63341">
        <ele>302.108</ele>
        <time>2019-10-16T14:29:00Z</time>
      </trkpt>
      <trkpt lat="39.54927" lon="-7.63348">
        <ele>302.249</ele>
        <time>2019-10-16T14:29:20Z</time>
      </trkpt>
      <trkpt lat="39.54932" lon="-7.63353">
        <ele>302.487</ele>
        <time>2019-10-16T14:29:40Z</time>
      </trkpt>
      <trkpt lat="39.54938" lon="-7.63359">
        <ele>302.659</ele>
        <time>2019-10-16T14:30:00Z</time>
      </trkpt>
      <trkpt lat="39.54945" lon="-7.63364">
        <ele>302.899</ele>
        <time>2019-10-16T14:30:20Z</time>
      </trkpt>
      <trkpt lat="39.54952" lon="-7.63369">
        <ele>302.741</ele>
        <time>2019-10-16T14:30:40Z</time>
      </trkpt>
      <trkpt lat="39.55047" lon="-7.63422">
        <ele>296.422</ele>
        <time>2019-10-16T14:31:00Z</time>
      </trkpt>
      <trkpt lat="39.55089" lon="-7.63448">
        <ele>296.054</ele>
        <time>2019-10-16T14:31:20Z</time>
      </trkpt>
      <trkpt lat="39.55113" lon="-7.63464">
        <ele>296.734</ele>
        <time>2019-10-16T14:31:40Z</time>
      </trkpt>
      <trkpt lat="39.55117" lon="-7.63465">
        <ele>296.855</ele>
        <time>2019-10-16T14:32:00Z</time>
      </trkpt>
      <trkpt lat="39.5512" lon="-7.63465">
        <ele>296.907</ele>
        <time>2019-10-16T14:32:20Z</time>
      </trkpt>
      <trkpt lat="39.55123" lon="-7.63466">
        <ele>297.017</ele>
        <time>2019-10-16T14:32:40Z</time>
      </trkpt>
      <trkpt lat="39.55126" lon="-7.63467">
        <ele>297.108</ele>
        <time>2019-10-16T14:33:00Z</time>
      </trkpt>
      <trkpt lat="39.55128" lon="-7.63468">
        <ele>297.269</ele>
        <time>2019-10-16T14:33:20Z</time>
      </trkpt>
      <trkpt lat="39.5513" lon="-7.63469">
        <ele>297.417</ele>
        <time>2019-10-16T14:33:40Z</time>
      </trkpt>
      <trkpt lat="39.55132" lon="-7.63469">
        <ele>297.589</ele>
        <time>2019-10-16T14:34:00Z</time>
      </trkpt>
      <trkpt lat="39.55134" lon="-7.63472">
        <ele>297.819</ele>
        <time>2019-10-16T14:34:20Z</time>
      </trkpt>
      <trkpt lat="39.55147" lon="-7.63473">
        <ele>296.941</ele>
        <time>2019-10-16T14:34:40Z</time>
      </trkpt>
      <trkpt lat="39.55153" lon="-7.63474">
        <ele>296.032</ele>
        <time>2019-10-16T14:35:00Z</time>
      </trkpt>
      <trkpt lat="39.55159" lon="-7.63474">
        <ele>295.384</ele>
        <time>2019-10-16T14:35:20Z</time>
      </trkpt>
      <trkpt lat="39.55164" lon="-7.63476">
        <ele>294.674</ele>
        <time>2019-10-16T14:35:40Z</time>
      </trkpt>
      <trkpt lat="39.5517" lon="-7.63478">
        <ele>293.995</ele>
        <time>2019-10-16T14:36:00Z</time>
      </trkpt>
      <trkpt lat="39.55176" lon="-7.63482">
        <ele>293.249</ele>
        <time>2019-10-16T14:36:20Z</time>
      </trkpt>
      <trkpt lat="39.55183" lon="-7.63486">
        <ele>292.723</ele>
        <time>2019-10-16T14:36:40Z</time>
      </trkpt>
      <trkpt lat="39.55207" lon="-7.635">
        <ele>291.008</ele>
        <time>2019-10-16T14:37:00Z</time>
      </trkpt>
      <trkpt lat="39.55217" lon="-7.63502">
        <ele>290.273</ele>
        <time>2019-10-16T14:37:20Z</time>
      </trkpt>
      <trkpt lat="39.55251" lon="-7.6351">
        <ele>287.361</ele>
        <time>2019-10-16T14:37:40Z</time>
      </trkpt>
      <trkpt lat="39.55269" lon="-7.63511">
        <ele>285.233</ele>
        <time>2019-10-16T14:38:00Z</time>
      </trkpt>
      <trkpt lat="39.55274" lon="-7.63514">
        <ele>285.023</ele>
        <time>2019-10-16T14:38:20Z</time>
      </trkpt>
      <trkpt lat="39.55279" lon="-7.63518">
        <ele>284.935</ele>
        <time>2019-10-16T14:38:40Z</time>
      </trkpt>
      <trkpt lat="39.55285" lon="-7.63524">
        <ele>284.626</ele>
        <time>2019-10-16T14:39:00Z</time>
      </trkpt>
      <trkpt lat="39.55291" lon="-7.63531">
        <ele>284.038</ele>
        <time>2019-10-16T14:39:20Z</time>
      </trkpt>
      <trkpt lat="39.55297" lon="-7.63539">
        <ele>282.828</ele>
        <time>2019-10-16T14:39:40Z</time>
      </trkpt>
      <trkpt lat="39.55309" lon="-7.63555">
        <ele>280.435</ele>
        <time>2019-10-16T14:40:00Z</time>
      </trkpt>
      <trkpt lat="39.55321" lon="-7.63571">
        <ele>278.886</ele>
        <time>2019-10-16T14:40:20Z</time>
      </trkpt>
      <trkpt lat="39.55324" lon="-7.63573">
        <ele>278.314</ele>
        <time>2019-10-16T14:40:40Z</time>
      </trkpt>
      <trkpt lat="39.55327" lon="-7.63574">
        <ele>277.908</ele>
        <time>2019-10-16T14:41:00Z</time>
      </trkpt>
      <trkpt lat="39.5533" lon="-7.63574">
        <ele>277.547</ele>
        <time>2019-10-16T14:41:20Z</time>
      </trkpt>
      <trkpt lat="39.55334" lon="-7.63573">
        <ele>277.015</ele>
        <time>2019-10-16T14:41:40Z</time>
      </trkpt>
      <trkpt lat="39.55339" lon="-7.63571">
        <ele>277.037</ele>
        <time>2019-10-16T14:42:00Z</time>
      </trkpt>
      <trkpt lat="39.55344" lon="-7.63569">
        <ele>277.047</ele>
        <time>2019-10-16T14:42:20Z</time>
      </trkpt>
      <trkpt lat="39.55401" lon="-7.63523">
        <ele>275.379</ele>
        <time>2019-10-16T14:42:40Z</time>
      </trkpt>
      <trkpt lat="39.5542" lon="-7.63507">
        <ele>274.56</ele>
        <time>2019-10-16T14:43:00Z</time>
      </trkpt>
      <trkpt lat="39.55446" lon="-7.63481">
        <ele>273.182</ele>
        <time>2019-10-16T14:43:20Z</time>
      </trkpt>
      <trkpt lat="39.55451" lon="-7.63478">
        <ele>272.592</ele>
        <time>2019-10-16T14:43:40Z</time>
      </trkpt>
      <trkpt lat="39.55458" lon="-7.63476">
        <ele>271.929</ele>
        <time>2019-10-16T14:44:00Z</time>
      </trkpt>
      <trkpt lat="39.55474" lon="-7.63473">
        <ele>270.4</ele>
        <time>2019-10-16T14:44:20Z</time>
      </trkpt>
      <trkpt lat="39.55482" lon="-7.6347">
        <ele>268.02</ele>
        <time>2019-10-16T14:44:40Z</time>
      </trkpt>
      <trkpt lat="39.55507" lon="-7.6346">
        <ele>260.508</ele>
        <time>2019-10-16T14:45:00Z</time>
      </trkpt>
      <trkpt lat="39.55516" lon="-7.63458">
        <ele>257.866</ele>
        <time>2019-10-16T14:45:20Z</time>
      </trkpt>
      <trkpt lat="39.55526" lon="-7.63457">
        <ele>255.154</ele>
        <time>2019-10-16T14:45:40Z</time>
      </trkpt>
      <trkpt lat="39.55535" lon="-7.63457">
        <ele>253.726</ele>
        <time>2019-10-16T14:46:00Z</time>
      </trkpt>
      <trkpt lat="39.55545" lon="-7.63456">
        <ele>252.716</ele>
        <time>2019-10-16T14:46:20Z</time>
      </trkpt>
      <trkpt lat="39.55554" lon="-7.63454">
        <ele>251.898</ele>
        <time>2019-10-16T14:46:40Z</time>
      </trkpt>
      <trkpt lat="39.55564" lon="-7.63451">
        <ele>252.169</ele>
        <time>2019-10-16T14:47:00Z</time>
      </trkpt>
      <trkpt lat="39.55592" lon="-7.63441">
        <ele>252.121</ele>
        <time>2019-10-16T14:47:20Z</time>
      </trkpt>
      <trkpt lat="39.55601" lon="-7.63436">
        <ele>251.281</ele>
        <time>2019-10-16T14:47:40Z</time>
      </trkpt>
      <trkpt lat="39.5561" lon="-7.6343">
        <ele>250.415</ele>
        <time>2019-10-16T14:48:00Z</time>
      </trkpt>
      <trkpt lat="39.55619" lon="-7.63423">
        <ele>249.565</ele>
        <time>2019-10-16T14:48:20Z</time>
      </trkpt>
      <trkpt lat="39.55627" lon="-7.63415">
        <ele>248.811</ele>
        <time>2019-10-16T14:48:40Z</time>
      </trkpt>
      <trkpt lat="39.55636" lon="-7.63409">
        <ele>248.008</ele>
        <time>2019-10-16T14:49:00Z</time>
      </trkpt>
      <trkpt lat="39.55645" lon="-7.63403">
        <ele>248.235</ele>
        <time>2019-10-16T14:49:20Z</time>
      </trkpt>
      <trkpt lat="39.55682" lon="-7.63379">
        <ele>251.973</ele>
        <time>2019-10-16T14:49:40Z</time>
      </trkpt>
      <trkpt lat="39.5569" lon="-7.6337">
        <ele>251.685</ele>
        <time>2019-10-16T14:50:00Z</time>
      </trkpt>
      <trkpt lat="39.55697" lon="-7.6336">
        <ele>250.155</ele>
        <time>2019-10-16T14:50:20Z</time>
      </trkpt>
      <trkpt lat="39.55703" lon="-7.63349">
        <ele>248.497</ele>
        <time>2019-10-16T14:50:40Z</time>
      </trkpt>
      <trkpt lat="39.55709" lon="-7.63337">
        <ele>246.888</ele>
        <time>2019-10-16T14:51:00Z</time>
      </trkpt>
      <trkpt lat="39.55725" lon="-7.63301">
        <ele>241.97</ele>
        <time>2019-10-16T14:51:20Z</time>
      </trkpt>
      <trkpt lat="39.5574" lon="-7.63253">
        <ele>236.57</ele>
        <time>2019-10-16T14:51:40Z</time>
      </trkpt>
      <trkpt lat="39.55744" lon="-7.63245">
        <ele>236.311</ele>
        <time>2019-10-16T14:52:00Z</time>
      </trkpt>
      <trkpt lat="39.55749" lon="-7.63239">
        <ele>236.621</ele>
        <time>2019-10-16T14:52:20Z</time>
      </trkpt>
      <trkpt lat="39.55753" lon="-7.63232">
        <ele>235.703</ele>
        <time>2019-10-16T14:52:40Z</time>
      </trkpt>
      <trkpt lat="39.55756" lon="-7.63225">
        <ele>234.308</ele>
        <time>2019-10-16T14:53:00Z</time>
      </trkpt>
      <trkpt lat="39.55757" lon="-7.63217">
        <ele>232.665</ele>
        <time>2019-10-16T14:53:20Z</time>
      </trkpt>
      <trkpt lat="39.55758" lon="-7.63209">
        <ele>230.763</ele>
        <time>2019-10-16T14:53:40Z</time>
      </trkpt>
      <trkpt lat="39.55757" lon="-7.63201">
        <ele>229.075</ele>
        <time>2019-10-16T14:54:00Z</time>
      </trkpt>
      <trkpt lat="39.55758" lon="-7.63195">
        <ele>227.635</ele>
        <time>2019-10-16T14:54:20Z</time>
      </trkpt>
      <trkpt lat="39.5576" lon="-7.6319">
        <ele>226.647</ele>
        <time>2019-10-16T14:54:40Z</time>
      </trkpt>
      <trkpt lat="39.55763" lon="-7.63186">
        <ele>226.118</ele>
        <time>2019-10-16T14:55:00Z</time>
      </trkpt>
      <trkpt lat="39.55778" lon="-7.63175">
        <ele>226.21</ele>
        <time>2019-10-16T14:55:20Z</time>
      </trkpt>
      <trkpt lat="39.55782" lon="-7.63174">
        <ele>225.54</ele>
        <time>2019-10-16T14:55:40Z</time>
      </trkpt>
      <trkpt lat="39.55786" lon="-7.63175">
        <ele>225.166</ele>
        <time>2019-10-16T14:56:00Z</time>
      </trkpt>
      <trkpt lat="39.5579" lon="-7.63178">
        <ele>225.029</ele>
        <time>2019-10-16T14:56:20Z</time>
      </trkpt>
      <trkpt lat="39.55794" lon="-7.63183">
        <ele>225.021</ele>
        <time>2019-10-16T14:56:40Z</time>
      </trkpt>
      <trkpt lat="39.55798" lon="-7.6319">
        <ele>224.908</ele>
        <time>2019-10-16T14:57:00Z</time>
      </trkpt>
      <trkpt lat="39.55817" lon="-7.63221">
        <ele>225.88</ele>
        <time>2019-10-16T14:57:20Z</time>
      </trkpt>
      <trkpt lat="39.55853" lon="-7.63275">
        <ele>223.748</ele>
        <time>2019-10-16T14:57:40Z</time>
      </trkpt>
      <trkpt lat="39.5586" lon="-7.6328">
        <ele>221.45</ele>
        <time>2019-10-16T14:58:00Z</time>
      </trkpt>
      <trkpt lat="39.55868" lon="-7.63283">
        <ele>218.52</ele>
        <time>2019-10-16T14:58:20Z</time>
      </trkpt>
      <trkpt lat="39.55876" lon="-7.63283">
        <ele>215.662</ele>
        <time>2019-10-16T14:58:40Z</time>
      </trkpt>
      <trkpt lat="39.55883" lon="-7.63282">
        <ele>212.883</ele>
        <time>2019-10-16T14:59:00Z</time>
      </trkpt>
      <trkpt lat="39.55888" lon="-7.6328">
        <ele>210.555</ele>
        <time>2019-10-16T14:59:20Z</time>
      </trkpt>
      <trkpt lat="39.55898" lon="-7.63279">
        <ele>208.915</ele>
        <time>2019-10-16T14:59:40Z</time>
      </trkpt>
      <trkpt lat="39.55906" lon="-7.63281">
        <ele>207.628</ele>
        <time>2019-10-16T15:00:00Z</time>
      </trkpt>
      <trkpt lat="39.55913" lon="-7.63281">
        <ele>206.689</ele>
        <time>2019-10-16T15:00:20Z</time>
      </trkpt>
      <trkpt lat="39.5592" lon="-7.63278">
        <ele>205.517</ele>
        <time>2019-10-16T15:00:40Z</time>
      </trkpt>
      <trkpt lat="39.55926" lon="-7.63272">
        <ele>203.708</ele>
        <time>2019-10-16T15:01:00Z</time>
      </trkpt>
      <trkpt lat="39.5593" lon="-7.63263">
        <ele>202.026</ele>
        <time>2019-10-16T15:01:20Z</time>
      </trkpt>
      <trkpt lat="39.55932" lon="-7.63254">
        <ele>200.554</ele>
        <time>2019-10-16T15:01:40Z</time>
      </trkpt>
      <trkpt lat="39.55934" lon="-7.63245">
        <ele>199.166</ele>
        <time>2019-10-16T15:02:00Z</time>
      </trkpt>
      <trkpt lat="39.55936" lon="-7.63238">
        <ele>198.046</ele>
        <time>2019-10-16T15:02:20Z</time>
      </trkpt>
      <trkpt lat="39.55939" lon="-7.63232">
        <ele>197.258</ele>
        <time>2019-10-16T15:02:40Z</time>
      </trkpt>
      <trkpt lat="39.55944" lon="-7.63227">
        <ele>196.539</ele>
        <time>2019-10-16T15:03:00Z</time>
      </trkpt>
      <trkpt lat="39.5595" lon="-7.63223">
        <ele>195.381</ele>
        <time>2019-10-16T15:03:20Z</time>
      </trkpt>
      <trkpt lat="39.55957" lon="-7.63218">
        <ele>193.771</ele>
        <time>2019-10-16T15:03:40Z</time>
      </trkpt>
      <trkpt lat="39.55965" lon="-7.63214">
        <ele>192.024</ele>
        <time>2019-10-16T15:04:00Z</time>
      </trkpt>
      <trkpt lat="39.55981" lon="-7.63205">
        <ele>187.104</ele>
        <time>2019-10-16T15:04:20Z</time>
      </trkpt>
      <trkpt lat="39.55997" lon="-7.63198">
        <ele>181.314</ele>
        <time>2019-10-16T15:04:40Z</time>
      </trkpt>
      <trkpt lat="39.56004" lon="-7.63197">
        <ele>178.908</ele>
        <time>2019-10-16T15:05:00Z</time>
      </trkpt>
      <trkpt lat="39.56019" lon="-7.63195">
        <ele>174.616</ele>
        <time>2019-10-16T15:05:20Z</time>
      </trkpt>
      <trkpt lat="39.56029" lon="-7.63194">
        <ele>171.864</ele>
        <time>2019-10-16T15:05:40Z</time>
      </trkpt>
      <trkpt lat="39.56041" lon="-7.63197">
        <ele>170.356</ele>
        <time>2019-10-16T15:06:00Z</time>
      </trkpt>
      <trkpt lat="39.56045" lon="-7.632">
        <ele>169.826</ele>
        <time>2019-10-16T15:06:20Z</time>
      </trkpt>
      <trkpt lat="39.5605" lon="-7.63201">
        <ele>169.158</ele>
        <time>2019-10-16T15:06:40Z</time>
      </trkpt>
      <trkpt lat="39.56054" lon="-7.632">
        <ele>168.449</ele>
        <time>2019-10-16T15:07:00Z</time>
      </trkpt>
      <trkpt lat="39.56057" lon="-7.63198">
        <ele>168.151</ele>
        <time>2019-10-16T15:07:20Z</time>
      </trkpt>
      <trkpt lat="39.56058" lon="-7.63197">
        <ele>168.031</ele>
        <time>2019-10-16T15:07:40Z</time>
      </trkpt>
      <trkpt lat="39.56059" lon="-7.63194">
        <ele>167.959</ele>
        <time>2019-10-16T15:08:00Z</time>
      </trkpt>
      <trkpt lat="39.56063" lon="-7.63182">
        <ele>167.603</ele>
        <time>2019-10-16T15:08:20Z</time>
      </trkpt>
      <trkpt lat="39.56067" lon="-7.63176">
        <ele>167.323</ele>
        <time>2019-10-16T15:08:40Z</time>
      </trkpt>
      <trkpt lat="39.56072" lon="-7.6317">
        <ele>166.908</ele>
        <time>2019-10-16T15:09:00Z</time>
      </trkpt>
      <trkpt lat="39.56078" lon="-7.63167">
        <ele>166.349</ele>
        <time>2019-10-16T15:09:20Z</time>
      </trkpt>
      <trkpt lat="39.56084" lon="-7.63165">
        <ele>165.947</ele>
        <time>2019-10-16T15:09:40Z</time>
      </trkpt>
      <trkpt lat="39.56091" lon="-7.63165">
        <ele>165.679</ele>
        <time>2019-10-16T15:10:00Z</time>
      </trkpt>
      <trkpt lat="39.56098" lon="-7.63163">
        <ele>165.329</ele>
        <time>2019-10-16T15:10:20Z</time>
      </trkpt>
      <trkpt lat="39.56123" lon="-7.63158">
        <ele>163.861</ele>
        <time>2019-10-16T15:10:40Z</time>
      </trkpt>
      <trkpt lat="39.56131" lon="-7.63159">
        <ele>163.442</ele>
        <time>2019-10-16T15:11:00Z</time>
      </trkpt>
      <trkpt lat="39.56139" lon="-7.63161">
        <ele>163.074</ele>
        <time>2019-10-16T15:11:20Z</time>
      </trkpt>
      <trkpt lat="39.56146" lon="-7.63164">
        <ele>162.794</ele>
        <time>2019-10-16T15:11:40Z</time>
      </trkpt>
      <trkpt lat="39.56153" lon="-7.63169">
        <ele>162.423</ele>
        <time>2019-10-16T15:12:00Z</time>
      </trkpt>
      <trkpt lat="39.56161" lon="-7.63173">
        <ele>162.083</ele>
        <time>2019-10-16T15:12:20Z</time>
      </trkpt>
      <trkpt lat="39.56174" lon="-7.6318">
        <ele>160.211</ele>
        <time>2019-10-16T15:12:40Z</time>
      </trkpt>
      <trkpt lat="39.56185" lon="-7.63184">
        <ele>158.108</ele>
        <time>2019-10-16T15:13:00Z</time>
      </trkpt>
      <trkpt lat="39.56191" lon="-7.63184">
        <ele>157.096</ele>
        <time>2019-10-16T15:13:20Z</time>
      </trkpt>
      <trkpt lat="39.56197" lon="-7.63183">
        <ele>156.014</ele>
        <time>2019-10-16T15:13:40Z</time>
      </trkpt>
      <trkpt lat="39.56204" lon="-7.63181">
        <ele>154.866</ele>
        <time>2019-10-16T15:14:00Z</time>
      </trkpt>
      <trkpt lat="39.5621" lon="-7.63177">
        <ele>153.966</ele>
        <time>2019-10-16T15:14:20Z</time>
      </trkpt>
      <trkpt lat="39.56215" lon="-7.63173">
        <ele>153.118</ele>
        <time>2019-10-16T15:14:40Z</time>
      </trkpt>
      <trkpt lat="39.56218" lon="-7.63167">
        <ele>152.759</ele>
        <time>2019-10-16T15:15:00Z</time>
      </trkpt>
      <trkpt lat="39.5622" lon="-7.6316">
        <ele>152.981</ele>
        <time>2019-10-16T15:15:20Z</time>
      </trkpt>
      <trkpt lat="39.56219" lon="-7.63154">
        <ele>153.461</ele>
        <time>2019-10-16T15:15:40Z</time>
      </trkpt>
      <trkpt lat="39.56217" lon="-7.63147">
        <ele>154.325</ele>
        <time>2019-10-16T15:16:00Z</time>
      </trkpt>
      <trkpt lat="39.56213" lon="-7.6314">
        <ele>155.226</ele>
        <time>2019-10-16T15:16:20Z</time>
      </trkpt>
      <trkpt lat="39.5621" lon="-7.63133">
        <ele>155.208</ele>
        <time>2019-10-16T15:16:40Z</time>
      </trkpt>
      <trkpt lat="39.56208" lon="-7.63127">
        <ele>154.808</ele>
        <time>2019-10-16T15:17:00Z</time>
      </trkpt>
      <trkpt lat="39.56207" lon="-7.63122">
        <ele>154.376</ele>
        <time>2019-10-16T15:17:20Z</time>
      </trkpt>
      <trkpt lat="39.56207" lon="-7.63117">
        <ele>153.954</ele>
        <time>2019-10-16T15:17:40Z</time>
      </trkpt>
      <trkpt lat="39.56208" lon="-7.63114">
        <ele>153.496</ele>
        <time>2019-10-16T15:18:00Z</time>
      </trkpt>
      <trkpt lat="39.56209" lon="-7.63111">
        <ele>153.096</ele>
        <time>2019-10-16T15:18:20Z</time>
      </trkpt>
      <trkpt lat="39.5621" lon="-7.63109">
        <ele>152.528</ele>
        <time>2019-10-16T15:18:40Z</time>
      </trkpt>
      <trkpt lat="39.56212" lon="-7.63107">
        <ele>152.199</ele>
        <time>2019-10-16T15:19:00Z</time>
      </trkpt>
      <trkpt lat="39.56215" lon="-7.63104">
        <ele>151.531</ele>
        <time>2019-10-16T15:19:20Z</time>
      </trkpt>
      <trkpt lat="39.56218" lon="-7.63101">
        <ele>150.851</ele>
        <time>2019-10-16T15:19:40Z</time>
      </trkpt>
      <trkpt lat="39.56221" lon="-7.63098">
        <ele>150.137</ele>
        <time>2019-10-16T15:20:00Z</time>
      </trkpt>
      <trkpt lat="39.56227" lon="-7.63089">
        <ele>149.649</ele>
        <time>2019-10-16T15:20:20Z</time>
      </trkpt>
      <trkpt lat="39.56232" lon="-7.63084">
        <ele>149.413</ele>
        <time>2019-10-16T15:20:40Z</time>
      </trkpt>
      <trkpt lat="39.56238" lon="-7.63078">
        <ele>149.608</ele>
        <time>2019-10-16T15:21:00Z</time>
      </trkpt>
      <trkpt lat="39.5627" lon="-7.6305">
        <ele>153.087</ele>
        <time>2019-10-16T15:21:20Z</time>
      </trkpt>
      <trkpt lat="39.56292" lon="-7.63031">
        <ele>157.265</ele>
        <time>2019-10-16T15:21:40Z</time>
      </trkpt>
      <trkpt lat="39.563" lon="-7.63027">
        <ele>158.857</ele>
        <time>2019-10-16T15:22:00Z</time>
      </trkpt>
      <trkpt lat="39.56308" lon="-7.63025">
        <ele>160.847</ele>
        <time>2019-10-16T15:22:20Z</time>
      </trkpt>
      <trkpt lat="39.56337" lon="-7.63023">
        <ele>168.149</ele>
        <time>2019-10-16T15:22:40Z</time>
      </trkpt>
      <trkpt lat="39.56354" lon="-7.63021">
        <ele>171.29</ele>
        <time>2019-10-16T15:23:00Z</time>
      </trkpt>
      <trkpt lat="39.56359" lon="-7.63019">
        <ele>172.362</ele>
        <time>2019-10-16T15:23:20Z</time>
      </trkpt>
      <trkpt lat="39.56363" lon="-7.63015">
        <ele>173.162</ele>
        <time>2019-10-16T15:23:40Z</time>
      </trkpt>
      <trkpt lat="39.56373" lon="-7.63002">
        <ele>174.779</ele>
        <time>2019-10-16T15:24:00Z</time>
      </trkpt>
      <trkpt lat="39.56388" lon="-7.62988">
        <ele>176.005</ele>
        <time>2019-10-16T15:24:20Z</time>
      </trkpt>
      <trkpt lat="39.56397" lon="-7.62982">
        <ele>176.325</ele>
        <time>2019-10-16T15:24:40Z</time>
      </trkpt>
      <trkpt lat="39.56407" lon="-7.62977">
        <ele>176.708</ele>
        <time>2019-10-16T15:25:00Z</time>
      </trkpt>
      <trkpt lat="39.56418" lon="-7.62975">
        <ele>177.121</ele>
        <time>2019-10-16T15:25:20Z</time>
      </trkpt>
      <trkpt lat="39.56428" lon="-7.62975">
        <ele>178.219</ele>
        <time>2019-10-16T15:25:40Z</time>
      </trkpt>
      <trkpt lat="39.56448" lon="-7.62974">
        <ele>180.491</ele>
        <time>2019-10-16T15:26:00Z</time>
      </trkpt>
      <trkpt lat="39.56459" lon="-7.62971">
        <ele>181.551</ele>
        <time>2019-10-16T15:26:20Z</time>
      </trkpt>
      <trkpt lat="39.5649" lon="-7.62957">
        <ele>184.333</ele>
        <time>2019-10-16T15:26:40Z</time>
      </trkpt>
      <trkpt lat="39.56499" lon="-7.62951">
        <ele>184.984</ele>
        <time>2019-10-16T15:27:00Z</time>
      </trkpt>
      <trkpt lat="39.56507" lon="-7.62942">
        <ele>185.536</ele>
        <time>2019-10-16T15:27:20Z</time>
      </trkpt>
      <trkpt lat="39.56514" lon="-7.62931">
        <ele>185.846</ele>
        <time>2019-10-16T15:27:40Z</time>
      </trkpt>
      <trkpt lat="39.5652" lon="-7.62921">
        <ele>185.896</ele>
        <time>2019-10-16T15:28:00Z</time>
      </trkpt>
      <trkpt lat="39.56566" lon="-7.6282">
        <ele>176.931</ele>
        <time>2019-10-16T15:28:20Z</time>
      </trkpt>
      <trkpt lat="39.56583" lon="-7.62787">
        <ele>174.024</ele>
        <time>2019-10-16T15:28:40Z</time>
      </trkpt>
      <trkpt lat="39.56587" lon="-7.62777">
        <ele>174.008</ele>
        <time>2019-10-16T15:29:00Z</time>
      </trkpt>
      <trkpt lat="39.5659" lon="-7.62765">
        <ele>173.563</ele>
        <time>2019-10-16T15:29:20Z</time>
      </trkpt>
      <trkpt lat="39.5659" lon="-7.62752">
        <ele>173.141</ele>
        <time>2019-10-16T15:29:40Z</time>
      </trkpt>
      <trkpt lat="39.56589" lon="-7.62727">
        <ele>173.083</ele>
        <time>2019-10-16T15:30:00Z</time>
      </trkpt>
      <trkpt lat="39.56587" lon="-7.62717">
        <ele>173.063</ele>
        <time>2019-10-16T15:30:20Z</time>
      </trkpt>
      <trkpt lat="39.5658" lon="-7.62694">
        <ele>172.975</ele>
        <time>2019-10-16T15:30:40Z</time>
      </trkpt>
      <trkpt lat="39.56577" lon="-7.62675">
        <ele>172.256</ele>
        <time>2019-10-16T15:31:00Z</time>
      </trkpt>
      <trkpt lat="39.56579" lon="-7.62673">
        <ele>172.278</ele>
        <time>2019-10-16T15:31:20Z</time>
      </trkpt>
      <trkpt lat="39.56582" lon="-7.6267">
        <ele>172.188</ele>
        <time>2019-10-16T15:31:40Z</time>
      </trkpt>
      <trkpt lat="39.56585" lon="-7.62668">
        <ele>172.198</ele>
        <time>2019-10-16T15:32:00Z</time>
      </trkpt>
      <trkpt lat="39.56588" lon="-7.62667">
        <ele>172.015</ele>
        <time>2019-10-16T15:32:20Z</time>
      </trkpt>
      <trkpt lat="39.56592" lon="-7.62665">
        <ele>172.126</ele>
        <time>2019-10-16T15:32:40Z</time>
      </trkpt>
      <trkpt lat="39.56595" lon="-7.62664">
        <ele>172.208</ele>
        <time>2019-10-16T15:33:00Z</time>
      </trkpt>
      <trkpt lat="39.56598" lon="-7.62662">
        <ele>172.343</ele>
        <time>2019-10-16T15:33:20Z</time>
      </trkpt>
      <trkpt lat="39.56633" lon="-7.62637">
        <ele>172.791</ele>
        <time>2019-10-16T15:33:40Z</time>
      </trkpt>
      <trkpt lat="39.56679" lon="-7.62604">
        <ele>176.243</ele>
        <time>2019-10-16T15:34:00Z</time>
      </trkpt>
      <trkpt lat="39.56742" lon="-7.62558">
        <ele>176.293</ele>
        <time>2019-10-16T15:34:20Z</time>
      </trkpt>
      <trkpt lat="39.56779" lon="-7.62531">
        <ele>175.425</ele>
        <time>2019-10-16T15:34:40Z</time>
      </trkpt>
      <trkpt lat="39.56784" lon="-7.62523">
        <ele>175.396</ele>
        <time>2019-10-16T15:35:00Z</time>
      </trkpt>
      <trkpt lat="39.56929" lon="-7.62434">
        <ele>186.548</ele>
        <time>2019-10-16T15:35:20Z</time>
      </trkpt>
      <trkpt lat="39.57091" lon="-7.6234">
        <ele>189.178</ele>
        <time>2019-10-16T15:35:40Z</time>
      </trkpt>
      <trkpt lat="39.57258" lon="-7.62257">
        <ele>191.254</ele>
        <time>2019-10-16T15:36:00Z</time>
      </trkpt>
      <trkpt lat="39.57533" lon="-7.622">
        <ele>194.756</ele>
        <time>2019-10-16T15:36:20Z</time>
      </trkpt>
      <trkpt lat="39.57724" lon="-7.62217">
        <ele>201.011</ele>
        <time>2019-10-16T15:36:40Z</time>
      </trkpt>
      <trkpt lat="39.57728" lon="-7.62219">
        <ele>201.508</ele>
        <time>2019-10-16T15:37:00Z</time>
      </trkpt>
      <trkpt lat="39.57733" lon="-7.6222">
        <ele>202.289</ele>
        <time>2019-10-16T15:37:20Z</time>
      </trkpt>
      <trkpt lat="39.5774" lon="-7.62222">
        <ele>202.987</ele>
        <time>2019-10-16T15:37:40Z</time>
      </trkpt>
      <trkpt lat="39.57776" lon="-7.6223">
        <ele>206.369</ele>
        <time>2019-10-16T15:38:00Z</time>
      </trkpt>
      <trkpt lat="39.57831" lon="-7.62242">
        <ele>205.389</ele>
        <time>2019-10-16T15:38:20Z</time>
      </trkpt>
      <trkpt lat="39.57842" lon="-7.62244">
        <ele>205.361</ele>
        <time>2019-10-16T15:38:40Z</time>
      </trkpt>
      <trkpt lat="39.57898" lon="-7.62256">
        <ele>210.092</ele>
        <time>2019-10-16T15:39:00Z</time>
      </trkpt>
      <trkpt lat="39.57924" lon="-7.6227">
        <ele>212.584</ele>
        <time>2019-10-16T15:39:20Z</time>
      </trkpt>
      <trkpt lat="39.57943" lon="-7.62288">
        <ele>213.354</ele>
        <time>2019-10-16T15:39:40Z</time>
      </trkpt>
      <trkpt lat="39.5795" lon="-7.62297">
        <ele>214.022</ele>
        <time>2019-10-16T15:40:00Z</time>
      </trkpt>
      <trkpt lat="39.57955" lon="-7.62306">
        <ele>214.362</ele>
        <time>2019-10-16T15:40:20Z</time>
      </trkpt>
      <trkpt lat="39.57958" lon="-7.62316">
        <ele>214.108</ele>
        <time>2019-10-16T15:40:40Z</time>
      </trkpt>
      <trkpt lat="39.57961" lon="-7.62327">
        <ele>213.708</ele>
        <time>2019-10-16T15:41:00Z</time>
      </trkpt>
      <trkpt lat="39.57965" lon="-7.62335">
        <ele>213.216</ele>
        <time>2019-10-16T15:41:20Z</time>
      </trkpt>
      <trkpt lat="39.5797" lon="-7.62344">
        <ele>212.864</ele>
        <time>2019-10-16T15:41:40Z</time>
      </trkpt>
      <trkpt lat="39.57976" lon="-7.62351">
        <ele>212.316</ele>
        <time>2019-10-16T15:42:00Z</time>
      </trkpt>
      <trkpt lat="39.57983" lon="-7.62359">
        <ele>211.876</ele>
        <time>2019-10-16T15:42:20Z</time>
      </trkpt>
      <trkpt lat="39.57991" lon="-7.62366">
        <ele>211.148</ele>
        <time>2019-10-16T15:42:40Z</time>
      </trkpt>
      <trkpt lat="39.58015" lon="-7.62388">
        <ele>209.629</ele>
        <time>2019-10-16T15:43:00Z</time>
      </trkpt>
      <trkpt lat="39.58022" lon="-7.62397">
        <ele>209.341</ele>
        <time>2019-10-16T15:43:20Z</time>
      </trkpt>
      <trkpt lat="39.58037" lon="-7.62427">
        <ele>210.281</ele>
        <time>2019-10-16T15:43:40Z</time>
      </trkpt>
      <trkpt lat="39.5804" lon="-7.62438">
        <ele>211.485</ele>
        <time>2019-10-16T15:44:00Z</time>
      </trkpt>
      <trkpt lat="39.58044" lon="-7.62449">
        <ele>212.789</ele>
        <time>2019-10-16T15:44:20Z</time>
      </trkpt>
      <trkpt lat="39.5805" lon="-7.6246">
        <ele>213.917</ele>
        <time>2019-10-16T15:44:40Z</time>
      </trkpt>
      <trkpt lat="39.58057" lon="-7.62471">
        <ele>214.908</ele>
        <time>2019-10-16T15:45:00Z</time>
      </trkpt>
      <trkpt lat="39.58066" lon="-7.62481">
        <ele>216.292</ele>
        <time>2019-10-16T15:45:20Z</time>
      </trkpt>
      <trkpt lat="39.58093" lon="-7.62513">
        <ele>219.08</ele>
        <time>2019-10-16T15:45:40Z</time>
      </trkpt>
      <trkpt lat="39.58108" lon="-7.62528">
        <ele>221.062</ele>
        <time>2019-10-16T15:46:00Z</time>
      </trkpt>
      <trkpt lat="39.58125" lon="-7.62548">
        <ele>221.842</ele>
        <time>2019-10-16T15:46:20Z</time>
      </trkpt>
      <trkpt lat="39.58135" lon="-7.6256">
        <ele>222.024</ele>
        <time>2019-10-16T15:46:40Z</time>
      </trkpt>
      <trkpt lat="39.58172" lon="-7.62601">
        <ele>222.495</ele>
        <time>2019-10-16T15:47:00Z</time>
      </trkpt>
      <trkpt lat="39.58176" lon="-7.62608">
        <ele>222.987</ele>
        <time>2019-10-16T15:47:20Z</time>
      </trkpt>
      <trkpt lat="39.58184" lon="-7.62628">
        <ele>223.967</ele>
        <time>2019-10-16T15:47:40Z</time>
      </trkpt>
      <trkpt lat="39.58221" lon="-7.62686">
        <ele>225.594</ele>
        <time>2019-10-16T15:48:00Z</time>
      </trkpt>
      <trkpt lat="39.58245" lon="-7.62721">
        <ele>229.957</ele>
        <time>2019-10-16T15:48:20Z</time>
      </trkpt>
      <trkpt lat="39.5825" lon="-7.62734">
        <ele>230.922</ele>
        <time>2019-10-16T15:48:40Z</time>
      </trkpt>
      <trkpt lat="39.58255" lon="-7.62748">
        <ele>231.908</ele>
        <time>2019-10-16T15:49:00Z</time>
      </trkpt>
      <trkpt lat="39.58258" lon="-7.62763">
        <ele>232.983</ele>
        <time>2019-10-16T15:49:20Z</time>
      </trkpt>
      <trkpt lat="39.58261" lon="-7.62776">
        <ele>233.981</ele>
        <time>2019-10-16T15:49:40Z</time>
      </trkpt>
      <trkpt lat="39.58264" lon="-7.62787">
        <ele>234.723</ele>
        <time>2019-10-16T15:50:00Z</time>
      </trkpt>
      <trkpt lat="39.58268" lon="-7.62797">
        <ele>235.343</ele>
        <time>2019-10-16T15:50:20Z</time>
      </trkpt>
      <trkpt lat="39.58273" lon="-7.62805">
        <ele>236.075</ele>
        <time>2019-10-16T15:50:40Z</time>
      </trkpt>
      <trkpt lat="39.58292" lon="-7.62834">
        <ele>238.646</ele>
        <time>2019-10-16T15:51:00Z</time>
      </trkpt>
      <trkpt lat="39.58296" lon="-7.62847">
        <ele>239.628</ele>
        <time>2019-10-16T15:51:20Z</time>
      </trkpt>
      <trkpt lat="39.58313" lon="-7.62904">
        <ele>242.628</ele>
        <time>2019-10-16T15:51:40Z</time>
      </trkpt>
      <trkpt lat="39.58328" lon="-7.62946">
        <ele>245.915</ele>
        <time>2019-10-16T15:52:00Z</time>
      </trkpt>
      <trkpt lat="39.58339" lon="-7.62983">
        <ele>248.965</ele>
        <time>2019-10-16T15:52:20Z</time>
      </trkpt>
      <trkpt lat="39.58341" lon="-7.62995">
        <ele>249.411</ele>
        <time>2019-10-16T15:52:40Z</time>
      </trkpt>
      <trkpt lat="39.58352" lon="-7.63086">
        <ele>245.308</ele>
        <time>2019-10-16T15:53:00Z</time>
      </trkpt>
      <trkpt lat="39.58352" lon="-7.63098">
        <ele>244.215</ele>
        <time>2019-10-16T15:53:20Z</time>
      </trkpt>
      <trkpt lat="39.58351" lon="-7.63135">
        <ele>242.143</ele>
        <time>2019-10-16T15:53:40Z</time>
      </trkpt>
      <trkpt lat="39.58352" lon="-7.63146">
        <ele>242.395</ele>
        <time>2019-10-16T15:54:00Z</time>
      </trkpt>
      <trkpt lat="39.58354" lon="-7.63154">
        <ele>242.775</ele>
        <time>2019-10-16T15:54:20Z</time>
      </trkpt>
      <trkpt lat="39.58358" lon="-7.6317">
        <ele>243.477</ele>
        <time>2019-10-16T15:54:40Z</time>
      </trkpt>
      <trkpt lat="39.58359" lon="-7.6318">
        <ele>244.748</ele>
        <time>2019-10-16T15:55:00Z</time>
      </trkpt>
      <trkpt lat="39.58358" lon="-7.63191">
        <ele>246.38</ele>
        <time>2019-10-16T15:55:20Z</time>
      </trkpt>
      <trkpt lat="39.58355" lon="-7.63236">
        <ele>250.34</ele>
        <time>2019-10-16T15:55:40Z</time>
      </trkpt>
      <trkpt lat="39.58355" lon="-7.63247">
        <ele>250.625</ele>
        <time>2019-10-16T15:56:00Z</time>
      </trkpt>
      <trkpt lat="39.58357" lon="-7.63258">
        <ele>250.526</ele>
        <time>2019-10-16T15:56:20Z</time>
      </trkpt>
      <trkpt lat="39.5836" lon="-7.63268">
        <ele>250.108</ele>
        <time>2019-10-16T15:56:40Z</time>
      </trkpt>
      <trkpt lat="39.58375" lon="-7.63322">
        <ele>249.508</ele>
        <time>2019-10-16T15:57:00Z</time>
      </trkpt>
      <trkpt lat="39.5838" lon="-7.63331">
        <ele>248.916</ele>
        <time>2019-10-16T15:57:20Z</time>
      </trkpt>
      <trkpt lat="39.58406" lon="-7.63363">
        <ele>252.514</ele>
        <time>2019-10-16T15:57:40Z</time>
      </trkpt>
      <trkpt lat="39.58419" lon="-7.63375">
        <ele>255.046</ele>
        <time>2019-10-16T15:58:00Z</time>
      </trkpt>
      <trkpt lat="39.58445" lon="-7.63404">
        <ele>260.756</ele>
        <time>2019-10-16T15:58:20Z</time>
      </trkpt>
      <trkpt lat="39.58459" lon="-7.63422">
        <ele>263.378</ele>
        <time>2019-10-16T15:58:40Z</time>
      </trkpt>
      <trkpt lat="39.58466" lon="-7.63431">
        <ele>264.729</ele>
        <time>2019-10-16T15:59:00Z</time>
      </trkpt>
      <trkpt lat="39.58472" lon="-7.63437">
        <ele>265.321</ele>
        <time>2019-10-16T15:59:20Z</time>
      </trkpt>
      <trkpt lat="39.58479" lon="-7.63441">
        <ele>264.841</ele>
        <time>2019-10-16T15:59:40Z</time>
      </trkpt>
      <trkpt lat="39.58495" lon="-7.63448">
        <ele>263.068</ele>
        <time>2019-10-16T16:00:00Z</time>
      </trkpt>
      <trkpt lat="39.58503" lon="-7.63454">
        <ele>263.042</ele>
        <time>2019-10-16T16:00:20Z</time>
      </trkpt>
      <trkpt lat="39.58511" lon="-7.63461">
        <ele>263.726</ele>
        <time>2019-10-16T16:00:40Z</time>
      </trkpt>
      <trkpt lat="39.58518" lon="-7.63469">
        <ele>264.808</ele>
        <time>2019-10-16T16:01:00Z</time>
      </trkpt>
      <trkpt lat="39.5853" lon="-7.63486">
        <ele>266.36</ele>
        <time>2019-10-16T16:01:20Z</time>
      </trkpt>
      <trkpt lat="39.58537" lon="-7.63491">
        <ele>266.778</ele>
        <time>2019-10-16T16:01:40Z</time>
      </trkpt>
      <trkpt lat="39.58543" lon="-7.63493">
        <ele>266.75</ele>
        <time>2019-10-16T16:02:00Z</time>
      </trkpt>
      <trkpt lat="39.58549" lon="-7.63494">
        <ele>266.47</ele>
        <time>2019-10-16T16:02:20Z</time>
      </trkpt>
      <trkpt lat="39.58556" lon="-7.63494">
        <ele>265.882</ele>
        <time>2019-10-16T16:02:40Z</time>
      </trkpt>
      <trkpt lat="39.58565" lon="-7.63495">
        <ele>265.723</ele>
        <time>2019-10-16T16:03:00Z</time>
      </trkpt>
      <trkpt lat="39.58574" lon="-7.63497">
        <ele>265.895</ele>
        <time>2019-10-16T16:03:20Z</time>
      </trkpt>
      <trkpt lat="39.58583" lon="-7.635">
        <ele>266.155</ele>
        <time>2019-10-16T16:03:40Z</time>
      </trkpt>
      <trkpt lat="39.5859" lon="-7.63502">
        <ele>265.185</ele>
        <time>2019-10-16T16:04:00Z</time>
      </trkpt>
      <trkpt lat="39.58596" lon="-7.635">
        <ele>263.789</ele>
        <time>2019-10-16T16:04:20Z</time>
      </trkpt>
      <trkpt lat="39.58604" lon="-7.63497">
        <ele>261.717</ele>
        <time>2019-10-16T16:04:40Z</time>
      </trkpt>
      <trkpt lat="39.58612" lon="-7.63496">
        <ele>259.708</ele>
        <time>2019-10-16T16:05:00Z</time>
      </trkpt>
      <trkpt lat="39.58621" lon="-7.63495">
        <ele>258.412</ele>
        <time>2019-10-16T16:05:20Z</time>
      </trkpt>
      <trkpt lat="39.5863" lon="-7.63497">
        <ele>257.49</ele>
        <time>2019-10-16T16:05:40Z</time>
      </trkpt>
      <trkpt lat="39.58639" lon="-7.635">
        <ele>256.992</ele>
        <time>2019-10-16T16:06:00Z</time>
      </trkpt>
      <trkpt lat="39.58647" lon="-7.63503">
        <ele>256.622</ele>
        <time>2019-10-16T16:06:20Z</time>
      </trkpt>
      <trkpt lat="39.58653" lon="-7.63509">
        <ele>256.844</ele>
        <time>2019-10-16T16:06:40Z</time>
      </trkpt>
      <trkpt lat="39.58659" lon="-7.63517">
        <ele>257.495</ele>
        <time>2019-10-16T16:07:00Z</time>
      </trkpt>
      <trkpt lat="39.58666" lon="-7.63526">
        <ele>257.867</ele>
        <time>2019-10-16T16:07:20Z</time>
      </trkpt>
      <trkpt lat="39.58673" lon="-7.63535">
        <ele>256.857</ele>
        <time>2019-10-16T16:07:40Z</time>
      </trkpt>
      <trkpt lat="39.58755" lon="-7.63613">
        <ele>251.726</ele>
        <time>2019-10-16T16:08:00Z</time>
      </trkpt>
      <trkpt lat="39.58775" lon="-7.63641">
        <ele>257.147</ele>
        <time>2019-10-16T16:08:20Z</time>
      </trkpt>
      <trkpt lat="39.58795" lon="-7.63671">
        <ele>259.811</ele>
        <time>2019-10-16T16:08:40Z</time>
      </trkpt>
      <trkpt lat="39.58802" lon="-7.63676">
        <ele>259.308</ele>
        <time>2019-10-16T16:09:00Z</time>
      </trkpt>
      <trkpt lat="39.5881" lon="-7.63679">
        <ele>258.576</ele>
        <time>2019-10-16T16:09:20Z</time>
      </trkpt>
      <trkpt lat="39.58817" lon="-7.63681">
        <ele>258.024</ele>
        <time>2019-10-16T16:09:40Z</time>
      </trkpt>
      <trkpt lat="39.58824" lon="-7.63685">
        <ele>257.966</ele>
        <time>2019-10-16T16:10:00Z</time>
      </trkpt>
      <trkpt lat="39.58831" lon="-7.63691">
        <ele>258.436</ele>
        <time>2019-10-16T16:10:20Z</time>
      </trkpt>
      <trkpt lat="39.58839" lon="-7.63698">
        <ele>258.668</ele>
        <time>2019-10-16T16:10:40Z</time>
      </trkpt>
      <trkpt lat="39.58847" lon="-7.63707">
        <ele>258.689</ele>
        <time>2019-10-16T16:11:00Z</time>
      </trkpt>
      <trkpt lat="39.58876" lon="-7.63741">
        <ele>261.461</ele>
        <time>2019-10-16T16:11:20Z</time>
      </trkpt>
      <trkpt lat="39.58879" lon="-7.6375">
        <ele>262.771</ele>
        <time>2019-10-16T16:11:40Z</time>
      </trkpt>
      <trkpt lat="39.58884" lon="-7.63763">
        <ele>264.779</ele>
        <time>2019-10-16T16:12:00Z</time>
      </trkpt>
      <trkpt lat="39.58888" lon="-7.63766">
        <ele>264.505</ele>
        <time>2019-10-16T16:12:20Z</time>
      </trkpt>
      <trkpt lat="39.58894" lon="-7.63767">
        <ele>263.625</ele>
        <time>2019-10-16T16:12:40Z</time>
      </trkpt>
      <trkpt lat="39.58954" lon="-7.63772">
        <ele>254.508</ele>
        <time>2019-10-16T16:13:00Z</time>
      </trkpt>
      <trkpt lat="39.58964" lon="-7.63775">
        <ele>253.651</ele>
        <time>2019-10-16T16:13:20Z</time>
      </trkpt>
      <trkpt lat="39.58972" lon="-7.63779">
        <ele>253.229</ele>
        <time>2019-10-16T16:13:40Z</time>
      </trkpt>
      <trkpt lat="39.5898" lon="-7.63784">
        <ele>253.661</ele>
        <time>2019-10-16T16:14:00Z</time>
      </trkpt>
      <trkpt lat="39.58987" lon="-7.63792">
        <ele>254.471</ele>
        <time>2019-10-16T16:14:20Z</time>
      </trkpt>
      <trkpt lat="39.58994" lon="-7.63801">
        <ele>255.253</ele>
        <time>2019-10-16T16:14:40Z</time>
      </trkpt>
      <trkpt lat="39.58999" lon="-7.6381">
        <ele>256.124</ele>
        <time>2019-10-16T16:15:00Z</time>
      </trkpt>
      <trkpt lat="39.59003" lon="-7.63821">
        <ele>257.336</ele>
        <time>2019-10-16T16:15:20Z</time>
      </trkpt>
      <trkpt lat="39.59006" lon="-7.63834">
        <ele>258.726</ele>
        <time>2019-10-16T16:15:40Z</time>
      </trkpt>
      <trkpt lat="39.5901" lon="-7.63847">
        <ele>259.198</ele>
        <time>2019-10-16T16:16:00Z</time>
      </trkpt>
      <trkpt lat="39.59017" lon="-7.63862">
        <ele>259.015</ele>
        <time>2019-10-16T16:16:20Z</time>
      </trkpt>
      <trkpt lat="39.59031" lon="-7.6389">
        <ele>260.326</ele>
        <time>2019-10-16T16:16:40Z</time>
      </trkpt>
      <trkpt lat="39.59039" lon="-7.63902">
        <ele>260.108</ele>
        <time>2019-10-16T16:17:00Z</time>
      </trkpt>
      <trkpt lat="39.59061" lon="-7.63933">
        <ele>260.883</ele>
        <time>2019-10-16T16:17:20Z</time>
      </trkpt>
      <trkpt lat="39.59066" lon="-7.63944">
        <ele>261.011</ele>
        <time>2019-10-16T16:17:40Z</time>
      </trkpt>
      <trkpt lat="39.59071" lon="-7.63955">
        <ele>260.163</ele>
        <time>2019-10-16T16:18:00Z</time>
      </trkpt>
      <trkpt lat="39.59084" lon="-7.63981">
        <ele>258.523</ele>
        <time>2019-10-16T16:18:20Z</time>
      </trkpt>
      <trkpt lat="39.59096" lon="-7.64013">
        <ele>258.735</ele>
        <time>2019-10-16T16:18:40Z</time>
      </trkpt>
      <trkpt lat="39.59098" lon="-7.64024">
        <ele>258.866</ele>
        <time>2019-10-16T16:19:00Z</time>
      </trkpt>
      <trkpt lat="39.591" lon="-7.64034">
        <ele>259.028</ele>
        <time>2019-10-16T16:19:20Z</time>
      </trkpt>
      <trkpt lat="39.59103" lon="-7.64041">
        <ele>258.978</ele>
        <time>2019-10-16T16:19:40Z</time>
      </trkpt>
      <trkpt lat="39.59108" lon="-7.64047">
        <ele>258.273</ele>
        <time>2019-10-16T16:20:00Z</time>
      </trkpt>
      <trkpt lat="39.59116" lon="-7.64051">
        <ele>256.785</ele>
        <time>2019-10-16T16:20:20Z</time>
      </trkpt>
      <trkpt lat="39.59124" lon="-7.64056">
        <ele>254.813</ele>
        <time>2019-10-16T16:20:40Z</time>
      </trkpt>
      <trkpt lat="39.59132" lon="-7.64061">
        <ele>253.208</ele>
        <time>2019-10-16T16:21:00Z</time>
      </trkpt>
      <trkpt lat="39.59141" lon="-7.64067">
        <ele>251.551</ele>
        <time>2019-10-16T16:21:20Z</time>
      </trkpt>
      <trkpt lat="39.59169" lon="-7.64082">
        <ele>247.719</ele>
        <time>2019-10-16T16:21:40Z</time>
      </trkpt>
      <trkpt lat="39.59179" lon="-7.64087">
        <ele>247.731</ele>
        <time>2019-10-16T16:22:00Z</time>
      </trkpt>
      <trkpt lat="39.59196" lon="-7.64097">
        <ele>247.911</ele>
        <time>2019-10-16T16:22:20Z</time>
      </trkpt>
      <trkpt lat="39.59202" lon="-7.64103">
        <ele>248.753</ele>
        <time>2019-10-16T16:22:40Z</time>
      </trkpt>
      <trkpt lat="39.59207" lon="-7.64112">
        <ele>250.144</ele>
        <time>2019-10-16T16:23:00Z</time>
      </trkpt>
      <trkpt lat="39.59211" lon="-7.64122">
        <ele>251.456</ele>
        <time>2019-10-16T16:23:20Z</time>
      </trkpt>
      <trkpt lat="39.59216" lon="-7.64134">
        <ele>252.716</ele>
        <time>2019-10-16T16:23:40Z</time>
      </trkpt>
      <trkpt lat="39.59227" lon="-7.64166">
        <ele>253.498</ele>
        <time>2019-10-16T16:24:00Z</time>
      </trkpt>
      <trkpt lat="39.59232" lon="-7.6417">
        <ele>253.215</ele>
        <time>2019-10-16T16:24:20Z</time>
      </trkpt>
      <trkpt lat="39.59237" lon="-7.64171">
        <ele>252.726</ele>
        <time>2019-10-16T16:24:40Z</time>
      </trkpt>
      <trkpt lat="39.59241" lon="-7.64167">
        <ele>252.008</ele>
        <time>2019-10-16T16:25:00Z</time>
      </trkpt>
      <trkpt lat="39.59244" lon="-7.64162">
        <ele>251.223</ele>
        <time>2019-10-16T16:25:20Z</time>
      </trkpt>
      <trkpt lat="39.59247" lon="-7.64155">
        <ele>250.231</ele>
        <time>2019-10-16T16:25:40Z</time>
      </trkpt>
      <trkpt lat="39.59274" lon="-7.64113">
        <ele>241.053</ele>
        <time>2019-10-16T16:26:00Z</time>
      </trkpt>
      <trkpt lat="39.59279" lon="-7.6411">
        <ele>239.923</ele>
        <time>2019-10-16T16:26:20Z</time>
      </trkpt>
      <trkpt lat="39.59284" lon="-7.64108">
        <ele>239.745</ele>
        <time>2019-10-16T16:26:40Z</time>
      </trkpt>
      <trkpt lat="39.59288" lon="-7.64108">
        <ele>239.626</ele>
        <time>2019-10-16T16:27:00Z</time>
      </trkpt>
      <trkpt lat="39.59293" lon="-7.6411">
        <ele>239.848</ele>
        <time>2019-10-16T16:27:20Z</time>
      </trkpt>
      <trkpt lat="39.59298" lon="-7.64112">
        <ele>240.168</ele>
        <time>2019-10-16T16:27:40Z</time>
      </trkpt>
      <trkpt lat="39.59302" lon="-7.64116">
        <ele>240.421</ele>
        <time>2019-10-16T16:28:00Z</time>
      </trkpt>
      <trkpt lat="39.59305" lon="-7.64121">
        <ele>240.741</ele>
        <time>2019-10-16T16:28:20Z</time>
      </trkpt>
      <trkpt lat="39.59308" lon="-7.64126">
        <ele>241.005</ele>
        <time>2019-10-16T16:28:40Z</time>
      </trkpt>
      <trkpt lat="39.59311" lon="-7.64133">
        <ele>241.408</ele>
        <time>2019-10-16T16:29:00Z</time>
      </trkpt>
      <trkpt lat="39.59321" lon="-7.64158">
        <ele>244.326</ele>
        <time>2019-10-16T16:29:20Z</time>
      </trkpt>
      <trkpt lat="39.59326" lon="-7.64163">
        <ele>244.824</ele>
        <time>2019-10-16T16:29:40Z</time>
      </trkpt>
      <trkpt lat="39.5933" lon="-7.64164">
        <ele>244.896</ele>
        <time>2019-10-16T16:30:00Z</time>
      </trkpt>
      <trkpt lat="39.59335" lon="-7.64163">
        <ele>244.666</ele>
        <time>2019-10-16T16:30:20Z</time>
      </trkpt>
      <trkpt lat="39.59341" lon="-7.64159">
        <ele>244.258</ele>
        <time>2019-10-16T16:30:40Z</time>
      </trkpt>
      <trkpt lat="39.59349" lon="-7.64155">
        <ele>243.349</ele>
        <time>2019-10-16T16:31:00Z</time>
      </trkpt>
      <trkpt lat="39.59356" lon="-7.64151">
        <ele>242.361</ele>
        <time>2019-10-16T16:31:20Z</time>
      </trkpt>
      <trkpt lat="39.59364" lon="-7.6415">
        <ele>241.661</ele>
        <time>2019-10-16T16:31:40Z</time>
      </trkpt>
      <trkpt lat="39.59371" lon="-7.6415">
        <ele>241.132</ele>
        <time>2019-10-16T16:32:00Z</time>
      </trkpt>
      <trkpt lat="39.59378" lon="-7.64152">
        <ele>241.092</ele>
        <time>2019-10-16T16:32:20Z</time>
      </trkpt>
      <trkpt lat="39.59386" lon="-7.64155">
        <ele>241.111</ele>
        <time>2019-10-16T16:32:40Z</time>
      </trkpt>
      <trkpt lat="39.59392" lon="-7.64161">
        <ele>241.008</ele>
        <time>2019-10-16T16:33:00Z</time>
      </trkpt>
      <trkpt lat="39.59397" lon="-7.64167">
        <ele>240.987</ele>
        <time>2019-10-16T16:33:20Z</time>
      </trkpt>
      <trkpt lat="39.59401" lon="-7.64174">
        <ele>241.485</ele>
        <time>2019-10-16T16:33:40Z</time>
      </trkpt>
      <trkpt lat="39.59405" lon="-7.64182">
        <ele>241.747</ele>
        <time>2019-10-16T16:34:00Z</time>
      </trkpt>
      <trkpt lat="39.59421" lon="-7.64215">
        <ele>240.447</ele>
        <time>2019-10-16T16:34:20Z</time>
      </trkpt>
      <trkpt lat="39.59429" lon="-7.64224">
        <ele>239.989</ele>
        <time>2019-10-16T16:34:40Z</time>
      </trkpt>
      <trkpt lat="39.59436" lon="-7.64232">
        <ele>239.79</ele>
        <time>2019-10-16T16:35:00Z</time>
      </trkpt>
      <trkpt lat="39.59444" lon="-7.64238">
        <ele>239.092</ele>
        <time>2019-10-16T16:35:20Z</time>
      </trkpt>
      <trkpt lat="39.59452" lon="-7.64244">
        <ele>238.412</ele>
        <time>2019-10-16T16:35:40Z</time>
      </trkpt>
      <trkpt lat="39.59496" lon="-7.64291">
        <ele>242.341</ele>
        <time>2019-10-16T16:36:00Z</time>
      </trkpt>
      <trkpt lat="39.59506" lon="-7.64299">
        <ele>241.881</ele>
        <time>2019-10-16T16:36:20Z</time>
      </trkpt>
      <trkpt lat="39.59541" lon="-7.64327">
        <ele>239.909</ele>
        <time>2019-10-16T16:36:40Z</time>
      </trkpt>
      <trkpt lat="39.59554" lon="-7.64343">
        <ele>241.708</ele>
        <time>2019-10-16T16:37:00Z</time>
      </trkpt>
      <trkpt lat="39.5956" lon="-7.64347">
        <ele>241.918</ele>
        <time>2019-10-16T16:37:20Z</time>
      </trkpt>
      <trkpt lat="39.59567" lon="-7.64348">
        <ele>241.356</ele>
        <time>2019-10-16T16:37:40Z</time>
      </trkpt>
      <trkpt lat="39.59575" lon="-7.64347">
        <ele>239.928</ele>
        <time>2019-10-16T16:38:00Z</time>
      </trkpt>
      <trkpt lat="39.59585" lon="-7.64345">
        <ele>238.388</ele>
        <time>2019-10-16T16:38:20Z</time>
      </trkpt>
      <trkpt lat="39.59602" lon="-7.64344">
        <ele>237.21</ele>
        <time>2019-10-16T16:38:40Z</time>
      </trkpt>
      <trkpt lat="39.59611" lon="-7.64347">
        <ele>237.451</ele>
        <time>2019-10-16T16:39:00Z</time>
      </trkpt>
      <trkpt lat="39.5962" lon="-7.64351">
        <ele>237.473</ele>
        <time>2019-10-16T16:39:20Z</time>
      </trkpt>
      <trkpt lat="39.59629" lon="-7.64357">
        <ele>237.473</ele>
        <time>2019-10-16T16:39:40Z</time>
      </trkpt>
      <trkpt lat="39.59638" lon="-7.64363">
        <ele>237.376</ele>
        <time>2019-10-16T16:40:00Z</time>
      </trkpt>
      <trkpt lat="39.59654" lon="-7.64376">
        <ele>236.39</ele>
        <time>2019-10-16T16:40:20Z</time>
      </trkpt>
      <trkpt lat="39.59661" lon="-7.64385">
        <ele>236.319</ele>
        <time>2019-10-16T16:40:40Z</time>
      </trkpt>
      <trkpt lat="39.59667" lon="-7.64392">
        <ele>236.508</ele>
        <time>2019-10-16T16:41:00Z</time>
      </trkpt>
      <trkpt lat="39.59672" lon="-7.64397">
        <ele>237.161</ele>
        <time>2019-10-16T16:41:20Z</time>
      </trkpt>
      <trkpt lat="39.59678" lon="-7.64399">
        <ele>237.269</ele>
        <time>2019-10-16T16:41:40Z</time>
      </trkpt>
      <trkpt lat="39.59684" lon="-7.64398">
        <ele>236.911</ele>
        <time>2019-10-16T16:42:00Z</time>
      </trkpt>
      <trkpt lat="39.5969" lon="-7.64397">
        <ele>236.591</ele>
        <time>2019-10-16T16:42:20Z</time>
      </trkpt>
      <trkpt lat="39.59696" lon="-7.64398">
        <ele>236.833</ele>
        <time>2019-10-16T16:42:40Z</time>
      </trkpt>
      <trkpt lat="39.59704" lon="-7.64401">
        <ele>238.464</ele>
        <time>2019-10-16T16:43:00Z</time>
      </trkpt>
      <trkpt lat="39.59713" lon="-7.64406">
        <ele>240.236</ele>
        <time>2019-10-16T16:43:20Z</time>
      </trkpt>
      <trkpt lat="39.59722" lon="-7.64409">
        <ele>241.846</ele>
        <time>2019-10-16T16:43:40Z</time>
      </trkpt>
      <trkpt lat="39.59733" lon="-7.64409">
        <ele>242.863</ele>
        <time>2019-10-16T16:44:00Z</time>
      </trkpt>
      <trkpt lat="39.59745" lon="-7.64409">
        <ele>243.744</ele>
        <time>2019-10-16T16:44:20Z</time>
      </trkpt>
      <trkpt lat="39.59757" lon="-7.64409">
        <ele>244.318</ele>
        <time>2019-10-16T16:44:40Z</time>
      </trkpt>
      <trkpt lat="39.59768" lon="-7.64411">
        <ele>244.508</ele>
        <time>2019-10-16T16:45:00Z</time>
      </trkpt>
      <trkpt lat="39.59777" lon="-7.64413">
        <ele>244.72</ele>
        <time>2019-10-16T16:45:20Z</time>
      </trkpt>
      <trkpt lat="39.59788" lon="-7.64415">
        <ele>243.898</ele>
        <time>2019-10-16T16:45:40Z</time>
      </trkpt>
      <trkpt lat="39.59791" lon="-7.64417">
        <ele>243.58</ele>
        <time>2019-10-16T16:46:00Z</time>
      </trkpt>
      <trkpt lat="39.59792" lon="-7.64419">
        <ele>243.68</ele>
        <time>2019-10-16T16:46:20Z</time>
      </trkpt>
      <trkpt lat="39.59792" lon="-7.64421">
        <ele>243.852</ele>
        <time>2019-10-16T16:46:40Z</time>
      </trkpt>
      <trkpt lat="39.59792" lon="-7.64428">
        <ele>244.153</ele>
        <time>2019-10-16T16:47:00Z</time>
      </trkpt>
      <trkpt lat="39.59794" lon="-7.64434">
        <ele>244.085</ele>
        <time>2019-10-16T16:47:20Z</time>
      </trkpt>
      <trkpt lat="39.59798" lon="-7.64441">
        <ele>243.645</ele>
        <time>2019-10-16T16:47:40Z</time>
      </trkpt>
      <trkpt lat="39.59836" lon="-7.64509">
        <ele>237.885</ele>
        <time>2019-10-16T16:48:00Z</time>
      </trkpt>
      <trkpt lat="39.59843" lon="-7.64518">
        <ele>237.289</ele>
        <time>2019-10-16T16:48:20Z</time>
      </trkpt>
      <trkpt lat="39.59849" lon="-7.64526">
        <ele>236.417</ele>
        <time>2019-10-16T16:48:40Z</time>
      </trkpt>
      <trkpt lat="39.59853" lon="-7.64532">
        <ele>236.208</ele>
        <time>2019-10-16T16:49:00Z</time>
      </trkpt>
      <trkpt lat="39.59855" lon="-7.64538">
        <ele>236.592</ele>
        <time>2019-10-16T16:49:20Z</time>
      </trkpt>
      <trkpt lat="39.59855" lon="-7.64543">
        <ele>237.34</ele>
        <time>2019-10-16T16:49:40Z</time>
      </trkpt>
      <trkpt lat="39.59854" lon="-7.64549">
        <ele>238.572</ele>
        <time>2019-10-16T16:50:00Z</time>
      </trkpt>
      <trkpt lat="39.59852" lon="-7.64555">
        <ele>239.962</ele>
        <time>2019-10-16T16:50:20Z</time>
      </trkpt>
      <trkpt lat="39.59851" lon="-7.64563">
        <ele>240.644</ele>
        <time>2019-10-16T16:50:40Z</time>
      </trkpt>
      <trkpt lat="39.59852" lon="-7.6457">
        <ele>240.945</ele>
        <time>2019-10-16T16:51:00Z</time>
      </trkpt>
      <trkpt lat="39.59854" lon="-7.64575">
        <ele>240.787</ele>
        <time>2019-10-16T16:51:20Z</time>
      </trkpt>
      <trkpt lat="39.59859" lon="-7.64579">
        <ele>240.137</ele>
        <time>2019-10-16T16:51:40Z</time>
      </trkpt>
      <trkpt lat="39.59866" lon="-7.64584">
        <ele>239.236</ele>
        <time>2019-10-16T16:52:00Z</time>
      </trkpt>
      <trkpt lat="39.59941" lon="-7.64636">
        <ele>236.917</ele>
        <time>2019-10-16T16:52:20Z</time>
      </trkpt>
      <trkpt lat="39.5996" lon="-7.64646">
        <ele>235.218</ele>
        <time>2019-10-16T16:52:40Z</time>
      </trkpt>
      <trkpt lat="39.5997" lon="-7.64646">
        <ele>234.208</ele>
        <time>2019-10-16T16:53:00Z</time>
      </trkpt>
      <trkpt lat="39.5998" lon="-7.64645">
        <ele>233.297</ele>
        <time>2019-10-16T16:53:20Z</time>
      </trkpt>
      <trkpt lat="39.59999" lon="-7.6464">
        <ele>231.255</ele>
        <time>2019-10-16T16:53:40Z</time>
      </trkpt>
      <trkpt lat="39.60007" lon="-7.6464">
        <ele>230.547</ele>
        <time>2019-10-16T16:54:00Z</time>
      </trkpt>
      <trkpt lat="39.60016" lon="-7.64642">
        <ele>230.027</ele>
        <time>2019-10-16T16:54:20Z</time>
      </trkpt>
      <trkpt lat="39.60023" lon="-7.64647">
        <ele>229.629</ele>
        <time>2019-10-16T16:54:40Z</time>
      </trkpt>
      <trkpt lat="39.6003" lon="-7.64653">
        <ele>229.46</ele>
        <time>2019-10-16T16:55:00Z</time>
      </trkpt>
      <trkpt lat="39.60035" lon="-7.64659">
        <ele>229.322</ele>
        <time>2019-10-16T16:55:20Z</time>
      </trkpt>
      <trkpt lat="39.60039" lon="-7.64665">
        <ele>229.572</ele>
        <time>2019-10-16T16:55:40Z</time>
      </trkpt>
      <trkpt lat="39.60041" lon="-7.64669">
        <ele>229.556</ele>
        <time>2019-10-16T16:56:00Z</time>
      </trkpt>
      <trkpt lat="39.60041" lon="-7.64672">
        <ele>229.459</ele>
        <time>2019-10-16T16:56:20Z</time>
      </trkpt>
      <trkpt lat="39.60041" lon="-7.64676">
        <ele>229.414</ele>
        <time>2019-10-16T16:56:40Z</time>
      </trkpt>
      <trkpt lat="39.60039" lon="-7.64679">
        <ele>229.408</ele>
        <time>2019-10-16T16:57:00Z</time>
      </trkpt>
      <trkpt lat="39.60037" lon="-7.64681">
        <ele>229.559</ele>
        <time>2019-10-16T16:57:20Z</time>
      </trkpt>
      <trkpt lat="39.60036" lon="-7.64683">
        <ele>229.627</ele>
        <time>2019-10-16T16:57:40Z</time>
      </trkpt>
      <trkpt lat="39.60029" lon="-7.64685">
        <ele>230.089</ele>
        <time>2019-10-16T16:58:00Z</time>
      </trkpt>
      <trkpt lat="39.60004" lon="-7.64692">
        <ele>230.939</ele>
        <time>2019-10-16T16:58:20Z</time>
      </trkpt>
      <trkpt lat="39.59996" lon="-7.64695">
        <ele>231.441</ele>
        <time>2019-10-16T16:58:40Z</time>
      </trkpt>
      <trkpt lat="39.5999" lon="-7.647">
        <ele>232.122</ele>
        <time>2019-10-16T16:59:00Z</time>
      </trkpt>
      <trkpt lat="39.59985" lon="-7.64706">
        <ele>232.614</ele>
        <time>2019-10-16T16:59:20Z</time>
      </trkpt>
      <trkpt lat="39.59983" lon="-7.64713">
        <ele>232.874</ele>
        <time>2019-10-16T16:59:40Z</time>
      </trkpt>
      <trkpt lat="39.59985" lon="-7.6472">
        <ele>232.742</ele>
        <time>2019-10-16T17:00:00Z</time>
      </trkpt>
      <trkpt lat="39.59988" lon="-7.64727">
        <ele>232.622</ele>
        <time>2019-10-16T17:00:20Z</time>
      </trkpt>
      <trkpt lat="39.59994" lon="-7.64733">
        <ele>232.514</ele>
        <time>2019-10-16T17:00:40Z</time>
      </trkpt>
      <trkpt lat="39.60001" lon="-7.64741">
        <ele>232.108</ele>
        <time>2019-10-16T17:01:00Z</time>
      </trkpt>
      <trkpt lat="39.60016" lon="-7.64759">
        <ele>230.548</ele>
        <time>2019-10-16T17:01:20Z</time>
      </trkpt>
      <trkpt lat="39.60023" lon="-7.6477">
        <ele>230.286</ele>
        <time>2019-10-16T17:01:40Z</time>
      </trkpt>
      <trkpt lat="39.6003" lon="-7.64781">
        <ele>229.958</ele>
        <time>2019-10-16T17:02:00Z</time>
      </trkpt>
      <trkpt lat="39.60036" lon="-7.6479">
        <ele>229.698</ele>
        <time>2019-10-16T17:02:20Z</time>
      </trkpt>
      <trkpt lat="39.60041" lon="-7.648">
        <ele>229.51</ele>
        <time>2019-10-16T17:02:40Z</time>
      </trkpt>
      <trkpt lat="39.60046" lon="-7.6481">
        <ele>229.711</ele>
        <time>2019-10-16T17:03:00Z</time>
      </trkpt>
      <trkpt lat="39.60056" lon="-7.64831">
        <ele>229.713</ele>
        <time>2019-10-16T17:03:20Z</time>
      </trkpt>
      <trkpt lat="39.60062" lon="-7.64839">
        <ele>230.053</ele>
        <time>2019-10-16T17:03:40Z</time>
      </trkpt>
      <trkpt lat="39.60069" lon="-7.64847">
        <ele>229.942</ele>
        <time>2019-10-16T17:04:00Z</time>
      </trkpt>
      <trkpt lat="39.60074" lon="-7.64855">
        <ele>229.722</ele>
        <time>2019-10-16T17:04:20Z</time>
      </trkpt>
      <trkpt lat="39.60078" lon="-7.64862">
        <ele>229.614</ele>
        <time>2019-10-16T17:04:40Z</time>
      </trkpt>
      <trkpt lat="39.60079" lon="-7.64869">
        <ele>230.108</ele>
        <time>2019-10-16T17:05:00Z</time>
      </trkpt>
      <trkpt lat="39.60079" lon="-7.64877">
        <ele>231.398</ele>
        <time>2019-10-16T17:05:20Z</time>
      </trkpt>
      <trkpt lat="39.60079" lon="-7.64887">
        <ele>232.736</ele>
        <time>2019-10-16T17:05:40Z</time>
      </trkpt>
      <trkpt lat="39.60079" lon="-7.64899">
        <ele>233.018</ele>
        <time>2019-10-16T17:06:00Z</time>
      </trkpt>
      <trkpt lat="39.60081" lon="-7.64912">
        <ele>232.628</ele>
        <time>2019-10-16T17:06:20Z</time>
      </trkpt>
      <trkpt lat="39.60084" lon="-7.64925">
        <ele>233.48</ele>
        <time>2019-10-16T17:06:40Z</time>
      </trkpt>
      <trkpt lat="39.60091" lon="-7.64965">
        <ele>239.541</ele>
        <time>2019-10-16T17:07:00Z</time>
      </trkpt>
      <trkpt lat="39.60094" lon="-7.64987">
        <ele>242.123</ele>
        <time>2019-10-16T17:07:20Z</time>
      </trkpt>
      <trkpt lat="39.60097" lon="-7.64995">
        <ele>242.543</ele>
        <time>2019-10-16T17:07:40Z</time>
      </trkpt>
      <trkpt lat="39.60101" lon="-7.65">
        <ele>242.342</ele>
        <time>2019-10-16T17:08:00Z</time>
      </trkpt>
      <trkpt lat="39.60106" lon="-7.65003">
        <ele>241.622</ele>
        <time>2019-10-16T17:08:20Z</time>
      </trkpt>
      <trkpt lat="39.60113" lon="-7.65002">
        <ele>240.314</ele>
        <time>2019-10-16T17:08:40Z</time>
      </trkpt>
      <trkpt lat="39.60122" lon="-7.65001">
        <ele>239.008</ele>
        <time>2019-10-16T17:09:00Z</time>
      </trkpt>
      <trkpt lat="39.60141" lon="-7.64999">
        <ele>236.938</ele>
        <time>2019-10-16T17:09:20Z</time>
      </trkpt>
      <trkpt lat="39.6015" lon="-7.65001">
        <ele>236.896</ele>
        <time>2019-10-16T17:09:40Z</time>
      </trkpt>
      <trkpt lat="39.60158" lon="-7.65006">
        <ele>237.078</ele>
        <time>2019-10-16T17:10:00Z</time>
      </trkpt>
      <trkpt lat="39.60198" lon="-7.65033">
        <ele>236.668</ele>
        <time>2019-10-16T17:10:20Z</time>
      </trkpt>
      <trkpt lat="39.60206" lon="-7.6504">
        <ele>237.08</ele>
        <time>2019-10-16T17:10:40Z</time>
      </trkpt>
      <trkpt lat="39.60212" lon="-7.65048">
        <ele>237.871</ele>
        <time>2019-10-16T17:11:00Z</time>
      </trkpt>
      <trkpt lat="39.60219" lon="-7.65057">
        <ele>238.653</ele>
        <time>2019-10-16T17:11:20Z</time>
      </trkpt>
      <trkpt lat="39.60225" lon="-7.65067">
        <ele>239.793</ele>
        <time>2019-10-16T17:11:40Z</time>
      </trkpt>
      <trkpt lat="39.60231" lon="-7.65076">
        <ele>240.561</ele>
        <time>2019-10-16T17:12:00Z</time>
      </trkpt>
      <trkpt lat="39.60237" lon="-7.65084">
        <ele>240.921</ele>
        <time>2019-10-16T17:12:20Z</time>
      </trkpt>
      <trkpt lat="39.60244" lon="-7.65089">
        <ele>240.713</ele>
        <time>2019-10-16T17:12:40Z</time>
      </trkpt>
      <trkpt lat="39.60254" lon="-7.65091">
        <ele>239.808</ele>
        <time>2019-10-16T17:13:00Z</time>
      </trkpt>
      <trkpt lat="39.60262" lon="-7.65094">
        <ele>238.88</ele>
        <time>2019-10-16T17:13:20Z</time>
      </trkpt>
      <trkpt lat="39.60271" lon="-7.65099">
        <ele>238.358</ele>
        <time>2019-10-16T17:13:40Z</time>
      </trkpt>
      <trkpt lat="39.6028" lon="-7.65106">
        <ele>238.29</ele>
        <time>2019-10-16T17:14:00Z</time>
      </trkpt>
      <trkpt lat="39.60291" lon="-7.65115">
        <ele>237.91</ele>
        <time>2019-10-16T17:14:20Z</time>
      </trkpt>
      <trkpt lat="39.60329" lon="-7.65151">
        <ele>237.812</ele>
        <time>2019-10-16T17:14:40Z</time>
      </trkpt>
      <trkpt lat="39.60346" lon="-7.6517">
        <ele>240.333</ele>
        <time>2019-10-16T17:15:00Z</time>
      </trkpt>
      <trkpt lat="39.60356" lon="-7.65178">
        <ele>241.345</ele>
        <time>2019-10-16T17:15:20Z</time>
      </trkpt>
      <trkpt lat="39.60366" lon="-7.65184">
        <ele>241.485</ele>
        <time>2019-10-16T17:15:40Z</time>
      </trkpt>
      <trkpt lat="39.60435" lon="-7.65227">
        <ele>239.268</ele>
        <time>2019-10-16T17:16:00Z</time>
      </trkpt>
      <trkpt lat="39.60453" lon="-7.65235">
        <ele>239.142</ele>
        <time>2019-10-16T17:16:20Z</time>
      </trkpt>
      <trkpt lat="39.6046" lon="-7.6524">
        <ele>239.526</ele>
        <time>2019-10-16T17:16:40Z</time>
      </trkpt>
      <trkpt lat="39.60467" lon="-7.65247">
        <ele>240.108</ele>
        <time>2019-10-16T17:17:00Z</time>
      </trkpt>
      <trkpt lat="39.60472" lon="-7.65254">
        <ele>240.83</ele>
        <time>2019-10-16T17:17:20Z</time>
      </trkpt>
      <trkpt lat="39.60474" lon="-7.65263">
        <ele>241.778</ele>
        <time>2019-10-16T17:17:40Z</time>
      </trkpt>
      <trkpt lat="39.60475" lon="-7.65272">
        <ele>243.27</ele>
        <time>2019-10-16T17:18:00Z</time>
      </trkpt>
      <trkpt lat="39.60475" lon="-7.65282">
        <ele>244.85</ele>
        <time>2019-10-16T17:18:20Z</time>
      </trkpt>
      <trkpt lat="39.60475" lon="-7.65293">
        <ele>246.442</ele>
        <time>2019-10-16T17:18:40Z</time>
      </trkpt>
      <trkpt lat="39.60476" lon="-7.65304">
        <ele>247.833</ele>
        <time>2019-10-16T17:19:00Z</time>
      </trkpt>
      <trkpt lat="39.60478" lon="-7.65314">
        <ele>248.625</ele>
        <time>2019-10-16T17:19:20Z</time>
      </trkpt>
      <trkpt lat="39.60483" lon="-7.65324">
        <ele>248.835</ele>
        <time>2019-10-16T17:19:40Z</time>
      </trkpt>
      <trkpt lat="39.6049" lon="-7.65333">
        <ele>248.828</ele>
        <time>2019-10-16T17:20:00Z</time>
      </trkpt>
      <trkpt lat="39.60498" lon="-7.6534">
        <ele>248.789</ele>
        <time>2019-10-16T17:20:20Z</time>
      </trkpt>
      <trkpt lat="39.60508" lon="-7.65347">
        <ele>248.117</ele>
        <time>2019-10-16T17:20:40Z</time>
      </trkpt>
      <trkpt lat="39.60518" lon="-7.65353">
        <ele>247.408</ele>
        <time>2019-10-16T17:21:00Z</time>
      </trkpt>
      <trkpt lat="39.60529" lon="-7.65356">
        <ele>246.586</ele>
        <time>2019-10-16T17:21:20Z</time>
      </trkpt>
      <trkpt lat="39.6054" lon="-7.65359">
        <ele>244.684</ele>
        <time>2019-10-16T17:21:40Z</time>
      </trkpt>
      <trkpt lat="39.6055" lon="-7.6536">
        <ele>243.046</ele>
        <time>2019-10-16T17:22:00Z</time>
      </trkpt>
      <trkpt lat="39.60559" lon="-7.65363">
        <ele>241.526</ele>
        <time>2019-10-16T17:22:20Z</time>
      </trkpt>
      <trkpt lat="39.60567" lon="-7.65367">
        <ele>240.438</ele>
        <time>2019-10-16T17:22:40Z</time>
      </trkpt>
      <trkpt lat="39.60575" lon="-7.65373">
        <ele>239.969</ele>
        <time>2019-10-16T17:23:00Z</time>
      </trkpt>
      <trkpt lat="39.60583" lon="-7.65381">
        <ele>239.811</ele>
        <time>2019-10-16T17:23:20Z</time>
      </trkpt>
      <trkpt lat="39.6059" lon="-7.65387">
        <ele>240.391</ele>
        <time>2019-10-16T17:23:40Z</time>
      </trkpt>
      <trkpt lat="39.60598" lon="-7.65391">
        <ele>240.619</ele>
        <time>2019-10-16T17:24:00Z</time>
      </trkpt>
      <trkpt lat="39.60607" lon="-7.65394">
        <ele>240.409</ele>
        <time>2019-10-16T17:24:20Z</time>
      </trkpt>
      <trkpt lat="39.60616" lon="-7.65394">
        <ele>239.619</ele>
        <time>2019-10-16T17:24:40Z</time>
      </trkpt>
      <trkpt lat="39.60625" lon="-7.65391">
        <ele>238.308</ele>
        <time>2019-10-16T17:25:00Z</time>
      </trkpt>
      <trkpt lat="39.60633" lon="-7.65386">
        <ele>236.515</ele>
        <time>2019-10-16T17:25:20Z</time>
      </trkpt>
      <trkpt lat="39.6064" lon="-7.6538">
        <ele>234.743</ele>
        <time>2019-10-16T17:25:40Z</time>
      </trkpt>
      <trkpt lat="39.60645" lon="-7.65373">
        <ele>233.385</ele>
        <time>2019-10-16T17:26:00Z</time>
      </trkpt>
      <trkpt lat="39.60651" lon="-7.65367">
        <ele>232.495</ele>
        <time>2019-10-16T17:26:20Z</time>
      </trkpt>
      <trkpt lat="39.60657" lon="-7.65365">
        <ele>232.397</ele>
        <time>2019-10-16T17:26:40Z</time>
      </trkpt>
      <trkpt lat="39.60664" lon="-7.65366">
        <ele>232.848</ele>
        <time>2019-10-16T17:27:00Z</time>
      </trkpt>
      <trkpt lat="39.60671" lon="-7.65368">
        <ele>233.36</ele>
        <time>2019-10-16T17:27:20Z</time>
      </trkpt>
      <trkpt lat="39.60679" lon="-7.65371">
        <ele>233.82</ele>
        <time>2019-10-16T17:27:40Z</time>
      </trkpt>
      <trkpt lat="39.60688" lon="-7.65375">
        <ele>234.271</ele>
        <time>2019-10-16T17:28:00Z</time>
      </trkpt>
      <trkpt lat="39.60717" lon="-7.65384">
        <ele>229.241</ele>
        <time>2019-10-16T17:28:20Z</time>
      </trkpt>
      <trkpt lat="39.60727" lon="-7.65384">
        <ele>227.115</ele>
        <time>2019-10-16T17:28:40Z</time>
      </trkpt>
      <trkpt lat="39.60736" lon="-7.65382">
        <ele>225.508</ele>
        <time>2019-10-16T17:29:00Z</time>
      </trkpt>
      <trkpt lat="39.60754" lon="-7.65377">
        <ele>222.341</ele>
        <time>2019-10-16T17:29:20Z</time>
      </trkpt>
      <trkpt lat="39.60762" lon="-7.65377">
        <ele>221.499</ele>
        <time>2019-10-16T17:29:40Z</time>
      </trkpt>
      <trkpt lat="39.6077" lon="-7.65378">
        <ele>220.871</ele>
        <time>2019-10-16T17:30:00Z</time>
      </trkpt>
      <trkpt lat="39.60789" lon="-7.65385">
        <ele>219.241</ele>
        <time>2019-10-16T17:30:20Z</time>
      </trkpt>
      <trkpt lat="39.60829" lon="-7.654">
        <ele>217.633</ele>
        <time>2019-10-16T17:30:40Z</time>
      </trkpt>
      <trkpt lat="39.60837" lon="-7.65407">
        <ele>217.614</ele>
        <time>2019-10-16T17:31:00Z</time>
      </trkpt>
      <trkpt lat="39.60845" lon="-7.65414">
        <ele>217.656</ele>
        <time>2019-10-16T17:31:20Z</time>
      </trkpt>
      <trkpt lat="39.60852" lon="-7.65422">
        <ele>217.686</ele>
        <time>2019-10-16T17:31:40Z</time>
      </trkpt>
      <trkpt lat="39.60859" lon="-7.65426">
        <ele>217.485</ele>
        <time>2019-10-16T17:32:00Z</time>
      </trkpt>
      <trkpt lat="39.60866" lon="-7.65429">
        <ele>217.689</ele>
        <time>2019-10-16T17:32:20Z</time>
      </trkpt>
      <trkpt lat="39.60872" lon="-7.65429">
        <ele>217.617</ele>
        <time>2019-10-16T17:32:40Z</time>
      </trkpt>
      <trkpt lat="39.60877" lon="-7.65427">
        <ele>217.108</ele>
        <time>2019-10-16T17:33:00Z</time>
      </trkpt>
      <trkpt lat="39.60882" lon="-7.65422">
        <ele>216.452</ele>
        <time>2019-10-16T17:33:20Z</time>
      </trkpt>
      <trkpt lat="39.60888" lon="-7.65416">
        <ele>215.96</ele>
        <time>2019-10-16T17:33:40Z</time>
      </trkpt>
      <trkpt lat="39.60894" lon="-7.65412">
        <ele>216.552</ele>
        <time>2019-10-16T17:34:00Z</time>
      </trkpt>
      <trkpt lat="39.60902" lon="-7.65411">
        <ele>217.532</ele>
        <time>2019-10-16T17:34:20Z</time>
      </trkpt>
      <trkpt lat="39.6091" lon="-7.65412">
        <ele>218.884</ele>
        <time>2019-10-16T17:34:40Z</time>
      </trkpt>
      <trkpt lat="39.60919" lon="-7.65416">
        <ele>220.135</ele>
        <time>2019-10-16T17:35:00Z</time>
      </trkpt>
      <trkpt lat="39.60927" lon="-7.65422">
        <ele>220.237</ele>
        <time>2019-10-16T17:35:20Z</time>
      </trkpt>
      <trkpt lat="39.60934" lon="-7.65429">
        <ele>220.147</ele>
        <time>2019-10-16T17:35:40Z</time>
      </trkpt>
      <trkpt lat="39.6094" lon="-7.65437">
        <ele>219.631</ele>
        <time>2019-10-16T17:36:00Z</time>
      </trkpt>
      <trkpt lat="39.60945" lon="-7.65445">
        <ele>219.161</ele>
        <time>2019-10-16T17:36:20Z</time>
      </trkpt>
      <trkpt lat="39.60949" lon="-7.65453">
        <ele>220.007</ele>
        <time>2019-10-16T17:36:40Z</time>
      </trkpt>
      <trkpt lat="39.60964" lon="-7.65483">
        <ele>223.708</ele>
        <time>2019-10-16T17:37:00Z</time>
      </trkpt>
      <trkpt lat="39.60971" lon="-7.65493">
        <ele>225.567</ele>
        <time>2019-10-16T17:37:20Z</time>
      </trkpt>
      <trkpt lat="39.60979" lon="-7.65504">
        <ele>226.235</ele>
        <time>2019-10-16T17:37:40Z</time>
      </trkpt>
      <trkpt lat="39.61009" lon="-7.6554">
        <ele>225.737</ele>
        <time>2019-10-16T17:38:00Z</time>
      </trkpt>
      <trkpt lat="39.61028" lon="-7.65568">
        <ele>224.367</ele>
        <time>2019-10-16T17:38:20Z</time>
      </trkpt>
      <trkpt lat="39.61035" lon="-7.65575">
        <ele>224.239</ele>
        <time>2019-10-16T17:38:40Z</time>
      </trkpt>
      <trkpt lat="39.61043" lon="-7.6558">
        <ele>223.74</ele>
        <time>2019-10-16T17:39:00Z</time>
      </trkpt>
      <trkpt lat="39.61052" lon="-7.65584">
        <ele>222.862</ele>
        <time>2019-10-16T17:39:20Z</time>
      </trkpt>
      <trkpt lat="39.6106" lon="-7.65587">
        <ele>222.682</ele>
        <time>2019-10-16T17:39:40Z</time>
      </trkpt>
      <trkpt lat="39.61067" lon="-7.65591">
        <ele>223.268</ele>
        <time>2019-10-16T17:40:00Z</time>
      </trkpt>
      <trkpt lat="39.61075" lon="-7.65598">
        <ele>224.442</ele>
        <time>2019-10-16T17:40:20Z</time>
      </trkpt>
      <trkpt lat="39.61082" lon="-7.65607">
        <ele>226.026</ele>
        <time>2019-10-16T17:40:40Z</time>
      </trkpt>
      <trkpt lat="39.6109" lon="-7.65616">
        <ele>227.408</ele>
        <time>2019-10-16T17:41:00Z</time>
      </trkpt>
      <trkpt lat="39.61096" lon="-7.65626">
        <ele>228.55</ele>
        <time>2019-10-16T17:41:20Z</time>
      </trkpt>
      <trkpt lat="39.61101" lon="-7.65633">
        <ele>229.218</ele>
        <time>2019-10-16T17:41:40Z</time>
      </trkpt>
      <trkpt lat="39.61108" lon="-7.65638">
        <ele>229.33</ele>
        <time>2019-10-16T17:42:00Z</time>
      </trkpt>
      <trkpt lat="39.61115" lon="-7.65642">
        <ele>228.92</ele>
        <time>2019-10-16T17:42:20Z</time>
      </trkpt>
      <trkpt lat="39.61125" lon="-7.65645">
        <ele>227.842</ele>
        <time>2019-10-16T17:42:40Z</time>
      </trkpt>
      <trkpt lat="39.61133" lon="-7.65648">
        <ele>226.823</ele>
        <time>2019-10-16T17:43:00Z</time>
      </trkpt>
      <trkpt lat="39.61141" lon="-7.65653">
        <ele>226.275</ele>
        <time>2019-10-16T17:43:20Z</time>
      </trkpt>
      <trkpt lat="39.61157" lon="-7.65665">
        <ele>225.545</ele>
        <time>2019-10-16T17:43:40Z</time>
      </trkpt>
      <trkpt lat="39.61165" lon="-7.65668">
        <ele>224.594</ele>
        <time>2019-10-16T17:44:00Z</time>
      </trkpt>
      <trkpt lat="39.6118" lon="-7.65672">
        <ele>224.057</ele>
        <time>2019-10-16T17:44:20Z</time>
      </trkpt>
      <trkpt lat="39.61187" lon="-7.65677">
        <ele>224.122</ele>
        <time>2019-10-16T17:44:40Z</time>
      </trkpt>
      <trkpt lat="39.61193" lon="-7.65685">
        <ele>224.408</ele>
        <time>2019-10-16T17:45:00Z</time>
      </trkpt>
      <trkpt lat="39.6122" lon="-7.65721">
        <ele>225.143</ele>
        <time>2019-10-16T17:45:20Z</time>
      </trkpt>
      <trkpt lat="39.61227" lon="-7.65726">
        <ele>225.241</ele>
        <time>2019-10-16T17:45:40Z</time>
      </trkpt>
      <trkpt lat="39.61235" lon="-7.65727">
        <ele>224.773</ele>
        <time>2019-10-16T17:46:00Z</time>
      </trkpt>
      <trkpt lat="39.61244" lon="-7.65727">
        <ele>223.633</ele>
        <time>2019-10-16T17:46:20Z</time>
      </trkpt>
      <trkpt lat="39.61254" lon="-7.65725">
        <ele>222.385</ele>
        <time>2019-10-16T17:46:40Z</time>
      </trkpt>
      <trkpt lat="39.61263" lon="-7.65721">
        <ele>220.996</ele>
        <time>2019-10-16T17:47:00Z</time>
      </trkpt>
      <trkpt lat="39.61273" lon="-7.65718">
        <ele>219.728</ele>
        <time>2019-10-16T17:47:20Z</time>
      </trkpt>
      <trkpt lat="39.61283" lon="-7.65716">
        <ele>219.138</ele>
        <time>2019-10-16T17:47:40Z</time>
      </trkpt>
      <trkpt lat="39.61292" lon="-7.65716">
        <ele>219.165</ele>
        <time>2019-10-16T17:48:00Z</time>
      </trkpt>
      <trkpt lat="39.61301" lon="-7.65717">
        <ele>219.268</ele>
        <time>2019-10-16T17:48:20Z</time>
      </trkpt>
      <trkpt lat="39.6131" lon="-7.65718">
        <ele>219.314</ele>
        <time>2019-10-16T17:48:40Z</time>
      </trkpt>
      <trkpt lat="39.61318" lon="-7.65717">
        <ele>219.208</ele>
        <time>2019-10-16T17:49:00Z</time>
      </trkpt>
      <trkpt lat="39.61326" lon="-7.65714">
        <ele>218.52</ele>
        <time>2019-10-16T17:49:20Z</time>
      </trkpt>
      <trkpt lat="39.61334" lon="-7.65708">
        <ele>217.498</ele>
        <time>2019-10-16T17:49:40Z</time>
      </trkpt>
      <trkpt lat="39.61341" lon="-7.65703">
        <ele>216.28</ele>
        <time>2019-10-16T17:50:00Z</time>
      </trkpt>
      <trkpt lat="39.61347" lon="-7.65699">
        <ele>215.39</ele>
        <time>2019-10-16T17:50:20Z</time>
      </trkpt>
      <trkpt lat="39.61354" lon="-7.65696">
        <ele>214.672</ele>
        <time>2019-10-16T17:50:40Z</time>
      </trkpt>
      <trkpt lat="39.6136" lon="-7.65695">
        <ele>214.273</ele>
        <time>2019-10-16T17:51:00Z</time>
      </trkpt>
      <trkpt lat="39.61367" lon="-7.65697">
        <ele>214.695</ele>
        <time>2019-10-16T17:51:20Z</time>
      </trkpt>
      <trkpt lat="39.61375" lon="-7.65699">
        <ele>215.575</ele>
        <time>2019-10-16T17:51:40Z</time>
      </trkpt>
      <trkpt lat="39.61383" lon="-7.65699">
        <ele>216.062</ele>
        <time>2019-10-16T17:52:00Z</time>
      </trkpt>
      <trkpt lat="39.61392" lon="-7.65698">
        <ele>215.783</ele>
        <time>2019-10-16T17:52:20Z</time>
      </trkpt>
      <trkpt lat="39.61401" lon="-7.65698">
        <ele>215.011</ele>
        <time>2019-10-16T17:52:40Z</time>
      </trkpt>
      <trkpt lat="39.61409" lon="-7.657">
        <ele>214.908</ele>
        <time>2019-10-16T17:53:00Z</time>
      </trkpt>
      <trkpt lat="39.61417" lon="-7.65703">
        <ele>215.24</ele>
        <time>2019-10-16T17:53:20Z</time>
      </trkpt>
      <trkpt lat="39.61437" lon="-7.65712">
        <ele>214.898</ele>
        <time>2019-10-16T17:53:40Z</time>
      </trkpt>
      <trkpt lat="39.61448" lon="-7.65715">
        <ele>214.66</ele>
        <time>2019-10-16T17:54:00Z</time>
      </trkpt>
      <trkpt lat="39.61459" lon="-7.65715">
        <ele>215.25</ele>
        <time>2019-10-16T17:54:20Z</time>
      </trkpt>
      <trkpt lat="39.6147" lon="-7.65712">
        <ele>215.022</ele>
        <time>2019-10-16T17:54:40Z</time>
      </trkpt>
      <trkpt lat="39.61481" lon="-7.65709">
        <ele>214.833</ele>
        <time>2019-10-16T17:55:00Z</time>
      </trkpt>
      <trkpt lat="39.61537" lon="-7.65694">
        <ele>213.825</ele>
        <time>2019-10-16T17:55:20Z</time>
      </trkpt>
      <trkpt lat="39.61546" lon="-7.65694">
        <ele>213.995</ele>
        <time>2019-10-16T17:55:40Z</time>
      </trkpt>
      <trkpt lat="39.61554" lon="-7.65698">
        <ele>214.758</ele>
        <time>2019-10-16T17:56:00Z</time>
      </trkpt>
      <trkpt lat="39.61561" lon="-7.65704">
        <ele>214.952</ele>
        <time>2019-10-16T17:56:20Z</time>
      </trkpt>
      <trkpt lat="39.61568" lon="-7.65712">
        <ele>215.217</ele>
        <time>2019-10-16T17:56:40Z</time>
      </trkpt>
      <trkpt lat="39.61575" lon="-7.65722">
        <ele>215.808</ele>
        <time>2019-10-16T17:57:00Z</time>
      </trkpt>
      <trkpt lat="39.61581" lon="-7.65734">
        <ele>215.959</ele>
        <time>2019-10-16T17:57:20Z</time>
      </trkpt>
      <trkpt lat="39.61586" lon="-7.65746">
        <ele>215.967</ele>
        <time>2019-10-16T17:57:40Z</time>
      </trkpt>
      <trkpt lat="39.61614" lon="-7.65803">
        <ele>216.349</ele>
        <time>2019-10-16T17:58:00Z</time>
      </trkpt>
      <trkpt lat="39.6162" lon="-7.65811">
        <ele>217.139</ele>
        <time>2019-10-16T17:58:20Z</time>
      </trkpt>
      <trkpt lat="39.61627" lon="-7.65816">
        <ele>217.331</ele>
        <time>2019-10-16T17:58:40Z</time>
      </trkpt>
      <trkpt lat="39.61636" lon="-7.65818">
        <ele>216.642</ele>
        <time>2019-10-16T17:59:00Z</time>
      </trkpt>
      <trkpt lat="39.61647" lon="-7.6582">
        <ele>215.674</ele>
        <time>2019-10-16T17:59:20Z</time>
      </trkpt>
      <trkpt lat="39.61658" lon="-7.65824">
        <ele>214.694</ele>
        <time>2019-10-16T17:59:40Z</time>
      </trkpt>
      <trkpt lat="39.6167" lon="-7.65828">
        <ele>213.935</ele>
        <time>2019-10-16T18:00:00Z</time>
      </trkpt>
      <trkpt lat="39.61683" lon="-7.65834">
        <ele>214.186</ele>
        <time>2019-10-16T18:00:20Z</time>
      </trkpt>
      <trkpt lat="39.61733" lon="-7.65852">
        <ele>217.514</ele>
        <time>2019-10-16T18:00:40Z</time>
      </trkpt>
      <trkpt lat="39.61744" lon="-7.65853">
        <ele>217.308</ele>
        <time>2019-10-16T18:01:00Z</time>
      </trkpt>
      <trkpt lat="39.61755" lon="-7.65852">
        <ele>217.687</ele>
        <time>2019-10-16T18:01:20Z</time>
      </trkpt>
      <trkpt lat="39.61765" lon="-7.65848">
        <ele>218.575</ele>
        <time>2019-10-16T18:01:40Z</time>
      </trkpt>
      <trkpt lat="39.61775" lon="-7.65843">
        <ele>218.867</ele>
        <time>2019-10-16T18:02:00Z</time>
      </trkpt>
      <trkpt lat="39.61785" lon="-7.65835">
        <ele>218.587</ele>
        <time>2019-10-16T18:02:20Z</time>
      </trkpt>
      <trkpt lat="39.61794" lon="-7.65827">
        <ele>217.979</ele>
        <time>2019-10-16T18:02:40Z</time>
      </trkpt>
      <trkpt lat="39.61809" lon="-7.65816">
        <ele>216.99</ele>
        <time>2019-10-16T18:03:00Z</time>
      </trkpt>
      <trkpt lat="39.61814" lon="-7.6581">
        <ele>215.972</ele>
        <time>2019-10-16T18:03:20Z</time>
      </trkpt>
      <trkpt lat="39.61821" lon="-7.65801">
        <ele>214.782</ele>
        <time>2019-10-16T18:03:40Z</time>
      </trkpt>
      <trkpt lat="39.61825" lon="-7.658">
        <ele>214.836</ele>
        <time>2019-10-16T18:04:00Z</time>
      </trkpt>
      <trkpt lat="39.61829" lon="-7.65799">
        <ele>215.117</ele>
        <time>2019-10-16T18:04:20Z</time>
      </trkpt>
      <trkpt lat="39.61834" lon="-7.65798">
        <ele>215.318</ele>
        <time>2019-10-16T18:04:40Z</time>
      </trkpt>
      <trkpt lat="39.61838" lon="-7.65798">
        <ele>214.908</ele>
        <time>2019-10-16T18:05:00Z</time>
      </trkpt>
      <trkpt lat="39.61841" lon="-7.65798">
        <ele>214.737</ele>
        <time>2019-10-16T18:05:20Z</time>
      </trkpt>
      <trkpt lat="39.61845" lon="-7.65799">
        <ele>214.425</ele>
        <time>2019-10-16T18:05:40Z</time>
      </trkpt>
      <trkpt lat="39.6186" lon="-7.65801">
        <ele>213.347</ele>
        <time>2019-10-16T18:06:00Z</time>
      </trkpt>
      <trkpt lat="39.61867" lon="-7.65805">
        <ele>212.937</ele>
        <time>2019-10-16T18:06:20Z</time>
      </trkpt>
      <trkpt lat="39.61879" lon="-7.65812">
        <ele>213.479</ele>
        <time>2019-10-16T18:06:40Z</time>
      </trkpt>
      <trkpt lat="39.61883" lon="-7.65813">
        <ele>213.14</ele>
        <time>2019-10-16T18:07:00Z</time>
      </trkpt>
      <trkpt lat="39.61886" lon="-7.65812">
        <ele>212.342</ele>
        <time>2019-10-16T18:07:20Z</time>
      </trkpt>
      <trkpt lat="39.61887" lon="-7.65809">
        <ele>211.312</ele>
        <time>2019-10-16T18:07:40Z</time>
      </trkpt>
      <trkpt lat="39.61887" lon="-7.65806">
        <ele>210.345</ele>
        <time>2019-10-16T18:08:00Z</time>
      </trkpt>
      <trkpt lat="39.61885" lon="-7.65802">
        <ele>209.647</ele>
        <time>2019-10-16T18:08:20Z</time>
      </trkpt>
      <trkpt lat="39.61881" lon="-7.65798">
        <ele>209.111</ele>
        <time>2019-10-16T18:08:40Z</time>
      </trkpt>
      <trkpt lat="39.61869" lon="-7.65782">
        <ele>207.908</ele>
        <time>2019-10-16T18:09:00Z</time>
      </trkpt>
      <trkpt lat="39.61862" lon="-7.6577">
        <ele>206.828</ele>
        <time>2019-10-16T18:09:20Z</time>
      </trkpt>
      <trkpt lat="39.61857" lon="-7.65758">
        <ele>204.286</ele>
        <time>2019-10-16T18:09:40Z</time>
      </trkpt>
      <trkpt lat="39.61843" lon="-7.65728">
        <ele>196.618</ele>
        <time>2019-10-16T18:10:00Z</time>
      </trkpt>
      <trkpt lat="39.61841" lon="-7.6572">
        <ele>194.358</ele>
        <time>2019-10-16T18:10:20Z</time>
      </trkpt>
      <trkpt lat="39.61841" lon="-7.65713">
        <ele>192.48</ele>
        <time>2019-10-16T18:10:40Z</time>
      </trkpt>
      <trkpt lat="39.61843" lon="-7.65704">
        <ele>190.511</ele>
        <time>2019-10-16T18:11:00Z</time>
      </trkpt>
      <trkpt lat="39.61846" lon="-7.65693">
        <ele>188.763</ele>
        <time>2019-10-16T18:11:20Z</time>
      </trkpt>
      <trkpt lat="39.61851" lon="-7.65683">
        <ele>187.773</ele>
        <time>2019-10-16T18:11:40Z</time>
      </trkpt>
      <trkpt lat="39.61855" lon="-7.65673">
        <ele>187.418</ele>
        <time>2019-10-16T18:12:00Z</time>
      </trkpt>
      <trkpt lat="39.6186" lon="-7.65666">
        <ele>187.498</ele>
        <time>2019-10-16T18:12:20Z</time>
      </trkpt>
      <trkpt lat="39.61866" lon="-7.6566">
        <ele>186.217</ele>
        <time>2019-10-16T18:12:40Z</time>
      </trkpt>
      <trkpt lat="39.61873" lon="-7.65655">
        <ele>185.408</ele>
        <time>2019-10-16T18:13:00Z</time>
      </trkpt>
      <trkpt lat="39.61882" lon="-7.65649">
        <ele>185.175</ele>
        <time>2019-10-16T18:13:20Z</time>
      </trkpt>
      <trkpt lat="39.61893" lon="-7.65642">
        <ele>184.743</ele>
        <time>2019-10-16T18:13:40Z</time>
      </trkpt>
      <trkpt lat="39.61904" lon="-7.65634">
        <ele>184.365</ele>
        <time>2019-10-16T18:14:00Z</time>
      </trkpt>
      <trkpt lat="39.61934" lon="-7.65614">
        <ele>184.585</ele>
        <time>2019-10-16T18:14:20Z</time>
      </trkpt>
      <trkpt lat="39.61942" lon="-7.65607">
        <ele>183.717</ele>
        <time>2019-10-16T18:14:40Z</time>
      </trkpt>
      <trkpt lat="39.61948" lon="-7.65598">
        <ele>182.878</ele>
        <time>2019-10-16T18:15:00Z</time>
      </trkpt>
      <trkpt lat="39.61953" lon="-7.65586">
        <ele>182.41</ele>
        <time>2019-10-16T18:15:20Z</time>
      </trkpt>
      <trkpt lat="39.61958" lon="-7.65574">
        <ele>182.43</ele>
        <time>2019-10-16T18:15:40Z</time>
      </trkpt>
      <trkpt lat="39.61961" lon="-7.65561">
        <ele>182.248</ele>
        <time>2019-10-16T18:16:00Z</time>
      </trkpt>
      <trkpt lat="39.61961" lon="-7.65547">
        <ele>181.461</ele>
        <time>2019-10-16T18:16:20Z</time>
      </trkpt>
      <trkpt lat="39.6196" lon="-7.65534">
        <ele>180.217</ele>
        <time>2019-10-16T18:16:40Z</time>
      </trkpt>
      <trkpt lat="39.61959" lon="-7.65522">
        <ele>178.508</ele>
        <time>2019-10-16T18:17:00Z</time>
      </trkpt>
      <trkpt lat="39.61959" lon="-7.65511">
        <ele>176.658</ele>
        <time>2019-10-16T18:17:20Z</time>
      </trkpt>
      <trkpt lat="39.61961" lon="-7.65501">
        <ele>175.516</ele>
        <time>2019-10-16T18:17:40Z</time>
      </trkpt>
      <trkpt lat="39.61965" lon="-7.65492">
        <ele>173.758</ele>
        <time>2019-10-16T18:18:00Z</time>
      </trkpt>
      <trkpt lat="39.6197" lon="-7.65482">
        <ele>171.658</ele>
        <time>2019-10-16T18:18:20Z</time>
      </trkpt>
      <trkpt lat="39.61985" lon="-7.65451">
        <ele>168.64</ele>
        <time>2019-10-16T18:18:40Z</time>
      </trkpt>
      <trkpt lat="39.6199" lon="-7.65445">
        <ele>168.951</ele>
        <time>2019-10-16T18:19:00Z</time>
      </trkpt>
      <trkpt lat="39.61996" lon="-7.65441">
        <ele>169.853</ele>
        <time>2019-10-16T18:19:20Z</time>
      </trkpt>
      <trkpt lat="39.62005" lon="-7.65439">
        <ele>170.293</ele>
        <time>2019-10-16T18:19:40Z</time>
      </trkpt>
      <trkpt lat="39.62015" lon="-7.65437">
        <ele>169.672</ele>
        <time>2019-10-16T18:20:00Z</time>
      </trkpt>
      <trkpt lat="39.62036" lon="-7.65432">
        <ele>167.213</ele>
        <time>2019-10-16T18:20:20Z</time>
      </trkpt>
      <trkpt lat="39.62044" lon="-7.65428">
        <ele>165.014</ele>
        <time>2019-10-16T18:20:40Z</time>
      </trkpt>
      <trkpt lat="39.6205" lon="-7.6542">
        <ele>162.408</ele>
        <time>2019-10-16T18:21:00Z</time>
      </trkpt>
      <trkpt lat="39.62056" lon="-7.65409">
        <ele>160.281</ele>
        <time>2019-10-16T18:21:20Z</time>
      </trkpt>
      <trkpt lat="39.6206" lon="-7.65395">
        <ele>159.669</ele>
        <time>2019-10-16T18:21:40Z</time>
      </trkpt>
      <trkpt lat="39.62064" lon="-7.65381">
        <ele>159.131</ele>
        <time>2019-10-16T18:22:00Z</time>
      </trkpt>
      <trkpt lat="39.62069" lon="-7.65362">
        <ele>159.411</ele>
        <time>2019-10-16T18:22:20Z</time>
      </trkpt>
      <trkpt lat="39.62073" lon="-7.65355">
        <ele>159.113</ele>
        <time>2019-10-16T18:22:40Z</time>
      </trkpt>
      <trkpt lat="39.62078" lon="-7.65348">
        <ele>159.934</ele>
        <time>2019-10-16T18:23:00Z</time>
      </trkpt>
      <trkpt lat="39.62083" lon="-7.65341">
        <ele>161.156</ele>
        <time>2019-10-16T18:23:20Z</time>
      </trkpt>
      <trkpt lat="39.62087" lon="-7.65334">
        <ele>161.456</ele>
        <time>2019-10-16T18:23:40Z</time>
      </trkpt>
      <trkpt lat="39.62088" lon="-7.65325">
        <ele>159.133</ele>
        <time>2019-10-16T18:24:00Z</time>
      </trkpt>
      <trkpt lat="39.62086" lon="-7.65315">
        <ele>155.423</ele>
        <time>2019-10-16T18:24:20Z</time>
      </trkpt>
      <trkpt lat="39.62085" lon="-7.65304">
        <ele>151.115</ele>
        <time>2019-10-16T18:24:40Z</time>
      </trkpt>
      <trkpt lat="39.62084" lon="-7.65291">
        <ele>147.108</ele>
        <time>2019-10-16T18:25:00Z</time>
      </trkpt>
      <trkpt lat="39.62082" lon="-7.6528">
        <ele>142.877</ele>
        <time>2019-10-16T18:25:20Z</time>
      </trkpt>
      <trkpt lat="39.62079" lon="-7.65269">
        <ele>139.375</ele>
        <time>2019-10-16T18:25:40Z</time>
      </trkpt>
      <trkpt lat="39.62076" lon="-7.65261">
        <ele>136.567</ele>
        <time>2019-10-16T18:26:00Z</time>
      </trkpt>
      <trkpt lat="39.62075" lon="-7.65255">
        <ele>134.747</ele>
        <time>2019-10-16T18:26:20Z</time>
      </trkpt>
      <trkpt lat="39.62076" lon="-7.65249">
        <ele>134.129</ele>
        <time>2019-10-16T18:26:40Z</time>
      </trkpt>
      <trkpt lat="39.62079" lon="-7.65243">
        <ele>134.82</ele>
        <time>2019-10-16T18:27:00Z</time>
      </trkpt>
      <trkpt lat="39.62084" lon="-7.65236">
        <ele>136.422</ele>
        <time>2019-10-16T18:27:20Z</time>
      </trkpt>
      <trkpt lat="39.6209" lon="-7.65229">
        <ele>138.712</ele>
        <time>2019-10-16T18:27:40Z</time>
      </trkpt>
      <trkpt lat="39.62096" lon="-7.65222">
        <ele>140.482</ele>
        <time>2019-10-16T18:28:00Z</time>
      </trkpt>
      <trkpt lat="39.62098" lon="-7.65214">
        <ele>139.943</ele>
        <time>2019-10-16T18:28:20Z</time>
      </trkpt>
      <trkpt lat="39.62097" lon="-7.65204">
        <ele>137.517</ele>
        <time>2019-10-16T18:28:40Z</time>
      </trkpt>
      <trkpt lat="39.62094" lon="-7.65193">
        <ele>133.608</ele>
        <time>2019-10-16T18:29:00Z</time>
      </trkpt>
      <trkpt lat="39.6209" lon="-7.65181">
        <ele>130.382</ele>
        <time>2019-10-16T18:29:20Z</time>
      </trkpt>
      <trkpt lat="39.62087" lon="-7.65171">
        <ele>127.84</ele>
        <time>2019-10-16T18:29:40Z</time>
      </trkpt>
      <trkpt lat="39.62085" lon="-7.65161">
        <ele>125.262</ele>
        <time>2019-10-16T18:30:00Z</time>
      </trkpt>
      <trkpt lat="39.62084" lon="-7.65151">
        <ele>122.432</ele>
        <time>2019-10-16T18:30:20Z</time>
      </trkpt>
      <trkpt lat="39.62085" lon="-7.65143">
        <ele>120.414</ele>
        <time>2019-10-16T18:30:40Z</time>
      </trkpt>
      <trkpt lat="39.62086" lon="-7.65137">
        <ele>119.195</ele>
        <time>2019-10-16T18:31:00Z</time>
      </trkpt>
      <trkpt lat="39.62088" lon="-7.65132">
        <ele>118.087</ele>
        <time>2019-10-16T18:31:20Z</time>
      </trkpt>
      <trkpt lat="39.62092" lon="-7.65127">
        <ele>117.357</ele>
        <time>2019-10-16T18:31:40Z</time>
      </trkpt>
      <trkpt lat="39.62096" lon="-7.65122">
        <ele>116.792</ele>
        <time>2019-10-16T18:32:00Z</time>
      </trkpt>
      <trkpt lat="39.621" lon="-7.65117">
        <ele>115.973</ele>
        <time>2019-10-16T18:32:20Z</time>
      </trkpt>
      <trkpt lat="39.62115" lon="-7.65101">
        <ele>113.72</ele>
        <time>2019-10-16T18:32:40Z</time>
      </trkpt>
      <trkpt lat="39.62123" lon="-7.65089">
        <ele>111.108</ele>
        <time>2019-10-16T18:33:00Z</time>
      </trkpt>
      <trkpt lat="39.62126" lon="-7.65083">
        <ele>109.543</ele>
        <time>2019-10-16T18:33:20Z</time>
      </trkpt>
      <trkpt lat="39.62135" lon="-7.65065">
        <ele>106.961</ele>
        <time>2019-10-16T18:33:40Z</time>
      </trkpt>
      <trkpt lat="39.62145" lon="-7.65048">
        <ele>104.133</ele>
        <time>2019-10-16T18:34:00Z</time>
      </trkpt>
      <trkpt lat="39.6215" lon="-7.65043">
        <ele>102.993</ele>
        <time>2019-10-16T18:34:20Z</time>
      </trkpt>
      <trkpt lat="39.62167" lon="-7.65025">
        <ele>100.175</ele>
        <time>2019-10-16T18:34:40Z</time>
      </trkpt>
      <trkpt lat="39.62186" lon="-7.65002">
        <ele>95.026</ele>
        <time>2019-10-16T18:35:00Z</time>
      </trkpt>
      <trkpt lat="39.62203" lon="-7.64977">
        <ele>87.898</ele>
        <time>2019-10-16T18:35:20Z</time>
      </trkpt>
      <trkpt lat="39.62215" lon="-7.64961">
        <ele>83.258</ele>
        <time>2019-10-16T18:35:40Z</time>
      </trkpt>
      <trkpt lat="39.62224" lon="-7.64947">
        <ele>80.394</ele>
        <time>2019-10-16T18:36:00Z</time>
      </trkpt>
      <trkpt lat="39.62232" lon="-7.64934">
        <ele>79.357</ele>
        <time>2019-10-16T18:36:20Z</time>
      </trkpt>
      <trkpt lat="39.62236" lon="-7.64931">
        <ele>79.022</ele>
        <time>2019-10-16T18:36:40Z</time>
      </trkpt>
      <trkpt lat="39.62237" lon="-7.64933">
        <ele>79.108</ele>
        <time>2019-10-16T18:37:00Z</time>
      </trkpt>
      <trkpt lat="39.62237" lon="-7.64936">
        <ele>79.283</ele>
        <time>2019-10-16T18:37:20Z</time>
      </trkpt>
      <trkpt lat="39.62236" lon="-7.64941">
        <ele>79.451</ele>
        <time>2019-10-16T18:37:40Z</time>
      </trkpt>
      <trkpt lat="39.62233" lon="-7.64953">
        <ele>80.563</ele>
        <time>2019-10-16T18:38:00Z</time>
      </trkpt>
      <trkpt lat="39.62229" lon="-7.64972">
        <ele>83.073</ele>
        <time>2019-10-16T18:38:20Z</time>
      </trkpt>
      <trkpt lat="39.62226" lon="-7.64985">
        <ele>85.685</ele>
        <time>2019-10-16T18:38:40Z</time>
      </trkpt>
      <trkpt lat="39.62213" lon="-7.65034">
        <ele>91.796</ele>
        <time>2019-10-16T18:39:00Z</time>
      </trkpt>
      <trkpt lat="39.62209" lon="-7.65058">
        <ele>94.028</ele>
        <time>2019-10-16T18:39:20Z</time>
      </trkpt>
      <trkpt lat="39.62208" lon="-7.6507">
        <ele>95.098</ele>
        <time>2019-10-16T18:39:40Z</time>
      </trkpt>
      <trkpt lat="39.62208" lon="-7.65081">
        <ele>95.711</ele>
        <time>2019-10-16T18:40:00Z</time>
      </trkpt>
      <trkpt lat="39.62209" lon="-7.65093">
        <ele>96.521</ele>
        <time>2019-10-16T18:40:20Z</time>
      </trkpt>
      <trkpt lat="39.62211" lon="-7.65104">
        <ele>97.103</ele>
        <time>2019-10-16T18:40:40Z</time>
      </trkpt>
      <trkpt lat="39.62213" lon="-7.65117">
        <ele>98.708</ele>
        <time>2019-10-16T18:41:00Z</time>
      </trkpt>
      <trkpt lat="39.62217" lon="-7.65128">
        <ele>101.845</ele>
        <time>2019-10-16T18:41:20Z</time>
      </trkpt>
      <trkpt lat="39.62221" lon="-7.65138">
        <ele>104.183</ele>
        <time>2019-10-16T18:41:40Z</time>
      </trkpt>
      <trkpt lat="39.62226" lon="-7.65145">
        <ele>106.315</ele>
        <time>2019-10-16T18:42:00Z</time>
      </trkpt>
      <trkpt lat="39.6223" lon="-7.6515">
        <ele>107.595</ele>
        <time>2019-10-16T18:42:20Z</time>
      </trkpt>
      <trkpt lat="39.62236" lon="-7.65155">
        <ele>108.087</ele>
        <time>2019-10-16T18:42:40Z</time>
      </trkpt>
      <trkpt lat="39.6228" lon="-7.65182">
        <ele>108.728</ele>
        <time>2019-10-16T18:43:00Z</time>
      </trkpt>
      <trkpt lat="39.6231" lon="-7.65208">
        <ele>111.75</ele>
        <time>2019-10-16T18:43:20Z</time>
      </trkpt>
      <trkpt lat="39.62321" lon="-7.65215">
        <ele>112.03</ele>
        <time>2019-10-16T18:43:40Z</time>
      </trkpt>
      <trkpt lat="39.62366" lon="-7.65234">
        <ele>114.284</ele>
        <time>2019-10-16T18:44:00Z</time>
      </trkpt>
      <trkpt lat="39.62402" lon="-7.65237">
        <ele>113.507</ele>
        <time>2019-10-16T18:44:20Z</time>
      </trkpt>
      <trkpt lat="39.62413" lon="-7.65236">
        <ele>113.017</ele>
        <time>2019-10-16T18:44:40Z</time>
      </trkpt>
      <trkpt lat="39.62424" lon="-7.65234">
        <ele>112.208</ele>
        <time>2019-10-16T18:45:00Z</time>
      </trkpt>
      <trkpt lat="39.62435" lon="-7.65233">
        <ele>111.652</ele>
        <time>2019-10-16T18:45:20Z</time>
      </trkpt>
      <trkpt lat="39.62446" lon="-7.65233">
        <ele>111.19</ele>
        <time>2019-10-16T18:45:40Z</time>
      </trkpt>
      <trkpt lat="39.62455" lon="-7.65231">
        <ele>110.132</ele>
        <time>2019-10-16T18:46:00Z</time>
      </trkpt>
      <trkpt lat="39.62464" lon="-7.65228">
        <ele>109.182</ele>
        <time>2019-10-16T18:46:20Z</time>
      </trkpt>
      <trkpt lat="39.62471" lon="-7.65222">
        <ele>108.134</ele>
        <time>2019-10-16T18:46:40Z</time>
      </trkpt>
      <trkpt lat="39.62476" lon="-7.65214">
        <ele>106.235</ele>
        <time>2019-10-16T18:47:00Z</time>
      </trkpt>
      <trkpt lat="39.62482" lon="-7.65203">
        <ele>104.047</ele>
        <time>2019-10-16T18:47:20Z</time>
      </trkpt>
      <trkpt lat="39.62487" lon="-7.65191">
        <ele>102.367</ele>
        <time>2019-10-16T18:47:40Z</time>
      </trkpt>
      <trkpt lat="39.625" lon="-7.65158">
        <ele>100.775</ele>
        <time>2019-10-16T18:48:00Z</time>
      </trkpt>
      <trkpt lat="39.62502" lon="-7.65159">
        <ele>100.728</ele>
        <time>2019-10-16T18:48:20Z</time>
      </trkpt>
      <trkpt lat="39.62503" lon="-7.65162">
        <ele>100.92</ele>
        <time>2019-10-16T18:48:40Z</time>
      </trkpt>
      <trkpt lat="39.62503" lon="-7.65168">
        <ele>101.008</ele>
        <time>2019-10-16T18:49:00Z</time>
      </trkpt>
      <trkpt lat="39.62502" lon="-7.65175">
        <ele>101.361</ele>
        <time>2019-10-16T18:49:20Z</time>
      </trkpt>
      <trkpt lat="39.625" lon="-7.65184">
        <ele>101.659</ele>
        <time>2019-10-16T18:49:40Z</time>
      </trkpt>
      <trkpt lat="39.62494" lon="-7.65224">
        <ele>105.881</ele>
        <time>2019-10-16T18:50:00Z</time>
      </trkpt>
      <trkpt lat="39.62486" lon="-7.65257">
        <ele>108.791</ele>
        <time>2019-10-16T18:50:20Z</time>
      </trkpt>
      <trkpt lat="39.62479" lon="-7.65284">
        <ele>107.713</ele>
        <time>2019-10-16T18:50:40Z</time>
      </trkpt>
      <trkpt lat="39.62481" lon="-7.65287">
        <ele>107.734</ele>
        <time>2019-10-16T18:51:00Z</time>
      </trkpt>
      <trkpt lat="39.62483" lon="-7.65288">
        <ele>107.646</ele>
        <time>2019-10-16T18:51:20Z</time>
      </trkpt>
      <trkpt lat="39.62487" lon="-7.65287">
        <ele>107.576</ele>
        <time>2019-10-16T18:51:40Z</time>
      </trkpt>
      <trkpt lat="39.6249" lon="-7.65284">
        <ele>107.449</ele>
        <time>2019-10-16T18:52:00Z</time>
      </trkpt>
      <trkpt lat="39.62493" lon="-7.6528">
        <ele>107.302</ele>
        <time>2019-10-16T18:52:20Z</time>
      </trkpt>
      <trkpt lat="39.62495" lon="-7.65277">
        <ele>107.222</ele>
        <time>2019-10-16T18:52:40Z</time>
      </trkpt>
      <trkpt lat="39.62495" lon="-7.65276">
        <ele>107.208</ele>
        <time>2019-10-16T18:53:00Z</time>
      </trkpt>
      <trkpt lat="39.62496" lon="-7.65277">
        <ele>107.278</ele>
        <time>2019-10-16T18:53:20Z</time>
      </trkpt>
      <trkpt lat="39.62495" lon="-7.65277">
        <ele>107.276</ele>
        <time>2019-10-16T18:53:40Z</time>
      </trkpt>
      <trkpt lat="39.62494" lon="-7.65277">
        <ele>107.278</ele>
        <time>2019-10-16T18:54:00Z</time>
      </trkpt>
      <trkpt lat="39.62495" lon="-7.65273">
        <ele>107.458</ele>
        <time>2019-10-16T18:54:20Z</time>
      </trkpt>
      <trkpt lat="39.62497" lon="-7.65272">
        <ele>107.48</ele>
        <time>2019-10-16T18:54:40Z</time>
      </trkpt>
      <trkpt lat="39.62496" lon="-7.65272">
        <ele>107.461</ele>
        <time>2019-10-16T18:55:00Z</time>
      </trkpt>
      <trkpt lat="39.62496" lon="-7.65273">
        <ele>107.443</ele>
        <time>2019-10-16T18:55:20Z</time>
      </trkpt>
      <trkpt lat="39.62496" lon="-7.65273">
        <ele>107.453</ele>
        <time>2019-10-16T18:55:40Z</time>
      </trkpt>
      <trkpt lat="39.62495" lon="-7.65276">
        <ele>107.325</ele>
        <time>2019-10-16T18:56:00Z</time>
      </trkpt>
      <trkpt lat="39.62487" lon="-7.65286">
        <ele>107.526</ele>
        <time>2019-10-16T18:56:20Z</time>
      </trkpt>
      <trkpt lat="39.62484" lon="-7.65287">
        <ele>107.608</ele>
        <time>2019-10-16T18:56:40Z</time>
      </trkpt>
      <trkpt lat="39.62482" lon="-7.65286">
        <ele>107.708</ele>
        <time>2019-10-16T18:57:00Z</time>
      </trkpt>
      <trkpt lat="39.6248" lon="-7.65284">
        <ele>107.796</ele>
        <time>2019-10-16T18:57:20Z</time>
      </trkpt>
      <trkpt lat="39.6248" lon="-7.65281">
        <ele>107.784</ele>
        <time>2019-10-16T18:57:40Z</time>
      </trkpt>
      <trkpt lat="39.6248" lon="-7.65276">
        <ele>107.846</ele>
        <time>2019-10-16T18:58:00Z</time>
      </trkpt>
      <trkpt lat="39.62481" lon="-7.65269">
        <ele>108.236</ele>
        <time>2019-10-16T18:58:20Z</time>
      </trkpt>
      <trkpt lat="39.62483" lon="-7.6526">
        <ele>108.618</ele>
        <time>2019-10-16T18:58:40Z</time>
      </trkpt>
      <trkpt lat="39.62486" lon="-7.65251">
        <ele>109.099</ele>
        <time>2019-10-16T18:59:00Z</time>
      </trkpt>
      <trkpt lat="39.62489" lon="-7.65242">
        <ele>108.041</ele>
        <time>2019-10-16T18:59:20Z</time>
      </trkpt>
      <trkpt lat="39.62492" lon="-7.65234">
        <ele>107.061</ele>
        <time>2019-10-16T18:59:40Z</time>
      </trkpt>
      <trkpt lat="39.62495" lon="-7.65225">
        <ele>105.947</ele>
        <time>2019-10-16T19:00:00Z</time>
      </trkpt>
      <trkpt lat="39.62497" lon="-7.65216">
        <ele>104.629</ele>
        <time>2019-10-16T19:00:20Z</time>
      </trkpt>
      <trkpt lat="39.625" lon="-7.65195">
        <ele>102.121</ele>
        <time>2019-10-16T19:00:40Z</time>
      </trkpt>
      <trkpt lat="39.62501" lon="-7.65185">
        <ele>101.608</ele>
        <time>2019-10-16T19:01:00Z</time>
      </trkpt>
      <trkpt lat="39.62504" lon="-7.65167">
        <ele>101.018</ele>
        <time>2019-10-16T19:01:20Z</time>
      </trkpt>
      <trkpt lat="39.62503" lon="-7.65161">
        <ele>100.846</ele>
        <time>2019-10-16T19:01:40Z</time>
      </trkpt>
      <trkpt lat="39.62501" lon="-7.65157">
        <ele>100.788</ele>
        <time>2019-10-16T19:02:00Z</time>
      </trkpt>
      <trkpt lat="39.62495" lon="-7.6516">
        <ele>100.788</ele>
        <time>2019-10-16T19:02:20Z</time>
      </trkpt>
      <trkpt lat="39.62494" lon="-7.65165">
        <ele>100.99</ele>
        <time>2019-10-16T19:02:40Z</time>
      </trkpt>
      <trkpt lat="39.62493" lon="-7.6517">
        <ele>101.281</ele>
        <time>2019-10-16T19:03:00Z</time>
      </trkpt>
      <trkpt lat="39.62492" lon="-7.65176">
        <ele>101.413</ele>
        <time>2019-10-16T19:03:20Z</time>
      </trkpt>
      <trkpt lat="39.6249" lon="-7.65183">
        <ele>101.843</ele>
        <time>2019-10-16T19:03:40Z</time>
      </trkpt>
      <trkpt lat="39.62487" lon="-7.6519">
        <ele>102.242</ele>
        <time>2019-10-16T19:04:00Z</time>
      </trkpt>
      <trkpt lat="39.62484" lon="-7.65198">
        <ele>103.122</ele>
        <time>2019-10-16T19:04:20Z</time>
      </trkpt>
      <trkpt lat="39.62475" lon="-7.65214">
        <ele>106.214</ele>
        <time>2019-10-16T19:04:40Z</time>
      </trkpt>
      <trkpt lat="39.6247" lon="-7.65221">
        <ele>108.008</ele>
        <time>2019-10-16T19:05:00Z</time>
      </trkpt>
      <trkpt lat="39.62463" lon="-7.65227">
        <ele>109.078</ele>
        <time>2019-10-16T19:05:20Z</time>
      </trkpt>
      <trkpt lat="39.62457" lon="-7.6523">
        <ele>109.836</ele>
        <time>2019-10-16T19:05:40Z</time>
      </trkpt>
      <trkpt lat="39.6245" lon="-7.65232">
        <ele>110.688</ele>
        <time>2019-10-16T19:06:00Z</time>
      </trkpt>
      <trkpt lat="39.62442" lon="-7.65233">
        <ele>111.258</ele>
        <time>2019-10-16T19:06:20Z</time>
      </trkpt>
      <trkpt lat="39.62433" lon="-7.65232">
        <ele>111.51</ele>
        <time>2019-10-16T19:06:40Z</time>
      </trkpt>
      <trkpt lat="39.62424" lon="-7.65232">
        <ele>111.871</ele>
        <time>2019-10-16T19:07:00Z</time>
      </trkpt>
      <trkpt lat="39.62415" lon="-7.65232">
        <ele>112.233</ele>
        <time>2019-10-16T19:07:20Z</time>
      </trkpt>
      <trkpt lat="39.62406" lon="-7.65234">
        <ele>112.673</ele>
        <time>2019-10-16T19:07:40Z</time>
      </trkpt>
      <trkpt lat="39.62396" lon="-7.65235">
        <ele>112.988</ele>
        <time>2019-10-16T19:08:00Z</time>
      </trkpt>
      <trkpt lat="39.62358" lon="-7.6523">
        <ele>112.424</ele>
        <time>2019-10-16T19:08:20Z</time>
      </trkpt>
      <trkpt lat="39.62349" lon="-7.65227">
        <ele>112.726</ele>
        <time>2019-10-16T19:08:40Z</time>
      </trkpt>
      <trkpt lat="39.62338" lon="-7.65223">
        <ele>113.008</ele>
        <time>2019-10-16T19:09:00Z</time>
      </trkpt>
      <trkpt lat="39.62317" lon="-7.65211">
        <ele>111.152</ele>
        <time>2019-10-16T19:09:20Z</time>
      </trkpt>
      <trkpt lat="39.62297" lon="-7.65198">
        <ele>111.41</ele>
        <time>2019-10-16T19:09:40Z</time>
      </trkpt>
      <trkpt lat="39.62281" lon="-7.65182">
        <ele>108.472</ele>
        <time>2019-10-16T19:10:00Z</time>
      </trkpt>
      <trkpt lat="39.62272" lon="-7.65174">
        <ele>107.442</ele>
        <time>2019-10-16T19:10:20Z</time>
      </trkpt>
      <trkpt lat="39.62263" lon="-7.65168">
        <ele>107.484</ele>
        <time>2019-10-16T19:10:40Z</time>
      </trkpt>
      <trkpt lat="39.6223" lon="-7.65147">
        <ele>105.845</ele>
        <time>2019-10-16T19:11:00Z</time>
      </trkpt>
      <trkpt lat="39.62224" lon="-7.65142">
        <ele>104.717</ele>
        <time>2019-10-16T19:11:20Z</time>
      </trkpt>
      <trkpt lat="39.6222" lon="-7.65136">
        <ele>103.537</ele>
        <time>2019-10-16T19:11:40Z</time>
      </trkpt>
      <trkpt lat="39.62217" lon="-7.65129">
        <ele>102.033</ele>
        <time>2019-10-16T19:12:00Z</time>
      </trkpt>
      <trkpt lat="39.62214" lon="-7.6512">
        <ele>100.023</ele>
        <time>2019-10-16T19:12:20Z</time>
      </trkpt>
      <trkpt lat="39.62211" lon="-7.65112">
        <ele>97.715</ele>
        <time>2019-10-16T19:12:40Z</time>
      </trkpt>
      <trkpt lat="39.62207" lon="-7.6509">
        <ele>96.808</ele>
        <time>2019-10-16T19:13:00Z</time>
      </trkpt>
      <trkpt lat="39.62207" lon="-7.65077">
        <ele>95.947</ele>
        <time>2019-10-16T19:13:20Z</time>
      </trkpt>
      <trkpt lat="39.62207" lon="-7.65064">
        <ele>95.025</ele>
        <time>2019-10-16T19:13:40Z</time>
      </trkpt>
      <trkpt lat="39.62209" lon="-7.65052">
        <ele>93.867</ele>
        <time>2019-10-16T19:14:00Z</time>
      </trkpt>
      <trkpt lat="39.62211" lon="-7.65042">
        <ele>92.767</ele>
        <time>2019-10-16T19:14:20Z</time>
      </trkpt>
      <trkpt lat="39.62214" lon="-7.65032">
        <ele>91.679</ele>
        <time>2019-10-16T19:14:40Z</time>
      </trkpt>
      <trkpt lat="39.62216" lon="-7.65022">
        <ele>90.64</ele>
        <time>2019-10-16T19:15:00Z</time>
      </trkpt>
      <trkpt lat="39.62225" lon="-7.64992">
        <ele>87.012</ele>
        <time>2019-10-16T19:15:20Z</time>
      </trkpt>
      <trkpt lat="39.62227" lon="-7.64986">
        <ele>85.332</ele>
        <time>2019-10-16T19:15:40Z</time>
      </trkpt>
      <trkpt lat="39.62226" lon="-7.64984">
        <ele>85.278</ele>
        <time>2019-10-16T19:16:00Z</time>
      </trkpt>
      <trkpt lat="39.62226" lon="-7.64983">
        <ele>85.133</ele>
        <time>2019-10-16T19:16:20Z</time>
      </trkpt>
      <trkpt lat="39.62226" lon="-7.64983">
        <ele>85.126</ele>
        <time>2019-10-16T19:16:40Z</time>
      </trkpt>
      <trkpt lat="39.62226" lon="-7.64983">
        <ele>85.108</ele>
        <time>2019-10-16T19:17:00Z</time>
      </trkpt>
      <trkpt lat="39.62225" lon="-7.64983">
        <ele>85.351</ele>
        <time>2019-10-16T19:17:20Z</time>
      </trkpt>
      <trkpt lat="39.62223" lon="-7.64998">
        <ele>88.369</ele>
        <time>2019-10-16T19:17:40Z</time>
      </trkpt>
      <trkpt lat="39.62216" lon="-7.65021">
        <ele>90.711</ele>
        <time>2019-10-16T19:18:00Z</time>
      </trkpt>
      <trkpt lat="39.62213" lon="-7.65036">
        <ele>91.971</ele>
        <time>2019-10-16T19:18:20Z</time>
      </trkpt>
      <trkpt lat="39.62208" lon="-7.65066">
        <ele>94.813</ele>
        <time>2019-10-16T19:18:40Z</time>
      </trkpt>
      <trkpt lat="39.62208" lon="-7.65077">
        <ele>95.434</ele>
        <time>2019-10-16T19:19:00Z</time>
      </trkpt>
      <trkpt lat="39.62208" lon="-7.65088">
        <ele>96.266</ele>
        <time>2019-10-16T19:19:20Z</time>
      </trkpt>
      <trkpt lat="39.6221" lon="-7.65099">
        <ele>96.976</ele>
        <time>2019-10-16T19:19:40Z</time>
      </trkpt>
      <trkpt lat="39.62212" lon="-7.6511">
        <ele>97.297</ele>
        <time>2019-10-16T19:20:00Z</time>
      </trkpt>
      <trkpt lat="39.62214" lon="-7.6512">
        <ele>99.923</ele>
        <time>2019-10-16T19:20:20Z</time>
      </trkpt>
      <trkpt lat="39.62217" lon="-7.6513">
        <ele>102.225</ele>
        <time>2019-10-16T19:20:40Z</time>
      </trkpt>
      <trkpt lat="39.62221" lon="-7.65138">
        <ele>104.108</ele>
        <time>2019-10-16T19:21:00Z</time>
      </trkpt>
      <trkpt lat="39.62225" lon="-7.65144">
        <ele>105.753</ele>
        <time>2019-10-16T19:21:20Z</time>
      </trkpt>
      <trkpt lat="39.62229" lon="-7.65148">
        <ele>106.941</ele>
        <time>2019-10-16T19:21:40Z</time>
      </trkpt>
      <trkpt lat="39.62234" lon="-7.65153">
        <ele>107.883</ele>
        <time>2019-10-16T19:22:00Z</time>
      </trkpt>
      <trkpt lat="39.62241" lon="-7.65158">
        <ele>108.683</ele>
        <time>2019-10-16T19:22:20Z</time>
      </trkpt>
      <trkpt lat="39.62248" lon="-7.65163">
        <ele>108.865</ele>
        <time>2019-10-16T19:22:40Z</time>
      </trkpt>
      <trkpt lat="39.62256" lon="-7.65168">
        <ele>108.816</ele>
        <time>2019-10-16T19:23:00Z</time>
      </trkpt>
      <trkpt lat="39.62273" lon="-7.65177">
        <ele>108.288</ele>
        <time>2019-10-16T19:23:20Z</time>
      </trkpt>
      <trkpt lat="39.62281" lon="-7.65184">
        <ele>108.938</ele>
        <time>2019-10-16T19:23:40Z</time>
      </trkpt>
      <trkpt lat="39.62289" lon="-7.65191">
        <ele>110.581</ele>
        <time>2019-10-16T19:24:00Z</time>
      </trkpt>
      <trkpt lat="39.62307" lon="-7.65206">
        <ele>112.161</ele>
        <time>2019-10-16T19:24:20Z</time>
      </trkpt>
      <trkpt lat="39.62316" lon="-7.65212">
        <ele>111.817</ele>
        <time>2019-10-16T19:24:40Z</time>
      </trkpt>
      <trkpt lat="39.62365" lon="-7.65234">
        <ele>113.808</ele>
        <time>2019-10-16T19:25:00Z</time>
      </trkpt>
      <trkpt lat="39.62401" lon="-7.65236">
        <ele>113.312</ele>
        <time>2019-10-16T19:25:20Z</time>
      </trkpt>
      <trkpt lat="39.62433" lon="-7.65233">
        <ele>111.63</ele>
        <time>2019-10-16T19:25:40Z</time>
      </trkpt>
      <trkpt lat="39.62456" lon="-7.65232">
        <ele>110.192</ele>
        <time>2019-10-16T19:26:00Z</time>
      </trkpt>
      <trkpt lat="39.62463" lon="-7.65231">
        <ele>109.452</ele>
        <time>2019-10-16T19:26:20Z</time>
      </trkpt>
      <trkpt lat="39.62468" lon="-7.65227">
        <ele>108.624</ele>
        <time>2019-10-16T19:26:40Z</time>
      </trkpt>
      <trkpt lat="39.62473" lon="-7.6522">
        <ele>107.625</ele>
        <time>2019-10-16T19:27:00Z</time>
      </trkpt>
      <trkpt lat="39.62478" lon="-7.65213">
        <ele>105.927</ele>
        <time>2019-10-16T19:27:20Z</time>
      </trkpt>
      <trkpt lat="39.62481" lon="-7.65205">
        <ele>104.377</ele>
        <time>2019-10-16T19:27:40Z</time>
      </trkpt>
      <trkpt lat="39.62485" lon="-7.65197">
        <ele>102.963</ele>
        <time>2019-10-16T19:28:00Z</time>
      </trkpt>
      <trkpt lat="39.62496" lon="-7.65165">
        <ele>100.944</ele>
        <time>2019-10-16T19:28:20Z</time>
      </trkpt>
      <trkpt lat="39.62497" lon="-7.6516">
        <ele>100.718</ele>
        <time>2019-10-16T19:28:40Z</time>
      </trkpt>
      <trkpt lat="39.62499" lon="-7.65157">
        <ele>100.608</ele>
        <time>2019-10-16T19:29:00Z</time>
      </trkpt>
      <trkpt lat="39.625" lon="-7.65157">
        <ele>100.73</ele>
        <time>2019-10-16T19:29:20Z</time>
      </trkpt>
      <trkpt lat="39.62502" lon="-7.65158">
        <ele>100.768</ele>
        <time>2019-10-16T19:29:40Z</time>
      </trkpt>
      <trkpt lat="39.62503" lon="-7.65163">
        <ele>100.97</ele>
        <time>2019-10-16T19:30:00Z</time>
      </trkpt>
      <trkpt lat="39.62503" lon="-7.65168">
        <ele>101.01</ele>
        <time>2019-10-16T19:30:20Z</time>
      </trkpt>
      <trkpt lat="39.62502" lon="-7.65175">
        <ele>101.352</ele>
        <time>2019-10-16T19:30:40Z</time>
      </trkpt>
      <trkpt lat="39.62496" lon="-7.65217">
        <ele>104.773</ele>
        <time>2019-10-16T19:31:00Z</time>
      </trkpt>
      <trkpt lat="39.62492" lon="-7.65235">
        <ele>107.245</ele>
        <time>2019-10-16T19:31:20Z</time>
      </trkpt>
      <trkpt lat="39.62485" lon="-7.65259">
        <ele>108.695</ele>
        <time>2019-10-16T19:31:40Z</time>
      </trkpt>
      <trkpt lat="39.62482" lon="-7.65285">
        <ele>107.718</ele>
        <time>2019-10-16T19:32:00Z</time>
      </trkpt>
      <trkpt lat="39.62484" lon="-7.65286">
        <ele>107.698</ele>
        <time>2019-10-16T19:32:20Z</time>
      </trkpt>
      <trkpt lat="39.62486" lon="-7.65286">
        <ele>107.517</ele>
        <time>2019-10-16T19:32:40Z</time>
      </trkpt>
      <trkpt lat="39.62488" lon="-7.65285">
        <ele>107.408</ele>
        <time>2019-10-16T19:33:00Z</time>
      </trkpt>
      <trkpt lat="39.62491" lon="-7.65282">
        <ele>107.315</ele>
        <time>2019-10-16T19:33:20Z</time>
      </trkpt>
      <trkpt lat="39.62494" lon="-7.65276">
        <ele>107.323</ele>
        <time>2019-10-16T19:33:40Z</time>
      </trkpt>
      <trkpt lat="39.62499" lon="-7.65267">
        <ele>107.435</ele>
        <time>2019-10-16T19:34:00Z</time>
      </trkpt>
      <trkpt lat="39.62526" lon="-7.65231">
        <ele>108.245</ele>
        <time>2019-10-16T19:34:20Z</time>
      </trkpt>
      <trkpt lat="39.62531" lon="-7.65226">
        <ele>108.237</ele>
        <time>2019-10-16T19:34:40Z</time>
      </trkpt>
      <trkpt lat="39.62541" lon="-7.65218">
        <ele>107.988</ele>
        <time>2019-10-16T19:35:00Z</time>
      </trkpt>
      <trkpt lat="39.62545" lon="-7.65214">
        <ele>107.41</ele>
        <time>2019-10-16T19:35:20Z</time>
      </trkpt>
      <trkpt lat="39.62548" lon="-7.6521">
        <ele>107.01</ele>
        <time>2019-10-16T19:35:40Z</time>
      </trkpt>
      <trkpt lat="39.62552" lon="-7.65208">
        <ele>106.961</ele>
        <time>2019-10-16T19:36:00Z</time>
      </trkpt>
      <trkpt lat="39.62557" lon="-7.65207">
        <ele>107.321</ele>
        <time>2019-10-16T19:36:20Z</time>
      </trkpt>
      <trkpt lat="39.62562" lon="-7.65207">
        <ele>108.013</ele>
        <time>2019-10-16T19:36:40Z</time>
      </trkpt>
      <trkpt lat="39.62569" lon="-7.65208">
        <ele>109.108</ele>
        <time>2019-10-16T19:37:00Z</time>
      </trkpt>
      <trkpt lat="39.62576" lon="-7.6521">
        <ele>110.75</ele>
        <time>2019-10-16T19:37:20Z</time>
      </trkpt>
      <trkpt lat="39.62584" lon="-7.65211">
        <ele>112.218</ele>
        <time>2019-10-16T19:37:40Z</time>
      </trkpt>
      <trkpt lat="39.62592" lon="-7.65211">
        <ele>112.75</ele>
        <time>2019-10-16T19:38:00Z</time>
      </trkpt>
      <trkpt lat="39.62619" lon="-7.65209">
        <ele>113.06</ele>
        <time>2019-10-16T19:38:20Z</time>
      </trkpt>
      <trkpt lat="39.62623" lon="-7.65211">
        <ele>113.072</ele>
        <time>2019-10-16T19:38:40Z</time>
      </trkpt>
      <trkpt lat="39.62626" lon="-7.65212">
        <ele>112.933</ele>
        <time>2019-10-16T19:39:00Z</time>
      </trkpt>
      <trkpt lat="39.62623" lon="-7.65215">
        <ele>113.945</ele>
        <time>2019-10-16T19:39:20Z</time>
      </trkpt>
      <trkpt lat="39.62623" lon="-7.65212">
        <ele>113.215</ele>
        <time>2019-10-16T19:39:40Z</time>
      </trkpt>
      <trkpt lat="39.62623" lon="-7.65214">
        <ele>113.892</ele>
        <time>2019-10-16T19:40:00Z</time>
      </trkpt>
      <trkpt lat="39.62625" lon="-7.65211">
        <ele>113.073</ele>
        <time>2019-10-16T19:40:20Z</time>
      </trkpt>
      <trkpt lat="39.62624" lon="-7.65213">
        <ele>113.52</ele>
        <time>2019-10-16T19:40:40Z</time>
      </trkpt>
      <trkpt lat="39.62624" lon="-7.65212">
        <ele>113.108</ele>
        <time>2019-10-16T19:41:00Z</time>
      </trkpt>
      <trkpt lat="39.62624" lon="-7.65212">
        <ele>113.113</ele>
        <time>2019-10-16T19:41:20Z</time>
      </trkpt>
      <trkpt lat="39.62624" lon="-7.65213">
        <ele>113.671</ele>
        <time>2019-10-16T19:41:40Z</time>
      </trkpt>
      <trkpt lat="39.62624" lon="-7.65213">
        <ele>113.343</ele>
        <time>2019-10-16T19:42:00Z</time>
      </trkpt>
      <trkpt lat="39.62624" lon="-7.65212">
        <ele>113.293</ele>
        <time>2019-10-16T19:42:20Z</time>
      </trkpt>
      <trkpt lat="39.62623" lon="-7.65211">
        <ele>113.255</ele>
        <time>2019-10-16T19:42:40Z</time>
      </trkpt>
      <trkpt lat="39.62623" lon="-7.65211">
        <ele>113.126</ele>
        <time>2019-10-16T19:43:00Z</time>
      </trkpt>
      <trkpt lat="39.62627" lon="-7.65214">
        <ele>113.418</ele>
        <time>2019-10-16T19:43:20Z</time>
      </trkpt>
      <trkpt lat="39.62631" lon="-7.65217">
        <ele>113.468</ele>
        <time>2019-10-16T19:43:40Z</time>
      </trkpt>
      <trkpt lat="39.62637" lon="-7.6522">
        <ele>113.075</ele>
        <time>2019-10-16T19:44:00Z</time>
      </trkpt>
      <trkpt lat="39.62644" lon="-7.65223">
        <ele>111.928</ele>
        <time>2019-10-16T19:44:20Z</time>
      </trkpt>
      <trkpt lat="39.62698" lon="-7.65246">
        <ele>104.52</ele>
        <time>2019-10-16T19:44:40Z</time>
      </trkpt>
      <trkpt lat="39.62708" lon="-7.65249">
        <ele>104.908</ele>
        <time>2019-10-16T19:45:00Z</time>
      </trkpt>
      <trkpt lat="39.62732" lon="-7.6526">
        <ele>102.531</ele>
        <time>2019-10-16T19:45:20Z</time>
      </trkpt>
      <trkpt lat="39.62738" lon="-7.65266">
        <ele>101.749</ele>
        <time>2019-10-16T19:45:40Z</time>
      </trkpt>
      <trkpt lat="39.62743" lon="-7.65273">
        <ele>101.331</ele>
        <time>2019-10-16T19:46:00Z</time>
      </trkpt>
      <trkpt lat="39.62745" lon="-7.65281">
        <ele>101.471</ele>
        <time>2019-10-16T19:46:20Z</time>
      </trkpt>
      <trkpt lat="39.62746" lon="-7.6529">
        <ele>102.193</ele>
        <time>2019-10-16T19:46:40Z</time>
      </trkpt>
      <trkpt lat="39.62745" lon="-7.65298">
        <ele>103.154</ele>
        <time>2019-10-16T19:47:00Z</time>
      </trkpt>
      <trkpt lat="39.62745" lon="-7.65305">
        <ele>103.876</ele>
        <time>2019-10-16T19:47:20Z</time>
      </trkpt>
      <trkpt lat="39.62746" lon="-7.65309">
        <ele>104.266</ele>
        <time>2019-10-16T19:47:40Z</time>
      </trkpt>
      <trkpt lat="39.62748" lon="-7.65312">
        <ele>104.178</ele>
        <time>2019-10-16T19:48:00Z</time>
      </trkpt>
      <trkpt lat="39.62751" lon="-7.65314">
        <ele>103.733</ele>
        <time>2019-10-16T19:48:20Z</time>
      </trkpt>
      <trkpt lat="39.62753" lon="-7.65314">
        <ele>103.326</ele>
        <time>2019-10-16T19:48:40Z</time>
      </trkpt>
      <trkpt lat="39.62768" lon="-7.65313">
        <ele>101.208</ele>
        <time>2019-10-16T19:49:00Z</time>
      </trkpt>
      <trkpt lat="39.62774" lon="-7.65315">
        <ele>100.561</ele>
        <time>2019-10-16T19:49:20Z</time>
      </trkpt>
      <trkpt lat="39.62786" lon="-7.65319">
        <ele>100.099</ele>
        <time>2019-10-16T19:49:40Z</time>
      </trkpt>
      <trkpt lat="39.62792" lon="-7.65323">
        <ele>100.321</ele>
        <time>2019-10-16T19:50:00Z</time>
      </trkpt>
      <trkpt lat="39.62798" lon="-7.65329">
        <ele>100.731</ele>
        <time>2019-10-16T19:50:20Z</time>
      </trkpt>
      <trkpt lat="39.62818" lon="-7.65346">
        <ele>99.493</ele>
        <time>2019-10-16T19:50:40Z</time>
      </trkpt>
      <trkpt lat="39.62823" lon="-7.65353">
        <ele>98.424</ele>
        <time>2019-10-16T19:51:00Z</time>
      </trkpt>
      <trkpt lat="39.62829" lon="-7.65361">
        <ele>97.426</ele>
        <time>2019-10-16T19:51:20Z</time>
      </trkpt>
      <trkpt lat="39.62834" lon="-7.65368">
        <ele>96.286</ele>
        <time>2019-10-16T19:51:40Z</time>
      </trkpt>
      <trkpt lat="39.62837" lon="-7.65375">
        <ele>95.868</ele>
        <time>2019-10-16T19:52:00Z</time>
      </trkpt>
      <trkpt lat="39.62838" lon="-7.65383">
        <ele>95.842</ele>
        <time>2019-10-16T19:52:20Z</time>
      </trkpt>
      <trkpt lat="39.62838" lon="-7.65391">
        <ele>96.126</ele>
        <time>2019-10-16T19:52:40Z</time>
      </trkpt>
      <trkpt lat="39.62837" lon="-7.654">
        <ele>96.608</ele>
        <time>2019-10-16T19:53:00Z</time>
      </trkpt>
      <trkpt lat="39.62837" lon="-7.65408">
        <ele>97.15</ele>
        <time>2019-10-16T19:53:20Z</time>
      </trkpt>
      <trkpt lat="39.62837" lon="-7.65413">
        <ele>97.128</ele>
        <time>2019-10-16T19:53:40Z</time>
      </trkpt>
      <trkpt lat="39.6284" lon="-7.65417">
        <ele>96.86</ele>
        <time>2019-10-16T19:54:00Z</time>
      </trkpt>
      <trkpt lat="39.62845" lon="-7.65418">
        <ele>96.14</ele>
        <time>2019-10-16T19:54:20Z</time>
      </trkpt>
      <trkpt lat="39.62851" lon="-7.65418">
        <ele>94.952</ele>
        <time>2019-10-16T19:54:40Z</time>
      </trkpt>
      <trkpt lat="39.62858" lon="-7.65419">
        <ele>93.963</ele>
        <time>2019-10-16T19:55:00Z</time>
      </trkpt>
      <trkpt lat="39.62864" lon="-7.65422">
        <ele>93.335</ele>
        <time>2019-10-16T19:55:20Z</time>
      </trkpt>
      <trkpt lat="39.6287" lon="-7.65428">
        <ele>93.215</ele>
        <time>2019-10-16T19:55:40Z</time>
      </trkpt>
      <trkpt lat="39.62876" lon="-7.65436">
        <ele>93.339</ele>
        <time>2019-10-16T19:56:00Z</time>
      </trkpt>
      <trkpt lat="39.62883" lon="-7.65446">
        <ele>93.201</ele>
        <time>2019-10-16T19:56:20Z</time>
      </trkpt>
      <trkpt lat="39.6289" lon="-7.65456">
        <ele>92.721</ele>
        <time>2019-10-16T19:56:40Z</time>
      </trkpt>
      <trkpt lat="39.62896" lon="-7.65464">
        <ele>91.708</ele>
        <time>2019-10-16T19:57:00Z</time>
      </trkpt>
      <trkpt lat="39.629" lon="-7.65471">
        <ele>91.437</ele>
        <time>2019-10-16T19:57:20Z</time>
      </trkpt>
      <trkpt lat="39.62902" lon="-7.65477">
        <ele>91.215</ele>
        <time>2019-10-16T19:57:40Z</time>
      </trkpt>
      <trkpt lat="39.62904" lon="-7.65485">
        <ele>91.617</ele>
        <time>2019-10-16T19:58:00Z</time>
      </trkpt>
      <trkpt lat="39.62904" lon="-7.65492">
        <ele>92.457</ele>
        <time>2019-10-16T19:58:20Z</time>
      </trkpt>
      <trkpt lat="39.62903" lon="-7.65499">
        <ele>93.279</ele>
        <time>2019-10-16T19:58:40Z</time>
      </trkpt>
      <trkpt lat="39.62904" lon="-7.65503">
        <ele>93.53</ele>
        <time>2019-10-16T19:59:00Z</time>
      </trkpt>
      <trkpt lat="39.62906" lon="-7.65506">
        <ele>93.442</ele>
        <time>2019-10-16T19:59:20Z</time>
      </trkpt>
      <trkpt lat="39.62908" lon="-7.65508">
        <ele>93.092</ele>
        <time>2019-10-16T19:59:40Z</time>
      </trkpt>
      <trkpt lat="39.62912" lon="-7.65511">
        <ele>92.372</ele>
        <time>2019-10-16T20:00:00Z</time>
      </trkpt>
      <trkpt lat="39.62917" lon="-7.65512">
        <ele>91.213</ele>
        <time>2019-10-16T20:00:20Z</time>
      </trkpt>
      <trkpt lat="39.62922" lon="-7.65512">
        <ele>90.914</ele>
        <time>2019-10-16T20:00:40Z</time>
      </trkpt>
      <trkpt lat="39.62928" lon="-7.65514">
        <ele>90.708</ele>
        <time>2019-10-16T20:01:00Z</time>
      </trkpt>
      <trkpt lat="39.62933" lon="-7.65517">
        <ele>90.791</ele>
        <time>2019-10-16T20:01:20Z</time>
      </trkpt>
      <trkpt lat="39.62937" lon="-7.65523">
        <ele>91.049</ele>
        <time>2019-10-16T20:01:40Z</time>
      </trkpt>
      <trkpt lat="39.62942" lon="-7.6553">
        <ele>91.441</ele>
        <time>2019-10-16T20:02:00Z</time>
      </trkpt>
      <trkpt lat="39.62946" lon="-7.65538">
        <ele>91.931</ele>
        <time>2019-10-16T20:02:20Z</time>
      </trkpt>
      <trkpt lat="39.62951" lon="-7.65549">
        <ele>92.533</ele>
        <time>2019-10-16T20:02:40Z</time>
      </trkpt>
      <trkpt lat="39.62968" lon="-7.65593">
        <ele>96.624</ele>
        <time>2019-10-16T20:03:00Z</time>
      </trkpt>
      <trkpt lat="39.62973" lon="-7.65602">
        <ele>96.456</ele>
        <time>2019-10-16T20:03:20Z</time>
      </trkpt>
      <trkpt lat="39.6298" lon="-7.65611">
        <ele>95.676</ele>
        <time>2019-10-16T20:03:40Z</time>
      </trkpt>
      <trkpt lat="39.63037" lon="-7.65684">
        <ele>91.964</ele>
        <time>2019-10-16T20:04:00Z</time>
      </trkpt>
      <trkpt lat="39.6305" lon="-7.65702">
        <ele>90.706</ele>
        <time>2019-10-16T20:04:20Z</time>
      </trkpt>
      <trkpt lat="39.63058" lon="-7.65714">
        <ele>89.016</ele>
        <time>2019-10-16T20:04:40Z</time>
      </trkpt>
      <trkpt lat="39.6306" lon="-7.65718">
        <ele>88.408</ele>
        <time>2019-10-16T20:05:00Z</time>
      </trkpt>
      <trkpt lat="39.63061" lon="-7.65721">
        <ele>88.06</ele>
        <time>2019-10-16T20:05:20Z</time>
      </trkpt>
      <trkpt lat="39.63057" lon="-7.65741">
        <ele>91.258</ele>
        <time>2019-10-16T20:05:40Z</time>
      </trkpt>
      <trkpt lat="39.63033" lon="-7.65773">
        <ele>96.71</ele>
        <time>2019-10-16T20:06:00Z</time>
      </trkpt>
      <trkpt lat="39.6303" lon="-7.65778">
        <ele>97.07</ele>
        <time>2019-10-16T20:06:20Z</time>
      </trkpt>
      <trkpt lat="39.63028" lon="-7.65784">
        <ele>97.752</ele>
        <time>2019-10-16T20:06:40Z</time>
      </trkpt>
      <trkpt lat="39.63029" lon="-7.65789">
        <ele>98.263</ele>
        <time>2019-10-16T20:07:00Z</time>
      </trkpt>
      <trkpt lat="39.63031" lon="-7.65792">
        <ele>98.585</ele>
        <time>2019-10-16T20:07:20Z</time>
      </trkpt>
      <trkpt lat="39.63034" lon="-7.65793">
        <ele>98.745</ele>
        <time>2019-10-16T20:07:40Z</time>
      </trkpt>
      <trkpt lat="39.63038" lon="-7.65793">
        <ele>98.794</ele>
        <time>2019-10-16T20:08:00Z</time>
      </trkpt>
      <trkpt lat="39.63043" lon="-7.65793">
        <ele>98.657</ele>
        <time>2019-10-16T20:08:20Z</time>
      </trkpt>
      <trkpt lat="39.63049" lon="-7.65792">
        <ele>98.622</ele>
        <time>2019-10-16T20:08:40Z</time>
      </trkpt>
      <trkpt lat="39.63053" lon="-7.65793">
        <ele>98.708</ele>
        <time>2019-10-16T20:09:00Z</time>
      </trkpt>
      <trkpt lat="39.63056" lon="-7.65794">
        <ele>98.823</ele>
        <time>2019-10-16T20:09:20Z</time>
      </trkpt>
      <trkpt lat="39.63077" lon="-7.65795">
        <ele>95.891</ele>
        <time>2019-10-16T20:09:40Z</time>
      </trkpt>
      <trkpt lat="39.63082" lon="-7.65796">
        <ele>95.423</ele>
        <time>2019-10-16T20:10:00Z</time>
      </trkpt>
      <trkpt lat="39.63086" lon="-7.65798">
        <ele>93.733</ele>
        <time>2019-10-16T20:10:20Z</time>
      </trkpt>
      <trkpt lat="39.63091" lon="-7.65801">
        <ele>91.365</ele>
        <time>2019-10-16T20:10:40Z</time>
      </trkpt>
      <trkpt lat="39.63096" lon="-7.65806">
        <ele>88.526</ele>
        <time>2019-10-16T20:11:00Z</time>
      </trkpt>
      <trkpt lat="39.63103" lon="-7.65813">
        <ele>87.218</ele>
        <time>2019-10-16T20:11:20Z</time>
      </trkpt>
      <trkpt lat="39.63138" lon="-7.65848">
        <ele>84.898</ele>
        <time>2019-10-16T20:11:40Z</time>
      </trkpt>
      <trkpt lat="39.63144" lon="-7.65856">
        <ele>86.391</ele>
        <time>2019-10-16T20:12:00Z</time>
      </trkpt>
      <trkpt lat="39.63149" lon="-7.65863">
        <ele>86.381</ele>
        <time>2019-10-16T20:12:20Z</time>
      </trkpt>
      <trkpt lat="39.6318" lon="-7.65904">
        <ele>89.319</ele>
        <time>2019-10-16T20:12:40Z</time>
      </trkpt>
      <trkpt lat="39.63187" lon="-7.65912">
        <ele>90.108</ele>
        <time>2019-10-16T20:13:00Z</time>
      </trkpt>
      <trkpt lat="39.63228" lon="-7.65962">
        <ele>88.453</ele>
        <time>2019-10-16T20:13:20Z</time>
      </trkpt>
      <trkpt lat="39.63313" lon="-7.66075">
        <ele>88.651</ele>
        <time>2019-10-16T20:13:40Z</time>
      </trkpt>
      <trkpt lat="39.6332" lon="-7.66083">
        <ele>88.263</ele>
        <time>2019-10-16T20:14:00Z</time>
      </trkpt>
      <trkpt lat="39.63328" lon="-7.6609">
        <ele>88.043</ele>
        <time>2019-10-16T20:14:20Z</time>
      </trkpt>
      <trkpt lat="39.63337" lon="-7.66097">
        <ele>87.795</ele>
        <time>2019-10-16T20:14:40Z</time>
      </trkpt>
      <trkpt lat="39.63407" lon="-7.66163">
        <ele>90.816</ele>
        <time>2019-10-16T20:15:00Z</time>
      </trkpt>
      <trkpt lat="39.63436" lon="-7.66189">
        <ele>89.638</ele>
        <time>2019-10-16T20:15:20Z</time>
      </trkpt>
      <trkpt lat="39.63445" lon="-7.66196">
        <ele>89.378</ele>
        <time>2019-10-16T20:15:40Z</time>
      </trkpt>
      <trkpt lat="39.63453" lon="-7.662">
        <ele>89.245</ele>
        <time>2019-10-16T20:16:00Z</time>
      </trkpt>
      <trkpt lat="39.6346" lon="-7.66202">
        <ele>88.847</ele>
        <time>2019-10-16T20:16:20Z</time>
      </trkpt>
      <trkpt lat="39.63466" lon="-7.66205">
        <ele>88.611</ele>
        <time>2019-10-16T20:16:40Z</time>
      </trkpt>
      <trkpt lat="39.63472" lon="-7.6621">
        <ele>88.808</ele>
        <time>2019-10-16T20:17:00Z</time>
      </trkpt>
      <trkpt lat="39.63492" lon="-7.66236">
        <ele>91.128</ele>
        <time>2019-10-16T20:17:20Z</time>
      </trkpt>
      <trkpt lat="39.63529" lon="-7.66287">
        <ele>96.516</ele>
        <time>2019-10-16T20:17:40Z</time>
      </trkpt>
      <trkpt lat="39.63537" lon="-7.66292">
        <ele>96.278</ele>
        <time>2019-10-16T20:18:00Z</time>
      </trkpt>
      <trkpt lat="39.63573" lon="-7.66318">
        <ele>94.548</ele>
        <time>2019-10-16T20:18:20Z</time>
      </trkpt>
      <trkpt lat="39.636" lon="-7.6633">
        <ele>91.58</ele>
        <time>2019-10-16T20:18:40Z</time>
      </trkpt>
      <trkpt lat="39.63605" lon="-7.66334">
        <ele>91.921</ele>
        <time>2019-10-16T20:19:00Z</time>
      </trkpt>
      <trkpt lat="39.63669" lon="-7.66393">
        <ele>86.843</ele>
        <time>2019-10-16T20:19:20Z</time>
      </trkpt>
      <trkpt lat="39.6369" lon="-7.66412">
        <ele>86.593</ele>
        <time>2019-10-16T20:19:40Z</time>
      </trkpt>
      <trkpt lat="39.63696" lon="-7.66419">
        <ele>86.543</ele>
        <time>2019-10-16T20:20:00Z</time>
      </trkpt>
      <trkpt lat="39.63703" lon="-7.66427">
        <ele>87.764</ele>
        <time>2019-10-16T20:20:20Z</time>
      </trkpt>
      <trkpt lat="39.63711" lon="-7.66435">
        <ele>88.81</ele>
        <time>2019-10-16T20:20:40Z</time>
      </trkpt>
      <trkpt lat="39.6372" lon="-7.66442">
        <ele>89.708</ele>
        <time>2019-10-16T20:21:00Z</time>
      </trkpt>
      <trkpt lat="39.63728" lon="-7.66448">
        <ele>90.378</ele>
        <time>2019-10-16T20:21:20Z</time>
      </trkpt>
      <trkpt lat="39.63736" lon="-7.66452">
        <ele>90.356</ele>
        <time>2019-10-16T20:21:40Z</time>
      </trkpt>
      <trkpt lat="39.63756" lon="-7.66461">
        <ele>89.228</ele>
        <time>2019-10-16T20:22:00Z</time>
      </trkpt>
      <trkpt lat="39.63763" lon="-7.66465">
        <ele>89.058</ele>
        <time>2019-10-16T20:22:20Z</time>
      </trkpt>
      <trkpt lat="39.63778" lon="-7.66477">
        <ele>89.15</ele>
        <time>2019-10-16T20:22:40Z</time>
      </trkpt>
      <trkpt lat="39.63785" lon="-7.66485">
        <ele>89.491</ele>
        <time>2019-10-16T20:23:00Z</time>
      </trkpt>
      <trkpt lat="39.63792" lon="-7.66494">
        <ele>90.133</ele>
        <time>2019-10-16T20:23:20Z</time>
      </trkpt>
      <trkpt lat="39.63798" lon="-7.66503">
        <ele>90.943</ele>
        <time>2019-10-16T20:23:40Z</time>
      </trkpt>
      <trkpt lat="39.63805" lon="-7.6651">
        <ele>91.359</ele>
        <time>2019-10-16T20:24:00Z</time>
      </trkpt>
      <trkpt lat="39.63813" lon="-7.66517">
        <ele>91.603</ele>
        <time>2019-10-16T20:24:20Z</time>
      </trkpt>
      <trkpt lat="39.63822" lon="-7.66521">
        <ele>91.323</ele>
        <time>2019-10-16T20:24:40Z</time>
      </trkpt>
      <trkpt lat="39.63831" lon="-7.66526">
        <ele>91.008</ele>
        <time>2019-10-16T20:25:00Z</time>
      </trkpt>
      <trkpt lat="39.63839" lon="-7.66531">
        <ele>90.919</ele>
        <time>2019-10-16T20:25:20Z</time>
      </trkpt>
      <trkpt lat="39.63847" lon="-7.66537">
        <ele>91.197</ele>
        <time>2019-10-16T20:25:40Z</time>
      </trkpt>
      <trkpt lat="39.63854" lon="-7.66543">
        <ele>91.339</ele>
        <time>2019-10-16T20:26:00Z</time>
      </trkpt>
      <trkpt lat="39.63862" lon="-7.66549">
        <ele>91.229</ele>
        <time>2019-10-16T20:26:20Z</time>
      </trkpt>
      <trkpt lat="39.6387" lon="-7.66553">
        <ele>91.461</ele>
        <time>2019-10-16T20:26:40Z</time>
      </trkpt>
      <trkpt lat="39.63879" lon="-7.66557">
        <ele>91.592</ele>
        <time>2019-10-16T20:27:00Z</time>
      </trkpt>
      <trkpt lat="39.63956" lon="-7.66605">
        <ele>90.464</ele>
        <time>2019-10-16T20:27:20Z</time>
      </trkpt>
      <trkpt lat="39.6397" lon="-7.66615">
        <ele>91.394</ele>
        <time>2019-10-16T20:27:40Z</time>
      </trkpt>
      <trkpt lat="39.63977" lon="-7.66618">
        <ele>91.341</ele>
        <time>2019-10-16T20:28:00Z</time>
      </trkpt>
      <trkpt lat="39.63984" lon="-7.66621">
        <ele>91.081</ele>
        <time>2019-10-16T20:28:20Z</time>
      </trkpt>
      <trkpt lat="39.63991" lon="-7.66623">
        <ele>90.609</ele>
        <time>2019-10-16T20:28:40Z</time>
      </trkpt>
      <trkpt lat="39.63998" lon="-7.66627">
        <ele>90.308</ele>
        <time>2019-10-16T20:29:00Z</time>
      </trkpt>
      <trkpt lat="39.64005" lon="-7.66632">
        <ele>90.578</ele>
        <time>2019-10-16T20:29:20Z</time>
      </trkpt>
      <trkpt lat="39.64012" lon="-7.66637">
        <ele>90.916</ele>
        <time>2019-10-16T20:29:40Z</time>
      </trkpt>
      <trkpt lat="39.64018" lon="-7.66644">
        <ele>91.258</ele>
        <time>2019-10-16T20:30:00Z</time>
      </trkpt>
      <trkpt lat="39.64024" lon="-7.66651">
        <ele>91.358</ele>
        <time>2019-10-16T20:30:20Z</time>
      </trkpt>
      <trkpt lat="39.6403" lon="-7.66656">
        <ele>91.44</ele>
        <time>2019-10-16T20:30:40Z</time>
      </trkpt>
      <trkpt lat="39.64037" lon="-7.6666">
        <ele>91.731</ele>
        <time>2019-10-16T20:31:00Z</time>
      </trkpt>
      <trkpt lat="39.64044" lon="-7.66664">
        <ele>92.063</ele>
        <time>2019-10-16T20:31:20Z</time>
      </trkpt>
      <trkpt lat="39.6405" lon="-7.66668">
        <ele>92.533</ele>
        <time>2019-10-16T20:31:40Z</time>
      </trkpt>
      <trkpt lat="39.64056" lon="-7.66674">
        <ele>93.395</ele>
        <time>2019-10-16T20:32:00Z</time>
      </trkpt>
      <trkpt lat="39.64061" lon="-7.6668">
        <ele>94.349</ele>
        <time>2019-10-16T20:32:20Z</time>
      </trkpt>
      <trkpt lat="39.64066" lon="-7.66687">
        <ele>95.423</ele>
        <time>2019-10-16T20:32:40Z</time>
      </trkpt>
      <trkpt lat="39.64076" lon="-7.66701">
        <ele>97.808</ele>
        <time>2019-10-16T20:33:00Z</time>
      </trkpt>
      <trkpt lat="39.64081" lon="-7.66707">
        <ele>98.883</ele>
        <time>2019-10-16T20:33:20Z</time>
      </trkpt>
      <trkpt lat="39.64083" lon="-7.6671">
        <ele>99.471</ele>
        <time>2019-10-16T20:33:40Z</time>
      </trkpt>
      <trkpt lat="39.64085" lon="-7.66714">
        <ele>100.033</ele>
        <time>2019-10-16T20:34:00Z</time>
      </trkpt>
      <trkpt lat="39.64086" lon="-7.66718">
        <ele>100.893</ele>
        <time>2019-10-16T20:34:20Z</time>
      </trkpt>
      <trkpt lat="39.64087" lon="-7.66723">
        <ele>101.785</ele>
        <time>2019-10-16T20:34:40Z</time>
      </trkpt>
      <trkpt lat="39.64088" lon="-7.66729">
        <ele>103.026</ele>
        <time>2019-10-16T20:35:00Z</time>
      </trkpt>
      <trkpt lat="39.6409" lon="-7.66736">
        <ele>104.578</ele>
        <time>2019-10-16T20:35:20Z</time>
      </trkpt>
      <trkpt lat="39.64093" lon="-7.66743">
        <ele>105.788</ele>
        <time>2019-10-16T20:35:40Z</time>
      </trkpt>
      <trkpt lat="39.64097" lon="-7.66749">
        <ele>106.481</ele>
        <time>2019-10-16T20:36:00Z</time>
      </trkpt>
      <trkpt lat="39.64101" lon="-7.66754">
        <ele>107.161</ele>
        <time>2019-10-16T20:36:20Z</time>
      </trkpt>
      <trkpt lat="39.64106" lon="-7.66758">
        <ele>107.417</ele>
        <time>2019-10-16T20:36:40Z</time>
      </trkpt>
      <trkpt lat="39.64111" lon="-7.66762">
        <ele>107.508</ele>
        <time>2019-10-16T20:37:00Z</time>
      </trkpt>
      <trkpt lat="39.64116" lon="-7.66767">
        <ele>108.182</ele>
        <time>2019-10-16T20:37:20Z</time>
      </trkpt>
      <trkpt lat="39.64141" lon="-7.66792">
        <ele>109.49</ele>
        <time>2019-10-16T20:37:40Z</time>
      </trkpt>
      <trkpt lat="39.64167" lon="-7.66823">
        <ele>115.142</ele>
        <time>2019-10-16T20:38:00Z</time>
      </trkpt>
      <trkpt lat="39.64174" lon="-7.66829">
        <ele>116.242</ele>
        <time>2019-10-16T20:38:20Z</time>
      </trkpt>
      <trkpt lat="39.64181" lon="-7.66834">
        <ele>117.254</ele>
        <time>2019-10-16T20:38:40Z</time>
      </trkpt>
      <trkpt lat="39.64204" lon="-7.66853">
        <ele>120.275</ele>
        <time>2019-10-16T20:39:00Z</time>
      </trkpt>
      <trkpt lat="39.64229" lon="-7.66873">
        <ele>123.097</ele>
        <time>2019-10-16T20:39:20Z</time>
      </trkpt>
      <trkpt lat="39.64238" lon="-7.66881">
        <ele>124.987</ele>
        <time>2019-10-16T20:39:40Z</time>
      </trkpt>
      <trkpt lat="39.64255" lon="-7.66898">
        <ele>127.745</ele>
        <time>2019-10-16T20:40:00Z</time>
      </trkpt>
      <trkpt lat="39.64263" lon="-7.66904">
        <ele>127.247</ele>
        <time>2019-10-16T20:40:20Z</time>
      </trkpt>
      <trkpt lat="39.64271" lon="-7.66909">
        <ele>126.611</ele>
        <time>2019-10-16T20:40:40Z</time>
      </trkpt>
      <trkpt lat="39.6428" lon="-7.66916">
        <ele>126.208</ele>
        <time>2019-10-16T20:41:00Z</time>
      </trkpt>
      <trkpt lat="39.64287" lon="-7.66922">
        <ele>125.868</ele>
        <time>2019-10-16T20:41:20Z</time>
      </trkpt>
      <trkpt lat="39.64292" lon="-7.66927">
        <ele>125.776</ele>
        <time>2019-10-16T20:41:40Z</time>
      </trkpt>
      <trkpt lat="39.64295" lon="-7.66934">
        <ele>126.248</ele>
        <time>2019-10-16T20:42:00Z</time>
      </trkpt>
      <trkpt lat="39.64299" lon="-7.66942">
        <ele>127.458</ele>
        <time>2019-10-16T20:42:20Z</time>
      </trkpt>
      <trkpt lat="39.64301" lon="-7.66952">
        <ele>129.57</ele>
        <time>2019-10-16T20:42:40Z</time>
      </trkpt>
      <trkpt lat="39.64302" lon="-7.66961">
        <ele>131.751</ele>
        <time>2019-10-16T20:43:00Z</time>
      </trkpt>
      <trkpt lat="39.64304" lon="-7.66968">
        <ele>133.323</ele>
        <time>2019-10-16T20:43:20Z</time>
      </trkpt>
      <trkpt lat="39.64308" lon="-7.66974">
        <ele>133.853</ele>
        <time>2019-10-16T20:43:40Z</time>
      </trkpt>
      <trkpt lat="39.64314" lon="-7.66978">
        <ele>133.317</ele>
        <time>2019-10-16T20:44:00Z</time>
      </trkpt>
      <trkpt lat="39.64321" lon="-7.6698">
        <ele>132.087</ele>
        <time>2019-10-16T20:44:20Z</time>
      </trkpt>
      <trkpt lat="39.64329" lon="-7.66982">
        <ele>130.315</ele>
        <time>2019-10-16T20:44:40Z</time>
      </trkpt>
      <trkpt lat="39.64336" lon="-7.66984">
        <ele>129.108</ele>
        <time>2019-10-16T20:45:00Z</time>
      </trkpt>
      <trkpt lat="39.64341" lon="-7.66988">
        <ele>129.135</ele>
        <time>2019-10-16T20:45:20Z</time>
      </trkpt>
      <trkpt lat="39.64345" lon="-7.66994">
        <ele>130.073</ele>
        <time>2019-10-16T20:45:40Z</time>
      </trkpt>
      <trkpt lat="39.64349" lon="-7.67001">
        <ele>131.455</ele>
        <time>2019-10-16T20:46:00Z</time>
      </trkpt>
      <trkpt lat="39.64351" lon="-7.67008">
        <ele>132.895</ele>
        <time>2019-10-16T20:46:20Z</time>
      </trkpt>
      <trkpt lat="39.64353" lon="-7.67014">
        <ele>134.177</ele>
        <time>2019-10-16T20:46:40Z</time>
      </trkpt>
      <trkpt lat="39.64355" lon="-7.67019">
        <ele>135.058</ele>
        <time>2019-10-16T20:47:00Z</time>
      </trkpt>
      <trkpt lat="39.64357" lon="-7.67023">
        <ele>135.65</ele>
        <time>2019-10-16T20:47:20Z</time>
      </trkpt>
      <trkpt lat="39.64359" lon="-7.67027">
        <ele>136.15</ele>
        <time>2019-10-16T20:47:40Z</time>
      </trkpt>
      <trkpt lat="39.64363" lon="-7.67031">
        <ele>136.696</ele>
        <time>2019-10-16T20:48:00Z</time>
      </trkpt>
      <trkpt lat="39.64369" lon="-7.67036">
        <ele>137.131</ele>
        <time>2019-10-16T20:48:20Z</time>
      </trkpt>
      <trkpt lat="39.64376" lon="-7.6704">
        <ele>137.124</ele>
        <time>2019-10-16T20:48:40Z</time>
      </trkpt>
      <trkpt lat="39.64385" lon="-7.67042">
        <ele>136.208</ele>
        <time>2019-10-16T20:49:00Z</time>
      </trkpt>
      <trkpt lat="39.64395" lon="-7.67041">
        <ele>134.163</ele>
        <time>2019-10-16T20:49:20Z</time>
      </trkpt>
      <trkpt lat="39.64406" lon="-7.67037">
        <ele>131.051</ele>
        <time>2019-10-16T20:49:40Z</time>
      </trkpt>
      <trkpt lat="39.64416" lon="-7.67033">
        <ele>128.143</ele>
        <time>2019-10-16T20:50:00Z</time>
      </trkpt>
      <trkpt lat="39.6444" lon="-7.67025">
        <ele>122.223</ele>
        <time>2019-10-16T20:50:20Z</time>
      </trkpt>
      <trkpt lat="39.64443" lon="-7.67024">
        <ele>121.545</ele>
        <time>2019-10-16T20:50:40Z</time>
      </trkpt>
      <trkpt lat="39.64442" lon="-7.67025">
        <ele>122.136</ele>
        <time>2019-10-16T20:51:00Z</time>
      </trkpt>
      <trkpt lat="39.64442" lon="-7.67025">
        <ele>122.028</ele>
        <time>2019-10-16T20:51:20Z</time>
      </trkpt>
      <trkpt lat="39.64441" lon="-7.67024">
        <ele>122.018</ele>
        <time>2019-10-16T20:51:40Z</time>
      </trkpt>
      <trkpt lat="39.64442" lon="-7.67026">
        <ele>122.498</ele>
        <time>2019-10-16T20:52:00Z</time>
      </trkpt>
      <trkpt lat="39.64442" lon="-7.67028">
        <ele>123.215</ele>
        <time>2019-10-16T20:52:20Z</time>
      </trkpt>
      <trkpt lat="39.64441" lon="-7.67025">
        <ele>122.226</ele>
        <time>2019-10-16T20:52:40Z</time>
      </trkpt>
      <trkpt lat="39.64441" lon="-7.67023">
        <ele>121.608</ele>
        <time>2019-10-16T20:53:00Z</time>
      </trkpt>
      <trkpt lat="39.64441" lon="-7.67026">
        <ele>122.863</ele>
        <time>2019-10-16T20:53:20Z</time>
      </trkpt>
      <trkpt lat="39.6444" lon="-7.67027">
        <ele>123.011</ele>
        <time>2019-10-16T20:53:40Z</time>
      </trkpt>
      <trkpt lat="39.64441" lon="-7.67028">
        <ele>123.563</ele>
        <time>2019-10-16T20:54:00Z</time>
      </trkpt>
      <trkpt lat="39.64441" lon="-7.67027">
        <ele>123.243</ele>
        <time>2019-10-16T20:54:20Z</time>
      </trkpt>
      <trkpt lat="39.64443" lon="-7.67025">
        <ele>122.095</ele>
        <time>2019-10-16T20:54:40Z</time>
      </trkpt>
      <trkpt lat="39.64445" lon="-7.67025">
        <ele>121.816</ele>
        <time>2019-10-16T20:55:00Z</time>
      </trkpt>
      <trkpt lat="39.64447" lon="-7.67026">
        <ele>122.268</ele>
        <time>2019-10-16T20:55:20Z</time>
      </trkpt>
      <trkpt lat="39.64449" lon="-7.67029">
        <ele>123.188</ele>
        <time>2019-10-16T20:55:40Z</time>
      </trkpt>
      <trkpt lat="39.64457" lon="-7.67036">
        <ele>124.929</ele>
        <time>2019-10-16T20:56:00Z</time>
      </trkpt>
      <trkpt lat="39.64463" lon="-7.67039">
        <ele>125.3</ele>
        <time>2019-10-16T20:56:20Z</time>
      </trkpt>
      <trkpt lat="39.64487" lon="-7.67052">
        <ele>123.82</ele>
        <time>2019-10-16T20:56:40Z</time>
      </trkpt>
      <trkpt lat="39.64496" lon="-7.67061">
        <ele>123.808</ele>
        <time>2019-10-16T20:57:00Z</time>
      </trkpt>
      <trkpt lat="39.64505" lon="-7.67071">
        <ele>124.776</ele>
        <time>2019-10-16T20:57:20Z</time>
      </trkpt>
      <trkpt lat="39.64522" lon="-7.67095">
        <ele>126.984</ele>
        <time>2019-10-16T20:57:40Z</time>
      </trkpt>
      <trkpt lat="39.64533" lon="-7.67106">
        <ele>127.186</ele>
        <time>2019-10-16T20:58:00Z</time>
      </trkpt>
      <trkpt lat="39.64579" lon="-7.67154">
        <ele>122.476</ele>
        <time>2019-10-16T20:58:20Z</time>
      </trkpt>
      <trkpt lat="39.6459" lon="-7.67171">
        <ele>123.178</ele>
        <time>2019-10-16T20:58:40Z</time>
      </trkpt>
      <trkpt lat="39.64599" lon="-7.67189">
        <ele>122.559</ele>
        <time>2019-10-16T20:59:00Z</time>
      </trkpt>
      <trkpt lat="39.64623" lon="-7.67249">
        <ele>117.661</ele>
        <time>2019-10-16T20:59:20Z</time>
      </trkpt>
      <trkpt lat="39.64643" lon="-7.67305">
        <ele>116.321</ele>
        <time>2019-10-16T20:59:40Z</time>
      </trkpt>
      <trkpt lat="39.64652" lon="-7.67343">
        <ele>110.281</ele>
        <time>2019-10-16T21:00:00Z</time>
      </trkpt>
      <trkpt lat="39.64653" lon="-7.6736">
        <ele>107.461</ele>
        <time>2019-10-16T21:00:20Z</time>
      </trkpt>
      <trkpt lat="39.64652" lon="-7.67377">
        <ele>104.417</ele>
        <time>2019-10-16T21:00:40Z</time>
      </trkpt>
      <trkpt lat="39.64649" lon="-7.67394">
        <ele>102.608</ele>
        <time>2019-10-16T21:01:00Z</time>
      </trkpt>
      <trkpt lat="39.64642" lon="-7.67409">
        <ele>101.712</ele>
        <time>2019-10-16T21:01:20Z</time>
      </trkpt>
      <trkpt lat="39.64635" lon="-7.67424">
        <ele>101.66</ele>
        <time>2019-10-16T21:01:40Z</time>
      </trkpt>
      <trkpt lat="39.64629" lon="-7.6744">
        <ele>101.522</ele>
        <time>2019-10-16T21:02:00Z</time>
      </trkpt>
      <trkpt lat="39.64625" lon="-7.67457">
        <ele>100.132</ele>
        <time>2019-10-16T21:02:20Z</time>
      </trkpt>
      <trkpt lat="39.64622" lon="-7.67476">
        <ele>98.444</ele>
        <time>2019-10-16T21:02:40Z</time>
      </trkpt>
      <trkpt lat="39.64611" lon="-7.67546">
        <ele>97.815</ele>
        <time>2019-10-16T21:03:00Z</time>
      </trkpt>
      <trkpt lat="39.64611" lon="-7.67559">
        <ele>97.027</ele>
        <time>2019-10-16T21:03:20Z</time>
      </trkpt>
      <trkpt lat="39.64613" lon="-7.67571">
        <ele>96.117</ele>
        <time>2019-10-16T21:03:40Z</time>
      </trkpt>
      <trkpt lat="39.64617" lon="-7.67583">
        <ele>94.998</ele>
        <time>2019-10-16T21:04:00Z</time>
      </trkpt>
      <trkpt lat="39.64624" lon="-7.67593">
        <ele>91.415</ele>
        <time>2019-10-16T21:04:20Z</time>
      </trkpt>
      <trkpt lat="39.64633" lon="-7.67602">
        <ele>84.826</ele>
        <time>2019-10-16T21:04:40Z</time>
      </trkpt>
      <trkpt lat="39.64644" lon="-7.6761">
        <ele>77.508</ele>
        <time>2019-10-16T21:05:00Z</time>
      </trkpt>
      <trkpt lat="39.64656" lon="-7.67618">
        <ele>77.073</ele>
        <time>2019-10-16T21:05:20Z</time>
      </trkpt>
      <trkpt lat="39.64755" lon="-7.67688">
        <ele>80.261</ele>
        <time>2019-10-16T21:05:40Z</time>
      </trkpt>
      <trkpt lat="39.64768" lon="-7.67695">
        <ele>88.243</ele>
        <time>2019-10-16T21:06:00Z</time>
      </trkpt>
      <trkpt lat="39.64773" lon="-7.67696">
        <ele>92.093</ele>
        <time>2019-10-16T21:06:20Z</time>
      </trkpt>
      <trkpt lat="39.64779" lon="-7.67696">
        <ele>94.945</ele>
        <time>2019-10-16T21:06:40Z</time>
      </trkpt>
      <trkpt lat="39.64783" lon="-7.67694">
        <ele>96.986</ele>
        <time>2019-10-16T21:07:00Z</time>
      </trkpt>
      <trkpt lat="39.64787" lon="-7.67692">
        <ele>98.288</ele>
        <time>2019-10-16T21:07:20Z</time>
      </trkpt>
      <trkpt lat="39.64791" lon="-7.67689">
        <ele>98.988</ele>
        <time>2019-10-16T21:07:40Z</time>
      </trkpt>
      <trkpt lat="39.64794" lon="-7.67686">
        <ele>99.565</ele>
        <time>2019-10-16T21:08:00Z</time>
      </trkpt>
      <trkpt lat="39.64797" lon="-7.67682">
        <ele>99.968</ele>
        <time>2019-10-16T21:08:20Z</time>
      </trkpt>
      <trkpt lat="39.64802" lon="-7.67671">
        <ele>99.414</ele>
        <time>2019-10-16T21:08:40Z</time>
      </trkpt>
      <trkpt lat="39.64816" lon="-7.67658">
        <ele>102.608</ele>
        <time>2019-10-16T21:09:00Z</time>
      </trkpt>
      <trkpt lat="39.6486" lon="-7.67598">
        <ele>104.97</ele>
        <time>2019-10-16T21:09:20Z</time>
      </trkpt>
      <trkpt lat="39.64986" lon="-7.67424">
        <ele>99.898</ele>
        <time>2019-10-16T21:09:40Z</time>
      </trkpt>
      <trkpt lat="39.65037" lon="-7.67372">
        <ele>97.28</ele>
        <time>2019-10-16T21:10:00Z</time>
      </trkpt>
      <trkpt lat="39.65052" lon="-7.67364">
        <ele>97.23</ele>
        <time>2019-10-16T21:10:20Z</time>
      </trkpt>
      <trkpt lat="39.65067" lon="-7.67358">
        <ele>98.362</ele>
        <time>2019-10-16T21:10:40Z</time>
      </trkpt>
      <trkpt lat="39.65197" lon="-7.67302">
        <ele>97.083</ele>
        <time>2019-10-16T21:11:00Z</time>
      </trkpt>
      <trkpt lat="39.65242" lon="-7.67269">
        <ele>98.465</ele>
        <time>2019-10-16T21:11:20Z</time>
      </trkpt>
      <trkpt lat="39.6525" lon="-7.67262">
        <ele>98.265</ele>
        <time>2019-10-16T21:11:40Z</time>
      </trkpt>
      <trkpt lat="39.65257" lon="-7.67255">
        <ele>97.374</ele>
        <time>2019-10-16T21:12:00Z</time>
      </trkpt>
      <trkpt lat="39.65263" lon="-7.67245">
        <ele>96.756</ele>
        <time>2019-10-16T21:12:20Z</time>
      </trkpt>
      <trkpt lat="39.65269" lon="-7.67233">
        <ele>96.721</ele>
        <time>2019-10-16T21:12:40Z</time>
      </trkpt>
      <trkpt lat="39.65272" lon="-7.67218">
        <ele>96.908</ele>
        <time>2019-10-16T21:13:00Z</time>
      </trkpt>
      <trkpt lat="39.65274" lon="-7.67202">
        <ele>97.241</ele>
        <time>2019-10-16T21:13:20Z</time>
      </trkpt>
      <trkpt lat="39.65276" lon="-7.67186">
        <ele>97.249</ele>
        <time>2019-10-16T21:13:40Z</time>
      </trkpt>
      <trkpt lat="39.65294" lon="-7.67028">
        <ele>96.421</ele>
        <time>2019-10-16T21:14:00Z</time>
      </trkpt>
      <trkpt lat="39.65296" lon="-7.67015">
        <ele>95.281</ele>
        <time>2019-10-16T21:14:20Z</time>
      </trkpt>
      <trkpt lat="39.653" lon="-7.67004">
        <ele>94.333</ele>
        <time>2019-10-16T21:14:40Z</time>
      </trkpt>
      <trkpt lat="39.65304" lon="-7.66993">
        <ele>93.374</ele>
        <time>2019-10-16T21:15:00Z</time>
      </trkpt>
      <trkpt lat="39.6531" lon="-7.66984">
        <ele>92.236</ele>
        <time>2019-10-16T21:15:20Z</time>
      </trkpt>
      <trkpt lat="39.65317" lon="-7.66978">
        <ele>91.856</ele>
        <time>2019-10-16T21:15:40Z</time>
      </trkpt>
      <trkpt lat="39.65326" lon="-7.66973">
        <ele>92.021</ele>
        <time>2019-10-16T21:16:00Z</time>
      </trkpt>
      <trkpt lat="39.65335" lon="-7.6697">
        <ele>92.441</ele>
        <time>2019-10-16T21:16:20Z</time>
      </trkpt>
      <trkpt lat="39.65345" lon="-7.66968">
        <ele>92.305</ele>
        <time>2019-10-16T21:16:40Z</time>
      </trkpt>
      <trkpt lat="39.65375" lon="-7.66962">
        <ele>91.208</ele>
        <time>2019-10-16T21:17:00Z</time>
      </trkpt>
      <trkpt lat="39.65384" lon="-7.66958">
        <ele>90.576</ele>
        <time>2019-10-16T21:17:20Z</time>
      </trkpt>
      <trkpt lat="39.65393" lon="-7.66952">
        <ele>89.654</ele>
        <time>2019-10-16T21:17:40Z</time>
      </trkpt>
      <trkpt lat="39.65402" lon="-7.66944">
        <ele>88.526</ele>
        <time>2019-10-16T21:18:00Z</time>
      </trkpt>
      <trkpt lat="39.6541" lon="-7.66933">
        <ele>88.036</ele>
        <time>2019-10-16T21:18:20Z</time>
      </trkpt>
      <trkpt lat="39.65419" lon="-7.66919">
        <ele>87.848</ele>
        <time>2019-10-16T21:18:40Z</time>
      </trkpt>
      <trkpt lat="39.65429" lon="-7.66903">
        <ele>88.449</ele>
        <time>2019-10-16T21:19:00Z</time>
      </trkpt>
      <trkpt lat="39.65471" lon="-7.66826">
        <ele>95.671</ele>
        <time>2019-10-16T21:19:20Z</time>
      </trkpt>
      <trkpt lat="39.65506" lon="-7.66761">
        <ele>100.041</ele>
        <time>2019-10-16T21:19:40Z</time>
      </trkpt>
      <trkpt lat="39.6553" lon="-7.66717">
        <ele>102.531</ele>
        <time>2019-10-16T21:20:00Z</time>
      </trkpt>
      <trkpt lat="39.65564" lon="-7.66655">
        <ele>105.961</ele>
        <time>2019-10-16T21:20:20Z</time>
      </trkpt>
      <trkpt lat="39.65574" lon="-7.66636">
        <ele>105.307</ele>
        <time>2019-10-16T21:20:40Z</time>
      </trkpt>
      <trkpt lat="39.6565" lon="-7.66486">
        <ele>106.508</ele>
        <time>2019-10-16T21:21:00Z</time>
      </trkpt>
      <trkpt lat="39.65656" lon="-7.66465">
        <ele>104.577</ele>
        <time>2019-10-16T21:21:20Z</time>
      </trkpt>
      <trkpt lat="39.6566" lon="-7.66443">
        <ele>102.295</ele>
        <time>2019-10-16T21:21:40Z</time>
      </trkpt>
      <trkpt lat="39.65662" lon="-7.6642">
        <ele>101.167</ele>
        <time>2019-10-16T21:22:00Z</time>
      </trkpt>
      <trkpt lat="39.65662" lon="-7.66395">
        <ele>100.517</ele>
        <time>2019-10-16T21:22:20Z</time>
      </trkpt>
      <trkpt lat="39.65662" lon="-7.6637">
        <ele>100.519</ele>
        <time>2019-10-16T21:22:40Z</time>
      </trkpt>
      <trkpt lat="39.65661" lon="-7.66344">
        <ele>99.79</ele>
        <time>2019-10-16T21:23:00Z</time>
      </trkpt>
      <trkpt lat="39.6566" lon="-7.66276">
        <ele>97.632</ele>
        <time>2019-10-16T21:23:20Z</time>
      </trkpt>
      <trkpt lat="39.65657" lon="-7.66258">
        <ele>98.222</ele>
        <time>2019-10-16T21:23:40Z</time>
      </trkpt>
      <trkpt lat="39.65654" lon="-7.66242">
        <ele>98.345</ele>
        <time>2019-10-16T21:24:00Z</time>
      </trkpt>
      <trkpt lat="39.65651" lon="-7.66228">
        <ele>98.147</ele>
        <time>2019-10-16T21:24:20Z</time>
      </trkpt>
      <trkpt lat="39.65649" lon="-7.66218">
        <ele>97.811</ele>
        <time>2019-10-16T21:24:40Z</time>
      </trkpt>
      <trkpt lat="39.65647" lon="-7.66209">
        <ele>97.508</ele>
        <time>2019-10-16T21:25:00Z</time>
      </trkpt>
      <trkpt lat="39.65648" lon="-7.66199">
        <ele>97.218</ele>
        <time>2019-10-16T21:25:20Z</time>
      </trkpt>
      <trkpt lat="39.6565" lon="-7.66188">
        <ele>96.966</ele>
        <time>2019-10-16T21:25:40Z</time>
      </trkpt>
      <trkpt lat="39.65653" lon="-7.66176">
        <ele>96.778</ele>
        <time>2019-10-16T21:26:00Z</time>
      </trkpt>
      <trkpt lat="39.65654" lon="-7.66162">
        <ele>96.438</ele>
        <time>2019-10-16T21:26:20Z</time>
      </trkpt>
      <trkpt lat="39.65654" lon="-7.66147">
        <ele>95.85</ele>
        <time>2019-10-16T21:26:40Z</time>
      </trkpt>
      <trkpt lat="39.65652" lon="-7.66131">
        <ele>94.831</ele>
        <time>2019-10-16T21:27:00Z</time>
      </trkpt>
      <trkpt lat="39.65649" lon="-7.66114">
        <ele>93.253</ele>
        <time>2019-10-16T21:27:20Z</time>
      </trkpt>
      <trkpt lat="39.65634" lon="-7.66006">
        <ele>90.763</ele>
        <time>2019-10-16T21:27:40Z</time>
      </trkpt>
      <trkpt lat="39.65643" lon="-7.65858">
        <ele>82.438</ele>
        <time>2019-10-16T21:28:00Z</time>
      </trkpt>
      <trkpt lat="39.65656" lon="-7.65762">
        <ele>84.37</ele>
        <time>2019-10-16T21:28:20Z</time>
      </trkpt>
      <trkpt lat="39.65658" lon="-7.65754">
        <ele>85.017</ele>
        <time>2019-10-16T21:28:40Z</time>
      </trkpt>
      <trkpt lat="39.65658" lon="-7.65752">
        <ele>85.208</ele>
        <time>2019-10-16T21:29:00Z</time>
      </trkpt>
      <trkpt lat="39.65656" lon="-7.65753">
        <ele>85.187</ele>
        <time>2019-10-16T21:29:20Z</time>
      </trkpt>
      <trkpt lat="39.65649" lon="-7.65758">
        <ele>85.095</ele>
        <time>2019-10-16T21:29:40Z</time>
      </trkpt>
      <trkpt lat="39.65644" lon="-7.65762">
        <ele>84.997</ele>
        <time>2019-10-16T21:30:00Z</time>
      </trkpt>
      <trkpt lat="39.65638" lon="-7.65768">
        <ele>84.897</ele>
        <time>2019-10-16T21:30:20Z</time>
      </trkpt>
      <trkpt lat="39.65601" lon="-7.65804">
        <ele>82.229</ele>
        <time>2019-10-16T21:30:40Z</time>
      </trkpt>
      <trkpt lat="39.65593" lon="-7.65809">
        <ele>81.64</ele>
        <time>2019-10-16T21:31:00Z</time>
      </trkpt>
      <trkpt lat="39.65585" lon="-7.65812">
        <ele>81.372</ele>
        <time>2019-10-16T21:31:20Z</time>
      </trkpt>
      <trkpt lat="39.65576" lon="-7.65812">
        <ele>81.162</ele>
        <time>2019-10-16T21:31:40Z</time>
      </trkpt>
      <trkpt lat="39.65568" lon="-7.6581">
        <ele>81.195</ele>
        <time>2019-10-16T21:32:00Z</time>
      </trkpt>
      <trkpt lat="39.65561" lon="-7.65806">
        <ele>81.249</ele>
        <time>2019-10-16T21:32:20Z</time>
      </trkpt>
      <trkpt lat="39.65556" lon="-7.65799">
        <ele>81.223</ele>
        <time>2019-10-16T21:32:40Z</time>
      </trkpt>
      <trkpt lat="39.65551" lon="-7.65793">
        <ele>81.208</ele>
        <time>2019-10-16T21:33:00Z</time>
      </trkpt>
      <trkpt lat="39.65545" lon="-7.65789">
        <ele>81.193</ele>
        <time>2019-10-16T21:33:20Z</time>
      </trkpt>
      <trkpt lat="39.65539" lon="-7.65788">
        <ele>80.821</ele>
        <time>2019-10-16T21:33:40Z</time>
      </trkpt>
      <trkpt lat="39.65533" lon="-7.65789">
        <ele>80.533</ele>
        <time>2019-10-16T21:34:00Z</time>
      </trkpt>
      <trkpt lat="39.65525" lon="-7.65791">
        <ele>80.313</ele>
        <time>2019-10-16T21:34:20Z</time>
      </trkpt>
      <trkpt lat="39.65499" lon="-7.65796">
        <ele>81.715</ele>
        <time>2019-10-16T21:34:40Z</time>
      </trkpt>
      <trkpt lat="39.65491" lon="-7.65794">
        <ele>82.386</ele>
        <time>2019-10-16T21:35:00Z</time>
      </trkpt>
      <trkpt lat="39.65482" lon="-7.65789">
        <ele>83.298</ele>
        <time>2019-10-16T21:35:20Z</time>
      </trkpt>
      <trkpt lat="39.65474" lon="-7.65782">
        <ele>84.418</ele>
        <time>2019-10-16T21:35:40Z</time>
      </trkpt>
      <trkpt lat="39.65465" lon="-7.65773">
        <ele>85.313</ele>
        <time>2019-10-16T21:36:00Z</time>
      </trkpt>
      <trkpt lat="39.65449" lon="-7.65757">
        <ele>87.043</ele>
        <time>2019-10-16T21:36:20Z</time>
      </trkpt>
      <trkpt lat="39.65443" lon="-7.65748">
        <ele>88.007</ele>
        <time>2019-10-16T21:36:40Z</time>
      </trkpt>
      <trkpt lat="39.6544" lon="-7.65738">
        <ele>88.608</ele>
        <time>2019-10-16T21:37:00Z</time>
      </trkpt>
      <trkpt lat="39.65439" lon="-7.65726">
        <ele>89.535</ele>
        <time>2019-10-16T21:37:20Z</time>
      </trkpt>
      <trkpt lat="39.6544" lon="-7.65713">
        <ele>90.583</ele>
        <time>2019-10-16T21:37:40Z</time>
      </trkpt>
      <trkpt lat="39.65442" lon="-7.65701">
        <ele>91.585</ele>
        <time>2019-10-16T21:38:00Z</time>
      </trkpt>
      <trkpt lat="39.65443" lon="-7.65688">
        <ele>92.495</ele>
        <time>2019-10-16T21:38:20Z</time>
      </trkpt>
      <trkpt lat="39.65442" lon="-7.65676">
        <ele>93.367</ele>
        <time>2019-10-16T21:38:40Z</time>
      </trkpt>
      <trkpt lat="39.65438" lon="-7.65665">
        <ele>94.588</ele>
        <time>2019-10-16T21:39:00Z</time>
      </trkpt>
      <trkpt lat="39.65427" lon="-7.6564">
        <ele>98.15</ele>
        <time>2019-10-16T21:39:20Z</time>
      </trkpt>
      <trkpt lat="39.6542" lon="-7.65628">
        <ele>99.53</ele>
        <time>2019-10-16T21:39:40Z</time>
      </trkpt>
      <trkpt lat="39.65411" lon="-7.65616">
        <ele>101.346</ele>
        <time>2019-10-16T21:40:00Z</time>
      </trkpt>
      <trkpt lat="39.65401" lon="-7.65606">
        <ele>103.688</ele>
        <time>2019-10-16T21:40:20Z</time>
      </trkpt>
      <trkpt lat="39.65391" lon="-7.65598">
        <ele>106.116</ele>
        <time>2019-10-16T21:40:40Z</time>
      </trkpt>
      <trkpt lat="39.65379" lon="-7.65592">
        <ele>107.508</ele>
        <time>2019-10-16T21:41:00Z</time>
      </trkpt>
      <trkpt lat="39.65366" lon="-7.65588">
        <ele>108.458</ele>
        <time>2019-10-16T21:41:20Z</time>
      </trkpt>
      <trkpt lat="39.65353" lon="-7.65586">
        <ele>108.626</ele>
        <time>2019-10-16T21:41:40Z</time>
      </trkpt>
      <trkpt lat="39.6534" lon="-7.65587">
        <ele>108.258</ele>
        <time>2019-10-16T21:42:00Z</time>
      </trkpt>
      <trkpt lat="39.65328" lon="-7.65588">
        <ele>108.018</ele>
        <time>2019-10-16T21:42:20Z</time>
      </trkpt>
      <trkpt lat="39.65309" lon="-7.65587">
        <ele>108.14</ele>
        <time>2019-10-16T21:42:40Z</time>
      </trkpt>
      <trkpt lat="39.653" lon="-7.65584">
        <ele>107.821</ele>
        <time>2019-10-16T21:43:00Z</time>
      </trkpt>
      <trkpt lat="39.6529" lon="-7.65578">
        <ele>107.343</ele>
        <time>2019-10-16T21:43:20Z</time>
      </trkpt>
      <trkpt lat="39.65216" lon="-7.65525">
        <ele>101.573</ele>
        <time>2019-10-16T21:43:40Z</time>
      </trkpt>
      <trkpt lat="39.65167" lon="-7.65473">
        <ele>97.117</ele>
        <time>2019-10-16T21:44:00Z</time>
      </trkpt>
      <trkpt lat="39.65155" lon="-7.65458">
        <ele>95.687</ele>
        <time>2019-10-16T21:44:20Z</time>
      </trkpt>
      <trkpt lat="39.65101" lon="-7.65387">
        <ele>98.415</ele>
        <time>2019-10-16T21:44:40Z</time>
      </trkpt>
      <trkpt lat="39.65093" lon="-7.65374">
        <ele>98.808</ele>
        <time>2019-10-16T21:45:00Z</time>
      </trkpt>
      <trkpt lat="39.65088" lon="-7.65362">
        <ele>99.015</ele>
        <time>2019-10-16T21:45:20Z</time>
      </trkpt>
      <trkpt lat="39.65084" lon="-7.65351">
        <ele>99.093</ele>
        <time>2019-10-16T21:45:40Z</time>
      </trkpt>
      <trkpt lat="39.65081" lon="-7.65341">
        <ele>98.915</ele>
        <time>2019-10-16T21:46:00Z</time>
      </trkpt>
      <trkpt lat="39.65076" lon="-7.65327">
        <ele>98.955</ele>
        <time>2019-10-16T21:46:20Z</time>
      </trkpt>
      <trkpt lat="39.65072" lon="-7.65323">
        <ele>99.077</ele>
        <time>2019-10-16T21:46:40Z</time>
      </trkpt>
      <trkpt lat="39.65069" lon="-7.6532">
        <ele>98.918</ele>
        <time>2019-10-16T21:47:00Z</time>
      </trkpt>
      <trkpt lat="39.65061" lon="-7.65316">
        <ele>98.82</ele>
        <time>2019-10-16T21:47:20Z</time>
      </trkpt>
      <trkpt lat="39.65055" lon="-7.65315">
        <ele>98.77</ele>
        <time>2019-10-16T21:47:40Z</time>
      </trkpt>
      <trkpt lat="39.65047" lon="-7.65315">
        <ele>99.319</ele>
        <time>2019-10-16T21:48:00Z</time>
      </trkpt>
      <trkpt lat="39.65037" lon="-7.65317">
        <ele>99.909</ele>
        <time>2019-10-16T21:48:20Z</time>
      </trkpt>
      <trkpt lat="39.65025" lon="-7.6532">
        <ele>100.719</ele>
        <time>2019-10-16T21:48:40Z</time>
      </trkpt>
      <trkpt lat="39.65011" lon="-7.65323">
        <ele>101.408</ele>
        <time>2019-10-16T21:49:00Z</time>
      </trkpt>
      <trkpt lat="39.64982" lon="-7.65328">
        <ele>103.455</ele>
        <time>2019-10-16T21:49:20Z</time>
      </trkpt>
      <trkpt lat="39.6497" lon="-7.65332">
        <ele>104.363</ele>
        <time>2019-10-16T21:49:40Z</time>
      </trkpt>
      <trkpt lat="39.64958" lon="-7.65339">
        <ele>105.495</ele>
        <time>2019-10-16T21:50:00Z</time>
      </trkpt>
      <trkpt lat="39.64947" lon="-7.65348">
        <ele>106.245</ele>
        <time>2019-10-16T21:50:20Z</time>
      </trkpt>
      <trkpt lat="39.64936" lon="-7.65359">
        <ele>107.397</ele>
        <time>2019-10-16T21:50:40Z</time>
      </trkpt>
      <trkpt lat="39.64926" lon="-7.65367">
        <ele>108.698</ele>
        <time>2019-10-16T21:51:00Z</time>
      </trkpt>
      <trkpt lat="39.64916" lon="-7.65374">
        <ele>109.63</ele>
        <time>2019-10-16T21:51:20Z</time>
      </trkpt>
      <trkpt lat="39.64908" lon="-7.65378">
        <ele>110.59</ele>
        <time>2019-10-16T21:51:40Z</time>
      </trkpt>
      <trkpt lat="39.64902" lon="-7.65379">
        <ele>111.252</ele>
        <time>2019-10-16T21:52:00Z</time>
      </trkpt>
      <trkpt lat="39.64898" lon="-7.65378">
        <ele>111.853</ele>
        <time>2019-10-16T21:52:20Z</time>
      </trkpt>
      <trkpt lat="39.64895" lon="-7.65373">
        <ele>112.308</ele>
        <time>2019-10-16T21:52:40Z</time>
      </trkpt>
      <trkpt lat="39.64892" lon="-7.65366">
        <ele>112.608</ele>
        <time>2019-10-16T21:53:00Z</time>
      </trkpt>
      <trkpt lat="39.6489" lon="-7.65356">
        <ele>112.789</ele>
        <time>2019-10-16T21:53:20Z</time>
      </trkpt>
      <trkpt lat="39.64887" lon="-7.65345">
        <ele>112.477</ele>
        <time>2019-10-16T21:53:40Z</time>
      </trkpt>
      <trkpt lat="39.6488" lon="-7.65321">
        <ele>112.129</ele>
        <time>2019-10-16T21:54:00Z</time>
      </trkpt>
      <trkpt lat="39.6487" lon="-7.65296">
        <ele>113.579</ele>
        <time>2019-10-16T21:54:20Z</time>
      </trkpt>
      <trkpt lat="39.64864" lon="-7.65284">
        <ele>115.031</ele>
        <time>2019-10-16T21:54:40Z</time>
      </trkpt>
      <trkpt lat="39.64855" lon="-7.65274">
        <ele>116.762</ele>
        <time>2019-10-16T21:55:00Z</time>
      </trkpt>
      <trkpt lat="39.64846" lon="-7.65266">
        <ele>118.314</ele>
        <time>2019-10-16T21:55:20Z</time>
      </trkpt>
      <trkpt lat="39.64817" lon="-7.65245">
        <ele>121.864</ele>
        <time>2019-10-16T21:55:40Z</time>
      </trkpt>
      <trkpt lat="39.648" lon="-7.6523">
        <ele>123.672</ele>
        <time>2019-10-16T21:56:00Z</time>
      </trkpt>
      <trkpt lat="39.64791" lon="-7.65221">
        <ele>124.513</ele>
        <time>2019-10-16T21:56:20Z</time>
      </trkpt>
      <trkpt lat="39.64784" lon="-7.65209">
        <ele>125.414</ele>
        <time>2019-10-16T21:56:40Z</time>
      </trkpt>
      <trkpt lat="39.64777" lon="-7.65197">
        <ele>126.808</ele>
        <time>2019-10-16T21:57:00Z</time>
      </trkpt>
      <trkpt lat="39.6477" lon="-7.65183">
        <ele>126.851</ele>
        <time>2019-10-16T21:57:20Z</time>
      </trkpt>
      <trkpt lat="39.64763" lon="-7.65171">
        <ele>127.119</ele>
        <time>2019-10-16T21:57:40Z</time>
      </trkpt>
      <trkpt lat="39.64755" lon="-7.65162">
        <ele>127.351</ele>
        <time>2019-10-16T21:58:00Z</time>
      </trkpt>
      <trkpt lat="39.64744" lon="-7.65154">
        <ele>127.141</ele>
        <time>2019-10-16T21:58:20Z</time>
      </trkpt>
      <trkpt lat="39.64723" lon="-7.6514">
        <ele>127.093</ele>
        <time>2019-10-16T21:58:40Z</time>
      </trkpt>
      <trkpt lat="39.64713" lon="-7.6513">
        <ele>127.814</ele>
        <time>2019-10-16T21:59:00Z</time>
      </trkpt>
      <trkpt lat="39.64704" lon="-7.65117">
        <ele>128.916</ele>
        <time>2019-10-16T21:59:20Z</time>
      </trkpt>
      <trkpt lat="39.64649" lon="-7.65025">
        <ele>131.236</ele>
        <time>2019-10-16T21:59:40Z</time>
      </trkpt>
      <trkpt lat="39.64612" lon="-7.64976">
        <ele>133.036</ele>
        <time>2019-10-16T22:00:00Z</time>
      </trkpt>
      <trkpt lat="39.64592" lon="-7.64956">
        <ele>134.317</ele>
        <time>2019-10-16T22:00:20Z</time>
      </trkpt>
      <trkpt lat="39.64583" lon="-7.64944">
        <ele>135.018</ele>
        <time>2019-10-16T22:00:40Z</time>
      </trkpt>
      <trkpt lat="39.64545" lon="-7.64892">
        <ele>135.708</ele>
        <time>2019-10-16T22:01:00Z</time>
      </trkpt>
      <trkpt lat="39.64534" lon="-7.64882">
        <ele>136.167</ele>
        <time>2019-10-16T22:01:20Z</time>
      </trkpt>
      <trkpt lat="39.64522" lon="-7.64873">
        <ele>136.975</ele>
        <time>2019-10-16T22:01:40Z</time>
      </trkpt>
      <trkpt lat="39.64485" lon="-7.6485">
        <ele>140.667</ele>
        <time>2019-10-16T22:02:00Z</time>
      </trkpt>
      <trkpt lat="39.64472" lon="-7.64845">
        <ele>142.067</ele>
        <time>2019-10-16T22:02:20Z</time>
      </trkpt>
      <trkpt lat="39.64458" lon="-7.64843">
        <ele>142.249</ele>
        <time>2019-10-16T22:02:40Z</time>
      </trkpt>
      <trkpt lat="39.64445" lon="-7.64843">
        <ele>142.32</ele>
        <time>2019-10-16T22:03:00Z</time>
      </trkpt>
      <trkpt lat="39.6442" lon="-7.6484">
        <ele>142.932</ele>
        <time>2019-10-16T22:03:20Z</time>
      </trkpt>
      <trkpt lat="39.64408" lon="-7.64835">
        <ele>144.092</ele>
        <time>2019-10-16T22:03:40Z</time>
      </trkpt>
      <trkpt lat="39.64395" lon="-7.64829">
        <ele>145.392</ele>
        <time>2019-10-16T22:04:00Z</time>
      </trkpt>
      <trkpt lat="39.64356" lon="-7.64805">
        <ele>149.373</ele>
        <time>2019-10-16T22:04:20Z</time>
      </trkpt>
      <trkpt lat="39.6431" lon="-7.64773">
        <ele>150.02</ele>
        <time>2019-10-16T22:04:40Z</time>
      </trkpt>
      <trkpt lat="39.64267" lon="-7.64748">
        <ele>148.808</ele>
        <time>2019-10-16T22:05:00Z</time>
      </trkpt>
      <trkpt lat="39.64255" lon="-7.64744">
        <ele>148.683</ele>
        <time>2019-10-16T22:05:20Z</time>
      </trkpt>
      <trkpt lat="39.64244" lon="-7.64742">
        <ele>148.781</ele>
        <time>2019-10-16T22:05:40Z</time>
      </trkpt>
      <trkpt lat="39.64233" lon="-7.64737">
        <ele>149.333</ele>
        <time>2019-10-16T22:06:00Z</time>
      </trkpt>
      <trkpt lat="39.64222" lon="-7.64731">
        <ele>150.043</ele>
        <time>2019-10-16T22:06:20Z</time>
      </trkpt>
      <trkpt lat="39.64212" lon="-7.64722">
        <ele>150.765</ele>
        <time>2019-10-16T22:06:40Z</time>
      </trkpt>
      <trkpt lat="39.64203" lon="-7.64712">
        <ele>151.736</ele>
        <time>2019-10-16T22:07:00Z</time>
      </trkpt>
      <trkpt lat="39.64194" lon="-7.64699">
        <ele>152.818</ele>
        <time>2019-10-16T22:07:20Z</time>
      </trkpt>
      <trkpt lat="39.64185" lon="-7.64685">
        <ele>153.288</ele>
        <time>2019-10-16T22:07:40Z</time>
      </trkpt>
      <trkpt lat="39.64167" lon="-7.64655">
        <ele>153.053</ele>
        <time>2019-10-16T22:08:00Z</time>
      </trkpt>
      <trkpt lat="39.64151" lon="-7.64628">
        <ele>151.704</ele>
        <time>2019-10-16T22:08:20Z</time>
      </trkpt>
      <trkpt lat="39.64144" lon="-7.64612">
        <ele>151.214</ele>
        <time>2019-10-16T22:08:40Z</time>
      </trkpt>
      <trkpt lat="39.64122" lon="-7.64564">
        <ele>155.908</ele>
        <time>2019-10-16T22:09:00Z</time>
      </trkpt>
      <trkpt lat="39.64113" lon="-7.6455">
        <ele>157.229</ele>
        <time>2019-10-16T22:09:20Z</time>
      </trkpt>
      <trkpt lat="39.64102" lon="-7.64537">
        <ele>158.117</ele>
        <time>2019-10-16T22:09:40Z</time>
      </trkpt>
      <trkpt lat="39.64049" lon="-7.64492">
        <ele>163.939</ele>
        <time>2019-10-16T22:10:00Z</time>
      </trkpt>
      <trkpt lat="39.64038" lon="-7.64483">
        <ele>166.649</ele>
        <time>2019-10-16T22:10:20Z</time>
      </trkpt>
      <trkpt lat="39.6403" lon="-7.64472">
        <ele>168.771</ele>
        <time>2019-10-16T22:10:40Z</time>
      </trkpt>
      <trkpt lat="39.64016" lon="-7.64453">
        <ele>174.852</ele>
        <time>2019-10-16T22:11:00Z</time>
      </trkpt>
      <trkpt lat="39.64009" lon="-7.64449">
        <ele>177.384</ele>
        <time>2019-10-16T22:11:20Z</time>
      </trkpt>
      <trkpt lat="39.64003" lon="-7.6445">
        <ele>179.444</ele>
        <time>2019-10-16T22:11:40Z</time>
      </trkpt>
      <trkpt lat="39.63997" lon="-7.64454">
        <ele>180.792</ele>
        <time>2019-10-16T22:12:00Z</time>
      </trkpt>
      <trkpt lat="39.6399" lon="-7.64459">
        <ele>181.173</ele>
        <time>2019-10-16T22:12:20Z</time>
      </trkpt>
      <trkpt lat="39.63982" lon="-7.64461">
        <ele>181.62</ele>
        <time>2019-10-16T22:12:40Z</time>
      </trkpt>
      <trkpt lat="39.63976" lon="-7.64459">
        <ele>182.508</ele>
        <time>2019-10-16T22:13:00Z</time>
      </trkpt>
      <trkpt lat="39.6397" lon="-7.64455">
        <ele>183.213</ele>
        <time>2019-10-16T22:13:20Z</time>
      </trkpt>
      <trkpt lat="39.63965" lon="-7.64449">
        <ele>183.731</ele>
        <time>2019-10-16T22:13:40Z</time>
      </trkpt>
      <trkpt lat="39.63962" lon="-7.64439">
        <ele>184.273</ele>
        <time>2019-10-16T22:14:00Z</time>
      </trkpt>
      <trkpt lat="39.63959" lon="-7.64426">
        <ele>184.533</ele>
        <time>2019-10-16T22:14:20Z</time>
      </trkpt>
      <trkpt lat="39.63956" lon="-7.64412">
        <ele>184.935</ele>
        <time>2019-10-16T22:14:40Z</time>
      </trkpt>
      <trkpt lat="39.63946" lon="-7.64352">
        <ele>184.376</ele>
        <time>2019-10-16T22:15:00Z</time>
      </trkpt>
      <trkpt lat="39.63939" lon="-7.64307">
        <ele>183.818</ele>
        <time>2019-10-16T22:15:20Z</time>
      </trkpt>
      <trkpt lat="39.63894" lon="-7.64107">
        <ele>183.148</ele>
        <time>2019-10-16T22:15:40Z</time>
      </trkpt>
      <trkpt lat="39.63867" lon="-7.63986">
        <ele>181.665</ele>
        <time>2019-10-16T22:16:00Z</time>
      </trkpt>
      <trkpt lat="39.63863" lon="-7.63979">
        <ele>180.868</ele>
        <time>2019-10-16T22:16:20Z</time>
      </trkpt>
      <trkpt lat="39.63859" lon="-7.63975">
        <ele>180.414</ele>
        <time>2019-10-16T22:16:40Z</time>
      </trkpt>
      <trkpt lat="39.63855" lon="-7.63972">
        <ele>180.508</ele>
        <time>2019-10-16T22:17:00Z</time>
      </trkpt>
      <trkpt lat="39.63849" lon="-7.63969">
        <ele>180.81</ele>
        <time>2019-10-16T22:17:20Z</time>
      </trkpt>
      <trkpt lat="39.63839" lon="-7.63963">
        <ele>181.458</ele>
        <time>2019-10-16T22:17:40Z</time>
      </trkpt>
      <trkpt lat="39.63834" lon="-7.63959">
        <ele>181.56</ele>
        <time>2019-10-16T22:18:00Z</time>
      </trkpt>
      <trkpt lat="39.63829" lon="-7.63954">
        <ele>181.42</ele>
        <time>2019-10-16T22:18:20Z</time>
      </trkpt>
      <trkpt lat="39.63823" lon="-7.63945">
        <ele>181.482</ele>
        <time>2019-10-16T22:18:40Z</time>
      </trkpt>
      <trkpt lat="39.63821" lon="-7.6394">
        <ele>181.533</ele>
        <time>2019-10-16T22:19:00Z</time>
      </trkpt>
      <trkpt lat="39.63821" lon="-7.63936">
        <ele>181.675</ele>
        <time>2019-10-16T22:19:20Z</time>
      </trkpt>
      <trkpt lat="39.63821" lon="-7.63932">
        <ele>181.725</ele>
        <time>2019-10-16T22:19:40Z</time>
      </trkpt>
      <trkpt lat="39.6382" lon="-7.63927">
        <ele>181.895</ele>
        <time>2019-10-16T22:20:00Z</time>
      </trkpt>
      <trkpt lat="39.63818" lon="-7.63919">
        <ele>182.149</ele>
        <time>2019-10-16T22:20:20Z</time>
      </trkpt>
      <trkpt lat="39.63815" lon="-7.63911">
        <ele>182.123</ele>
        <time>2019-10-16T22:20:40Z</time>
      </trkpt>
      <trkpt lat="39.6381" lon="-7.63901">
        <ele>182.008</ele>
        <time>2019-10-16T22:21:00Z</time>
      </trkpt>
      <trkpt lat="39.63803" lon="-7.63889">
        <ele>182.173</ele>
        <time>2019-10-16T22:21:20Z</time>
      </trkpt>
      <trkpt lat="39.63794" lon="-7.63874">
        <ele>181.851</ele>
        <time>2019-10-16T22:21:40Z</time>
      </trkpt>
      <trkpt lat="39.63759" lon="-7.63823">
        <ele>182.373</ele>
        <time>2019-10-16T22:22:00Z</time>
      </trkpt>
      <trkpt lat="39.63753" lon="-7.63809">
        <ele>182.013</ele>
        <time>2019-10-16T22:22:20Z</time>
      </trkpt>
      <trkpt lat="39.63747" lon="-7.63793">
        <ele>181.735</ele>
        <time>2019-10-16T22:22:40Z</time>
      </trkpt>
      <trkpt lat="39.63742" lon="-7.63777">
        <ele>181.356</ele>
        <time>2019-10-16T22:23:00Z</time>
      </trkpt>
      <trkpt lat="39.63739" lon="-7.6376">
        <ele>181.788</ele>
        <time>2019-10-16T22:23:20Z</time>
      </trkpt>
      <trkpt lat="39.63736" lon="-7.63742">
        <ele>182.058</ele>
        <time>2019-10-16T22:23:40Z</time>
      </trkpt>
      <trkpt lat="39.6373" lon="-7.63671">
        <ele>181.095</ele>
        <time>2019-10-16T22:24:00Z</time>
      </trkpt>
      <trkpt lat="39.63731" lon="-7.63654">
        <ele>180.749</ele>
        <time>2019-10-16T22:24:20Z</time>
      </trkpt>
      <trkpt lat="39.63732" lon="-7.63636">
        <ele>180.823</ele>
        <time>2019-10-16T22:24:40Z</time>
      </trkpt>
      <trkpt lat="39.63732" lon="-7.63617">
        <ele>181.408</ele>
        <time>2019-10-16T22:25:00Z</time>
      </trkpt>
      <trkpt lat="39.63731" lon="-7.63597">
        <ele>181.793</ele>
        <time>2019-10-16T22:25:20Z</time>
      </trkpt>
      <trkpt lat="39.63736" lon="-7.63381">
        <ele>182.921</ele>
        <time>2019-10-16T22:25:40Z</time>
      </trkpt>
      <trkpt lat="39.63733" lon="-7.63132">
        <ele>180.623</ele>
        <time>2019-10-16T22:26:00Z</time>
      </trkpt>
      <trkpt lat="39.63735" lon="-7.63111">
        <ele>180.563</ele>
        <time>2019-10-16T22:26:20Z</time>
      </trkpt>
      <trkpt lat="39.63742" lon="-7.6303">
        <ele>180.275</ele>
        <time>2019-10-16T22:26:40Z</time>
      </trkpt>
      <trkpt lat="39.63741" lon="-7.6301">
        <ele>181.076</ele>
        <time>2019-10-16T22:27:00Z</time>
      </trkpt>
      <trkpt lat="39.63728" lon="-7.62833">
        <ele>178.248</ele>
        <time>2019-10-16T22:27:20Z</time>
      </trkpt>
      <trkpt lat="39.63722" lon="-7.62567">
        <ele>183.038</ele>
        <time>2019-10-16T22:27:40Z</time>
      </trkpt>
      <trkpt lat="39.63711" lon="-7.62282">
        <ele>182.142</ele>
        <time>2019-10-16T22:28:00Z</time>
      </trkpt>
      <trkpt lat="39.63712" lon="-7.62264">
        <ele>182.522</ele>
        <time>2019-10-16T22:28:20Z</time>
      </trkpt>
      <trkpt lat="39.63714" lon="-7.62258">
        <ele>182.714</ele>
        <time>2019-10-16T22:28:40Z</time>
      </trkpt>
      <trkpt lat="39.63718" lon="-7.62253">
        <ele>182.908</ele>
        <time>2019-10-16T22:29:00Z</time>
      </trkpt>
      <trkpt lat="39.63728" lon="-7.62239">
        <ele>183.338</ele>
        <time>2019-10-16T22:29:20Z</time>
      </trkpt>
      <trkpt lat="39.63732" lon="-7.62228">
        <ele>183.546</ele>
        <time>2019-10-16T22:29:40Z</time>
      </trkpt>
      <trkpt lat="39.63741" lon="-7.62204">
        <ele>182.748</ele>
        <time>2019-10-16T22:30:00Z</time>
      </trkpt>
      <trkpt lat="39.63746" lon="-7.62194">
        <ele>182.168</ele>
        <time>2019-10-16T22:30:20Z</time>
      </trkpt>
      <trkpt lat="39.63752" lon="-7.62184">
        <ele>181.55</ele>
        <time>2019-10-16T22:30:40Z</time>
      </trkpt>
      <trkpt lat="39.6376" lon="-7.62174">
        <ele>180.991</ele>
        <time>2019-10-16T22:31:00Z</time>
      </trkpt>
      <trkpt lat="39.63768" lon="-7.62164">
        <ele>180.413</ele>
        <time>2019-10-16T22:31:20Z</time>
      </trkpt>
      <trkpt lat="39.63784" lon="-7.62145">
        <ele>180.653</ele>
        <time>2019-10-16T22:31:40Z</time>
      </trkpt>
      <trkpt lat="39.63793" lon="-7.62137">
        <ele>180.587</ele>
        <time>2019-10-16T22:32:00Z</time>
      </trkpt>
      <trkpt lat="39.63837" lon="-7.62106">
        <ele>182.242</ele>
        <time>2019-10-16T22:32:20Z</time>
      </trkpt>
      <trkpt lat="39.63849" lon="-7.621">
        <ele>182.226</ele>
        <time>2019-10-16T22:32:40Z</time>
      </trkpt>
      <trkpt lat="39.63885" lon="-7.62088">
        <ele>182.008</ele>
        <time>2019-10-16T22:33:00Z</time>
      </trkpt>
      <trkpt lat="39.63985" lon="-7.62062">
        <ele>182.022</ele>
        <time>2019-10-16T22:33:20Z</time>
      </trkpt>
      <trkpt lat="39.63996" lon="-7.62058">
        <ele>182.02</ele>
        <time>2019-10-16T22:33:40Z</time>
      </trkpt>
      <trkpt lat="39.64016" lon="-7.62049">
        <ele>182.432</ele>
        <time>2019-10-16T22:34:00Z</time>
      </trkpt>
      <trkpt lat="39.64025" lon="-7.62046">
        <ele>182.682</ele>
        <time>2019-10-16T22:34:20Z</time>
      </trkpt>
      <trkpt lat="39.64036" lon="-7.62046">
        <ele>182.864</ele>
        <time>2019-10-16T22:34:40Z</time>
      </trkpt>
      <trkpt lat="39.64047" lon="-7.62049">
        <ele>183.065</ele>
        <time>2019-10-16T22:35:00Z</time>
      </trkpt>
      <trkpt lat="39.6406" lon="-7.62054">
        <ele>183.237</ele>
        <time>2019-10-16T22:35:20Z</time>
      </trkpt>
      <trkpt lat="39.64072" lon="-7.6206">
        <ele>183.587</ele>
        <time>2019-10-16T22:35:40Z</time>
      </trkpt>
      <trkpt lat="39.64125" lon="-7.62086">
        <ele>183.944</ele>
        <time>2019-10-16T22:36:00Z</time>
      </trkpt>
      <trkpt lat="39.6415" lon="-7.62096">
        <ele>182.905</ele>
        <time>2019-10-16T22:36:20Z</time>
      </trkpt>
      <trkpt lat="39.64163" lon="-7.62099">
        <ele>182.415</ele>
        <time>2019-10-16T22:36:40Z</time>
      </trkpt>
      <trkpt lat="39.64242" lon="-7.62101">
        <ele>182.108</ele>
        <time>2019-10-16T22:37:00Z</time>
      </trkpt>
      <trkpt lat="39.64252" lon="-7.62095">
        <ele>182.588</ele>
        <time>2019-10-16T22:37:20Z</time>
      </trkpt>
      <trkpt lat="39.64262" lon="-7.6209">
        <ele>182.476</ele>
        <time>2019-10-16T22:37:40Z</time>
      </trkpt>
      <trkpt lat="39.64273" lon="-7.62086">
        <ele>182.228</ele>
        <time>2019-10-16T22:38:00Z</time>
      </trkpt>
      <trkpt lat="39.64284" lon="-7.62085">
        <ele>181.828</ele>
        <time>2019-10-16T22:38:20Z</time>
      </trkpt>
      <trkpt lat="39.64296" lon="-7.62085">
        <ele>181.33</ele>
        <time>2019-10-16T22:38:40Z</time>
      </trkpt>
      <trkpt lat="39.64309" lon="-7.62086">
        <ele>180.911</ele>
        <time>2019-10-16T22:39:00Z</time>
      </trkpt>
      <trkpt lat="39.64343" lon="-7.62085">
        <ele>181.373</ele>
        <time>2019-10-16T22:39:20Z</time>
      </trkpt>
      <trkpt lat="39.64371" lon="-7.62075">
        <ele>182.443</ele>
        <time>2019-10-16T22:39:40Z</time>
      </trkpt>
      <trkpt lat="39.64381" lon="-7.62067">
        <ele>182.763</ele>
        <time>2019-10-16T22:40:00Z</time>
      </trkpt>
      <trkpt lat="39.6439" lon="-7.62057">
        <ele>183.044</ele>
        <time>2019-10-16T22:40:20Z</time>
      </trkpt>
      <trkpt lat="39.64399" lon="-7.62044">
        <ele>182.618</ele>
        <time>2019-10-16T22:40:40Z</time>
      </trkpt>
      <trkpt lat="39.64406" lon="-7.62031">
        <ele>182.108</ele>
        <time>2019-10-16T22:41:00Z</time>
      </trkpt>
      <trkpt lat="39.64412" lon="-7.62018">
        <ele>182.15</ele>
        <time>2019-10-16T22:41:20Z</time>
      </trkpt>
      <trkpt lat="39.64419" lon="-7.62006">
        <ele>182.118</ele>
        <time>2019-10-16T22:41:40Z</time>
      </trkpt>
      <trkpt lat="39.64426" lon="-7.61994">
        <ele>182.54</ele>
        <time>2019-10-16T22:42:00Z</time>
      </trkpt>
      <trkpt lat="39.64455" lon="-7.6196">
        <ele>184.78</ele>
        <time>2019-10-16T22:42:20Z</time>
      </trkpt>
      <trkpt lat="39.64461" lon="-7.61956">
        <ele>185.372</ele>
        <time>2019-10-16T22:42:40Z</time>
      </trkpt>
      <trkpt lat="39.64467" lon="-7.61952">
        <ele>186.053</ele>
        <time>2019-10-16T22:43:00Z</time>
      </trkpt>
      <trkpt lat="39.64472" lon="-7.61946">
        <ele>186.995</ele>
        <time>2019-10-16T22:43:20Z</time>
      </trkpt>
      <trkpt lat="39.64476" lon="-7.61939">
        <ele>186.685</ele>
        <time>2019-10-16T22:43:40Z</time>
      </trkpt>
      <trkpt lat="39.6448" lon="-7.6193">
        <ele>186.417</ele>
        <time>2019-10-16T22:44:00Z</time>
      </trkpt>
      <trkpt lat="39.64493" lon="-7.61902">
        <ele>186.787</ele>
        <time>2019-10-16T22:44:20Z</time>
      </trkpt>
      <trkpt lat="39.64499" lon="-7.61886">
        <ele>187.015</ele>
        <time>2019-10-16T22:44:40Z</time>
      </trkpt>
      <trkpt lat="39.64505" lon="-7.61875">
        <ele>187.508</ele>
        <time>2019-10-16T22:45:00Z</time>
      </trkpt>
      <trkpt lat="39.64514" lon="-7.61862">
        <ele>188.045</ele>
        <time>2019-10-16T22:45:20Z</time>
      </trkpt>
      <trkpt lat="39.64539" lon="-7.61828">
        <ele>188.213</ele>
        <time>2019-10-16T22:45:40Z</time>
      </trkpt>
      <trkpt lat="39.64568" lon="-7.61787">
        <ele>189.695</ele>
        <time>2019-10-16T22:46:00Z</time>
      </trkpt>
      <trkpt lat="39.64579" lon="-7.61775">
        <ele>191.495</ele>
        <time>2019-10-16T22:46:20Z</time>
      </trkpt>
      <trkpt lat="39.64615" lon="-7.61738">
        <ele>194.747</ele>
        <time>2019-10-16T22:46:40Z</time>
      </trkpt>
      <trkpt lat="39.64624" lon="-7.61724">
        <ele>193.658</ele>
        <time>2019-10-16T22:47:00Z</time>
      </trkpt>
      <trkpt lat="39.64643" lon="-7.61697">
        <ele>193.28</ele>
        <time>2019-10-16T22:47:20Z</time>
      </trkpt>
      <trkpt lat="39.64652" lon="-7.61681">
        <ele>193.98</ele>
        <time>2019-10-16T22:47:40Z</time>
      </trkpt>
      <trkpt lat="39.64659" lon="-7.61664">
        <ele>194.777</ele>
        <time>2019-10-16T22:48:00Z</time>
      </trkpt>
      <trkpt lat="39.6468" lon="-7.61615">
        <ele>195.161</ele>
        <time>2019-10-16T22:48:20Z</time>
      </trkpt>
      <trkpt lat="39.64688" lon="-7.61601">
        <ele>195.027</ele>
        <time>2019-10-16T22:48:40Z</time>
      </trkpt>
      <trkpt lat="39.64696" lon="-7.61586">
        <ele>195.008</ele>
        <time>2019-10-16T22:49:00Z</time>
      </trkpt>
      <trkpt lat="39.64704" lon="-7.61569">
        <ele>195.251</ele>
        <time>2019-10-16T22:49:20Z</time>
      </trkpt>
      <trkpt lat="39.64712" lon="-7.61552">
        <ele>195.599</ele>
        <time>2019-10-16T22:49:40Z</time>
      </trkpt>
      <trkpt lat="39.64721" lon="-7.61535">
        <ele>195.861</ele>
        <time>2019-10-16T22:50:00Z</time>
      </trkpt>
      <trkpt lat="39.64739" lon="-7.61502">
        <ele>196.091</ele>
        <time>2019-10-16T22:50:20Z</time>
      </trkpt>
      <trkpt lat="39.6475" lon="-7.61488">
        <ele>196.483</ele>
        <time>2019-10-16T22:50:40Z</time>
      </trkpt>
      <trkpt lat="39.64831" lon="-7.61405">
        <ele>196.494</ele>
        <time>2019-10-16T22:51:00Z</time>
      </trkpt>
      <trkpt lat="39.6484" lon="-7.61398">
        <ele>197.186</ele>
        <time>2019-10-16T22:51:20Z</time>
      </trkpt>
      <trkpt lat="39.64849" lon="-7.61394">
        <ele>197.956</ele>
        <time>2019-10-16T22:51:40Z</time>
      </trkpt>
      <trkpt lat="39.6486" lon="-7.61392">
        <ele>198.728</ele>
        <time>2019-10-16T22:52:00Z</time>
      </trkpt>
      <trkpt lat="39.64953" lon="-7.61378">
        <ele>200.989</ele>
        <time>2019-10-16T22:52:20Z</time>
      </trkpt>
      <trkpt lat="39.65" lon="-7.61377">
        <ele>202.017</ele>
        <time>2019-10-16T22:52:40Z</time>
      </trkpt>
      <trkpt lat="39.6503" lon="-7.61381">
        <ele>199.908</ele>
        <time>2019-10-16T22:53:00Z</time>
      </trkpt>
      <trkpt lat="39.65146" lon="-7.61381">
        <ele>198.846</ele>
        <time>2019-10-16T22:53:20Z</time>
      </trkpt>
      <trkpt lat="39.65182" lon="-7.61372">
        <ele>197.074</ele>
        <time>2019-10-16T22:53:40Z</time>
      </trkpt>
      <trkpt lat="39.65202" lon="-7.61363">
        <ele>197.216</ele>
        <time>2019-10-16T22:54:00Z</time>
      </trkpt>
      <trkpt lat="39.65213" lon="-7.61361">
        <ele>197.716</ele>
        <time>2019-10-16T22:54:20Z</time>
      </trkpt>
      <trkpt lat="39.65224" lon="-7.61359">
        <ele>198.088</ele>
        <time>2019-10-16T22:54:40Z</time>
      </trkpt>
      <trkpt lat="39.65238" lon="-7.61356">
        <ele>197.959</ele>
        <time>2019-10-16T22:55:00Z</time>
      </trkpt>
      <trkpt lat="39.65278" lon="-7.61347">
        <ele>195.081</ele>
        <time>2019-10-16T22:55:20Z</time>
      </trkpt>
      <trkpt lat="39.65318" lon="-7.61347">
        <ele>194.711</ele>
        <time>2019-10-16T22:55:40Z</time>
      </trkpt>
      <trkpt lat="39.65329" lon="-7.61344">
        <ele>194.743</ele>
        <time>2019-10-16T22:56:00Z</time>
      </trkpt>
      <trkpt lat="39.65338" lon="-7.61338">
        <ele>194.364</ele>
        <time>2019-10-16T22:56:20Z</time>
      </trkpt>
      <trkpt lat="39.65346" lon="-7.6133">
        <ele>194.01</ele>
        <time>2019-10-16T22:56:40Z</time>
      </trkpt>
      <trkpt lat="39.65352" lon="-7.61321">
        <ele>194.308</ele>
        <time>2019-10-16T22:57:00Z</time>
      </trkpt>
      <trkpt lat="39.65356" lon="-7.61309">
        <ele>194.748</ele>
        <time>2019-10-16T22:57:20Z</time>
      </trkpt>
      <trkpt lat="39.65359" lon="-7.61294">
        <ele>195.356</ele>
        <time>2019-10-16T22:57:40Z</time>
      </trkpt>
      <trkpt lat="39.65364" lon="-7.61277">
        <ele>196.148</ele>
        <time>2019-10-16T22:58:00Z</time>
      </trkpt>
      <trkpt lat="39.65391" lon="-7.61208">
        <ele>198.688</ele>
        <time>2019-10-16T22:58:20Z</time>
      </trkpt>
      <trkpt lat="39.654" lon="-7.61192">
        <ele>200.02</ele>
        <time>2019-10-16T22:58:40Z</time>
      </trkpt>
      <trkpt lat="39.65422" lon="-7.61159">
        <ele>203.081</ele>
        <time>2019-10-16T22:59:00Z</time>
      </trkpt>
      <trkpt lat="39.65448" lon="-7.61126">
        <ele>203.953</ele>
        <time>2019-10-16T22:59:20Z</time>
      </trkpt>
      <trkpt lat="39.65495" lon="-7.61074">
        <ele>201.963</ele>
        <time>2019-10-16T22:59:40Z</time>
      </trkpt>
      <trkpt lat="39.65508" lon="-7.61064">
        <ele>201.462</ele>
        <time>2019-10-16T23:00:00Z</time>
      </trkpt>
      <trkpt lat="39.65531" lon="-7.61046">
        <ele>200.583</ele>
        <time>2019-10-16T23:00:20Z</time>
      </trkpt>
      <trkpt lat="39.65554" lon="-7.61024">
        <ele>200.511</ele>
        <time>2019-10-16T23:00:40Z</time>
      </trkpt>
      <trkpt lat="39.65564" lon="-7.61011">
        <ele>199.408</ele>
        <time>2019-10-16T23:01:00Z</time>
      </trkpt>
      <trkpt lat="39.65572" lon="-7.60998">
        <ele>198.75</ele>
        <time>2019-10-16T23:01:20Z</time>
      </trkpt>
      <trkpt lat="39.65585" lon="-7.60976">
        <ele>197.378</ele>
        <time>2019-10-16T23:01:40Z</time>
      </trkpt>
      <trkpt lat="39.65592" lon="-7.60966">
        <ele>195.86</ele>
        <time>2019-10-16T23:02:00Z</time>
      </trkpt>
      <trkpt lat="39.65601" lon="-7.60956">
        <ele>193.92</ele>
        <time>2019-10-16T23:02:20Z</time>
      </trkpt>
      <trkpt lat="39.65612" lon="-7.60946">
        <ele>191.982</ele>
        <time>2019-10-16T23:02:40Z</time>
      </trkpt>
      <trkpt lat="39.65624" lon="-7.60937">
        <ele>191.093</ele>
        <time>2019-10-16T23:03:00Z</time>
      </trkpt>
      <trkpt lat="39.65634" lon="-7.6093">
        <ele>190.585</ele>
        <time>2019-10-16T23:03:20Z</time>
      </trkpt>
      <trkpt lat="39.65646" lon="-7.6092">
        <ele>191.165</ele>
        <time>2019-10-16T23:03:40Z</time>
      </trkpt>
      <trkpt lat="39.65649" lon="-7.60917">
        <ele>191.565</ele>
        <time>2019-10-16T23:04:00Z</time>
      </trkpt>
      <trkpt lat="39.65651" lon="-7.60915">
        <ele>191.568</ele>
        <time>2019-10-16T23:04:20Z</time>
      </trkpt>
      <trkpt lat="39.6565" lon="-7.60915">
        <ele>191.414</ele>
        <time>2019-10-16T23:04:40Z</time>
      </trkpt>
      <trkpt lat="39.6565" lon="-7.60915">
        <ele>191.508</ele>
        <time>2019-10-16T23:05:00Z</time>
      </trkpt>
      <trkpt lat="39.65655" lon="-7.60906">
        <ele>191.77</ele>
        <time>2019-10-16T23:05:20Z</time>
      </trkpt>
      <trkpt lat="39.65678" lon="-7.60867">
        <ele>195.648</ele>
        <time>2019-10-16T23:05:40Z</time>
      </trkpt>
      <trkpt lat="39.65685" lon="-7.60853">
        <ele>196.57</ele>
        <time>2019-10-16T23:06:00Z</time>
      </trkpt>
      <trkpt lat="39.65706" lon="-7.60814">
        <ele>197.72</ele>
        <time>2019-10-16T23:06:20Z</time>
      </trkpt>
      <trkpt lat="39.65711" lon="-7.60803">
        <ele>197.662</ele>
        <time>2019-10-16T23:06:40Z</time>
      </trkpt>
      <trkpt lat="39.65714" lon="-7.60791">
        <ele>196.813</ele>
        <time>2019-10-16T23:07:00Z</time>
      </trkpt>
      <trkpt lat="39.65708" lon="-7.60761">
        <ele>195.865</ele>
        <time>2019-10-16T23:07:20Z</time>
      </trkpt>
      <trkpt lat="39.6569" lon="-7.60646">
        <ele>195.495</ele>
        <time>2019-10-16T23:07:40Z</time>
      </trkpt>
      <trkpt lat="39.65672" lon="-7.6052">
        <ele>194.118</ele>
        <time>2019-10-16T23:08:00Z</time>
      </trkpt>
      <trkpt lat="39.65651" lon="-7.60484">
        <ele>191.998</ele>
        <time>2019-10-16T23:08:20Z</time>
      </trkpt>
      <trkpt lat="39.65608" lon="-7.60427">
        <ele>174.917</ele>
        <time>2019-10-16T23:08:40Z</time>
      </trkpt>
      <trkpt lat="39.65542" lon="-7.60301">
        <ele>156.208</ele>
        <time>2019-10-16T23:09:00Z</time>
      </trkpt>
      <trkpt lat="39.65439" lon="-7.60131">
        <ele>150.465</ele>
        <time>2019-10-16T23:09:20Z</time>
      </trkpt>
      <trkpt lat="39.65434" lon="-7.60054">
        <ele>150.193</ele>
        <time>2019-10-16T23:09:40Z</time>
      </trkpt>
      <trkpt lat="39.65427" lon="-7.60024">
        <ele>148.835</ele>
        <time>2019-10-16T23:10:00Z</time>
      </trkpt>
      <trkpt lat="39.65429" lon="-7.60001">
        <ele>148.215</ele>
        <time>2019-10-16T23:10:20Z</time>
      </trkpt>
      <trkpt lat="39.65462" lon="-7.59973">
        <ele>153.657</ele>
        <time>2019-10-16T23:10:40Z</time>
      </trkpt>
      <trkpt lat="39.65516" lon="-7.59928">
        <ele>151.438</ele>
        <time>2019-10-16T23:11:00Z</time>
      </trkpt>
      <trkpt lat="39.65554" lon="-7.59881">
        <ele>148.98</ele>
        <time>2019-10-16T23:11:20Z</time>
      </trkpt>
      <trkpt lat="39.65562" lon="-7.59814">
        <ele>144.65</ele>
        <time>2019-10-16T23:11:40Z</time>
      </trkpt>
      <trkpt lat="39.65569" lon="-7.59776">
        <ele>144.994</ele>
        <time>2019-10-16T23:12:00Z</time>
      </trkpt>
      <trkpt lat="39.65561" lon="-7.59671">
        <ele>137.557</ele>
        <time>2019-10-16T23:12:20Z</time>
      </trkpt>
      <trkpt lat="39.65573" lon="-7.59593">
        <ele>131.522</ele>
        <time>2019-10-16T23:12:40Z</time>
      </trkpt>
      <trkpt lat="39.65588" lon="-7.59579">
        <ele>132.108</ele>
        <time>2019-10-16T23:13:00Z</time>
      </trkpt>
      <trkpt lat="39.65643" lon="-7.59603">
        <ele>128.263</ele>
        <time>2019-10-16T23:13:20Z</time>
      </trkpt>
      <trkpt lat="39.65714" lon="-7.59641">
        <ele>133.681</ele>
        <time>2019-10-16T23:13:40Z</time>
      </trkpt>
      <trkpt lat="39.6578" lon="-7.59676">
        <ele>143.673</ele>
        <time>2019-10-16T23:14:00Z</time>
      </trkpt>
      <trkpt lat="39.65896" lon="-7.59648">
        <ele>132.933</ele>
        <time>2019-10-16T23:14:20Z</time>
      </trkpt>
      <trkpt lat="39.6603" lon="-7.59599">
        <ele>142.875</ele>
        <time>2019-10-16T23:14:40Z</time>
      </trkpt>
      <trkpt lat="39.66131" lon="-7.59518">
        <ele>126.226</ele>
        <time>2019-10-16T23:15:00Z</time>
      </trkpt>
      <trkpt lat="39.66168" lon="-7.59484">
        <ele>115.158</ele>
        <time>2019-10-16T23:15:20Z</time>
      </trkpt>
      <trkpt lat="39.66187" lon="-7.59479">
        <ele>115.398</ele>
        <time>2019-10-16T23:15:40Z</time>
      </trkpt>
      <trkpt lat="39.66197" lon="-7.59438">
        <ele>113.986</ele>
        <time>2019-10-16T23:16:00Z</time>
      </trkpt>
      <trkpt lat="39.6622" lon="-7.59433">
        <ele>118.56</ele>
        <time>2019-10-16T23:16:20Z</time>
      </trkpt>
      <trkpt lat="39.66241" lon="-7.59444">
        <ele>120.426</ele>
        <time>2019-10-16T23:16:40Z</time>
      </trkpt>
      <trkpt lat="39.66617" lon="-7.5935">
        <ele>143.608</ele>
        <time>2019-10-16T23:17:00Z</time>
      </trkpt>
      <trkpt lat="39.66686" lon="-7.59366">
        <ele>147.332</ele>
        <time>2019-10-16T23:17:20Z</time>
      </trkpt>
      <trkpt lat="39.6676" lon="-7.59358">
        <ele>151.42</ele>
        <time>2019-10-16T23:17:40Z</time>
      </trkpt>
      <trkpt lat="39.66799" lon="-7.5934">
        <ele>154.042</ele>
        <time>2019-10-16T23:18:00Z</time>
      </trkpt>
      <trkpt lat="39.66888" lon="-7.59306">
        <ele>156.032</ele>
        <time>2019-10-16T23:18:20Z</time>
      </trkpt>
      <trkpt lat="39.67016" lon="-7.59223">
        <ele>153.414</ele>
        <time>2019-10-16T23:18:40Z</time>
      </trkpt>
      <trkpt lat="39.6705" lon="-7.59208">
        <ele>151.285</ele>
        <time>2019-10-16T23:19:00Z</time>
      </trkpt>
      <trkpt lat="39.67075" lon="-7.5914">
        <ele>147.047</ele>
        <time>2019-10-16T23:19:20Z</time>
      </trkpt>
      <trkpt lat="39.6707" lon="-7.59065">
        <ele>142.067</ele>
        <time>2019-10-16T23:19:40Z</time>
      </trkpt>
      <trkpt lat="39.67104" lon="-7.59023">
        <ele>140.846</ele>
        <time>2019-10-16T23:20:00Z</time>
      </trkpt>
      <trkpt lat="39.67189" lon="-7.59015">
        <ele>135.688</ele>
        <time>2019-10-16T23:20:20Z</time>
      </trkpt>
      <trkpt lat="39.67221" lon="-7.58988">
        <ele>132.116</ele>
        <time>2019-10-16T23:20:40Z</time>
      </trkpt>
      <trkpt lat="39.6723" lon="-7.58983">
        <ele>132.208</ele>
        <time>2019-10-16T23:21:00Z</time>
      </trkpt>
      <trkpt lat="39.6723" lon="-7.58966">
        <ele>131.458</ele>
        <time>2019-10-16T23:21:20Z</time>
      </trkpt>
      <trkpt lat="39.67229" lon="-7.58947">
        <ele>130.826</ele>
        <time>2019-10-16T23:21:40Z</time>
      </trkpt>
      <trkpt lat="39.67223" lon="-7.58927">
        <ele>129.668</ele>
        <time>2019-10-16T23:22:00Z</time>
      </trkpt>
      <trkpt lat="39.67217" lon="-7.58907">
        <ele>127.938</ele>
        <time>2019-10-16T23:22:20Z</time>
      </trkpt>
      <trkpt lat="39.67209" lon="-7.58887">
        <ele>126.78</ele>
        <time>2019-10-16T23:22:40Z</time>
      </trkpt>
      <trkpt lat="39.67184" lon="-7.58824">
        <ele>129.511</ele>
        <time>2019-10-16T23:23:00Z</time>
      </trkpt>
      <trkpt lat="39.67165" lon="-7.58783">
        <ele>133.583</ele>
        <time>2019-10-16T23:23:20Z</time>
      </trkpt>
      <trkpt lat="39.67154" lon="-7.58766">
        <ele>135.873</ele>
        <time>2019-10-16T23:23:40Z</time>
      </trkpt>
      <trkpt lat="39.67143" lon="-7.58751">
        <ele>137.833</ele>
        <time>2019-10-16T23:24:00Z</time>
      </trkpt>
      <trkpt lat="39.6711" lon="-7.58707">
        <ele>140.523</ele>
        <time>2019-10-16T23:24:20Z</time>
      </trkpt>
      <trkpt lat="39.67102" lon="-7.58693">
        <ele>140.815</ele>
        <time>2019-10-16T23:24:40Z</time>
      </trkpt>
      <trkpt lat="39.67098" lon="-7.58678">
        <ele>142.608</ele>
        <time>2019-10-16T23:25:00Z</time>
      </trkpt>
      <trkpt lat="39.67097" lon="-7.58663">
        <ele>144.667</ele>
        <time>2019-10-16T23:25:20Z</time>
      </trkpt>
      <trkpt lat="39.67099" lon="-7.58647">
        <ele>147.225</ele>
        <time>2019-10-16T23:25:40Z</time>
      </trkpt>
      <trkpt lat="39.67103" lon="-7.5863">
        <ele>149.697</ele>
        <time>2019-10-16T23:26:00Z</time>
      </trkpt>
      <trkpt lat="39.67108" lon="-7.58612">
        <ele>151.127</ele>
        <time>2019-10-16T23:26:20Z</time>
      </trkpt>
      <trkpt lat="39.67122" lon="-7.58565">
        <ele>149.529</ele>
        <time>2019-10-16T23:26:40Z</time>
      </trkpt>
      <trkpt lat="39.67123" lon="-7.58552">
        <ele>148.79</ele>
        <time>2019-10-16T23:27:00Z</time>
      </trkpt>
      <trkpt lat="39.6712" lon="-7.58541">
        <ele>148.472</ele>
        <time>2019-10-16T23:27:20Z</time>
      </trkpt>
      <trkpt lat="39.67113" lon="-7.58534">
        <ele>149.162</ele>
        <time>2019-10-16T23:27:40Z</time>
      </trkpt>
      <trkpt lat="39.67103" lon="-7.58528">
        <ele>149.976</ele>
        <time>2019-10-16T23:28:00Z</time>
      </trkpt>
      <trkpt lat="39.6709" lon="-7.58524">
        <ele>151.19</ele>
        <time>2019-10-16T23:28:20Z</time>
      </trkpt>
      <trkpt lat="39.67076" lon="-7.58521">
        <ele>152.719</ele>
        <time>2019-10-16T23:28:40Z</time>
      </trkpt>
      <trkpt lat="39.67061" lon="-7.58519">
        <ele>154.408</ele>
        <time>2019-10-16T23:29:00Z</time>
      </trkpt>
      <trkpt lat="39.67014" lon="-7.58513">
        <ele>159.811</ele>
        <time>2019-10-16T23:29:20Z</time>
      </trkpt>
      <trkpt lat="39.66987" lon="-7.58505">
        <ele>162.289</ele>
        <time>2019-10-16T23:29:40Z</time>
      </trkpt>
      <trkpt lat="39.66976" lon="-7.58496">
        <ele>162.771</ele>
        <time>2019-10-16T23:30:00Z</time>
      </trkpt>
      <trkpt lat="39.66966" lon="-7.58483">
        <ele>163.141</ele>
        <time>2019-10-16T23:30:20Z</time>
      </trkpt>
      <trkpt lat="39.66935" lon="-7.58437">
        <ele>165.923</ele>
        <time>2019-10-16T23:30:40Z</time>
      </trkpt>
      <trkpt lat="39.66899" lon="-7.58387">
        <ele>168.424</ele>
        <time>2019-10-16T23:31:00Z</time>
      </trkpt>
      <trkpt lat="39.66863" lon="-7.58345">
        <ele>171.636</ele>
        <time>2019-10-16T23:31:20Z</time>
      </trkpt>
      <trkpt lat="39.66851" lon="-7.58338">
        <ele>172.576</ele>
        <time>2019-10-16T23:31:40Z</time>
      </trkpt>
      <trkpt lat="39.66829" lon="-7.58328">
        <ele>173.547</ele>
        <time>2019-10-16T23:32:00Z</time>
      </trkpt>
      <trkpt lat="39.6682" lon="-7.58319">
        <ele>174.329</ele>
        <time>2019-10-16T23:32:20Z</time>
      </trkpt>
      <trkpt lat="39.66813" lon="-7.58306">
        <ele>175.221</ele>
        <time>2019-10-16T23:32:40Z</time>
      </trkpt>
      <trkpt lat="39.66788" lon="-7.58261">
        <ele>173.708</ele>
        <time>2019-10-16T23:33:00Z</time>
      </trkpt>
      <trkpt lat="39.66728" lon="-7.58172">
        <ele>179.438</ele>
        <time>2019-10-16T23:33:20Z</time>
      </trkpt>
      <trkpt lat="39.66722" lon="-7.58157">
        <ele>179.796</ele>
        <time>2019-10-16T23:33:40Z</time>
      </trkpt>
      <trkpt lat="39.66719" lon="-7.58141">
        <ele>179.878</ele>
        <time>2019-10-16T23:34:00Z</time>
      </trkpt>
      <trkpt lat="39.66717" lon="-7.58123">
        <ele>179.088</ele>
        <time>2019-10-16T23:34:20Z</time>
      </trkpt>
      <trkpt lat="39.66716" lon="-7.58103">
        <ele>178.15</ele>
        <time>2019-10-16T23:34:40Z</time>
      </trkpt>
      <trkpt lat="39.66714" lon="-7.58003">
        <ele>178.061</ele>
        <time>2019-10-16T23:35:00Z</time>
      </trkpt>
      <trkpt lat="39.66717" lon="-7.57984">
        <ele>178.683</ele>
        <time>2019-10-16T23:35:20Z</time>
      </trkpt>
      <trkpt lat="39.66723" lon="-7.57966">
        <ele>179.053</ele>
        <time>2019-10-16T23:35:40Z</time>
      </trkpt>
      <trkpt lat="39.66763" lon="-7.5786">
        <ele>182.512</ele>
        <time>2019-10-16T23:36:00Z</time>
      </trkpt>
      <trkpt lat="39.66765" lon="-7.57845">
        <ele>182.832</ele>
        <time>2019-10-16T23:36:20Z</time>
      </trkpt>
      <trkpt lat="39.66764" lon="-7.5783">
        <ele>183.105</ele>
        <time>2019-10-16T23:36:40Z</time>
      </trkpt>
      <trkpt lat="39.6676" lon="-7.57814">
        <ele>183.908</ele>
        <time>2019-10-16T23:37:00Z</time>
      </trkpt>
      <trkpt lat="39.66755" lon="-7.57798">
        <ele>185.175</ele>
        <time>2019-10-16T23:37:20Z</time>
      </trkpt>
      <trkpt lat="39.66749" lon="-7.57781">
        <ele>186.743</ele>
        <time>2019-10-16T23:37:40Z</time>
      </trkpt>
      <trkpt lat="39.66721" lon="-7.57718">
        <ele>189.185</ele>
        <time>2019-10-16T23:38:00Z</time>
      </trkpt>
      <trkpt lat="39.66703" lon="-7.57676">
        <ele>192.085</ele>
        <time>2019-10-16T23:38:20Z</time>
      </trkpt>
      <trkpt lat="39.66691" lon="-7.57632">
        <ele>195.577</ele>
        <time>2019-10-16T23:38:40Z</time>
      </trkpt>
      <trkpt lat="39.6669" lon="-7.57625">
        <ele>195.918</ele>
        <time>2019-10-16T23:39:00Z</time>
      </trkpt>
      <trkpt lat="39.66688" lon="-7.57614">
        <ele>196.53</ele>
        <time>2019-10-16T23:39:20Z</time>
      </trkpt>
      <trkpt lat="39.66684" lon="-7.57611">
        <ele>196.65</ele>
        <time>2019-10-16T23:39:40Z</time>
      </trkpt>
      <trkpt lat="39.66679" lon="-7.57608">
        <ele>196.599</ele>
        <time>2019-10-16T23:40:00Z</time>
      </trkpt>
      <trkpt lat="39.66663" lon="-7.57595">
        <ele>196.707</ele>
        <time>2019-10-16T23:40:20Z</time>
      </trkpt>
      <trkpt lat="39.66659" lon="-7.5759">
        <ele>197.027</ele>
        <time>2019-10-16T23:40:40Z</time>
      </trkpt>
      <trkpt lat="39.66656" lon="-7.57585">
        <ele>197.308</ele>
        <time>2019-10-16T23:41:00Z</time>
      </trkpt>
      <trkpt lat="39.66655" lon="-7.5758">
        <ele>197.533</ele>
        <time>2019-10-16T23:41:20Z</time>
      </trkpt>
      <trkpt lat="39.66655" lon="-7.57575">
        <ele>197.591</ele>
        <time>2019-10-16T23:41:40Z</time>
      </trkpt>
      <trkpt lat="39.66657" lon="-7.57571">
        <ele>197.543</ele>
        <time>2019-10-16T23:42:00Z</time>
      </trkpt>
      <trkpt lat="39.6666" lon="-7.57565">
        <ele>197.463</ele>
        <time>2019-10-16T23:42:20Z</time>
      </trkpt>
      <trkpt lat="39.66665" lon="-7.57557">
        <ele>197.175</ele>
        <time>2019-10-16T23:42:40Z</time>
      </trkpt>
      <trkpt lat="39.6667" lon="-7.57548">
        <ele>196.426</ele>
        <time>2019-10-16T23:43:00Z</time>
      </trkpt>
      <trkpt lat="39.66718" lon="-7.57473">
        <ele>190.118</ele>
        <time>2019-10-16T23:43:20Z</time>
      </trkpt>
      <trkpt lat="39.6675" lon="-7.57432">
        <ele>190.468</ele>
        <time>2019-10-16T23:43:40Z</time>
      </trkpt>
      <trkpt lat="39.66753" lon="-7.57424">
        <ele>190.553</ele>
        <time>2019-10-16T23:44:00Z</time>
      </trkpt>
      <trkpt lat="39.66752" lon="-7.57415">
        <ele>190.704</ele>
        <time>2019-10-16T23:44:20Z</time>
      </trkpt>
      <trkpt lat="39.66749" lon="-7.57405">
        <ele>190.614</ele>
        <time>2019-10-16T23:44:40Z</time>
      </trkpt>
      <trkpt lat="39.66745" lon="-7.57396">
        <ele>190.708</ele>
        <time>2019-10-16T23:45:00Z</time>
      </trkpt>
      <trkpt lat="39.66724" lon="-7.57347">
        <ele>192.449</ele>
        <time>2019-10-16T23:45:20Z</time>
      </trkpt>
      <trkpt lat="39.66714" lon="-7.57324">
        <ele>193.717</ele>
        <time>2019-10-16T23:45:40Z</time>
      </trkpt>
      <trkpt lat="39.66711" lon="-7.57314">
        <ele>194.429</ele>
        <time>2019-10-16T23:46:00Z</time>
      </trkpt>
      <trkpt lat="39.66709" lon="-7.57303">
        <ele>195.059</ele>
        <time>2019-10-16T23:46:20Z</time>
      </trkpt>
      <trkpt lat="39.6671" lon="-7.57293">
        <ele>195.381</ele>
        <time>2019-10-16T23:46:40Z</time>
      </trkpt>
      <trkpt lat="39.66712" lon="-7.57283">
        <ele>195.592</ele>
        <time>2019-10-16T23:47:00Z</time>
      </trkpt>
      <trkpt lat="39.66716" lon="-7.57273">
        <ele>195.394</ele>
        <time>2019-10-16T23:47:20Z</time>
      </trkpt>
      <trkpt lat="39.66739" lon="-7.57205">
        <ele>195.144</ele>
        <time>2019-10-16T23:47:40Z</time>
      </trkpt>
      <trkpt lat="39.66746" lon="-7.57192">
        <ele>195.421</ele>
        <time>2019-10-16T23:48:00Z</time>
      </trkpt>
      <trkpt lat="39.66786" lon="-7.57129">
        <ele>196.141</ele>
        <time>2019-10-16T23:48:20Z</time>
      </trkpt>
      <trkpt lat="39.66793" lon="-7.57119">
        <ele>195.905</ele>
        <time>2019-10-16T23:48:40Z</time>
      </trkpt>
      <trkpt lat="39.66807" lon="-7.57098">
        <ele>194.508</ele>
        <time>2019-10-16T23:49:00Z</time>
      </trkpt>
      <trkpt lat="39.66813" lon="-7.57085">
        <ele>194.056</ele>
        <time>2019-10-16T23:49:20Z</time>
      </trkpt>
      <trkpt lat="39.66819" lon="-7.57071">
        <ele>194.564</ele>
        <time>2019-10-16T23:49:40Z</time>
      </trkpt>
      <trkpt lat="39.66834" lon="-7.57029">
        <ele>196.946</ele>
        <time>2019-10-16T23:50:00Z</time>
      </trkpt>
      <trkpt lat="39.66839" lon="-7.57021">
        <ele>196.616</ele>
        <time>2019-10-16T23:50:20Z</time>
      </trkpt>
      <trkpt lat="39.66845" lon="-7.57015">
        <ele>196.638</ele>
        <time>2019-10-16T23:50:40Z</time>
      </trkpt>
      <trkpt lat="39.66853" lon="-7.57011">
        <ele>197.219</ele>
        <time>2019-10-16T23:51:00Z</time>
      </trkpt>
      <trkpt lat="39.66863" lon="-7.57009">
        <ele>198.131</ele>
        <time>2019-10-16T23:51:20Z</time>
      </trkpt>
      <trkpt lat="39.66874" lon="-7.57008">
        <ele>198.441</ele>
        <time>2019-10-16T23:51:40Z</time>
      </trkpt>
      <trkpt lat="39.66949" lon="-7.56987">
        <ele>198.389</ele>
        <time>2019-10-16T23:52:00Z</time>
      </trkpt>
      <trkpt lat="39.66984" lon="-7.56969">
        <ele>199.306</ele>
        <time>2019-10-16T23:52:20Z</time>
      </trkpt>
      <trkpt lat="39.66988" lon="-7.56965">
        <ele>199.326</ele>
        <time>2019-10-16T23:52:40Z</time>
      </trkpt>
      <trkpt lat="39.6699" lon="-7.56959">
        <ele>199.008</ele>
        <time>2019-10-16T23:53:00Z</time>
      </trkpt>
      <trkpt lat="39.66989" lon="-7.56952">
        <ele>198.762</ele>
        <time>2019-10-16T23:53:20Z</time>
      </trkpt>
      <trkpt lat="39.66987" lon="-7.56945">
        <ele>198.58</ele>
        <time>2019-10-16T23:53:40Z</time>
      </trkpt>
      <trkpt lat="39.66984" lon="-7.56937">
        <ele>198.222</ele>
        <time>2019-10-16T23:54:00Z</time>
      </trkpt>
      <trkpt lat="39.66982" lon="-7.56931">
        <ele>198.022</ele>
        <time>2019-10-16T23:54:20Z</time>
      </trkpt>
      <trkpt lat="39.66976" lon="-7.56918">
        <ele>197.864</ele>
        <time>2019-10-16T23:54:40Z</time>
      </trkpt>
      <trkpt lat="39.66975" lon="-7.56914">
        <ele>197.725</ele>
        <time>2019-10-16T23:55:00Z</time>
      </trkpt>
      <trkpt lat="39.66973" lon="-7.56908">
        <ele>197.617</ele>
        <time>2019-10-16T23:55:20Z</time>
      </trkpt>
      <trkpt lat="39.66971" lon="-7.56898">
        <ele>197.397</ele>
        <time>2019-10-16T23:55:40Z</time>
      </trkpt>
      <trkpt lat="39.66968" lon="-7.56886">
        <ele>196.743</ele>
        <time>2019-10-16T23:56:00Z</time>
      </trkpt>
      <trkpt lat="39.66954" lon="-7.56825">
        <ele>193.264</ele>
        <time>2019-10-16T23:56:20Z</time>
      </trkpt>
      <trkpt lat="39.66948" lon="-7.56812">
        <ele>193.71</ele>
        <time>2019-10-16T23:56:40Z</time>
      </trkpt>
      <trkpt lat="39.6694" lon="-7.56801">
        <ele>194.208</ele>
        <time>2019-10-16T23:57:00Z</time>
      </trkpt>
      <trkpt lat="39.66931" lon="-7.56792">
        <ele>194.758</ele>
        <time>2019-10-16T23:57:20Z</time>
      </trkpt>
      <trkpt lat="39.66922" lon="-7.56785">
        <ele>195.356</ele>
        <time>2019-10-16T23:57:40Z</time>
      </trkpt>
      <trkpt lat="39.66916" lon="-7.56779">
        <ele>195.998</ele>
        <time>2019-10-16T23:58:00Z</time>
      </trkpt>
      <trkpt lat="39.66912" lon="-7.56773">
        <ele>195.578</ele>
        <time>2019-10-16T23:58:20Z</time>
      </trkpt>
      <trkpt lat="39.6691" lon="-7.56767">
        <ele>195.39</ele>
        <time>2019-10-16T23:58:40Z</time>
      </trkpt>
      <trkpt lat="39.66911" lon="-7.56758">
        <ele>195.281</ele>
        <time>2019-10-16T23:59:00Z</time>
      </trkpt>
      <trkpt lat="39.66912" lon="-7.56746">
        <ele>194.883</ele>
        <time>2019-10-16T23:59:20Z</time>
      </trkpt>
      <trkpt lat="39.66927" lon="-7.56638">
        <ele>190.163</ele>
        <time>2019-10-16T23:59:40Z</time>
      </trkpt>
      <trkpt lat="39.66953" lon="-7.56529">
        <ele>194.049</ele>
        <time>2019-10-17T00:00:00Z</time>
      </trkpt>
      <trkpt lat="39.66961" lon="-7.56479">
        <ele>194.802</ele>
        <time>2019-10-17T00:00:20Z</time>
      </trkpt>
      <trkpt lat="39.66966" lon="-7.56463">
        <ele>194.422</ele>
        <time>2019-10-17T00:00:40Z</time>
      </trkpt>
      <trkpt lat="39.66973" lon="-7.56447">
        <ele>194.008</ele>
        <time>2019-10-17T00:01:00Z</time>
      </trkpt>
      <trkpt lat="39.6698" lon="-7.5643">
        <ele>193.778</ele>
        <time>2019-10-17T00:01:20Z</time>
      </trkpt>
      <trkpt lat="39.66985" lon="-7.56412">
        <ele>194.216</ele>
        <time>2019-10-17T00:01:40Z</time>
      </trkpt>
      <trkpt lat="39.66989" lon="-7.56394">
        <ele>195.198</ele>
        <time>2019-10-17T00:02:00Z</time>
      </trkpt>
      <trkpt lat="39.66992" lon="-7.56375">
        <ele>195.678</ele>
        <time>2019-10-17T00:02:20Z</time>
      </trkpt>
      <trkpt lat="39.66993" lon="-7.56358">
        <ele>195.98</ele>
        <time>2019-10-17T00:02:40Z</time>
      </trkpt>
      <trkpt lat="39.66995" lon="-7.56343">
        <ele>195.461</ele>
        <time>2019-10-17T00:03:00Z</time>
      </trkpt>
      <trkpt lat="39.66998" lon="-7.5632">
        <ele>194.083</ele>
        <time>2019-10-17T00:03:20Z</time>
      </trkpt>
      <trkpt lat="39.67001" lon="-7.56316">
        <ele>193.773</ele>
        <time>2019-10-17T00:03:40Z</time>
      </trkpt>
      <trkpt lat="39.6701" lon="-7.56302">
        <ele>192.337</ele>
        <time>2019-10-17T00:04:00Z</time>
      </trkpt>
      <trkpt lat="39.67033" lon="-7.56256">
        <ele>187.349</ele>
        <time>2019-10-17T00:04:20Z</time>
      </trkpt>
      <trkpt lat="39.67036" lon="-7.56245">
        <ele>186.413</ele>
        <time>2019-10-17T00:04:40Z</time>
      </trkpt>
      <trkpt lat="39.67037" lon="-7.56232">
        <ele>185.808</ele>
        <time>2019-10-17T00:05:00Z</time>
      </trkpt>
      <trkpt lat="39.67036" lon="-7.56219">
        <ele>185.237</ele>
        <time>2019-10-17T00:05:20Z</time>
      </trkpt>
      <trkpt lat="39.67034" lon="-7.56206">
        <ele>185.095</ele>
        <time>2019-10-17T00:05:40Z</time>
      </trkpt>
      <trkpt lat="39.67031" lon="-7.56193">
        <ele>184.977</ele>
        <time>2019-10-17T00:06:00Z</time>
      </trkpt>
      <trkpt lat="39.67027" lon="-7.56182">
        <ele>185.047</ele>
        <time>2019-10-17T00:06:20Z</time>
      </trkpt>
      <trkpt lat="39.67024" lon="-7.56171">
        <ele>184.769</ele>
        <time>2019-10-17T00:06:40Z</time>
      </trkpt>
      <trkpt lat="39.67022" lon="-7.5616">
        <ele>184.15</ele>
        <time>2019-10-17T00:07:00Z</time>
      </trkpt>
      <trkpt lat="39.67023" lon="-7.5615">
        <ele>183.262</ele>
        <time>2019-10-17T00:07:20Z</time>
      </trkpt>
      <trkpt lat="39.67025" lon="-7.56139">
        <ele>182.632</ele>
        <time>2019-10-17T00:07:40Z</time>
      </trkpt>
      <trkpt lat="39.67028" lon="-7.56128">
        <ele>180.764</ele>
        <time>2019-10-17T00:08:00Z</time>
      </trkpt>
      <trkpt lat="39.6703" lon="-7.56117">
        <ele>178.206</ele>
        <time>2019-10-17T00:08:20Z</time>
      </trkpt>
      <trkpt lat="39.6703" lon="-7.56105">
        <ele>176.216</ele>
        <time>2019-10-17T00:08:40Z</time>
      </trkpt>
      <trkpt lat="39.67028" lon="-7.56094">
        <ele>174.508</ele>
        <time>2019-10-17T00:09:00Z</time>
      </trkpt>
      <trkpt lat="39.67023" lon="-7.56083">
        <ele>172.38</ele>
        <time>2019-10-17T00:09:20Z</time>
      </trkpt>
      <trkpt lat="39.67017" lon="-7.56072">
        <ele>170.368</ele>
        <time>2019-10-17T00:09:40Z</time>
      </trkpt>
      <trkpt lat="39.67003" lon="-7.56037">
        <ele>164.99</ele>
        <time>2019-10-17T00:10:00Z</time>
      </trkpt>
      <trkpt lat="39.67" lon="-7.56025">
        <ele>163.98</ele>
        <time>2019-10-17T00:10:20Z</time>
      </trkpt>
      <trkpt lat="39.66997" lon="-7.56013">
        <ele>163.642</ele>
        <time>2019-10-17T00:10:40Z</time>
      </trkpt>
      <trkpt lat="39.66996" lon="-7.56">
        <ele>163.323</ele>
        <time>2019-10-17T00:11:00Z</time>
      </trkpt>
      <trkpt lat="39.66995" lon="-7.55986">
        <ele>162.215</ele>
        <time>2019-10-17T00:11:20Z</time>
      </trkpt>
      <trkpt lat="39.66995" lon="-7.55958">
        <ele>158.115</ele>
        <time>2019-10-17T00:11:40Z</time>
      </trkpt>
      <trkpt lat="39.66995" lon="-7.5593">
        <ele>152.726</ele>
        <time>2019-10-17T00:12:00Z</time>
      </trkpt>
      <trkpt lat="39.66994" lon="-7.55918">
        <ele>150.447</ele>
        <time>2019-10-17T00:12:20Z</time>
      </trkpt>
      <trkpt lat="39.66993" lon="-7.55908">
        <ele>149.111</ele>
        <time>2019-10-17T00:12:40Z</time>
      </trkpt>
      <trkpt lat="39.6699" lon="-7.55899">
        <ele>148.108</ele>
        <time>2019-10-17T00:13:00Z</time>
      </trkpt>
      <trkpt lat="39.66986" lon="-7.55893">
        <ele>147.366</ele>
        <time>2019-10-17T00:13:20Z</time>
      </trkpt>
      <trkpt lat="39.66981" lon="-7.55891">
        <ele>146.744</ele>
        <time>2019-10-17T00:13:40Z</time>
      </trkpt>
      <trkpt lat="39.66975" lon="-7.5589">
        <ele>146.226</ele>
        <time>2019-10-17T00:14:00Z</time>
      </trkpt>
      <trkpt lat="39.66967" lon="-7.55893">
        <ele>145.676</ele>
        <time>2019-10-17T00:14:20Z</time>
      </trkpt>
      <trkpt lat="39.66959" lon="-7.55896">
        <ele>144.928</ele>
        <time>2019-10-17T00:14:40Z</time>
      </trkpt>
      <trkpt lat="39.6695" lon="-7.55898">
        <ele>144.269</ele>
        <time>2019-10-17T00:15:00Z</time>
      </trkpt>
      <trkpt lat="39.66941" lon="-7.55897">
        <ele>143.351</ele>
        <time>2019-10-17T00:15:20Z</time>
      </trkpt>
      <trkpt lat="39.66931" lon="-7.55892">
        <ele>142.351</ele>
        <time>2019-10-17T00:15:40Z</time>
      </trkpt>
      <trkpt lat="39.669" lon="-7.55874">
        <ele>139.596</ele>
        <time>2019-10-17T00:16:00Z</time>
      </trkpt>
      <trkpt lat="39.66889" lon="-7.5587">
        <ele>138.731</ele>
        <time>2019-10-17T00:16:20Z</time>
      </trkpt>
      <trkpt lat="39.66879" lon="-7.55868">
        <ele>138.724</ele>
        <time>2019-10-17T00:16:40Z</time>
      </trkpt>
      <trkpt lat="39.66869" lon="-7.55868">
        <ele>138.608</ele>
        <time>2019-10-17T00:17:00Z</time>
      </trkpt>
      <trkpt lat="39.66859" lon="-7.55869">
        <ele>138.883</ele>
        <time>2019-10-17T00:17:20Z</time>
      </trkpt>
      <trkpt lat="39.66848" lon="-7.55869">
        <ele>140.491</ele>
        <time>2019-10-17T00:17:40Z</time>
      </trkpt>
      <trkpt lat="39.66836" lon="-7.55868">
        <ele>142.123</ele>
        <time>2019-10-17T00:18:00Z</time>
      </trkpt>
      <trkpt lat="39.66825" lon="-7.55864">
        <ele>144.463</ele>
        <time>2019-10-17T00:18:20Z</time>
      </trkpt>
      <trkpt lat="39.66813" lon="-7.55859">
        <ele>146.875</ele>
        <time>2019-10-17T00:18:40Z</time>
      </trkpt>
      <trkpt lat="39.66803" lon="-7.55853">
        <ele>149.046</ele>
        <time>2019-10-17T00:19:00Z</time>
      </trkpt>
      <trkpt lat="39.66787" lon="-7.55847">
        <ele>151.838</ele>
        <time>2019-10-17T00:19:20Z</time>
      </trkpt>
      <trkpt lat="39.6678" lon="-7.55849">
        <ele>152.548</ele>
        <time>2019-10-17T00:19:40Z</time>
      </trkpt>
      <trkpt lat="39.66775" lon="-7.55856">
        <ele>152.827</ele>
        <time>2019-10-17T00:20:00Z</time>
      </trkpt>
      <trkpt lat="39.6677" lon="-7.55863">
        <ele>153.068</ele>
        <time>2019-10-17T00:20:20Z</time>
      </trkpt>
      <trkpt lat="39.66765" lon="-7.55866">
        <ele>153.614</ele>
        <time>2019-10-17T00:20:40Z</time>
      </trkpt>
      <trkpt lat="39.66761" lon="-7.55867">
        <ele>154.008</ele>
        <time>2019-10-17T00:21:00Z</time>
      </trkpt>
      <trkpt lat="39.66759" lon="-7.55864">
        <ele>154.566</ele>
        <time>2019-10-17T00:21:20Z</time>
      </trkpt>
      <trkpt lat="39.66758" lon="-7.5586">
        <ele>154.964</ele>
        <time>2019-10-17T00:21:40Z</time>
      </trkpt>
      <trkpt lat="39.66759" lon="-7.55855">
        <ele>155.326</ele>
        <time>2019-10-17T00:22:00Z</time>
      </trkpt>
      <trkpt lat="39.66761" lon="-7.55847">
        <ele>155.676</ele>
        <time>2019-10-17T00:22:20Z</time>
      </trkpt>
      <trkpt lat="39.66764" lon="-7.55839">
        <ele>156.018</ele>
        <time>2019-10-17T00:22:40Z</time>
      </trkpt>
      <trkpt lat="39.66766" lon="-7.55828">
        <ele>156.959</ele>
        <time>2019-10-17T00:23:00Z</time>
      </trkpt>
      <trkpt lat="39.66767" lon="-7.55816">
        <ele>158.421</ele>
        <time>2019-10-17T00:23:20Z</time>
      </trkpt>
      <trkpt lat="39.6677" lon="-7.55806">
        <ele>159.471</ele>
        <time>2019-10-17T00:23:40Z</time>
      </trkpt>
      <trkpt lat="39.66775" lon="-7.55799">
        <ele>159.793</ele>
        <time>2019-10-17T00:24:00Z</time>
      </trkpt>
      <trkpt lat="39.66783" lon="-7.55794">
        <ele>159.365</ele>
        <time>2019-10-17T00:24:20Z</time>
      </trkpt>
      <trkpt lat="39.66793" lon="-7.5579">
        <ele>158.421</ele>
        <time>2019-10-17T00:24:40Z</time>
      </trkpt>
      <trkpt lat="39.668" lon="-7.55786">
        <ele>158.108</ele>
        <time>2019-10-17T00:25:00Z</time>
      </trkpt>
      <trkpt lat="39.66805" lon="-7.55781">
        <ele>158.523</ele>
        <time>2019-10-17T00:25:20Z</time>
      </trkpt>
      <trkpt lat="39.66807" lon="-7.55774">
        <ele>159.271</ele>
        <time>2019-10-17T00:25:40Z</time>
      </trkpt>
      <trkpt lat="39.66807" lon="-7.55767">
        <ele>160.333</ele>
        <time>2019-10-17T00:26:00Z</time>
      </trkpt>
      <trkpt lat="39.66804" lon="-7.5576">
        <ele>161.793</ele>
        <time>2019-10-17T00:26:20Z</time>
      </trkpt>
      <trkpt lat="39.668" lon="-7.55756">
        <ele>162.965</ele>
        <time>2019-10-17T00:26:40Z</time>
      </trkpt>
      <trkpt lat="39.66796" lon="-7.55754">
        <ele>163.886</ele>
        <time>2019-10-17T00:27:00Z</time>
      </trkpt>
      <trkpt lat="39.66791" lon="-7.55754">
        <ele>164.688</ele>
        <time>2019-10-17T00:27:20Z</time>
      </trkpt>
      <trkpt lat="39.66784" lon="-7.55755">
        <ele>165.568</ele>
        <time>2019-10-17T00:27:40Z</time>
      </trkpt>
      <trkpt lat="39.66775" lon="-7.55754">
        <ele>166.659</ele>
        <time>2019-10-17T00:28:00Z</time>
      </trkpt>
      <trkpt lat="39.66763" lon="-7.55753">
        <ele>167.703</ele>
        <time>2019-10-17T00:28:20Z</time>
      </trkpt>
      <trkpt lat="39.66751" lon="-7.5575">
        <ele>168.923</ele>
        <time>2019-10-17T00:28:40Z</time>
      </trkpt>
      <trkpt lat="39.66738" lon="-7.55745">
        <ele>171.008</ele>
        <time>2019-10-17T00:29:00Z</time>
      </trkpt>
      <trkpt lat="39.66725" lon="-7.55736">
        <ele>173.299</ele>
        <time>2019-10-17T00:29:20Z</time>
      </trkpt>
      <trkpt lat="39.66712" lon="-7.55726">
        <ele>175.387</ele>
        <time>2019-10-17T00:29:40Z</time>
      </trkpt>
      <trkpt lat="39.66699" lon="-7.55716">
        <ele>177.959</ele>
        <time>2019-10-17T00:30:00Z</time>
      </trkpt>
      <trkpt lat="39.66679" lon="-7.55696">
        <ele>181.299</ele>
        <time>2019-10-17T00:30:20Z</time>
      </trkpt>
      <trkpt lat="39.6667" lon="-7.55684">
        <ele>182.761</ele>
        <time>2019-10-17T00:30:40Z</time>
      </trkpt>
      <trkpt lat="39.66645" lon="-7.55644">
        <ele>184.522</ele>
        <time>2019-10-17T00:31:00Z</time>
      </trkpt>
      <trkpt lat="39.66638" lon="-7.55628">
        <ele>184.674</ele>
        <time>2019-10-17T00:31:20Z</time>
      </trkpt>
      <trkpt lat="39.66613" lon="-7.55579">
        <ele>184.084</ele>
        <time>2019-10-17T00:31:40Z</time>
      </trkpt>
      <trkpt lat="39.66602" lon="-7.55567">
        <ele>185.193</ele>
        <time>2019-10-17T00:32:00Z</time>
      </trkpt>
      <trkpt lat="39.66579" lon="-7.55544">
        <ele>187.365</ele>
        <time>2019-10-17T00:32:20Z</time>
      </trkpt>
      <trkpt lat="39.66569" lon="-7.55532">
        <ele>187.921</ele>
        <time>2019-10-17T00:32:40Z</time>
      </trkpt>
      <trkpt lat="39.66561" lon="-7.5552">
        <ele>188.508</ele>
        <time>2019-10-17T00:33:00Z</time>
      </trkpt>
      <trkpt lat="39.66555" lon="-7.55508">
        <ele>189.173</ele>
        <time>2019-10-17T00:33:20Z</time>
      </trkpt>
      <trkpt lat="39.66552" lon="-7.55496">
        <ele>189.681</ele>
        <time>2019-10-17T00:33:40Z</time>
      </trkpt>
      <trkpt lat="39.66552" lon="-7.55484">
        <ele>189.613</ele>
        <time>2019-10-17T00:34:00Z</time>
      </trkpt>
      <trkpt lat="39.66553" lon="-7.55472">
        <ele>189.913</ele>
        <time>2019-10-17T00:34:20Z</time>
      </trkpt>
      <trkpt lat="39.66553" lon="-7.5546">
        <ele>191.695</ele>
        <time>2019-10-17T00:34:40Z</time>
      </trkpt>
      <trkpt lat="39.66551" lon="-7.5545">
        <ele>192.816</ele>
        <time>2019-10-17T00:35:00Z</time>
      </trkpt>
      <trkpt lat="39.66546" lon="-7.55441">
        <ele>193.338</ele>
        <time>2019-10-17T00:35:20Z</time>
      </trkpt>
      <trkpt lat="39.66538" lon="-7.55433">
        <ele>193.318</ele>
        <time>2019-10-17T00:35:40Z</time>
      </trkpt>
      <trkpt lat="39.66528" lon="-7.55426">
        <ele>193.167</ele>
        <time>2019-10-17T00:36:00Z</time>
      </trkpt>
      <trkpt lat="39.66519" lon="-7.55418">
        <ele>193.281</ele>
        <time>2019-10-17T00:36:20Z</time>
      </trkpt>
      <trkpt lat="39.66511" lon="-7.5541">
        <ele>193.819</ele>
        <time>2019-10-17T00:36:40Z</time>
      </trkpt>
      <trkpt lat="39.66504" lon="-7.554">
        <ele>194.708</ele>
        <time>2019-10-17T00:37:00Z</time>
      </trkpt>
      <trkpt lat="39.665" lon="-7.55389">
        <ele>195.96</ele>
        <time>2019-10-17T00:37:20Z</time>
      </trkpt>
      <trkpt lat="39.66497" lon="-7.5538">
        <ele>196.728</ele>
        <time>2019-10-17T00:37:40Z</time>
      </trkpt>
      <trkpt lat="39.66497" lon="-7.55373">
        <ele>197.11</ele>
        <time>2019-10-17T00:38:00Z</time>
      </trkpt>
      <trkpt lat="39.66499" lon="-7.5537">
        <ele>197.38</ele>
        <time>2019-10-17T00:38:20Z</time>
      </trkpt>
      <trkpt lat="39.66503" lon="-7.55369">
        <ele>197.792</ele>
        <time>2019-10-17T00:38:40Z</time>
      </trkpt>
      <trkpt lat="39.66509" lon="-7.55368">
        <ele>198.193</ele>
        <time>2019-10-17T00:39:00Z</time>
      </trkpt>
      <trkpt lat="39.66514" lon="-7.55368">
        <ele>198.595</ele>
        <time>2019-10-17T00:39:20Z</time>
      </trkpt>
      <trkpt lat="39.66555" lon="-7.55362">
        <ele>202.875</ele>
        <time>2019-10-17T00:39:40Z</time>
      </trkpt>
      <trkpt lat="39.66562" lon="-7.55358">
        <ele>204.156</ele>
        <time>2019-10-17T00:40:00Z</time>
      </trkpt>
      <trkpt lat="39.66595" lon="-7.55342">
        <ele>208.459</ele>
        <time>2019-10-17T00:40:20Z</time>
      </trkpt>
      <trkpt lat="39.6662" lon="-7.55331">
        <ele>210.314</ele>
        <time>2019-10-17T00:40:40Z</time>
      </trkpt>
      <trkpt lat="39.66627" lon="-7.55327">
        <ele>210.708</ele>
        <time>2019-10-17T00:41:00Z</time>
      </trkpt>
      <trkpt lat="39.66631" lon="-7.55322">
        <ele>211.019</ele>
        <time>2019-10-17T00:41:20Z</time>
      </trkpt>
      <trkpt lat="39.66635" lon="-7.55313">
        <ele>211.537</ele>
        <time>2019-10-17T00:41:40Z</time>
      </trkpt>
      <trkpt lat="39.66638" lon="-7.55302">
        <ele>212.259</ele>
        <time>2019-10-17T00:42:00Z</time>
      </trkpt>
      <trkpt lat="39.66641" lon="-7.55289">
        <ele>213.269</ele>
        <time>2019-10-17T00:42:20Z</time>
      </trkpt>
      <trkpt lat="39.66643" lon="-7.55275">
        <ele>214.341</ele>
        <time>2019-10-17T00:42:40Z</time>
      </trkpt>
      <trkpt lat="39.66645" lon="-7.5526">
        <ele>215.752</ele>
        <time>2019-10-17T00:43:00Z</time>
      </trkpt>
      <trkpt lat="39.66644" lon="-7.55245">
        <ele>216.894</ele>
        <time>2019-10-17T00:43:20Z</time>
      </trkpt>
      <trkpt lat="39.66642" lon="-7.55229">
        <ele>217.594</ele>
        <time>2019-10-17T00:43:40Z</time>
      </trkpt>
      <trkpt lat="39.66641" lon="-7.55214">
        <ele>218.476</ele>
        <time>2019-10-17T00:44:00Z</time>
      </trkpt>
      <trkpt lat="39.66642" lon="-7.55197">
        <ele>219.49</ele>
        <time>2019-10-17T00:44:20Z</time>
      </trkpt>
      <trkpt lat="39.66646" lon="-7.5518">
        <ele>219.519</ele>
        <time>2019-10-17T00:44:40Z</time>
      </trkpt>
      <trkpt lat="39.66662" lon="-7.55119">
        <ele>220.908</ele>
        <time>2019-10-17T00:45:00Z</time>
      </trkpt>
      <trkpt lat="39.66675" lon="-7.55064">
        <ele>226.211</ele>
        <time>2019-10-17T00:45:20Z</time>
      </trkpt>
      <trkpt lat="39.66678" lon="-7.55048">
        <ele>227.829</ele>
        <time>2019-10-17T00:45:40Z</time>
      </trkpt>
      <trkpt lat="39.66683" lon="-7.55033">
        <ele>228.951</ele>
        <time>2019-10-17T00:46:00Z</time>
      </trkpt>
      <trkpt lat="39.66695" lon="-7.55002">
        <ele>230.041</ele>
        <time>2019-10-17T00:46:20Z</time>
      </trkpt>
      <trkpt lat="39.667" lon="-7.54985">
        <ele>230.783</ele>
        <time>2019-10-17T00:46:40Z</time>
      </trkpt>
      <trkpt lat="39.66708" lon="-7.54953">
        <ele>231.164</ele>
        <time>2019-10-17T00:47:00Z</time>
      </trkpt>
      <trkpt lat="39.66709" lon="-7.54942">
        <ele>231.026</ele>
        <time>2019-10-17T00:47:20Z</time>
      </trkpt>
      <trkpt lat="39.66709" lon="-7.54935">
        <ele>230.866</ele>
        <time>2019-10-17T00:47:40Z</time>
      </trkpt>
      <trkpt lat="39.66707" lon="-7.54929">
        <ele>230.747</ele>
        <time>2019-10-17T00:48:00Z</time>
      </trkpt>
      <trkpt lat="39.66703" lon="-7.54922">
        <ele>230.829</ele>
        <time>2019-10-17T00:48:20Z</time>
      </trkpt>
      <trkpt lat="39.66697" lon="-7.54914">
        <ele>231.021</ele>
        <time>2019-10-17T00:48:40Z</time>
      </trkpt>
      <trkpt lat="39.66691" lon="-7.54902">
        <ele>231.408</ele>
        <time>2019-10-17T00:49:00Z</time>
      </trkpt>
      <trkpt lat="39.66686" lon="-7.54888">
        <ele>231.738</ele>
        <time>2019-10-17T00:49:20Z</time>
      </trkpt>
      <trkpt lat="39.66681" lon="-7.54872">
        <ele>232.136</ele>
        <time>2019-10-17T00:49:40Z</time>
      </trkpt>
      <trkpt lat="39.66678" lon="-7.54854">
        <ele>232.668</ele>
        <time>2019-10-17T00:50:00Z</time>
      </trkpt>
      <trkpt lat="39.66675" lon="-7.54835">
        <ele>232.718</ele>
        <time>2019-10-17T00:50:20Z</time>
      </trkpt>
      <trkpt lat="39.66673" lon="-7.54815">
        <ele>233.98</ele>
        <time>2019-10-17T00:50:40Z</time>
      </trkpt>
      <trkpt lat="39.66669" lon="-7.54758">
        <ele>240.721</ele>
        <time>2019-10-17T00:51:00Z</time>
      </trkpt>
      <trkpt lat="39.66666" lon="-7.54724">
        <ele>243.773</ele>
        <time>2019-10-17T00:51:20Z</time>
      </trkpt>
      <trkpt lat="39.6666" lon="-7.54692">
        <ele>242.823</ele>
        <time>2019-10-17T00:51:40Z</time>
      </trkpt>
      <trkpt lat="39.66658" lon="-7.54677">
        <ele>243.113</ele>
        <time>2019-10-17T00:52:00Z</time>
      </trkpt>
      <trkpt lat="39.66657" lon="-7.54663">
        <ele>243.543</ele>
        <time>2019-10-17T00:52:20Z</time>
      </trkpt>
      <trkpt lat="39.66655" lon="-7.54648">
        <ele>244.407</ele>
        <time>2019-10-17T00:52:40Z</time>
      </trkpt>
      <trkpt lat="39.66652" lon="-7.54633">
        <ele>245.408</ele>
        <time>2019-10-17T00:53:00Z</time>
      </trkpt>
      <trkpt lat="39.66647" lon="-7.54586">
        <ele>246.855</ele>
        <time>2019-10-17T00:53:20Z</time>
      </trkpt>
      <trkpt lat="39.66649" lon="-7.54572">
        <ele>246.043</ele>
        <time>2019-10-17T00:53:40Z</time>
      </trkpt>
      <trkpt lat="39.66652" lon="-7.5456">
        <ele>245.275</ele>
        <time>2019-10-17T00:54:00Z</time>
      </trkpt>
      <trkpt lat="39.66657" lon="-7.54549">
        <ele>244.895</ele>
        <time>2019-10-17T00:54:20Z</time>
      </trkpt>
      <trkpt lat="39.66664" lon="-7.5454">
        <ele>244.417</ele>
        <time>2019-10-17T00:54:40Z</time>
      </trkpt>
      <trkpt lat="39.66673" lon="-7.54531">
        <ele>244.548</ele>
        <time>2019-10-17T00:55:00Z</time>
      </trkpt>
      <trkpt lat="39.66682" lon="-7.54523">
        <ele>244.98</ele>
        <time>2019-10-17T00:55:20Z</time>
      </trkpt>
      <trkpt lat="39.66691" lon="-7.54518">
        <ele>245.18</ele>
        <time>2019-10-17T00:55:40Z</time>
      </trkpt>
      <trkpt lat="39.66701" lon="-7.54513">
        <ele>244.887</ele>
        <time>2019-10-17T00:56:00Z</time>
      </trkpt>
      <trkpt lat="39.66712" lon="-7.5451">
        <ele>244.342</ele>
        <time>2019-10-17T00:56:20Z</time>
      </trkpt>
      <trkpt lat="39.66725" lon="-7.54506">
        <ele>243.826</ele>
        <time>2019-10-17T00:56:40Z</time>
      </trkpt>
      <trkpt lat="39.66738" lon="-7.545">
        <ele>244.108</ele>
        <time>2019-10-17T00:57:00Z</time>
      </trkpt>
      <trkpt lat="39.66751" lon="-7.54492">
        <ele>244.562</ele>
        <time>2019-10-17T00:57:20Z</time>
      </trkpt>
      <trkpt lat="39.66763" lon="-7.54483">
        <ele>244.44</ele>
        <time>2019-10-17T00:57:40Z</time>
      </trkpt>
      <trkpt lat="39.66772" lon="-7.54475">
        <ele>244.632</ele>
        <time>2019-10-17T00:58:00Z</time>
      </trkpt>
      <trkpt lat="39.6678" lon="-7.54466">
        <ele>244.362</ele>
        <time>2019-10-17T00:58:20Z</time>
      </trkpt>
      <trkpt lat="39.66823" lon="-7.54402">
        <ele>235.824</ele>
        <time>2019-10-17T00:58:40Z</time>
      </trkpt>
      <trkpt lat="39.66839" lon="-7.54379">
        <ele>235.625</ele>
        <time>2019-10-17T00:59:00Z</time>
      </trkpt>
      <trkpt lat="39.66847" lon="-7.54372">
        <ele>236.787</ele>
        <time>2019-10-17T00:59:20Z</time>
      </trkpt>
      <trkpt lat="39.66856" lon="-7.54367">
        <ele>238.137</ele>
        <time>2019-10-17T00:59:40Z</time>
      </trkpt>
      <trkpt lat="39.66867" lon="-7.54364">
        <ele>238.578</ele>
        <time>2019-10-17T01:00:00Z</time>
      </trkpt>
      <trkpt lat="39.66878" lon="-7.54363">
        <ele>237.733</ele>
        <time>2019-10-17T01:00:20Z</time>
      </trkpt>
      <trkpt lat="39.6689" lon="-7.54364">
        <ele>236.826</ele>
        <time>2019-10-17T01:00:40Z</time>
      </trkpt>
      <trkpt lat="39.66961" lon="-7.54354">
        <ele>232.608</ele>
        <time>2019-10-17T01:01:00Z</time>
      </trkpt>
      <trkpt lat="39.66971" lon="-7.54348">
        <ele>232.571</ele>
        <time>2019-10-17T01:01:20Z</time>
      </trkpt>
      <trkpt lat="39.66981" lon="-7.54339">
        <ele>232.349</ele>
        <time>2019-10-17T01:01:40Z</time>
      </trkpt>
      <trkpt lat="39.6699" lon="-7.5433">
        <ele>231.861</ele>
        <time>2019-10-17T01:02:00Z</time>
      </trkpt>
      <trkpt lat="39.66998" lon="-7.54319">
        <ele>231.191</ele>
        <time>2019-10-17T01:02:20Z</time>
      </trkpt>
      <trkpt lat="39.67005" lon="-7.54308">
        <ele>229.933</ele>
        <time>2019-10-17T01:02:40Z</time>
      </trkpt>
      <trkpt lat="39.67009" lon="-7.54296">
        <ele>229.154</ele>
        <time>2019-10-17T01:03:00Z</time>
      </trkpt>
      <trkpt lat="39.67014" lon="-7.54284">
        <ele>228.676</ele>
        <time>2019-10-17T01:03:20Z</time>
      </trkpt>
      <trkpt lat="39.67021" lon="-7.54259">
        <ele>228.236</ele>
        <time>2019-10-17T01:03:40Z</time>
      </trkpt>
      <trkpt lat="39.67022" lon="-7.54247">
        <ele>228.077</ele>
        <time>2019-10-17T01:04:00Z</time>
      </trkpt>
      <trkpt lat="39.67021" lon="-7.54235">
        <ele>227.461</ele>
        <time>2019-10-17T01:04:20Z</time>
      </trkpt>
      <trkpt lat="39.67018" lon="-7.54223">
        <ele>226.727</ele>
        <time>2019-10-17T01:04:40Z</time>
      </trkpt>
      <trkpt lat="39.67015" lon="-7.54212">
        <ele>225.608</ele>
        <time>2019-10-17T01:05:00Z</time>
      </trkpt>
      <trkpt lat="39.67012" lon="-7.54199">
        <ele>224.481</ele>
        <time>2019-10-17T01:05:20Z</time>
      </trkpt>
      <trkpt lat="39.67011" lon="-7.54186">
        <ele>223.549</ele>
        <time>2019-10-17T01:05:40Z</time>
      </trkpt>
      <trkpt lat="39.67013" lon="-7.54173">
        <ele>222.851</ele>
        <time>2019-10-17T01:06:00Z</time>
      </trkpt>
      <trkpt lat="39.67016" lon="-7.5416">
        <ele>222.741</ele>
        <time>2019-10-17T01:06:20Z</time>
      </trkpt>
      <trkpt lat="39.67019" lon="-7.54148">
        <ele>222.973</ele>
        <time>2019-10-17T01:06:40Z</time>
      </trkpt>
      <trkpt lat="39.6702" lon="-7.54135">
        <ele>223.464</ele>
        <time>2019-10-17T01:07:00Z</time>
      </trkpt>
      <trkpt lat="39.6702" lon="-7.54123">
        <ele>224.896</ele>
        <time>2019-10-17T01:07:20Z</time>
      </trkpt>
      <trkpt lat="39.6702" lon="-7.54109">
        <ele>226.496</ele>
        <time>2019-10-17T01:07:40Z</time>
      </trkpt>
      <trkpt lat="39.6702" lon="-7.54082">
        <ele>230.122</ele>
        <time>2019-10-17T01:08:00Z</time>
      </trkpt>
      <trkpt lat="39.67023" lon="-7.5407">
        <ele>231.162</ele>
        <time>2019-10-17T01:08:20Z</time>
      </trkpt>
      <trkpt lat="39.67029" lon="-7.54057">
        <ele>231.908</ele>
        <time>2019-10-17T01:08:40Z</time>
      </trkpt>
      <trkpt lat="39.67036" lon="-7.54046">
        <ele>233.708</ele>
        <time>2019-10-17T01:09:00Z</time>
      </trkpt>
      <trkpt lat="39.67046" lon="-7.54034">
        <ele>235.726</ele>
        <time>2019-10-17T01:09:20Z</time>
      </trkpt>
      <trkpt lat="39.67057" lon="-7.54023">
        <ele>237.364</ele>
        <time>2019-10-17T01:09:40Z</time>
      </trkpt>
      <trkpt lat="39.67068" lon="-7.54011">
        <ele>237.816</ele>
        <time>2019-10-17T01:10:00Z</time>
      </trkpt>
      <trkpt lat="39.67088" lon="-7.5399">
        <ele>239.026</ele>
        <time>2019-10-17T01:10:20Z</time>
      </trkpt>
      <trkpt lat="39.67097" lon="-7.53983">
        <ele>239.698</ele>
        <time>2019-10-17T01:10:40Z</time>
      </trkpt>
      <trkpt lat="39.67106" lon="-7.53978">
        <ele>239.939</ele>
        <time>2019-10-17T01:11:00Z</time>
      </trkpt>
      <trkpt lat="39.67116" lon="-7.53976">
        <ele>240.061</ele>
        <time>2019-10-17T01:11:20Z</time>
      </trkpt>
      <trkpt lat="39.67128" lon="-7.53976">
        <ele>240.081</ele>
        <time>2019-10-17T01:11:40Z</time>
      </trkpt>
      <trkpt lat="39.67141" lon="-7.53977">
        <ele>240.194</ele>
        <time>2019-10-17T01:12:00Z</time>
      </trkpt>
      <trkpt lat="39.67199" lon="-7.53983">
        <ele>243.157</ele>
        <time>2019-10-17T01:12:20Z</time>
      </trkpt>
      <trkpt lat="39.67213" lon="-7.53984">
        <ele>243.822</ele>
        <time>2019-10-17T01:12:40Z</time>
      </trkpt>
      <trkpt lat="39.67302" lon="-7.53975">
        <ele>243.108</ele>
        <time>2019-10-17T01:13:00Z</time>
      </trkpt>
      <trkpt lat="39.67314" lon="-7.53969">
        <ele>243.143</ele>
        <time>2019-10-17T01:13:20Z</time>
      </trkpt>
      <trkpt lat="39.67325" lon="-7.53962">
        <ele>243.791</ele>
        <time>2019-10-17T01:13:40Z</time>
      </trkpt>
      <trkpt lat="39.67338" lon="-7.53953">
        <ele>244.393</ele>
        <time>2019-10-17T01:14:00Z</time>
      </trkpt>
      <trkpt lat="39.6735" lon="-7.53943">
        <ele>244.413</ele>
        <time>2019-10-17T01:14:20Z</time>
      </trkpt>
      <trkpt lat="39.67385" lon="-7.53914">
        <ele>242.335</ele>
        <time>2019-10-17T01:14:40Z</time>
      </trkpt>
      <trkpt lat="39.67395" lon="-7.53903">
        <ele>241.856</ele>
        <time>2019-10-17T01:15:00Z</time>
      </trkpt>
      <trkpt lat="39.67421" lon="-7.53871">
        <ele>240.498</ele>
        <time>2019-10-17T01:15:20Z</time>
      </trkpt>
      <trkpt lat="39.67431" lon="-7.53864">
        <ele>240.248</ele>
        <time>2019-10-17T01:15:40Z</time>
      </trkpt>
      <trkpt lat="39.67452" lon="-7.5385">
        <ele>239.739</ele>
        <time>2019-10-17T01:16:00Z</time>
      </trkpt>
      <trkpt lat="39.67462" lon="-7.53839">
        <ele>240.001</ele>
        <time>2019-10-17T01:16:20Z</time>
      </trkpt>
      <trkpt lat="39.6747" lon="-7.53826">
        <ele>241.021</ele>
        <time>2019-10-17T01:16:40Z</time>
      </trkpt>
      <trkpt lat="39.67516" lon="-7.53741">
        <ele>238.408</ele>
        <time>2019-10-17T01:17:00Z</time>
      </trkpt>
      <trkpt lat="39.67521" lon="-7.53725">
        <ele>237.797</ele>
        <time>2019-10-17T01:17:20Z</time>
      </trkpt>
      <trkpt lat="39.67525" lon="-7.53708">
        <ele>238.825</ele>
        <time>2019-10-17T01:17:40Z</time>
      </trkpt>
      <trkpt lat="39.67552" lon="-7.53614">
        <ele>246.447</ele>
        <time>2019-10-17T01:18:00Z</time>
      </trkpt>
      <trkpt lat="39.67556" lon="-7.53597">
        <ele>247.067</ele>
        <time>2019-10-17T01:18:20Z</time>
      </trkpt>
      <trkpt lat="39.67559" lon="-7.53581">
        <ele>246.959</ele>
        <time>2019-10-17T01:18:40Z</time>
      </trkpt>
      <trkpt lat="39.67561" lon="-7.53565">
        <ele>246.88</ele>
        <time>2019-10-17T01:19:00Z</time>
      </trkpt>
      <trkpt lat="39.67562" lon="-7.53549">
        <ele>247.162</ele>
        <time>2019-10-17T01:19:20Z</time>
      </trkpt>
      <trkpt lat="39.67566" lon="-7.53499">
        <ele>249.542</ele>
        <time>2019-10-17T01:19:40Z</time>
      </trkpt>
      <trkpt lat="39.67574" lon="-7.53467">
        <ele>252.934</ele>
        <time>2019-10-17T01:20:00Z</time>
      </trkpt>
      <trkpt lat="39.6758" lon="-7.53453">
        <ele>255.455</ele>
        <time>2019-10-17T01:20:20Z</time>
      </trkpt>
      <trkpt lat="39.67587" lon="-7.53439">
        <ele>257.41</ele>
        <time>2019-10-17T01:20:40Z</time>
      </trkpt>
      <trkpt lat="39.67597" lon="-7.53427">
        <ele>258.608</ele>
        <time>2019-10-17T01:21:00Z</time>
      </trkpt>
      <trkpt lat="39.67607" lon="-7.53416">
        <ele>259.927</ele>
        <time>2019-10-17T01:21:20Z</time>
      </trkpt>
      <trkpt lat="39.67617" lon="-7.53407">
        <ele>260.735</ele>
        <time>2019-10-17T01:21:40Z</time>
      </trkpt>
      <trkpt lat="39.67626" lon="-7.534">
        <ele>261.277</ele>
        <time>2019-10-17T01:22:00Z</time>
      </trkpt>
      <trkpt lat="39.6764" lon="-7.53388">
        <ele>261.977</ele>
        <time>2019-10-17T01:22:20Z</time>
      </trkpt>
      <trkpt lat="39.67644" lon="-7.53382">
        <ele>261.759</ele>
        <time>2019-10-17T01:22:40Z</time>
      </trkpt>
      <trkpt lat="39.67647" lon="-7.53375">
        <ele>261.64</ele>
        <time>2019-10-17T01:23:00Z</time>
      </trkpt>
      <trkpt lat="39.67649" lon="-7.53368">
        <ele>261.572</ele>
        <time>2019-10-17T01:23:20Z</time>
      </trkpt>
      <trkpt lat="39.6765" lon="-7.53361">
        <ele>261.662</ele>
        <time>2019-10-17T01:23:40Z</time>
      </trkpt>
      <trkpt lat="39.67651" lon="-7.53355">
        <ele>261.725</ele>
        <time>2019-10-17T01:24:00Z</time>
      </trkpt>
      <trkpt lat="39.67657" lon="-7.53332">
        <ele>262.026</ele>
        <time>2019-10-17T01:24:20Z</time>
      </trkpt>
      <trkpt lat="39.67663" lon="-7.53323">
        <ele>262.308</ele>
        <time>2019-10-17T01:24:40Z</time>
      </trkpt>
      <trkpt lat="39.67667" lon="-7.53319">
        <ele>262.508</ele>
        <time>2019-10-17T01:25:00Z</time>
      </trkpt>
      <trkpt lat="39.67679" lon="-7.53301">
        <ele>263.476</ele>
        <time>2019-10-17T01:25:20Z</time>
      </trkpt>
      <trkpt lat="39.67684" lon="-7.53289">
        <ele>263.674</ele>
        <time>2019-10-17T01:25:40Z</time>
      </trkpt>
      <trkpt lat="39.677" lon="-7.53222">
        <ele>260.846</ele>
        <time>2019-10-17T01:26:00Z</time>
      </trkpt>
      <trkpt lat="39.67711" lon="-7.53186">
        <ele>259.096</ele>
        <time>2019-10-17T01:26:20Z</time>
      </trkpt>
      <trkpt lat="39.67726" lon="-7.53143">
        <ele>257.178</ele>
        <time>2019-10-17T01:26:40Z</time>
      </trkpt>
      <trkpt lat="39.6774" lon="-7.53117">
        <ele>258.069</ele>
        <time>2019-10-17T01:27:00Z</time>
      </trkpt>
      <trkpt lat="39.67745" lon="-7.53112">
        <ele>258.651</ele>
        <time>2019-10-17T01:27:20Z</time>
      </trkpt>
      <trkpt lat="39.6775" lon="-7.53107">
        <ele>258.841</ele>
        <time>2019-10-17T01:27:40Z</time>
      </trkpt>
      <trkpt lat="39.67755" lon="-7.53101">
        <ele>258.452</ele>
        <time>2019-10-17T01:28:00Z</time>
      </trkpt>
      <trkpt lat="39.67761" lon="-7.53096">
        <ele>258.153</ele>
        <time>2019-10-17T01:28:20Z</time>
      </trkpt>
      <trkpt lat="39.67832" lon="-7.53026">
        <ele>253.808</ele>
        <time>2019-10-17T01:28:40Z</time>
      </trkpt>
      <trkpt lat="39.67896" lon="-7.52984">
        <ele>252.308</ele>
        <time>2019-10-17T01:29:00Z</time>
      </trkpt>
      <trkpt lat="39.67942" lon="-7.5296">
        <ele>249.129</ele>
        <time>2019-10-17T01:29:20Z</time>
      </trkpt>
      <trkpt lat="39.6802" lon="-7.52913">
        <ele>247.757</ele>
        <time>2019-10-17T01:29:40Z</time>
      </trkpt>
      <trkpt lat="39.6804" lon="-7.52893">
        <ele>247.219</ele>
        <time>2019-10-17T01:30:00Z</time>
      </trkpt>
      <trkpt lat="39.6813" lon="-7.52814">
        <ele>248.179</ele>
        <time>2019-10-17T01:30:20Z</time>
      </trkpt>
      <trkpt lat="39.68202" lon="-7.52768">
        <ele>250.171</ele>
        <time>2019-10-17T01:30:40Z</time>
      </trkpt>
      <trkpt lat="39.6821" lon="-7.5276">
        <ele>251.172</ele>
        <time>2019-10-17T01:31:00Z</time>
      </trkpt>
      <trkpt lat="39.68217" lon="-7.52751">
        <ele>251.854</ele>
        <time>2019-10-17T01:31:20Z</time>
      </trkpt>
      <trkpt lat="39.68223" lon="-7.52739">
        <ele>252.834</ele>
        <time>2019-10-17T01:31:40Z</time>
      </trkpt>
      <trkpt lat="39.68227" lon="-7.52724">
        <ele>253.748</ele>
        <time>2019-10-17T01:32:00Z</time>
      </trkpt>
      <trkpt lat="39.68231" lon="-7.52706">
        <ele>253.961</ele>
        <time>2019-10-17T01:32:20Z</time>
      </trkpt>
      <trkpt lat="39.68247" lon="-7.52635">
        <ele>253.717</ele>
        <time>2019-10-17T01:32:40Z</time>
      </trkpt>
      <trkpt lat="39.68253" lon="-7.52584">
        <ele>257.508</ele>
        <time>2019-10-17T01:33:00Z</time>
      </trkpt>
      <trkpt lat="39.68257" lon="-7.52568">
        <ele>259.338</ele>
        <time>2019-10-17T01:33:20Z</time>
      </trkpt>
      <trkpt lat="39.68274" lon="-7.52511">
        <ele>266.316</ele>
        <time>2019-10-17T01:33:40Z</time>
      </trkpt>
      <trkpt lat="39.68279" lon="-7.525">
        <ele>266.898</ele>
        <time>2019-10-17T01:34:00Z</time>
      </trkpt>
      <trkpt lat="39.68285" lon="-7.52492">
        <ele>266.468</ele>
        <time>2019-10-17T01:34:20Z</time>
      </trkpt>
      <trkpt lat="39.68291" lon="-7.52487">
        <ele>266.08</ele>
        <time>2019-10-17T01:34:40Z</time>
      </trkpt>
      <trkpt lat="39.68299" lon="-7.52484">
        <ele>265.621</ele>
        <time>2019-10-17T01:35:00Z</time>
      </trkpt>
      <trkpt lat="39.68306" lon="-7.52485">
        <ele>265.013</ele>
        <time>2019-10-17T01:35:20Z</time>
      </trkpt>
      <trkpt lat="39.68314" lon="-7.52489">
        <ele>264.053</ele>
        <time>2019-10-17T01:35:40Z</time>
      </trkpt>
      <trkpt lat="39.68323" lon="-7.52493">
        <ele>262.732</ele>
        <time>2019-10-17T01:36:00Z</time>
      </trkpt>
      <trkpt lat="39.68411" lon="-7.52528">
        <ele>259.292</ele>
        <time>2019-10-17T01:36:20Z</time>
      </trkpt>
      <trkpt lat="39.68424" lon="-7.52529">
        <ele>259.111</ele>
        <time>2019-10-17T01:36:40Z</time>
      </trkpt>
      <trkpt lat="39.68436" lon="-7.52528">
        <ele>259.008</ele>
        <time>2019-10-17T01:37:00Z</time>
      </trkpt>
      <trkpt lat="39.68448" lon="-7.52525">
        <ele>258.877</ele>
        <time>2019-10-17T01:37:20Z</time>
      </trkpt>
      <trkpt lat="39.6846" lon="-7.52519">
        <ele>258.395</ele>
        <time>2019-10-17T01:37:40Z</time>
      </trkpt>
      <trkpt lat="39.68471" lon="-7.52512">
        <ele>258.027</ele>
        <time>2019-10-17T01:38:00Z</time>
      </trkpt>
      <trkpt lat="39.6851" lon="-7.52498">
        <ele>255.727</ele>
        <time>2019-10-17T01:38:20Z</time>
      </trkpt>
      <trkpt lat="39.68551" lon="-7.52489">
        <ele>254.769</ele>
        <time>2019-10-17T01:38:40Z</time>
      </trkpt>
      <trkpt lat="39.68565" lon="-7.52482">
        <ele>254.01</ele>
        <time>2019-10-17T01:39:00Z</time>
      </trkpt>
      <trkpt lat="39.6862" lon="-7.52454">
        <ele>251.022</ele>
        <time>2019-10-17T01:39:20Z</time>
      </trkpt>
      <trkpt lat="39.68632" lon="-7.52452">
        <ele>251.322</ele>
        <time>2019-10-17T01:39:40Z</time>
      </trkpt>
      <trkpt lat="39.68645" lon="-7.52452">
        <ele>251.918</ele>
        <time>2019-10-17T01:40:00Z</time>
      </trkpt>
      <trkpt lat="39.68658" lon="-7.52455">
        <ele>252.998</ele>
        <time>2019-10-17T01:40:20Z</time>
      </trkpt>
      <trkpt lat="39.68671" lon="-7.52461">
        <ele>253.817</ele>
        <time>2019-10-17T01:40:40Z</time>
      </trkpt>
      <trkpt lat="39.68683" lon="-7.52468">
        <ele>254.908</ele>
        <time>2019-10-17T01:41:00Z</time>
      </trkpt>
      <trkpt lat="39.68695" lon="-7.52475">
        <ele>256.085</ele>
        <time>2019-10-17T01:41:20Z</time>
      </trkpt>
      <trkpt lat="39.68706" lon="-7.52479">
        <ele>256.853</ele>
        <time>2019-10-17T01:41:40Z</time>
      </trkpt>
      <trkpt lat="39.68716" lon="-7.52479">
        <ele>257.685</ele>
        <time>2019-10-17T01:42:00Z</time>
      </trkpt>
      <trkpt lat="39.68725" lon="-7.52477">
        <ele>258.015</ele>
        <time>2019-10-17T01:42:20Z</time>
      </trkpt>
      <trkpt lat="39.68734" lon="-7.52473">
        <ele>258.077</ele>
        <time>2019-10-17T01:42:40Z</time>
      </trkpt>
      <trkpt lat="39.68743" lon="-7.52468">
        <ele>257.728</ele>
        <time>2019-10-17T01:43:00Z</time>
      </trkpt>
      <trkpt lat="39.68765" lon="-7.52458">
        <ele>255.45</ele>
        <time>2019-10-17T01:43:20Z</time>
      </trkpt>
      <trkpt lat="39.68775" lon="-7.52453">
        <ele>253.98</ele>
        <time>2019-10-17T01:43:40Z</time>
      </trkpt>
      <trkpt lat="39.68784" lon="-7.52446">
        <ele>252.858</ele>
        <time>2019-10-17T01:44:00Z</time>
      </trkpt>
      <trkpt lat="39.68793" lon="-7.52435">
        <ele>252.552</ele>
        <time>2019-10-17T01:44:20Z</time>
      </trkpt>
      <trkpt lat="39.68801" lon="-7.52422">
        <ele>252.217</ele>
        <time>2019-10-17T01:44:40Z</time>
      </trkpt>
      <trkpt lat="39.68808" lon="-7.52408">
        <ele>252.608</ele>
        <time>2019-10-17T01:45:00Z</time>
      </trkpt>
      <trkpt lat="39.68814" lon="-7.52394">
        <ele>253.449</ele>
        <time>2019-10-17T01:45:20Z</time>
      </trkpt>
      <trkpt lat="39.68818" lon="-7.5238">
        <ele>254.017</ele>
        <time>2019-10-17T01:45:40Z</time>
      </trkpt>
      <trkpt lat="39.68818" lon="-7.52365">
        <ele>254.839</ele>
        <time>2019-10-17T01:46:00Z</time>
      </trkpt>
      <trkpt lat="39.68817" lon="-7.52351">
        <ele>255.219</ele>
        <time>2019-10-17T01:46:20Z</time>
      </trkpt>
      <trkpt lat="39.68815" lon="-7.52336">
        <ele>255.671</ele>
        <time>2019-10-17T01:46:40Z</time>
      </trkpt>
      <trkpt lat="39.6881" lon="-7.52321">
        <ele>256.462</ele>
        <time>2019-10-17T01:47:00Z</time>
      </trkpt>
      <trkpt lat="39.68806" lon="-7.52305">
        <ele>257.064</ele>
        <time>2019-10-17T01:47:20Z</time>
      </trkpt>
      <trkpt lat="39.68794" lon="-7.5226">
        <ele>257.274</ele>
        <time>2019-10-17T01:47:40Z</time>
      </trkpt>
      <trkpt lat="39.68792" lon="-7.52245">
        <ele>256.861</ele>
        <time>2019-10-17T01:48:00Z</time>
      </trkpt>
      <trkpt lat="39.68792" lon="-7.5223">
        <ele>256.321</ele>
        <time>2019-10-17T01:48:20Z</time>
      </trkpt>
      <trkpt lat="39.68794" lon="-7.52217">
        <ele>255.813</ele>
        <time>2019-10-17T01:48:40Z</time>
      </trkpt>
      <trkpt lat="39.68799" lon="-7.52204">
        <ele>255.308</ele>
        <time>2019-10-17T01:49:00Z</time>
      </trkpt>
      <trkpt lat="39.68805" lon="-7.52192">
        <ele>255.09</ele>
        <time>2019-10-17T01:49:20Z</time>
      </trkpt>
      <trkpt lat="39.68812" lon="-7.5218">
        <ele>254.868</ele>
        <time>2019-10-17T01:49:40Z</time>
      </trkpt>
      <trkpt lat="39.68821" lon="-7.5217">
        <ele>254.46</ele>
        <time>2019-10-17T01:50:00Z</time>
      </trkpt>
      <trkpt lat="39.68832" lon="-7.52159">
        <ele>254.39</ele>
        <time>2019-10-17T01:50:20Z</time>
      </trkpt>
      <trkpt lat="39.68843" lon="-7.52147">
        <ele>253.852</ele>
        <time>2019-10-17T01:50:40Z</time>
      </trkpt>
      <trkpt lat="39.68889" lon="-7.52082">
        <ele>247.043</ele>
        <time>2019-10-17T01:51:00Z</time>
      </trkpt>
      <trkpt lat="39.68895" lon="-7.52066">
        <ele>247.145</ele>
        <time>2019-10-17T01:51:20Z</time>
      </trkpt>
      <trkpt lat="39.68899" lon="-7.52048">
        <ele>247.745</ele>
        <time>2019-10-17T01:51:40Z</time>
      </trkpt>
      <trkpt lat="39.68901" lon="-7.52029">
        <ele>248.577</ele>
        <time>2019-10-17T01:52:00Z</time>
      </trkpt>
      <trkpt lat="39.68902" lon="-7.52009">
        <ele>249.261</ele>
        <time>2019-10-17T01:52:20Z</time>
      </trkpt>
      <trkpt lat="39.68902" lon="-7.51987">
        <ele>249.727</ele>
        <time>2019-10-17T01:52:40Z</time>
      </trkpt>
      <trkpt lat="39.689" lon="-7.51966">
        <ele>250.308</ele>
        <time>2019-10-17T01:53:00Z</time>
      </trkpt>
      <trkpt lat="39.68907" lon="-7.5182">
        <ele>257.341</ele>
        <time>2019-10-17T01:53:20Z</time>
      </trkpt>
      <trkpt lat="39.68926" lon="-7.51725">
        <ele>256.649</ele>
        <time>2019-10-17T01:53:40Z</time>
      </trkpt>
      <trkpt lat="39.68925" lon="-7.51705">
        <ele>257.341</ele>
        <time>2019-10-17T01:54:00Z</time>
      </trkpt>
      <trkpt lat="39.68922" lon="-7.51685">
        <ele>258.241</ele>
        <time>2019-10-17T01:54:20Z</time>
      </trkpt>
      <trkpt lat="39.6891" lon="-7.51598">
        <ele>261.593</ele>
        <time>2019-10-17T01:54:40Z</time>
      </trkpt>
      <trkpt lat="39.68906" lon="-7.51561">
        <ele>262.884</ele>
        <time>2019-10-17T01:55:00Z</time>
      </trkpt>
      <trkpt lat="39.68911" lon="-7.51428">
        <ele>263.446</ele>
        <time>2019-10-17T01:55:20Z</time>
      </trkpt>
      <trkpt lat="39.68912" lon="-7.51393">
        <ele>263.726</ele>
        <time>2019-10-17T01:55:40Z</time>
      </trkpt>
      <trkpt lat="39.68915" lon="-7.51387">
        <ele>263.316</ele>
        <time>2019-10-17T01:56:00Z</time>
      </trkpt>
      <trkpt lat="39.6892" lon="-7.51383">
        <ele>262.876</ele>
        <time>2019-10-17T01:56:20Z</time>
      </trkpt>
      <trkpt lat="39.68926" lon="-7.51381">
        <ele>262.413</ele>
        <time>2019-10-17T01:56:40Z</time>
      </trkpt>
      <trkpt lat="39.68935" lon="-7.5138">
        <ele>261.908</ele>
        <time>2019-10-17T01:57:00Z</time>
      </trkpt>
      <trkpt lat="39.68946" lon="-7.5138">
        <ele>261.175</ele>
        <time>2019-10-17T01:57:20Z</time>
      </trkpt>
      <trkpt lat="39.69004" lon="-7.51374">
        <ele>258.583</ele>
        <time>2019-10-17T01:57:40Z</time>
      </trkpt>
      <trkpt lat="39.69019" lon="-7.51369">
        <ele>258.315</ele>
        <time>2019-10-17T01:58:00Z</time>
      </trkpt>
      <trkpt lat="39.69055" lon="-7.51357">
        <ele>257.055</ele>
        <time>2019-10-17T01:58:20Z</time>
      </trkpt>
      <trkpt lat="39.69068" lon="-7.51359">
        <ele>257.037</ele>
        <time>2019-10-17T01:58:40Z</time>
      </trkpt>
      <trkpt lat="39.69169" lon="-7.51411">
        <ele>249.018</ele>
        <time>2019-10-17T01:59:00Z</time>
      </trkpt>
      <trkpt lat="39.69181" lon="-7.51422">
        <ele>247.83</ele>
        <time>2019-10-17T01:59:20Z</time>
      </trkpt>
      <trkpt lat="39.69243" lon="-7.51483">
        <ele>244.99</ele>
        <time>2019-10-17T01:59:40Z</time>
      </trkpt>
      <trkpt lat="39.69318" lon="-7.51545">
        <ele>241.915</ele>
        <time>2019-10-17T02:00:00Z</time>
      </trkpt>
      <trkpt lat="39.69353" lon="-7.51578">
        <ele>241.065</ele>
        <time>2019-10-17T02:00:20Z</time>
      </trkpt>
      <trkpt lat="39.69364" lon="-7.51586">
        <ele>240.811</ele>
        <time>2019-10-17T02:00:40Z</time>
      </trkpt>
      <trkpt lat="39.69377" lon="-7.51592">
        <ele>240.608</ele>
        <time>2019-10-17T02:01:00Z</time>
      </trkpt>
      <trkpt lat="39.69389" lon="-7.51596">
        <ele>240.715</ele>
        <time>2019-10-17T02:01:20Z</time>
      </trkpt>
      <trkpt lat="39.69461" lon="-7.51613">
        <ele>240.883</ele>
        <time>2019-10-17T02:01:40Z</time>
      </trkpt>
      <trkpt lat="39.69542" lon="-7.51644">
        <ele>240.635</ele>
        <time>2019-10-17T02:02:00Z</time>
      </trkpt>
      <trkpt lat="39.69576" lon="-7.51662">
        <ele>239.685</ele>
        <time>2019-10-17T02:02:20Z</time>
      </trkpt>
      <trkpt lat="39.69582" lon="-7.51666">
        <ele>239.187</ele>
        <time>2019-10-17T02:02:40Z</time>
      </trkpt>
      <trkpt lat="39.69588" lon="-7.51672">
        <ele>238.868</ele>
        <time>2019-10-17T02:03:00Z</time>
      </trkpt>
      <trkpt lat="39.69594" lon="-7.51678">
        <ele>238.62</ele>
        <time>2019-10-17T02:03:20Z</time>
      </trkpt>
      <trkpt lat="39.696" lon="-7.51685">
        <ele>238.42</ele>
        <time>2019-10-17T02:03:40Z</time>
      </trkpt>
      <trkpt lat="39.69606" lon="-7.51693">
        <ele>238.226</ele>
        <time>2019-10-17T02:04:00Z</time>
      </trkpt>
      <trkpt lat="39.69627" lon="-7.5172">
        <ele>238.947</ele>
        <time>2019-10-17T02:04:20Z</time>
      </trkpt>
      <trkpt lat="39.69631" lon="-7.51727">
        <ele>239.211</ele>
        <time>2019-10-17T02:04:40Z</time>
      </trkpt>
      <trkpt lat="39.69634" lon="-7.51734">
        <ele>239.408</ele>
        <time>2019-10-17T02:05:00Z</time>
      </trkpt>
      <trkpt lat="39.69639" lon="-7.51746">
        <ele>239.976</ele>
        <time>2019-10-17T02:05:20Z</time>
      </trkpt>
      <trkpt lat="39.69642" lon="-7.5175">
        <ele>239.984</ele>
        <time>2019-10-17T02:05:40Z</time>
      </trkpt>
      <trkpt lat="39.69646" lon="-7.51753">
        <ele>239.746</ele>
        <time>2019-10-17T02:06:00Z</time>
      </trkpt>
      <trkpt lat="39.69649" lon="-7.51755">
        <ele>239.696</ele>
        <time>2019-10-17T02:06:20Z</time>
      </trkpt>
      <trkpt lat="39.69653" lon="-7.51755">
        <ele>239.448</ele>
        <time>2019-10-17T02:06:40Z</time>
      </trkpt>
      <trkpt lat="39.69656" lon="-7.51754">
        <ele>239.359</ele>
        <time>2019-10-17T02:07:00Z</time>
      </trkpt>
      <trkpt lat="39.6966" lon="-7.51752">
        <ele>239.291</ele>
        <time>2019-10-17T02:07:20Z</time>
      </trkpt>
      <trkpt lat="39.69664" lon="-7.51748">
        <ele>239.141</ele>
        <time>2019-10-17T02:07:40Z</time>
      </trkpt>
      <trkpt lat="39.69669" lon="-7.51743">
        <ele>239.043</ele>
        <time>2019-10-17T02:08:00Z</time>
      </trkpt>
      <trkpt lat="39.69674" lon="-7.51735">
        <ele>239.064</ele>
        <time>2019-10-17T02:08:20Z</time>
      </trkpt>
      <trkpt lat="39.6968" lon="-7.51726">
        <ele>239.01</ele>
        <time>2019-10-17T02:08:40Z</time>
      </trkpt>
      <trkpt lat="39.69722" lon="-7.51621">
        <ele>238.008</ele>
        <time>2019-10-17T02:09:00Z</time>
      </trkpt>
      <trkpt lat="39.69765" lon="-7.51535">
        <ele>239.818</ele>
        <time>2019-10-17T02:09:20Z</time>
      </trkpt>
      <trkpt lat="39.69774" lon="-7.51526">
        <ele>240.126</ele>
        <time>2019-10-17T02:09:40Z</time>
      </trkpt>
      <trkpt lat="39.69784" lon="-7.51518">
        <ele>239.948</ele>
        <time>2019-10-17T02:10:00Z</time>
      </trkpt>
      <trkpt lat="39.69794" lon="-7.51511">
        <ele>239.428</ele>
        <time>2019-10-17T02:10:20Z</time>
      </trkpt>
      <trkpt lat="39.69806" lon="-7.51506">
        <ele>238.83</ele>
        <time>2019-10-17T02:10:40Z</time>
      </trkpt>
      <trkpt lat="39.69819" lon="-7.51503">
        <ele>238.481</ele>
        <time>2019-10-17T02:11:00Z</time>
      </trkpt>
      <trkpt lat="39.69833" lon="-7.51499">
        <ele>238.083</ele>
        <time>2019-10-17T02:11:20Z</time>
      </trkpt>
      <trkpt lat="39.69861" lon="-7.51489">
        <ele>238.073</ele>
        <time>2019-10-17T02:11:40Z</time>
      </trkpt>
      <trkpt lat="39.69876" lon="-7.51481">
        <ele>238.048</ele>
        <time>2019-10-17T02:12:00Z</time>
      </trkpt>
      <trkpt lat="39.6989" lon="-7.51473">
        <ele>238.061</ele>
        <time>2019-10-17T02:12:20Z</time>
      </trkpt>
      <trkpt lat="39.69904" lon="-7.51463">
        <ele>238.717</ele>
        <time>2019-10-17T02:12:40Z</time>
      </trkpt>
      <trkpt lat="39.69918" lon="-7.51451">
        <ele>239.808</ele>
        <time>2019-10-17T02:13:00Z</time>
      </trkpt>
      <trkpt lat="39.69931" lon="-7.51438">
        <ele>240.478</ele>
        <time>2019-10-17T02:13:20Z</time>
      </trkpt>
      <trkpt lat="39.69966" lon="-7.51398">
        <ele>240.876</ele>
        <time>2019-10-17T02:13:40Z</time>
      </trkpt>
      <trkpt lat="39.69975" lon="-7.51382">
        <ele>240.828</ele>
        <time>2019-10-17T02:14:00Z</time>
      </trkpt>
      <trkpt lat="39.69983" lon="-7.51365">
        <ele>240.558</ele>
        <time>2019-10-17T02:14:20Z</time>
      </trkpt>
      <trkpt lat="39.70067" lon="-7.512">
        <ele>248.93</ele>
        <time>2019-10-17T02:14:40Z</time>
      </trkpt>
      <trkpt lat="39.70076" lon="-7.51191">
        <ele>249.951</ele>
        <time>2019-10-17T02:15:00Z</time>
      </trkpt>
      <trkpt lat="39.70086" lon="-7.51182">
        <ele>251.153</ele>
        <time>2019-10-17T02:15:20Z</time>
      </trkpt>
      <trkpt lat="39.70097" lon="-7.51174">
        <ele>252.133</ele>
        <time>2019-10-17T02:15:40Z</time>
      </trkpt>
      <trkpt lat="39.70109" lon="-7.51166">
        <ele>253.137</ele>
        <time>2019-10-17T02:16:00Z</time>
      </trkpt>
      <trkpt lat="39.70123" lon="-7.51158">
        <ele>251.949</ele>
        <time>2019-10-17T02:16:20Z</time>
      </trkpt>
      <trkpt lat="39.7015" lon="-7.5114">
        <ele>248.913</ele>
        <time>2019-10-17T02:16:40Z</time>
      </trkpt>
      <trkpt lat="39.70195" lon="-7.51103">
        <ele>249.208</ele>
        <time>2019-10-17T02:17:00Z</time>
      </trkpt>
      <trkpt lat="39.70207" lon="-7.51098">
        <ele>249.667</ele>
        <time>2019-10-17T02:17:20Z</time>
      </trkpt>
      <trkpt lat="39.70219" lon="-7.51096">
        <ele>249.775</ele>
        <time>2019-10-17T02:17:40Z</time>
      </trkpt>
      <trkpt lat="39.7023" lon="-7.51097">
        <ele>249.897</ele>
        <time>2019-10-17T02:18:00Z</time>
      </trkpt>
      <trkpt lat="39.7024" lon="-7.51101">
        <ele>249.827</ele>
        <time>2019-10-17T02:18:20Z</time>
      </trkpt>
      <trkpt lat="39.7025" lon="-7.51107">
        <ele>249.529</ele>
        <time>2019-10-17T02:18:40Z</time>
      </trkpt>
      <trkpt lat="39.7026" lon="-7.51116">
        <ele>250.12</ele>
        <time>2019-10-17T02:19:00Z</time>
      </trkpt>
      <trkpt lat="39.70271" lon="-7.51128">
        <ele>250.312</ele>
        <time>2019-10-17T02:19:20Z</time>
      </trkpt>
      <trkpt lat="39.70282" lon="-7.51141">
        <ele>250.082</ele>
        <time>2019-10-17T02:19:40Z</time>
      </trkpt>
      <trkpt lat="39.70333" lon="-7.51202">
        <ele>244.786</ele>
        <time>2019-10-17T02:20:00Z</time>
      </trkpt>
      <trkpt lat="39.70343" lon="-7.51209">
        <ele>244.56</ele>
        <time>2019-10-17T02:20:20Z</time>
      </trkpt>
      <trkpt lat="39.70354" lon="-7.51213">
        <ele>244.326</ele>
        <time>2019-10-17T02:20:40Z</time>
      </trkpt>
      <trkpt lat="39.70366" lon="-7.51213">
        <ele>244.208</ele>
        <time>2019-10-17T02:21:00Z</time>
      </trkpt>
      <trkpt lat="39.7038" lon="-7.51212">
        <ele>243.992</ele>
        <time>2019-10-17T02:21:20Z</time>
      </trkpt>
      <trkpt lat="39.70423" lon="-7.51204">
        <ele>241.29</ele>
        <time>2019-10-17T02:21:40Z</time>
      </trkpt>
      <trkpt lat="39.70438" lon="-7.51198">
        <ele>240.342</ele>
        <time>2019-10-17T02:22:00Z</time>
      </trkpt>
      <trkpt lat="39.70527" lon="-7.51154">
        <ele>237.522</ele>
        <time>2019-10-17T02:22:20Z</time>
      </trkpt>
      <trkpt lat="39.70542" lon="-7.5115">
        <ele>237.694</ele>
        <time>2019-10-17T02:22:40Z</time>
      </trkpt>
      <trkpt lat="39.70604" lon="-7.51146">
        <ele>237.935</ele>
        <time>2019-10-17T02:23:00Z</time>
      </trkpt>
      <trkpt lat="39.70619" lon="-7.51149">
        <ele>237.887</ele>
        <time>2019-10-17T02:23:20Z</time>
      </trkpt>
      <trkpt lat="39.70635" lon="-7.51155">
        <ele>237.877</ele>
        <time>2019-10-17T02:23:40Z</time>
      </trkpt>
      <trkpt lat="39.70723" lon="-7.51185">
        <ele>237.093</ele>
        <time>2019-10-17T02:24:00Z</time>
      </trkpt>
      <trkpt lat="39.70768" lon="-7.51202">
        <ele>235.565</ele>
        <time>2019-10-17T02:24:20Z</time>
      </trkpt>
      <trkpt lat="39.70795" lon="-7.51217">
        <ele>235.921</ele>
        <time>2019-10-17T02:24:40Z</time>
      </trkpt>
      <trkpt lat="39.70834" lon="-7.51244">
        <ele>237.208</ele>
        <time>2019-10-17T02:25:00Z</time>
      </trkpt>
      <trkpt lat="39.70848" lon="-7.51251">
        <ele>237.583</ele>
        <time>2019-10-17T02:25:20Z</time>
      </trkpt>
      <trkpt lat="39.7088" lon="-7.51265">
        <ele>235.551</ele>
        <time>2019-10-17T02:25:40Z</time>
      </trkpt>
      <trkpt lat="39.70889" lon="-7.51272">
        <ele>234.823</ele>
        <time>2019-10-17T02:26:00Z</time>
      </trkpt>
      <trkpt lat="39.70896" lon="-7.5128">
        <ele>233.993</ele>
        <time>2019-10-17T02:26:20Z</time>
      </trkpt>
      <trkpt lat="39.70963" lon="-7.51373">
        <ele>231.695</ele>
        <time>2019-10-17T02:26:40Z</time>
      </trkpt>
      <trkpt lat="39.70996" lon="-7.51417">
        <ele>232.346</ele>
        <time>2019-10-17T02:27:00Z</time>
      </trkpt>
      <trkpt lat="39.71001" lon="-7.51427">
        <ele>231.598</ele>
        <time>2019-10-17T02:27:20Z</time>
      </trkpt>
      <trkpt lat="39.71005" lon="-7.51438">
        <ele>230.928</ele>
        <time>2019-10-17T02:27:40Z</time>
      </trkpt>
      <trkpt lat="39.71006" lon="-7.51449">
        <ele>230.275</ele>
        <time>2019-10-17T02:28:00Z</time>
      </trkpt>
      <trkpt lat="39.71007" lon="-7.51461">
        <ele>229.328</ele>
        <time>2019-10-17T02:28:20Z</time>
      </trkpt>
      <trkpt lat="39.71007" lon="-7.51473">
        <ele>228.52</ele>
        <time>2019-10-17T02:28:40Z</time>
      </trkpt>
      <trkpt lat="39.71006" lon="-7.51486">
        <ele>228.408</ele>
        <time>2019-10-17T02:29:00Z</time>
      </trkpt>
      <trkpt lat="39.71005" lon="-7.515">
        <ele>228.551</ele>
        <time>2019-10-17T02:29:20Z</time>
      </trkpt>
      <trkpt lat="39.71003" lon="-7.51513">
        <ele>228.269</ele>
        <time>2019-10-17T02:29:40Z</time>
      </trkpt>
      <trkpt lat="39.71001" lon="-7.51526">
        <ele>227.991</ele>
        <time>2019-10-17T02:30:00Z</time>
      </trkpt>
      <trkpt lat="39.71001" lon="-7.51539">
        <ele>227.581</ele>
        <time>2019-10-17T02:30:20Z</time>
      </trkpt>
      <trkpt lat="39.71003" lon="-7.51553">
        <ele>226.853</ele>
        <time>2019-10-17T02:30:40Z</time>
      </trkpt>
      <trkpt lat="39.71006" lon="-7.51566">
        <ele>226.444</ele>
        <time>2019-10-17T02:31:00Z</time>
      </trkpt>
      <trkpt lat="39.71011" lon="-7.51579">
        <ele>225.886</ele>
        <time>2019-10-17T02:31:20Z</time>
      </trkpt>
      <trkpt lat="39.71017" lon="-7.51591">
        <ele>225.366</ele>
        <time>2019-10-17T02:31:40Z</time>
      </trkpt>
      <trkpt lat="39.71022" lon="-7.51603">
        <ele>225.019</ele>
        <time>2019-10-17T02:32:00Z</time>
      </trkpt>
      <trkpt lat="39.71026" lon="-7.51613">
        <ele>225.009</ele>
        <time>2019-10-17T02:32:20Z</time>
      </trkpt>
      <trkpt lat="39.71029" lon="-7.51625">
        <ele>224.419</ele>
        <time>2019-10-17T02:32:40Z</time>
      </trkpt>
      <trkpt lat="39.71032" lon="-7.51637">
        <ele>223.808</ele>
        <time>2019-10-17T02:33:00Z</time>
      </trkpt>
      <trkpt lat="39.71034" lon="-7.51652">
        <ele>223.175</ele>
        <time>2019-10-17T02:33:20Z</time>
      </trkpt>
      <trkpt lat="39.71039" lon="-7.51726">
        <ele>218.333</ele>
        <time>2019-10-17T02:33:40Z</time>
      </trkpt>
      <trkpt lat="39.7104" lon="-7.5174">
        <ele>217.065</ele>
        <time>2019-10-17T02:34:00Z</time>
      </trkpt>
      <trkpt lat="39.71045" lon="-7.51753">
        <ele>215.965</ele>
        <time>2019-10-17T02:34:20Z</time>
      </trkpt>
      <trkpt lat="39.71051" lon="-7.51765">
        <ele>215.847</ele>
        <time>2019-10-17T02:34:40Z</time>
      </trkpt>
      <trkpt lat="39.71059" lon="-7.51776">
        <ele>215.618</ele>
        <time>2019-10-17T02:35:00Z</time>
      </trkpt>
      <trkpt lat="39.71068" lon="-7.51788">
        <ele>214.99</ele>
        <time>2019-10-17T02:35:20Z</time>
      </trkpt>
      <trkpt lat="39.71075" lon="-7.51802">
        <ele>214.54</ele>
        <time>2019-10-17T02:35:40Z</time>
      </trkpt>
      <trkpt lat="39.7108" lon="-7.51816">
        <ele>214.788</ele>
        <time>2019-10-17T02:36:00Z</time>
      </trkpt>
      <trkpt lat="39.71084" lon="-7.51829">
        <ele>214.824</ele>
        <time>2019-10-17T02:36:20Z</time>
      </trkpt>
      <trkpt lat="39.71089" lon="-7.51842">
        <ele>214.826</ele>
        <time>2019-10-17T02:36:40Z</time>
      </trkpt>
      <trkpt lat="39.71094" lon="-7.51856">
        <ele>214.608</ele>
        <time>2019-10-17T02:37:00Z</time>
      </trkpt>
      <trkpt lat="39.71115" lon="-7.51897">
        <ele>212.242</ele>
        <time>2019-10-17T02:37:20Z</time>
      </trkpt>
      <trkpt lat="39.71155" lon="-7.5199">
        <ele>213.51</ele>
        <time>2019-10-17T02:37:40Z</time>
      </trkpt>
      <trkpt lat="39.71163" lon="-7.51999">
        <ele>213.212</ele>
        <time>2019-10-17T02:38:00Z</time>
      </trkpt>
      <trkpt lat="39.71207" lon="-7.52033">
        <ele>209.912</ele>
        <time>2019-10-17T02:38:20Z</time>
      </trkpt>
      <trkpt lat="39.71295" lon="-7.52104">
        <ele>203.864</ele>
        <time>2019-10-17T02:38:40Z</time>
      </trkpt>
      <trkpt lat="39.71307" lon="-7.52114">
        <ele>202.775</ele>
        <time>2019-10-17T02:39:00Z</time>
      </trkpt>
      <trkpt lat="39.71365" lon="-7.52158">
        <ele>196.077</ele>
        <time>2019-10-17T02:39:20Z</time>
      </trkpt>
      <trkpt lat="39.71396" lon="-7.52191">
        <ele>195.937</ele>
        <time>2019-10-17T02:39:40Z</time>
      </trkpt>
      <trkpt lat="39.71406" lon="-7.522">
        <ele>194.687</ele>
        <time>2019-10-17T02:40:00Z</time>
      </trkpt>
      <trkpt lat="39.71424" lon="-7.52215">
        <ele>192.442</ele>
        <time>2019-10-17T02:40:20Z</time>
      </trkpt>
      <trkpt lat="39.71431" lon="-7.52225">
        <ele>191.526</ele>
        <time>2019-10-17T02:40:40Z</time>
      </trkpt>
      <trkpt lat="39.71462" lon="-7.52272">
        <ele>184.508</ele>
        <time>2019-10-17T02:41:00Z</time>
      </trkpt>
      <trkpt lat="39.71474" lon="-7.52294">
        <ele>181.182</ele>
        <time>2019-10-17T02:41:20Z</time>
      </trkpt>
      <trkpt lat="39.715" lon="-7.52343">
        <ele>179.76</ele>
        <time>2019-10-17T02:41:40Z</time>
      </trkpt>
      <trkpt lat="39.71509" lon="-7.52354">
        <ele>179.892</ele>
        <time>2019-10-17T02:42:00Z</time>
      </trkpt>
      <trkpt lat="39.71519" lon="-7.52363">
        <ele>179.762</ele>
        <time>2019-10-17T02:42:20Z</time>
      </trkpt>
      <trkpt lat="39.7155" lon="-7.52385">
        <ele>178.514</ele>
        <time>2019-10-17T02:42:40Z</time>
      </trkpt>
      <trkpt lat="39.71554" lon="-7.52389">
        <ele>178.245</ele>
        <time>2019-10-17T02:43:00Z</time>
      </trkpt>
      <trkpt lat="39.71557" lon="-7.5239">
        <ele>178.057</ele>
        <time>2019-10-17T02:43:20Z</time>
      </trkpt>
      <trkpt lat="39.71558" lon="-7.5239">
        <ele>178.147</ele>
        <time>2019-10-17T02:43:40Z</time>
      </trkpt>
      <trkpt lat="39.71561" lon="-7.52389">
        <ele>178.067</ele>
        <time>2019-10-17T02:44:00Z</time>
      </trkpt>
      <trkpt lat="39.71569" lon="-7.52387">
        <ele>177.981</ele>
        <time>2019-10-17T02:44:20Z</time>
      </trkpt>
      <trkpt lat="39.71573" lon="-7.52386">
        <ele>177.919</ele>
        <time>2019-10-17T02:44:40Z</time>
      </trkpt>
      <trkpt lat="39.71578" lon="-7.52387">
        <ele>177.908</ele>
        <time>2019-10-17T02:45:00Z</time>
      </trkpt>
      <trkpt lat="39.71582" lon="-7.52388">
        <ele>178.06</ele>
        <time>2019-10-17T02:45:20Z</time>
      </trkpt>
      <trkpt lat="39.71586" lon="-7.52391">
        <ele>178.318</ele>
        <time>2019-10-17T02:45:40Z</time>
      </trkpt>
      <trkpt lat="39.7159" lon="-7.52393">
        <ele>178.77</ele>
        <time>2019-10-17T02:46:00Z</time>
      </trkpt>
      <trkpt lat="39.71594" lon="-7.52395">
        <ele>179.11</ele>
        <time>2019-10-17T02:46:20Z</time>
      </trkpt>
      <trkpt lat="39.71597" lon="-7.52398">
        <ele>179.512</ele>
        <time>2019-10-17T02:46:40Z</time>
      </trkpt>
      <trkpt lat="39.71606" lon="-7.52404">
        <ele>180.293</ele>
        <time>2019-10-17T02:47:00Z</time>
      </trkpt>
      <trkpt lat="39.71609" lon="-7.52404">
        <ele>180.455</ele>
        <time>2019-10-17T02:47:20Z</time>
      </trkpt>
      <trkpt lat="39.71619" lon="-7.52404">
        <ele>180.815</ele>
        <time>2019-10-17T02:47:40Z</time>
      </trkpt>
      <trkpt lat="39.71626" lon="-7.52406">
        <ele>181.186</ele>
        <time>2019-10-17T02:48:00Z</time>
      </trkpt>
      <trkpt lat="39.71649" lon="-7.52416">
        <ele>181.36</ele>
        <time>2019-10-17T02:48:20Z</time>
      </trkpt>
      <trkpt lat="39.71658" lon="-7.52417">
        <ele>180.626</ele>
        <time>2019-10-17T02:48:40Z</time>
      </trkpt>
      <trkpt lat="39.71667" lon="-7.52415">
        <ele>180.008</ele>
        <time>2019-10-17T02:49:00Z</time>
      </trkpt>
      <trkpt lat="39.71678" lon="-7.52412">
        <ele>179.952</ele>
        <time>2019-10-17T02:49:20Z</time>
      </trkpt>
      <trkpt lat="39.71689" lon="-7.52408">
        <ele>180.12</ele>
        <time>2019-10-17T02:49:40Z</time>
      </trkpt>
      <trkpt lat="39.71722" lon="-7.52399">
        <ele>180.392</ele>
        <time>2019-10-17T02:50:00Z</time>
      </trkpt>
      <trkpt lat="39.71733" lon="-7.52398">
        <ele>179.262</ele>
        <time>2019-10-17T02:50:20Z</time>
      </trkpt>
      <trkpt lat="39.71743" lon="-7.52399">
        <ele>178.024</ele>
        <time>2019-10-17T02:50:40Z</time>
      </trkpt>
      <trkpt lat="39.71753" lon="-7.52401">
        <ele>176.915</ele>
        <time>2019-10-17T02:51:00Z</time>
      </trkpt>
      <trkpt lat="39.71763" lon="-7.52407">
        <ele>176.167</ele>
        <time>2019-10-17T02:51:20Z</time>
      </trkpt>
      <trkpt lat="39.71771" lon="-7.52416">
        <ele>175.367</ele>
        <time>2019-10-17T02:51:40Z</time>
      </trkpt>
      <trkpt lat="39.71779" lon="-7.52426">
        <ele>173.982</ele>
        <time>2019-10-17T02:52:00Z</time>
      </trkpt>
      <trkpt lat="39.71788" lon="-7.52435">
        <ele>172.043</ele>
        <time>2019-10-17T02:52:20Z</time>
      </trkpt>
      <trkpt lat="39.71798" lon="-7.52443">
        <ele>170.017</ele>
        <time>2019-10-17T02:52:40Z</time>
      </trkpt>
      <trkpt lat="39.7181" lon="-7.52449">
        <ele>168.108</ele>
        <time>2019-10-17T02:53:00Z</time>
      </trkpt>
      <trkpt lat="39.71846" lon="-7.52468">
        <ele>163.812</ele>
        <time>2019-10-17T02:53:20Z</time>
      </trkpt>
      <trkpt lat="39.71876" lon="-7.52486">
        <ele>159.89</ele>
        <time>2019-10-17T02:53:40Z</time>
      </trkpt>
      <trkpt lat="39.71891" lon="-7.52495">
        <ele>157.962</ele>
        <time>2019-10-17T02:54:00Z</time>
      </trkpt>
      <trkpt lat="39.71897" lon="-7.52498">
        <ele>157.552</ele>
        <time>2019-10-17T02:54:20Z</time>
      </trkpt>
      <trkpt lat="39.719" lon="-7.525">
        <ele>157.274</ele>
        <time>2019-10-17T02:54:40Z</time>
      </trkpt>
      <trkpt lat="39.71903" lon="-7.52501">
        <ele>157.065</ele>
        <time>2019-10-17T02:55:00Z</time>
      </trkpt>
      <trkpt lat="39.71904" lon="-7.52502">
        <ele>156.967</ele>
        <time>2019-10-17T02:55:20Z</time>
      </trkpt>
      <trkpt lat="39.71904" lon="-7.52502">
        <ele>156.997</ele>
        <time>2019-10-17T02:55:40Z</time>
      </trkpt>
      <trkpt lat="39.71905" lon="-7.52503">
        <ele>156.954</ele>
        <time>2019-10-17T02:56:00Z</time>
      </trkpt>
      <trkpt lat="39.71906" lon="-7.52505">
        <ele>156.856</ele>
        <time>2019-10-17T02:56:20Z</time>
      </trkpt>
      <trkpt lat="39.71908" lon="-7.52545">
        <ele>156.211</ele>
        <time>2019-10-17T02:56:40Z</time>
      </trkpt>
      <trkpt lat="39.71908" lon="-7.52553">
        <ele>156.108</ele>
        <time>2019-10-17T02:57:00Z</time>
      </trkpt>
      <trkpt lat="39.71908" lon="-7.52553">
        <ele>156.089</ele>
        <time>2019-10-17T02:57:20Z</time>
      </trkpt>
      <trkpt lat="39.71929" lon="-7.52555">
        <ele>154.617</ele>
        <time>2019-10-17T02:57:40Z</time>
      </trkpt>
      <trkpt lat="39.71941" lon="-7.52541">
        <ele>154.689</ele>
        <time>2019-10-17T02:58:00Z</time>
      </trkpt>
      <trkpt lat="39.71955" lon="-7.52523">
        <ele>156.169</ele>
        <time>2019-10-17T02:58:20Z</time>
      </trkpt>
      <trkpt lat="39.71959" lon="-7.5252">
        <ele>156.881</ele>
        <time>2019-10-17T02:58:40Z</time>
      </trkpt>
      <trkpt lat="39.71963" lon="-7.52518">
        <ele>157.242</ele>
        <time>2019-10-17T02:59:00Z</time>
      </trkpt>
      <trkpt lat="39.71966" lon="-7.52518">
        <ele>157.514</ele>
        <time>2019-10-17T02:59:20Z</time>
      </trkpt>
      <trkpt lat="39.71971" lon="-7.5252">
        <ele>157.794</ele>
        <time>2019-10-17T02:59:40Z</time>
      </trkpt>
      <trkpt lat="39.71978" lon="-7.52524">
        <ele>157.389</ele>
        <time>2019-10-17T03:00:00Z</time>
      </trkpt>
      <trkpt lat="39.72005" lon="-7.52542">
        <ele>154.106</ele>
        <time>2019-10-17T03:00:20Z</time>
      </trkpt>
      <trkpt lat="39.72014" lon="-7.52546">
        <ele>152.726</ele>
        <time>2019-10-17T03:00:40Z</time>
      </trkpt>
      <trkpt lat="39.72026" lon="-7.52547">
        <ele>151.308</ele>
        <time>2019-10-17T03:01:00Z</time>
      </trkpt>
      <trkpt lat="39.7204" lon="-7.52547">
        <ele>151.052</ele>
        <time>2019-10-17T03:01:20Z</time>
      </trkpt>
      <trkpt lat="39.72079" lon="-7.52539">
        <ele>150.73</ele>
        <time>2019-10-17T03:01:40Z</time>
      </trkpt>
      <trkpt lat="39.7209" lon="-7.52534">
        <ele>150.562</ele>
        <time>2019-10-17T03:02:00Z</time>
      </trkpt>
      <trkpt lat="39.72099" lon="-7.52527">
        <ele>150.522</ele>
        <time>2019-10-17T03:02:20Z</time>
      </trkpt>
      <trkpt lat="39.72109" lon="-7.52518">
        <ele>150.774</ele>
        <time>2019-10-17T03:02:40Z</time>
      </trkpt>
      <trkpt lat="39.7212" lon="-7.52508">
        <ele>150.955</ele>
        <time>2019-10-17T03:03:00Z</time>
      </trkpt>
      <trkpt lat="39.72144" lon="-7.52483">
        <ele>150.357</ele>
        <time>2019-10-17T03:03:20Z</time>
      </trkpt>
      <trkpt lat="39.72149" lon="-7.5248">
        <ele>150.097</ele>
        <time>2019-10-17T03:03:40Z</time>
      </trkpt>
      <trkpt lat="39.72154" lon="-7.52481">
        <ele>149.664</ele>
        <time>2019-10-17T03:04:00Z</time>
      </trkpt>
      <trkpt lat="39.72159" lon="-7.52486">
        <ele>149.106</ele>
        <time>2019-10-17T03:04:20Z</time>
      </trkpt>
      <trkpt lat="39.72164" lon="-7.52495">
        <ele>148.416</ele>
        <time>2019-10-17T03:04:40Z</time>
      </trkpt>
      <trkpt lat="39.7217" lon="-7.52508">
        <ele>148.208</ele>
        <time>2019-10-17T03:05:00Z</time>
      </trkpt>
      <trkpt lat="39.72209" lon="-7.5258">
        <ele>147.64</ele>
        <time>2019-10-17T03:05:20Z</time>
      </trkpt>
      <trkpt lat="39.72212" lon="-7.52585">
        <ele>147.388</ele>
        <time>2019-10-17T03:05:40Z</time>
      </trkpt>
      <trkpt lat="39.72235" lon="-7.52617">
        <ele>147.12</ele>
        <time>2019-10-17T03:06:00Z</time>
      </trkpt>
      <trkpt lat="39.72239" lon="-7.52626">
        <ele>147.37</ele>
        <time>2019-10-17T03:06:20Z</time>
      </trkpt>
      <trkpt lat="39.72243" lon="-7.52635">
        <ele>147.622</ele>
        <time>2019-10-17T03:06:40Z</time>
      </trkpt>
      <trkpt lat="39.72246" lon="-7.52642">
        <ele>148.023</ele>
        <time>2019-10-17T03:07:00Z</time>
      </trkpt>
      <trkpt lat="39.72251" lon="-7.5265">
        <ele>148.845</ele>
        <time>2019-10-17T03:07:20Z</time>
      </trkpt>
      <trkpt lat="39.72254" lon="-7.5265">
        <ele>149.095</ele>
        <time>2019-10-17T03:07:40Z</time>
      </trkpt>
      <trkpt lat="39.7226" lon="-7.52647">
        <ele>149.185</ele>
        <time>2019-10-17T03:08:00Z</time>
      </trkpt>
      <trkpt lat="39.72267" lon="-7.52641">
        <ele>149.389</ele>
        <time>2019-10-17T03:08:20Z</time>
      </trkpt>
      <trkpt lat="39.72276" lon="-7.52631">
        <ele>149.317</ele>
        <time>2019-10-17T03:08:40Z</time>
      </trkpt>
      <trkpt lat="39.72363" lon="-7.52537">
        <ele>147.408</ele>
        <time>2019-10-17T03:09:00Z</time>
      </trkpt>
      <trkpt lat="39.7255" lon="-7.52342">
        <ele>150.332</ele>
        <time>2019-10-17T03:09:20Z</time>
      </trkpt>
      <trkpt lat="39.72728" lon="-7.52189">
        <ele>152.28</ele>
        <time>2019-10-17T03:09:40Z</time>
      </trkpt>
      <trkpt lat="39.72783" lon="-7.52144">
        <ele>154.472</ele>
        <time>2019-10-17T03:10:00Z</time>
      </trkpt>
      <trkpt lat="39.72821" lon="-7.52114">
        <ele>157.092</ele>
        <time>2019-10-17T03:10:20Z</time>
      </trkpt>
      <trkpt lat="39.72877" lon="-7.52069">
        <ele>158.934</ele>
        <time>2019-10-17T03:10:40Z</time>
      </trkpt>
      <trkpt lat="39.72933" lon="-7.52024">
        <ele>161.235</ele>
        <time>2019-10-17T03:11:00Z</time>
      </trkpt>
      <trkpt lat="39.73003" lon="-7.51976">
        <ele>167.757</ele>
        <time>2019-10-17T03:11:20Z</time>
      </trkpt>
      <trkpt lat="39.73022" lon="-7.5197">
        <ele>170.067</ele>
        <time>2019-10-17T03:11:40Z</time>
      </trkpt>
      <trkpt lat="39.73085" lon="-7.51956">
        <ele>171.231</ele>
        <time>2019-10-17T03:12:00Z</time>
      </trkpt>
      <trkpt lat="39.7313" lon="-7.51946">
        <ele>169.961</ele>
        <time>2019-10-17T03:12:20Z</time>
      </trkpt>
      <trkpt lat="39.73198" lon="-7.51932">
        <ele>174.707</ele>
        <time>2019-10-17T03:12:40Z</time>
      </trkpt>
      <trkpt lat="39.73266" lon="-7.51918">
        <ele>176.608</ele>
        <time>2019-10-17T03:13:00Z</time>
      </trkpt>
      <trkpt lat="39.73357" lon="-7.519">
        <ele>183.377</ele>
        <time>2019-10-17T03:13:20Z</time>
      </trkpt>
      <trkpt lat="39.7347" lon="-7.51875">
        <ele>191.775</ele>
        <time>2019-10-17T03:13:40Z</time>
      </trkpt>
      <trkpt lat="39.73534" lon="-7.51859">
        <ele>200.337</ele>
        <time>2019-10-17T03:14:00Z</time>
      </trkpt>
      <trkpt lat="39.73574" lon="-7.51844">
        <ele>202.387</ele>
        <time>2019-10-17T03:14:20Z</time>
      </trkpt>
      <trkpt lat="39.73622" lon="-7.51817">
        <ele>203.779</ele>
        <time>2019-10-17T03:14:40Z</time>
      </trkpt>
      <trkpt lat="39.73635" lon="-7.51807">
        <ele>204.04</ele>
        <time>2019-10-17T03:15:00Z</time>
      </trkpt>
      <trkpt lat="39.73646" lon="-7.51795">
        <ele>204.992</ele>
        <time>2019-10-17T03:15:20Z</time>
      </trkpt>
      <trkpt lat="39.73654" lon="-7.5178">
        <ele>205.632</ele>
        <time>2019-10-17T03:15:40Z</time>
      </trkpt>
      <trkpt lat="39.7366" lon="-7.51762">
        <ele>204.844</ele>
        <time>2019-10-17T03:16:00Z</time>
      </trkpt>
      <trkpt lat="39.73664" lon="-7.5174">
        <ele>203.705</ele>
        <time>2019-10-17T03:16:20Z</time>
      </trkpt>
      <trkpt lat="39.73668" lon="-7.51716">
        <ele>202.615</ele>
        <time>2019-10-17T03:16:40Z</time>
      </trkpt>
      <trkpt lat="39.73683" lon="-7.51605">
        <ele>194.108</ele>
        <time>2019-10-17T03:17:00Z</time>
      </trkpt>
      <trkpt lat="39.73692" lon="-7.51545">
        <ele>194.618</ele>
        <time>2019-10-17T03:17:20Z</time>
      </trkpt>
      <trkpt lat="39.73719" lon="-7.51335">
        <ele>204.836</ele>
        <time>2019-10-17T03:17:40Z</time>
      </trkpt>
      <trkpt lat="39.73706" lon="-7.51215">
        <ele>201.458</ele>
        <time>2019-10-17T03:18:00Z</time>
      </trkpt>
      <trkpt lat="39.73699" lon="-7.5116">
        <ele>200.758</ele>
        <time>2019-10-17T03:18:20Z</time>
      </trkpt>
      <trkpt lat="39.73668" lon="-7.50823">
        <ele>201.95</ele>
        <time>2019-10-17T03:18:40Z</time>
      </trkpt>
      <trkpt lat="39.73653" lon="-7.50575">
        <ele>190.411</ele>
        <time>2019-10-17T03:19:00Z</time>
      </trkpt>
      <trkpt lat="39.73649" lon="-7.50516">
        <ele>192.343</ele>
        <time>2019-10-17T03:19:20Z</time>
      </trkpt>
      <trkpt lat="39.73646" lon="-7.50456">
        <ele>190.033</ele>
        <time>2019-10-17T03:19:40Z</time>
      </trkpt>
      <trkpt lat="39.73642" lon="-7.50396">
        <ele>187.723</ele>
        <time>2019-10-17T03:20:00Z</time>
      </trkpt>
      <trkpt lat="39.73638" lon="-7.5031">
        <ele>184.183</ele>
        <time>2019-10-17T03:20:20Z</time>
      </trkpt>
      <trkpt lat="39.73636" lon="-7.50281">
        <ele>182.811</ele>
        <time>2019-10-17T03:20:40Z</time>
      </trkpt>
      <trkpt lat="39.73629" lon="-7.50173">
        <ele>182.308</ele>
        <time>2019-10-17T03:21:00Z</time>
      </trkpt>
      <trkpt lat="39.73625" lon="-7.50103">
        <ele>180.546</ele>
        <time>2019-10-17T03:21:20Z</time>
      </trkpt>
      <trkpt lat="39.73626" lon="-7.50065">
        <ele>178.184</ele>
        <time>2019-10-17T03:21:40Z</time>
      </trkpt>
      <trkpt lat="39.73629" lon="-7.50049">
        <ele>176.666</ele>
        <time>2019-10-17T03:22:00Z</time>
      </trkpt>
      <trkpt lat="39.73635" lon="-7.50035">
        <ele>175.036</ele>
        <time>2019-10-17T03:22:20Z</time>
      </trkpt>
      <trkpt lat="39.73644" lon="-7.50023">
        <ele>173.588</ele>
        <time>2019-10-17T03:22:40Z</time>
      </trkpt>
      <trkpt lat="39.73655" lon="-7.50013">
        <ele>171.929</ele>
        <time>2019-10-17T03:23:00Z</time>
      </trkpt>
      <trkpt lat="39.73669" lon="-7.50004">
        <ele>169.991</ele>
        <time>2019-10-17T03:23:20Z</time>
      </trkpt>
      <trkpt lat="39.73731" lon="-7.49962">
        <ele>167.661</ele>
        <time>2019-10-17T03:23:40Z</time>
      </trkpt>
      <trkpt lat="39.73759" lon="-7.49939">
        <ele>162.272</ele>
        <time>2019-10-17T03:24:00Z</time>
      </trkpt>
      <trkpt lat="39.7377" lon="-7.49927">
        <ele>160.913</ele>
        <time>2019-10-17T03:24:20Z</time>
      </trkpt>
      <trkpt lat="39.73778" lon="-7.49914">
        <ele>160.814</ele>
        <time>2019-10-17T03:24:40Z</time>
      </trkpt>
      <trkpt lat="39.73782" lon="-7.499">
        <ele>159.708</ele>
        <time>2019-10-17T03:25:00Z</time>
      </trkpt>
      <trkpt lat="39.73783" lon="-7.49884">
        <ele>157.781</ele>
        <time>2019-10-17T03:25:20Z</time>
      </trkpt>
      <trkpt lat="39.73781" lon="-7.49865">
        <ele>154.229</ele>
        <time>2019-10-17T03:25:40Z</time>
      </trkpt>
      <trkpt lat="39.73777" lon="-7.49845">
        <ele>150.261</ele>
        <time>2019-10-17T03:26:00Z</time>
      </trkpt>
      <trkpt lat="39.73772" lon="-7.49824">
        <ele>148.221</ele>
        <time>2019-10-17T03:26:20Z</time>
      </trkpt>
      <trkpt lat="39.73753" lon="-7.49764">
        <ele>149.853</ele>
        <time>2019-10-17T03:26:40Z</time>
      </trkpt>
      <trkpt lat="39.73745" lon="-7.49745">
        <ele>149.144</ele>
        <time>2019-10-17T03:27:00Z</time>
      </trkpt>
      <trkpt lat="39.73735" lon="-7.49727">
        <ele>146.836</ele>
        <time>2019-10-17T03:27:20Z</time>
      </trkpt>
      <trkpt lat="39.73724" lon="-7.49711">
        <ele>145.946</ele>
        <time>2019-10-17T03:27:40Z</time>
      </trkpt>
      <trkpt lat="39.73713" lon="-7.49696">
        <ele>145.623</ele>
        <time>2019-10-17T03:28:00Z</time>
      </trkpt>
      <trkpt lat="39.73701" lon="-7.49682">
        <ele>146.283</ele>
        <time>2019-10-17T03:28:20Z</time>
      </trkpt>
      <trkpt lat="39.7369" lon="-7.49666">
        <ele>145.711</ele>
        <time>2019-10-17T03:28:40Z</time>
      </trkpt>
      <trkpt lat="39.73682" lon="-7.49651">
        <ele>142.608</ele>
        <time>2019-10-17T03:29:00Z</time>
      </trkpt>
      <trkpt lat="39.73677" lon="-7.49635">
        <ele>138.276</ele>
        <time>2019-10-17T03:29:20Z</time>
      </trkpt>
      <trkpt lat="39.73673" lon="-7.49618">
        <ele>134.794</ele>
        <time>2019-10-17T03:29:40Z</time>
      </trkpt>
      <trkpt lat="39.73671" lon="-7.49599">
        <ele>130.866</ele>
        <time>2019-10-17T03:30:00Z</time>
      </trkpt>
      <trkpt lat="39.73671" lon="-7.49581">
        <ele>126.416</ele>
        <time>2019-10-17T03:30:20Z</time>
      </trkpt>
      <trkpt lat="39.73669" lon="-7.49538">
        <ele>117.248</ele>
        <time>2019-10-17T03:30:40Z</time>
      </trkpt>
      <trkpt lat="39.73668" lon="-7.49484">
        <ele>117.729</ele>
        <time>2019-10-17T03:31:00Z</time>
      </trkpt>
      <trkpt lat="39.73667" lon="-7.49426">
        <ele>123.851</ele>
        <time>2019-10-17T03:31:20Z</time>
      </trkpt>
      <trkpt lat="39.73666" lon="-7.49409">
        <ele>127.341</ele>
        <time>2019-10-17T03:31:40Z</time>
      </trkpt>
      <trkpt lat="39.73668" lon="-7.49399">
        <ele>130.157</ele>
        <time>2019-10-17T03:32:00Z</time>
      </trkpt>
      <trkpt lat="39.73671" lon="-7.49391">
        <ele>132.9</ele>
        <time>2019-10-17T03:32:20Z</time>
      </trkpt>
      <trkpt lat="39.73676" lon="-7.49383">
        <ele>133.92</ele>
        <time>2019-10-17T03:32:40Z</time>
      </trkpt>
      <trkpt lat="39.73681" lon="-7.49376">
        <ele>134.508</ele>
        <time>2019-10-17T03:33:00Z</time>
      </trkpt>
      <trkpt lat="39.73685" lon="-7.49369">
        <ele>135.029</ele>
        <time>2019-10-17T03:33:20Z</time>
      </trkpt>
      <trkpt lat="39.73689" lon="-7.49361">
        <ele>135.687</ele>
        <time>2019-10-17T03:33:40Z</time>
      </trkpt>
      <trkpt lat="39.73708" lon="-7.49332">
        <ele>134.999</ele>
        <time>2019-10-17T03:34:00Z</time>
      </trkpt>
      <trkpt lat="39.7371" lon="-7.49326">
        <ele>135.289</ele>
        <time>2019-10-17T03:34:20Z</time>
      </trkpt>
      <trkpt lat="39.73712" lon="-7.49321">
        <ele>135.421</ele>
        <time>2019-10-17T03:34:40Z</time>
      </trkpt>
      <trkpt lat="39.73714" lon="-7.49318">
        <ele>135.742</ele>
        <time>2019-10-17T03:35:00Z</time>
      </trkpt>
      <trkpt lat="39.73717" lon="-7.49317">
        <ele>136.074</ele>
        <time>2019-10-17T03:35:20Z</time>
      </trkpt>
      <trkpt lat="39.73719" lon="-7.49318">
        <ele>136.214</ele>
        <time>2019-10-17T03:35:40Z</time>
      </trkpt>
      <trkpt lat="39.73721" lon="-7.4932">
        <ele>136.395</ele>
        <time>2019-10-17T03:36:00Z</time>
      </trkpt>
      <trkpt lat="39.73722" lon="-7.49323">
        <ele>136.349</ele>
        <time>2019-10-17T03:36:20Z</time>
      </trkpt>
      <trkpt lat="39.73722" lon="-7.49327">
        <ele>136.223</ele>
        <time>2019-10-17T03:36:40Z</time>
      </trkpt>
      <trkpt lat="39.73721" lon="-7.49332">
        <ele>135.908</ele>
        <time>2019-10-17T03:37:00Z</time>
      </trkpt>
      <trkpt lat="39.73718" lon="-7.49339">
        <ele>136.183</ele>
        <time>2019-10-17T03:37:20Z</time>
      </trkpt>
      <trkpt lat="39.73714" lon="-7.49346">
        <ele>136.391</ele>
        <time>2019-10-17T03:37:40Z</time>
      </trkpt>
      <trkpt lat="39.73711" lon="-7.49354">
        <ele>136.793</ele>
        <time>2019-10-17T03:38:00Z</time>
      </trkpt>
      <trkpt lat="39.7371" lon="-7.49361">
        <ele>137.133</ele>
        <time>2019-10-17T03:38:20Z</time>
      </trkpt>
      <trkpt lat="39.73711" lon="-7.49366">
        <ele>136.875</ele>
        <time>2019-10-17T03:38:40Z</time>
      </trkpt>
      <trkpt lat="39.73716" lon="-7.49371">
        <ele>136.686</ele>
        <time>2019-10-17T03:39:00Z</time>
      </trkpt>
      <trkpt lat="39.73719" lon="-7.49371">
        <ele>136.848</ele>
        <time>2019-10-17T03:39:20Z</time>
      </trkpt>
      <trkpt lat="39.73722" lon="-7.49369">
        <ele>137.118</ele>
        <time>2019-10-17T03:39:40Z</time>
      </trkpt>
      <trkpt lat="39.73725" lon="-7.49365">
        <ele>137.498</ele>
        <time>2019-10-17T03:40:00Z</time>
      </trkpt>
      <trkpt lat="39.73727" lon="-7.4936">
        <ele>137.815</ele>
        <time>2019-10-17T03:40:20Z</time>
      </trkpt>
      <trkpt lat="39.7373" lon="-7.49353">
        <ele>137.526</ele>
        <time>2019-10-17T03:40:40Z</time>
      </trkpt>
      <trkpt lat="39.73748" lon="-7.49314">
        <ele>138.808</ele>
        <time>2019-10-17T03:41:00Z</time>
      </trkpt>
      <trkpt lat="39.7375" lon="-7.49302">
        <ele>140.163</ele>
        <time>2019-10-17T03:41:20Z</time>
      </trkpt>
      <trkpt lat="39.73751" lon="-7.4929">
        <ele>143.631</ele>
        <time>2019-10-17T03:41:40Z</time>
      </trkpt>
      <trkpt lat="39.73751" lon="-7.49279">
        <ele>146.863</ele>
        <time>2019-10-17T03:42:00Z</time>
      </trkpt>
      <trkpt lat="39.73753" lon="-7.4927">
        <ele>148.893</ele>
        <time>2019-10-17T03:42:20Z</time>
      </trkpt>
      <trkpt lat="39.73755" lon="-7.49262">
        <ele>150.635</ele>
        <time>2019-10-17T03:42:40Z</time>
      </trkpt>
      <trkpt lat="39.73758" lon="-7.49254">
        <ele>152.466</ele>
        <time>2019-10-17T03:43:00Z</time>
      </trkpt>
      <trkpt lat="39.73761" lon="-7.49247">
        <ele>154.088</ele>
        <time>2019-10-17T03:43:20Z</time>
      </trkpt>
      <trkpt lat="39.73768" lon="-7.4923">
        <ele>156.878</ele>
        <time>2019-10-17T03:43:40Z</time>
      </trkpt>
      <trkpt lat="39.73778" lon="-7.49196">
        <ele>161.895</ele>
        <time>2019-10-17T03:44:00Z</time>
      </trkpt>
      <trkpt lat="39.73781" lon="-7.49183">
        <ele>162.949</ele>
        <time>2019-10-17T03:44:20Z</time>
      </trkpt>
      <trkpt lat="39.73782" lon="-7.49169">
        <ele>164.223</ele>
        <time>2019-10-17T03:44:40Z</time>
      </trkpt>
      <trkpt lat="39.73782" lon="-7.49154">
        <ele>165.208</ele>
        <time>2019-10-17T03:45:00Z</time>
      </trkpt>
      <trkpt lat="39.7378" lon="-7.49139">
        <ele>166.683</ele>
        <time>2019-10-17T03:45:20Z</time>
      </trkpt>
      <trkpt lat="39.73776" lon="-7.49125">
        <ele>167.811</ele>
        <time>2019-10-17T03:45:40Z</time>
      </trkpt>
      <trkpt lat="39.73771" lon="-7.4911">
        <ele>168.333</ele>
        <time>2019-10-17T03:46:00Z</time>
      </trkpt>
      <trkpt lat="39.73765" lon="-7.49097">
        <ele>168.763</ele>
        <time>2019-10-17T03:46:20Z</time>
      </trkpt>
      <trkpt lat="39.73761" lon="-7.49085">
        <ele>169.125</ele>
        <time>2019-10-17T03:46:40Z</time>
      </trkpt>
      <trkpt lat="39.73758" lon="-7.49073">
        <ele>168.956</ele>
        <time>2019-10-17T03:47:00Z</time>
      </trkpt>
      <trkpt lat="39.73756" lon="-7.4906">
        <ele>168.958</ele>
        <time>2019-10-17T03:47:20Z</time>
      </trkpt>
      <trkpt lat="39.73749" lon="-7.48997">
        <ele>175.048</ele>
        <time>2019-10-17T03:47:40Z</time>
      </trkpt>
      <trkpt lat="39.73747" lon="-7.48934">
        <ele>177.942</ele>
        <time>2019-10-17T03:48:00Z</time>
      </trkpt>
      <trkpt lat="39.73748" lon="-7.48921">
        <ele>179.922</ele>
        <time>2019-10-17T03:48:20Z</time>
      </trkpt>
      <trkpt lat="39.7375" lon="-7.48908">
        <ele>181.014</ele>
        <time>2019-10-17T03:48:40Z</time>
      </trkpt>
      <trkpt lat="39.73755" lon="-7.48896">
        <ele>181.608</ele>
        <time>2019-10-17T03:49:00Z</time>
      </trkpt>
      <trkpt lat="39.73761" lon="-7.48886">
        <ele>182.488</ele>
        <time>2019-10-17T03:49:20Z</time>
      </trkpt>
      <trkpt lat="39.73768" lon="-7.48876">
        <ele>183.326</ele>
        <time>2019-10-17T03:49:40Z</time>
      </trkpt>
      <trkpt lat="39.73777" lon="-7.48865">
        <ele>184.948</ele>
        <time>2019-10-17T03:50:00Z</time>
      </trkpt>
      <trkpt lat="39.738" lon="-7.48831">
        <ele>186.848</ele>
        <time>2019-10-17T03:50:20Z</time>
      </trkpt>
      <trkpt lat="39.73804" lon="-7.48821">
        <ele>187.08</ele>
        <time>2019-10-17T03:50:40Z</time>
      </trkpt>
      <trkpt lat="39.73805" lon="-7.48811">
        <ele>187.071</ele>
        <time>2019-10-17T03:51:00Z</time>
      </trkpt>
      <trkpt lat="39.73804" lon="-7.48803">
        <ele>187.233</ele>
        <time>2019-10-17T03:51:20Z</time>
      </trkpt>
      <trkpt lat="39.73801" lon="-7.48794">
        <ele>187.753</ele>
        <time>2019-10-17T03:51:40Z</time>
      </trkpt>
      <trkpt lat="39.73796" lon="-7.48784">
        <ele>188.799</ele>
        <time>2019-10-17T03:52:00Z</time>
      </trkpt>
      <trkpt lat="39.7379" lon="-7.48774">
        <ele>190.307</ele>
        <time>2019-10-17T03:52:20Z</time>
      </trkpt>
      <trkpt lat="39.73783" lon="-7.48765">
        <ele>192.727</ele>
        <time>2019-10-17T03:52:40Z</time>
      </trkpt>
      <trkpt lat="39.73776" lon="-7.48758">
        <ele>194.708</ele>
        <time>2019-10-17T03:53:00Z</time>
      </trkpt>
      <trkpt lat="39.73768" lon="-7.48751">
        <ele>196.113</ele>
        <time>2019-10-17T03:53:20Z</time>
      </trkpt>
      <trkpt lat="39.73759" lon="-7.48745">
        <ele>197.891</ele>
        <time>2019-10-17T03:53:40Z</time>
      </trkpt>
      <trkpt lat="39.73751" lon="-7.48739">
        <ele>199.883</ele>
        <time>2019-10-17T03:54:00Z</time>
      </trkpt>
      <trkpt lat="39.73742" lon="-7.48731">
        <ele>202.083</ele>
        <time>2019-10-17T03:54:20Z</time>
      </trkpt>
      <trkpt lat="39.73734" lon="-7.48722">
        <ele>204.695</ele>
        <time>2019-10-17T03:54:40Z</time>
      </trkpt>
      <trkpt lat="39.73727" lon="-7.48713">
        <ele>206.986</ele>
        <time>2019-10-17T03:55:00Z</time>
      </trkpt>
      <trkpt lat="39.73722" lon="-7.48702">
        <ele>209.338</ele>
        <time>2019-10-17T03:55:20Z</time>
      </trkpt>
      <trkpt lat="39.7372" lon="-7.48691">
        <ele>210.738</ele>
        <time>2019-10-17T03:55:40Z</time>
      </trkpt>
      <trkpt lat="39.7372" lon="-7.4868">
        <ele>211.465</ele>
        <time>2019-10-17T03:56:00Z</time>
      </trkpt>
      <trkpt lat="39.73722" lon="-7.4867">
        <ele>212.868</ele>
        <time>2019-10-17T03:56:20Z</time>
      </trkpt>
      <trkpt lat="39.73727" lon="-7.48659">
        <ele>213.014</ele>
        <time>2019-10-17T03:56:40Z</time>
      </trkpt>
      <trkpt lat="39.73734" lon="-7.48649">
        <ele>213.308</ele>
        <time>2019-10-17T03:57:00Z</time>
      </trkpt>
      <trkpt lat="39.7375" lon="-7.48617">
        <ele>215.06</ele>
        <time>2019-10-17T03:57:20Z</time>
      </trkpt>
      <trkpt lat="39.73754" lon="-7.48604">
        <ele>215.238</ele>
        <time>2019-10-17T03:57:40Z</time>
      </trkpt>
      <trkpt lat="39.73756" lon="-7.4859">
        <ele>216.14</ele>
        <time>2019-10-17T03:58:00Z</time>
      </trkpt>
      <trkpt lat="39.73757" lon="-7.48574">
        <ele>216.91</ele>
        <time>2019-10-17T03:58:20Z</time>
      </trkpt>
      <trkpt lat="39.73758" lon="-7.48557">
        <ele>217.612</ele>
        <time>2019-10-17T03:58:40Z</time>
      </trkpt>
      <trkpt lat="39.7376" lon="-7.48539">
        <ele>218.273</ele>
        <time>2019-10-17T03:59:00Z</time>
      </trkpt>
      <trkpt lat="39.73762" lon="-7.48506">
        <ele>218.625</ele>
        <time>2019-10-17T03:59:20Z</time>
      </trkpt>
      <trkpt lat="39.7376" lon="-7.48492">
        <ele>218.625</ele>
        <time>2019-10-17T03:59:40Z</time>
      </trkpt>
      <trkpt lat="39.73755" lon="-7.48479">
        <ele>218.792</ele>
        <time>2019-10-17T04:00:00Z</time>
      </trkpt>
      <trkpt lat="39.73749" lon="-7.48466">
        <ele>219.173</ele>
        <time>2019-10-17T04:00:20Z</time>
      </trkpt>
      <trkpt lat="39.7374" lon="-7.48452">
        <ele>219.62</ele>
        <time>2019-10-17T04:00:40Z</time>
      </trkpt>
      <trkpt lat="39.73723" lon="-7.48423">
        <ele>221.708</ele>
        <time>2019-10-17T04:01:00Z</time>
      </trkpt>
      <trkpt lat="39.73715" lon="-7.48411">
        <ele>221.583</ele>
        <time>2019-10-17T04:01:20Z</time>
      </trkpt>
      <trkpt lat="39.73709" lon="-7.48399">
        <ele>221.381</ele>
        <time>2019-10-17T04:01:40Z</time>
      </trkpt>
      <trkpt lat="39.73704" lon="-7.48385">
        <ele>221.483</ele>
        <time>2019-10-17T04:02:00Z</time>
      </trkpt>
      <trkpt lat="39.73702" lon="-7.4837">
        <ele>221.373</ele>
        <time>2019-10-17T04:02:20Z</time>
      </trkpt>
      <trkpt lat="39.737" lon="-7.48354">
        <ele>220.715</ele>
        <time>2019-10-17T04:02:40Z</time>
      </trkpt>
      <trkpt lat="39.73701" lon="-7.48338">
        <ele>219.536</ele>
        <time>2019-10-17T04:03:00Z</time>
      </trkpt>
      <trkpt lat="39.73702" lon="-7.48321">
        <ele>218.418</ele>
        <time>2019-10-17T04:03:20Z</time>
      </trkpt>
      <trkpt lat="39.73704" lon="-7.48304">
        <ele>217.378</ele>
        <time>2019-10-17T04:03:40Z</time>
      </trkpt>
      <trkpt lat="39.73707" lon="-7.48287">
        <ele>216.553</ele>
        <time>2019-10-17T04:04:00Z</time>
      </trkpt>
      <trkpt lat="39.73712" lon="-7.48272">
        <ele>216.204</ele>
        <time>2019-10-17T04:04:20Z</time>
      </trkpt>
      <trkpt lat="39.73749" lon="-7.48167">
        <ele>213.014</ele>
        <time>2019-10-17T04:04:40Z</time>
      </trkpt>
      <trkpt lat="39.7375" lon="-7.48161">
        <ele>213.008</ele>
        <time>2019-10-17T04:05:00Z</time>
      </trkpt>
      <trkpt lat="39.73749" lon="-7.48157">
        <ele>212.999</ele>
        <time>2019-10-17T04:05:20Z</time>
      </trkpt>
      <trkpt lat="39.73748" lon="-7.48152">
        <ele>212.817</ele>
        <time>2019-10-17T04:05:40Z</time>
      </trkpt>
      <trkpt lat="39.73745" lon="-7.48146">
        <ele>212.779</ele>
        <time>2019-10-17T04:06:00Z</time>
      </trkpt>
      <trkpt lat="39.73742" lon="-7.48139">
        <ele>212.479</ele>
        <time>2019-10-17T04:06:20Z</time>
      </trkpt>
      <trkpt lat="39.73737" lon="-7.48131">
        <ele>212.331</ele>
        <time>2019-10-17T04:06:40Z</time>
      </trkpt>
      <trkpt lat="39.73723" lon="-7.48111">
        <ele>213.022</ele>
        <time>2019-10-17T04:07:00Z</time>
      </trkpt>
      <trkpt lat="39.73713" lon="-7.48102">
        <ele>213.754</ele>
        <time>2019-10-17T04:07:20Z</time>
      </trkpt>
      <trkpt lat="39.73682" lon="-7.48076">
        <ele>214.964</ele>
        <time>2019-10-17T04:07:40Z</time>
      </trkpt>
      <trkpt lat="39.73674" lon="-7.48066">
        <ele>215.428</ele>
        <time>2019-10-17T04:08:00Z</time>
      </trkpt>
      <trkpt lat="39.73668" lon="-7.48054">
        <ele>216.089</ele>
        <time>2019-10-17T04:08:20Z</time>
      </trkpt>
      <trkpt lat="39.73664" lon="-7.48042">
        <ele>216.017</ele>
        <time>2019-10-17T04:08:40Z</time>
      </trkpt>
      <trkpt lat="39.73662" lon="-7.48028">
        <ele>216.008</ele>
        <time>2019-10-17T04:09:00Z</time>
      </trkpt>
      <trkpt lat="39.7366" lon="-7.48012">
        <ele>216.156</ele>
        <time>2019-10-17T04:09:20Z</time>
      </trkpt>
      <trkpt lat="39.73657" lon="-7.47996">
        <ele>216.574</ele>
        <time>2019-10-17T04:09:40Z</time>
      </trkpt>
      <trkpt lat="39.73653" lon="-7.47981">
        <ele>217.226</ele>
        <time>2019-10-17T04:10:00Z</time>
      </trkpt>
      <trkpt lat="39.73647" lon="-7.47968">
        <ele>217.826</ele>
        <time>2019-10-17T04:10:20Z</time>
      </trkpt>
      <trkpt lat="39.73638" lon="-7.47956">
        <ele>218.668</ele>
        <time>2019-10-17T04:10:40Z</time>
      </trkpt>
      <trkpt lat="39.73628" lon="-7.47946">
        <ele>219.039</ele>
        <time>2019-10-17T04:11:00Z</time>
      </trkpt>
      <trkpt lat="39.73618" lon="-7.47939">
        <ele>218.911</ele>
        <time>2019-10-17T04:11:20Z</time>
      </trkpt>
      <trkpt lat="39.73606" lon="-7.47934">
        <ele>218.931</ele>
        <time>2019-10-17T04:11:40Z</time>
      </trkpt>
      <trkpt lat="39.73592" lon="-7.4793">
        <ele>218.695</ele>
        <time>2019-10-17T04:12:00Z</time>
      </trkpt>
      <trkpt lat="39.73527" lon="-7.47903">
        <ele>220.149</ele>
        <time>2019-10-17T04:12:20Z</time>
      </trkpt>
      <trkpt lat="39.73517" lon="-7.47896">
        <ele>220.623</ele>
        <time>2019-10-17T04:12:40Z</time>
      </trkpt>
      <trkpt lat="39.7351" lon="-7.47889">
        <ele>221.308</ele>
        <time>2019-10-17T04:13:00Z</time>
      </trkpt>
      <trkpt lat="39.73502" lon="-7.47878">
        <ele>222.253</ele>
        <time>2019-10-17T04:13:20Z</time>
      </trkpt>
      <trkpt lat="39.7346" lon="-7.47801">
        <ele>220.961</ele>
        <time>2019-10-17T04:13:40Z</time>
      </trkpt>
      <trkpt lat="39.7341" lon="-7.47724">
        <ele>223.793</ele>
        <time>2019-10-17T04:14:00Z</time>
      </trkpt>
      <trkpt lat="39.73406" lon="-7.47722">
        <ele>224.273</ele>
        <time>2019-10-17T04:14:20Z</time>
      </trkpt>
      <trkpt lat="39.73402" lon="-7.47723">
        <ele>224.535</ele>
        <time>2019-10-17T04:14:40Z</time>
      </trkpt>
      <trkpt lat="39.73398" lon="-7.47726">
        <ele>224.966</ele>
        <time>2019-10-17T04:15:00Z</time>
      </trkpt>
      <trkpt lat="39.73391" lon="-7.4773">
        <ele>225.588</ele>
        <time>2019-10-17T04:15:20Z</time>
      </trkpt>
      <trkpt lat="39.73326" lon="-7.47776">
        <ele>226.148</ele>
        <time>2019-10-17T04:15:40Z</time>
      </trkpt>
      <trkpt lat="39.73318" lon="-7.47778">
        <ele>226.053</ele>
        <time>2019-10-17T04:16:00Z</time>
      </trkpt>
      <trkpt lat="39.73311" lon="-7.47777">
        <ele>226.004</ele>
        <time>2019-10-17T04:16:20Z</time>
      </trkpt>
      <trkpt lat="39.73305" lon="-7.47775">
        <ele>226.114</ele>
        <time>2019-10-17T04:16:40Z</time>
      </trkpt>
      <trkpt lat="39.73302" lon="-7.47773">
        <ele>226.108</ele>
        <time>2019-10-17T04:17:00Z</time>
      </trkpt>
      <trkpt lat="39.733" lon="-7.47772">
        <ele>226.289</ele>
        <time>2019-10-17T04:17:20Z</time>
      </trkpt>
      <trkpt lat="39.73299" lon="-7.4777">
        <ele>226.217</ele>
        <time>2019-10-17T04:17:40Z</time>
      </trkpt>
      <trkpt lat="39.73298" lon="-7.47766">
        <ele>226.399</ele>
        <time>2019-10-17T04:18:00Z</time>
      </trkpt>
      <trkpt lat="39.73298" lon="-7.4776">
        <ele>226.539</ele>
        <time>2019-10-17T04:18:20Z</time>
      </trkpt>
      <trkpt lat="39.733" lon="-7.47753">
        <ele>226.791</ele>
        <time>2019-10-17T04:18:40Z</time>
      </trkpt>
      <trkpt lat="39.73302" lon="-7.47743">
        <ele>227.142</ele>
        <time>2019-10-17T04:19:00Z</time>
      </trkpt>
      <trkpt lat="39.73321" lon="-7.47653">
        <ele>227.694</ele>
        <time>2019-10-17T04:19:20Z</time>
      </trkpt>
      <trkpt lat="39.73324" lon="-7.47639">
        <ele>227.774</ele>
        <time>2019-10-17T04:19:40Z</time>
      </trkpt>
      <trkpt lat="39.73331" lon="-7.47607">
        <ele>228.084</ele>
        <time>2019-10-17T04:20:00Z</time>
      </trkpt>
      <trkpt lat="39.73334" lon="-7.47605">
        <ele>228.007</ele>
        <time>2019-10-17T04:20:20Z</time>
      </trkpt>
      <trkpt lat="39.73337" lon="-7.47605">
        <ele>228.117</ele>
        <time>2019-10-17T04:20:40Z</time>
      </trkpt>
      <trkpt lat="39.73345" lon="-7.47606">
        <ele>228.308</ele>
        <time>2019-10-17T04:21:00Z</time>
      </trkpt>
      <trkpt lat="39.73345" lon="-7.47604">
        <ele>228.362</ele>
        <time>2019-10-17T04:21:20Z</time>
      </trkpt>
      <trkpt lat="39.73348" lon="-7.47604">
        <ele>228.46</ele>
        <time>2019-10-17T04:21:40Z</time>
      </trkpt>
      <trkpt lat="39.73394" lon="-7.47598">
        <ele>228.142</ele>
        <time>2019-10-17T04:22:00Z</time>
      </trkpt>
      <trkpt lat="39.73474" lon="-7.47586">
        <ele>218.832</ele>
        <time>2019-10-17T04:22:20Z</time>
      </trkpt>
      <trkpt lat="39.73504" lon="-7.47583">
        <ele>216.894</ele>
        <time>2019-10-17T04:22:40Z</time>
      </trkpt>
      <trkpt lat="39.73523" lon="-7.47581">
        <ele>216.185</ele>
        <time>2019-10-17T04:23:00Z</time>
      </trkpt>
      <trkpt lat="39.73543" lon="-7.47577">
        <ele>215.287</ele>
        <time>2019-10-17T04:23:20Z</time>
      </trkpt>
      <trkpt lat="39.73632" lon="-7.4754">
        <ele>212.467</ele>
        <time>2019-10-17T04:23:40Z</time>
      </trkpt>
      <trkpt lat="39.7364" lon="-7.47532">
        <ele>212.051</ele>
        <time>2019-10-17T04:24:00Z</time>
      </trkpt>
      <trkpt lat="39.7365" lon="-7.47524">
        <ele>212.401</ele>
        <time>2019-10-17T04:24:20Z</time>
      </trkpt>
      <trkpt lat="39.73661" lon="-7.47518">
        <ele>212.811</ele>
        <time>2019-10-17T04:24:40Z</time>
      </trkpt>
      <trkpt lat="39.73671" lon="-7.47512">
        <ele>212.808</ele>
        <time>2019-10-17T04:25:00Z</time>
      </trkpt>
      <trkpt lat="39.73682" lon="-7.47507">
        <ele>212.459</ele>
        <time>2019-10-17T04:25:20Z</time>
      </trkpt>
      <trkpt lat="39.73694" lon="-7.47503">
        <ele>212.047</ele>
        <time>2019-10-17T04:25:40Z</time>
      </trkpt>
      <trkpt lat="39.73757" lon="-7.47488">
        <ele>205.039</ele>
        <time>2019-10-17T04:26:00Z</time>
      </trkpt>
      <trkpt lat="39.73776" lon="-7.4748">
        <ele>204.729</ele>
        <time>2019-10-17T04:26:20Z</time>
      </trkpt>
      <trkpt lat="39.73784" lon="-7.47476">
        <ele>204.781</ele>
        <time>2019-10-17T04:26:40Z</time>
      </trkpt>
      <trkpt lat="39.7379" lon="-7.4747">
        <ele>204.512</ele>
        <time>2019-10-17T04:27:00Z</time>
      </trkpt>
      <trkpt lat="39.73796" lon="-7.47461">
        <ele>204.084</ele>
        <time>2019-10-17T04:27:20Z</time>
      </trkpt>
      <trkpt lat="39.73803" lon="-7.47452">
        <ele>203.444</ele>
        <time>2019-10-17T04:27:40Z</time>
      </trkpt>
      <trkpt lat="39.73811" lon="-7.47441">
        <ele>202.265</ele>
        <time>2019-10-17T04:28:00Z</time>
      </trkpt>
      <trkpt lat="39.73832" lon="-7.47418">
        <ele>199.268</ele>
        <time>2019-10-17T04:28:20Z</time>
      </trkpt>
      <trkpt lat="39.73863" lon="-7.47389">
        <ele>192.814</ele>
        <time>2019-10-17T04:28:40Z</time>
      </trkpt>
      <trkpt lat="39.73895" lon="-7.47357">
        <ele>187.408</ele>
        <time>2019-10-17T04:29:00Z</time>
      </trkpt>
      <trkpt lat="39.73911" lon="-7.47341">
        <ele>185.74</ele>
        <time>2019-10-17T04:29:20Z</time>
      </trkpt>
      <trkpt lat="39.73919" lon="-7.47336">
        <ele>185.058</ele>
        <time>2019-10-17T04:29:40Z</time>
      </trkpt>
      <trkpt lat="39.73928" lon="-7.47333">
        <ele>184.11</ele>
        <time>2019-10-17T04:30:00Z</time>
      </trkpt>
      <trkpt lat="39.73938" lon="-7.47331">
        <ele>183.18</ele>
        <time>2019-10-17T04:30:20Z</time>
      </trkpt>
      <trkpt lat="39.73948" lon="-7.47329">
        <ele>181.742</ele>
        <time>2019-10-17T04:30:40Z</time>
      </trkpt>
      <trkpt lat="39.73958" lon="-7.47325">
        <ele>180.093</ele>
        <time>2019-10-17T04:31:00Z</time>
      </trkpt>
      <trkpt lat="39.73967" lon="-7.47319">
        <ele>178.425</ele>
        <time>2019-10-17T04:31:20Z</time>
      </trkpt>
      <trkpt lat="39.73976" lon="-7.47312">
        <ele>177.145</ele>
        <time>2019-10-17T04:31:40Z</time>
      </trkpt>
      <trkpt lat="39.73991" lon="-7.47303">
        <ele>175.552</ele>
        <time>2019-10-17T04:32:00Z</time>
      </trkpt>
      <trkpt lat="39.73998" lon="-7.47301">
        <ele>175.153</ele>
        <time>2019-10-17T04:32:20Z</time>
      </trkpt>
      <trkpt lat="39.74005" lon="-7.47301">
        <ele>174.508</ele>
        <time>2019-10-17T04:32:40Z</time>
      </trkpt>
      <trkpt lat="39.7402" lon="-7.473">
        <ele>172.908</ele>
        <time>2019-10-17T04:33:00Z</time>
      </trkpt>
      <trkpt lat="39.74026" lon="-7.47297">
        <ele>172.259</ele>
        <time>2019-10-17T04:33:20Z</time>
      </trkpt>
      <trkpt lat="39.74032" lon="-7.47293">
        <ele>171.167</ele>
        <time>2019-10-17T04:33:40Z</time>
      </trkpt>
      <trkpt lat="39.74035" lon="-7.47288">
        <ele>170.459</ele>
        <time>2019-10-17T04:34:00Z</time>
      </trkpt>
      <trkpt lat="39.74038" lon="-7.47283">
        <ele>170.079</ele>
        <time>2019-10-17T04:34:20Z</time>
      </trkpt>
      <trkpt lat="39.7404" lon="-7.47275">
        <ele>169.791</ele>
        <time>2019-10-17T04:34:40Z</time>
      </trkpt>
      <trkpt lat="39.74042" lon="-7.47265">
        <ele>169.362</ele>
        <time>2019-10-17T04:35:00Z</time>
      </trkpt>
      <trkpt lat="39.74042" lon="-7.47253">
        <ele>169.014</ele>
        <time>2019-10-17T04:35:20Z</time>
      </trkpt>
      <trkpt lat="39.74042" lon="-7.47241">
        <ele>168.834</ele>
        <time>2019-10-17T04:35:40Z</time>
      </trkpt>
      <trkpt lat="39.7404" lon="-7.47228">
        <ele>168.772</ele>
        <time>2019-10-17T04:36:00Z</time>
      </trkpt>
      <trkpt lat="39.74038" lon="-7.47216">
        <ele>168.713</ele>
        <time>2019-10-17T04:36:20Z</time>
      </trkpt>
      <trkpt lat="39.74035" lon="-7.47197">
        <ele>169.014</ele>
        <time>2019-10-17T04:36:40Z</time>
      </trkpt>
      <trkpt lat="39.74032" lon="-7.47191">
        <ele>169.308</ele>
        <time>2019-10-17T04:37:00Z</time>
      </trkpt>
      <trkpt lat="39.74029" lon="-7.47185">
        <ele>169.761</ele>
        <time>2019-10-17T04:37:20Z</time>
      </trkpt>
      <trkpt lat="39.74025" lon="-7.4718">
        <ele>170.149</ele>
        <time>2019-10-17T04:37:40Z</time>
      </trkpt>
      <trkpt lat="39.74009" lon="-7.47164">
        <ele>171.141</ele>
        <time>2019-10-17T04:38:00Z</time>
      </trkpt>
      <trkpt lat="39.74005" lon="-7.47157">
        <ele>171.191</ele>
        <time>2019-10-17T04:38:20Z</time>
      </trkpt>
      <trkpt lat="39.74002" lon="-7.47149">
        <ele>171.163</ele>
        <time>2019-10-17T04:38:40Z</time>
      </trkpt>
      <trkpt lat="39.74" lon="-7.47138">
        <ele>171.054</ele>
        <time>2019-10-17T04:39:00Z</time>
      </trkpt>
      <trkpt lat="39.73998" lon="-7.47127">
        <ele>170.646</ele>
        <time>2019-10-17T04:39:20Z</time>
      </trkpt>
      <trkpt lat="39.73995" lon="-7.47114">
        <ele>170.156</ele>
        <time>2019-10-17T04:39:40Z</time>
      </trkpt>
      <trkpt lat="39.73991" lon="-7.47101">
        <ele>170.619</ele>
        <time>2019-10-17T04:40:00Z</time>
      </trkpt>
      <trkpt lat="39.73986" lon="-7.47088">
        <ele>171.209</ele>
        <time>2019-10-17T04:40:20Z</time>
      </trkpt>
      <trkpt lat="39.73965" lon="-7.47029">
        <ele>173.719</ele>
        <time>2019-10-17T04:40:40Z</time>
      </trkpt>
      <trkpt lat="39.73965" lon="-7.4702">
        <ele>173.708</ele>
        <time>2019-10-17T04:41:00Z</time>
      </trkpt>
      <trkpt lat="39.73966" lon="-7.47014">
        <ele>173.885</ele>
        <time>2019-10-17T04:41:20Z</time>
      </trkpt>
      <trkpt lat="39.73968" lon="-7.47011">
        <ele>173.933</ele>
        <time>2019-10-17T04:41:40Z</time>
      </trkpt>
      <trkpt lat="39.73972" lon="-7.4701">
        <ele>174.045</ele>
        <time>2019-10-17T04:42:00Z</time>
      </trkpt>
      <trkpt lat="39.73976" lon="-7.47012">
        <ele>174.775</ele>
        <time>2019-10-17T04:42:20Z</time>
      </trkpt>
      <trkpt lat="39.73981" lon="-7.47016">
        <ele>175.487</ele>
        <time>2019-10-17T04:42:40Z</time>
      </trkpt>
      <trkpt lat="39.73987" lon="-7.47022">
        <ele>176.048</ele>
        <time>2019-10-17T04:43:00Z</time>
      </trkpt>
      <trkpt lat="39.74025" lon="-7.47057">
        <ele>178.35</ele>
        <time>2019-10-17T04:43:20Z</time>
      </trkpt>
      <trkpt lat="39.74039" lon="-7.47071">
        <ele>178.28</ele>
        <time>2019-10-17T04:43:40Z</time>
      </trkpt>
      <trkpt lat="39.74046" lon="-7.47075">
        <ele>178.242</ele>
        <time>2019-10-17T04:44:00Z</time>
      </trkpt>
      <trkpt lat="39.74052" lon="-7.47079">
        <ele>178.322</ele>
        <time>2019-10-17T04:44:20Z</time>
      </trkpt>
      <trkpt lat="39.74059" lon="-7.47081">
        <ele>178.414</ele>
        <time>2019-10-17T04:44:40Z</time>
      </trkpt>
      <trkpt lat="39.74066" lon="-7.47083">
        <ele>178.408</ele>
        <time>2019-10-17T04:45:00Z</time>
      </trkpt>
      <trkpt lat="39.74072" lon="-7.47084">
        <ele>178.618</ele>
        <time>2019-10-17T04:45:20Z</time>
      </trkpt>
      <trkpt lat="39.74078" lon="-7.47084">
        <ele>178.726</ele>
        <time>2019-10-17T04:45:40Z</time>
      </trkpt>
      <trkpt lat="39.74082" lon="-7.47084">
        <ele>178.928</ele>
        <time>2019-10-17T04:46:00Z</time>
      </trkpt>
      <trkpt lat="39.74091" lon="-7.47081">
        <ele>179.228</ele>
        <time>2019-10-17T04:46:20Z</time>
      </trkpt>
      <trkpt lat="39.74115" lon="-7.47069">
        <ele>179.82</ele>
        <time>2019-10-17T04:46:40Z</time>
      </trkpt>
      <trkpt lat="39.74125" lon="-7.47061">
        <ele>179.741</ele>
        <time>2019-10-17T04:47:00Z</time>
      </trkpt>
      <trkpt lat="39.74136" lon="-7.47051">
        <ele>179.683</ele>
        <time>2019-10-17T04:47:20Z</time>
      </trkpt>
      <trkpt lat="39.74189" lon="-7.47004">
        <ele>177.673</ele>
        <time>2019-10-17T04:47:40Z</time>
      </trkpt>
      <trkpt lat="39.74198" lon="-7.46995">
        <ele>176.823</ele>
        <time>2019-10-17T04:48:00Z</time>
      </trkpt>
      <trkpt lat="39.74205" lon="-7.46984">
        <ele>176.383</ele>
        <time>2019-10-17T04:48:20Z</time>
      </trkpt>
      <trkpt lat="39.74236" lon="-7.46932">
        <ele>174.111</ele>
        <time>2019-10-17T04:48:40Z</time>
      </trkpt>
      <trkpt lat="39.74248" lon="-7.46908">
        <ele>172.508</ele>
        <time>2019-10-17T04:49:00Z</time>
      </trkpt>
      <trkpt lat="39.7428" lon="-7.46856">
        <ele>171.436</ele>
        <time>2019-10-17T04:49:20Z</time>
      </trkpt>
      <trkpt lat="39.74307" lon="-7.46817">
        <ele>173.784</ele>
        <time>2019-10-17T04:49:40Z</time>
      </trkpt>
      <trkpt lat="39.74318" lon="-7.46806">
        <ele>173.686</ele>
        <time>2019-10-17T04:50:00Z</time>
      </trkpt>
      <trkpt lat="39.74353" lon="-7.46776">
        <ele>170.956</ele>
        <time>2019-10-17T04:50:20Z</time>
      </trkpt>
      <trkpt lat="39.74456" lon="-7.46699">
        <ele>169.378</ele>
        <time>2019-10-17T04:50:40Z</time>
      </trkpt>
      <trkpt lat="39.74477" lon="-7.4668">
        <ele>170.519</ele>
        <time>2019-10-17T04:51:00Z</time>
      </trkpt>
      <trkpt lat="39.74486" lon="-7.46669">
        <ele>170.911</ele>
        <time>2019-10-17T04:51:20Z</time>
      </trkpt>
      <trkpt lat="39.74502" lon="-7.46646">
        <ele>171.741</ele>
        <time>2019-10-17T04:51:40Z</time>
      </trkpt>
      <trkpt lat="39.7451" lon="-7.46636">
        <ele>171.813</ele>
        <time>2019-10-17T04:52:00Z</time>
      </trkpt>
      <trkpt lat="39.74568" lon="-7.46574">
        <ele>170.543</ele>
        <time>2019-10-17T04:52:20Z</time>
      </trkpt>
      <trkpt lat="39.74579" lon="-7.46567">
        <ele>170.207</ele>
        <time>2019-10-17T04:52:40Z</time>
      </trkpt>
      <trkpt lat="39.74604" lon="-7.46556">
        <ele>170.008</ele>
        <time>2019-10-17T04:53:00Z</time>
      </trkpt>
      <trkpt lat="39.7461" lon="-7.46556">
        <ele>170.035</ele>
        <time>2019-10-17T04:53:20Z</time>
      </trkpt>
      <trkpt lat="39.74616" lon="-7.46557">
        <ele>170.643</ele>
        <time>2019-10-17T04:53:40Z</time>
      </trkpt>
      <trkpt lat="39.74649" lon="-7.46565">
        <ele>174.645</ele>
        <time>2019-10-17T04:54:00Z</time>
      </trkpt>
      <trkpt lat="39.74656" lon="-7.46563">
        <ele>175.855</ele>
        <time>2019-10-17T04:54:20Z</time>
      </trkpt>
      <trkpt lat="39.74661" lon="-7.46559">
        <ele>176.967</ele>
        <time>2019-10-17T04:54:40Z</time>
      </trkpt>
      <trkpt lat="39.74664" lon="-7.46553">
        <ele>177.488</ele>
        <time>2019-10-17T04:55:00Z</time>
      </trkpt>
      <trkpt lat="39.74665" lon="-7.46545">
        <ele>177.45</ele>
        <time>2019-10-17T04:55:20Z</time>
      </trkpt>
      <trkpt lat="39.74665" lon="-7.46536">
        <ele>177.03</ele>
        <time>2019-10-17T04:55:40Z</time>
      </trkpt>
      <trkpt lat="39.74663" lon="-7.46525">
        <ele>176.425</ele>
        <time>2019-10-17T04:56:00Z</time>
      </trkpt>
      <trkpt lat="39.74662" lon="-7.46511">
        <ele>175.726</ele>
        <time>2019-10-17T04:56:20Z</time>
      </trkpt>
      <trkpt lat="39.74662" lon="-7.46496">
        <ele>175.308</ele>
        <time>2019-10-17T04:56:40Z</time>
      </trkpt>
      <trkpt lat="39.74663" lon="-7.46478">
        <ele>175.008</ele>
        <time>2019-10-17T04:57:00Z</time>
      </trkpt>
      <trkpt lat="39.74668" lon="-7.46408">
        <ele>176.126</ele>
        <time>2019-10-17T04:57:20Z</time>
      </trkpt>
      <trkpt lat="39.74676" lon="-7.46345">
        <ele>175.124</ele>
        <time>2019-10-17T04:57:40Z</time>
      </trkpt>
      <trkpt lat="39.74707" lon="-7.46268">
        <ele>176.256</ele>
        <time>2019-10-17T04:58:00Z</time>
      </trkpt>
      <trkpt lat="39.74722" lon="-7.46237">
        <ele>177.946</ele>
        <time>2019-10-17T04:58:20Z</time>
      </trkpt>
      <trkpt lat="39.74754" lon="-7.4616">
        <ele>183.518</ele>
        <time>2019-10-17T04:58:40Z</time>
      </trkpt>
      <trkpt lat="39.74774" lon="-7.46125">
        <ele>185.969</ele>
        <time>2019-10-17T04:59:00Z</time>
      </trkpt>
      <trkpt lat="39.74795" lon="-7.4607">
        <ele>188.051</ele>
        <time>2019-10-17T04:59:20Z</time>
      </trkpt>
      <trkpt lat="39.74818" lon="-7.46014">
        <ele>192.091</ele>
        <time>2019-10-17T04:59:40Z</time>
      </trkpt>
      <trkpt lat="39.7483" lon="-7.45985">
        <ele>196.286</ele>
        <time>2019-10-17T05:00:00Z</time>
      </trkpt>
      <trkpt lat="39.74835" lon="-7.45972">
        <ele>198.16</ele>
        <time>2019-10-17T05:00:20Z</time>
      </trkpt>
      <trkpt lat="39.74843" lon="-7.45948">
        <ele>197.226</ele>
        <time>2019-10-17T05:00:40Z</time>
      </trkpt>
      <trkpt lat="39.7489" lon="-7.45884">
        <ele>197.008</ele>
        <time>2019-10-17T05:01:00Z</time>
      </trkpt>
      <trkpt lat="39.74901" lon="-7.45871">
        <ele>198.192</ele>
        <time>2019-10-17T05:01:20Z</time>
      </trkpt>
      <trkpt lat="39.74937" lon="-7.45811">
        <ele>203.71</ele>
        <time>2019-10-17T05:01:40Z</time>
      </trkpt>
      <trkpt lat="39.74943" lon="-7.45797">
        <ele>203.352</ele>
        <time>2019-10-17T05:02:00Z</time>
      </trkpt>
      <trkpt lat="39.74984" lon="-7.45697">
        <ele>198.632</ele>
        <time>2019-10-17T05:02:20Z</time>
      </trkpt>
      <trkpt lat="39.75033" lon="-7.45585">
        <ele>199.074</ele>
        <time>2019-10-17T05:02:40Z</time>
      </trkpt>
      <trkpt lat="39.75061" lon="-7.45478">
        <ele>203.885</ele>
        <time>2019-10-17T05:03:00Z</time>
      </trkpt>
      <trkpt lat="39.75074" lon="-7.45387">
        <ele>204.357</ele>
        <time>2019-10-17T05:03:20Z</time>
      </trkpt>
      <trkpt lat="39.75074" lon="-7.45371">
        <ele>204.367</ele>
        <time>2019-10-17T05:03:40Z</time>
      </trkpt>
      <trkpt lat="39.75073" lon="-7.45341">
        <ele>204.477</ele>
        <time>2019-10-17T05:04:00Z</time>
      </trkpt>
      <trkpt lat="39.75075" lon="-7.45326">
        <ele>204.261</ele>
        <time>2019-10-17T05:04:20Z</time>
      </trkpt>
      <trkpt lat="39.75079" lon="-7.4531">
        <ele>204.027</ele>
        <time>2019-10-17T05:04:40Z</time>
      </trkpt>
      <trkpt lat="39.75084" lon="-7.45293">
        <ele>203.508</ele>
        <time>2019-10-17T05:05:00Z</time>
      </trkpt>
      <trkpt lat="39.7509" lon="-7.45277">
        <ele>202.651</ele>
        <time>2019-10-17T05:05:20Z</time>
      </trkpt>
      <trkpt lat="39.7511" lon="-7.45218">
        <ele>202.119</ele>
        <time>2019-10-17T05:05:40Z</time>
      </trkpt>
      <trkpt lat="39.75116" lon="-7.45206">
        <ele>201.521</ele>
        <time>2019-10-17T05:06:00Z</time>
      </trkpt>
      <trkpt lat="39.75125" lon="-7.45195">
        <ele>200.561</ele>
        <time>2019-10-17T05:06:20Z</time>
      </trkpt>
      <trkpt lat="39.75162" lon="-7.45153">
        <ele>199.463</ele>
        <time>2019-10-17T05:06:40Z</time>
      </trkpt>
      <trkpt lat="39.75203" lon="-7.45103">
        <ele>204.084</ele>
        <time>2019-10-17T05:07:00Z</time>
      </trkpt>
      <trkpt lat="39.75207" lon="-7.45093">
        <ele>204.256</ele>
        <time>2019-10-17T05:07:20Z</time>
      </trkpt>
      <trkpt lat="39.75209" lon="-7.45082">
        <ele>204.676</ele>
        <time>2019-10-17T05:07:40Z</time>
      </trkpt>
      <trkpt lat="39.7521" lon="-7.45069">
        <ele>205.556</ele>
        <time>2019-10-17T05:08:00Z</time>
      </trkpt>
      <trkpt lat="39.75209" lon="-7.45056">
        <ele>206.559</ele>
        <time>2019-10-17T05:08:20Z</time>
      </trkpt>
      <trkpt lat="39.7519" lon="-7.44933">
        <ele>206.114</ele>
        <time>2019-10-17T05:08:40Z</time>
      </trkpt>
      <trkpt lat="39.75186" lon="-7.44894">
        <ele>205.808</ele>
        <time>2019-10-17T05:09:00Z</time>
      </trkpt>
      <trkpt lat="39.75192" lon="-7.44864">
        <ele>205.299</ele>
        <time>2019-10-17T05:09:20Z</time>
      </trkpt>
      <trkpt lat="39.75195" lon="-7.44855">
        <ele>205.187</ele>
        <time>2019-10-17T05:09:40Z</time>
      </trkpt>
      <trkpt lat="39.75204" lon="-7.44835">
        <ele>205.369</ele>
        <time>2019-10-17T05:10:00Z</time>
      </trkpt>
      <trkpt lat="39.75209" lon="-7.44825">
        <ele>204.899</ele>
        <time>2019-10-17T05:10:20Z</time>
      </trkpt>
      <trkpt lat="39.75215" lon="-7.44815">
        <ele>204.021</ele>
        <time>2019-10-17T05:10:40Z</time>
      </trkpt>
      <trkpt lat="39.75222" lon="-7.44806">
        <ele>203.122</ele>
        <time>2019-10-17T05:11:00Z</time>
      </trkpt>
      <trkpt lat="39.75229" lon="-7.44799">
        <ele>202.944</ele>
        <time>2019-10-17T05:11:20Z</time>
      </trkpt>
      <trkpt lat="39.75236" lon="-7.44794">
        <ele>202.834</ele>
        <time>2019-10-17T05:11:40Z</time>
      </trkpt>
      <trkpt lat="39.75243" lon="-7.44791">
        <ele>202.698</ele>
        <time>2019-10-17T05:12:00Z</time>
      </trkpt>
      <trkpt lat="39.75251" lon="-7.44787">
        <ele>202.415</ele>
        <time>2019-10-17T05:12:20Z</time>
      </trkpt>
      <trkpt lat="39.75267" lon="-7.44783">
        <ele>202.726</ele>
        <time>2019-10-17T05:12:40Z</time>
      </trkpt>
      <trkpt lat="39.75274" lon="-7.44784">
        <ele>202.908</ele>
        <time>2019-10-17T05:13:00Z</time>
      </trkpt>
      <trkpt lat="39.75283" lon="-7.44787">
        <ele>203.023</ele>
        <time>2019-10-17T05:13:20Z</time>
      </trkpt>
      <trkpt lat="39.75292" lon="-7.44793">
        <ele>203.031</ele>
        <time>2019-10-17T05:13:40Z</time>
      </trkpt>
      <trkpt lat="39.75303" lon="-7.448">
        <ele>203.013</ele>
        <time>2019-10-17T05:14:00Z</time>
      </trkpt>
      <trkpt lat="39.75314" lon="-7.44809">
        <ele>202.593</ele>
        <time>2019-10-17T05:14:20Z</time>
      </trkpt>
      <trkpt lat="39.75325" lon="-7.4482">
        <ele>201.685</ele>
        <time>2019-10-17T05:14:40Z</time>
      </trkpt>
      <trkpt lat="39.75335" lon="-7.4483">
        <ele>201.026</ele>
        <time>2019-10-17T05:15:00Z</time>
      </trkpt>
      <trkpt lat="39.75435" lon="-7.44914">
        <ele>198.258</ele>
        <time>2019-10-17T05:15:20Z</time>
      </trkpt>
      <trkpt lat="39.75447" lon="-7.4492">
        <ele>199.198</ele>
        <time>2019-10-17T05:15:40Z</time>
      </trkpt>
      <trkpt lat="39.75528" lon="-7.44967">
        <ele>196.293</ele>
        <time>2019-10-17T05:16:00Z</time>
      </trkpt>
      <trkpt lat="39.75594" lon="-7.44972">
        <ele>194.265</ele>
        <time>2019-10-17T05:16:20Z</time>
      </trkpt>
      <trkpt lat="39.75606" lon="-7.44969">
        <ele>193.221</ele>
        <time>2019-10-17T05:16:40Z</time>
      </trkpt>
      <trkpt lat="39.75618" lon="-7.44964">
        <ele>192.508</ele>
        <time>2019-10-17T05:17:00Z</time>
      </trkpt>
      <trkpt lat="39.7563" lon="-7.44958">
        <ele>192.253</ele>
        <time>2019-10-17T05:17:20Z</time>
      </trkpt>
      <trkpt lat="39.75643" lon="-7.4495">
        <ele>191.871</ele>
        <time>2019-10-17T05:17:40Z</time>
      </trkpt>
      <trkpt lat="39.75701" lon="-7.44929">
        <ele>188.113</ele>
        <time>2019-10-17T05:18:00Z</time>
      </trkpt>
      <trkpt lat="39.75741" lon="-7.44923">
        <ele>185.643</ele>
        <time>2019-10-17T05:18:20Z</time>
      </trkpt>
      <trkpt lat="39.75753" lon="-7.44925">
        <ele>185.295</ele>
        <time>2019-10-17T05:18:40Z</time>
      </trkpt>
      <trkpt lat="39.75766" lon="-7.44929">
        <ele>186.186</ele>
        <time>2019-10-17T05:19:00Z</time>
      </trkpt>
      <trkpt lat="39.75799" lon="-7.44944">
        <ele>189.558</ele>
        <time>2019-10-17T05:19:20Z</time>
      </trkpt>
      <trkpt lat="39.75808" lon="-7.44945">
        <ele>190.148</ele>
        <time>2019-10-17T05:19:40Z</time>
      </trkpt>
      <trkpt lat="39.75816" lon="-7.44944">
        <ele>190.384</ele>
        <time>2019-10-17T05:20:00Z</time>
      </trkpt>
      <trkpt lat="39.75823" lon="-7.4494">
        <ele>190.307</ele>
        <time>2019-10-17T05:20:20Z</time>
      </trkpt>
      <trkpt lat="39.7583" lon="-7.44936">
        <ele>190.217</ele>
        <time>2019-10-17T05:20:40Z</time>
      </trkpt>
      <trkpt lat="39.75836" lon="-7.4493">
        <ele>189.908</ele>
        <time>2019-10-17T05:21:00Z</time>
      </trkpt>
      <trkpt lat="39.75896" lon="-7.44873">
        <ele>189.772</ele>
        <time>2019-10-17T05:21:20Z</time>
      </trkpt>
      <trkpt lat="39.75907" lon="-7.44867">
        <ele>189.75</ele>
        <time>2019-10-17T05:21:40Z</time>
      </trkpt>
      <trkpt lat="39.75918" lon="-7.44863">
        <ele>189.742</ele>
        <time>2019-10-17T05:22:00Z</time>
      </trkpt>
      <trkpt lat="39.7593" lon="-7.44862">
        <ele>189.582</ele>
        <time>2019-10-17T05:22:20Z</time>
      </trkpt>
      <trkpt lat="39.75944" lon="-7.44863">
        <ele>188.864</ele>
        <time>2019-10-17T05:22:40Z</time>
      </trkpt>
      <trkpt lat="39.75958" lon="-7.44865">
        <ele>189.185</ele>
        <time>2019-10-17T05:23:00Z</time>
      </trkpt>
      <trkpt lat="39.76106" lon="-7.44897">
        <ele>184.397</ele>
        <time>2019-10-17T05:23:20Z</time>
      </trkpt>
      <trkpt lat="39.76119" lon="-7.44903">
        <ele>184.837</ele>
        <time>2019-10-17T05:23:40Z</time>
      </trkpt>
      <trkpt lat="39.76129" lon="-7.4491">
        <ele>185.894</ele>
        <time>2019-10-17T05:24:00Z</time>
      </trkpt>
      <trkpt lat="39.76139" lon="-7.44919">
        <ele>186.857</ele>
        <time>2019-10-17T05:24:20Z</time>
      </trkpt>
      <trkpt lat="39.76148" lon="-7.4493">
        <ele>185.522</ele>
        <time>2019-10-17T05:24:40Z</time>
      </trkpt>
      <trkpt lat="39.76156" lon="-7.44942">
        <ele>185.008</ele>
        <time>2019-10-17T05:25:00Z</time>
      </trkpt>
      <trkpt lat="39.76163" lon="-7.44954">
        <ele>184.253</ele>
        <time>2019-10-17T05:25:20Z</time>
      </trkpt>
      <trkpt lat="39.76169" lon="-7.44966">
        <ele>183.451</ele>
        <time>2019-10-17T05:25:40Z</time>
      </trkpt>
      <trkpt lat="39.76196" lon="-7.45007">
        <ele>181.593</ele>
        <time>2019-10-17T05:26:00Z</time>
      </trkpt>
      <trkpt lat="39.76213" lon="-7.45037">
        <ele>177.313</ele>
        <time>2019-10-17T05:26:20Z</time>
      </trkpt>
      <trkpt lat="39.76236" lon="-7.45075">
        <ele>169.655</ele>
        <time>2019-10-17T05:26:40Z</time>
      </trkpt>
      <trkpt lat="39.76261" lon="-7.45107">
        <ele>164.346</ele>
        <time>2019-10-17T05:27:00Z</time>
      </trkpt>
      <trkpt lat="39.76289" lon="-7.45137">
        <ele>161.028</ele>
        <time>2019-10-17T05:27:20Z</time>
      </trkpt>
      <trkpt lat="39.76297" lon="-7.45147">
        <ele>160.998</ele>
        <time>2019-10-17T05:27:40Z</time>
      </trkpt>
      <trkpt lat="39.76324" lon="-7.45189">
        <ele>156.073</ele>
        <time>2019-10-17T05:28:00Z</time>
      </trkpt>
      <trkpt lat="39.76343" lon="-7.45218">
        <ele>151.685</ele>
        <time>2019-10-17T05:28:20Z</time>
      </trkpt>
      <trkpt lat="39.7635" lon="-7.45226">
        <ele>150.713</ele>
        <time>2019-10-17T05:28:40Z</time>
      </trkpt>
      <trkpt lat="39.76358" lon="-7.45231">
        <ele>150.208</ele>
        <time>2019-10-17T05:29:00Z</time>
      </trkpt>
      <trkpt lat="39.76366" lon="-7.45234">
        <ele>149.611</ele>
        <time>2019-10-17T05:29:20Z</time>
      </trkpt>
      <trkpt lat="39.76374" lon="-7.45235">
        <ele>149.119</ele>
        <time>2019-10-17T05:29:40Z</time>
      </trkpt>
      <trkpt lat="39.76383" lon="-7.45233">
        <ele>148.481</ele>
        <time>2019-10-17T05:30:00Z</time>
      </trkpt>
      <trkpt lat="39.76391" lon="-7.45228">
        <ele>148.151</ele>
        <time>2019-10-17T05:30:20Z</time>
      </trkpt>
      <trkpt lat="39.76401" lon="-7.45223">
        <ele>148.463</ele>
        <time>2019-10-17T05:30:40Z</time>
      </trkpt>
      <trkpt lat="39.76419" lon="-7.45212">
        <ele>149.024</ele>
        <time>2019-10-17T05:31:00Z</time>
      </trkpt>
      <trkpt lat="39.76425" lon="-7.45206">
        <ele>149.016</ele>
        <time>2019-10-17T05:31:20Z</time>
      </trkpt>
      <trkpt lat="39.76429" lon="-7.452">
        <ele>149.066</ele>
        <time>2019-10-17T05:31:40Z</time>
      </trkpt>
      <trkpt lat="39.76431" lon="-7.45192">
        <ele>149.081</ele>
        <time>2019-10-17T05:32:00Z</time>
      </trkpt>
      <trkpt lat="39.76433" lon="-7.45185">
        <ele>149.061</ele>
        <time>2019-10-17T05:32:20Z</time>
      </trkpt>
      <trkpt lat="39.76436" lon="-7.45179">
        <ele>149.017</ele>
        <time>2019-10-17T05:32:40Z</time>
      </trkpt>
      <trkpt lat="39.76439" lon="-7.45174">
        <ele>149.008</ele>
        <time>2019-10-17T05:33:00Z</time>
      </trkpt>
      <trkpt lat="39.76444" lon="-7.45171">
        <ele>149.022</ele>
        <time>2019-10-17T05:33:20Z</time>
      </trkpt>
      <trkpt lat="39.76449" lon="-7.4517">
        <ele>148.56</ele>
        <time>2019-10-17T05:33:40Z</time>
      </trkpt>
      <trkpt lat="39.76456" lon="-7.4517">
        <ele>147.722</ele>
        <time>2019-10-17T05:34:00Z</time>
      </trkpt>
      <trkpt lat="39.76463" lon="-7.4517">
        <ele>146.942</ele>
        <time>2019-10-17T05:34:20Z</time>
      </trkpt>
      <trkpt lat="39.76469" lon="-7.45167">
        <ele>146.334</ele>
        <time>2019-10-17T05:34:40Z</time>
      </trkpt>
      <trkpt lat="39.76475" lon="-7.45163">
        <ele>145.375</ele>
        <time>2019-10-17T05:35:00Z</time>
      </trkpt>
      <trkpt lat="39.76479" lon="-7.45156">
        <ele>144.327</ele>
        <time>2019-10-17T05:35:20Z</time>
      </trkpt>
      <trkpt lat="39.76481" lon="-7.45148">
        <ele>143.897</ele>
        <time>2019-10-17T05:35:40Z</time>
      </trkpt>
      <trkpt lat="39.76483" lon="-7.45138">
        <ele>143.777</ele>
        <time>2019-10-17T05:36:00Z</time>
      </trkpt>
      <trkpt lat="39.76483" lon="-7.45124">
        <ele>143.161</ele>
        <time>2019-10-17T05:36:20Z</time>
      </trkpt>
      <trkpt lat="39.76489" lon="-7.45076">
        <ele>140.227</ele>
        <time>2019-10-17T05:36:40Z</time>
      </trkpt>
      <trkpt lat="39.76492" lon="-7.45062">
        <ele>139.608</ele>
        <time>2019-10-17T05:37:00Z</time>
      </trkpt>
      <trkpt lat="39.76497" lon="-7.4505">
        <ele>139.051</ele>
        <time>2019-10-17T05:37:20Z</time>
      </trkpt>
      <trkpt lat="39.76503" lon="-7.4504">
        <ele>138.689</ele>
        <time>2019-10-17T05:37:40Z</time>
      </trkpt>
      <trkpt lat="39.76508" lon="-7.4503">
        <ele>138.431</ele>
        <time>2019-10-17T05:38:00Z</time>
      </trkpt>
      <trkpt lat="39.76519" lon="-7.45011">
        <ele>137.681</ele>
        <time>2019-10-17T05:38:20Z</time>
      </trkpt>
      <trkpt lat="39.76529" lon="-7.44993">
        <ele>137.383</ele>
        <time>2019-10-17T05:38:40Z</time>
      </trkpt>
      <trkpt lat="39.76533" lon="-7.44981">
        <ele>137.634</ele>
        <time>2019-10-17T05:39:00Z</time>
      </trkpt>
      <trkpt lat="39.76536" lon="-7.4497">
        <ele>137.876</ele>
        <time>2019-10-17T05:39:20Z</time>
      </trkpt>
      <trkpt lat="39.7654" lon="-7.44958">
        <ele>137.246</ele>
        <time>2019-10-17T05:39:40Z</time>
      </trkpt>
      <trkpt lat="39.76545" lon="-7.44947">
        <ele>136.394</ele>
        <time>2019-10-17T05:40:00Z</time>
      </trkpt>
      <trkpt lat="39.76561" lon="-7.44908">
        <ele>132.057</ele>
        <time>2019-10-17T05:40:20Z</time>
      </trkpt>
      <trkpt lat="39.76563" lon="-7.44899">
        <ele>131.722</ele>
        <time>2019-10-17T05:40:40Z</time>
      </trkpt>
      <trkpt lat="39.76564" lon="-7.44889">
        <ele>131.508</ele>
        <time>2019-10-17T05:41:00Z</time>
      </trkpt>
      <trkpt lat="39.76566" lon="-7.4487">
        <ele>131.373</ele>
        <time>2019-10-17T05:41:20Z</time>
      </trkpt>
      <trkpt lat="39.76567" lon="-7.44856">
        <ele>130.851</ele>
        <time>2019-10-17T05:41:40Z</time>
      </trkpt>
      <trkpt lat="39.76567" lon="-7.4485">
        <ele>130.563</ele>
        <time>2019-10-17T05:42:00Z</time>
      </trkpt>
      <trkpt lat="39.76566" lon="-7.44844">
        <ele>130.423</ele>
        <time>2019-10-17T05:42:20Z</time>
      </trkpt>
      <trkpt lat="39.76563" lon="-7.44839">
        <ele>130.675</ele>
        <time>2019-10-17T05:42:40Z</time>
      </trkpt>
      <trkpt lat="39.76559" lon="-7.44834">
        <ele>131.126</ele>
        <time>2019-10-17T05:43:00Z</time>
      </trkpt>
      <trkpt lat="39.76555" lon="-7.44829">
        <ele>131.358</ele>
        <time>2019-10-17T05:43:20Z</time>
      </trkpt>
      <trkpt lat="39.76545" lon="-7.44817">
        <ele>131.318</ele>
        <time>2019-10-17T05:43:40Z</time>
      </trkpt>
      <trkpt lat="39.7654" lon="-7.4481">
        <ele>131.562</ele>
        <time>2019-10-17T05:44:00Z</time>
      </trkpt>
      <trkpt lat="39.76536" lon="-7.44802">
        <ele>131.383</ele>
        <time>2019-10-17T05:44:20Z</time>
      </trkpt>
      <trkpt lat="39.76524" lon="-7.44775">
        <ele>128.511</ele>
        <time>2019-10-17T05:44:40Z</time>
      </trkpt>
      <trkpt lat="39.76498" lon="-7.44695">
        <ele>130.708</ele>
        <time>2019-10-17T05:45:00Z</time>
      </trkpt>
      <trkpt lat="39.76466" lon="-7.44585">
        <ele>130.85</ele>
        <time>2019-10-17T05:45:20Z</time>
      </trkpt>
      <trkpt lat="39.76465" lon="-7.44577">
        <ele>130.438</ele>
        <time>2019-10-17T05:45:40Z</time>
      </trkpt>
      <trkpt lat="39.76466" lon="-7.44573">
        <ele>130.02</ele>
        <time>2019-10-17T05:46:00Z</time>
      </trkpt>
      <trkpt lat="39.76468" lon="-7.44571">
        <ele>129.89</ele>
        <time>2019-10-17T05:46:20Z</time>
      </trkpt>
      <trkpt lat="39.76471" lon="-7.44572">
        <ele>129.722</ele>
        <time>2019-10-17T05:46:40Z</time>
      </trkpt>
      <trkpt lat="39.76473" lon="-7.44575">
        <ele>129.733</ele>
        <time>2019-10-17T05:47:00Z</time>
      </trkpt>
      <trkpt lat="39.76473" lon="-7.44576">
        <ele>129.765</ele>
        <time>2019-10-17T05:47:20Z</time>
      </trkpt>
      <trkpt lat="39.76472" lon="-7.44573">
        <ele>129.665</ele>
        <time>2019-10-17T05:47:40Z</time>
      </trkpt>
      <trkpt lat="39.76474" lon="-7.44579">
        <ele>129.849</ele>
        <time>2019-10-17T05:48:00Z</time>
      </trkpt>
      <trkpt lat="39.76494" lon="-7.44639">
        <ele>129.902</ele>
        <time>2019-10-17T05:48:20Z</time>
      </trkpt>
      <trkpt lat="39.76532" lon="-7.44754">
        <ele>125.122</ele>
        <time>2019-10-17T05:48:40Z</time>
      </trkpt>
      <trkpt lat="39.76537" lon="-7.4476">
        <ele>125.208</ele>
        <time>2019-10-17T05:49:00Z</time>
      </trkpt>
      <trkpt lat="39.76543" lon="-7.44764">
        <ele>124.938</ele>
        <time>2019-10-17T05:49:20Z</time>
      </trkpt>
      <trkpt lat="39.76551" lon="-7.44766">
        <ele>124.216</ele>
        <time>2019-10-17T05:49:40Z</time>
      </trkpt>
      <trkpt lat="39.76559" lon="-7.44768">
        <ele>123.348</ele>
        <time>2019-10-17T05:50:00Z</time>
      </trkpt>
      <trkpt lat="39.76568" lon="-7.44769">
        <ele>122.678</ele>
        <time>2019-10-17T05:50:20Z</time>
      </trkpt>
      <trkpt lat="39.76593" lon="-7.44771">
        <ele>120.29</ele>
        <time>2019-10-17T05:50:40Z</time>
      </trkpt>
      <trkpt lat="39.76596" lon="-7.44768">
        <ele>120.451</ele>
        <time>2019-10-17T05:51:00Z</time>
      </trkpt>
      <trkpt lat="39.76598" lon="-7.44763">
        <ele>120.893</ele>
        <time>2019-10-17T05:51:20Z</time>
      </trkpt>
      <trkpt lat="39.76598" lon="-7.44758">
        <ele>121.443</ele>
        <time>2019-10-17T05:51:40Z</time>
      </trkpt>
      <trkpt lat="39.76597" lon="-7.44752">
        <ele>122.337</ele>
        <time>2019-10-17T05:52:00Z</time>
      </trkpt>
      <trkpt lat="39.76596" lon="-7.44745">
        <ele>123.049</ele>
        <time>2019-10-17T05:52:20Z</time>
      </trkpt>
      <trkpt lat="39.76592" lon="-7.44725">
        <ele>124.213</ele>
        <time>2019-10-17T05:52:40Z</time>
      </trkpt>
      <trkpt lat="39.76592" lon="-7.44717">
        <ele>124.408</ele>
        <time>2019-10-17T05:53:00Z</time>
      </trkpt>
      <trkpt lat="39.76597" lon="-7.44668">
        <ele>125.457</ele>
        <time>2019-10-17T05:53:20Z</time>
      </trkpt>
      <trkpt lat="39.76597" lon="-7.44658">
        <ele>125.895</ele>
        <time>2019-10-17T05:53:40Z</time>
      </trkpt>
      <trkpt lat="39.76595" lon="-7.44649">
        <ele>126.417</ele>
        <time>2019-10-17T05:54:00Z</time>
      </trkpt>
      <trkpt lat="39.76592" lon="-7.4464">
        <ele>127.037</ele>
        <time>2019-10-17T05:54:20Z</time>
      </trkpt>
      <trkpt lat="39.76591" lon="-7.44634">
        <ele>127.259</ele>
        <time>2019-10-17T05:54:40Z</time>
      </trkpt>
      <trkpt lat="39.76592" lon="-7.4463">
        <ele>127.37</ele>
        <time>2019-10-17T05:55:00Z</time>
      </trkpt>
      <trkpt lat="39.76593" lon="-7.44632">
        <ele>127.282</ele>
        <time>2019-10-17T05:55:20Z</time>
      </trkpt>
      <trkpt lat="39.766" lon="-7.44623">
        <ele>126.952</ele>
        <time>2019-10-17T05:55:40Z</time>
      </trkpt>
      <trkpt lat="39.76603" lon="-7.44618">
        <ele>127.053</ele>
        <time>2019-10-17T05:56:00Z</time>
      </trkpt>
      <trkpt lat="39.76621" lon="-7.44578">
        <ele>129.904</ele>
        <time>2019-10-17T05:56:20Z</time>
      </trkpt>
      <trkpt lat="39.76635" lon="-7.44554">
        <ele>131.414</ele>
        <time>2019-10-17T05:56:40Z</time>
      </trkpt>
      <trkpt lat="39.76643" lon="-7.44542">
        <ele>131.708</ele>
        <time>2019-10-17T05:57:00Z</time>
      </trkpt>
      <trkpt lat="39.76659" lon="-7.44521">
        <ele>131.349</ele>
        <time>2019-10-17T05:57:20Z</time>
      </trkpt>
      <trkpt lat="39.76665" lon="-7.44511">
        <ele>131.637</ele>
        <time>2019-10-17T05:57:40Z</time>
      </trkpt>
      <trkpt lat="39.76671" lon="-7.445">
        <ele>131.959</ele>
        <time>2019-10-17T05:58:00Z</time>
      </trkpt>
      <trkpt lat="39.76702" lon="-7.4442">
        <ele>135.249</ele>
        <time>2019-10-17T05:58:20Z</time>
      </trkpt>
      <trkpt lat="39.76728" lon="-7.44368">
        <ele>134.271</ele>
        <time>2019-10-17T05:58:40Z</time>
      </trkpt>
      <trkpt lat="39.76735" lon="-7.44357">
        <ele>133.822</ele>
        <time>2019-10-17T05:59:00Z</time>
      </trkpt>
      <trkpt lat="39.76742" lon="-7.44348">
        <ele>133.694</ele>
        <time>2019-10-17T05:59:20Z</time>
      </trkpt>
      <trkpt lat="39.76749" lon="-7.44339">
        <ele>133.874</ele>
        <time>2019-10-17T05:59:40Z</time>
      </trkpt>
      <trkpt lat="39.76755" lon="-7.4433">
        <ele>133.681</ele>
        <time>2019-10-17T06:00:00Z</time>
      </trkpt>
      <trkpt lat="39.76761" lon="-7.44319">
        <ele>133.661</ele>
        <time>2019-10-17T06:00:20Z</time>
      </trkpt>
      <trkpt lat="39.76766" lon="-7.44307">
        <ele>133.917</ele>
        <time>2019-10-17T06:00:40Z</time>
      </trkpt>
      <trkpt lat="39.76823" lon="-7.44203">
        <ele>129.308</ele>
        <time>2019-10-17T06:01:00Z</time>
      </trkpt>
      <trkpt lat="39.76829" lon="-7.44192">
        <ele>128.812</ele>
        <time>2019-10-17T06:01:20Z</time>
      </trkpt>
      <trkpt lat="39.76839" lon="-7.44169">
        <ele>130.15</ele>
        <time>2019-10-17T06:01:40Z</time>
      </trkpt>
      <trkpt lat="39.76869" lon="-7.44109">
        <ele>129.472</ele>
        <time>2019-10-17T06:02:00Z</time>
      </trkpt>
      <trkpt lat="39.76872" lon="-7.441">
        <ele>130.562</ele>
        <time>2019-10-17T06:02:20Z</time>
      </trkpt>
      <trkpt lat="39.76877" lon="-7.44093">
        <ele>130.634</ele>
        <time>2019-10-17T06:02:40Z</time>
      </trkpt>
      <trkpt lat="39.76883" lon="-7.44086">
        <ele>129.845</ele>
        <time>2019-10-17T06:03:00Z</time>
      </trkpt>
      <trkpt lat="39.7689" lon="-7.44078">
        <ele>129.197</ele>
        <time>2019-10-17T06:03:20Z</time>
      </trkpt>
      <trkpt lat="39.76897" lon="-7.44068">
        <ele>129.717</ele>
        <time>2019-10-17T06:03:40Z</time>
      </trkpt>
      <trkpt lat="39.76904" lon="-7.44056">
        <ele>129.941</ele>
        <time>2019-10-17T06:04:00Z</time>
      </trkpt>
      <trkpt lat="39.76927" lon="-7.44018">
        <ele>130.081</ele>
        <time>2019-10-17T06:04:20Z</time>
      </trkpt>
      <trkpt lat="39.76963" lon="-7.43968">
        <ele>127.209</ele>
        <time>2019-10-17T06:04:40Z</time>
      </trkpt>
      <trkpt lat="39.76976" lon="-7.43949">
        <ele>126.208</ele>
        <time>2019-10-17T06:05:00Z</time>
      </trkpt>
      <trkpt lat="39.76981" lon="-7.4394">
        <ele>126.558</ele>
        <time>2019-10-17T06:05:20Z</time>
      </trkpt>
      <trkpt lat="39.76986" lon="-7.43931">
        <ele>126.686</ele>
        <time>2019-10-17T06:05:40Z</time>
      </trkpt>
      <trkpt lat="39.76992" lon="-7.43923">
        <ele>126.098</ele>
        <time>2019-10-17T06:06:00Z</time>
      </trkpt>
      <trkpt lat="39.76999" lon="-7.43914">
        <ele>124.758</ele>
        <time>2019-10-17T06:06:20Z</time>
      </trkpt>
      <trkpt lat="39.77007" lon="-7.43905">
        <ele>124.91</ele>
        <time>2019-10-17T06:06:40Z</time>
      </trkpt>
      <trkpt lat="39.77015" lon="-7.43894">
        <ele>124.591</ele>
        <time>2019-10-17T06:07:00Z</time>
      </trkpt>
      <trkpt lat="39.77025" lon="-7.43884">
        <ele>123.353</ele>
        <time>2019-10-17T06:07:20Z</time>
      </trkpt>
      <trkpt lat="39.77035" lon="-7.43874">
        <ele>122.383</ele>
        <time>2019-10-17T06:07:40Z</time>
      </trkpt>
      <trkpt lat="39.77059" lon="-7.43849">
        <ele>120.114</ele>
        <time>2019-10-17T06:08:00Z</time>
      </trkpt>
      <trkpt lat="39.77065" lon="-7.4384">
        <ele>120.854</ele>
        <time>2019-10-17T06:08:20Z</time>
      </trkpt>
      <trkpt lat="39.77069" lon="-7.43831">
        <ele>121.909</ele>
        <time>2019-10-17T06:08:40Z</time>
      </trkpt>
      <trkpt lat="39.77075" lon="-7.43816">
        <ele>123.808</ele>
        <time>2019-10-17T06:09:00Z</time>
      </trkpt>
      <trkpt lat="39.77079" lon="-7.43813">
        <ele>124.285</ele>
        <time>2019-10-17T06:09:20Z</time>
      </trkpt>
      <trkpt lat="39.77083" lon="-7.43811">
        <ele>124.263</ele>
        <time>2019-10-17T06:09:40Z</time>
      </trkpt>
      <trkpt lat="39.77087" lon="-7.43811">
        <ele>124.345</ele>
        <time>2019-10-17T06:10:00Z</time>
      </trkpt>
      <trkpt lat="39.7709" lon="-7.43812">
        <ele>124.225</ele>
        <time>2019-10-17T06:10:20Z</time>
      </trkpt>
      <trkpt lat="39.77093" lon="-7.43814">
        <ele>124.127</ele>
        <time>2019-10-17T06:10:40Z</time>
      </trkpt>
      <trkpt lat="39.77095" lon="-7.43816">
        <ele>123.728</ele>
        <time>2019-10-17T06:11:00Z</time>
      </trkpt>
      <trkpt lat="39.77095" lon="-7.43817">
        <ele>123.66</ele>
        <time>2019-10-17T06:11:20Z</time>
      </trkpt>
      <trkpt lat="39.77095" lon="-7.43817">
        <ele>123.64</ele>
        <time>2019-10-17T06:11:40Z</time>
      </trkpt>
      <trkpt lat="39.77095" lon="-7.43817">
        <ele>123.751</ele>
        <time>2019-10-17T06:12:00Z</time>
      </trkpt>
      <trkpt lat="39.77095" lon="-7.43817">
        <ele>123.701</ele>
        <time>2019-10-17T06:12:20Z</time>
      </trkpt>
      <trkpt lat="39.77095" lon="-7.43817">
        <ele>123.711</ele>
        <time>2019-10-17T06:12:40Z</time>
      </trkpt>
      <trkpt lat="39.77095" lon="-7.43817">
        <ele>123.708</ele>
        <time>2019-10-17T06:13:00Z</time>
      </trkpt>
      <trkpt lat="39.77095" lon="-7.43816">
        <ele>123.749</ele>
        <time>2019-10-17T06:13:20Z</time>
      </trkpt>
      <trkpt lat="39.77095" lon="-7.43816">
        <ele>123.797</ele>
        <time>2019-10-17T06:13:40Z</time>
      </trkpt>
      <trkpt lat="39.77107" lon="-7.43809">
        <ele>125.229</ele>
        <time>2019-10-17T06:14:00Z</time>
      </trkpt>
      <trkpt lat="39.77107" lon="-7.4381">
        <ele>125.199</ele>
        <time>2019-10-17T06:14:20Z</time>
      </trkpt>
      <trkpt lat="39.77107" lon="-7.4381">
        <ele>125.111</ele>
        <time>2019-10-17T06:14:40Z</time>
      </trkpt>
      <trkpt lat="39.77107" lon="-7.4381">
        <ele>125.162</ele>
        <time>2019-10-17T06:15:00Z</time>
      </trkpt>
      <trkpt lat="39.77111" lon="-7.43806">
        <ele>125.994</ele>
        <time>2019-10-17T06:15:20Z</time>
      </trkpt>
      <trkpt lat="39.77114" lon="-7.43804">
        <ele>125.844</ele>
        <time>2019-10-17T06:15:40Z</time>
      </trkpt>
      <trkpt lat="39.77119" lon="-7.43799">
        <ele>125.822</ele>
        <time>2019-10-17T06:16:00Z</time>
      </trkpt>
      <trkpt lat="39.77123" lon="-7.43793">
        <ele>125.962</ele>
        <time>2019-10-17T06:16:20Z</time>
      </trkpt>
      <trkpt lat="39.77177" lon="-7.43721">
        <ele>127.508</ele>
        <time>2019-10-17T06:16:40Z</time>
      </trkpt>
      <trkpt lat="39.77251" lon="-7.43644">
        <ele>126.208</ele>
        <time>2019-10-17T06:17:00Z</time>
      </trkpt>
      <trkpt lat="39.7731" lon="-7.43571">
        <ele>126.426</ele>
        <time>2019-10-17T06:17:20Z</time>
      </trkpt>
      <trkpt lat="39.77382" lon="-7.43506">
        <ele>124.624</ele>
        <time>2019-10-17T06:17:40Z</time>
      </trkpt>
      <trkpt lat="39.7748" lon="-7.43436">
        <ele>120.356</ele>
        <time>2019-10-17T06:18:00Z</time>
      </trkpt>
      <trkpt lat="39.77488" lon="-7.43429">
        <ele>120.656</ele>
        <time>2019-10-17T06:18:20Z</time>
      </trkpt>
      <trkpt lat="39.77494" lon="-7.43421">
        <ele>120.958</ele>
        <time>2019-10-17T06:18:40Z</time>
      </trkpt>
      <trkpt lat="39.77498" lon="-7.43412">
        <ele>121.119</ele>
        <time>2019-10-17T06:19:00Z</time>
      </trkpt>
      <trkpt lat="39.77502" lon="-7.43403">
        <ele>121.021</ele>
        <time>2019-10-17T06:19:20Z</time>
      </trkpt>
      <trkpt lat="39.77504" lon="-7.43394">
        <ele>121.051</ele>
        <time>2019-10-17T06:19:40Z</time>
      </trkpt>
      <trkpt lat="39.77506" lon="-7.43386">
        <ele>121.151</ele>
        <time>2019-10-17T06:20:00Z</time>
      </trkpt>
      <trkpt lat="39.77508" lon="-7.43381">
        <ele>121.201</ele>
        <time>2019-10-17T06:20:20Z</time>
      </trkpt>
      <trkpt lat="39.77513" lon="-7.43378">
        <ele>121.211</ele>
        <time>2019-10-17T06:20:40Z</time>
      </trkpt>
      <trkpt lat="39.77517" lon="-7.43375">
        <ele>121.208</ele>
        <time>2019-10-17T06:21:00Z</time>
      </trkpt>
      <trkpt lat="39.77523" lon="-7.43373">
        <ele>121.169</ele>
        <time>2019-10-17T06:21:20Z</time>
      </trkpt>
      <trkpt lat="39.77528" lon="-7.4337">
        <ele>121.027</ele>
        <time>2019-10-17T06:21:40Z</time>
      </trkpt>
      <trkpt lat="39.77538" lon="-7.43363">
        <ele>120.729</ele>
        <time>2019-10-17T06:22:00Z</time>
      </trkpt>
      <trkpt lat="39.77542" lon="-7.43359">
        <ele>120.659</ele>
        <time>2019-10-17T06:22:20Z</time>
      </trkpt>
      <trkpt lat="39.77586" lon="-7.43304">
        <ele>120.981</ele>
        <time>2019-10-17T06:22:40Z</time>
      </trkpt>
      <trkpt lat="39.77595" lon="-7.43292">
        <ele>120.552</ele>
        <time>2019-10-17T06:23:00Z</time>
      </trkpt>
      <trkpt lat="39.77655" lon="-7.4318">
        <ele>121.464</ele>
        <time>2019-10-17T06:23:20Z</time>
      </trkpt>
      <trkpt lat="39.7766" lon="-7.43169">
        <ele>121.154</ele>
        <time>2019-10-17T06:23:40Z</time>
      </trkpt>
      <trkpt lat="39.77664" lon="-7.43159">
        <ele>121.187</ele>
        <time>2019-10-17T06:24:00Z</time>
      </trkpt>
      <trkpt lat="39.77667" lon="-7.43149">
        <ele>121.342</ele>
        <time>2019-10-17T06:24:20Z</time>
      </trkpt>
      <trkpt lat="39.77682" lon="-7.43073">
        <ele>123.626</ele>
        <time>2019-10-17T06:24:40Z</time>
      </trkpt>
      <trkpt lat="39.77683" lon="-7.43056">
        <ele>123.608</ele>
        <time>2019-10-17T06:25:00Z</time>
      </trkpt>
      <trkpt lat="39.77685" lon="-7.43039">
        <ele>123.652</ele>
        <time>2019-10-17T06:25:20Z</time>
      </trkpt>
      <trkpt lat="39.77729" lon="-7.42866">
        <ele>130.97</ele>
        <time>2019-10-17T06:25:40Z</time>
      </trkpt>
      <trkpt lat="39.77732" lon="-7.4285">
        <ele>131.262</ele>
        <time>2019-10-17T06:26:00Z</time>
      </trkpt>
      <trkpt lat="39.77734" lon="-7.42834">
        <ele>131.582</ele>
        <time>2019-10-17T06:26:20Z</time>
      </trkpt>
      <trkpt lat="39.77735" lon="-7.42789">
        <ele>128.874</ele>
        <time>2019-10-17T06:26:40Z</time>
      </trkpt>
      <trkpt lat="39.77733" lon="-7.42777">
        <ele>128.035</ele>
        <time>2019-10-17T06:27:00Z</time>
      </trkpt>
      <trkpt lat="39.77729" lon="-7.42766">
        <ele>127.627</ele>
        <time>2019-10-17T06:27:20Z</time>
      </trkpt>
      <trkpt lat="39.77725" lon="-7.42757">
        <ele>127.447</ele>
        <time>2019-10-17T06:27:40Z</time>
      </trkpt>
      <trkpt lat="39.77722" lon="-7.42752">
        <ele>127.228</ele>
        <time>2019-10-17T06:28:00Z</time>
      </trkpt>
      <trkpt lat="39.77721" lon="-7.42748">
        <ele>126.989</ele>
        <time>2019-10-17T06:28:20Z</time>
      </trkpt>
      <trkpt lat="39.77721" lon="-7.42746">
        <ele>126.617</ele>
        <time>2019-10-17T06:28:40Z</time>
      </trkpt>
      <trkpt lat="39.77728" lon="-7.42732">
        <ele>124.908</ele>
        <time>2019-10-17T06:29:00Z</time>
      </trkpt>
      <trkpt lat="39.77738" lon="-7.42717">
        <ele>125.236</ele>
        <time>2019-10-17T06:29:20Z</time>
      </trkpt>
      <trkpt lat="39.77744" lon="-7.42713">
        <ele>126.194</ele>
        <time>2019-10-17T06:29:40Z</time>
      </trkpt>
      <trkpt lat="39.7775" lon="-7.42711">
        <ele>126.686</ele>
        <time>2019-10-17T06:30:00Z</time>
      </trkpt>
      <trkpt lat="39.77758" lon="-7.42712">
        <ele>126.356</ele>
        <time>2019-10-17T06:30:20Z</time>
      </trkpt>
      <trkpt lat="39.77766" lon="-7.42714">
        <ele>126.098</ele>
        <time>2019-10-17T06:30:40Z</time>
      </trkpt>
      <trkpt lat="39.77774" lon="-7.42712">
        <ele>126.219</ele>
        <time>2019-10-17T06:31:00Z</time>
      </trkpt>
      <trkpt lat="39.77783" lon="-7.42708">
        <ele>127.061</ele>
        <time>2019-10-17T06:31:20Z</time>
      </trkpt>
      <trkpt lat="39.77792" lon="-7.42701">
        <ele>128.261</ele>
        <time>2019-10-17T06:31:40Z</time>
      </trkpt>
      <trkpt lat="39.77801" lon="-7.42693">
        <ele>129.588</ele>
        <time>2019-10-17T06:32:00Z</time>
      </trkpt>
      <trkpt lat="39.77811" lon="-7.42683">
        <ele>130.524</ele>
        <time>2019-10-17T06:32:20Z</time>
      </trkpt>
      <trkpt lat="39.77879" lon="-7.42622">
        <ele>125.526</ele>
        <time>2019-10-17T06:32:40Z</time>
      </trkpt>
      <trkpt lat="39.77897" lon="-7.42608">
        <ele>125.708</ele>
        <time>2019-10-17T06:33:00Z</time>
      </trkpt>
      <trkpt lat="39.77906" lon="-7.42604">
        <ele>125.772</ele>
        <time>2019-10-17T06:33:20Z</time>
      </trkpt>
      <trkpt lat="39.77914" lon="-7.42599">
        <ele>125.44</ele>
        <time>2019-10-17T06:33:40Z</time>
      </trkpt>
      <trkpt lat="39.77923" lon="-7.42593">
        <ele>125.282</ele>
        <time>2019-10-17T06:34:00Z</time>
      </trkpt>
      <trkpt lat="39.77931" lon="-7.42585">
        <ele>125.252</ele>
        <time>2019-10-17T06:34:20Z</time>
      </trkpt>
      <trkpt lat="39.77939" lon="-7.42575">
        <ele>125.774</ele>
        <time>2019-10-17T06:34:40Z</time>
      </trkpt>
      <trkpt lat="39.77947" lon="-7.42563">
        <ele>126.295</ele>
        <time>2019-10-17T06:35:00Z</time>
      </trkpt>
      <trkpt lat="39.77971" lon="-7.42524">
        <ele>124.947</ele>
        <time>2019-10-17T06:35:20Z</time>
      </trkpt>
      <trkpt lat="39.77979" lon="-7.42513">
        <ele>124.867</ele>
        <time>2019-10-17T06:35:40Z</time>
      </trkpt>
      <trkpt lat="39.77994" lon="-7.42492">
        <ele>124.485</ele>
        <time>2019-10-17T06:36:00Z</time>
      </trkpt>
      <trkpt lat="39.78" lon="-7.42481">
        <ele>123.789</ele>
        <time>2019-10-17T06:36:20Z</time>
      </trkpt>
      <trkpt lat="39.78006" lon="-7.42469">
        <ele>123.717</ele>
        <time>2019-10-17T06:36:40Z</time>
      </trkpt>
      <trkpt lat="39.7801" lon="-7.42457">
        <ele>123.808</ele>
        <time>2019-10-17T06:37:00Z</time>
      </trkpt>
      <trkpt lat="39.78012" lon="-7.42445">
        <ele>124.122</ele>
        <time>2019-10-17T06:37:20Z</time>
      </trkpt>
      <trkpt lat="39.78013" lon="-7.42434">
        <ele>125.73</ele>
        <time>2019-10-17T06:37:40Z</time>
      </trkpt>
      <trkpt lat="39.78015" lon="-7.42426">
        <ele>127.082</ele>
        <time>2019-10-17T06:38:00Z</time>
      </trkpt>
      <trkpt lat="39.78018" lon="-7.4242">
        <ele>127.872</ele>
        <time>2019-10-17T06:38:20Z</time>
      </trkpt>
      <trkpt lat="39.78022" lon="-7.42417">
        <ele>128.254</ele>
        <time>2019-10-17T06:38:40Z</time>
      </trkpt>
      <trkpt lat="39.78027" lon="-7.42416">
        <ele>128.255</ele>
        <time>2019-10-17T06:39:00Z</time>
      </trkpt>
      <trkpt lat="39.78033" lon="-7.42415">
        <ele>127.617</ele>
        <time>2019-10-17T06:39:20Z</time>
      </trkpt>
      <trkpt lat="39.7804" lon="-7.42414">
        <ele>127.277</ele>
        <time>2019-10-17T06:39:40Z</time>
      </trkpt>
      <trkpt lat="39.78045" lon="-7.42411">
        <ele>127.392</ele>
        <time>2019-10-17T06:40:00Z</time>
      </trkpt>
      <trkpt lat="39.7805" lon="-7.42404">
        <ele>128.273</ele>
        <time>2019-10-17T06:40:20Z</time>
      </trkpt>
      <trkpt lat="39.78055" lon="-7.42395">
        <ele>129.82</ele>
        <time>2019-10-17T06:40:40Z</time>
      </trkpt>
      <trkpt lat="39.78059" lon="-7.42383">
        <ele>131.408</ele>
        <time>2019-10-17T06:41:00Z</time>
      </trkpt>
      <trkpt lat="39.78063" lon="-7.4237">
        <ele>132.643</ele>
        <time>2019-10-17T06:41:20Z</time>
      </trkpt>
      <trkpt lat="39.78074" lon="-7.4234">
        <ele>134.151</ele>
        <time>2019-10-17T06:41:40Z</time>
      </trkpt>
      <trkpt lat="39.78082" lon="-7.42325">
        <ele>134.423</ele>
        <time>2019-10-17T06:42:00Z</time>
      </trkpt>
      <trkpt lat="39.78111" lon="-7.42261">
        <ele>135.073</ele>
        <time>2019-10-17T06:42:20Z</time>
      </trkpt>
      <trkpt lat="39.7813" lon="-7.42215">
        <ele>134.785</ele>
        <time>2019-10-17T06:42:40Z</time>
      </trkpt>
      <trkpt lat="39.78139" lon="-7.42186">
        <ele>133.016</ele>
        <time>2019-10-17T06:43:00Z</time>
      </trkpt>
      <trkpt lat="39.78142" lon="-7.42173">
        <ele>131.958</ele>
        <time>2019-10-17T06:43:20Z</time>
      </trkpt>
      <trkpt lat="39.78144" lon="-7.42161">
        <ele>131.328</ele>
        <time>2019-10-17T06:43:40Z</time>
      </trkpt>
      <trkpt lat="39.78144" lon="-7.42149">
        <ele>131.156</ele>
        <time>2019-10-17T06:44:00Z</time>
      </trkpt>
      <trkpt lat="39.78143" lon="-7.42139">
        <ele>131.559</ele>
        <time>2019-10-17T06:44:20Z</time>
      </trkpt>
      <trkpt lat="39.78142" lon="-7.4213">
        <ele>132.014</ele>
        <time>2019-10-17T06:44:40Z</time>
      </trkpt>
      <trkpt lat="39.78143" lon="-7.42122">
        <ele>131.808</ele>
        <time>2019-10-17T06:45:00Z</time>
      </trkpt>
      <trkpt lat="39.78145" lon="-7.42115">
        <ele>131.119</ele>
        <time>2019-10-17T06:45:20Z</time>
      </trkpt>
      <trkpt lat="39.78148" lon="-7.42109">
        <ele>130.277</ele>
        <time>2019-10-17T06:45:40Z</time>
      </trkpt>
      <trkpt lat="39.78151" lon="-7.42105">
        <ele>129.659</ele>
        <time>2019-10-17T06:46:00Z</time>
      </trkpt>
      <trkpt lat="39.78153" lon="-7.42102">
        <ele>129.059</ele>
        <time>2019-10-17T06:46:20Z</time>
      </trkpt>
      <trkpt lat="39.78155" lon="-7.42096">
        <ele>128.391</ele>
        <time>2019-10-17T06:46:40Z</time>
      </trkpt>
      <trkpt lat="39.78152" lon="-7.421">
        <ele>129.362</ele>
        <time>2019-10-17T06:47:00Z</time>
      </trkpt>
      <trkpt lat="39.78155" lon="-7.42098">
        <ele>128.534</ele>
        <time>2019-10-17T06:47:20Z</time>
      </trkpt>
      <trkpt lat="39.78156" lon="-7.42096">
        <ele>128.244</ele>
        <time>2019-10-17T06:47:40Z</time>
      </trkpt>
      <trkpt lat="39.78158" lon="-7.42092">
        <ele>127.824</ele>
        <time>2019-10-17T06:48:00Z</time>
      </trkpt>
      <trkpt lat="39.78172" lon="-7.4207">
        <ele>124.104</ele>
        <time>2019-10-17T06:48:20Z</time>
      </trkpt>
      <trkpt lat="39.78184" lon="-7.42061">
        <ele>123.014</ele>
        <time>2019-10-17T06:48:40Z</time>
      </trkpt>
      <trkpt lat="39.78185" lon="-7.4206">
        <ele>123.008</ele>
        <time>2019-10-17T06:49:00Z</time>
      </trkpt>
      <trkpt lat="39.78183" lon="-7.42053">
        <ele>123.246</ele>
        <time>2019-10-17T06:49:20Z</time>
      </trkpt>
      <trkpt lat="39.78184" lon="-7.42053">
        <ele>123.234</ele>
        <time>2019-10-17T06:49:40Z</time>
      </trkpt>
      <trkpt lat="39.78186" lon="-7.42051">
        <ele>123.556</ele>
        <time>2019-10-17T06:50:00Z</time>
      </trkpt>
      <trkpt lat="39.78196" lon="-7.42037">
        <ele>125.726</ele>
        <time>2019-10-17T06:50:20Z</time>
      </trkpt>
      <trkpt lat="39.78201" lon="-7.42032">
        <ele>126.128</ele>
        <time>2019-10-17T06:50:40Z</time>
      </trkpt>
      <trkpt lat="39.78205" lon="-7.42029">
        <ele>126.519</ele>
        <time>2019-10-17T06:51:00Z</time>
      </trkpt>
      <trkpt lat="39.78209" lon="-7.42026">
        <ele>126.811</ele>
        <time>2019-10-17T06:51:20Z</time>
      </trkpt>
      <trkpt lat="39.78213" lon="-7.42025">
        <ele>127.041</ele>
        <time>2019-10-17T06:51:40Z</time>
      </trkpt>
      <trkpt lat="39.78217" lon="-7.42024">
        <ele>127.154</ele>
        <time>2019-10-17T06:52:00Z</time>
      </trkpt>
      <trkpt lat="39.78234" lon="-7.42017">
        <ele>126.556</ele>
        <time>2019-10-17T06:52:20Z</time>
      </trkpt>
      <trkpt lat="39.78254" lon="-7.42003">
        <ele>125.511</ele>
        <time>2019-10-17T06:52:40Z</time>
      </trkpt>
      <trkpt lat="39.7826" lon="-7.41997">
        <ele>125.508</ele>
        <time>2019-10-17T06:53:00Z</time>
      </trkpt>
      <trkpt lat="39.78265" lon="-7.4199">
        <ele>126.059</ele>
        <time>2019-10-17T06:53:20Z</time>
      </trkpt>
      <trkpt lat="39.7827" lon="-7.41982">
        <ele>126.667</ele>
        <time>2019-10-17T06:53:40Z</time>
      </trkpt>
      <trkpt lat="39.78274" lon="-7.41972">
        <ele>127.329</ele>
        <time>2019-10-17T06:54:00Z</time>
      </trkpt>
      <trkpt lat="39.78278" lon="-7.41961">
        <ele>128.459</ele>
        <time>2019-10-17T06:54:20Z</time>
      </trkpt>
      <trkpt lat="39.78282" lon="-7.41948">
        <ele>130.321</ele>
        <time>2019-10-17T06:54:40Z</time>
      </trkpt>
      <trkpt lat="39.78308" lon="-7.41861">
        <ele>130.692</ele>
        <time>2019-10-17T06:55:00Z</time>
      </trkpt>
      <trkpt lat="39.78391" lon="-7.41712">
        <ele>126.224</ele>
        <time>2019-10-17T06:55:20Z</time>
      </trkpt>
      <trkpt lat="39.78405" lon="-7.4169">
        <ele>127.774</ele>
        <time>2019-10-17T06:55:40Z</time>
      </trkpt>
      <trkpt lat="39.7842" lon="-7.41672">
        <ele>127.468</ele>
        <time>2019-10-17T06:56:00Z</time>
      </trkpt>
      <trkpt lat="39.78428" lon="-7.41661">
        <ele>127.442</ele>
        <time>2019-10-17T06:56:20Z</time>
      </trkpt>
      <trkpt lat="39.78492" lon="-7.41536">
        <ele>130.526</ele>
        <time>2019-10-17T06:56:40Z</time>
      </trkpt>
      <trkpt lat="39.78533" lon="-7.41439">
        <ele>127.608</ele>
        <time>2019-10-17T06:57:00Z</time>
      </trkpt>
      <trkpt lat="39.78587" lon="-7.41331">
        <ele>132.54</ele>
        <time>2019-10-17T06:57:20Z</time>
      </trkpt>
      <trkpt lat="39.78594" lon="-7.41321">
        <ele>132.568</ele>
        <time>2019-10-17T06:57:40Z</time>
      </trkpt>
      <trkpt lat="39.78682" lon="-7.41238">
        <ele>133.87</ele>
        <time>2019-10-17T06:58:00Z</time>
      </trkpt>
      <trkpt lat="39.78793" lon="-7.41145">
        <ele>128.87</ele>
        <time>2019-10-17T06:58:20Z</time>
      </trkpt>
      <trkpt lat="39.7885" lon="-7.41085">
        <ele>126.722</ele>
        <time>2019-10-17T06:58:40Z</time>
      </trkpt>
      <trkpt lat="39.78857" lon="-7.41076">
        <ele>126.483</ele>
        <time>2019-10-17T06:59:00Z</time>
      </trkpt>
      <trkpt lat="39.78861" lon="-7.41068">
        <ele>126.035</ele>
        <time>2019-10-17T06:59:20Z</time>
      </trkpt>
      <trkpt lat="39.78862" lon="-7.4106">
        <ele>126.095</ele>
        <time>2019-10-17T06:59:40Z</time>
      </trkpt>
      <trkpt lat="39.7886" lon="-7.41052">
        <ele>126.154</ele>
        <time>2019-10-17T07:00:00Z</time>
      </trkpt>
      <trkpt lat="39.78857" lon="-7.41043">
        <ele>126.656</ele>
        <time>2019-10-17T07:00:20Z</time>
      </trkpt>
      <trkpt lat="39.78854" lon="-7.41034">
        <ele>127.111</ele>
        <time>2019-10-17T07:00:40Z</time>
      </trkpt>
      <trkpt lat="39.78852" lon="-7.41025">
        <ele>127.508</ele>
        <time>2019-10-17T07:01:00Z</time>
      </trkpt>
      <trkpt lat="39.78853" lon="-7.41016">
        <ele>127.839</ele>
        <time>2019-10-17T07:01:20Z</time>
      </trkpt>
      <trkpt lat="39.78856" lon="-7.41007">
        <ele>127.757</ele>
        <time>2019-10-17T07:01:40Z</time>
      </trkpt>
      <trkpt lat="39.7886" lon="-7.40997">
        <ele>127.249</ele>
        <time>2019-10-17T07:02:00Z</time>
      </trkpt>
      <trkpt lat="39.78865" lon="-7.40985">
        <ele>126.819</ele>
        <time>2019-10-17T07:02:20Z</time>
      </trkpt>
      <trkpt lat="39.78895" lon="-7.409">
        <ele>128.051</ele>
        <time>2019-10-17T07:02:40Z</time>
      </trkpt>
      <trkpt lat="39.78897" lon="-7.40887">
        <ele>128.172</ele>
        <time>2019-10-17T07:03:00Z</time>
      </trkpt>
      <trkpt lat="39.78899" lon="-7.40873">
        <ele>129.074</ele>
        <time>2019-10-17T07:03:20Z</time>
      </trkpt>
      <trkpt lat="39.78903" lon="-7.4083">
        <ele>130.614</ele>
        <time>2019-10-17T07:03:40Z</time>
      </trkpt>
      <trkpt lat="39.78906" lon="-7.40818">
        <ele>130.661</ele>
        <time>2019-10-17T07:04:00Z</time>
      </trkpt>
      <trkpt lat="39.78911" lon="-7.40806">
        <ele>130.421</ele>
        <time>2019-10-17T07:04:20Z</time>
      </trkpt>
      <trkpt lat="39.78924" lon="-7.40781">
        <ele>130.413</ele>
        <time>2019-10-17T07:04:40Z</time>
      </trkpt>
      <trkpt lat="39.78989" lon="-7.4066">
        <ele>127.308</ele>
        <time>2019-10-17T07:05:00Z</time>
      </trkpt>
      <trkpt lat="39.79" lon="-7.40639">
        <ele>126.02</ele>
        <time>2019-10-17T07:05:20Z</time>
      </trkpt>
      <trkpt lat="39.79003" lon="-7.40632">
        <ele>125.848</ele>
        <time>2019-10-17T07:05:40Z</time>
      </trkpt>
      <trkpt lat="39.79004" lon="-7.40627">
        <ele>125.76</ele>
        <time>2019-10-17T07:06:00Z</time>
      </trkpt>
      <trkpt lat="39.79005" lon="-7.40622">
        <ele>125.67</ele>
        <time>2019-10-17T07:06:20Z</time>
      </trkpt>
      <trkpt lat="39.79005" lon="-7.40618">
        <ele>125.622</ele>
        <time>2019-10-17T07:06:40Z</time>
      </trkpt>
      <trkpt lat="39.79005" lon="-7.40607">
        <ele>125.843</ele>
        <time>2019-10-17T07:07:00Z</time>
      </trkpt>
      <trkpt lat="39.79006" lon="-7.40609">
        <ele>125.765</ele>
        <time>2019-10-17T07:07:20Z</time>
      </trkpt>
      <trkpt lat="39.79005" lon="-7.40608">
        <ele>125.745</ele>
        <time>2019-10-17T07:07:40Z</time>
      </trkpt>
      <trkpt lat="39.79001" lon="-7.40584">
        <ele>126.981</ele>
        <time>2019-10-17T07:08:00Z</time>
      </trkpt>
      <trkpt lat="39.7899" lon="-7.40559">
        <ele>129.461</ele>
        <time>2019-10-17T07:08:20Z</time>
      </trkpt>
      <trkpt lat="39.78962" lon="-7.40516">
        <ele>129.017</ele>
        <time>2019-10-17T07:08:40Z</time>
      </trkpt>
      <trkpt lat="39.78921" lon="-7.40459">
        <ele>130.808</ele>
        <time>2019-10-17T07:09:00Z</time>
      </trkpt>
      <trkpt lat="39.78884" lon="-7.40414">
        <ele>132.432</ele>
        <time>2019-10-17T07:09:20Z</time>
      </trkpt>
      <trkpt lat="39.78861" lon="-7.40351">
        <ele>128.34</ele>
        <time>2019-10-17T07:09:40Z</time>
      </trkpt>
      <trkpt lat="39.78833" lon="-7.40256">
        <ele>129.472</ele>
        <time>2019-10-17T07:10:00Z</time>
      </trkpt>
      <trkpt lat="39.78811" lon="-7.40222">
        <ele>131.862</ele>
        <time>2019-10-17T07:10:20Z</time>
      </trkpt>
      <trkpt lat="39.78789" lon="-7.40079">
        <ele>130.694</ele>
        <time>2019-10-17T07:10:40Z</time>
      </trkpt>
      <trkpt lat="39.78772" lon="-7.40001">
        <ele>130.565</ele>
        <time>2019-10-17T07:11:00Z</time>
      </trkpt>
      <trkpt lat="39.78768" lon="-7.39885">
        <ele>134.627</ele>
        <time>2019-10-17T07:11:20Z</time>
      </trkpt>
      <trkpt lat="39.78779" lon="-7.39765">
        <ele>131.467</ele>
        <time>2019-10-17T07:11:40Z</time>
      </trkpt>
      <trkpt lat="39.78761" lon="-7.39642">
        <ele>127.729</ele>
        <time>2019-10-17T07:12:00Z</time>
      </trkpt>
      <trkpt lat="39.78756" lon="-7.39613">
        <ele>128</ele>
        <time>2019-10-17T07:12:20Z</time>
      </trkpt>
      <trkpt lat="39.78793" lon="-7.39373">
        <ele>132.72</ele>
        <time>2019-10-17T07:12:40Z</time>
      </trkpt>
      <trkpt lat="39.78883" lon="-7.38954">
        <ele>127.208</ele>
        <time>2019-10-17T07:13:00Z</time>
      </trkpt>
      <trkpt lat="39.78919" lon="-7.38781">
        <ele>130.776</ele>
        <time>2019-10-17T07:13:20Z</time>
      </trkpt>
      <trkpt lat="39.7894" lon="-7.38758">
        <ele>129.924</ele>
        <time>2019-10-17T07:13:40Z</time>
      </trkpt>
      <trkpt lat="39.78976" lon="-7.38749">
        <ele>129.146</ele>
        <time>2019-10-17T07:14:00Z</time>
      </trkpt>
      <trkpt lat="39.78991" lon="-7.38701">
        <ele>129.516</ele>
        <time>2019-10-17T07:14:20Z</time>
      </trkpt>
      <trkpt lat="39.78999" lon="-7.38643">
        <ele>132.998</ele>
        <time>2019-10-17T07:14:40Z</time>
      </trkpt>
      <trkpt lat="39.78976" lon="-7.3855">
        <ele>135.889</ele>
        <time>2019-10-17T07:15:00Z</time>
      </trkpt>
      <trkpt lat="39.78947" lon="-7.38454">
        <ele>138.211</ele>
        <time>2019-10-17T07:15:20Z</time>
      </trkpt>
      <trkpt lat="39.78922" lon="-7.38394">
        <ele>140.241</ele>
        <time>2019-10-17T07:15:40Z</time>
      </trkpt>
      <trkpt lat="39.78919" lon="-7.38336">
        <ele>140.114</ele>
        <time>2019-10-17T07:16:00Z</time>
      </trkpt>
      <trkpt lat="39.78963" lon="-7.38407">
        <ele>140.154</ele>
        <time>2019-10-17T07:16:20Z</time>
      </trkpt>
      <trkpt lat="39.7899" lon="-7.38413">
        <ele>135.909</ele>
        <time>2019-10-17T07:16:40Z</time>
      </trkpt>
      <trkpt lat="39.79004" lon="-7.38376">
        <ele>135.008</ele>
        <time>2019-10-17T07:17:00Z</time>
      </trkpt>
      <trkpt lat="39.79014" lon="-7.3829">
        <ele>138.685</ele>
        <time>2019-10-17T07:17:20Z</time>
      </trkpt>
      <trkpt lat="39.79012" lon="-7.38243">
        <ele>138.953</ele>
        <time>2019-10-17T07:17:40Z</time>
      </trkpt>
      <trkpt lat="39.78999" lon="-7.38199">
        <ele>137.325</ele>
        <time>2019-10-17T07:18:00Z</time>
      </trkpt>
      <trkpt lat="39.79004" lon="-7.38068">
        <ele>135.775</ele>
        <time>2019-10-17T07:18:20Z</time>
      </trkpt>
      <trkpt lat="39.79021" lon="-7.37978">
        <ele>137.517</ele>
        <time>2019-10-17T07:18:40Z</time>
      </trkpt>
      <trkpt lat="39.79033" lon="-7.37894">
        <ele>135.778</ele>
        <time>2019-10-17T07:19:00Z</time>
      </trkpt>
      <trkpt lat="39.79026" lon="-7.37767">
        <ele>135.98</ele>
        <time>2019-10-17T07:19:20Z</time>
      </trkpt>
      <trkpt lat="39.79014" lon="-7.37679">
        <ele>138.19</ele>
        <time>2019-10-17T07:19:40Z</time>
      </trkpt>
      <trkpt lat="39.79014" lon="-7.37592">
        <ele>139.016</ele>
        <time>2019-10-17T07:20:00Z</time>
      </trkpt>
      <trkpt lat="39.79002" lon="-7.37537">
        <ele>135.676</ele>
        <time>2019-10-17T07:20:20Z</time>
      </trkpt>
      <trkpt lat="39.79003" lon="-7.37495">
        <ele>135.513</ele>
        <time>2019-10-17T07:20:40Z</time>
      </trkpt>
      <trkpt lat="39.78996" lon="-7.37438">
        <ele>138.208</ele>
        <time>2019-10-17T07:21:00Z</time>
      </trkpt>
      <trkpt lat="39.78958" lon="-7.37336">
        <ele>141.565</ele>
        <time>2019-10-17T07:21:20Z</time>
      </trkpt>
      <trkpt lat="39.78904" lon="-7.37184">
        <ele>143.653</ele>
        <time>2019-10-17T07:21:40Z</time>
      </trkpt>
      <trkpt lat="39.78897" lon="-7.37094">
        <ele>143.375</ele>
        <time>2019-10-17T07:22:00Z</time>
      </trkpt>
      <trkpt lat="39.78928" lon="-7.36925">
        <ele>143.155</ele>
        <time>2019-10-17T07:22:20Z</time>
      </trkpt>
      <trkpt lat="39.78938" lon="-7.36855">
        <ele>143.297</ele>
        <time>2019-10-17T07:22:40Z</time>
      </trkpt>
      <trkpt lat="39.78915" lon="-7.36798">
        <ele>141.148</ele>
        <time>2019-10-17T07:23:00Z</time>
      </trkpt>
      <trkpt lat="39.78806" lon="-7.36682">
        <ele>141.47</ele>
        <time>2019-10-17T07:23:20Z</time>
      </trkpt>
      <trkpt lat="39.78703" lon="-7.36568">
        <ele>143.29</ele>
        <time>2019-10-17T07:23:40Z</time>
      </trkpt>
      <trkpt lat="39.78653" lon="-7.36494">
        <ele>147.814</ele>
        <time>2019-10-17T07:24:00Z</time>
      </trkpt>
      <trkpt lat="39.78636" lon="-7.36349">
        <ele>147.054</ele>
        <time>2019-10-17T07:24:20Z</time>
      </trkpt>
      <trkpt lat="39.78627" lon="-7.36204">
        <ele>147.409</ele>
        <time>2019-10-17T07:24:40Z</time>
      </trkpt>
      <trkpt lat="39.78641" lon="-7.36046">
        <ele>147.908</ele>
        <time>2019-10-17T07:25:00Z</time>
      </trkpt>
      <trkpt lat="39.78696" lon="-7.35907">
        <ele>147.995</ele>
        <time>2019-10-17T07:25:20Z</time>
      </trkpt>
      <trkpt lat="39.7881" lon="-7.35651">
        <ele>147.693</ele>
        <time>2019-10-17T07:25:40Z</time>
      </trkpt>
      <trkpt lat="39.78828" lon="-7.35607">
        <ele>148.235</ele>
        <time>2019-10-17T07:26:00Z</time>
      </trkpt>
      <trkpt lat="39.78836" lon="-7.3554">
        <ele>150.465</ele>
        <time>2019-10-17T07:26:20Z</time>
      </trkpt>
      <trkpt lat="39.78839" lon="-7.35464">
        <ele>149.397</ele>
        <time>2019-10-17T07:26:40Z</time>
      </trkpt>
      <trkpt lat="39.78834" lon="-7.35369">
        <ele>145.968</ele>
        <time>2019-10-17T07:27:00Z</time>
      </trkpt>
      <trkpt lat="39.78823" lon="-7.35225">
        <ele>149.18</ele>
        <time>2019-10-17T07:27:20Z</time>
      </trkpt>
      <trkpt lat="39.78851" lon="-7.35053">
        <ele>152.31</ele>
        <time>2019-10-17T07:27:40Z</time>
      </trkpt>
      <trkpt lat="39.78969" lon="-7.34904">
        <ele>149.258</ele>
        <time>2019-10-17T07:28:00Z</time>
      </trkpt>
      <trkpt lat="39.79161" lon="-7.34779">
        <ele>153.352</ele>
        <time>2019-10-17T07:28:20Z</time>
      </trkpt>
      <trkpt lat="39.79192" lon="-7.34752">
        <ele>152.317</ele>
        <time>2019-10-17T07:28:40Z</time>
      </trkpt>
      <trkpt lat="39.79241" lon="-7.34623">
        <ele>151.308</ele>
        <time>2019-10-17T07:29:00Z</time>
      </trkpt>
      <trkpt lat="39.79285" lon="-7.345">
        <ele>150.889</ele>
        <time>2019-10-17T07:29:20Z</time>
      </trkpt>
      <trkpt lat="39.79266" lon="-7.34413">
        <ele>152.677</ele>
        <time>2019-10-17T07:29:40Z</time>
      </trkpt>
      <trkpt lat="39.7926" lon="-7.34283">
        <ele>156.879</ele>
        <time>2019-10-17T07:30:00Z</time>
      </trkpt>
      <trkpt lat="39.7925" lon="-7.34115">
        <ele>154.159</ele>
        <time>2019-10-17T07:30:20Z</time>
      </trkpt>
      <trkpt lat="39.79228" lon="-7.33988">
        <ele>156.521</ele>
        <time>2019-10-17T07:30:40Z</time>
      </trkpt>
      <trkpt lat="39.79225" lon="-7.33932">
        <ele>154.892</ele>
        <time>2019-10-17T07:31:00Z</time>
      </trkpt>
      <trkpt lat="39.79205" lon="-7.33897">
        <ele>157.714</ele>
        <time>2019-10-17T07:31:20Z</time>
      </trkpt>
      <trkpt lat="39.79182" lon="-7.33859">
        <ele>158.984</ele>
        <time>2019-10-17T07:31:40Z</time>
      </trkpt>
      <trkpt lat="39.79184" lon="-7.3384">
        <ele>158.032</ele>
        <time>2019-10-17T07:32:00Z</time>
      </trkpt>
      <trkpt lat="39.79239" lon="-7.33872">
        <ele>154.192</ele>
        <time>2019-10-17T07:32:20Z</time>
      </trkpt>
      <trkpt lat="39.79285" lon="-7.33927">
        <ele>152.011</ele>
        <time>2019-10-17T07:32:40Z</time>
      </trkpt>
      <trkpt lat="39.79336" lon="-7.33919">
        <ele>152.108</ele>
        <time>2019-10-17T07:33:00Z</time>
      </trkpt>
      <trkpt lat="39.79384" lon="-7.33897">
        <ele>153.537</ele>
        <time>2019-10-17T07:33:20Z</time>
      </trkpt>
      <trkpt lat="39.79392" lon="-7.33875">
        <ele>154.625</ele>
        <time>2019-10-17T07:33:40Z</time>
      </trkpt>
      <trkpt lat="39.79375" lon="-7.33825">
        <ele>152.247</ele>
        <time>2019-10-17T07:34:00Z</time>
      </trkpt>
      <trkpt lat="39.79434" lon="-7.33732">
        <ele>159.557</ele>
        <time>2019-10-17T07:34:20Z</time>
      </trkpt>
      <trkpt lat="39.79438" lon="-7.33602">
        <ele>160.279</ele>
        <time>2019-10-17T07:34:40Z</time>
      </trkpt>
      <trkpt lat="39.79399" lon="-7.33469">
        <ele>158.58</ele>
        <time>2019-10-17T07:35:00Z</time>
      </trkpt>
      <trkpt lat="39.79379" lon="-7.33327">
        <ele>157.222</ele>
        <time>2019-10-17T07:35:20Z</time>
      </trkpt>
      <trkpt lat="39.79329" lon="-7.33299">
        <ele>157.922</ele>
        <time>2019-10-17T07:35:40Z</time>
      </trkpt>
      <trkpt lat="39.79304" lon="-7.33199">
        <ele>165.329</ele>
        <time>2019-10-17T07:36:00Z</time>
      </trkpt>
      <trkpt lat="39.79281" lon="-7.33071">
        <ele>167.9</ele>
        <time>2019-10-17T07:36:20Z</time>
      </trkpt>
      <trkpt lat="39.79262" lon="-7.32921">
        <ele>164.12</ele>
        <time>2019-10-17T07:36:40Z</time>
      </trkpt>
      <trkpt lat="39.79277" lon="-7.32816">
        <ele>164.908</ele>
        <time>2019-10-17T07:37:00Z</time>
      </trkpt>
      <trkpt lat="39.79329" lon="-7.32703">
        <ele>166.666</ele>
        <time>2019-10-17T07:37:20Z</time>
      </trkpt>
      <trkpt lat="39.79308" lon="-7.32583">
        <ele>166.234</ele>
        <time>2019-10-17T07:37:40Z</time>
      </trkpt>
      <trkpt lat="39.79304" lon="-7.32473">
        <ele>161.146</ele>
        <time>2019-10-17T07:38:00Z</time>
      </trkpt>
      <trkpt lat="39.79278" lon="-7.32393">
        <ele>164.066</ele>
        <time>2019-10-17T07:38:20Z</time>
      </trkpt>
      <trkpt lat="39.79293" lon="-7.32299">
        <ele>164.538</ele>
        <time>2019-10-17T07:38:40Z</time>
      </trkpt>
      <trkpt lat="39.79274" lon="-7.32123">
        <ele>165.749</ele>
        <time>2019-10-17T07:39:00Z</time>
      </trkpt>
      <trkpt lat="39.7936" lon="-7.31963">
        <ele>167.491</ele>
        <time>2019-10-17T07:39:20Z</time>
      </trkpt>
      <trkpt lat="39.79415" lon="-7.31773">
        <ele>172.361</ele>
        <time>2019-10-17T07:39:40Z</time>
      </trkpt>
      <trkpt lat="39.79448" lon="-7.31561">
        <ele>172.368</ele>
        <time>2019-10-17T07:40:00Z</time>
      </trkpt>
      <trkpt lat="39.79616" lon="-7.31275">
        <ele>178.942</ele>
        <time>2019-10-17T07:40:20Z</time>
      </trkpt>
      <trkpt lat="39.79735" lon="-7.31092">
        <ele>181.526</ele>
        <time>2019-10-17T07:40:40Z</time>
      </trkpt>
      <trkpt lat="39.79954" lon="-7.3089">
        <ele>186.008</ele>
        <time>2019-10-17T07:41:00Z</time>
      </trkpt>
      <trkpt lat="39.80026" lon="-7.30675">
        <ele>191.85</ele>
        <time>2019-10-17T07:41:20Z</time>
      </trkpt>
      <trkpt lat="39.80123" lon="-7.30412">
        <ele>197.628</ele>
        <time>2019-10-17T07:41:40Z</time>
      </trkpt>
      <trkpt lat="39.80159" lon="-7.30332">
        <ele>200.16</ele>
        <time>2019-10-17T07:42:00Z</time>
      </trkpt>
      <trkpt lat="39.80233" lon="-7.30114">
        <ele>204.48</ele>
        <time>2019-10-17T07:42:20Z</time>
      </trkpt>
      <trkpt lat="39.80306" lon="-7.29949">
        <ele>206.092</ele>
        <time>2019-10-17T07:42:40Z</time>
      </trkpt>
      <trkpt lat="39.80418" lon="-7.29849">
        <ele>210.583</ele>
        <time>2019-10-17T07:43:00Z</time>
      </trkpt>
      <trkpt lat="39.80437" lon="-7.29777">
        <ele>214.395</ele>
        <time>2019-10-17T07:43:20Z</time>
      </trkpt>
      <trkpt lat="39.80437" lon="-7.29587">
        <ele>222.265</ele>
        <time>2019-10-17T07:43:40Z</time>
      </trkpt>
      <trkpt lat="39.80491" lon="-7.29368">
        <ele>222.549</ele>
        <time>2019-10-17T07:44:00Z</time>
      </trkpt>
      <trkpt lat="39.80485" lon="-7.29129">
        <ele>223.502</ele>
        <time>2019-10-17T07:44:20Z</time>
      </trkpt>
      <trkpt lat="39.80576" lon="-7.28928">
        <ele>222.122</ele>
        <time>2019-10-17T07:44:40Z</time>
      </trkpt>
      <trkpt lat="39.80616" lon="-7.2881">
        <ele>221.608</ele>
        <time>2019-10-17T07:45:00Z</time>
      </trkpt>
      <trkpt lat="39.80624" lon="-7.2867">
        <ele>222.068</ele>
        <time>2019-10-17T07:45:20Z</time>
      </trkpt>
      <trkpt lat="39.80721" lon="-7.28371">
        <ele>221.636</ele>
        <time>2019-10-17T07:45:40Z</time>
      </trkpt>
      <trkpt lat="39.80785" lon="-7.2807">
        <ele>215.528</ele>
        <time>2019-10-17T07:46:00Z</time>
      </trkpt>
      <trkpt lat="39.80778" lon="-7.27935">
        <ele>219.318</ele>
        <time>2019-10-17T07:46:20Z</time>
      </trkpt>
      <trkpt lat="39.80787" lon="-7.2781">
        <ele>222.52</ele>
        <time>2019-10-17T07:46:40Z</time>
      </trkpt>
      <trkpt lat="39.80817" lon="-7.2761">
        <ele>227.671</ele>
        <time>2019-10-17T07:47:00Z</time>
      </trkpt>
      <trkpt lat="39.80837" lon="-7.27555">
        <ele>227.023</ele>
        <time>2019-10-17T07:47:20Z</time>
      </trkpt>
      <trkpt lat="39.80847" lon="-7.2733">
        <ele>227.243</ele>
        <time>2019-10-17T07:47:40Z</time>
      </trkpt>
      <trkpt lat="39.80782" lon="-7.27169">
        <ele>229.195</ele>
        <time>2019-10-17T07:48:00Z</time>
      </trkpt>
      <trkpt lat="39.80808" lon="-7.26992">
        <ele>229.149</ele>
        <time>2019-10-17T07:48:20Z</time>
      </trkpt>
      <trkpt lat="39.80869" lon="-7.26814">
        <ele>230.423</ele>
        <time>2019-10-17T07:48:40Z</time>
      </trkpt>
      <trkpt lat="39.80961" lon="-7.26696">
        <ele>229.008</ele>
        <time>2019-10-17T07:49:00Z</time>
      </trkpt>
      <trkpt lat="39.81293" lon="-7.2665">
        <ele>232.963</ele>
        <time>2019-10-17T07:49:20Z</time>
      </trkpt>
      <trkpt lat="39.81525" lon="-7.26427">
        <ele>236.431</ele>
        <time>2019-10-17T07:49:40Z</time>
      </trkpt>
      <trkpt lat="39.81638" lon="-7.26292">
        <ele>234.583</ele>
        <time>2019-10-17T07:50:00Z</time>
      </trkpt>
      <trkpt lat="39.81735" lon="-7.26279">
        <ele>235.573</ele>
        <time>2019-10-17T07:50:20Z</time>
      </trkpt>
      <trkpt lat="39.81974" lon="-7.26139">
        <ele>232.925</ele>
        <time>2019-10-17T07:50:40Z</time>
      </trkpt>
      <trkpt lat="39.82258" lon="-7.25996">
        <ele>230.346</ele>
        <time>2019-10-17T07:51:00Z</time>
      </trkpt>
      <trkpt lat="39.82472" lon="-7.2607">
        <ele>226.068</ele>
        <time>2019-10-17T07:51:20Z</time>
      </trkpt>
      <trkpt lat="39.82827" lon="-7.26032">
        <ele>222.938</ele>
        <time>2019-10-17T07:51:40Z</time>
      </trkpt>
      <trkpt lat="39.82976" lon="-7.26099">
        <ele>219.399</ele>
        <time>2019-10-17T07:52:00Z</time>
      </trkpt>
      <trkpt lat="39.83034" lon="-7.26139">
        <ele>222.007</ele>
        <time>2019-10-17T07:52:20Z</time>
      </trkpt>
      <trkpt lat="39.83215" lon="-7.26076">
        <ele>214.827</ele>
        <time>2019-10-17T07:52:40Z</time>
      </trkpt>
      <trkpt lat="39.83229" lon="-7.2608">
        <ele>214.708</ele>
        <time>2019-10-17T07:53:00Z</time>
      </trkpt>
      <trkpt lat="39.83282" lon="-7.26094">
        <ele>213.183</ele>
        <time>2019-10-17T07:53:20Z</time>
      </trkpt>
      <trkpt lat="39.83264" lon="-7.26059">
        <ele>213.971</ele>
        <time>2019-10-17T07:53:40Z</time>
      </trkpt>
      <trkpt lat="39.83279" lon="-7.25998">
        <ele>215.083</ele>
        <time>2019-10-17T07:54:00Z</time>
      </trkpt>
      <trkpt lat="39.83296" lon="-7.25971">
        <ele>215.063</ele>
        <time>2019-10-17T07:54:20Z</time>
      </trkpt>
      <trkpt lat="39.83327" lon="-7.25977">
        <ele>214.255</ele>
        <time>2019-10-17T07:54:40Z</time>
      </trkpt>
      <trkpt lat="39.83339" lon="-7.26">
        <ele>214.426</ele>
        <time>2019-10-17T07:55:00Z</time>
      </trkpt>
      <trkpt lat="39.83407" lon="-7.26033">
        <ele>222.598</ele>
        <time>2019-10-17T07:55:20Z</time>
      </trkpt>
      <trkpt lat="39.83435" lon="-7.26056">
        <ele>224.028</ele>
        <time>2019-10-17T07:55:40Z</time>
      </trkpt>
      <trkpt lat="39.83485" lon="-7.26032">
        <ele>225.568</ele>
        <time>2019-10-17T07:56:00Z</time>
      </trkpt>
      <trkpt lat="39.83517" lon="-7.25971">
        <ele>225.042</ele>
        <time>2019-10-17T07:56:20Z</time>
      </trkpt>
      <trkpt lat="39.83537" lon="-7.26045">
        <ele>226.026</ele>
        <time>2019-10-17T07:56:40Z</time>
      </trkpt>
      <trkpt lat="39.83594" lon="-7.26202">
        <ele>223.208</ele>
        <time>2019-10-17T07:57:00Z</time>
      </trkpt>
      <trkpt lat="39.83855" lon="-7.26489">
        <ele>216.34</ele>
        <time>2019-10-17T07:57:20Z</time>
      </trkpt>
      <trkpt lat="39.84212" lon="-7.26911">
        <ele>211.058</ele>
        <time>2019-10-17T07:57:40Z</time>
      </trkpt>
      <trkpt lat="39.84545" lon="-7.27565">
        <ele>196.18</ele>
        <time>2019-10-17T07:58:00Z</time>
      </trkpt>
      <trkpt lat="39.84595" lon="-7.2793">
        <ele>193.24</ele>
        <time>2019-10-17T07:58:20Z</time>
      </trkpt>
      <trkpt lat="39.84683" lon="-7.2814">
        <ele>191.052</ele>
        <time>2019-10-17T07:58:40Z</time>
      </trkpt>
      <trkpt lat="39.85004" lon="-7.29446">
        <ele>187.583</ele>
        <time>2019-10-17T07:59:00Z</time>
      </trkpt>
      <trkpt lat="39.85167" lon="-7.30161">
        <ele>195.045</ele>
        <time>2019-10-17T07:59:20Z</time>
      </trkpt>
      <trkpt lat="39.85601" lon="-7.31164">
        <ele>186.285</ele>
        <time>2019-10-17T07:59:40Z</time>
      </trkpt>
      <trkpt lat="39.86174" lon="-7.317">
        <ele>193.992</ele>
        <time>2019-10-17T08:00:00Z</time>
      </trkpt>
      <trkpt lat="39.86381" lon="-7.3212">
        <ele>197.073</ele>
        <time>2019-10-17T08:00:20Z</time>
      </trkpt>
      <trkpt lat="39.86375" lon="-7.32252">
        <ele>200.12</ele>
        <time>2019-10-17T08:00:40Z</time>
      </trkpt>
      <trkpt lat="39.8635" lon="-7.32361">
        <ele>207.608</ele>
        <time>2019-10-17T08:01:00Z</time>
      </trkpt>
      <trkpt lat="39.8645" lon="-7.32688">
        <ele>188.843</ele>
        <time>2019-10-17T08:01:20Z</time>
      </trkpt>
      <trkpt lat="39.85953" lon="-7.33201">
        <ele>173.241</ele>
        <time>2019-10-17T08:01:40Z</time>
      </trkpt>
      <trkpt lat="39.85878" lon="-7.33201">
        <ele>177.963</ele>
        <time>2019-10-17T08:02:00Z</time>
      </trkpt>
      <trkpt lat="39.85821" lon="-7.33278">
        <ele>172.373</ele>
        <time>2019-10-17T08:02:20Z</time>
      </trkpt>
      <trkpt lat="39.85884" lon="-7.3341">
        <ele>162.765</ele>
        <time>2019-10-17T08:02:40Z</time>
      </trkpt>
      <trkpt lat="39.85758" lon="-7.33698">
        <ele>183.246</ele>
        <time>2019-10-17T08:03:00Z</time>
      </trkpt>
      <trkpt lat="39.8574" lon="-7.33791">
        <ele>184.788</ele>
        <time>2019-10-17T08:03:20Z</time>
      </trkpt>
      <trkpt lat="39.85765" lon="-7.3383">
        <ele>194.248</ele>
        <time>2019-10-17T08:03:40Z</time>
      </trkpt>
      <trkpt lat="39.85809" lon="-7.33924">
        <ele>195.673</ele>
        <time>2019-10-17T08:04:00Z</time>
      </trkpt>
      <trkpt lat="39.85727" lon="-7.34102">
        <ele>208.585</ele>
        <time>2019-10-17T08:04:20Z</time>
      </trkpt>
      <trkpt lat="39.85727" lon="-7.34196">
        <ele>212.013</ele>
        <time>2019-10-17T08:04:40Z</time>
      </trkpt>
      <trkpt lat="39.85947" lon="-7.34654">
        <ele>249.308</ele>
        <time>2019-10-17T08:05:00Z</time>
      </trkpt>
      <trkpt lat="39.8596" lon="-7.34934">
        <ele>270.851</ele>
        <time>2019-10-17T08:05:20Z</time>
      </trkpt>
      <trkpt lat="39.85991" lon="-7.35004">
        <ele>273.239</ele>
        <time>2019-10-17T08:05:40Z</time>
      </trkpt>
      <trkpt lat="39.86136" lon="-7.3516">
        <ele>282.321</ele>
        <time>2019-10-17T08:06:00Z</time>
      </trkpt>
      <trkpt lat="39.86117" lon="-7.35346">
        <ele>294.081</ele>
        <time>2019-10-17T08:06:20Z</time>
      </trkpt>
      <trkpt lat="39.86186" lon="-7.35533">
        <ele>306.493</ele>
        <time>2019-10-17T08:06:40Z</time>
      </trkpt>
      <trkpt lat="39.86243" lon="-7.35572">
        <ele>309.684</ele>
        <time>2019-10-17T08:07:00Z</time>
      </trkpt>
      <trkpt lat="39.86463" lon="-7.35517">
        <ele>320.276</ele>
        <time>2019-10-17T08:07:20Z</time>
      </trkpt>
      <trkpt lat="39.86626" lon="-7.35665">
        <ele>333.836</ele>
        <time>2019-10-17T08:07:40Z</time>
      </trkpt>
      <trkpt lat="39.86966" lon="-7.36388">
        <ele>345.029</ele>
        <time>2019-10-17T08:08:00Z</time>
      </trkpt>
      <trkpt lat="39.87098" lon="-7.36536">
        <ele>350.6</ele>
        <time>2019-10-17T08:08:20Z</time>
      </trkpt>
      <trkpt lat="39.87123" lon="-7.36792">
        <ele>353.72</ele>
        <time>2019-10-17T08:08:40Z</time>
      </trkpt>
      <trkpt lat="39.87577" lon="-7.37449">
        <ele>370.608</ele>
        <time>2019-10-17T08:09:00Z</time>
      </trkpt>
      <trkpt lat="39.87607" lon="-7.37399">
        <ele>371.066</ele>
        <time>2019-10-17T08:09:20Z</time>
      </trkpt>
      <trkpt lat="39.87634" lon="-7.37427">
        <ele>374.514</ele>
        <time>2019-10-17T08:09:40Z</time>
      </trkpt>
      <trkpt lat="39.87661" lon="-7.37464">
        <ele>375.176</ele>
        <time>2019-10-17T08:10:00Z</time>
      </trkpt>
      <trkpt lat="39.87692" lon="-7.37482">
        <ele>374.266</ele>
        <time>2019-10-17T08:10:20Z</time>
      </trkpt>
      <trkpt lat="39.87739" lon="-7.37422">
        <ele>372.028</ele>
        <time>2019-10-17T08:10:40Z</time>
      </trkpt>
      <trkpt lat="39.87836" lon="-7.37387">
        <ele>371.089</ele>
        <time>2019-10-17T08:11:00Z</time>
      </trkpt>
      <trkpt lat="39.87888" lon="-7.37334">
        <ele>369.031</ele>
        <time>2019-10-17T08:11:20Z</time>
      </trkpt>
      <trkpt lat="39.87913" lon="-7.3731">
        <ele>367.251</ele>
        <time>2019-10-17T08:11:40Z</time>
      </trkpt>
      <trkpt lat="39.87971" lon="-7.37304">
        <ele>369.823</ele>
        <time>2019-10-17T08:12:00Z</time>
      </trkpt>
      <trkpt lat="39.88126" lon="-7.37317">
        <ele>372.383</ele>
        <time>2019-10-17T08:12:20Z</time>
      </trkpt>
      <trkpt lat="39.88229" lon="-7.37361">
        <ele>374.811</ele>
        <time>2019-10-17T08:12:40Z</time>
      </trkpt>
      <trkpt lat="39.88436" lon="-7.36989">
        <ele>363.408</ele>
        <time>2019-10-17T08:13:00Z</time>
      </trkpt>
      <trkpt lat="39.88521" lon="-7.36912">
        <ele>359.316</ele>
        <time>2019-10-17T08:13:20Z</time>
      </trkpt>
      <trkpt lat="39.88817" lon="-7.36371">
        <ele>366.414</ele>
        <time>2019-10-17T08:13:40Z</time>
      </trkpt>
      <trkpt lat="39.88979" lon="-7.36265">
        <ele>369.066</ele>
        <time>2019-10-17T08:14:00Z</time>
      </trkpt>
      <trkpt lat="39.89113" lon="-7.36331">
        <ele>372.116</ele>
        <time>2019-10-17T08:14:20Z</time>
      </trkpt>
      <trkpt lat="39.89124" lon="-7.36365">
        <ele>372.358</ele>
        <time>2019-10-17T08:14:40Z</time>
      </trkpt>
      <trkpt lat="39.89504" lon="-7.36408">
        <ele>376.269</ele>
        <time>2019-10-17T08:15:00Z</time>
      </trkpt>
      <trkpt lat="39.8952" lon="-7.36623">
        <ele>375.491</ele>
        <time>2019-10-17T08:15:20Z</time>
      </trkpt>
      <trkpt lat="39.89598" lon="-7.36808">
        <ele>372.411</ele>
        <time>2019-10-17T08:15:40Z</time>
      </trkpt>
      <trkpt lat="39.89572" lon="-7.36997">
        <ele>373.314</ele>
        <time>2019-10-17T08:16:00Z</time>
      </trkpt>
      <trkpt lat="39.89554" lon="-7.37083">
        <ele>374.054</ele>
        <time>2019-10-17T08:16:20Z</time>
      </trkpt>
      <trkpt lat="39.89659" lon="-7.37139">
        <ele>381.009</ele>
        <time>2019-10-17T08:16:40Z</time>
      </trkpt>
      <trkpt lat="39.89705" lon="-7.3721">
        <ele>381.508</ele>
        <time>2019-10-17T08:17:00Z</time>
      </trkpt>
      <trkpt lat="39.8972" lon="-7.37299">
        <ele>382.855</ele>
        <time>2019-10-17T08:17:20Z</time>
      </trkpt>
      <trkpt lat="39.89748" lon="-7.37361">
        <ele>383.943</ele>
        <time>2019-10-17T08:17:40Z</time>
      </trkpt>
      <trkpt lat="39.89772" lon="-7.37361">
        <ele>384.835</ele>
        <time>2019-10-17T08:18:00Z</time>
      </trkpt>
      <trkpt lat="39.89827" lon="-7.37395">
        <ele>386.095</ele>
        <time>2019-10-17T08:18:20Z</time>
      </trkpt>
      <trkpt lat="39.89892" lon="-7.37324">
        <ele>388.517</ele>
        <time>2019-10-17T08:18:40Z</time>
      </trkpt>
      <trkpt lat="39.90038" lon="-7.37279">
        <ele>391.648</ele>
        <time>2019-10-17T08:19:00Z</time>
      </trkpt>
      <trkpt lat="39.90074" lon="-7.37286">
        <ele>390.75</ele>
        <time>2019-10-17T08:19:20Z</time>
      </trkpt>
      <trkpt lat="39.90097" lon="-7.37295">
        <ele>390.99</ele>
        <time>2019-10-17T08:19:40Z</time>
      </trkpt>
      <trkpt lat="39.90129" lon="-7.37321">
        <ele>388.668</ele>
        <time>2019-10-17T08:20:00Z</time>
      </trkpt>
      <trkpt lat="39.90176" lon="-7.37315">
        <ele>387.242</ele>
        <time>2019-10-17T08:20:20Z</time>
      </trkpt>
      <trkpt lat="39.90244" lon="-7.37319">
        <ele>386.526</ele>
        <time>2019-10-17T08:20:40Z</time>
      </trkpt>
      <trkpt lat="39.90298" lon="-7.37341">
        <ele>388.708</ele>
        <time>2019-10-17T08:21:00Z</time>
      </trkpt>
      <trkpt lat="39.90327" lon="-7.37386">
        <ele>388.93</ele>
        <time>2019-10-17T08:21:20Z</time>
      </trkpt>
      <trkpt lat="39.90388" lon="-7.37435">
        <ele>389.088</ele>
        <time>2019-10-17T08:21:40Z</time>
      </trkpt>
      <trkpt lat="39.90429" lon="-7.37446">
        <ele>390.01</ele>
        <time>2019-10-17T08:22:00Z</time>
      </trkpt>
      <trkpt lat="39.90525" lon="-7.37401">
        <ele>388.63</ele>
        <time>2019-10-17T08:22:20Z</time>
      </trkpt>
      <trkpt lat="39.90678" lon="-7.37387">
        <ele>387.562</ele>
        <time>2019-10-17T08:22:40Z</time>
      </trkpt>
      <trkpt lat="39.91006" lon="-7.37559">
        <ele>377.483</ele>
        <time>2019-10-17T08:23:00Z</time>
      </trkpt>
      <trkpt lat="39.91168" lon="-7.37592">
        <ele>385.735</ele>
        <time>2019-10-17T08:23:20Z</time>
      </trkpt>
      <trkpt lat="39.9124" lon="-7.37654">
        <ele>390.425</ele>
        <time>2019-10-17T08:23:40Z</time>
      </trkpt>
      <trkpt lat="39.91276" lon="-7.37648">
        <ele>389.782</ele>
        <time>2019-10-17T08:24:00Z</time>
      </trkpt>
      <trkpt lat="39.91289" lon="-7.37687">
        <ele>392.243</ele>
        <time>2019-10-17T08:24:20Z</time>
      </trkpt>
      <trkpt lat="39.91289" lon="-7.37792">
        <ele>391.717</ele>
        <time>2019-10-17T08:24:40Z</time>
      </trkpt>
      <trkpt lat="39.91392" lon="-7.37892">
        <ele>385.008</ele>
        <time>2019-10-17T08:25:00Z</time>
      </trkpt>
      <trkpt lat="39.91469" lon="-7.38042">
        <ele>380.662</ele>
        <time>2019-10-17T08:25:20Z</time>
      </trkpt>
      <trkpt lat="39.9153" lon="-7.38075">
        <ele>381.09</ele>
        <time>2019-10-17T08:25:40Z</time>
      </trkpt>
      <trkpt lat="39.91616" lon="-7.38075">
        <ele>380.312</ele>
        <time>2019-10-17T08:26:00Z</time>
      </trkpt>
      <trkpt lat="39.91671" lon="-7.38114">
        <ele>381.492</ele>
        <time>2019-10-17T08:26:20Z</time>
      </trkpt>
      <trkpt lat="39.91739" lon="-7.38193">
        <ele>386.824</ele>
        <time>2019-10-17T08:26:40Z</time>
      </trkpt>
      <trkpt lat="39.91773" lon="-7.38196">
        <ele>384.465</ele>
        <time>2019-10-17T08:27:00Z</time>
      </trkpt>
      <trkpt lat="39.91868" lon="-7.38264">
        <ele>384.667</ele>
        <time>2019-10-17T08:27:20Z</time>
      </trkpt>
      <trkpt lat="39.91885" lon="-7.38306">
        <ele>385.087</ele>
        <time>2019-10-17T08:27:40Z</time>
      </trkpt>
      <trkpt lat="39.91874" lon="-7.38481">
        <ele>387.341</ele>
        <time>2019-10-17T08:28:00Z</time>
      </trkpt>
      <trkpt lat="39.91856" lon="-7.386">
        <ele>384.581</ele>
        <time>2019-10-17T08:28:20Z</time>
      </trkpt>
      <trkpt lat="39.91846" lon="-7.38641">
        <ele>387.509</ele>
        <time>2019-10-17T08:28:40Z</time>
      </trkpt>
      <trkpt lat="39.9185" lon="-7.38681">
        <ele>388.408</ele>
        <time>2019-10-17T08:29:00Z</time>
      </trkpt>
      <trkpt lat="39.91863" lon="-7.38731">
        <ele>385.748</ele>
        <time>2019-10-17T08:29:20Z</time>
      </trkpt>
      <trkpt lat="39.91844" lon="-7.38745">
        <ele>385.266</ele>
        <time>2019-10-17T08:29:40Z</time>
      </trkpt>
      <trkpt lat="39.91824" lon="-7.38801">
        <ele>384.858</ele>
        <time>2019-10-17T08:30:00Z</time>
      </trkpt>
      <trkpt lat="39.91792" lon="-7.38854">
        <ele>384.038</ele>
        <time>2019-10-17T08:30:20Z</time>
      </trkpt>
      <trkpt lat="39.91784" lon="-7.38951">
        <ele>380.23</ele>
        <time>2019-10-17T08:30:40Z</time>
      </trkpt>
      <trkpt lat="39.91774" lon="-7.39046">
        <ele>382.331</ele>
        <time>2019-10-17T08:31:00Z</time>
      </trkpt>
      <trkpt lat="39.91739" lon="-7.39089">
        <ele>379.033</ele>
        <time>2019-10-17T08:31:20Z</time>
      </trkpt>
      <trkpt lat="39.91724" lon="-7.39143">
        <ele>377.373</ele>
        <time>2019-10-17T08:31:40Z</time>
      </trkpt>
      <trkpt lat="39.91669" lon="-7.39174">
        <ele>376.691</ele>
        <time>2019-10-17T08:32:00Z</time>
      </trkpt>
      <trkpt lat="39.91622" lon="-7.39256">
        <ele>371.281</ele>
        <time>2019-10-17T08:32:20Z</time>
      </trkpt>
      <trkpt lat="39.9158" lon="-7.39331">
        <ele>367.019</ele>
        <time>2019-10-17T08:32:40Z</time>
      </trkpt>
      <trkpt lat="39.9153" lon="-7.39374">
        <ele>366.008</ele>
        <time>2019-10-17T08:33:00Z</time>
      </trkpt>
      <trkpt lat="39.91517" lon="-7.39404">
        <ele>366.893</ele>
        <time>2019-10-17T08:33:20Z</time>
      </trkpt>
      <trkpt lat="39.91533" lon="-7.39472">
        <ele>366.891</ele>
        <time>2019-10-17T08:33:40Z</time>
      </trkpt>
      <trkpt lat="39.91599" lon="-7.39556">
        <ele>362.363</ele>
        <time>2019-10-17T08:34:00Z</time>
      </trkpt>
      <trkpt lat="39.9162" lon="-7.39594">
        <ele>358.273</ele>
        <time>2019-10-17T08:34:20Z</time>
      </trkpt>
      <trkpt lat="39.9163" lon="-7.39622">
        <ele>355.055</ele>
        <time>2019-10-17T08:34:40Z</time>
      </trkpt>
      <trkpt lat="39.91589" lon="-7.39727">
        <ele>352.656</ele>
        <time>2019-10-17T08:35:00Z</time>
      </trkpt>
      <trkpt lat="39.91553" lon="-7.39807">
        <ele>348.958</ele>
        <time>2019-10-17T08:35:20Z</time>
      </trkpt>
      <trkpt lat="39.91548" lon="-7.39884">
        <ele>346.538</ele>
        <time>2019-10-17T08:35:40Z</time>
      </trkpt>
      <trkpt lat="39.91546" lon="-7.39937">
        <ele>345.422</ele>
        <time>2019-10-17T08:36:00Z</time>
      </trkpt>
      <trkpt lat="39.91568" lon="-7.39972">
        <ele>342.662</ele>
        <time>2019-10-17T08:36:20Z</time>
      </trkpt>
      <trkpt lat="39.91627" lon="-7.40022">
        <ele>336.908</ele>
        <time>2019-10-17T08:36:40Z</time>
      </trkpt>
      <trkpt lat="39.9165" lon="-7.40112">
        <ele>331.008</ele>
        <time>2019-10-17T08:37:00Z</time>
      </trkpt>
      <trkpt lat="39.91633" lon="-7.40179">
        <ele>332.026</ele>
        <time>2019-10-17T08:37:20Z</time>
      </trkpt>
      <trkpt lat="39.91639" lon="-7.40183">
        <ele>332.074</ele>
        <time>2019-10-17T08:37:40Z</time>
      </trkpt>
      <trkpt lat="39.91655" lon="-7.40186">
        <ele>332.076</ele>
        <time>2019-10-17T08:38:00Z</time>
      </trkpt>
      <trkpt lat="39.91671" lon="-7.40188">
        <ele>332.076</ele>
        <time>2019-10-17T08:38:20Z</time>
      </trkpt>
      <trkpt lat="39.91795" lon="-7.40186">
        <ele>334.368</ele>
        <time>2019-10-17T08:38:40Z</time>
      </trkpt>
      <trkpt lat="39.91866" lon="-7.40185">
        <ele>337.319</ele>
        <time>2019-10-17T08:39:00Z</time>
      </trkpt>
      <trkpt lat="39.91911" lon="-7.40187">
        <ele>336.791</ele>
        <time>2019-10-17T08:39:20Z</time>
      </trkpt>
      <trkpt lat="39.91925" lon="-7.40192">
        <ele>336.961</ele>
        <time>2019-10-17T08:39:40Z</time>
      </trkpt>
      <trkpt lat="39.91938" lon="-7.40201">
        <ele>337.573</ele>
        <time>2019-10-17T08:40:00Z</time>
      </trkpt>
      <trkpt lat="39.91951" lon="-7.40212">
        <ele>338.185</ele>
        <time>2019-10-17T08:40:20Z</time>
      </trkpt>
      <trkpt lat="39.91964" lon="-7.40225">
        <ele>338.313</ele>
        <time>2019-10-17T08:40:40Z</time>
      </trkpt>
      <trkpt lat="39.92105" lon="-7.40357">
        <ele>339.408</ele>
        <time>2019-10-17T08:41:00Z</time>
      </trkpt>
      <trkpt lat="39.92121" lon="-7.40366">
        <ele>340.521</ele>
        <time>2019-10-17T08:41:20Z</time>
      </trkpt>
      <trkpt lat="39.92138" lon="-7.40373">
        <ele>341.439</ele>
        <time>2019-10-17T08:41:40Z</time>
      </trkpt>
      <trkpt lat="39.92207" lon="-7.40397">
        <ele>342.851</ele>
        <time>2019-10-17T08:42:00Z</time>
      </trkpt>
      <trkpt lat="39.92273" lon="-7.40431">
        <ele>345.051</ele>
        <time>2019-10-17T08:42:20Z</time>
      </trkpt>
      <trkpt lat="39.92341" lon="-7.40465">
        <ele>347.663</ele>
        <time>2019-10-17T08:42:40Z</time>
      </trkpt>
      <trkpt lat="39.92378" lon="-7.40477">
        <ele>348.894</ele>
        <time>2019-10-17T08:43:00Z</time>
      </trkpt>
      <trkpt lat="39.92432" lon="-7.40493">
        <ele>350.336</ele>
        <time>2019-10-17T08:43:20Z</time>
      </trkpt>
      <trkpt lat="39.92526" lon="-7.40521">
        <ele>355.676</ele>
        <time>2019-10-17T08:43:40Z</time>
      </trkpt>
      <trkpt lat="39.92537" lon="-7.40529">
        <ele>356.078</ele>
        <time>2019-10-17T08:44:00Z</time>
      </trkpt>
      <trkpt lat="39.92545" lon="-7.4054">
        <ele>356.033</ele>
        <time>2019-10-17T08:44:20Z</time>
      </trkpt>
      <trkpt lat="39.92552" lon="-7.40553">
        <ele>356.026</ele>
        <time>2019-10-17T08:44:40Z</time>
      </trkpt>
      <trkpt lat="39.92556" lon="-7.40569">
        <ele>356.008</ele>
        <time>2019-10-17T08:45:00Z</time>
      </trkpt>
      <trkpt lat="39.9256" lon="-7.40586">
        <ele>355.921</ele>
        <time>2019-10-17T08:45:20Z</time>
      </trkpt>
      <trkpt lat="39.92563" lon="-7.40602">
        <ele>356.439</ele>
        <time>2019-10-17T08:45:40Z</time>
      </trkpt>
      <trkpt lat="39.92563" lon="-7.40618">
        <ele>356.771</ele>
        <time>2019-10-17T08:46:00Z</time>
      </trkpt>
      <trkpt lat="39.92564" lon="-7.40646">
        <ele>356.791</ele>
        <time>2019-10-17T08:46:20Z</time>
      </trkpt>
      <trkpt lat="39.92568" lon="-7.40656">
        <ele>356.643</ele>
        <time>2019-10-17T08:46:40Z</time>
      </trkpt>
      <trkpt lat="39.92573" lon="-7.40663">
        <ele>356.494</ele>
        <time>2019-10-17T08:47:00Z</time>
      </trkpt>
      <trkpt lat="39.9258" lon="-7.40667">
        <ele>356.146</ele>
        <time>2019-10-17T08:47:20Z</time>
      </trkpt>
      <trkpt lat="39.92587" lon="-7.40668">
        <ele>355.866</ele>
        <time>2019-10-17T08:47:40Z</time>
      </trkpt>
      <trkpt lat="39.92594" lon="-7.40665">
        <ele>355.342</ele>
        <time>2019-10-17T08:48:00Z</time>
      </trkpt>
      <trkpt lat="39.92602" lon="-7.40659">
        <ele>354.922</ele>
        <time>2019-10-17T08:48:20Z</time>
      </trkpt>
      <trkpt lat="39.9261" lon="-7.40651">
        <ele>354.614</ele>
        <time>2019-10-17T08:48:40Z</time>
      </trkpt>
      <trkpt lat="39.92694" lon="-7.40575">
        <ele>350.708</ele>
        <time>2019-10-17T08:49:00Z</time>
      </trkpt>
      <trkpt lat="39.9282" lon="-7.40448">
        <ele>354.058</ele>
        <time>2019-10-17T08:49:20Z</time>
      </trkpt>
      <trkpt lat="39.9289" lon="-7.4037">
        <ele>355.346</ele>
        <time>2019-10-17T08:49:40Z</time>
      </trkpt>
      <trkpt lat="39.9295" lon="-7.40305">
        <ele>353.418</ele>
        <time>2019-10-17T08:50:00Z</time>
      </trkpt>
      <trkpt lat="39.92966" lon="-7.40296">
        <ele>354.038</ele>
        <time>2019-10-17T08:50:20Z</time>
      </trkpt>
      <trkpt lat="39.93014" lon="-7.40267">
        <ele>354.26</ele>
        <time>2019-10-17T08:50:40Z</time>
      </trkpt>
      <trkpt lat="39.93055" lon="-7.40237">
        <ele>351.511</ele>
        <time>2019-10-17T08:51:00Z</time>
      </trkpt>
      <trkpt lat="39.93059" lon="-7.40257">
        <ele>352.333</ele>
        <time>2019-10-17T08:51:20Z</time>
      </trkpt>
      <trkpt lat="39.93061" lon="-7.40263">
        <ele>352.623</ele>
        <time>2019-10-17T08:51:40Z</time>
      </trkpt>
      <trkpt lat="39.93064" lon="-7.4027">
        <ele>352.928</ele>
        <time>2019-10-17T08:52:00Z</time>
      </trkpt>
      <trkpt lat="39.93087" lon="-7.40333">
        <ele>355.989</ele>
        <time>2019-10-17T08:52:20Z</time>
      </trkpt>
      <trkpt lat="39.93094" lon="-7.40357">
        <ele>356.117</ele>
        <time>2019-10-17T08:52:40Z</time>
      </trkpt>
      <trkpt lat="39.93093" lon="-7.4036">
        <ele>356.308</ele>
        <time>2019-10-17T08:53:00Z</time>
      </trkpt>
      <trkpt lat="39.93091" lon="-7.40365">
        <ele>356.646</ele>
        <time>2019-10-17T08:53:20Z</time>
      </trkpt>
      <trkpt lat="39.93086" lon="-7.40369">
        <ele>357.124</ele>
        <time>2019-10-17T08:53:40Z</time>
      </trkpt>
      <trkpt lat="39.93081" lon="-7.40373">
        <ele>357.416</ele>
        <time>2019-10-17T08:54:00Z</time>
      </trkpt>
      <trkpt lat="39.93075" lon="-7.40376">
        <ele>357.516</ele>
        <time>2019-10-17T08:54:20Z</time>
      </trkpt>
      <trkpt lat="39.93072" lon="-7.40379">
        <ele>357.618</ele>
        <time>2019-10-17T08:54:40Z</time>
      </trkpt>
      <trkpt lat="39.93071" lon="-7.40383">
        <ele>357.849</ele>
        <time>2019-10-17T08:55:00Z</time>
      </trkpt>
      <trkpt lat="39.93071" lon="-7.40389">
        <ele>358.061</ele>
        <time>2019-10-17T08:55:20Z</time>
      </trkpt>
      <trkpt lat="39.93073" lon="-7.40396">
        <ele>358.411</ele>
        <time>2019-10-17T08:55:40Z</time>
      </trkpt>
      <trkpt lat="39.93076" lon="-7.40405">
        <ele>358.727</ele>
        <time>2019-10-17T08:56:00Z</time>
      </trkpt>
      <trkpt lat="39.93078" lon="-7.40415">
        <ele>359.168</ele>
        <time>2019-10-17T08:56:20Z</time>
      </trkpt>
      <trkpt lat="39.93079" lon="-7.40426">
        <ele>359.514</ele>
        <time>2019-10-17T08:56:40Z</time>
      </trkpt>
      <trkpt lat="39.93079" lon="-7.40439">
        <ele>359.908</ele>
        <time>2019-10-17T08:57:00Z</time>
      </trkpt>
      <trkpt lat="39.93077" lon="-7.40451">
        <ele>360.716</ele>
        <time>2019-10-17T08:57:20Z</time>
      </trkpt>
      <trkpt lat="39.93075" lon="-7.40463">
        <ele>361.814</ele>
        <time>2019-10-17T08:57:40Z</time>
      </trkpt>
      <trkpt lat="39.93074" lon="-7.40474">
        <ele>362.736</ele>
        <time>2019-10-17T08:58:00Z</time>
      </trkpt>
      <trkpt lat="39.93075" lon="-7.40484">
        <ele>363.436</ele>
        <time>2019-10-17T08:58:20Z</time>
      </trkpt>
      <trkpt lat="39.93076" lon="-7.40505">
        <ele>364.368</ele>
        <time>2019-10-17T08:58:40Z</time>
      </trkpt>
      <trkpt lat="39.93077" lon="-7.40513">
        <ele>364.459</ele>
        <time>2019-10-17T08:59:00Z</time>
      </trkpt>
      <trkpt lat="39.93078" lon="-7.40521">
        <ele>364.361</ele>
        <time>2019-10-17T08:59:20Z</time>
      </trkpt>
      <trkpt lat="39.9308" lon="-7.40527">
        <ele>364.281</ele>
        <time>2019-10-17T08:59:40Z</time>
      </trkpt>
      <trkpt lat="39.93085" lon="-7.40533">
        <ele>364.235</ele>
        <time>2019-10-17T09:00:00Z</time>
      </trkpt>
      <trkpt lat="39.93093" lon="-7.40539">
        <ele>364.186</ele>
        <time>2019-10-17T09:00:20Z</time>
      </trkpt>
      <trkpt lat="39.931" lon="-7.40545">
        <ele>364.114</ele>
        <time>2019-10-17T09:00:40Z</time>
      </trkpt>
      <trkpt lat="39.93106" lon="-7.40555">
        <ele>364.308</ele>
        <time>2019-10-17T09:01:00Z</time>
      </trkpt>
      <trkpt lat="39.93112" lon="-7.40566">
        <ele>364.047</ele>
        <time>2019-10-17T09:01:20Z</time>
      </trkpt>
      <trkpt lat="39.93117" lon="-7.40578">
        <ele>363.565</ele>
        <time>2019-10-17T09:01:40Z</time>
      </trkpt>
      <trkpt lat="39.93154" lon="-7.40695">
        <ele>363.097</ele>
        <time>2019-10-17T09:02:00Z</time>
      </trkpt>
      <trkpt lat="39.93164" lon="-7.40733">
        <ele>362.787</ele>
        <time>2019-10-17T09:02:20Z</time>
      </trkpt>
      <trkpt lat="39.93168" lon="-7.40745">
        <ele>363.019</ele>
        <time>2019-10-17T09:02:40Z</time>
      </trkpt>
      <trkpt lat="39.93174" lon="-7.40757">
        <ele>362.82</ele>
        <time>2019-10-17T09:03:00Z</time>
      </trkpt>
      <trkpt lat="39.93181" lon="-7.40768">
        <ele>362.752</ele>
        <time>2019-10-17T09:03:20Z</time>
      </trkpt>
      <trkpt lat="39.9319" lon="-7.40779">
        <ele>362.862</ele>
        <time>2019-10-17T09:03:40Z</time>
      </trkpt>
      <trkpt lat="39.932" lon="-7.40789">
        <ele>362.916</ele>
        <time>2019-10-17T09:04:00Z</time>
      </trkpt>
      <trkpt lat="39.9321" lon="-7.40798">
        <ele>362.676</ele>
        <time>2019-10-17T09:04:20Z</time>
      </trkpt>
      <trkpt lat="39.93233" lon="-7.40816">
        <ele>360.713</ele>
        <time>2019-10-17T09:04:40Z</time>
      </trkpt>
      <trkpt lat="39.93262" lon="-7.40844">
        <ele>358.108</ele>
        <time>2019-10-17T09:05:00Z</time>
      </trkpt>
      <trkpt lat="39.93271" lon="-7.40856">
        <ele>358.735</ele>
        <time>2019-10-17T09:05:20Z</time>
      </trkpt>
      <trkpt lat="39.93318" lon="-7.40941">
        <ele>360.553</ele>
        <time>2019-10-17T09:05:40Z</time>
      </trkpt>
      <trkpt lat="39.93322" lon="-7.40952">
        <ele>360.375</ele>
        <time>2019-10-17T09:06:00Z</time>
      </trkpt>
      <trkpt lat="39.93326" lon="-7.40963">
        <ele>360.185</ele>
        <time>2019-10-17T09:06:20Z</time>
      </trkpt>
      <trkpt lat="39.93329" lon="-7.40974">
        <ele>360.017</ele>
        <time>2019-10-17T09:06:40Z</time>
      </trkpt>
      <trkpt lat="39.93331" lon="-7.40984">
        <ele>360.028</ele>
        <time>2019-10-17T09:07:00Z</time>
      </trkpt>
      <trkpt lat="39.9334" lon="-7.41017">
        <ele>360.27</ele>
        <time>2019-10-17T09:07:20Z</time>
      </trkpt>
      <trkpt lat="39.93344" lon="-7.41018">
        <ele>360.04</ele>
        <time>2019-10-17T09:07:40Z</time>
      </trkpt>
      <trkpt lat="39.93349" lon="-7.41018">
        <ele>359.785</ele>
        <time>2019-10-17T09:08:00Z</time>
      </trkpt>
      <trkpt lat="39.93355" lon="-7.41015">
        <ele>359.489</ele>
        <time>2019-10-17T09:08:20Z</time>
      </trkpt>
      <trkpt lat="39.93362" lon="-7.41009">
        <ele>358.917</ele>
        <time>2019-10-17T09:08:40Z</time>
      </trkpt>
      <trkpt lat="39.93371" lon="-7.41003">
        <ele>358.308</ele>
        <time>2019-10-17T09:09:00Z</time>
      </trkpt>
      <trkpt lat="39.93427" lon="-7.40963">
        <ele>357.772</ele>
        <time>2019-10-17T09:09:20Z</time>
      </trkpt>
      <trkpt lat="39.93432" lon="-7.40962">
        <ele>358.13</ele>
        <time>2019-10-17T09:09:40Z</time>
      </trkpt>
      <trkpt lat="39.93437" lon="-7.40964">
        <ele>358.542</ele>
        <time>2019-10-17T09:10:00Z</time>
      </trkpt>
      <trkpt lat="39.93442" lon="-7.40969">
        <ele>358.842</ele>
        <time>2019-10-17T09:10:20Z</time>
      </trkpt>
      <trkpt lat="39.93448" lon="-7.40976">
        <ele>359.444</ele>
        <time>2019-10-17T09:10:40Z</time>
      </trkpt>
      <trkpt lat="39.93494" lon="-7.41029">
        <ele>363.375</ele>
        <time>2019-10-17T09:11:00Z</time>
      </trkpt>
      <trkpt lat="39.93502" lon="-7.41038">
        <ele>363.787</ele>
        <time>2019-10-17T09:11:20Z</time>
      </trkpt>
      <trkpt lat="39.93509" lon="-7.41048">
        <ele>363.967</ele>
        <time>2019-10-17T09:11:40Z</time>
      </trkpt>
      <trkpt lat="39.93531" lon="-7.41081">
        <ele>364.331</ele>
        <time>2019-10-17T09:12:00Z</time>
      </trkpt>
      <trkpt lat="39.9354" lon="-7.41091">
        <ele>364.661</ele>
        <time>2019-10-17T09:12:20Z</time>
      </trkpt>
      <trkpt lat="39.93569" lon="-7.41121">
        <ele>365.507</ele>
        <time>2019-10-17T09:12:40Z</time>
      </trkpt>
      <trkpt lat="39.93578" lon="-7.41133">
        <ele>365.808</ele>
        <time>2019-10-17T09:13:00Z</time>
      </trkpt>
      <trkpt lat="39.9364" lon="-7.41206">
        <ele>369.347</ele>
        <time>2019-10-17T09:13:20Z</time>
      </trkpt>
      <trkpt lat="39.93647" lon="-7.41214">
        <ele>370.325</ele>
        <time>2019-10-17T09:13:40Z</time>
      </trkpt>
      <trkpt lat="39.93652" lon="-7.41223">
        <ele>371.017</ele>
        <time>2019-10-17T09:14:00Z</time>
      </trkpt>
      <trkpt lat="39.93656" lon="-7.41233">
        <ele>371.467</ele>
        <time>2019-10-17T09:14:20Z</time>
      </trkpt>
      <trkpt lat="39.93657" lon="-7.41241">
        <ele>371.769</ele>
        <time>2019-10-17T09:14:40Z</time>
      </trkpt>
      <trkpt lat="39.93663" lon="-7.41249">
        <ele>371.96</ele>
        <time>2019-10-17T09:15:00Z</time>
      </trkpt>
      <trkpt lat="39.93686" lon="-7.41238">
        <ele>371.922</ele>
        <time>2019-10-17T09:15:20Z</time>
      </trkpt>
      <trkpt lat="39.93727" lon="-7.41224">
        <ele>372.242</ele>
        <time>2019-10-17T09:15:40Z</time>
      </trkpt>
      <trkpt lat="39.9379" lon="-7.41207">
        <ele>375.179</ele>
        <time>2019-10-17T09:16:00Z</time>
      </trkpt>
      <trkpt lat="39.93863" lon="-7.41229">
        <ele>376.905</ele>
        <time>2019-10-17T09:16:20Z</time>
      </trkpt>
      <trkpt lat="39.93955" lon="-7.41278">
        <ele>374.025</ele>
        <time>2019-10-17T09:16:40Z</time>
      </trkpt>
      <trkpt lat="39.94032" lon="-7.41283">
        <ele>371.508</ele>
        <time>2019-10-17T09:17:00Z</time>
      </trkpt>
      <trkpt lat="39.94102" lon="-7.41359">
        <ele>378.341</ele>
        <time>2019-10-17T09:17:20Z</time>
      </trkpt>
      <trkpt lat="39.94194" lon="-7.41402">
        <ele>383.429</ele>
        <time>2019-10-17T09:17:40Z</time>
      </trkpt>
      <trkpt lat="39.94367" lon="-7.41424">
        <ele>385.981</ele>
        <time>2019-10-17T09:18:00Z</time>
      </trkpt>
      <trkpt lat="39.94439" lon="-7.41366">
        <ele>387.661</ele>
        <time>2019-10-17T09:18:20Z</time>
      </trkpt>
      <trkpt lat="39.94565" lon="-7.41359">
        <ele>392.493</ele>
        <time>2019-10-17T09:18:40Z</time>
      </trkpt>
      <trkpt lat="39.94606" lon="-7.41425">
        <ele>393.334</ele>
        <time>2019-10-17T09:19:00Z</time>
      </trkpt>
      <trkpt lat="39.94658" lon="-7.41472">
        <ele>396.726</ele>
        <time>2019-10-17T09:19:20Z</time>
      </trkpt>
      <trkpt lat="39.94694" lon="-7.41521">
        <ele>398.046</ele>
        <time>2019-10-17T09:19:40Z</time>
      </trkpt>
      <trkpt lat="39.94738" lon="-7.416">
        <ele>400.326</ele>
        <time>2019-10-17T09:20:00Z</time>
      </trkpt>
      <trkpt lat="39.9482" lon="-7.4164">
        <ele>402.647</ele>
        <time>2019-10-17T09:20:20Z</time>
      </trkpt>
      <trkpt lat="39.94993" lon="-7.41679">
        <ele>409.011</ele>
        <time>2019-10-17T09:20:40Z</time>
      </trkpt>
      <trkpt lat="39.95067" lon="-7.41714">
        <ele>406.708</ele>
        <time>2019-10-17T09:21:00Z</time>
      </trkpt>
      <trkpt lat="39.95178" lon="-7.41794">
        <ele>408.016</ele>
        <time>2019-10-17T09:21:20Z</time>
      </trkpt>
      <trkpt lat="39.95288" lon="-7.41951">
        <ele>411.454</ele>
        <time>2019-10-17T09:21:40Z</time>
      </trkpt>
      <trkpt lat="39.95721" lon="-7.42527">
        <ele>397.066</ele>
        <time>2019-10-17T09:22:00Z</time>
      </trkpt>
      <trkpt lat="39.97724" lon="-7.43268">
        <ele>406.096</ele>
        <time>2019-10-17T09:22:20Z</time>
      </trkpt>
      <trkpt lat="39.97823" lon="-7.43312">
        <ele>408.888</ele>
        <time>2019-10-17T09:22:40Z</time>
      </trkpt>
      <trkpt lat="39.97907" lon="-7.43344">
        <ele>408.239</ele>
        <time>2019-10-17T09:23:00Z</time>
      </trkpt>
      <trkpt lat="39.97965" lon="-7.43365">
        <ele>410.011</ele>
        <time>2019-10-17T09:23:20Z</time>
      </trkpt>
      <trkpt lat="39.97997" lon="-7.43382">
        <ele>409.141</ele>
        <time>2019-10-17T09:23:40Z</time>
      </trkpt>
      <trkpt lat="39.98016" lon="-7.43387">
        <ele>409.097</ele>
        <time>2019-10-17T09:24:00Z</time>
      </trkpt>
      <trkpt lat="39.98019" lon="-7.43383">
        <ele>409.023</ele>
        <time>2019-10-17T09:24:20Z</time>
      </trkpt>
      <trkpt lat="39.98024" lon="-7.43377">
        <ele>409.025</ele>
        <time>2019-10-17T09:24:40Z</time>
      </trkpt>
      <trkpt lat="39.9803" lon="-7.43369">
        <ele>409.008</ele>
        <time>2019-10-17T09:25:00Z</time>
      </trkpt>
      <trkpt lat="39.98036" lon="-7.43359">
        <ele>409.033</ele>
        <time>2019-10-17T09:25:20Z</time>
      </trkpt>
      <trkpt lat="39.98042" lon="-7.43349">
        <ele>409.051</ele>
        <time>2019-10-17T09:25:40Z</time>
      </trkpt>
      <trkpt lat="39.98048" lon="-7.43341">
        <ele>409.083</ele>
        <time>2019-10-17T09:26:00Z</time>
      </trkpt>
      <trkpt lat="39.98055" lon="-7.43336">
        <ele>409.073</ele>
        <time>2019-10-17T09:26:20Z</time>
      </trkpt>
      <trkpt lat="39.98064" lon="-7.43333">
        <ele>409.085</ele>
        <time>2019-10-17T09:26:40Z</time>
      </trkpt>
      <trkpt lat="39.98074" lon="-7.4333">
        <ele>409.036</ele>
        <time>2019-10-17T09:27:00Z</time>
      </trkpt>
      <trkpt lat="39.98084" lon="-7.43326">
        <ele>409.078</ele>
        <time>2019-10-17T09:27:20Z</time>
      </trkpt>
      <trkpt lat="39.98092" lon="-7.4332">
        <ele>408.548</ele>
        <time>2019-10-17T09:27:40Z</time>
      </trkpt>
      <trkpt lat="39.981" lon="-7.4331">
        <ele>408.325</ele>
        <time>2019-10-17T09:28:00Z</time>
      </trkpt>
      <trkpt lat="39.98127" lon="-7.43274">
        <ele>407.626</ele>
        <time>2019-10-17T09:28:20Z</time>
      </trkpt>
      <trkpt lat="39.9824" lon="-7.43165">
        <ele>404.308</ele>
        <time>2019-10-17T09:28:40Z</time>
      </trkpt>
      <trkpt lat="39.98298" lon="-7.43106">
        <ele>401.708</ele>
        <time>2019-10-17T09:29:00Z</time>
      </trkpt>
      <trkpt lat="39.98329" lon="-7.43078">
        <ele>402.076</ele>
        <time>2019-10-17T09:29:20Z</time>
      </trkpt>
      <trkpt lat="39.98339" lon="-7.43071">
        <ele>402.064</ele>
        <time>2019-10-17T09:29:40Z</time>
      </trkpt>
      <trkpt lat="39.9835" lon="-7.43067">
        <ele>402.036</ele>
        <time>2019-10-17T09:30:00Z</time>
      </trkpt>
      <trkpt lat="39.98361" lon="-7.43064">
        <ele>402.046</ele>
        <time>2019-10-17T09:30:20Z</time>
      </trkpt>
      <trkpt lat="39.98372" lon="-7.43062">
        <ele>402.058</ele>
        <time>2019-10-17T09:30:40Z</time>
      </trkpt>
      <trkpt lat="39.98384" lon="-7.43062">
        <ele>402.049</ele>
        <time>2019-10-17T09:31:00Z</time>
      </trkpt>
      <trkpt lat="39.98397" lon="-7.43064">
        <ele>401.811</ele>
        <time>2019-10-17T09:31:20Z</time>
      </trkpt>
      <trkpt lat="39.98409" lon="-7.43067">
        <ele>401.621</ele>
        <time>2019-10-17T09:31:40Z</time>
      </trkpt>
      <trkpt lat="39.98419" lon="-7.43071">
        <ele>401.593</ele>
        <time>2019-10-17T09:32:00Z</time>
      </trkpt>
      <trkpt lat="39.98437" lon="-7.43074">
        <ele>401.765</ele>
        <time>2019-10-17T09:32:20Z</time>
      </trkpt>
      <trkpt lat="39.98444" lon="-7.43073">
        <ele>401.621</ele>
        <time>2019-10-17T09:32:40Z</time>
      </trkpt>
      <trkpt lat="39.98459" lon="-7.43071">
        <ele>401.508</ele>
        <time>2019-10-17T09:33:00Z</time>
      </trkpt>
      <trkpt lat="39.98468" lon="-7.43071">
        <ele>401.523</ele>
        <time>2019-10-17T09:33:20Z</time>
      </trkpt>
      <trkpt lat="39.98478" lon="-7.43071">
        <ele>401.221</ele>
        <time>2019-10-17T09:33:40Z</time>
      </trkpt>
      <trkpt lat="39.98489" lon="-7.43069">
        <ele>400.933</ele>
        <time>2019-10-17T09:34:00Z</time>
      </trkpt>
      <trkpt lat="39.98502" lon="-7.43066">
        <ele>400.633</ele>
        <time>2019-10-17T09:34:20Z</time>
      </trkpt>
      <trkpt lat="39.98623" lon="-7.4303">
        <ele>397.185</ele>
        <time>2019-10-17T09:34:40Z</time>
      </trkpt>
      <trkpt lat="39.98634" lon="-7.43023">
        <ele>396.566</ele>
        <time>2019-10-17T09:35:00Z</time>
      </trkpt>
      <trkpt lat="39.98644" lon="-7.43015">
        <ele>396.198</ele>
        <time>2019-10-17T09:35:20Z</time>
      </trkpt>
      <trkpt lat="39.98678" lon="-7.4298">
        <ele>394.628</ele>
        <time>2019-10-17T09:35:40Z</time>
      </trkpt>
      <trkpt lat="39.98684" lon="-7.4297">
        <ele>394.566</ele>
        <time>2019-10-17T09:36:00Z</time>
      </trkpt>
      <trkpt lat="39.98688" lon="-7.42957">
        <ele>394.829</ele>
        <time>2019-10-17T09:36:20Z</time>
      </trkpt>
      <trkpt lat="39.98702" lon="-7.42908">
        <ele>396.421</ele>
        <time>2019-10-17T09:36:40Z</time>
      </trkpt>
      <trkpt lat="39.98702" lon="-7.42901">
        <ele>396.908</ele>
        <time>2019-10-17T09:37:00Z</time>
      </trkpt>
      <trkpt lat="39.98699" lon="-7.42893">
        <ele>397.46</ele>
        <time>2019-10-17T09:37:20Z</time>
      </trkpt>
      <trkpt lat="39.98695" lon="-7.42885">
        <ele>398.028</ele>
        <time>2019-10-17T09:37:40Z</time>
      </trkpt>
      <trkpt lat="39.98688" lon="-7.42874">
        <ele>398.01</ele>
        <time>2019-10-17T09:38:00Z</time>
      </trkpt>
      <trkpt lat="39.98676" lon="-7.42851">
        <ele>398.09</ele>
        <time>2019-10-17T09:38:20Z</time>
      </trkpt>
      <trkpt lat="39.98672" lon="-7.4284">
        <ele>398.022</ele>
        <time>2019-10-17T09:38:40Z</time>
      </trkpt>
      <trkpt lat="39.98671" lon="-7.42829">
        <ele>397.983</ele>
        <time>2019-10-17T09:39:00Z</time>
      </trkpt>
      <trkpt lat="39.98673" lon="-7.42819">
        <ele>397.675</ele>
        <time>2019-10-17T09:39:20Z</time>
      </trkpt>
      <trkpt lat="39.98677" lon="-7.42809">
        <ele>397.595</ele>
        <time>2019-10-17T09:39:40Z</time>
      </trkpt>
      <trkpt lat="39.98684" lon="-7.428">
        <ele>397.617</ele>
        <time>2019-10-17T09:40:00Z</time>
      </trkpt>
      <trkpt lat="39.98693" lon="-7.42792">
        <ele>397.987</ele>
        <time>2019-10-17T09:40:20Z</time>
      </trkpt>
      <trkpt lat="39.98705" lon="-7.42785">
        <ele>398.315</ele>
        <time>2019-10-17T09:40:40Z</time>
      </trkpt>
      <trkpt lat="39.98718" lon="-7.42777">
        <ele>398.808</ele>
        <time>2019-10-17T09:41:00Z</time>
      </trkpt>
      <trkpt lat="39.98777" lon="-7.42741">
        <ele>399.085</ele>
        <time>2019-10-17T09:41:20Z</time>
      </trkpt>
      <trkpt lat="39.98787" lon="-7.42733">
        <ele>399.093</ele>
        <time>2019-10-17T09:41:40Z</time>
      </trkpt>
      <trkpt lat="39.98795" lon="-7.42723">
        <ele>399.015</ele>
        <time>2019-10-17T09:42:00Z</time>
      </trkpt>
      <trkpt lat="39.98804" lon="-7.42712">
        <ele>399.035</ele>
        <time>2019-10-17T09:42:20Z</time>
      </trkpt>
      <trkpt lat="39.98812" lon="-7.427">
        <ele>399.037</ele>
        <time>2019-10-17T09:42:40Z</time>
      </trkpt>
      <trkpt lat="39.98833" lon="-7.42663">
        <ele>398.788</ele>
        <time>2019-10-17T09:43:00Z</time>
      </trkpt>
      <trkpt lat="39.98842" lon="-7.42653">
        <ele>398.32</ele>
        <time>2019-10-17T09:43:20Z</time>
      </trkpt>
      <trkpt lat="39.98851" lon="-7.42645">
        <ele>398.54</ele>
        <time>2019-10-17T09:43:40Z</time>
      </trkpt>
      <trkpt lat="39.98862" lon="-7.42638">
        <ele>399.169</ele>
        <time>2019-10-17T09:44:00Z</time>
      </trkpt>
      <trkpt lat="39.98873" lon="-7.42632">
        <ele>399.804</ele>
        <time>2019-10-17T09:44:20Z</time>
      </trkpt>
      <trkpt lat="39.98894" lon="-7.42621">
        <ele>401.024</ele>
        <time>2019-10-17T09:44:40Z</time>
      </trkpt>
      <trkpt lat="39.98905" lon="-7.42618">
        <ele>401.008</ele>
        <time>2019-10-17T09:45:00Z</time>
      </trkpt>
      <trkpt lat="39.98917" lon="-7.42616">
        <ele>401.08</ele>
        <time>2019-10-17T09:45:20Z</time>
      </trkpt>
      <trkpt lat="39.98937" lon="-7.42616">
        <ele>400.938</ele>
        <time>2019-10-17T09:45:40Z</time>
      </trkpt>
      <trkpt lat="39.98947" lon="-7.42618">
        <ele>400.72</ele>
        <time>2019-10-17T09:46:00Z</time>
      </trkpt>
      <trkpt lat="39.98977" lon="-7.42631">
        <ele>399.28</ele>
        <time>2019-10-17T09:46:20Z</time>
      </trkpt>
      <trkpt lat="39.99" lon="-7.42645">
        <ele>399.052</ele>
        <time>2019-10-17T09:46:40Z</time>
      </trkpt>
      <trkpt lat="39.99006" lon="-7.42646">
        <ele>398.883</ele>
        <time>2019-10-17T09:47:00Z</time>
      </trkpt>
      <trkpt lat="39.99012" lon="-7.42645">
        <ele>398.745</ele>
        <time>2019-10-17T09:47:20Z</time>
      </trkpt>
      <trkpt lat="39.99034" lon="-7.4264">
        <ele>398.315</ele>
        <time>2019-10-17T09:47:40Z</time>
      </trkpt>
      <trkpt lat="39.99057" lon="-7.4263">
        <ele>398.769</ele>
        <time>2019-10-17T09:48:00Z</time>
      </trkpt>
      <trkpt lat="39.99061" lon="-7.4263">
        <ele>398.704</ele>
        <time>2019-10-17T09:48:20Z</time>
      </trkpt>
      <trkpt lat="39.99065" lon="-7.42629">
        <ele>398.824</ele>
        <time>2019-10-17T09:48:40Z</time>
      </trkpt>
      <trkpt lat="39.99069" lon="-7.42629">
        <ele>398.808</ele>
        <time>2019-10-17T09:49:00Z</time>
      </trkpt>
      <trkpt lat="39.99073" lon="-7.42629">
        <ele>398.98</ele>
        <time>2019-10-17T09:49:20Z</time>
      </trkpt>
      <trkpt lat="39.99076" lon="-7.42629">
        <ele>398.958</ele>
        <time>2019-10-17T09:49:40Z</time>
      </trkpt>
      <trkpt lat="39.99081" lon="-7.4263">
        <ele>399.03</ele>
        <time>2019-10-17T09:50:00Z</time>
      </trkpt>
      <trkpt lat="39.991" lon="-7.42633">
        <ele>399.16</ele>
        <time>2019-10-17T09:50:20Z</time>
      </trkpt>
      <trkpt lat="39.99135" lon="-7.42629">
        <ele>399.752</ele>
        <time>2019-10-17T09:50:40Z</time>
      </trkpt>
      <trkpt lat="39.99178" lon="-7.42619">
        <ele>399.023</ele>
        <time>2019-10-17T09:51:00Z</time>
      </trkpt>
      <trkpt lat="39.99242" lon="-7.42609">
        <ele>397.225</ele>
        <time>2019-10-17T09:51:20Z</time>
      </trkpt>
      <trkpt lat="39.99279" lon="-7.42608">
        <ele>395.875</ele>
        <time>2019-10-17T09:51:40Z</time>
      </trkpt>
      <trkpt lat="39.99287" lon="-7.42608">
        <ele>394.985</ele>
        <time>2019-10-17T09:52:00Z</time>
      </trkpt>
      <trkpt lat="39.99296" lon="-7.42607">
        <ele>394.089</ele>
        <time>2019-10-17T09:52:20Z</time>
      </trkpt>
      <trkpt lat="39.99313" lon="-7.42603">
        <ele>392.417</ele>
        <time>2019-10-17T09:52:40Z</time>
      </trkpt>
      <trkpt lat="39.99322" lon="-7.426">
        <ele>391.608</ele>
        <time>2019-10-17T09:53:00Z</time>
      </trkpt>
      <trkpt lat="39.9933" lon="-7.42594">
        <ele>390.712</ele>
        <time>2019-10-17T09:53:20Z</time>
      </trkpt>
      <trkpt lat="39.99339" lon="-7.42589">
        <ele>389.91</ele>
        <time>2019-10-17T09:53:40Z</time>
      </trkpt>
      <trkpt lat="39.99354" lon="-7.4258">
        <ele>388.792</ele>
        <time>2019-10-17T09:54:00Z</time>
      </trkpt>
      <trkpt lat="39.99361" lon="-7.42577">
        <ele>388.342</ele>
        <time>2019-10-17T09:54:20Z</time>
      </trkpt>
      <trkpt lat="39.99368" lon="-7.42576">
        <ele>388.054</ele>
        <time>2019-10-17T09:54:40Z</time>
      </trkpt>
      <trkpt lat="39.99375" lon="-7.42577">
        <ele>387.615</ele>
        <time>2019-10-17T09:55:00Z</time>
      </trkpt>
      <trkpt lat="39.99383" lon="-7.4258">
        <ele>387.277</ele>
        <time>2019-10-17T09:55:20Z</time>
      </trkpt>
      <trkpt lat="39.99392" lon="-7.42584">
        <ele>387.167</ele>
        <time>2019-10-17T09:55:40Z</time>
      </trkpt>
      <trkpt lat="39.99401" lon="-7.42589">
        <ele>387.971</ele>
        <time>2019-10-17T09:56:00Z</time>
      </trkpt>
      <trkpt lat="39.99411" lon="-7.42596">
        <ele>388.441</ele>
        <time>2019-10-17T09:56:20Z</time>
      </trkpt>
      <trkpt lat="39.99461" lon="-7.42639">
        <ele>389.015</ele>
        <time>2019-10-17T09:56:40Z</time>
      </trkpt>
      <trkpt lat="39.99469" lon="-7.42642">
        <ele>388.908</ele>
        <time>2019-10-17T09:57:00Z</time>
      </trkpt>
      <trkpt lat="39.99474" lon="-7.42643">
        <ele>388.861</ele>
        <time>2019-10-17T09:57:20Z</time>
      </trkpt>
      <trkpt lat="39.99477" lon="-7.42639">
        <ele>388.859</ele>
        <time>2019-10-17T09:57:40Z</time>
      </trkpt>
      <trkpt lat="39.99479" lon="-7.42634">
        <ele>388.881</ele>
        <time>2019-10-17T09:58:00Z</time>
      </trkpt>
      <trkpt lat="39.99479" lon="-7.42627">
        <ele>388.951</ele>
        <time>2019-10-17T09:58:20Z</time>
      </trkpt>
      <trkpt lat="39.99478" lon="-7.4262">
        <ele>388.993</ele>
        <time>2019-10-17T09:58:40Z</time>
      </trkpt>
      <trkpt lat="39.99478" lon="-7.42613">
        <ele>389.074</ele>
        <time>2019-10-17T09:59:00Z</time>
      </trkpt>
      <trkpt lat="39.9948" lon="-7.42606">
        <ele>388.886</ele>
        <time>2019-10-17T09:59:20Z</time>
      </trkpt>
      <trkpt lat="39.99483" lon="-7.42599">
        <ele>388.626</ele>
        <time>2019-10-17T09:59:40Z</time>
      </trkpt>
      <trkpt lat="39.99496" lon="-7.42586">
        <ele>388.118</ele>
        <time>2019-10-17T10:00:00Z</time>
      </trkpt>
      <trkpt lat="39.99503" lon="-7.4258">
        <ele>388.198</ele>
        <time>2019-10-17T10:00:20Z</time>
      </trkpt>
      <trkpt lat="39.99511" lon="-7.42575">
        <ele>388.617</ele>
        <time>2019-10-17T10:00:40Z</time>
      </trkpt>
      <trkpt lat="39.99521" lon="-7.42571">
        <ele>389.408</ele>
        <time>2019-10-17T10:01:00Z</time>
      </trkpt>
      <trkpt lat="39.99533" lon="-7.42568">
        <ele>390.425</ele>
        <time>2019-10-17T10:01:20Z</time>
      </trkpt>
      <trkpt lat="39.99545" lon="-7.42567">
        <ele>391.613</ele>
        <time>2019-10-17T10:01:40Z</time>
      </trkpt>
      <trkpt lat="39.99557" lon="-7.42566">
        <ele>392.775</ele>
        <time>2019-10-17T10:02:00Z</time>
      </trkpt>
      <trkpt lat="39.9957" lon="-7.42567">
        <ele>393.135</ele>
        <time>2019-10-17T10:02:20Z</time>
      </trkpt>
      <trkpt lat="39.99592" lon="-7.42568">
        <ele>393.837</ele>
        <time>2019-10-17T10:02:40Z</time>
      </trkpt>
      <trkpt lat="39.99601" lon="-7.42567">
        <ele>394.298</ele>
        <time>2019-10-17T10:03:00Z</time>
      </trkpt>
      <trkpt lat="39.9961" lon="-7.42563">
        <ele>394.73</ele>
        <time>2019-10-17T10:03:20Z</time>
      </trkpt>
      <trkpt lat="39.99619" lon="-7.42557">
        <ele>395.21</ele>
        <time>2019-10-17T10:03:40Z</time>
      </trkpt>
      <trkpt lat="39.99628" lon="-7.42551">
        <ele>395.885</ele>
        <time>2019-10-17T10:04:00Z</time>
      </trkpt>
      <trkpt lat="39.99636" lon="-7.42543">
        <ele>396.789</ele>
        <time>2019-10-17T10:04:20Z</time>
      </trkpt>
      <trkpt lat="39.99664" lon="-7.42517">
        <ele>400.217</ele>
        <time>2019-10-17T10:04:40Z</time>
      </trkpt>
      <trkpt lat="39.99694" lon="-7.42493">
        <ele>402.208</ele>
        <time>2019-10-17T10:05:00Z</time>
      </trkpt>
      <trkpt lat="39.99694" lon="-7.4249">
        <ele>402.382</ele>
        <time>2019-10-17T10:05:20Z</time>
      </trkpt>
      <trkpt lat="39.99694" lon="-7.42487">
        <ele>402.45</ele>
        <time>2019-10-17T10:05:40Z</time>
      </trkpt>
      <trkpt lat="39.99693" lon="-7.42484">
        <ele>402.522</ele>
        <time>2019-10-17T10:06:00Z</time>
      </trkpt>
      <trkpt lat="39.99692" lon="-7.4248">
        <ele>402.572</ele>
        <time>2019-10-17T10:06:20Z</time>
      </trkpt>
      <trkpt lat="39.9969" lon="-7.42475">
        <ele>402.664</ele>
        <time>2019-10-17T10:06:40Z</time>
      </trkpt>
      <trkpt lat="39.9969" lon="-7.42471">
        <ele>402.625</ele>
        <time>2019-10-17T10:07:00Z</time>
      </trkpt>
      <trkpt lat="39.99689" lon="-7.42453">
        <ele>402.457</ele>
        <time>2019-10-17T10:07:20Z</time>
      </trkpt>
      <trkpt lat="39.99691" lon="-7.42342">
        <ele>400.087</ele>
        <time>2019-10-17T10:07:40Z</time>
      </trkpt>
      <trkpt lat="39.99689" lon="-7.42323">
        <ele>400.629</ele>
        <time>2019-10-17T10:08:00Z</time>
      </trkpt>
      <trkpt lat="39.99681" lon="-7.42255">
        <ele>399.3</ele>
        <time>2019-10-17T10:08:20Z</time>
      </trkpt>
      <trkpt lat="39.99677" lon="-7.42242">
        <ele>398.32</ele>
        <time>2019-10-17T10:08:40Z</time>
      </trkpt>
      <trkpt lat="39.99671" lon="-7.42229">
        <ele>397.508</ele>
        <time>2019-10-17T10:09:00Z</time>
      </trkpt>
      <trkpt lat="39.99657" lon="-7.42202">
        <ele>396.316</ele>
        <time>2019-10-17T10:09:20Z</time>
      </trkpt>
      <trkpt lat="39.99621" lon="-7.42088">
        <ele>391.324</ele>
        <time>2019-10-17T10:09:40Z</time>
      </trkpt>
      <trkpt lat="39.99617" lon="-7.42067">
        <ele>391.026</ele>
        <time>2019-10-17T10:10:00Z</time>
      </trkpt>
      <trkpt lat="39.99607" lon="-7.4197">
        <ele>387.976</ele>
        <time>2019-10-17T10:10:20Z</time>
      </trkpt>
      <trkpt lat="39.9961" lon="-7.41914">
        <ele>388.858</ele>
        <time>2019-10-17T10:10:40Z</time>
      </trkpt>
      <trkpt lat="39.99613" lon="-7.41896">
        <ele>388.319</ele>
        <time>2019-10-17T10:11:00Z</time>
      </trkpt>
      <trkpt lat="39.99625" lon="-7.41843">
        <ele>386.251</ele>
        <time>2019-10-17T10:11:20Z</time>
      </trkpt>
      <trkpt lat="39.99629" lon="-7.41833">
        <ele>385.441</ele>
        <time>2019-10-17T10:11:40Z</time>
      </trkpt>
      <trkpt lat="39.99633" lon="-7.41825">
        <ele>384.976</ele>
        <time>2019-10-17T10:12:00Z</time>
      </trkpt>
      <trkpt lat="39.99639" lon="-7.41816">
        <ele>384.49</ele>
        <time>2019-10-17T10:12:20Z</time>
      </trkpt>
      <trkpt lat="39.99646" lon="-7.41808">
        <ele>383.619</ele>
        <time>2019-10-17T10:12:40Z</time>
      </trkpt>
      <trkpt lat="39.99691" lon="-7.41766">
        <ele>380.608</ele>
        <time>2019-10-17T10:13:00Z</time>
      </trkpt>
      <trkpt lat="39.99703" lon="-7.41758">
        <ele>380.131</ele>
        <time>2019-10-17T10:13:20Z</time>
      </trkpt>
      <trkpt lat="39.99715" lon="-7.41751">
        <ele>380.049</ele>
        <time>2019-10-17T10:13:40Z</time>
      </trkpt>
      <trkpt lat="39.99778" lon="-7.41724">
        <ele>378.041</ele>
        <time>2019-10-17T10:14:00Z</time>
      </trkpt>
      <trkpt lat="39.99787" lon="-7.41717">
        <ele>377.331</ele>
        <time>2019-10-17T10:14:20Z</time>
      </trkpt>
      <trkpt lat="39.99795" lon="-7.41708">
        <ele>376.443</ele>
        <time>2019-10-17T10:14:40Z</time>
      </trkpt>
      <trkpt lat="39.99803" lon="-7.41699">
        <ele>375.584</ele>
        <time>2019-10-17T10:15:00Z</time>
      </trkpt>
      <trkpt lat="39.99812" lon="-7.41692">
        <ele>375.136</ele>
        <time>2019-10-17T10:15:20Z</time>
      </trkpt>
      <trkpt lat="39.99822" lon="-7.41685">
        <ele>374.986</ele>
        <time>2019-10-17T10:15:40Z</time>
      </trkpt>
      <trkpt lat="39.99833" lon="-7.4168">
        <ele>374.563</ele>
        <time>2019-10-17T10:16:00Z</time>
      </trkpt>
      <trkpt lat="39.99843" lon="-7.41676">
        <ele>374.344</ele>
        <time>2019-10-17T10:16:20Z</time>
      </trkpt>
      <trkpt lat="39.99861" lon="-7.41668">
        <ele>374.118</ele>
        <time>2019-10-17T10:16:40Z</time>
      </trkpt>
      <trkpt lat="39.99868" lon="-7.41662">
        <ele>373.608</ele>
        <time>2019-10-17T10:17:00Z</time>
      </trkpt>
      <trkpt lat="39.99875" lon="-7.41654">
        <ele>373.37</ele>
        <time>2019-10-17T10:17:20Z</time>
      </trkpt>
      <trkpt lat="39.99883" lon="-7.41645">
        <ele>373.138</ele>
        <time>2019-10-17T10:17:40Z</time>
      </trkpt>
      <trkpt lat="39.9989" lon="-7.41634">
        <ele>373.01</ele>
        <time>2019-10-17T10:18:00Z</time>
      </trkpt>
      <trkpt lat="39.99898" lon="-7.41622">
        <ele>373.09</ele>
        <time>2019-10-17T10:18:20Z</time>
      </trkpt>
      <trkpt lat="39.99914" lon="-7.41598">
        <ele>372.642</ele>
        <time>2019-10-17T10:18:40Z</time>
      </trkpt>
      <trkpt lat="39.99937" lon="-7.41568">
        <ele>370.723</ele>
        <time>2019-10-17T10:19:00Z</time>
      </trkpt>
      <trkpt lat="39.99947" lon="-7.41559">
        <ele>370.215</ele>
        <time>2019-10-17T10:19:20Z</time>
      </trkpt>
      <trkpt lat="39.99958" lon="-7.41551">
        <ele>370.455</ele>
        <time>2019-10-17T10:19:40Z</time>
      </trkpt>
      <trkpt lat="39.9997" lon="-7.41545">
        <ele>370.991</ele>
        <time>2019-10-17T10:20:00Z</time>
      </trkpt>
      <trkpt lat="39.99981" lon="-7.41538">
        <ele>371.181</ele>
        <time>2019-10-17T10:20:20Z</time>
      </trkpt>
      <trkpt lat="40.00002" lon="-7.41524">
        <ele>370.919</ele>
        <time>2019-10-17T10:20:40Z</time>
      </trkpt>
      <trkpt lat="40.00011" lon="-7.41514">
        <ele>370.608</ele>
        <time>2019-10-17T10:21:00Z</time>
      </trkpt>
      <trkpt lat="40.00058" lon="-7.41461">
        <ele>367.533</ele>
        <time>2019-10-17T10:21:20Z</time>
      </trkpt>
      <trkpt lat="40.00065" lon="-7.41451">
        <ele>366.921</ele>
        <time>2019-10-17T10:21:40Z</time>
      </trkpt>
      <trkpt lat="40.0007" lon="-7.4144">
        <ele>366.423</ele>
        <time>2019-10-17T10:22:00Z</time>
      </trkpt>
      <trkpt lat="40.00072" lon="-7.41429">
        <ele>366.223</ele>
        <time>2019-10-17T10:22:20Z</time>
      </trkpt>
      <trkpt lat="40.00074" lon="-7.41419">
        <ele>366.015</ele>
        <time>2019-10-17T10:22:40Z</time>
      </trkpt>
      <trkpt lat="40.00078" lon="-7.41409">
        <ele>366.376</ele>
        <time>2019-10-17T10:23:00Z</time>
      </trkpt>
      <trkpt lat="40.00084" lon="-7.41399">
        <ele>366.688</ele>
        <time>2019-10-17T10:23:20Z</time>
      </trkpt>
      <trkpt lat="40.00092" lon="-7.41389">
        <ele>367.018</ele>
        <time>2019-10-17T10:23:40Z</time>
      </trkpt>
      <trkpt lat="40.00101" lon="-7.41379">
        <ele>367.069</ele>
        <time>2019-10-17T10:24:00Z</time>
      </trkpt>
      <trkpt lat="40.00109" lon="-7.41367">
        <ele>367.004</ele>
        <time>2019-10-17T10:24:20Z</time>
      </trkpt>
      <trkpt lat="40.00117" lon="-7.41354">
        <ele>365.424</ele>
        <time>2019-10-17T10:24:40Z</time>
      </trkpt>
      <trkpt lat="40.00125" lon="-7.41342">
        <ele>362.908</ele>
        <time>2019-10-17T10:25:00Z</time>
      </trkpt>
      <trkpt lat="40.00131" lon="-7.41329">
        <ele>360.99</ele>
        <time>2019-10-17T10:25:20Z</time>
      </trkpt>
      <trkpt lat="40.00136" lon="-7.41316">
        <ele>359.678</ele>
        <time>2019-10-17T10:25:40Z</time>
      </trkpt>
      <trkpt lat="40.0014" lon="-7.41303">
        <ele>358.85</ele>
        <time>2019-10-17T10:26:00Z</time>
      </trkpt>
      <trkpt lat="40.00143" lon="-7.4129">
        <ele>358.05</ele>
        <time>2019-10-17T10:26:20Z</time>
      </trkpt>
      <trkpt lat="40.00148" lon="-7.41277">
        <ele>357.412</ele>
        <time>2019-10-17T10:26:40Z</time>
      </trkpt>
      <trkpt lat="40.00154" lon="-7.41265">
        <ele>356.233</ele>
        <time>2019-10-17T10:27:00Z</time>
      </trkpt>
      <trkpt lat="40.0016" lon="-7.41253">
        <ele>355.325</ele>
        <time>2019-10-17T10:27:20Z</time>
      </trkpt>
      <trkpt lat="40.00167" lon="-7.41243">
        <ele>354.595</ele>
        <time>2019-10-17T10:27:40Z</time>
      </trkpt>
      <trkpt lat="40.00172" lon="-7.41237">
        <ele>353.721</ele>
        <time>2019-10-17T10:28:00Z</time>
      </trkpt>
      <trkpt lat="40.00177" lon="-7.41231">
        <ele>353.041</ele>
        <time>2019-10-17T10:28:20Z</time>
      </trkpt>
      <trkpt lat="40.00183" lon="-7.41226">
        <ele>352.205</ele>
        <time>2019-10-17T10:28:40Z</time>
      </trkpt>
      <trkpt lat="40.00189" lon="-7.41222">
        <ele>351.408</ele>
        <time>2019-10-17T10:29:00Z</time>
      </trkpt>
      <trkpt lat="40.00193" lon="-7.41217">
        <ele>350.696</ele>
        <time>2019-10-17T10:29:20Z</time>
      </trkpt>
      <trkpt lat="40.00198" lon="-7.41211">
        <ele>349.774</ele>
        <time>2019-10-17T10:29:40Z</time>
      </trkpt>
      <trkpt lat="40.00204" lon="-7.41204">
        <ele>348.956</ele>
        <time>2019-10-17T10:30:00Z</time>
      </trkpt>
      <trkpt lat="40.00211" lon="-7.41198">
        <ele>348.356</ele>
        <time>2019-10-17T10:30:20Z</time>
      </trkpt>
      <trkpt lat="40.0022" lon="-7.41193">
        <ele>347.948</ele>
        <time>2019-10-17T10:30:40Z</time>
      </trkpt>
      <trkpt lat="40.00229" lon="-7.41189">
        <ele>347.469</ele>
        <time>2019-10-17T10:31:00Z</time>
      </trkpt>
      <trkpt lat="40.00237" lon="-7.41188">
        <ele>347.191</ele>
        <time>2019-10-17T10:31:20Z</time>
      </trkpt>
      <trkpt lat="40.00242" lon="-7.41188">
        <ele>347.031</ele>
        <time>2019-10-17T10:31:40Z</time>
      </trkpt>
      <trkpt lat="40.00245" lon="-7.4119">
        <ele>347.066</ele>
        <time>2019-10-17T10:32:00Z</time>
      </trkpt>
      <trkpt lat="40.00249" lon="-7.41192">
        <ele>347.029</ele>
        <time>2019-10-17T10:32:20Z</time>
      </trkpt>
      <trkpt lat="40.00253" lon="-7.41195">
        <ele>346.721</ele>
        <time>2019-10-17T10:32:40Z</time>
      </trkpt>
      <trkpt lat="40.00273" lon="-7.41204">
        <ele>344.608</ele>
        <time>2019-10-17T10:33:00Z</time>
      </trkpt>
      <trkpt lat="40.00281" lon="-7.41205">
        <ele>343.58</ele>
        <time>2019-10-17T10:33:20Z</time>
      </trkpt>
      <trkpt lat="40.0029" lon="-7.41204">
        <ele>342.368</ele>
        <time>2019-10-17T10:33:40Z</time>
      </trkpt>
      <trkpt lat="40.00298" lon="-7.41201">
        <ele>341.14</ele>
        <time>2019-10-17T10:34:00Z</time>
      </trkpt>
      <trkpt lat="40.00303" lon="-7.41196">
        <ele>340.47</ele>
        <time>2019-10-17T10:34:20Z</time>
      </trkpt>
      <trkpt lat="40.00306" lon="-7.4119">
        <ele>340.152</ele>
        <time>2019-10-17T10:34:40Z</time>
      </trkpt>
      <trkpt lat="40.0031" lon="-7.41182">
        <ele>340.493</ele>
        <time>2019-10-17T10:35:00Z</time>
      </trkpt>
      <trkpt lat="40.00316" lon="-7.41164">
        <ele>340.745</ele>
        <time>2019-10-17T10:35:20Z</time>
      </trkpt>
      <trkpt lat="40.00317" lon="-7.41156">
        <ele>340.825</ele>
        <time>2019-10-17T10:35:40Z</time>
      </trkpt>
      <trkpt lat="40.00316" lon="-7.41148">
        <ele>341.111</ele>
        <time>2019-10-17T10:36:00Z</time>
      </trkpt>
      <trkpt lat="40.00315" lon="-7.41139">
        <ele>341.321</ele>
        <time>2019-10-17T10:36:20Z</time>
      </trkpt>
      <trkpt lat="40.00314" lon="-7.41131">
        <ele>341.703</ele>
        <time>2019-10-17T10:36:40Z</time>
      </trkpt>
      <trkpt lat="40.00316" lon="-7.41125">
        <ele>341.908</ele>
        <time>2019-10-17T10:37:00Z</time>
      </trkpt>
      <trkpt lat="40.0032" lon="-7.4112">
        <ele>342.015</ele>
        <time>2019-10-17T10:37:20Z</time>
      </trkpt>
      <trkpt lat="40.00326" lon="-7.41116">
        <ele>342.033</ele>
        <time>2019-10-17T10:37:40Z</time>
      </trkpt>
      <trkpt lat="40.00333" lon="-7.41111">
        <ele>342.015</ele>
        <time>2019-10-17T10:38:00Z</time>
      </trkpt>
      <trkpt lat="40.00387" lon="-7.41077">
        <ele>339.375</ele>
        <time>2019-10-17T10:38:20Z</time>
      </trkpt>
      <trkpt lat="40.00396" lon="-7.41076">
        <ele>339.227</ele>
        <time>2019-10-17T10:38:40Z</time>
      </trkpt>
      <trkpt lat="40.00405" lon="-7.41074">
        <ele>339.498</ele>
        <time>2019-10-17T10:39:00Z</time>
      </trkpt>
      <trkpt lat="40.00413" lon="-7.41073">
        <ele>339.52</ele>
        <time>2019-10-17T10:39:20Z</time>
      </trkpt>
      <trkpt lat="40.00422" lon="-7.41069">
        <ele>339.74</ele>
        <time>2019-10-17T10:39:40Z</time>
      </trkpt>
      <trkpt lat="40.0043" lon="-7.41064">
        <ele>339.892</ele>
        <time>2019-10-17T10:40:00Z</time>
      </trkpt>
      <trkpt lat="40.00438" lon="-7.4106">
        <ele>339.973</ele>
        <time>2019-10-17T10:40:20Z</time>
      </trkpt>
      <trkpt lat="40.00446" lon="-7.41055">
        <ele>340.02</ele>
        <time>2019-10-17T10:40:40Z</time>
      </trkpt>
      <trkpt lat="40.00453" lon="-7.41051">
        <ele>339.808</ele>
        <time>2019-10-17T10:41:00Z</time>
      </trkpt>
      <trkpt lat="40.0046" lon="-7.41045">
        <ele>339.613</ele>
        <time>2019-10-17T10:41:20Z</time>
      </trkpt>
      <trkpt lat="40.00466" lon="-7.41038">
        <ele>339.431</ele>
        <time>2019-10-17T10:41:40Z</time>
      </trkpt>
      <trkpt lat="40.00486" lon="-7.41013">
        <ele>338.093</ele>
        <time>2019-10-17T10:42:00Z</time>
      </trkpt>
      <trkpt lat="40.00494" lon="-7.41007">
        <ele>337.533</ele>
        <time>2019-10-17T10:42:20Z</time>
      </trkpt>
      <trkpt lat="40.00533" lon="-7.40975">
        <ele>340.065</ele>
        <time>2019-10-17T10:42:40Z</time>
      </trkpt>
      <trkpt lat="40.00539" lon="-7.40967">
        <ele>340.886</ele>
        <time>2019-10-17T10:43:00Z</time>
      </trkpt>
      <trkpt lat="40.0055" lon="-7.40948">
        <ele>342.718</ele>
        <time>2019-10-17T10:43:20Z</time>
      </trkpt>
      <trkpt lat="40.00556" lon="-7.40942">
        <ele>343.838</ele>
        <time>2019-10-17T10:43:40Z</time>
      </trkpt>
      <trkpt lat="40.00563" lon="-7.40937">
        <ele>344.294</ele>
        <time>2019-10-17T10:44:00Z</time>
      </trkpt>
      <trkpt lat="40.00571" lon="-7.40933">
        <ele>344.657</ele>
        <time>2019-10-17T10:44:20Z</time>
      </trkpt>
      <trkpt lat="40.00578" lon="-7.4093">
        <ele>345.022</ele>
        <time>2019-10-17T10:44:40Z</time>
      </trkpt>
      <trkpt lat="40.00588" lon="-7.40928">
        <ele>345.508</ele>
        <time>2019-10-17T10:45:00Z</time>
      </trkpt>
      <trkpt lat="40.00599" lon="-7.40928">
        <ele>346.163</ele>
        <time>2019-10-17T10:45:20Z</time>
      </trkpt>
      <trkpt lat="40.00626" lon="-7.40926">
        <ele>347.011</ele>
        <time>2019-10-17T10:45:40Z</time>
      </trkpt>
      <trkpt lat="40.00639" lon="-7.40927">
        <ele>347.483</ele>
        <time>2019-10-17T10:46:00Z</time>
      </trkpt>
      <trkpt lat="40.00663" lon="-7.40929">
        <ele>348.353</ele>
        <time>2019-10-17T10:46:20Z</time>
      </trkpt>
      <trkpt lat="40.00695" lon="-7.40929">
        <ele>349.545</ele>
        <time>2019-10-17T10:46:40Z</time>
      </trkpt>
      <trkpt lat="40.00732" lon="-7.40928">
        <ele>351.186</ele>
        <time>2019-10-17T10:47:00Z</time>
      </trkpt>
      <trkpt lat="40.0074" lon="-7.4093">
        <ele>351.638</ele>
        <time>2019-10-17T10:47:20Z</time>
      </trkpt>
      <trkpt lat="40.00749" lon="-7.40933">
        <ele>352.138</ele>
        <time>2019-10-17T10:47:40Z</time>
      </trkpt>
      <trkpt lat="40.00802" lon="-7.40955">
        <ele>355.686</ele>
        <time>2019-10-17T10:48:00Z</time>
      </trkpt>
      <trkpt lat="40.00808" lon="-7.40956">
        <ele>356.16</ele>
        <time>2019-10-17T10:48:20Z</time>
      </trkpt>
      <trkpt lat="40.00814" lon="-7.40956">
        <ele>356.526</ele>
        <time>2019-10-17T10:48:40Z</time>
      </trkpt>
      <trkpt lat="40.00818" lon="-7.40954">
        <ele>356.708</ele>
        <time>2019-10-17T10:49:00Z</time>
      </trkpt>
      <trkpt lat="40.00822" lon="-7.40949">
        <ele>356.932</ele>
        <time>2019-10-17T10:49:20Z</time>
      </trkpt>
      <trkpt lat="40.00826" lon="-7.4094">
        <ele>357.19</ele>
        <time>2019-10-17T10:49:40Z</time>
      </trkpt>
      <trkpt lat="40.00831" lon="-7.40931">
        <ele>357.212</ele>
        <time>2019-10-17T10:50:00Z</time>
      </trkpt>
      <trkpt lat="40.0084" lon="-7.40916">
        <ele>357.432</ele>
        <time>2019-10-17T10:50:20Z</time>
      </trkpt>
      <trkpt lat="40.00846" lon="-7.40911">
        <ele>357.364</ele>
        <time>2019-10-17T10:50:40Z</time>
      </trkpt>
      <trkpt lat="40.00853" lon="-7.40908">
        <ele>357.595</ele>
        <time>2019-10-17T10:51:00Z</time>
      </trkpt>
      <trkpt lat="40.00862" lon="-7.40906">
        <ele>357.857</ele>
        <time>2019-10-17T10:51:20Z</time>
      </trkpt>
      <trkpt lat="40.00871" lon="-7.40904">
        <ele>357.837</ele>
        <time>2019-10-17T10:51:40Z</time>
      </trkpt>
      <trkpt lat="40.00918" lon="-7.40893">
        <ele>357.175</ele>
        <time>2019-10-17T10:52:00Z</time>
      </trkpt>
      <trkpt lat="40.00926" lon="-7.40888">
        <ele>357.028</ele>
        <time>2019-10-17T10:52:20Z</time>
      </trkpt>
      <trkpt lat="40.00933" lon="-7.40882">
        <ele>356.62</ele>
        <time>2019-10-17T10:52:40Z</time>
      </trkpt>
      <trkpt lat="40.00939" lon="-7.40873">
        <ele>356.308</ele>
        <time>2019-10-17T10:53:00Z</time>
      </trkpt>
      <trkpt lat="40.00945" lon="-7.40864">
        <ele>356.181</ele>
        <time>2019-10-17T10:53:20Z</time>
      </trkpt>
      <trkpt lat="40.0095" lon="-7.40854">
        <ele>356.229</ele>
        <time>2019-10-17T10:53:40Z</time>
      </trkpt>
      <trkpt lat="40.00954" lon="-7.40842">
        <ele>356.361</ele>
        <time>2019-10-17T10:54:00Z</time>
      </trkpt>
      <trkpt lat="40.00957" lon="-7.40831">
        <ele>356.331</ele>
        <time>2019-10-17T10:54:20Z</time>
      </trkpt>
      <trkpt lat="40.00964" lon="-7.408">
        <ele>354.893</ele>
        <time>2019-10-17T10:54:40Z</time>
      </trkpt>
      <trkpt lat="40.00968" lon="-7.40781">
        <ele>354.194</ele>
        <time>2019-10-17T10:55:00Z</time>
      </trkpt>
      <trkpt lat="40.00969" lon="-7.40771">
        <ele>354.096</ele>
        <time>2019-10-17T10:55:20Z</time>
      </trkpt>
      <trkpt lat="40.00971" lon="-7.4076">
        <ele>354.076</ele>
        <time>2019-10-17T10:55:40Z</time>
      </trkpt>
      <trkpt lat="40.00974" lon="-7.40749">
        <ele>354.041</ele>
        <time>2019-10-17T10:56:00Z</time>
      </trkpt>
      <trkpt lat="40.00977" lon="-7.40736">
        <ele>353.681</ele>
        <time>2019-10-17T10:56:20Z</time>
      </trkpt>
      <trkpt lat="40.00981" lon="-7.40721">
        <ele>353.309</ele>
        <time>2019-10-17T10:56:40Z</time>
      </trkpt>
      <trkpt lat="40.00986" lon="-7.40708">
        <ele>352.708</ele>
        <time>2019-10-17T10:57:00Z</time>
      </trkpt>
      <trkpt lat="40.01002" lon="-7.40664">
        <ele>348.898</ele>
        <time>2019-10-17T10:57:20Z</time>
      </trkpt>
      <trkpt lat="40.01009" lon="-7.4065">
        <ele>347.876</ele>
        <time>2019-10-17T10:57:40Z</time>
      </trkpt>
      <trkpt lat="40.01024" lon="-7.40627">
        <ele>346.138</ele>
        <time>2019-10-17T10:58:00Z</time>
      </trkpt>
      <trkpt lat="40.01032" lon="-7.40618">
        <ele>345.858</ele>
        <time>2019-10-17T10:58:20Z</time>
      </trkpt>
      <trkpt lat="40.01041" lon="-7.40609">
        <ele>345.94</ele>
        <time>2019-10-17T10:58:40Z</time>
      </trkpt>
      <trkpt lat="40.01049" lon="-7.40599">
        <ele>346.251</ele>
        <time>2019-10-17T10:59:00Z</time>
      </trkpt>
      <trkpt lat="40.01057" lon="-7.40588">
        <ele>346.283</ele>
        <time>2019-10-17T10:59:20Z</time>
      </trkpt>
      <trkpt lat="40.01064" lon="-7.40578">
        <ele>346.353</ele>
        <time>2019-10-17T10:59:40Z</time>
      </trkpt>
      <trkpt lat="40.01076" lon="-7.40564">
        <ele>346.892</ele>
        <time>2019-10-17T11:00:00Z</time>
      </trkpt>
      <trkpt lat="40.01081" lon="-7.40562">
        <ele>346.973</ele>
        <time>2019-10-17T11:00:20Z</time>
      </trkpt>
      <trkpt lat="40.01085" lon="-7.40562">
        <ele>347.02</ele>
        <time>2019-10-17T11:00:40Z</time>
      </trkpt>
      <trkpt lat="40.01097" lon="-7.40561">
        <ele>347.008</ele>
        <time>2019-10-17T11:01:00Z</time>
      </trkpt>
      <trkpt lat="40.01105" lon="-7.40558">
        <ele>347.063</ele>
        <time>2019-10-17T11:01:20Z</time>
      </trkpt>
      <trkpt lat="40.01129" lon="-7.40545">
        <ele>346.451</ele>
        <time>2019-10-17T11:01:40Z</time>
      </trkpt>
      <trkpt lat="40.01136" lon="-7.40539">
        <ele>346.133</ele>
        <time>2019-10-17T11:02:00Z</time>
      </trkpt>
      <trkpt lat="40.01143" lon="-7.40529">
        <ele>346.013</ele>
        <time>2019-10-17T11:02:20Z</time>
      </trkpt>
      <trkpt lat="40.01167" lon="-7.40492">
        <ele>344.495</ele>
        <time>2019-10-17T11:02:40Z</time>
      </trkpt>
      <trkpt lat="40.01191" lon="-7.40459">
        <ele>342.156</ele>
        <time>2019-10-17T11:03:00Z</time>
      </trkpt>
      <trkpt lat="40.01227" lon="-7.40422">
        <ele>339.548</ele>
        <time>2019-10-17T11:03:20Z</time>
      </trkpt>
      <trkpt lat="40.01235" lon="-7.40416">
        <ele>339.478</ele>
        <time>2019-10-17T11:03:40Z</time>
      </trkpt>
      <trkpt lat="40.01245" lon="-7.4041">
        <ele>339.693</ele>
        <time>2019-10-17T11:04:00Z</time>
      </trkpt>
      <trkpt lat="40.01323" lon="-7.40368">
        <ele>336.365</ele>
        <time>2019-10-17T11:04:20Z</time>
      </trkpt>
      <trkpt lat="40.01372" lon="-7.40345">
        <ele>331.621</ele>
        <time>2019-10-17T11:04:40Z</time>
      </trkpt>
      <trkpt lat="40.01423" lon="-7.40335">
        <ele>332.008</ele>
        <time>2019-10-17T11:05:00Z</time>
      </trkpt>
      <trkpt lat="40.01432" lon="-7.40333">
        <ele>332.073</ele>
        <time>2019-10-17T11:05:20Z</time>
      </trkpt>
      <trkpt lat="40.01438" lon="-7.40329">
        <ele>332.061</ele>
        <time>2019-10-17T11:05:40Z</time>
      </trkpt>
      <trkpt lat="40.01443" lon="-7.40323">
        <ele>332.053</ele>
        <time>2019-10-17T11:06:00Z</time>
      </trkpt>
      <trkpt lat="40.01448" lon="-7.40313">
        <ele>332.033</ele>
        <time>2019-10-17T11:06:20Z</time>
      </trkpt>
      <trkpt lat="40.01455" lon="-7.40302">
        <ele>331.915</ele>
        <time>2019-10-17T11:06:40Z</time>
      </trkpt>
      <trkpt lat="40.01463" lon="-7.4029">
        <ele>331.836</ele>
        <time>2019-10-17T11:07:00Z</time>
      </trkpt>
      <trkpt lat="40.01477" lon="-7.40266">
        <ele>331.328</ele>
        <time>2019-10-17T11:07:20Z</time>
      </trkpt>
      <trkpt lat="40.01485" lon="-7.40257">
        <ele>330.528</ele>
        <time>2019-10-17T11:07:40Z</time>
      </trkpt>
      <trkpt lat="40.01537" lon="-7.4019">
        <ele>325.127</ele>
        <time>2019-10-17T11:08:00Z</time>
      </trkpt>
      <trkpt lat="40.01544" lon="-7.40176">
        <ele>324.568</ele>
        <time>2019-10-17T11:08:20Z</time>
      </trkpt>
      <trkpt lat="40.0155" lon="-7.40163">
        <ele>323.914</ele>
        <time>2019-10-17T11:08:40Z</time>
      </trkpt>
      <trkpt lat="40.01568" lon="-7.40131">
        <ele>323.208</ele>
        <time>2019-10-17T11:09:00Z</time>
      </trkpt>
      <trkpt lat="40.01575" lon="-7.40123">
        <ele>322.946</ele>
        <time>2019-10-17T11:09:20Z</time>
      </trkpt>
      <trkpt lat="40.01584" lon="-7.40118">
        <ele>322.574</ele>
        <time>2019-10-17T11:09:40Z</time>
      </trkpt>
      <trkpt lat="40.01594" lon="-7.40115">
        <ele>322.326</ele>
        <time>2019-10-17T11:10:00Z</time>
      </trkpt>
      <trkpt lat="40.01606" lon="-7.40112">
        <ele>322.146</ele>
        <time>2019-10-17T11:10:20Z</time>
      </trkpt>
      <trkpt lat="40.01619" lon="-7.40111">
        <ele>322.078</ele>
        <time>2019-10-17T11:10:40Z</time>
      </trkpt>
      <trkpt lat="40.01629" lon="-7.40108">
        <ele>321.919</ele>
        <time>2019-10-17T11:11:00Z</time>
      </trkpt>
      <trkpt lat="40.01646" lon="-7.40103">
        <ele>321.841</ele>
        <time>2019-10-17T11:11:20Z</time>
      </trkpt>
      <trkpt lat="40.01652" lon="-7.40102">
        <ele>321.891</ele>
        <time>2019-10-17T11:11:40Z</time>
      </trkpt>
      <trkpt lat="40.01657" lon="-7.40104">
        <ele>321.973</ele>
        <time>2019-10-17T11:12:00Z</time>
      </trkpt>
      <trkpt lat="40.01663" lon="-7.40105">
        <ele>322.085</ele>
        <time>2019-10-17T11:12:20Z</time>
      </trkpt>
      <trkpt lat="40.01669" lon="-7.40105">
        <ele>322.113</ele>
        <time>2019-10-17T11:12:40Z</time>
      </trkpt>
      <trkpt lat="40.01676" lon="-7.40102">
        <ele>322.708</ele>
        <time>2019-10-17T11:13:00Z</time>
      </trkpt>
      <trkpt lat="40.01683" lon="-7.40095">
        <ele>323.211</ele>
        <time>2019-10-17T11:13:20Z</time>
      </trkpt>
      <trkpt lat="40.0169" lon="-7.40086">
        <ele>323.789</ele>
        <time>2019-10-17T11:13:40Z</time>
      </trkpt>
      <trkpt lat="40.01696" lon="-7.40077">
        <ele>323.621</ele>
        <time>2019-10-17T11:14:00Z</time>
      </trkpt>
      <trkpt lat="40.017" lon="-7.40068">
        <ele>323.471</ele>
        <time>2019-10-17T11:14:20Z</time>
      </trkpt>
      <trkpt lat="40.01703" lon="-7.4006">
        <ele>323.373</ele>
        <time>2019-10-17T11:14:40Z</time>
      </trkpt>
      <trkpt lat="40.01708" lon="-7.40054">
        <ele>323.564</ele>
        <time>2019-10-17T11:15:00Z</time>
      </trkpt>
      <trkpt lat="40.01715" lon="-7.40049">
        <ele>324.456</ele>
        <time>2019-10-17T11:15:20Z</time>
      </trkpt>
      <trkpt lat="40.01723" lon="-7.40043">
        <ele>325.736</ele>
        <time>2019-10-17T11:15:40Z</time>
      </trkpt>
      <trkpt lat="40.01731" lon="-7.40039">
        <ele>327.321</ele>
        <time>2019-10-17T11:16:00Z</time>
      </trkpt>
      <trkpt lat="40.01738" lon="-7.40037">
        <ele>328.641</ele>
        <time>2019-10-17T11:16:20Z</time>
      </trkpt>
      <trkpt lat="40.01744" lon="-7.40038">
        <ele>329.905</ele>
        <time>2019-10-17T11:16:40Z</time>
      </trkpt>
      <trkpt lat="40.01759" lon="-7.40041">
        <ele>332.008</ele>
        <time>2019-10-17T11:17:00Z</time>
      </trkpt>
      <trkpt lat="40.01767" lon="-7.40039">
        <ele>332.866</ele>
        <time>2019-10-17T11:17:20Z</time>
      </trkpt>
      <trkpt lat="40.01774" lon="-7.40035">
        <ele>333.684</ele>
        <time>2019-10-17T11:17:40Z</time>
      </trkpt>
      <trkpt lat="40.01787" lon="-7.40026">
        <ele>334.256</ele>
        <time>2019-10-17T11:18:00Z</time>
      </trkpt>
      <trkpt lat="40.01792" lon="-7.40024">
        <ele>334.366</ele>
        <time>2019-10-17T11:18:20Z</time>
      </trkpt>
      <trkpt lat="40.01797" lon="-7.40024">
        <ele>334.498</ele>
        <time>2019-10-17T11:18:40Z</time>
      </trkpt>
      <trkpt lat="40.01801" lon="-7.40026">
        <ele>334.779</ele>
        <time>2019-10-17T11:19:00Z</time>
      </trkpt>
      <trkpt lat="40.01806" lon="-7.4003">
        <ele>335.091</ele>
        <time>2019-10-17T11:19:20Z</time>
      </trkpt>
      <trkpt lat="40.01813" lon="-7.40035">
        <ele>335.171</ele>
        <time>2019-10-17T11:19:40Z</time>
      </trkpt>
      <trkpt lat="40.01886" lon="-7.40063">
        <ele>340.973</ele>
        <time>2019-10-17T11:20:00Z</time>
      </trkpt>
      <trkpt lat="40.01923" lon="-7.40073">
        <ele>344.485</ele>
        <time>2019-10-17T11:20:20Z</time>
      </trkpt>
      <trkpt lat="40.01933" lon="-7.40078">
        <ele>345.513</ele>
        <time>2019-10-17T11:20:40Z</time>
      </trkpt>
      <trkpt lat="40.01942" lon="-7.40082">
        <ele>346.708</ele>
        <time>2019-10-17T11:21:00Z</time>
      </trkpt>
      <trkpt lat="40.01952" lon="-7.40084">
        <ele>347.051</ele>
        <time>2019-10-17T11:21:20Z</time>
      </trkpt>
      <trkpt lat="40.01961" lon="-7.40082">
        <ele>347.049</ele>
        <time>2019-10-17T11:21:40Z</time>
      </trkpt>
      <trkpt lat="40.0197" lon="-7.40078">
        <ele>347.211</ele>
        <time>2019-10-17T11:22:00Z</time>
      </trkpt>
      <trkpt lat="40.01979" lon="-7.40073">
        <ele>347.071</ele>
        <time>2019-10-17T11:22:20Z</time>
      </trkpt>
      <trkpt lat="40.02055" lon="-7.40041">
        <ele>340.633</ele>
        <time>2019-10-17T11:22:40Z</time>
      </trkpt>
      <trkpt lat="40.02083" lon="-7.40037">
        <ele>338.414</ele>
        <time>2019-10-17T11:23:00Z</time>
      </trkpt>
      <trkpt lat="40.02101" lon="-7.40032">
        <ele>336.336</ele>
        <time>2019-10-17T11:23:20Z</time>
      </trkpt>
      <trkpt lat="40.0211" lon="-7.40026">
        <ele>335.136</ele>
        <time>2019-10-17T11:23:40Z</time>
      </trkpt>
      <trkpt lat="40.0213" lon="-7.40013">
        <ele>332.622</ele>
        <time>2019-10-17T11:24:00Z</time>
      </trkpt>
      <trkpt lat="40.02141" lon="-7.40008">
        <ele>331.462</ele>
        <time>2019-10-17T11:24:20Z</time>
      </trkpt>
      <trkpt lat="40.02154" lon="-7.40003">
        <ele>331.608</ele>
        <time>2019-10-17T11:24:40Z</time>
      </trkpt>
      <trkpt lat="40.02254" lon="-7.39986">
        <ele>336.108</ele>
        <time>2019-10-17T11:25:00Z</time>
      </trkpt>
      <trkpt lat="40.02264" lon="-7.39987">
        <ele>336.366</ele>
        <time>2019-10-17T11:25:20Z</time>
      </trkpt>
      <trkpt lat="40.02313" lon="-7.39985">
        <ele>337.394</ele>
        <time>2019-10-17T11:25:40Z</time>
      </trkpt>
      <trkpt lat="40.02325" lon="-7.3998">
        <ele>337.886</ele>
        <time>2019-10-17T11:26:00Z</time>
      </trkpt>
      <trkpt lat="40.02361" lon="-7.3997">
        <ele>338.826</ele>
        <time>2019-10-17T11:26:20Z</time>
      </trkpt>
      <trkpt lat="40.02373" lon="-7.39969">
        <ele>338.038</ele>
        <time>2019-10-17T11:26:40Z</time>
      </trkpt>
      <trkpt lat="40.02396" lon="-7.39968">
        <ele>336.879</ele>
        <time>2019-10-17T11:27:00Z</time>
      </trkpt>
      <trkpt lat="40.02407" lon="-7.39965">
        <ele>336.441</ele>
        <time>2019-10-17T11:27:20Z</time>
      </trkpt>
      <trkpt lat="40.02436" lon="-7.39954">
        <ele>335.091</ele>
        <time>2019-10-17T11:27:40Z</time>
      </trkpt>
      <trkpt lat="40.02454" lon="-7.39945">
        <ele>334.128</ele>
        <time>2019-10-17T11:28:00Z</time>
      </trkpt>
      <trkpt lat="40.02463" lon="-7.39943">
        <ele>333.789</ele>
        <time>2019-10-17T11:28:20Z</time>
      </trkpt>
      <trkpt lat="40.02473" lon="-7.39942">
        <ele>333.717</ele>
        <time>2019-10-17T11:28:40Z</time>
      </trkpt>
      <trkpt lat="40.02481" lon="-7.39941">
        <ele>333.908</ele>
        <time>2019-10-17T11:29:00Z</time>
      </trkpt>
      <trkpt lat="40.02488" lon="-7.3994">
        <ele>334.056</ele>
        <time>2019-10-17T11:29:20Z</time>
      </trkpt>
      <trkpt lat="40.02494" lon="-7.39939">
        <ele>334.014</ele>
        <time>2019-10-17T11:29:40Z</time>
      </trkpt>
      <trkpt lat="40.02499" lon="-7.39936">
        <ele>333.796</ele>
        <time>2019-10-17T11:30:00Z</time>
      </trkpt>
      <trkpt lat="40.02502" lon="-7.39931">
        <ele>333.176</ele>
        <time>2019-10-17T11:30:20Z</time>
      </trkpt>
      <trkpt lat="40.02504" lon="-7.39925">
        <ele>332.278</ele>
        <time>2019-10-17T11:30:40Z</time>
      </trkpt>
      <trkpt lat="40.02506" lon="-7.39916">
        <ele>331.069</ele>
        <time>2019-10-17T11:31:00Z</time>
      </trkpt>
      <trkpt lat="40.02508" lon="-7.39906">
        <ele>330.571</ele>
        <time>2019-10-17T11:31:20Z</time>
      </trkpt>
      <trkpt lat="40.02525" lon="-7.39811">
        <ele>331.671</ele>
        <time>2019-10-17T11:31:40Z</time>
      </trkpt>
      <trkpt lat="40.02529" lon="-7.398">
        <ele>332.261</ele>
        <time>2019-10-17T11:32:00Z</time>
      </trkpt>
      <trkpt lat="40.02535" lon="-7.3979">
        <ele>332.321</ele>
        <time>2019-10-17T11:32:20Z</time>
      </trkpt>
      <trkpt lat="40.02541" lon="-7.39781">
        <ele>332.413</ele>
        <time>2019-10-17T11:32:40Z</time>
      </trkpt>
      <trkpt lat="40.02547" lon="-7.39772">
        <ele>332.508</ele>
        <time>2019-10-17T11:33:00Z</time>
      </trkpt>
      <trkpt lat="40.02554" lon="-7.39756">
        <ele>332.81</ele>
        <time>2019-10-17T11:33:20Z</time>
      </trkpt>
      <trkpt lat="40.02555" lon="-7.39749">
        <ele>333.088</ele>
        <time>2019-10-17T11:33:40Z</time>
      </trkpt>
      <trkpt lat="40.02554" lon="-7.39743">
        <ele>333.39</ele>
        <time>2019-10-17T11:34:00Z</time>
      </trkpt>
      <trkpt lat="40.02551" lon="-7.39737">
        <ele>333.69</ele>
        <time>2019-10-17T11:34:20Z</time>
      </trkpt>
      <trkpt lat="40.0255" lon="-7.39737">
        <ele>333.682</ele>
        <time>2019-10-17T11:34:40Z</time>
      </trkpt>
      <trkpt lat="40.02548" lon="-7.39735">
        <ele>333.743</ele>
        <time>2019-10-17T11:35:00Z</time>
      </trkpt>
      <trkpt lat="40.02543" lon="-7.39732">
        <ele>333.815</ele>
        <time>2019-10-17T11:35:20Z</time>
      </trkpt>
      <trkpt lat="40.02536" lon="-7.39729">
        <ele>333.925</ele>
        <time>2019-10-17T11:35:40Z</time>
      </trkpt>
      <trkpt lat="40.02528" lon="-7.39725">
        <ele>334.044</ele>
        <time>2019-10-17T11:36:00Z</time>
      </trkpt>
      <trkpt lat="40.02519" lon="-7.3972">
        <ele>334.105</ele>
        <time>2019-10-17T11:36:20Z</time>
      </trkpt>
      <trkpt lat="40.02509" lon="-7.39712">
        <ele>334.415</ele>
        <time>2019-10-17T11:36:40Z</time>
      </trkpt>
      <trkpt lat="40.02499" lon="-7.39702">
        <ele>334.708</ele>
        <time>2019-10-17T11:37:00Z</time>
      </trkpt>
      <trkpt lat="40.0249" lon="-7.3969">
        <ele>335.148</ele>
        <time>2019-10-17T11:37:20Z</time>
      </trkpt>
      <trkpt lat="40.02481" lon="-7.39675">
        <ele>335.286</ele>
        <time>2019-10-17T11:37:40Z</time>
      </trkpt>
      <trkpt lat="40.02474" lon="-7.3966">
        <ele>335.838</ele>
        <time>2019-10-17T11:38:00Z</time>
      </trkpt>
      <trkpt lat="40.02468" lon="-7.39643">
        <ele>337.428</ele>
        <time>2019-10-17T11:38:20Z</time>
      </trkpt>
      <trkpt lat="40.02462" lon="-7.39626">
        <ele>339.15</ele>
        <time>2019-10-17T11:38:40Z</time>
      </trkpt>
      <trkpt lat="40.02457" lon="-7.39608">
        <ele>340.741</ele>
        <time>2019-10-17T11:39:00Z</time>
      </trkpt>
      <trkpt lat="40.02415" lon="-7.39487">
        <ele>346.643</ele>
        <time>2019-10-17T11:39:20Z</time>
      </trkpt>
      <trkpt lat="40.02406" lon="-7.39466">
        <ele>350.083</ele>
        <time>2019-10-17T11:39:40Z</time>
      </trkpt>
      <trkpt lat="40.02402" lon="-7.39457">
        <ele>351.593</ele>
        <time>2019-10-17T11:40:00Z</time>
      </trkpt>
      <trkpt lat="40.02399" lon="-7.39451">
        <ele>352.865</ele>
        <time>2019-10-17T11:40:20Z</time>
      </trkpt>
      <trkpt lat="40.02394" lon="-7.39447">
        <ele>354.021</ele>
        <time>2019-10-17T11:40:40Z</time>
      </trkpt>
      <trkpt lat="40.02387" lon="-7.39446">
        <ele>355.008</ele>
        <time>2019-10-17T11:41:00Z</time>
      </trkpt>
      <trkpt lat="40.0238" lon="-7.39445">
        <ele>355.513</ele>
        <time>2019-10-17T11:41:20Z</time>
      </trkpt>
      <trkpt lat="40.02373" lon="-7.39448">
        <ele>355.771</ele>
        <time>2019-10-17T11:41:40Z</time>
      </trkpt>
      <trkpt lat="40.02366" lon="-7.39452">
        <ele>355.613</ele>
        <time>2019-10-17T11:42:00Z</time>
      </trkpt>
      <trkpt lat="40.0236" lon="-7.39455">
        <ele>355.583</ele>
        <time>2019-10-17T11:42:20Z</time>
      </trkpt>
      <trkpt lat="40.02349" lon="-7.39459">
        <ele>355.665</ele>
        <time>2019-10-17T11:42:40Z</time>
      </trkpt>
      <trkpt lat="40.02345" lon="-7.39457">
        <ele>356.036</ele>
        <time>2019-10-17T11:43:00Z</time>
      </trkpt>
      <trkpt lat="40.02341" lon="-7.39453">
        <ele>356.798</ele>
        <time>2019-10-17T11:43:20Z</time>
      </trkpt>
      <trkpt lat="40.0234" lon="-7.39447">
        <ele>357.518</ele>
        <time>2019-10-17T11:43:40Z</time>
      </trkpt>
      <trkpt lat="40.0234" lon="-7.39441">
        <ele>358.184</ele>
        <time>2019-10-17T11:44:00Z</time>
      </trkpt>
      <trkpt lat="40.02341" lon="-7.39434">
        <ele>358.607</ele>
        <time>2019-10-17T11:44:20Z</time>
      </trkpt>
      <trkpt lat="40.02343" lon="-7.39429">
        <ele>359.017</ele>
        <time>2019-10-17T11:44:40Z</time>
      </trkpt>
      <trkpt lat="40.02343" lon="-7.39424">
        <ele>359.408</ele>
        <time>2019-10-17T11:45:00Z</time>
      </trkpt>
      <trkpt lat="40.02342" lon="-7.3942">
        <ele>359.782</ele>
        <time>2019-10-17T11:45:20Z</time>
      </trkpt>
      <trkpt lat="40.02339" lon="-7.39417">
        <ele>360.02</ele>
        <time>2019-10-17T11:45:40Z</time>
      </trkpt>
      <trkpt lat="40.02335" lon="-7.39414">
        <ele>360.162</ele>
        <time>2019-10-17T11:46:00Z</time>
      </trkpt>
      <trkpt lat="40.02332" lon="-7.39411">
        <ele>360.162</ele>
        <time>2019-10-17T11:46:20Z</time>
      </trkpt>
      <trkpt lat="40.02329" lon="-7.39408">
        <ele>360.134</ele>
        <time>2019-10-17T11:46:40Z</time>
      </trkpt>
      <trkpt lat="40.02327" lon="-7.39405">
        <ele>360.115</ele>
        <time>2019-10-17T11:47:00Z</time>
      </trkpt>
      <trkpt lat="40.02326" lon="-7.39403">
        <ele>360.187</ele>
        <time>2019-10-17T11:47:20Z</time>
      </trkpt>
      <trkpt lat="40.02327" lon="-7.39401">
        <ele>360.217</ele>
        <time>2019-10-17T11:47:40Z</time>
      </trkpt>
      <trkpt lat="40.02329" lon="-7.39397">
        <ele>360.443</ele>
        <time>2019-10-17T11:48:00Z</time>
      </trkpt>
      <trkpt lat="40.02331" lon="-7.39394">
        <ele>360.764</ele>
        <time>2019-10-17T11:48:20Z</time>
      </trkpt>
      <trkpt lat="40.02334" lon="-7.39392">
        <ele>360.91</ele>
        <time>2019-10-17T11:48:40Z</time>
      </trkpt>
      <trkpt lat="40.02338" lon="-7.39388">
        <ele>361.208</ele>
        <time>2019-10-17T11:49:00Z</time>
      </trkpt>
      <trkpt lat="40.02337" lon="-7.39388">
        <ele>361.168</ele>
        <time>2019-10-17T11:49:20Z</time>
      </trkpt>
      <trkpt lat="40.02337" lon="-7.39389">
        <ele>361.156</ele>
        <time>2019-10-17T11:49:40Z</time>
      </trkpt>
      <trkpt lat="40.0234" lon="-7.39388">
        <ele>361.218</ele>
        <time>2019-10-17T11:50:00Z</time>
      </trkpt>
      <trkpt lat="40.02344" lon="-7.39384">
        <ele>361.348</ele>
        <time>2019-10-17T11:50:20Z</time>
      </trkpt>
      <trkpt lat="40.02369" lon="-7.3936">
        <ele>360.72</ele>
        <time>2019-10-17T11:50:40Z</time>
      </trkpt>
      <trkpt lat="40.02371" lon="-7.39354">
        <ele>360.511</ele>
        <time>2019-10-17T11:51:00Z</time>
      </trkpt>
      <trkpt lat="40.02373" lon="-7.39347">
        <ele>360.363</ele>
        <time>2019-10-17T11:51:20Z</time>
      </trkpt>
      <trkpt lat="40.02375" lon="-7.39339">
        <ele>360.113</ele>
        <time>2019-10-17T11:51:40Z</time>
      </trkpt>
      <trkpt lat="40.02378" lon="-7.3933">
        <ele>359.948</ele>
        <time>2019-10-17T11:52:00Z</time>
      </trkpt>
      <trkpt lat="40.02381" lon="-7.39323">
        <ele>359.561</ele>
        <time>2019-10-17T11:52:20Z</time>
      </trkpt>
      <trkpt lat="40.02385" lon="-7.39317">
        <ele>359.317</ele>
        <time>2019-10-17T11:52:40Z</time>
      </trkpt>
      <trkpt lat="40.02388" lon="-7.3931">
        <ele>359.208</ele>
        <time>2019-10-17T11:53:00Z</time>
      </trkpt>
      <trkpt lat="40.02392" lon="-7.39303">
        <ele>358.688</ele>
        <time>2019-10-17T11:53:20Z</time>
      </trkpt>
      <trkpt lat="40.02395" lon="-7.39295">
        <ele>357.966</ele>
        <time>2019-10-17T11:53:40Z</time>
      </trkpt>
      <trkpt lat="40.02396" lon="-7.39286">
        <ele>357.348</ele>
        <time>2019-10-17T11:54:00Z</time>
      </trkpt>
      <trkpt lat="40.02397" lon="-7.39279">
        <ele>356.898</ele>
        <time>2019-10-17T11:54:20Z</time>
      </trkpt>
      <trkpt lat="40.02398" lon="-7.39274">
        <ele>356.58</ele>
        <time>2019-10-17T11:54:40Z</time>
      </trkpt>
      <trkpt lat="40.02397" lon="-7.3927">
        <ele>356.271</ele>
        <time>2019-10-17T11:55:00Z</time>
      </trkpt>
      <trkpt lat="40.02396" lon="-7.39264">
        <ele>355.963</ele>
        <time>2019-10-17T11:55:20Z</time>
      </trkpt>
      <trkpt lat="40.02394" lon="-7.39256">
        <ele>355.473</ele>
        <time>2019-10-17T11:55:40Z</time>
      </trkpt>
      <trkpt lat="40.02392" lon="-7.39248">
        <ele>355.061</ele>
        <time>2019-10-17T11:56:00Z</time>
      </trkpt>
      <trkpt lat="40.02384" lon="-7.39226">
        <ele>354.721</ele>
        <time>2019-10-17T11:56:20Z</time>
      </trkpt>
      <trkpt lat="40.02353" lon="-7.39153">
        <ele>351.613</ele>
        <time>2019-10-17T11:56:40Z</time>
      </trkpt>
      <trkpt lat="40.02336" lon="-7.39113">
        <ele>349.208</ele>
        <time>2019-10-17T11:57:00Z</time>
      </trkpt>
      <trkpt lat="40.02319" lon="-7.39077">
        <ele>346.78</ele>
        <time>2019-10-17T11:57:20Z</time>
      </trkpt>
      <trkpt lat="40.02307" lon="-7.39047">
        <ele>344.868</ele>
        <time>2019-10-17T11:57:40Z</time>
      </trkpt>
      <trkpt lat="40.02291" lon="-7.38994">
        <ele>339.03</ele>
        <time>2019-10-17T11:58:00Z</time>
      </trkpt>
      <trkpt lat="40.02281" lon="-7.38956">
        <ele>333.55</ele>
        <time>2019-10-17T11:58:20Z</time>
      </trkpt>
      <trkpt lat="40.02264" lon="-7.389">
        <ele>331.472</ele>
        <time>2019-10-17T11:58:40Z</time>
      </trkpt>
      <trkpt lat="40.0225" lon="-7.38828">
        <ele>329.113</ele>
        <time>2019-10-17T11:59:00Z</time>
      </trkpt>
      <trkpt lat="40.02248" lon="-7.38811">
        <ele>329.725</ele>
        <time>2019-10-17T11:59:20Z</time>
      </trkpt>
      <trkpt lat="40.02246" lon="-7.38753">
        <ele>330.145</ele>
        <time>2019-10-17T11:59:40Z</time>
      </trkpt>
      <trkpt lat="40.02247" lon="-7.38743">
        <ele>330.466</ele>
        <time>2019-10-17T12:00:00Z</time>
      </trkpt>
      <trkpt lat="40.02249" lon="-7.38735">
        <ele>330.629</ele>
        <time>2019-10-17T12:00:20Z</time>
      </trkpt>
      <trkpt lat="40.02252" lon="-7.38729">
        <ele>330.721</ele>
        <time>2019-10-17T12:00:40Z</time>
      </trkpt>
      <trkpt lat="40.02257" lon="-7.38725">
        <ele>330.908</ele>
        <time>2019-10-17T12:01:00Z</time>
      </trkpt>
      <trkpt lat="40.02264" lon="-7.38722">
        <ele>331.03</ele>
        <time>2019-10-17T12:01:20Z</time>
      </trkpt>
      <trkpt lat="40.02272" lon="-7.38718">
        <ele>331.418</ele>
        <time>2019-10-17T12:01:40Z</time>
      </trkpt>
      <trkpt lat="40.0228" lon="-7.38711">
        <ele>331.84</ele>
        <time>2019-10-17T12:02:00Z</time>
      </trkpt>
      <trkpt lat="40.02287" lon="-7.38704">
        <ele>332.41</ele>
        <time>2019-10-17T12:02:20Z</time>
      </trkpt>
      <trkpt lat="40.02292" lon="-7.38695">
        <ele>333.012</ele>
        <time>2019-10-17T12:02:40Z</time>
      </trkpt>
      <trkpt lat="40.02296" lon="-7.38684">
        <ele>334.023</ele>
        <time>2019-10-17T12:03:00Z</time>
      </trkpt>
      <trkpt lat="40.02298" lon="-7.38672">
        <ele>335.045</ele>
        <time>2019-10-17T12:03:20Z</time>
      </trkpt>
      <trkpt lat="40.023" lon="-7.38658">
        <ele>336.055</ele>
        <time>2019-10-17T12:03:40Z</time>
      </trkpt>
      <trkpt lat="40.02301" lon="-7.38643">
        <ele>337.062</ele>
        <time>2019-10-17T12:04:00Z</time>
      </trkpt>
      <trkpt lat="40.02303" lon="-7.38598">
        <ele>338.183</ele>
        <time>2019-10-17T12:04:20Z</time>
      </trkpt>
      <trkpt lat="40.023" lon="-7.38565">
        <ele>340.711</ele>
        <time>2019-10-17T12:04:40Z</time>
      </trkpt>
      <trkpt lat="40.023" lon="-7.38547">
        <ele>341.508</ele>
        <time>2019-10-17T12:05:00Z</time>
      </trkpt>
      <trkpt lat="40.02301" lon="-7.38529">
        <ele>341.55</ele>
        <time>2019-10-17T12:05:20Z</time>
      </trkpt>
      <trkpt lat="40.02303" lon="-7.38511">
        <ele>342.468</ele>
        <time>2019-10-17T12:05:40Z</time>
      </trkpt>
      <trkpt lat="40.0231" lon="-7.38457">
        <ele>345.38</ele>
        <time>2019-10-17T12:06:00Z</time>
      </trkpt>
      <trkpt lat="40.02311" lon="-7.3844">
        <ele>346.15</ele>
        <time>2019-10-17T12:06:20Z</time>
      </trkpt>
      <trkpt lat="40.0231" lon="-7.38423">
        <ele>347.172</ele>
        <time>2019-10-17T12:06:40Z</time>
      </trkpt>
      <trkpt lat="40.02304" lon="-7.38348">
        <ele>349.613</ele>
        <time>2019-10-17T12:07:00Z</time>
      </trkpt>
      <trkpt lat="40.02307" lon="-7.38251">
        <ele>351.075</ele>
        <time>2019-10-17T12:07:20Z</time>
      </trkpt>
      <trkpt lat="40.02306" lon="-7.38242">
        <ele>351.375</ele>
        <time>2019-10-17T12:07:40Z</time>
      </trkpt>
      <trkpt lat="40.02304" lon="-7.38236">
        <ele>351.799</ele>
        <time>2019-10-17T12:08:00Z</time>
      </trkpt>
      <trkpt lat="40.02301" lon="-7.38231">
        <ele>352.207</ele>
        <time>2019-10-17T12:08:20Z</time>
      </trkpt>
      <trkpt lat="40.02297" lon="-7.38225">
        <ele>352.827</ele>
        <time>2019-10-17T12:08:40Z</time>
      </trkpt>
      <trkpt lat="40.02292" lon="-7.38217">
        <ele>353.708</ele>
        <time>2019-10-17T12:09:00Z</time>
      </trkpt>
      <trkpt lat="40.02287" lon="-7.38207">
        <ele>354.623</ele>
        <time>2019-10-17T12:09:20Z</time>
      </trkpt>
      <trkpt lat="40.02283" lon="-7.38195">
        <ele>355.471</ele>
        <time>2019-10-17T12:09:40Z</time>
      </trkpt>
      <trkpt lat="40.02281" lon="-7.38184">
        <ele>356.583</ele>
        <time>2019-10-17T12:10:00Z</time>
      </trkpt>
      <trkpt lat="40.02281" lon="-7.38172">
        <ele>357.373</ele>
        <time>2019-10-17T12:10:20Z</time>
      </trkpt>
      <trkpt lat="40.02283" lon="-7.38158">
        <ele>358.635</ele>
        <time>2019-10-17T12:10:40Z</time>
      </trkpt>
      <trkpt lat="40.02287" lon="-7.38144">
        <ele>360.086</ele>
        <time>2019-10-17T12:11:00Z</time>
      </trkpt>
      <trkpt lat="40.0229" lon="-7.38128">
        <ele>361.058</ele>
        <time>2019-10-17T12:11:20Z</time>
      </trkpt>
      <trkpt lat="40.02294" lon="-7.38096">
        <ele>361.918</ele>
        <time>2019-10-17T12:11:40Z</time>
      </trkpt>
      <trkpt lat="40.02296" lon="-7.3807">
        <ele>361.225</ele>
        <time>2019-10-17T12:12:00Z</time>
      </trkpt>
      <trkpt lat="40.02295" lon="-7.38059">
        <ele>360.726</ele>
        <time>2019-10-17T12:12:20Z</time>
      </trkpt>
      <trkpt lat="40.02292" lon="-7.38048">
        <ele>360.508</ele>
        <time>2019-10-17T12:12:40Z</time>
      </trkpt>
      <trkpt lat="40.02288" lon="-7.38037">
        <ele>360.508</ele>
        <time>2019-10-17T12:13:00Z</time>
      </trkpt>
      <trkpt lat="40.02281" lon="-7.38027">
        <ele>360.676</ele>
        <time>2019-10-17T12:13:20Z</time>
      </trkpt>
      <trkpt lat="40.02272" lon="-7.38017">
        <ele>361.374</ele>
        <time>2019-10-17T12:13:40Z</time>
      </trkpt>
      <trkpt lat="40.02262" lon="-7.38006">
        <ele>362.466</ele>
        <time>2019-10-17T12:14:00Z</time>
      </trkpt>
      <trkpt lat="40.0222" lon="-7.37973">
        <ele>367.096</ele>
        <time>2019-10-17T12:14:20Z</time>
      </trkpt>
      <trkpt lat="40.0221" lon="-7.37966">
        <ele>366.858</ele>
        <time>2019-10-17T12:14:40Z</time>
      </trkpt>
      <trkpt lat="40.02201" lon="-7.37961">
        <ele>366.669</ele>
        <time>2019-10-17T12:15:00Z</time>
      </trkpt>
      <trkpt lat="40.02193" lon="-7.37957">
        <ele>366.471</ele>
        <time>2019-10-17T12:15:20Z</time>
      </trkpt>
      <trkpt lat="40.02187" lon="-7.37951">
        <ele>365.961</ele>
        <time>2019-10-17T12:15:40Z</time>
      </trkpt>
      <trkpt lat="40.02183" lon="-7.37944">
        <ele>365.691</ele>
        <time>2019-10-17T12:16:00Z</time>
      </trkpt>
      <trkpt lat="40.02181" lon="-7.37934">
        <ele>365.981</ele>
        <time>2019-10-17T12:16:20Z</time>
      </trkpt>
      <trkpt lat="40.0218" lon="-7.37922">
        <ele>366.319</ele>
        <time>2019-10-17T12:16:40Z</time>
      </trkpt>
      <trkpt lat="40.02175" lon="-7.3781">
        <ele>367.708</ele>
        <time>2019-10-17T12:17:00Z</time>
      </trkpt>
      <trkpt lat="40.02168" lon="-7.3769">
        <ele>371.293</ele>
        <time>2019-10-17T12:17:20Z</time>
      </trkpt>
      <trkpt lat="40.02168" lon="-7.37656">
        <ele>372.471</ele>
        <time>2019-10-17T12:17:40Z</time>
      </trkpt>
      <trkpt lat="40.02168" lon="-7.3761">
        <ele>371.923</ele>
        <time>2019-10-17T12:18:00Z</time>
      </trkpt>
      <trkpt lat="40.02169" lon="-7.37608">
        <ele>371.653</ele>
        <time>2019-10-17T12:18:20Z</time>
      </trkpt>
      <trkpt lat="40.02172" lon="-7.37607">
        <ele>371.485</ele>
        <time>2019-10-17T12:18:40Z</time>
      </trkpt>
      <trkpt lat="40.02176" lon="-7.37606">
        <ele>371.266</ele>
        <time>2019-10-17T12:19:00Z</time>
      </trkpt>
      <trkpt lat="40.02181" lon="-7.37605">
        <ele>370.978</ele>
        <time>2019-10-17T12:19:20Z</time>
      </trkpt>
      <trkpt lat="40.02187" lon="-7.37603">
        <ele>370.618</ele>
        <time>2019-10-17T12:19:40Z</time>
      </trkpt>
      <trkpt lat="40.02193" lon="-7.376">
        <ele>370.246</ele>
        <time>2019-10-17T12:20:00Z</time>
      </trkpt>
      <trkpt lat="40.02235" lon="-7.37579">
        <ele>371.288</ele>
        <time>2019-10-17T12:20:20Z</time>
      </trkpt>
      <trkpt lat="40.02243" lon="-7.37572">
        <ele>371.316</ele>
        <time>2019-10-17T12:20:40Z</time>
      </trkpt>
      <trkpt lat="40.02252" lon="-7.37564">
        <ele>371.308</ele>
        <time>2019-10-17T12:21:00Z</time>
      </trkpt>
      <trkpt lat="40.0226" lon="-7.37554">
        <ele>370.958</ele>
        <time>2019-10-17T12:21:20Z</time>
      </trkpt>
      <trkpt lat="40.02267" lon="-7.37544">
        <ele>370.326</ele>
        <time>2019-10-17T12:21:40Z</time>
      </trkpt>
      <trkpt lat="40.02272" lon="-7.37534">
        <ele>369.968</ele>
        <time>2019-10-17T12:22:00Z</time>
      </trkpt>
      <trkpt lat="40.02275" lon="-7.37523">
        <ele>369.628</ele>
        <time>2019-10-17T12:22:20Z</time>
      </trkpt>
      <trkpt lat="40.02277" lon="-7.37511">
        <ele>369.33</ele>
        <time>2019-10-17T12:22:40Z</time>
      </trkpt>
      <trkpt lat="40.02281" lon="-7.375">
        <ele>369.211</ele>
        <time>2019-10-17T12:23:00Z</time>
      </trkpt>
      <trkpt lat="40.02285" lon="-7.3749">
        <ele>368.933</ele>
        <time>2019-10-17T12:23:20Z</time>
      </trkpt>
      <trkpt lat="40.02291" lon="-7.37483">
        <ele>369.033</ele>
        <time>2019-10-17T12:23:40Z</time>
      </trkpt>
      <trkpt lat="40.02298" lon="-7.37479">
        <ele>369.434</ele>
        <time>2019-10-17T12:24:00Z</time>
      </trkpt>
      <trkpt lat="40.02306" lon="-7.37476">
        <ele>370.155</ele>
        <time>2019-10-17T12:24:20Z</time>
      </trkpt>
      <trkpt lat="40.02316" lon="-7.37474">
        <ele>370.41</ele>
        <time>2019-10-17T12:24:40Z</time>
      </trkpt>
      <trkpt lat="40.02327" lon="-7.37474">
        <ele>370.808</ele>
        <time>2019-10-17T12:25:00Z</time>
      </trkpt>
      <trkpt lat="40.02339" lon="-7.37474">
        <ele>370.677</ele>
        <time>2019-10-17T12:25:20Z</time>
      </trkpt>
      <trkpt lat="40.0235" lon="-7.37473">
        <ele>369.835</ele>
        <time>2019-10-17T12:25:40Z</time>
      </trkpt>
      <trkpt lat="40.02361" lon="-7.37469">
        <ele>369.047</ele>
        <time>2019-10-17T12:26:00Z</time>
      </trkpt>
      <trkpt lat="40.02373" lon="-7.37465">
        <ele>368.337</ele>
        <time>2019-10-17T12:26:20Z</time>
      </trkpt>
      <trkpt lat="40.02384" lon="-7.37462">
        <ele>367.779</ele>
        <time>2019-10-17T12:26:40Z</time>
      </trkpt>
      <trkpt lat="40.02394" lon="-7.37459">
        <ele>367.24</ele>
        <time>2019-10-17T12:27:00Z</time>
      </trkpt>
      <trkpt lat="40.02403" lon="-7.37456">
        <ele>366.972</ele>
        <time>2019-10-17T12:27:20Z</time>
      </trkpt>
      <trkpt lat="40.02413" lon="-7.3745">
        <ele>366.722</ele>
        <time>2019-10-17T12:27:40Z</time>
      </trkpt>
      <trkpt lat="40.02423" lon="-7.37444">
        <ele>366.889</ele>
        <time>2019-10-17T12:28:00Z</time>
      </trkpt>
      <trkpt lat="40.02432" lon="-7.37437">
        <ele>366.306</ele>
        <time>2019-10-17T12:28:20Z</time>
      </trkpt>
      <trkpt lat="40.02442" lon="-7.37431">
        <ele>365.626</ele>
        <time>2019-10-17T12:28:40Z</time>
      </trkpt>
      <trkpt lat="40.02452" lon="-7.37426">
        <ele>365.108</ele>
        <time>2019-10-17T12:29:00Z</time>
      </trkpt>
      <trkpt lat="40.02461" lon="-7.37421">
        <ele>364.532</ele>
        <time>2019-10-17T12:29:20Z</time>
      </trkpt>
      <trkpt lat="40.0251" lon="-7.37392">
        <ele>364.32</ele>
        <time>2019-10-17T12:29:40Z</time>
      </trkpt>
      <trkpt lat="40.02521" lon="-7.37389">
        <ele>364.792</ele>
        <time>2019-10-17T12:30:00Z</time>
      </trkpt>
      <trkpt lat="40.02556" lon="-7.37383">
        <ele>367.072</ele>
        <time>2019-10-17T12:30:20Z</time>
      </trkpt>
      <trkpt lat="40.02568" lon="-7.37378">
        <ele>366.564</ele>
        <time>2019-10-17T12:30:40Z</time>
      </trkpt>
      <trkpt lat="40.0258" lon="-7.37371">
        <ele>366.185</ele>
        <time>2019-10-17T12:31:00Z</time>
      </trkpt>
      <trkpt lat="40.02592" lon="-7.37363">
        <ele>365.797</ele>
        <time>2019-10-17T12:31:20Z</time>
      </trkpt>
      <trkpt lat="40.02604" lon="-7.37353">
        <ele>365.177</ele>
        <time>2019-10-17T12:31:40Z</time>
      </trkpt>
      <trkpt lat="40.02616" lon="-7.37342">
        <ele>365.133</ele>
        <time>2019-10-17T12:32:00Z</time>
      </trkpt>
      <trkpt lat="40.02637" lon="-7.37318">
        <ele>366.423</ele>
        <time>2019-10-17T12:32:20Z</time>
      </trkpt>
      <trkpt lat="40.02646" lon="-7.37307">
        <ele>367.515</ele>
        <time>2019-10-17T12:32:40Z</time>
      </trkpt>
      <trkpt lat="40.02656" lon="-7.37296">
        <ele>368.208</ele>
        <time>2019-10-17T12:33:00Z</time>
      </trkpt>
      <trkpt lat="40.0275" lon="-7.3722">
        <ele>364.897</ele>
        <time>2019-10-17T12:33:20Z</time>
      </trkpt>
      <trkpt lat="40.02762" lon="-7.37215">
        <ele>364.135</ele>
        <time>2019-10-17T12:33:40Z</time>
      </trkpt>
      <trkpt lat="40.02775" lon="-7.37211">
        <ele>363.697</ele>
        <time>2019-10-17T12:34:00Z</time>
      </trkpt>
      <trkpt lat="40.02788" lon="-7.37208">
        <ele>363.587</ele>
        <time>2019-10-17T12:34:20Z</time>
      </trkpt>
      <trkpt lat="40.02801" lon="-7.37207">
        <ele>363.599</ele>
        <time>2019-10-17T12:34:40Z</time>
      </trkpt>
      <trkpt lat="40.02814" lon="-7.37208">
        <ele>363.57</ele>
        <time>2019-10-17T12:35:00Z</time>
      </trkpt>
      <trkpt lat="40.02829" lon="-7.3721">
        <ele>363.552</ele>
        <time>2019-10-17T12:35:20Z</time>
      </trkpt>
      <trkpt lat="40.02843" lon="-7.37212">
        <ele>363.952</ele>
        <time>2019-10-17T12:35:40Z</time>
      </trkpt>
      <trkpt lat="40.02912" lon="-7.37242">
        <ele>367.651</ele>
        <time>2019-10-17T12:36:00Z</time>
      </trkpt>
      <trkpt lat="40.02932" lon="-7.37256">
        <ele>367.701</ele>
        <time>2019-10-17T12:36:20Z</time>
      </trkpt>
      <trkpt lat="40.02941" lon="-7.37265">
        <ele>367.711</ele>
        <time>2019-10-17T12:36:40Z</time>
      </trkpt>
      <trkpt lat="40.02955" lon="-7.3728">
        <ele>367.308</ele>
        <time>2019-10-17T12:37:00Z</time>
      </trkpt>
      <trkpt lat="40.02963" lon="-7.37286">
        <ele>366.879</ele>
        <time>2019-10-17T12:37:20Z</time>
      </trkpt>
      <trkpt lat="40.02972" lon="-7.37287">
        <ele>366.387</ele>
        <time>2019-10-17T12:37:40Z</time>
      </trkpt>
      <trkpt lat="40.02983" lon="-7.37287">
        <ele>365.849</ele>
        <time>2019-10-17T12:38:00Z</time>
      </trkpt>
      <trkpt lat="40.02992" lon="-7.37286">
        <ele>365.419</ele>
        <time>2019-10-17T12:38:20Z</time>
      </trkpt>
      <trkpt lat="40.03023" lon="-7.37284">
        <ele>365.881</ele>
        <time>2019-10-17T12:38:40Z</time>
      </trkpt>
      <trkpt lat="40.03029" lon="-7.3728">
        <ele>366.282</ele>
        <time>2019-10-17T12:39:00Z</time>
      </trkpt>
      <trkpt lat="40.031" lon="-7.37223">
        <ele>372.694</ele>
        <time>2019-10-17T12:39:20Z</time>
      </trkpt>
      <trkpt lat="40.03175" lon="-7.37161">
        <ele>370.584</ele>
        <time>2019-10-17T12:39:40Z</time>
      </trkpt>
      <trkpt lat="40.03184" lon="-7.37154">
        <ele>369.988</ele>
        <time>2019-10-17T12:40:00Z</time>
      </trkpt>
      <trkpt lat="40.03208" lon="-7.37137">
        <ele>369.024</ele>
        <time>2019-10-17T12:40:20Z</time>
      </trkpt>
      <trkpt lat="40.03217" lon="-7.37133">
        <ele>369.026</ele>
        <time>2019-10-17T12:40:40Z</time>
      </trkpt>
      <trkpt lat="40.03226" lon="-7.37129">
        <ele>368.908</ele>
        <time>2019-10-17T12:41:00Z</time>
      </trkpt>
      <trkpt lat="40.03255" lon="-7.37121">
        <ele>367.982</ele>
        <time>2019-10-17T12:41:20Z</time>
      </trkpt>
      <trkpt lat="40.03266" lon="-7.37121">
        <ele>367.62</ele>
        <time>2019-10-17T12:41:40Z</time>
      </trkpt>
      <trkpt lat="40.03277" lon="-7.3712">
        <ele>367.432</ele>
        <time>2019-10-17T12:42:00Z</time>
      </trkpt>
      <trkpt lat="40.03289" lon="-7.37118">
        <ele>367.362</ele>
        <time>2019-10-17T12:42:20Z</time>
      </trkpt>
      <trkpt lat="40.03304" lon="-7.37114">
        <ele>367.144</ele>
        <time>2019-10-17T12:42:40Z</time>
      </trkpt>
      <trkpt lat="40.03389" lon="-7.37092">
        <ele>367.355</ele>
        <time>2019-10-17T12:43:00Z</time>
      </trkpt>
      <trkpt lat="40.03485" lon="-7.37075">
        <ele>369.037</ele>
        <time>2019-10-17T12:43:20Z</time>
      </trkpt>
      <trkpt lat="40.03518" lon="-7.37065">
        <ele>369.177</ele>
        <time>2019-10-17T12:43:40Z</time>
      </trkpt>
      <trkpt lat="40.03526" lon="-7.37064">
        <ele>369.277</ele>
        <time>2019-10-17T12:44:00Z</time>
      </trkpt>
      <trkpt lat="40.03534" lon="-7.37064">
        <ele>369.261</ele>
        <time>2019-10-17T12:44:20Z</time>
      </trkpt>
      <trkpt lat="40.03543" lon="-7.37067">
        <ele>369.227</ele>
        <time>2019-10-17T12:44:40Z</time>
      </trkpt>
      <trkpt lat="40.03553" lon="-7.37071">
        <ele>369.108</ele>
        <time>2019-10-17T12:45:00Z</time>
      </trkpt>
      <trkpt lat="40.03563" lon="-7.37077">
        <ele>368.221</ele>
        <time>2019-10-17T12:45:20Z</time>
      </trkpt>
      <trkpt lat="40.03575" lon="-7.37083">
        <ele>366.989</ele>
        <time>2019-10-17T12:45:40Z</time>
      </trkpt>
      <trkpt lat="40.03589" lon="-7.37088">
        <ele>365.621</ele>
        <time>2019-10-17T12:46:00Z</time>
      </trkpt>
      <trkpt lat="40.03605" lon="-7.37093">
        <ele>364.591</ele>
        <time>2019-10-17T12:46:20Z</time>
      </trkpt>
      <trkpt lat="40.03717" lon="-7.37112">
        <ele>367.073</ele>
        <time>2019-10-17T12:46:40Z</time>
      </trkpt>
      <trkpt lat="40.03802" lon="-7.37115">
        <ele>367.214</ele>
        <time>2019-10-17T12:47:00Z</time>
      </trkpt>
      <trkpt lat="40.03815" lon="-7.3712">
        <ele>368.056</ele>
        <time>2019-10-17T12:47:20Z</time>
      </trkpt>
      <trkpt lat="40.03826" lon="-7.37126">
        <ele>369.036</ele>
        <time>2019-10-17T12:47:40Z</time>
      </trkpt>
      <trkpt lat="40.03838" lon="-7.37135">
        <ele>370.269</ele>
        <time>2019-10-17T12:48:00Z</time>
      </trkpt>
      <trkpt lat="40.03849" lon="-7.37145">
        <ele>371.304</ele>
        <time>2019-10-17T12:48:20Z</time>
      </trkpt>
      <trkpt lat="40.03859" lon="-7.37156">
        <ele>372.424</ele>
        <time>2019-10-17T12:48:40Z</time>
      </trkpt>
      <trkpt lat="40.03884" lon="-7.37183">
        <ele>373.508</ele>
        <time>2019-10-17T12:49:00Z</time>
      </trkpt>
      <trkpt lat="40.03892" lon="-7.37188">
        <ele>373.89</ele>
        <time>2019-10-17T12:49:20Z</time>
      </trkpt>
      <trkpt lat="40.03914" lon="-7.372">
        <ele>374.298</ele>
        <time>2019-10-17T12:49:40Z</time>
      </trkpt>
      <trkpt lat="40.03923" lon="-7.372">
        <ele>374.46</ele>
        <time>2019-10-17T12:50:00Z</time>
      </trkpt>
      <trkpt lat="40.03932" lon="-7.37198">
        <ele>374.64</ele>
        <time>2019-10-17T12:50:20Z</time>
      </trkpt>
      <trkpt lat="40.03939" lon="-7.37192">
        <ele>374.722</ele>
        <time>2019-10-17T12:50:40Z</time>
      </trkpt>
      <trkpt lat="40.03947" lon="-7.37185">
        <ele>374.393</ele>
        <time>2019-10-17T12:51:00Z</time>
      </trkpt>
      <trkpt lat="40.03955" lon="-7.37177">
        <ele>374.045</ele>
        <time>2019-10-17T12:51:20Z</time>
      </trkpt>
      <trkpt lat="40.03964" lon="-7.37172">
        <ele>373.975</ele>
        <time>2019-10-17T12:51:40Z</time>
      </trkpt>
      <trkpt lat="40.03974" lon="-7.37168">
        <ele>374.145</ele>
        <time>2019-10-17T12:52:00Z</time>
      </trkpt>
      <trkpt lat="40.03984" lon="-7.37165">
        <ele>374.447</ele>
        <time>2019-10-17T12:52:20Z</time>
      </trkpt>
      <trkpt lat="40.03993" lon="-7.37164">
        <ele>374.711</ele>
        <time>2019-10-17T12:52:40Z</time>
      </trkpt>
      <trkpt lat="40.04001" lon="-7.37165">
        <ele>375.008</ele>
        <time>2019-10-17T12:53:00Z</time>
      </trkpt>
      <trkpt lat="40.04009" lon="-7.37168">
        <ele>375.098</ele>
        <time>2019-10-17T12:53:20Z</time>
      </trkpt>
      <trkpt lat="40.04018" lon="-7.37172">
        <ele>375.086</ele>
        <time>2019-10-17T12:53:40Z</time>
      </trkpt>
      <trkpt lat="40.04027" lon="-7.37178">
        <ele>375.018</ele>
        <time>2019-10-17T12:54:00Z</time>
      </trkpt>
      <trkpt lat="40.04035" lon="-7.37184">
        <ele>374.818</ele>
        <time>2019-10-17T12:54:20Z</time>
      </trkpt>
      <trkpt lat="40.04042" lon="-7.37194">
        <ele>374.55</ele>
        <time>2019-10-17T12:54:40Z</time>
      </trkpt>
      <trkpt lat="40.0405" lon="-7.37206">
        <ele>374.581</ele>
        <time>2019-10-17T12:55:00Z</time>
      </trkpt>
      <trkpt lat="40.04079" lon="-7.37246">
        <ele>374.913</ele>
        <time>2019-10-17T12:55:20Z</time>
      </trkpt>
      <trkpt lat="40.04084" lon="-7.37254">
        <ele>375.173</ele>
        <time>2019-10-17T12:55:40Z</time>
      </trkpt>
      <trkpt lat="40.04088" lon="-7.37262">
        <ele>375.693</ele>
        <time>2019-10-17T12:56:00Z</time>
      </trkpt>
      <trkpt lat="40.04092" lon="-7.37267">
        <ele>375.965</ele>
        <time>2019-10-17T12:56:20Z</time>
      </trkpt>
      <trkpt lat="40.04099" lon="-7.37272">
        <ele>376.421</ele>
        <time>2019-10-17T12:56:40Z</time>
      </trkpt>
      <trkpt lat="40.04107" lon="-7.37277">
        <ele>376.808</ele>
        <time>2019-10-17T12:57:00Z</time>
      </trkpt>
      <trkpt lat="40.04114" lon="-7.37282">
        <ele>377.473</ele>
        <time>2019-10-17T12:57:20Z</time>
      </trkpt>
      <trkpt lat="40.04121" lon="-7.37287">
        <ele>378.051</ele>
        <time>2019-10-17T12:57:40Z</time>
      </trkpt>
      <trkpt lat="40.04128" lon="-7.37294">
        <ele>378.413</ele>
        <time>2019-10-17T12:58:00Z</time>
      </trkpt>
      <trkpt lat="40.04135" lon="-7.37301">
        <ele>378.823</ele>
        <time>2019-10-17T12:58:20Z</time>
      </trkpt>
      <trkpt lat="40.04142" lon="-7.37306">
        <ele>379.115</ele>
        <time>2019-10-17T12:58:40Z</time>
      </trkpt>
      <trkpt lat="40.04149" lon="-7.37308">
        <ele>379.366</ele>
        <time>2019-10-17T12:59:00Z</time>
      </trkpt>
      <trkpt lat="40.04157" lon="-7.37309">
        <ele>379.688</ele>
        <time>2019-10-17T12:59:20Z</time>
      </trkpt>
      <trkpt lat="40.04165" lon="-7.37309">
        <ele>379.888</ele>
        <time>2019-10-17T12:59:40Z</time>
      </trkpt>
      <trkpt lat="40.04171" lon="-7.37308">
        <ele>379.997</ele>
        <time>2019-10-17T13:00:00Z</time>
      </trkpt>
      <trkpt lat="40.04176" lon="-7.37308">
        <ele>379.923</ele>
        <time>2019-10-17T13:00:20Z</time>
      </trkpt>
      <trkpt lat="40.04182" lon="-7.37307">
        <ele>380.025</ele>
        <time>2019-10-17T13:00:40Z</time>
      </trkpt>
      <trkpt lat="40.04183" lon="-7.37307">
        <ele>380.008</ele>
        <time>2019-10-17T13:01:00Z</time>
      </trkpt>
      <trkpt lat="40.04182" lon="-7.37307">
        <ele>379.933</ele>
        <time>2019-10-17T13:01:20Z</time>
      </trkpt>
      <trkpt lat="40.04182" lon="-7.37308">
        <ele>379.961</ele>
        <time>2019-10-17T13:01:40Z</time>
      </trkpt>
      <trkpt lat="40.04182" lon="-7.37308">
        <ele>379.913</ele>
        <time>2019-10-17T13:02:00Z</time>
      </trkpt>
      <trkpt lat="40.04182" lon="-7.37308">
        <ele>379.933</ele>
        <time>2019-10-17T13:02:20Z</time>
      </trkpt>
      <trkpt lat="40.04182" lon="-7.37308">
        <ele>379.975</ele>
        <time>2019-10-17T13:02:40Z</time>
      </trkpt>
      <trkpt lat="40.04182" lon="-7.37308">
        <ele>379.996</ele>
        <time>2019-10-17T13:03:00Z</time>
      </trkpt>
      <trkpt lat="40.04181" lon="-7.37308">
        <ele>379.968</ele>
        <time>2019-10-17T13:03:20Z</time>
      </trkpt>
      <trkpt lat="40.04181" lon="-7.37309">
        <ele>379.938</ele>
        <time>2019-10-17T13:03:40Z</time>
      </trkpt>
      <trkpt lat="40.04183" lon="-7.3731">
        <ele>379.838</ele>
        <time>2019-10-17T13:04:00Z</time>
      </trkpt>
      <trkpt lat="40.04184" lon="-7.37311">
        <ele>379.87</ele>
        <time>2019-10-17T13:04:20Z</time>
      </trkpt>
      <trkpt lat="40.04182" lon="-7.37308">
        <ele>379.917</ele>
        <time>2019-10-17T13:04:40Z</time>
      </trkpt>
      <trkpt lat="40.04181" lon="-7.37308">
        <ele>379.908</ele>
        <time>2019-10-17T13:05:00Z</time>
      </trkpt>
      <trkpt lat="40.04181" lon="-7.37308">
        <ele>379.917</ele>
        <time>2019-10-17T13:05:20Z</time>
      </trkpt>
      <trkpt lat="40.04193" lon="-7.37295">
        <ele>380.455</ele>
        <time>2019-10-17T13:05:40Z</time>
      </trkpt>
      <trkpt lat="40.04224" lon="-7.37248">
        <ele>381.047</ele>
        <time>2019-10-17T13:06:00Z</time>
      </trkpt>
      <trkpt lat="40.04227" lon="-7.37241">
        <ele>381.077</ele>
        <time>2019-10-17T13:06:20Z</time>
      </trkpt>
      <trkpt lat="40.04229" lon="-7.37241">
        <ele>381.219</ele>
        <time>2019-10-17T13:06:40Z</time>
      </trkpt>
      <trkpt lat="40.04231" lon="-7.3724">
        <ele>381.35</ele>
        <time>2019-10-17T13:07:00Z</time>
      </trkpt>
      <trkpt lat="40.04233" lon="-7.37238">
        <ele>381.482</ele>
        <time>2019-10-17T13:07:20Z</time>
      </trkpt>
      <trkpt lat="40.04236" lon="-7.37233">
        <ele>381.432</ele>
        <time>2019-10-17T13:07:40Z</time>
      </trkpt>
      <trkpt lat="40.0424" lon="-7.37228">
        <ele>381.528</ele>
        <time>2019-10-17T13:08:00Z</time>
      </trkpt>
      <trkpt lat="40.0428" lon="-7.37174">
        <ele>381.089</ele>
        <time>2019-10-17T13:08:20Z</time>
      </trkpt>
      <trkpt lat="40.04293" lon="-7.37157">
        <ele>378.917</ele>
        <time>2019-10-17T13:08:40Z</time>
      </trkpt>
      <trkpt lat="40.04364" lon="-7.37073">
        <ele>375.708</ele>
        <time>2019-10-17T13:09:00Z</time>
      </trkpt>
      <trkpt lat="40.04455" lon="-7.37022">
        <ele>378.476</ele>
        <time>2019-10-17T13:09:20Z</time>
      </trkpt>
      <trkpt lat="40.04514" lon="-7.37005">
        <ele>380.984</ele>
        <time>2019-10-17T13:09:40Z</time>
      </trkpt>
      <trkpt lat="40.04532" lon="-7.37">
        <ele>382.326</ele>
        <time>2019-10-17T13:10:00Z</time>
      </trkpt>
      <trkpt lat="40.04552" lon="-7.36995">
        <ele>383.756</ele>
        <time>2019-10-17T13:10:20Z</time>
      </trkpt>
      <trkpt lat="40.04698" lon="-7.36952">
        <ele>381.768</ele>
        <time>2019-10-17T13:10:40Z</time>
      </trkpt>
      <trkpt lat="40.04848" lon="-7.36909">
        <ele>381.679</ele>
        <time>2019-10-17T13:11:00Z</time>
      </trkpt>
      <trkpt lat="40.04997" lon="-7.36868">
        <ele>379.791</ele>
        <time>2019-10-17T13:11:20Z</time>
      </trkpt>
      <trkpt lat="40.05061" lon="-7.36847">
        <ele>383.051</ele>
        <time>2019-10-17T13:11:40Z</time>
      </trkpt>
      <trkpt lat="40.05066" lon="-7.36838">
        <ele>383.077</ele>
        <time>2019-10-17T13:12:00Z</time>
      </trkpt>
      <trkpt lat="40.05068" lon="-7.36829">
        <ele>382.961</ele>
        <time>2019-10-17T13:12:20Z</time>
      </trkpt>
      <trkpt lat="40.05069" lon="-7.36817">
        <ele>382.727</ele>
        <time>2019-10-17T13:12:40Z</time>
      </trkpt>
      <trkpt lat="40.05043" lon="-7.36763">
        <ele>379.708</ele>
        <time>2019-10-17T13:13:00Z</time>
      </trkpt>
      <trkpt lat="40.05015" lon="-7.36702">
        <ele>381.671</ele>
        <time>2019-10-17T13:13:20Z</time>
      </trkpt>
      <trkpt lat="40.05011" lon="-7.36679">
        <ele>381.279</ele>
        <time>2019-10-17T13:13:40Z</time>
      </trkpt>
      <trkpt lat="40.05009" lon="-7.36663">
        <ele>380.921</ele>
        <time>2019-10-17T13:14:00Z</time>
      </trkpt>
      <trkpt lat="40.05005" lon="-7.36635">
        <ele>380.531</ele>
        <time>2019-10-17T13:14:20Z</time>
      </trkpt>
      <trkpt lat="40.04972" lon="-7.36587">
        <ele>379.483</ele>
        <time>2019-10-17T13:14:40Z</time>
      </trkpt>
      <trkpt lat="40.04969" lon="-7.36552">
        <ele>378.194</ele>
        <time>2019-10-17T13:15:00Z</time>
      </trkpt>
      <trkpt lat="40.04969" lon="-7.36546">
        <ele>378.166</ele>
        <time>2019-10-17T13:15:20Z</time>
      </trkpt>
      <trkpt lat="40.04968" lon="-7.36532">
        <ele>378.046</ele>
        <time>2019-10-17T13:15:40Z</time>
      </trkpt>
      <trkpt lat="40.04965" lon="-7.36384">
        <ele>377.791</ele>
        <time>2019-10-17T13:16:00Z</time>
      </trkpt>
      <trkpt lat="40.0496" lon="-7.36253">
        <ele>379.481</ele>
        <time>2019-10-17T13:16:20Z</time>
      </trkpt>
      <trkpt lat="40.04958" lon="-7.36149">
        <ele>382.819</ele>
        <time>2019-10-17T13:16:40Z</time>
      </trkpt>
      <trkpt lat="40.0496" lon="-7.3614">
        <ele>383.108</ele>
        <time>2019-10-17T13:17:00Z</time>
      </trkpt>
      <trkpt lat="40.04966" lon="-7.36131">
        <ele>383.793</ele>
        <time>2019-10-17T13:17:20Z</time>
      </trkpt>
      <trkpt lat="40.04972" lon="-7.36122">
        <ele>384.641</ele>
        <time>2019-10-17T13:17:40Z</time>
      </trkpt>
      <trkpt lat="40.04979" lon="-7.36113">
        <ele>385.293</ele>
        <time>2019-10-17T13:18:00Z</time>
      </trkpt>
      <trkpt lat="40.05016" lon="-7.36052">
        <ele>386.623</ele>
        <time>2019-10-17T13:18:20Z</time>
      </trkpt>
      <trkpt lat="40.05035" lon="-7.36008">
        <ele>387.055</ele>
        <time>2019-10-17T13:18:40Z</time>
      </trkpt>
      <trkpt lat="40.05096" lon="-7.3587">
        <ele>385.326</ele>
        <time>2019-10-17T13:19:00Z</time>
      </trkpt>
      <trkpt lat="40.051" lon="-7.35857">
        <ele>385.678</ele>
        <time>2019-10-17T13:19:20Z</time>
      </trkpt>
      <trkpt lat="40.05103" lon="-7.35844">
        <ele>385.538</ele>
        <time>2019-10-17T13:19:40Z</time>
      </trkpt>
      <trkpt lat="40.05105" lon="-7.35829">
        <ele>385.435</ele>
        <time>2019-10-17T13:20:00Z</time>
      </trkpt>
      <trkpt lat="40.05107" lon="-7.35812">
        <ele>385.086</ele>
        <time>2019-10-17T13:20:20Z</time>
      </trkpt>
      <trkpt lat="40.05111" lon="-7.35779">
        <ele>384.014</ele>
        <time>2019-10-17T13:20:40Z</time>
      </trkpt>
      <trkpt lat="40.05115" lon="-7.35764">
        <ele>384.008</ele>
        <time>2019-10-17T13:21:00Z</time>
      </trkpt>
      <trkpt lat="40.05121" lon="-7.35748">
        <ele>384.127</ele>
        <time>2019-10-17T13:21:20Z</time>
      </trkpt>
      <trkpt lat="40.05131" lon="-7.35721">
        <ele>385.045</ele>
        <time>2019-10-17T13:21:40Z</time>
      </trkpt>
      <trkpt lat="40.05133" lon="-7.35711">
        <ele>385.547</ele>
        <time>2019-10-17T13:22:00Z</time>
      </trkpt>
      <trkpt lat="40.05132" lon="-7.35704">
        <ele>385.867</ele>
        <time>2019-10-17T13:22:20Z</time>
      </trkpt>
      <trkpt lat="40.0513" lon="-7.35699">
        <ele>386.159</ele>
        <time>2019-10-17T13:22:40Z</time>
      </trkpt>
      <trkpt lat="40.05126" lon="-7.35694">
        <ele>386.52</ele>
        <time>2019-10-17T13:23:00Z</time>
      </trkpt>
      <trkpt lat="40.05123" lon="-7.35692">
        <ele>386.642</ele>
        <time>2019-10-17T13:23:20Z</time>
      </trkpt>
      <trkpt lat="40.05118" lon="-7.35689">
        <ele>386.932</ele>
        <time>2019-10-17T13:23:40Z</time>
      </trkpt>
      <trkpt lat="40.05113" lon="-7.35683">
        <ele>387.326</ele>
        <time>2019-10-17T13:24:00Z</time>
      </trkpt>
      <trkpt lat="40.05107" lon="-7.35676">
        <ele>387.947</ele>
        <time>2019-10-17T13:24:20Z</time>
      </trkpt>
      <trkpt lat="40.05102" lon="-7.35667">
        <ele>388.611</ele>
        <time>2019-10-17T13:24:40Z</time>
      </trkpt>
      <trkpt lat="40.051" lon="-7.35657">
        <ele>389.208</ele>
        <time>2019-10-17T13:25:00Z</time>
      </trkpt>
      <trkpt lat="40.05099" lon="-7.35646">
        <ele>389.646</ele>
        <time>2019-10-17T13:25:20Z</time>
      </trkpt>
      <trkpt lat="40.05101" lon="-7.35633">
        <ele>389.894</ele>
        <time>2019-10-17T13:25:40Z</time>
      </trkpt>
      <trkpt lat="40.05105" lon="-7.3562">
        <ele>389.616</ele>
        <time>2019-10-17T13:26:00Z</time>
      </trkpt>
      <trkpt lat="40.0511" lon="-7.35605">
        <ele>389.146</ele>
        <time>2019-10-17T13:26:20Z</time>
      </trkpt>
      <trkpt lat="40.05115" lon="-7.35591">
        <ele>388.518</ele>
        <time>2019-10-17T13:26:40Z</time>
      </trkpt>
      <trkpt lat="40.05121" lon="-7.35579">
        <ele>387.819</ele>
        <time>2019-10-17T13:27:00Z</time>
      </trkpt>
      <trkpt lat="40.05129" lon="-7.35569">
        <ele>386.971</ele>
        <time>2019-10-17T13:27:20Z</time>
      </trkpt>
      <trkpt lat="40.05143" lon="-7.3555">
        <ele>385.591</ele>
        <time>2019-10-17T13:27:40Z</time>
      </trkpt>
      <trkpt lat="40.05149" lon="-7.35538">
        <ele>384.629</ele>
        <time>2019-10-17T13:28:00Z</time>
      </trkpt>
      <trkpt lat="40.05165" lon="-7.35496">
        <ele>381.9</ele>
        <time>2019-10-17T13:28:20Z</time>
      </trkpt>
      <trkpt lat="40.05174" lon="-7.35467">
        <ele>380.42</ele>
        <time>2019-10-17T13:28:40Z</time>
      </trkpt>
      <trkpt lat="40.0519" lon="-7.35426">
        <ele>379.108</ele>
        <time>2019-10-17T13:29:00Z</time>
      </trkpt>
      <trkpt lat="40.05196" lon="-7.35415">
        <ele>378.976</ele>
        <time>2019-10-17T13:29:20Z</time>
      </trkpt>
      <trkpt lat="40.05203" lon="-7.35405">
        <ele>378.464</ele>
        <time>2019-10-17T13:29:40Z</time>
      </trkpt>
      <trkpt lat="40.0521" lon="-7.35396">
        <ele>378.156</ele>
        <time>2019-10-17T13:30:00Z</time>
      </trkpt>
      <trkpt lat="40.05219" lon="-7.35389">
        <ele>378.026</ele>
        <time>2019-10-17T13:30:20Z</time>
      </trkpt>
      <trkpt lat="40.05226" lon="-7.35385">
        <ele>377.848</ele>
        <time>2019-10-17T13:30:40Z</time>
      </trkpt>
      <trkpt lat="40.05232" lon="-7.35382">
        <ele>377.619</ele>
        <time>2019-10-17T13:31:00Z</time>
      </trkpt>
      <trkpt lat="40.05238" lon="-7.35381">
        <ele>377.541</ele>
        <time>2019-10-17T13:31:20Z</time>
      </trkpt>
      <trkpt lat="40.05245" lon="-7.35382">
        <ele>377.341</ele>
        <time>2019-10-17T13:31:40Z</time>
      </trkpt>
      <trkpt lat="40.05253" lon="-7.35381">
        <ele>377.179</ele>
        <time>2019-10-17T13:32:00Z</time>
      </trkpt>
      <trkpt lat="40.05261" lon="-7.35379">
        <ele>376.605</ele>
        <time>2019-10-17T13:32:20Z</time>
      </trkpt>
      <trkpt lat="40.05267" lon="-7.35374">
        <ele>376.325</ele>
        <time>2019-10-17T13:32:40Z</time>
      </trkpt>
      <trkpt lat="40.05271" lon="-7.35367">
        <ele>376.308</ele>
        <time>2019-10-17T13:33:00Z</time>
      </trkpt>
      <trkpt lat="40.05273" lon="-7.35359">
        <ele>376.531</ele>
        <time>2019-10-17T13:33:20Z</time>
      </trkpt>
      <trkpt lat="40.05273" lon="-7.35347">
        <ele>377.129</ele>
        <time>2019-10-17T13:33:40Z</time>
      </trkpt>
      <trkpt lat="40.05273" lon="-7.35334">
        <ele>377.831</ele>
        <time>2019-10-17T13:34:00Z</time>
      </trkpt>
      <trkpt lat="40.05273" lon="-7.35261">
        <ele>375.261</ele>
        <time>2019-10-17T13:34:20Z</time>
      </trkpt>
      <trkpt lat="40.05271" lon="-7.35248">
        <ele>374.643</ele>
        <time>2019-10-17T13:34:40Z</time>
      </trkpt>
      <trkpt lat="40.05257" lon="-7.35184">
        <ele>369.784</ele>
        <time>2019-10-17T13:35:00Z</time>
      </trkpt>
      <trkpt lat="40.05253" lon="-7.35152">
        <ele>367.066</ele>
        <time>2019-10-17T13:35:20Z</time>
      </trkpt>
      <trkpt lat="40.05253" lon="-7.35137">
        <ele>365.996</ele>
        <time>2019-10-17T13:35:40Z</time>
      </trkpt>
      <trkpt lat="40.05255" lon="-7.35122">
        <ele>365.534</ele>
        <time>2019-10-17T13:36:00Z</time>
      </trkpt>
      <trkpt lat="40.05258" lon="-7.35105">
        <ele>365.555</ele>
        <time>2019-10-17T13:36:20Z</time>
      </trkpt>
      <trkpt lat="40.05263" lon="-7.35088">
        <ele>365.91</ele>
        <time>2019-10-17T13:36:40Z</time>
      </trkpt>
      <trkpt lat="40.05296" lon="-7.34984">
        <ele>368.208</ele>
        <time>2019-10-17T13:37:00Z</time>
      </trkpt>
      <trkpt lat="40.05302" lon="-7.3497">
        <ele>368.037</ele>
        <time>2019-10-17T13:37:20Z</time>
      </trkpt>
      <trkpt lat="40.05315" lon="-7.34946">
        <ele>367.095</ele>
        <time>2019-10-17T13:37:40Z</time>
      </trkpt>
      <trkpt lat="40.05323" lon="-7.34935">
        <ele>366.247</ele>
        <time>2019-10-17T13:38:00Z</time>
      </trkpt>
      <trkpt lat="40.05362" lon="-7.3488">
        <ele>363.687</ele>
        <time>2019-10-17T13:38:20Z</time>
      </trkpt>
      <trkpt lat="40.05376" lon="-7.34851">
        <ele>361.129</ele>
        <time>2019-10-17T13:38:40Z</time>
      </trkpt>
      <trkpt lat="40.05377" lon="-7.34842">
        <ele>360.77</ele>
        <time>2019-10-17T13:39:00Z</time>
      </trkpt>
      <trkpt lat="40.05376" lon="-7.34831">
        <ele>360.442</ele>
        <time>2019-10-17T13:39:20Z</time>
      </trkpt>
      <trkpt lat="40.05372" lon="-7.34819">
        <ele>360.072</ele>
        <time>2019-10-17T13:39:40Z</time>
      </trkpt>
      <trkpt lat="40.0537" lon="-7.34808">
        <ele>359.484</ele>
        <time>2019-10-17T13:40:00Z</time>
      </trkpt>
      <trkpt lat="40.05368" lon="-7.34797">
        <ele>358.907</ele>
        <time>2019-10-17T13:40:20Z</time>
      </trkpt>
      <trkpt lat="40.05369" lon="-7.34785">
        <ele>358.317</ele>
        <time>2019-10-17T13:40:40Z</time>
      </trkpt>
      <trkpt lat="40.05372" lon="-7.34772">
        <ele>357.408</ele>
        <time>2019-10-17T13:41:00Z</time>
      </trkpt>
      <trkpt lat="40.05377" lon="-7.3476">
        <ele>356.082</ele>
        <time>2019-10-17T13:41:20Z</time>
      </trkpt>
      <trkpt lat="40.05383" lon="-7.34748">
        <ele>354.95</ele>
        <time>2019-10-17T13:41:40Z</time>
      </trkpt>
      <trkpt lat="40.0539" lon="-7.34736">
        <ele>354.522</ele>
        <time>2019-10-17T13:42:00Z</time>
      </trkpt>
      <trkpt lat="40.05397" lon="-7.34725">
        <ele>353.882</ele>
        <time>2019-10-17T13:42:20Z</time>
      </trkpt>
      <trkpt lat="40.05419" lon="-7.34688">
        <ele>352.754</ele>
        <time>2019-10-17T13:42:40Z</time>
      </trkpt>
      <trkpt lat="40.05428" lon="-7.34663">
        <ele>351.435</ele>
        <time>2019-10-17T13:43:00Z</time>
      </trkpt>
      <trkpt lat="40.05429" lon="-7.3465">
        <ele>350.927</ele>
        <time>2019-10-17T13:43:20Z</time>
      </trkpt>
      <trkpt lat="40.05427" lon="-7.34635">
        <ele>350.437</ele>
        <time>2019-10-17T13:43:40Z</time>
      </trkpt>
      <trkpt lat="40.05426" lon="-7.34619">
        <ele>349.234</ele>
        <time>2019-10-17T13:44:00Z</time>
      </trkpt>
      <trkpt lat="40.05425" lon="-7.34601">
        <ele>347.855</ele>
        <time>2019-10-17T13:44:20Z</time>
      </trkpt>
      <trkpt lat="40.05436" lon="-7.34493">
        <ele>341.21</ele>
        <time>2019-10-17T13:44:40Z</time>
      </trkpt>
      <trkpt lat="40.05437" lon="-7.34476">
        <ele>341.008</ele>
        <time>2019-10-17T13:45:00Z</time>
      </trkpt>
      <trkpt lat="40.05438" lon="-7.34445">
        <ele>340.247</ele>
        <time>2019-10-17T13:45:20Z</time>
      </trkpt>
      <trkpt lat="40.0544" lon="-7.34431">
        <ele>340.155</ele>
        <time>2019-10-17T13:45:40Z</time>
      </trkpt>
      <trkpt lat="40.05443" lon="-7.34417">
        <ele>340.027</ele>
        <time>2019-10-17T13:46:00Z</time>
      </trkpt>
      <trkpt lat="40.05446" lon="-7.34401">
        <ele>340.697</ele>
        <time>2019-10-17T13:46:20Z</time>
      </trkpt>
      <trkpt lat="40.05485" lon="-7.34263">
        <ele>346.649</ele>
        <time>2019-10-17T13:46:40Z</time>
      </trkpt>
      <trkpt lat="40.05497" lon="-7.34205">
        <ele>348.76</ele>
        <time>2019-10-17T13:47:00Z</time>
      </trkpt>
      <trkpt lat="40.05497" lon="-7.34186">
        <ele>349.192</ele>
        <time>2019-10-17T13:47:20Z</time>
      </trkpt>
      <trkpt lat="40.05497" lon="-7.34169">
        <ele>349.132</ele>
        <time>2019-10-17T13:47:40Z</time>
      </trkpt>
      <trkpt lat="40.05497" lon="-7.34141">
        <ele>350.081</ele>
        <time>2019-10-17T13:48:00Z</time>
      </trkpt>
      <trkpt lat="40.05497" lon="-7.34114">
        <ele>349.361</ele>
        <time>2019-10-17T13:48:20Z</time>
      </trkpt>
      <trkpt lat="40.05496" lon="-7.34107">
        <ele>349.617</ele>
        <time>2019-10-17T13:48:40Z</time>
      </trkpt>
      <trkpt lat="40.05494" lon="-7.341">
        <ele>350.008</ele>
        <time>2019-10-17T13:49:00Z</time>
      </trkpt>
      <trkpt lat="40.05493" lon="-7.34094">
        <ele>350.442</ele>
        <time>2019-10-17T13:49:20Z</time>
      </trkpt>
      <trkpt lat="40.05491" lon="-7.34087">
        <ele>350.84</ele>
        <time>2019-10-17T13:49:40Z</time>
      </trkpt>
      <trkpt lat="40.0549" lon="-7.3408">
        <ele>351.272</ele>
        <time>2019-10-17T13:50:00Z</time>
      </trkpt>
      <trkpt lat="40.05489" lon="-7.34072">
        <ele>351.682</ele>
        <time>2019-10-17T13:50:20Z</time>
      </trkpt>
      <trkpt lat="40.05489" lon="-7.34063">
        <ele>352.284</ele>
        <time>2019-10-17T13:50:40Z</time>
      </trkpt>
      <trkpt lat="40.0549" lon="-7.34023">
        <ele>355.435</ele>
        <time>2019-10-17T13:51:00Z</time>
      </trkpt>
      <trkpt lat="40.05498" lon="-7.33975">
        <ele>357.837</ele>
        <time>2019-10-17T13:51:20Z</time>
      </trkpt>
      <trkpt lat="40.05501" lon="-7.33967">
        <ele>358.267</ele>
        <time>2019-10-17T13:51:40Z</time>
      </trkpt>
      <trkpt lat="40.05505" lon="-7.33959">
        <ele>358.742</ele>
        <time>2019-10-17T13:52:00Z</time>
      </trkpt>
      <trkpt lat="40.05515" lon="-7.33941">
        <ele>359.722</ele>
        <time>2019-10-17T13:52:20Z</time>
      </trkpt>
      <trkpt lat="40.05517" lon="-7.33935">
        <ele>360.114</ele>
        <time>2019-10-17T13:52:40Z</time>
      </trkpt>
      <trkpt lat="40.05519" lon="-7.3393">
        <ele>360.608</ele>
        <time>2019-10-17T13:53:00Z</time>
      </trkpt>
      <trkpt lat="40.05521" lon="-7.33925">
        <ele>360.978</ele>
        <time>2019-10-17T13:53:20Z</time>
      </trkpt>
      <trkpt lat="40.0552" lon="-7.33922">
        <ele>361.176</ele>
        <time>2019-10-17T13:53:40Z</time>
      </trkpt>
      <trkpt lat="40.05519" lon="-7.33922">
        <ele>361.038</ele>
        <time>2019-10-17T13:54:00Z</time>
      </trkpt>
      <trkpt lat="40.0552" lon="-7.33923">
        <ele>361.128</ele>
        <time>2019-10-17T13:54:20Z</time>
      </trkpt>
      <trkpt lat="40.05519" lon="-7.33922">
        <ele>361.12</ele>
        <time>2019-10-17T13:54:40Z</time>
      </trkpt>
      <trkpt lat="40.05519" lon="-7.33922">
        <ele>361.031</ele>
        <time>2019-10-17T13:55:00Z</time>
      </trkpt>
      <trkpt lat="40.05518" lon="-7.33923">
        <ele>360.953</ele>
        <time>2019-10-17T13:55:20Z</time>
      </trkpt>
      <trkpt lat="40.05519" lon="-7.33922">
        <ele>361.033</ele>
        <time>2019-10-17T13:55:40Z</time>
      </trkpt>
      <trkpt lat="40.0552" lon="-7.33918">
        <ele>361.399</ele>
        <time>2019-10-17T13:56:00Z</time>
      </trkpt>
      <trkpt lat="40.05521" lon="-7.33918">
        <ele>361.407</ele>
        <time>2019-10-17T13:56:20Z</time>
      </trkpt>
      <trkpt lat="40.05523" lon="-7.33924">
        <ele>361.227</ele>
        <time>2019-10-17T13:56:40Z</time>
      </trkpt>
      <trkpt lat="40.05521" lon="-7.33928">
        <ele>360.808</ele>
        <time>2019-10-17T13:57:00Z</time>
      </trkpt>
      <trkpt lat="40.05517" lon="-7.33934">
        <ele>360.363</ele>
        <time>2019-10-17T13:57:20Z</time>
      </trkpt>
      <trkpt lat="40.05499" lon="-7.3397">
        <ele>358.051</ele>
        <time>2019-10-17T13:57:40Z</time>
      </trkpt>
      <trkpt lat="40.05496" lon="-7.33984">
        <ele>357.343</ele>
        <time>2019-10-17T13:58:00Z</time>
      </trkpt>
      <trkpt lat="40.05493" lon="-7.34">
        <ele>356.543</ele>
        <time>2019-10-17T13:58:20Z</time>
      </trkpt>
      <trkpt lat="40.0549" lon="-7.34018">
        <ele>355.715</ele>
        <time>2019-10-17T13:58:40Z</time>
      </trkpt>
      <trkpt lat="40.05489" lon="-7.34035">
        <ele>354.576</ele>
        <time>2019-10-17T13:59:00Z</time>
      </trkpt>
      <trkpt lat="40.05489" lon="-7.34053">
        <ele>352.918</ele>
        <time>2019-10-17T13:59:20Z</time>
      </trkpt>
      <trkpt lat="40.0549" lon="-7.3407">
        <ele>351.888</ele>
        <time>2019-10-17T13:59:40Z</time>
      </trkpt>
      <trkpt lat="40.05494" lon="-7.34112">
        <ele>349.478</ele>
        <time>2019-10-17T14:00:00Z</time>
      </trkpt>
      <trkpt lat="40.05495" lon="-7.34123">
        <ele>349.733</ele>
        <time>2019-10-17T14:00:20Z</time>
      </trkpt>
      <trkpt lat="40.05495" lon="-7.34135">
        <ele>350.126</ele>
        <time>2019-10-17T14:00:40Z</time>
      </trkpt>
      <trkpt lat="40.05495" lon="-7.34189">
        <ele>349.208</ele>
        <time>2019-10-17T14:01:00Z</time>
      </trkpt>
      <trkpt lat="40.05491" lon="-7.34235">
        <ele>347.931</ele>
        <time>2019-10-17T14:01:20Z</time>
      </trkpt>
      <trkpt lat="40.05487" lon="-7.34253">
        <ele>347.379</ele>
        <time>2019-10-17T14:01:40Z</time>
      </trkpt>
      <trkpt lat="40.05476" lon="-7.34289">
        <ele>345.141</ele>
        <time>2019-10-17T14:02:00Z</time>
      </trkpt>
      <trkpt lat="40.05454" lon="-7.3437">
        <ele>341.661</ele>
        <time>2019-10-17T14:02:20Z</time>
      </trkpt>
      <trkpt lat="40.05438" lon="-7.34437">
        <ele>340.243</ele>
        <time>2019-10-17T14:02:40Z</time>
      </trkpt>
      <trkpt lat="40.05438" lon="-7.34449">
        <ele>340.474</ele>
        <time>2019-10-17T14:03:00Z</time>
      </trkpt>
      <trkpt lat="40.05437" lon="-7.34465">
        <ele>340.866</ele>
        <time>2019-10-17T14:03:20Z</time>
      </trkpt>
      <trkpt lat="40.05436" lon="-7.34503">
        <ele>341.446</ele>
        <time>2019-10-17T14:03:40Z</time>
      </trkpt>
      <trkpt lat="40.05433" lon="-7.34523">
        <ele>342.223</ele>
        <time>2019-10-17T14:04:00Z</time>
      </trkpt>
      <trkpt lat="40.05428" lon="-7.34602">
        <ele>347.883</ele>
        <time>2019-10-17T14:04:20Z</time>
      </trkpt>
      <trkpt lat="40.05431" lon="-7.34653">
        <ele>351.011</ele>
        <time>2019-10-17T14:04:40Z</time>
      </trkpt>
      <trkpt lat="40.05431" lon="-7.34665">
        <ele>351.408</ele>
        <time>2019-10-17T14:05:00Z</time>
      </trkpt>
      <trkpt lat="40.05428" lon="-7.34678">
        <ele>352.066</ele>
        <time>2019-10-17T14:05:20Z</time>
      </trkpt>
      <trkpt lat="40.05422" lon="-7.34692">
        <ele>352.764</ele>
        <time>2019-10-17T14:05:40Z</time>
      </trkpt>
      <trkpt lat="40.05414" lon="-7.34706">
        <ele>353.026</ele>
        <time>2019-10-17T14:06:00Z</time>
      </trkpt>
      <trkpt lat="40.05406" lon="-7.34719">
        <ele>353.336</ele>
        <time>2019-10-17T14:06:20Z</time>
      </trkpt>
      <trkpt lat="40.05397" lon="-7.34731">
        <ele>354.178</ele>
        <time>2019-10-17T14:06:40Z</time>
      </trkpt>
      <trkpt lat="40.05375" lon="-7.34771">
        <ele>357.319</ele>
        <time>2019-10-17T14:07:00Z</time>
      </trkpt>
      <trkpt lat="40.05371" lon="-7.34783">
        <ele>358.361</ele>
        <time>2019-10-17T14:07:20Z</time>
      </trkpt>
      <trkpt lat="40.05369" lon="-7.34795">
        <ele>358.831</ele>
        <time>2019-10-17T14:07:40Z</time>
      </trkpt>
      <trkpt lat="40.0537" lon="-7.34807">
        <ele>359.479</ele>
        <time>2019-10-17T14:08:00Z</time>
      </trkpt>
      <trkpt lat="40.05372" lon="-7.34818">
        <ele>359.905</ele>
        <time>2019-10-17T14:08:20Z</time>
      </trkpt>
      <trkpt lat="40.05375" lon="-7.34828">
        <ele>360.325</ele>
        <time>2019-10-17T14:08:40Z</time>
      </trkpt>
      <trkpt lat="40.05378" lon="-7.34838">
        <ele>360.508</ele>
        <time>2019-10-17T14:09:00Z</time>
      </trkpt>
      <trkpt lat="40.05379" lon="-7.34847">
        <ele>360.781</ele>
        <time>2019-10-17T14:09:20Z</time>
      </trkpt>
      <trkpt lat="40.05377" lon="-7.34856">
        <ele>361.159</ele>
        <time>2019-10-17T14:09:40Z</time>
      </trkpt>
      <trkpt lat="40.05372" lon="-7.34866">
        <ele>361.941</ele>
        <time>2019-10-17T14:10:00Z</time>
      </trkpt>
      <trkpt lat="40.05365" lon="-7.34877">
        <ele>363.191</ele>
        <time>2019-10-17T14:10:20Z</time>
      </trkpt>
      <trkpt lat="40.05341" lon="-7.34916">
        <ele>365.523</ele>
        <time>2019-10-17T14:10:40Z</time>
      </trkpt>
      <trkpt lat="40.05332" lon="-7.34928">
        <ele>365.734</ele>
        <time>2019-10-17T14:11:00Z</time>
      </trkpt>
      <trkpt lat="40.05312" lon="-7.34953">
        <ele>367.346</ele>
        <time>2019-10-17T14:11:20Z</time>
      </trkpt>
      <trkpt lat="40.05304" lon="-7.34969">
        <ele>368.016</ele>
        <time>2019-10-17T14:11:40Z</time>
      </trkpt>
      <trkpt lat="40.05296" lon="-7.34986">
        <ele>368.296</ele>
        <time>2019-10-17T14:12:00Z</time>
      </trkpt>
      <trkpt lat="40.05273" lon="-7.35053">
        <ele>366.931</ele>
        <time>2019-10-17T14:12:20Z</time>
      </trkpt>
      <trkpt lat="40.05272" lon="-7.35057">
        <ele>366.824</ele>
        <time>2019-10-17T14:12:40Z</time>
      </trkpt>
      <trkpt lat="40.05272" lon="-7.35059">
        <ele>366.708</ele>
        <time>2019-10-17T14:13:00Z</time>
      </trkpt>
      <trkpt lat="40.05272" lon="-7.35059">
        <ele>366.793</ele>
        <time>2019-10-17T14:13:20Z</time>
      </trkpt>
      <trkpt lat="40.05268" lon="-7.35072">
        <ele>366.311</ele>
        <time>2019-10-17T14:13:40Z</time>
      </trkpt>
      <trkpt lat="40.05266" lon="-7.35072">
        <ele>366.283</ele>
        <time>2019-10-17T14:14:00Z</time>
      </trkpt>
      <trkpt lat="40.05266" lon="-7.35071">
        <ele>366.343</ele>
        <time>2019-10-17T14:14:20Z</time>
      </trkpt>
      <trkpt lat="40.05267" lon="-7.35067">
        <ele>366.445</ele>
        <time>2019-10-17T14:14:40Z</time>
      </trkpt>
      <trkpt lat="40.05269" lon="-7.35061">
        <ele>366.566</ele>
        <time>2019-10-17T14:15:00Z</time>
      </trkpt>
      <trkpt lat="40.05271" lon="-7.35055">
        <ele>366.868</ele>
        <time>2019-10-17T14:15:20Z</time>
      </trkpt>
      <trkpt lat="40.05273" lon="-7.35049">
        <ele>367.158</ele>
        <time>2019-10-17T14:15:40Z</time>
      </trkpt>
      <trkpt lat="40.05275" lon="-7.35043">
        <ele>367.397</ele>
        <time>2019-10-17T14:16:00Z</time>
      </trkpt>
      <trkpt lat="40.05277" lon="-7.35038">
        <ele>367.623</ele>
        <time>2019-10-17T14:16:20Z</time>
      </trkpt>
      <trkpt lat="40.05292" lon="-7.34995">
        <ele>368.425</ele>
        <time>2019-10-17T14:16:40Z</time>
      </trkpt>
      <trkpt lat="40.05316" lon="-7.34945">
        <ele>366.908</ele>
        <time>2019-10-17T14:17:00Z</time>
      </trkpt>
      <trkpt lat="40.05324" lon="-7.34934">
        <ele>366.213</ele>
        <time>2019-10-17T14:17:20Z</time>
      </trkpt>
      <trkpt lat="40.0534" lon="-7.34914">
        <ele>365.481</ele>
        <time>2019-10-17T14:17:40Z</time>
      </trkpt>
      <trkpt lat="40.05373" lon="-7.3486">
        <ele>361.713</ele>
        <time>2019-10-17T14:18:00Z</time>
      </trkpt>
      <trkpt lat="40.05376" lon="-7.34849">
        <ele>361.083</ele>
        <time>2019-10-17T14:18:20Z</time>
      </trkpt>
      <trkpt lat="40.05377" lon="-7.34839">
        <ele>360.625</ele>
        <time>2019-10-17T14:18:40Z</time>
      </trkpt>
      <trkpt lat="40.05376" lon="-7.34828">
        <ele>360.326</ele>
        <time>2019-10-17T14:19:00Z</time>
      </trkpt>
      <trkpt lat="40.05372" lon="-7.34817">
        <ele>359.968</ele>
        <time>2019-10-17T14:19:20Z</time>
      </trkpt>
      <trkpt lat="40.0537" lon="-7.34806">
        <ele>359.358</ele>
        <time>2019-10-17T14:19:40Z</time>
      </trkpt>
      <trkpt lat="40.05369" lon="-7.34795">
        <ele>358.852</ele>
        <time>2019-10-17T14:20:00Z</time>
      </trkpt>
      <trkpt lat="40.0537" lon="-7.34785">
        <ele>358.353</ele>
        <time>2019-10-17T14:20:20Z</time>
      </trkpt>
      <trkpt lat="40.05372" lon="-7.34774">
        <ele>357.608</ele>
        <time>2019-10-17T14:20:40Z</time>
      </trkpt>
      <trkpt lat="40.05376" lon="-7.34764">
        <ele>356.508</ele>
        <time>2019-10-17T14:21:00Z</time>
      </trkpt>
      <trkpt lat="40.05382" lon="-7.34753">
        <ele>355.339</ele>
        <time>2019-10-17T14:21:20Z</time>
      </trkpt>
      <trkpt lat="40.05427" lon="-7.34672">
        <ele>351.827</ele>
        <time>2019-10-17T14:21:40Z</time>
      </trkpt>
      <trkpt lat="40.05429" lon="-7.3466">
        <ele>351.349</ele>
        <time>2019-10-17T14:22:00Z</time>
      </trkpt>
      <trkpt lat="40.05429" lon="-7.34647">
        <ele>350.999</ele>
        <time>2019-10-17T14:22:20Z</time>
      </trkpt>
      <trkpt lat="40.05428" lon="-7.34633">
        <ele>350.281</ele>
        <time>2019-10-17T14:22:40Z</time>
      </trkpt>
      <trkpt lat="40.05427" lon="-7.34616">
        <ele>349.072</ele>
        <time>2019-10-17T14:23:00Z</time>
      </trkpt>
      <trkpt lat="40.05426" lon="-7.34579">
        <ele>346.134</ele>
        <time>2019-10-17T14:23:20Z</time>
      </trkpt>
      <trkpt lat="40.05427" lon="-7.3456">
        <ele>344.974</ele>
        <time>2019-10-17T14:23:40Z</time>
      </trkpt>
      <trkpt lat="40.05429" lon="-7.34541">
        <ele>343.567</ele>
        <time>2019-10-17T14:24:00Z</time>
      </trkpt>
      <trkpt lat="40.05438" lon="-7.34483">
        <ele>341.181</ele>
        <time>2019-10-17T14:24:20Z</time>
      </trkpt>
      <trkpt lat="40.05441" lon="-7.34424">
        <ele>340.019</ele>
        <time>2019-10-17T14:24:40Z</time>
      </trkpt>
      <trkpt lat="40.05444" lon="-7.3441">
        <ele>340.208</ele>
        <time>2019-10-17T14:25:00Z</time>
      </trkpt>
      <trkpt lat="40.05469" lon="-7.3432">
        <ele>343.22</ele>
        <time>2019-10-17T14:25:20Z</time>
      </trkpt>
      <trkpt lat="40.05487" lon="-7.34257">
        <ele>347.098</ele>
        <time>2019-10-17T14:25:40Z</time>
      </trkpt>
      <trkpt lat="40.05496" lon="-7.34217">
        <ele>348.34</ele>
        <time>2019-10-17T14:26:00Z</time>
      </trkpt>
      <trkpt lat="40.05497" lon="-7.34198">
        <ele>349.08</ele>
        <time>2019-10-17T14:26:20Z</time>
      </trkpt>
      <trkpt lat="40.05498" lon="-7.34179">
        <ele>349.122</ele>
        <time>2019-10-17T14:26:40Z</time>
      </trkpt>
      <trkpt lat="40.05496" lon="-7.34114">
        <ele>349.443</ele>
        <time>2019-10-17T14:27:00Z</time>
      </trkpt>
      <trkpt lat="40.05494" lon="-7.34099">
        <ele>350.145</ele>
        <time>2019-10-17T14:27:20Z</time>
      </trkpt>
      <trkpt lat="40.0549" lon="-7.34066">
        <ele>352.095</ele>
        <time>2019-10-17T14:27:40Z</time>
      </trkpt>
      <trkpt lat="40.05489" lon="-7.34048">
        <ele>353.313</ele>
        <time>2019-10-17T14:28:00Z</time>
      </trkpt>
      <trkpt lat="40.05489" lon="-7.3403">
        <ele>355.143</ele>
        <time>2019-10-17T14:28:20Z</time>
      </trkpt>
      <trkpt lat="40.05491" lon="-7.34012">
        <ele>355.907</ele>
        <time>2019-10-17T14:28:40Z</time>
      </trkpt>
      <trkpt lat="40.05493" lon="-7.33995">
        <ele>356.708</ele>
        <time>2019-10-17T14:29:00Z</time>
      </trkpt>
      <trkpt lat="40.05501" lon="-7.33966">
        <ele>358.265</ele>
        <time>2019-10-17T14:29:20Z</time>
      </trkpt>
      <trkpt lat="40.05506" lon="-7.33954">
        <ele>358.993</ele>
        <time>2019-10-17T14:29:40Z</time>
      </trkpt>
      <trkpt lat="40.05524" lon="-7.33919">
        <ele>361.655</ele>
        <time>2019-10-17T14:30:00Z</time>
      </trkpt>
      <trkpt lat="40.0553" lon="-7.33909">
        <ele>362.635</ele>
        <time>2019-10-17T14:30:20Z</time>
      </trkpt>
      <trkpt lat="40.05536" lon="-7.33901">
        <ele>363.317</ele>
        <time>2019-10-17T14:30:40Z</time>
      </trkpt>
      <trkpt lat="40.05545" lon="-7.33893">
        <ele>363.868</ele>
        <time>2019-10-17T14:31:00Z</time>
      </trkpt>
      <trkpt lat="40.05554" lon="-7.33886">
        <ele>364.15</ele>
        <time>2019-10-17T14:31:20Z</time>
      </trkpt>
      <trkpt lat="40.05561" lon="-7.33879">
        <ele>363.85</ele>
        <time>2019-10-17T14:31:40Z</time>
      </trkpt>
      <trkpt lat="40.05566" lon="-7.3387">
        <ele>363.644</ele>
        <time>2019-10-17T14:32:00Z</time>
      </trkpt>
      <trkpt lat="40.05569" lon="-7.3386">
        <ele>363.605</ele>
        <time>2019-10-17T14:32:20Z</time>
      </trkpt>
      <trkpt lat="40.05571" lon="-7.33846">
        <ele>363.415</ele>
        <time>2019-10-17T14:32:40Z</time>
      </trkpt>
      <trkpt lat="40.05575" lon="-7.33832">
        <ele>363.408</ele>
        <time>2019-10-17T14:33:00Z</time>
      </trkpt>
      <trkpt lat="40.0558" lon="-7.33819">
        <ele>364.178</ele>
        <time>2019-10-17T14:33:20Z</time>
      </trkpt>
      <trkpt lat="40.05586" lon="-7.33807">
        <ele>364.976</ele>
        <time>2019-10-17T14:33:40Z</time>
      </trkpt>
      <trkpt lat="40.05603" lon="-7.33782">
        <ele>366.738</ele>
        <time>2019-10-17T14:34:00Z</time>
      </trkpt>
      <trkpt lat="40.05625" lon="-7.33741">
        <ele>368.078</ele>
        <time>2019-10-17T14:34:20Z</time>
      </trkpt>
      <trkpt lat="40.05633" lon="-7.3373">
        <ele>368.59</ele>
        <time>2019-10-17T14:34:40Z</time>
      </trkpt>
      <trkpt lat="40.0564" lon="-7.33722">
        <ele>369.091</ele>
        <time>2019-10-17T14:35:00Z</time>
      </trkpt>
      <trkpt lat="40.05648" lon="-7.33716">
        <ele>369.283</ele>
        <time>2019-10-17T14:35:20Z</time>
      </trkpt>
      <trkpt lat="40.05655" lon="-7.33712">
        <ele>369.423</ele>
        <time>2019-10-17T14:35:40Z</time>
      </trkpt>
      <trkpt lat="40.05663" lon="-7.3371">
        <ele>369.484</ele>
        <time>2019-10-17T14:36:00Z</time>
      </trkpt>
      <trkpt lat="40.05671" lon="-7.33711">
        <ele>369.407</ele>
        <time>2019-10-17T14:36:20Z</time>
      </trkpt>
      <trkpt lat="40.05679" lon="-7.33713">
        <ele>369.317</ele>
        <time>2019-10-17T14:36:40Z</time>
      </trkpt>
      <trkpt lat="40.05686" lon="-7.33716">
        <ele>369.208</ele>
        <time>2019-10-17T14:37:00Z</time>
      </trkpt>
      <trkpt lat="40.05694" lon="-7.33719">
        <ele>369.182</ele>
        <time>2019-10-17T14:37:20Z</time>
      </trkpt>
      <trkpt lat="40.05702" lon="-7.3372">
        <ele>369.15</ele>
        <time>2019-10-17T14:37:40Z</time>
      </trkpt>
      <trkpt lat="40.05711" lon="-7.33719">
        <ele>369.242</ele>
        <time>2019-10-17T14:38:00Z</time>
      </trkpt>
      <trkpt lat="40.05722" lon="-7.33715">
        <ele>369.522</ele>
        <time>2019-10-17T14:38:20Z</time>
      </trkpt>
      <trkpt lat="40.05734" lon="-7.3371">
        <ele>371.034</ele>
        <time>2019-10-17T14:38:40Z</time>
      </trkpt>
      <trkpt lat="40.05747" lon="-7.33703">
        <ele>372.165</ele>
        <time>2019-10-17T14:39:00Z</time>
      </trkpt>
      <trkpt lat="40.05773" lon="-7.33692">
        <ele>374.497</ele>
        <time>2019-10-17T14:39:20Z</time>
      </trkpt>
      <trkpt lat="40.05817" lon="-7.33674">
        <ele>375.667</ele>
        <time>2019-10-17T14:39:40Z</time>
      </trkpt>
      <trkpt lat="40.05829" lon="-7.3367">
        <ele>375.222</ele>
        <time>2019-10-17T14:40:00Z</time>
      </trkpt>
      <trkpt lat="40.05841" lon="-7.33667">
        <ele>374.762</ele>
        <time>2019-10-17T14:40:20Z</time>
      </trkpt>
      <trkpt lat="40.05853" lon="-7.33662">
        <ele>374.408</ele>
        <time>2019-10-17T14:40:40Z</time>
      </trkpt>
      <trkpt lat="40.05864" lon="-7.33655">
        <ele>374.508</ele>
        <time>2019-10-17T14:41:00Z</time>
      </trkpt>
      <trkpt lat="40.05883" lon="-7.33642">
        <ele>375.736</ele>
        <time>2019-10-17T14:41:20Z</time>
      </trkpt>
      <trkpt lat="40.05891" lon="-7.33638">
        <ele>376.184</ele>
        <time>2019-10-17T14:41:40Z</time>
      </trkpt>
      <trkpt lat="40.05899" lon="-7.33637">
        <ele>376.726</ele>
        <time>2019-10-17T14:42:00Z</time>
      </trkpt>
      <trkpt lat="40.05907" lon="-7.33638">
        <ele>377.336</ele>
        <time>2019-10-17T14:42:20Z</time>
      </trkpt>
      <trkpt lat="40.05917" lon="-7.33641">
        <ele>378.088</ele>
        <time>2019-10-17T14:42:40Z</time>
      </trkpt>
      <trkpt lat="40.05968" lon="-7.33652">
        <ele>377.639</ele>
        <time>2019-10-17T14:43:00Z</time>
      </trkpt>
      <trkpt lat="40.06021" lon="-7.33653">
        <ele>378.331</ele>
        <time>2019-10-17T14:43:20Z</time>
      </trkpt>
      <trkpt lat="40.06045" lon="-7.33651">
        <ele>379.021</ele>
        <time>2019-10-17T14:43:40Z</time>
      </trkpt>
      <trkpt lat="40.06071" lon="-7.33649">
        <ele>379.564</ele>
        <time>2019-10-17T14:44:00Z</time>
      </trkpt>
      <trkpt lat="40.06084" lon="-7.33645">
        <ele>379.406</ele>
        <time>2019-10-17T14:44:20Z</time>
      </trkpt>
      <trkpt lat="40.06117" lon="-7.33636">
        <ele>378.816</ele>
        <time>2019-10-17T14:44:40Z</time>
      </trkpt>
      <trkpt lat="40.06126" lon="-7.33637">
        <ele>378.508</ele>
        <time>2019-10-17T14:45:00Z</time>
      </trkpt>
      <trkpt lat="40.06134" lon="-7.3364">
        <ele>378.24</ele>
        <time>2019-10-17T14:45:20Z</time>
      </trkpt>
      <trkpt lat="40.06142" lon="-7.33646">
        <ele>378.258</ele>
        <time>2019-10-17T14:45:40Z</time>
      </trkpt>
      <trkpt lat="40.06151" lon="-7.33653">
        <ele>378.18</ele>
        <time>2019-10-17T14:46:00Z</time>
      </trkpt>
      <trkpt lat="40.06159" lon="-7.3366">
        <ele>377.75</ele>
        <time>2019-10-17T14:46:20Z</time>
      </trkpt>
      <trkpt lat="40.06168" lon="-7.33664">
        <ele>377.142</ele>
        <time>2019-10-17T14:46:40Z</time>
      </trkpt>
      <trkpt lat="40.06177" lon="-7.33665">
        <ele>377.173</ele>
        <time>2019-10-17T14:47:00Z</time>
      </trkpt>
      <trkpt lat="40.06186" lon="-7.33663">
        <ele>377.295</ele>
        <time>2019-10-17T14:47:20Z</time>
      </trkpt>
      <trkpt lat="40.06194" lon="-7.33659">
        <ele>377.535</ele>
        <time>2019-10-17T14:47:40Z</time>
      </trkpt>
      <trkpt lat="40.06199" lon="-7.33654">
        <ele>378.135</ele>
        <time>2019-10-17T14:48:00Z</time>
      </trkpt>
      <trkpt lat="40.06201" lon="-7.33647">
        <ele>378.986</ele>
        <time>2019-10-17T14:48:20Z</time>
      </trkpt>
      <trkpt lat="40.06201" lon="-7.33639">
        <ele>379.714</ele>
        <time>2019-10-17T14:48:40Z</time>
      </trkpt>
      <trkpt lat="40.06199" lon="-7.33629">
        <ele>380.508</ele>
        <time>2019-10-17T14:49:00Z</time>
      </trkpt>
      <trkpt lat="40.06197" lon="-7.33618">
        <ele>381.517</ele>
        <time>2019-10-17T14:49:20Z</time>
      </trkpt>
      <trkpt lat="40.06197" lon="-7.33605">
        <ele>382.465</ele>
        <time>2019-10-17T14:49:40Z</time>
      </trkpt>
      <trkpt lat="40.06198" lon="-7.33591">
        <ele>383.077</ele>
        <time>2019-10-17T14:50:00Z</time>
      </trkpt>
      <trkpt lat="40.06201" lon="-7.33579">
        <ele>383.827</ele>
        <time>2019-10-17T14:50:20Z</time>
      </trkpt>
      <trkpt lat="40.06205" lon="-7.33569">
        <ele>384.399</ele>
        <time>2019-10-17T14:50:40Z</time>
      </trkpt>
      <trkpt lat="40.06211" lon="-7.3356">
        <ele>384.65</ele>
        <time>2019-10-17T14:51:00Z</time>
      </trkpt>
      <trkpt lat="40.06219" lon="-7.33551">
        <ele>384.922</ele>
        <time>2019-10-17T14:51:20Z</time>
      </trkpt>
      <trkpt lat="40.06228" lon="-7.33542">
        <ele>385.232</ele>
        <time>2019-10-17T14:51:40Z</time>
      </trkpt>
      <trkpt lat="40.06237" lon="-7.33532">
        <ele>385.554</ele>
        <time>2019-10-17T14:52:00Z</time>
      </trkpt>
      <trkpt lat="40.06247" lon="-7.33524">
        <ele>385.956</ele>
        <time>2019-10-17T14:52:20Z</time>
      </trkpt>
      <trkpt lat="40.06309" lon="-7.33468">
        <ele>390.011</ele>
        <time>2019-10-17T14:52:40Z</time>
      </trkpt>
      <trkpt lat="40.06331" lon="-7.33442">
        <ele>390.708</ele>
        <time>2019-10-17T14:53:00Z</time>
      </trkpt>
      <trkpt lat="40.06337" lon="-7.33437">
        <ele>390.189</ele>
        <time>2019-10-17T14:53:20Z</time>
      </trkpt>
      <trkpt lat="40.06345" lon="-7.33436">
        <ele>389.997</ele>
        <time>2019-10-17T14:53:40Z</time>
      </trkpt>
      <trkpt lat="40.06354" lon="-7.33435">
        <ele>389.869</ele>
        <time>2019-10-17T14:54:00Z</time>
      </trkpt>
      <trkpt lat="40.06365" lon="-7.33436">
        <ele>389.899</ele>
        <time>2019-10-17T14:54:20Z</time>
      </trkpt>
      <trkpt lat="40.06377" lon="-7.33438">
        <ele>389.961</ele>
        <time>2019-10-17T14:54:40Z</time>
      </trkpt>
      <trkpt lat="40.06388" lon="-7.33441">
        <ele>390.032</ele>
        <time>2019-10-17T14:55:00Z</time>
      </trkpt>
      <trkpt lat="40.064" lon="-7.33445">
        <ele>391.284</ele>
        <time>2019-10-17T14:55:20Z</time>
      </trkpt>
      <trkpt lat="40.06413" lon="-7.3345">
        <ele>392.384</ele>
        <time>2019-10-17T14:55:40Z</time>
      </trkpt>
      <trkpt lat="40.0645" lon="-7.33459">
        <ele>392.652</ele>
        <time>2019-10-17T14:56:00Z</time>
      </trkpt>
      <trkpt lat="40.06462" lon="-7.33459">
        <ele>391.753</ele>
        <time>2019-10-17T14:56:20Z</time>
      </trkpt>
      <trkpt lat="40.06472" lon="-7.33458">
        <ele>391.108</ele>
        <time>2019-10-17T14:56:40Z</time>
      </trkpt>
      <trkpt lat="40.06481" lon="-7.33454">
        <ele>390.808</ele>
        <time>2019-10-17T14:57:00Z</time>
      </trkpt>
      <trkpt lat="40.0649" lon="-7.33448">
        <ele>390.549</ele>
        <time>2019-10-17T14:57:20Z</time>
      </trkpt>
      <trkpt lat="40.06498" lon="-7.33442">
        <ele>390.267</ele>
        <time>2019-10-17T14:57:40Z</time>
      </trkpt>
      <trkpt lat="40.06506" lon="-7.33437">
        <ele>389.899</ele>
        <time>2019-10-17T14:58:00Z</time>
      </trkpt>
      <trkpt lat="40.06516" lon="-7.33434">
        <ele>389.239</ele>
        <time>2019-10-17T14:58:20Z</time>
      </trkpt>
      <trkpt lat="40.06526" lon="-7.33434">
        <ele>388.511</ele>
        <time>2019-10-17T14:58:40Z</time>
      </trkpt>
      <trkpt lat="40.06538" lon="-7.33434">
        <ele>388.082</ele>
        <time>2019-10-17T14:59:00Z</time>
      </trkpt>
      <trkpt lat="40.06549" lon="-7.33433">
        <ele>387.794</ele>
        <time>2019-10-17T14:59:20Z</time>
      </trkpt>
      <trkpt lat="40.06561" lon="-7.3343">
        <ele>387.314</ele>
        <time>2019-10-17T14:59:40Z</time>
      </trkpt>
      <trkpt lat="40.06573" lon="-7.33427">
        <ele>387.085</ele>
        <time>2019-10-17T15:00:00Z</time>
      </trkpt>
      <trkpt lat="40.06584" lon="-7.33427">
        <ele>386.689</ele>
        <time>2019-10-17T15:00:20Z</time>
      </trkpt>
      <trkpt lat="40.06596" lon="-7.33428">
        <ele>386.117</ele>
        <time>2019-10-17T15:00:40Z</time>
      </trkpt>
      <trkpt lat="40.06609" lon="-7.33431">
        <ele>385.608</ele>
        <time>2019-10-17T15:01:00Z</time>
      </trkpt>
      <trkpt lat="40.06624" lon="-7.33434">
        <ele>385.412</ele>
        <time>2019-10-17T15:01:20Z</time>
      </trkpt>
      <trkpt lat="40.06676" lon="-7.33439">
        <ele>386.11</ele>
        <time>2019-10-17T15:01:40Z</time>
      </trkpt>
      <trkpt lat="40.06686" lon="-7.33436">
        <ele>386.232</ele>
        <time>2019-10-17T15:02:00Z</time>
      </trkpt>
      <trkpt lat="40.06696" lon="-7.33432">
        <ele>386.572</ele>
        <time>2019-10-17T15:02:20Z</time>
      </trkpt>
      <trkpt lat="40.06743" lon="-7.33422">
        <ele>386.034</ele>
        <time>2019-10-17T15:02:40Z</time>
      </trkpt>
      <trkpt lat="40.06755" lon="-7.33424">
        <ele>385.615</ele>
        <time>2019-10-17T15:03:00Z</time>
      </trkpt>
      <trkpt lat="40.06792" lon="-7.33432">
        <ele>384.247</ele>
        <time>2019-10-17T15:03:20Z</time>
      </trkpt>
      <trkpt lat="40.06856" lon="-7.33436">
        <ele>384.967</ele>
        <time>2019-10-17T15:03:40Z</time>
      </trkpt>
      <trkpt lat="40.06866" lon="-7.33434">
        <ele>384.912</ele>
        <time>2019-10-17T15:04:00Z</time>
      </trkpt>
      <trkpt lat="40.06889" lon="-7.33429">
        <ele>384.532</ele>
        <time>2019-10-17T15:04:20Z</time>
      </trkpt>
      <trkpt lat="40.06902" lon="-7.33429">
        <ele>384.105</ele>
        <time>2019-10-17T15:04:40Z</time>
      </trkpt>
      <trkpt lat="40.0702" lon="-7.3343">
        <ele>380.408</ele>
        <time>2019-10-17T15:05:00Z</time>
      </trkpt>
      <trkpt lat="40.07054" lon="-7.33423">
        <ele>381.015</ele>
        <time>2019-10-17T15:05:20Z</time>
      </trkpt>
      <trkpt lat="40.07066" lon="-7.33418">
        <ele>380.653</ele>
        <time>2019-10-17T15:05:40Z</time>
      </trkpt>
      <trkpt lat="40.07103" lon="-7.33402">
        <ele>379.345</ele>
        <time>2019-10-17T15:06:00Z</time>
      </trkpt>
      <trkpt lat="40.07116" lon="-7.33399">
        <ele>378.855</ele>
        <time>2019-10-17T15:06:20Z</time>
      </trkpt>
      <trkpt lat="40.07129" lon="-7.33399">
        <ele>378.317</ele>
        <time>2019-10-17T15:06:40Z</time>
      </trkpt>
      <trkpt lat="40.07142" lon="-7.33401">
        <ele>378.058</ele>
        <time>2019-10-17T15:07:00Z</time>
      </trkpt>
      <trkpt lat="40.07153" lon="-7.33402">
        <ele>378.06</ele>
        <time>2019-10-17T15:07:20Z</time>
      </trkpt>
      <trkpt lat="40.07172" lon="-7.33403">
        <ele>377.92</ele>
        <time>2019-10-17T15:07:40Z</time>
      </trkpt>
      <trkpt lat="40.0718" lon="-7.33401">
        <ele>377.862</ele>
        <time>2019-10-17T15:08:00Z</time>
      </trkpt>
      <trkpt lat="40.07226" lon="-7.33383">
        <ele>379.383</ele>
        <time>2019-10-17T15:08:20Z</time>
      </trkpt>
      <trkpt lat="40.07238" lon="-7.33377">
        <ele>379.711</ele>
        <time>2019-10-17T15:08:40Z</time>
      </trkpt>
      <trkpt lat="40.07286" lon="-7.33349">
        <ele>380.308</ele>
        <time>2019-10-17T15:09:00Z</time>
      </trkpt>
      <trkpt lat="40.07293" lon="-7.33348">
        <ele>380.36</ele>
        <time>2019-10-17T15:09:20Z</time>
      </trkpt>
      <trkpt lat="40.07306" lon="-7.33342">
        <ele>380.348</ele>
        <time>2019-10-17T15:09:40Z</time>
      </trkpt>
      <trkpt lat="40.07309" lon="-7.33337">
        <ele>380.09</ele>
        <time>2019-10-17T15:10:00Z</time>
      </trkpt>
      <trkpt lat="40.07318" lon="-7.33321">
        <ele>379.52</ele>
        <time>2019-10-17T15:10:20Z</time>
      </trkpt>
      <trkpt lat="40.07323" lon="-7.33312">
        <ele>379.672</ele>
        <time>2019-10-17T15:10:40Z</time>
      </trkpt>
      <trkpt lat="40.07328" lon="-7.33302">
        <ele>379.913</ele>
        <time>2019-10-17T15:11:00Z</time>
      </trkpt>
      <trkpt lat="40.07333" lon="-7.33292">
        <ele>380.495</ele>
        <time>2019-10-17T15:11:20Z</time>
      </trkpt>
      <trkpt lat="40.07345" lon="-7.33269">
        <ele>381.155</ele>
        <time>2019-10-17T15:11:40Z</time>
      </trkpt>
      <trkpt lat="40.07348" lon="-7.33265">
        <ele>381.263</ele>
        <time>2019-10-17T15:12:00Z</time>
      </trkpt>
      <trkpt lat="40.07351" lon="-7.33262">
        <ele>381.444</ele>
        <time>2019-10-17T15:12:20Z</time>
      </trkpt>
      <trkpt lat="40.07377" lon="-7.3323">
        <ele>381.018</ele>
        <time>2019-10-17T15:12:40Z</time>
      </trkpt>
      <trkpt lat="40.074" lon="-7.3321">
        <ele>380.808</ele>
        <time>2019-10-17T15:13:00Z</time>
      </trkpt>
      <trkpt lat="40.07408" lon="-7.332">
        <ele>380.92</ele>
        <time>2019-10-17T15:13:20Z</time>
      </trkpt>
      <trkpt lat="40.07414" lon="-7.33187">
        <ele>381.068</ele>
        <time>2019-10-17T15:13:40Z</time>
      </trkpt>
      <trkpt lat="40.07419" lon="-7.33171">
        <ele>380.94</ele>
        <time>2019-10-17T15:14:00Z</time>
      </trkpt>
      <trkpt lat="40.07422" lon="-7.33151">
        <ele>380.25</ele>
        <time>2019-10-17T15:14:20Z</time>
      </trkpt>
      <trkpt lat="40.07424" lon="-7.3313">
        <ele>379.812</ele>
        <time>2019-10-17T15:14:40Z</time>
      </trkpt>
      <trkpt lat="40.07438" lon="-7.33038">
        <ele>381.093</ele>
        <time>2019-10-17T15:15:00Z</time>
      </trkpt>
      <trkpt lat="40.07443" lon="-7.33023">
        <ele>380.885</ele>
        <time>2019-10-17T15:15:20Z</time>
      </trkpt>
      <trkpt lat="40.0745" lon="-7.33009">
        <ele>379.955</ele>
        <time>2019-10-17T15:15:40Z</time>
      </trkpt>
      <trkpt lat="40.07458" lon="-7.32996">
        <ele>378.953</ele>
        <time>2019-10-17T15:16:00Z</time>
      </trkpt>
      <trkpt lat="40.07466" lon="-7.32985">
        <ele>377.904</ele>
        <time>2019-10-17T15:16:20Z</time>
      </trkpt>
      <trkpt lat="40.07493" lon="-7.32945">
        <ele>375.514</ele>
        <time>2019-10-17T15:16:40Z</time>
      </trkpt>
      <trkpt lat="40.07501" lon="-7.32941">
        <ele>375.108</ele>
        <time>2019-10-17T15:17:00Z</time>
      </trkpt>
      <trkpt lat="40.07511" lon="-7.3294">
        <ele>374.889</ele>
        <time>2019-10-17T15:17:20Z</time>
      </trkpt>
      <trkpt lat="40.07521" lon="-7.3294">
        <ele>374.437</ele>
        <time>2019-10-17T15:17:40Z</time>
      </trkpt>
      <trkpt lat="40.07532" lon="-7.32942">
        <ele>373.839</ele>
        <time>2019-10-17T15:18:00Z</time>
      </trkpt>
      <trkpt lat="40.07544" lon="-7.32945">
        <ele>372.959</ele>
        <time>2019-10-17T15:18:20Z</time>
      </trkpt>
      <trkpt lat="40.07574" lon="-7.32953">
        <ele>370.571</ele>
        <time>2019-10-17T15:18:40Z</time>
      </trkpt>
      <trkpt lat="40.07581" lon="-7.32953">
        <ele>369.942</ele>
        <time>2019-10-17T15:19:00Z</time>
      </trkpt>
      <trkpt lat="40.07588" lon="-7.32951">
        <ele>369.234</ele>
        <time>2019-10-17T15:19:20Z</time>
      </trkpt>
      <trkpt lat="40.07594" lon="-7.32948">
        <ele>368.444</ele>
        <time>2019-10-17T15:19:40Z</time>
      </trkpt>
      <trkpt lat="40.076" lon="-7.32942">
        <ele>367.717</ele>
        <time>2019-10-17T15:20:00Z</time>
      </trkpt>
      <trkpt lat="40.07606" lon="-7.32935">
        <ele>367.087</ele>
        <time>2019-10-17T15:20:20Z</time>
      </trkpt>
      <trkpt lat="40.07614" lon="-7.32928">
        <ele>366.615</ele>
        <time>2019-10-17T15:20:40Z</time>
      </trkpt>
      <trkpt lat="40.0762" lon="-7.32921">
        <ele>366.808</ele>
        <time>2019-10-17T15:21:00Z</time>
      </trkpt>
      <trkpt lat="40.07624" lon="-7.32913">
        <ele>367.155</ele>
        <time>2019-10-17T15:21:20Z</time>
      </trkpt>
      <trkpt lat="40.07626" lon="-7.32905">
        <ele>367.283</ele>
        <time>2019-10-17T15:21:40Z</time>
      </trkpt>
      <trkpt lat="40.07625" lon="-7.32898">
        <ele>367.365</ele>
        <time>2019-10-17T15:22:00Z</time>
      </trkpt>
      <trkpt lat="40.07623" lon="-7.3289">
        <ele>367.655</ele>
        <time>2019-10-17T15:22:20Z</time>
      </trkpt>
      <trkpt lat="40.07618" lon="-7.32882">
        <ele>367.257</ele>
        <time>2019-10-17T15:22:40Z</time>
      </trkpt>
      <trkpt lat="40.07612" lon="-7.32872">
        <ele>366.728</ele>
        <time>2019-10-17T15:23:00Z</time>
      </trkpt>
      <trkpt lat="40.0759" lon="-7.32823">
        <ele>364.99</ele>
        <time>2019-10-17T15:23:20Z</time>
      </trkpt>
      <trkpt lat="40.07588" lon="-7.32817">
        <ele>364.93</ele>
        <time>2019-10-17T15:23:40Z</time>
      </trkpt>
      <trkpt lat="40.07587" lon="-7.32813">
        <ele>364.841</ele>
        <time>2019-10-17T15:24:00Z</time>
      </trkpt>
      <trkpt lat="40.07586" lon="-7.32809">
        <ele>364.881</ele>
        <time>2019-10-17T15:24:20Z</time>
      </trkpt>
      <trkpt lat="40.07585" lon="-7.32804">
        <ele>364.709</ele>
        <time>2019-10-17T15:24:40Z</time>
      </trkpt>
      <trkpt lat="40.07585" lon="-7.32799">
        <ele>364.708</ele>
        <time>2019-10-17T15:25:00Z</time>
      </trkpt>
      <trkpt lat="40.07586" lon="-7.32793">
        <ele>364.788</ele>
        <time>2019-10-17T15:25:20Z</time>
      </trkpt>
      <trkpt lat="40.07576" lon="-7.32706">
        <ele>363.916</ele>
        <time>2019-10-17T15:25:40Z</time>
      </trkpt>
      <trkpt lat="40.07565" lon="-7.32667">
        <ele>361.358</ele>
        <time>2019-10-17T15:26:00Z</time>
      </trkpt>
      <trkpt lat="40.07555" lon="-7.32649">
        <ele>360.748</ele>
        <time>2019-10-17T15:26:20Z</time>
      </trkpt>
      <trkpt lat="40.07552" lon="-7.32638">
        <ele>360.23</ele>
        <time>2019-10-17T15:26:40Z</time>
      </trkpt>
      <trkpt lat="40.07551" lon="-7.32626">
        <ele>360.371</ele>
        <time>2019-10-17T15:27:00Z</time>
      </trkpt>
      <trkpt lat="40.07552" lon="-7.32612">
        <ele>360.393</ele>
        <time>2019-10-17T15:27:20Z</time>
      </trkpt>
      <trkpt lat="40.07553" lon="-7.32599">
        <ele>360.283</ele>
        <time>2019-10-17T15:27:40Z</time>
      </trkpt>
      <trkpt lat="40.0756" lon="-7.32537">
        <ele>362.183</ele>
        <time>2019-10-17T15:28:00Z</time>
      </trkpt>
      <trkpt lat="40.07559" lon="-7.32527">
        <ele>362.825</ele>
        <time>2019-10-17T15:28:20Z</time>
      </trkpt>
      <trkpt lat="40.07547" lon="-7.32479">
        <ele>366.617</ele>
        <time>2019-10-17T15:28:40Z</time>
      </trkpt>
      <trkpt lat="40.07544" lon="-7.32464">
        <ele>367.308</ele>
        <time>2019-10-17T15:29:00Z</time>
      </trkpt>
      <trkpt lat="40.0754" lon="-7.32458">
        <ele>368.052</ele>
        <time>2019-10-17T15:29:20Z</time>
      </trkpt>
      <trkpt lat="40.07538" lon="-7.32456">
        <ele>368.35</ele>
        <time>2019-10-17T15:29:40Z</time>
      </trkpt>
      <trkpt lat="40.07538" lon="-7.32453">
        <ele>368.472</ele>
        <time>2019-10-17T15:30:00Z</time>
      </trkpt>
      <trkpt lat="40.07538" lon="-7.32446">
        <ele>368.552</ele>
        <time>2019-10-17T15:30:20Z</time>
      </trkpt>
      <trkpt lat="40.0754" lon="-7.32438">
        <ele>368.164</ele>
        <time>2019-10-17T15:30:40Z</time>
      </trkpt>
      <trkpt lat="40.07543" lon="-7.32431">
        <ele>367.395</ele>
        <time>2019-10-17T15:31:00Z</time>
      </trkpt>
      <trkpt lat="40.07546" lon="-7.32425">
        <ele>366.777</ele>
        <time>2019-10-17T15:31:20Z</time>
      </trkpt>
      <trkpt lat="40.07548" lon="-7.32419">
        <ele>366.217</ele>
        <time>2019-10-17T15:31:40Z</time>
      </trkpt>
      <trkpt lat="40.07548" lon="-7.32412">
        <ele>366.054</ele>
        <time>2019-10-17T15:32:00Z</time>
      </trkpt>
      <trkpt lat="40.07548" lon="-7.32403">
        <ele>365.856</ele>
        <time>2019-10-17T15:32:20Z</time>
      </trkpt>
      <trkpt lat="40.07547" lon="-7.32388">
        <ele>365.611</ele>
        <time>2019-10-17T15:32:40Z</time>
      </trkpt>
      <trkpt lat="40.07545" lon="-7.32379">
        <ele>365.408</ele>
        <time>2019-10-17T15:33:00Z</time>
      </trkpt>
      <trkpt lat="40.07545" lon="-7.32375">
        <ele>365.389</ele>
        <time>2019-10-17T15:33:20Z</time>
      </trkpt>
      <trkpt lat="40.07543" lon="-7.32373">
        <ele>365.327</ele>
        <time>2019-10-17T15:33:40Z</time>
      </trkpt>
      <trkpt lat="40.07543" lon="-7.32372">
        <ele>365.339</ele>
        <time>2019-10-17T15:34:00Z</time>
      </trkpt>
      <trkpt lat="40.07545" lon="-7.32369">
        <ele>365.159</ele>
        <time>2019-10-17T15:34:20Z</time>
      </trkpt>
      <trkpt lat="40.07547" lon="-7.32364">
        <ele>364.761</ele>
        <time>2019-10-17T15:34:40Z</time>
      </trkpt>
      <trkpt lat="40.07549" lon="-7.32357">
        <ele>364.472</ele>
        <time>2019-10-17T15:35:00Z</time>
      </trkpt>
      <trkpt lat="40.07552" lon="-7.32351">
        <ele>364.264</ele>
        <time>2019-10-17T15:35:20Z</time>
      </trkpt>
      <trkpt lat="40.07556" lon="-7.32344">
        <ele>364.074</ele>
        <time>2019-10-17T15:35:40Z</time>
      </trkpt>
      <trkpt lat="40.0756" lon="-7.32339">
        <ele>363.889</ele>
        <time>2019-10-17T15:36:00Z</time>
      </trkpt>
      <trkpt lat="40.07569" lon="-7.32325">
        <ele>363.506</ele>
        <time>2019-10-17T15:36:20Z</time>
      </trkpt>
      <trkpt lat="40.07574" lon="-7.32315">
        <ele>363.326</ele>
        <time>2019-10-17T15:36:40Z</time>
      </trkpt>
      <trkpt lat="40.07578" lon="-7.32305">
        <ele>363.208</ele>
        <time>2019-10-17T15:37:00Z</time>
      </trkpt>
      <trkpt lat="40.07583" lon="-7.32297">
        <ele>362.492</ele>
        <time>2019-10-17T15:37:20Z</time>
      </trkpt>
      <trkpt lat="40.07589" lon="-7.3229">
        <ele>361.54</ele>
        <time>2019-10-17T15:37:40Z</time>
      </trkpt>
      <trkpt lat="40.07594" lon="-7.32285">
        <ele>360.912</ele>
        <time>2019-10-17T15:38:00Z</time>
      </trkpt>
      <trkpt lat="40.07601" lon="-7.32284">
        <ele>360.562</ele>
        <time>2019-10-17T15:38:20Z</time>
      </trkpt>
      <trkpt lat="40.07609" lon="-7.32284">
        <ele>360.154</ele>
        <time>2019-10-17T15:38:40Z</time>
      </trkpt>
      <trkpt lat="40.07616" lon="-7.32285">
        <ele>360.075</ele>
        <time>2019-10-17T15:39:00Z</time>
      </trkpt>
      <trkpt lat="40.07668" lon="-7.32297">
        <ele>357.157</ele>
        <time>2019-10-17T15:39:20Z</time>
      </trkpt>
      <trkpt lat="40.07677" lon="-7.32301">
        <ele>355.737</ele>
        <time>2019-10-17T15:39:40Z</time>
      </trkpt>
      <trkpt lat="40.07686" lon="-7.32307">
        <ele>354.276</ele>
        <time>2019-10-17T15:40:00Z</time>
      </trkpt>
      <trkpt lat="40.07705" lon="-7.32324">
        <ele>352.09</ele>
        <time>2019-10-17T15:40:20Z</time>
      </trkpt>
      <trkpt lat="40.07716" lon="-7.32331">
        <ele>350.719</ele>
        <time>2019-10-17T15:40:40Z</time>
      </trkpt>
      <trkpt lat="40.07736" lon="-7.32344">
        <ele>348.408</ele>
        <time>2019-10-17T15:41:00Z</time>
      </trkpt>
      <trkpt lat="40.07745" lon="-7.32352">
        <ele>347.241</ele>
        <time>2019-10-17T15:41:20Z</time>
      </trkpt>
      <trkpt lat="40.07766" lon="-7.32373">
        <ele>345.019</ele>
        <time>2019-10-17T15:41:40Z</time>
      </trkpt>
      <trkpt lat="40.07772" lon="-7.32376">
        <ele>344.771</ele>
        <time>2019-10-17T15:42:00Z</time>
      </trkpt>
      <trkpt lat="40.07779" lon="-7.32375">
        <ele>344.451</ele>
        <time>2019-10-17T15:42:20Z</time>
      </trkpt>
      <trkpt lat="40.07788" lon="-7.32372">
        <ele>344.123</ele>
        <time>2019-10-17T15:42:40Z</time>
      </trkpt>
      <trkpt lat="40.07797" lon="-7.32367">
        <ele>343.784</ele>
        <time>2019-10-17T15:43:00Z</time>
      </trkpt>
      <trkpt lat="40.07804" lon="-7.32364">
        <ele>343.296</ele>
        <time>2019-10-17T15:43:20Z</time>
      </trkpt>
      <trkpt lat="40.07811" lon="-7.32363">
        <ele>343.176</ele>
        <time>2019-10-17T15:43:40Z</time>
      </trkpt>
      <trkpt lat="40.07816" lon="-7.32366">
        <ele>343.378</ele>
        <time>2019-10-17T15:44:00Z</time>
      </trkpt>
      <trkpt lat="40.07821" lon="-7.32372">
        <ele>343.633</ele>
        <time>2019-10-17T15:44:20Z</time>
      </trkpt>
      <trkpt lat="40.07824" lon="-7.32379">
        <ele>344.126</ele>
        <time>2019-10-17T15:44:40Z</time>
      </trkpt>
      <trkpt lat="40.07826" lon="-7.32389">
        <ele>344.708</ele>
        <time>2019-10-17T15:45:00Z</time>
      </trkpt>
      <trkpt lat="40.07828" lon="-7.32402">
        <ele>345.341</ele>
        <time>2019-10-17T15:45:20Z</time>
      </trkpt>
      <trkpt lat="40.0783" lon="-7.32416">
        <ele>345.949</ele>
        <time>2019-10-17T15:45:40Z</time>
      </trkpt>
      <trkpt lat="40.07841" lon="-7.32455">
        <ele>347.181</ele>
        <time>2019-10-17T15:46:00Z</time>
      </trkpt>
      <trkpt lat="40.07846" lon="-7.32463">
        <ele>347.431</ele>
        <time>2019-10-17T15:46:20Z</time>
      </trkpt>
      <trkpt lat="40.07853" lon="-7.32467">
        <ele>348.093</ele>
        <time>2019-10-17T15:46:40Z</time>
      </trkpt>
      <trkpt lat="40.07861" lon="-7.32469">
        <ele>348.814</ele>
        <time>2019-10-17T15:47:00Z</time>
      </trkpt>
      <trkpt lat="40.0787" lon="-7.32469">
        <ele>349.896</ele>
        <time>2019-10-17T15:47:20Z</time>
      </trkpt>
      <trkpt lat="40.07881" lon="-7.32471">
        <ele>351.026</ele>
        <time>2019-10-17T15:47:40Z</time>
      </trkpt>
      <trkpt lat="40.07892" lon="-7.32475">
        <ele>352.328</ele>
        <time>2019-10-17T15:48:00Z</time>
      </trkpt>
      <trkpt lat="40.07924" lon="-7.3249">
        <ele>355.189</ele>
        <time>2019-10-17T15:48:20Z</time>
      </trkpt>
      <trkpt lat="40.0795" lon="-7.32497">
        <ele>354.517</ele>
        <time>2019-10-17T15:48:40Z</time>
      </trkpt>
      <trkpt lat="40.07973" lon="-7.32498">
        <ele>352.808</ele>
        <time>2019-10-17T15:49:00Z</time>
      </trkpt>
      <trkpt lat="40.08003" lon="-7.325">
        <ele>351.096</ele>
        <time>2019-10-17T15:49:20Z</time>
      </trkpt>
      <trkpt lat="40.08044" lon="-7.32503">
        <ele>352.314</ele>
        <time>2019-10-17T15:49:40Z</time>
      </trkpt>
      <trkpt lat="40.08053" lon="-7.32502">
        <ele>352.986</ele>
        <time>2019-10-17T15:50:00Z</time>
      </trkpt>
      <trkpt lat="40.08059" lon="-7.32498">
        <ele>353.336</ele>
        <time>2019-10-17T15:50:20Z</time>
      </trkpt>
      <trkpt lat="40.08063" lon="-7.32493">
        <ele>353.578</ele>
        <time>2019-10-17T15:50:40Z</time>
      </trkpt>
      <trkpt lat="40.08064" lon="-7.32486">
        <ele>353.419</ele>
        <time>2019-10-17T15:51:00Z</time>
      </trkpt>
      <trkpt lat="40.08063" lon="-7.32478">
        <ele>353.071</ele>
        <time>2019-10-17T15:51:20Z</time>
      </trkpt>
      <trkpt lat="40.0806" lon="-7.32469">
        <ele>352.431</ele>
        <time>2019-10-17T15:51:40Z</time>
      </trkpt>
      <trkpt lat="40.08057" lon="-7.32457">
        <ele>351.615</ele>
        <time>2019-10-17T15:52:00Z</time>
      </trkpt>
      <trkpt lat="40.08054" lon="-7.32443">
        <ele>350.965</ele>
        <time>2019-10-17T15:52:20Z</time>
      </trkpt>
      <trkpt lat="40.08052" lon="-7.32428">
        <ele>350.211</ele>
        <time>2019-10-17T15:52:40Z</time>
      </trkpt>
      <trkpt lat="40.08051" lon="-7.32411">
        <ele>349.508</ele>
        <time>2019-10-17T15:53:00Z</time>
      </trkpt>
      <trkpt lat="40.08052" lon="-7.32393">
        <ele>348.975</ele>
        <time>2019-10-17T15:53:20Z</time>
      </trkpt>
      <trkpt lat="40.08052" lon="-7.32336">
        <ele>348.833</ele>
        <time>2019-10-17T15:53:40Z</time>
      </trkpt>
      <trkpt lat="40.08054" lon="-7.32327">
        <ele>348.975</ele>
        <time>2019-10-17T15:54:00Z</time>
      </trkpt>
      <trkpt lat="40.08057" lon="-7.32321">
        <ele>349.115</ele>
        <time>2019-10-17T15:54:20Z</time>
      </trkpt>
      <trkpt lat="40.08063" lon="-7.32317">
        <ele>349.587</ele>
        <time>2019-10-17T15:54:40Z</time>
      </trkpt>
      <trkpt lat="40.0807" lon="-7.32315">
        <ele>350.038</ele>
        <time>2019-10-17T15:55:00Z</time>
      </trkpt>
      <trkpt lat="40.08078" lon="-7.32315">
        <ele>350.68</ele>
        <time>2019-10-17T15:55:20Z</time>
      </trkpt>
      <trkpt lat="40.08087" lon="-7.32316">
        <ele>351.49</ele>
        <time>2019-10-17T15:55:40Z</time>
      </trkpt>
      <trkpt lat="40.08108" lon="-7.32315">
        <ele>353.466</ele>
        <time>2019-10-17T15:56:00Z</time>
      </trkpt>
      <trkpt lat="40.08119" lon="-7.32312">
        <ele>354.629</ele>
        <time>2019-10-17T15:56:20Z</time>
      </trkpt>
      <trkpt lat="40.08128" lon="-7.32307">
        <ele>355.821</ele>
        <time>2019-10-17T15:56:40Z</time>
      </trkpt>
      <trkpt lat="40.08136" lon="-7.323">
        <ele>356.908</ele>
        <time>2019-10-17T15:57:00Z</time>
      </trkpt>
      <trkpt lat="40.08144" lon="-7.3229">
        <ele>357.98</ele>
        <time>2019-10-17T15:57:20Z</time>
      </trkpt>
      <trkpt lat="40.08152" lon="-7.32278">
        <ele>358.958</ele>
        <time>2019-10-17T15:57:40Z</time>
      </trkpt>
      <trkpt lat="40.08162" lon="-7.32267">
        <ele>359.33</ele>
        <time>2019-10-17T15:58:00Z</time>
      </trkpt>
      <trkpt lat="40.0817" lon="-7.32258">
        <ele>359.58</ele>
        <time>2019-10-17T15:58:20Z</time>
      </trkpt>
      <trkpt lat="40.08181" lon="-7.32247">
        <ele>359.892</ele>
        <time>2019-10-17T15:58:40Z</time>
      </trkpt>
      <trkpt lat="40.08184" lon="-7.32246">
        <ele>360.033</ele>
        <time>2019-10-17T15:59:00Z</time>
      </trkpt>
      <trkpt lat="40.08188" lon="-7.32246">
        <ele>360.365</ele>
        <time>2019-10-17T15:59:20Z</time>
      </trkpt>
      <trkpt lat="40.08191" lon="-7.32249">
        <ele>360.655</ele>
        <time>2019-10-17T15:59:40Z</time>
      </trkpt>
      <trkpt lat="40.08194" lon="-7.32254">
        <ele>361.171</ele>
        <time>2019-10-17T16:00:00Z</time>
      </trkpt>
      <trkpt lat="40.08198" lon="-7.32262">
        <ele>361.641</ele>
        <time>2019-10-17T16:00:20Z</time>
      </trkpt>
      <trkpt lat="40.08208" lon="-7.32279">
        <ele>363.015</ele>
        <time>2019-10-17T16:00:40Z</time>
      </trkpt>
      <trkpt lat="40.08214" lon="-7.32286">
        <ele>363.408</ele>
        <time>2019-10-17T16:01:00Z</time>
      </trkpt>
      <trkpt lat="40.08221" lon="-7.3229">
        <ele>363.921</ele>
        <time>2019-10-17T16:01:20Z</time>
      </trkpt>
      <trkpt lat="40.08228" lon="-7.3229">
        <ele>364.519</ele>
        <time>2019-10-17T16:01:40Z</time>
      </trkpt>
      <trkpt lat="40.08236" lon="-7.32289">
        <ele>365.271</ele>
        <time>2019-10-17T16:02:00Z</time>
      </trkpt>
      <trkpt lat="40.08244" lon="-7.32287">
        <ele>365.851</ele>
        <time>2019-10-17T16:02:20Z</time>
      </trkpt>
      <trkpt lat="40.08252" lon="-7.32285">
        <ele>366.353</ele>
        <time>2019-10-17T16:02:40Z</time>
      </trkpt>
      <trkpt lat="40.08262" lon="-7.32285">
        <ele>366.774</ele>
        <time>2019-10-17T16:03:00Z</time>
      </trkpt>
      <trkpt lat="40.08346" lon="-7.32284">
        <ele>374.926</ele>
        <time>2019-10-17T16:03:20Z</time>
      </trkpt>
      <trkpt lat="40.08356" lon="-7.32283">
        <ele>376.016</ele>
        <time>2019-10-17T16:03:40Z</time>
      </trkpt>
      <trkpt lat="40.08367" lon="-7.32283">
        <ele>377.086</ele>
        <time>2019-10-17T16:04:00Z</time>
      </trkpt>
      <trkpt lat="40.08385" lon="-7.32286">
        <ele>378.66</ele>
        <time>2019-10-17T16:04:20Z</time>
      </trkpt>
      <trkpt lat="40.08393" lon="-7.32285">
        <ele>379.026</ele>
        <time>2019-10-17T16:04:40Z</time>
      </trkpt>
      <trkpt lat="40.084" lon="-7.32282">
        <ele>379.208</ele>
        <time>2019-10-17T16:05:00Z</time>
      </trkpt>
      <trkpt lat="40.08439" lon="-7.32257">
        <ele>381.522</ele>
        <time>2019-10-17T16:05:20Z</time>
      </trkpt>
      <trkpt lat="40.08461" lon="-7.32245">
        <ele>383.68</ele>
        <time>2019-10-17T16:05:40Z</time>
      </trkpt>
      <trkpt lat="40.0847" lon="-7.32243">
        <ele>384.512</ele>
        <time>2019-10-17T16:06:00Z</time>
      </trkpt>
      <trkpt lat="40.08479" lon="-7.32242">
        <ele>385.452</ele>
        <time>2019-10-17T16:06:20Z</time>
      </trkpt>
      <trkpt lat="40.08487" lon="-7.32242">
        <ele>386.354</ele>
        <time>2019-10-17T16:06:40Z</time>
      </trkpt>
      <trkpt lat="40.08518" lon="-7.3224">
        <ele>386.625</ele>
        <time>2019-10-17T16:07:00Z</time>
      </trkpt>
      <trkpt lat="40.08526" lon="-7.32239">
        <ele>386.167</ele>
        <time>2019-10-17T16:07:20Z</time>
      </trkpt>
      <trkpt lat="40.08533" lon="-7.32242">
        <ele>384.957</ele>
        <time>2019-10-17T16:07:40Z</time>
      </trkpt>
      <trkpt lat="40.08539" lon="-7.32247">
        <ele>383.289</ele>
        <time>2019-10-17T16:08:00Z</time>
      </trkpt>
      <trkpt lat="40.08546" lon="-7.32254">
        <ele>381.206</ele>
        <time>2019-10-17T16:08:20Z</time>
      </trkpt>
      <trkpt lat="40.08552" lon="-7.32263">
        <ele>379.026</ele>
        <time>2019-10-17T16:08:40Z</time>
      </trkpt>
      <trkpt lat="40.08559" lon="-7.32273">
        <ele>376.608</ele>
        <time>2019-10-17T16:09:00Z</time>
      </trkpt>
      <trkpt lat="40.08568" lon="-7.3228">
        <ele>374.362</ele>
        <time>2019-10-17T16:09:20Z</time>
      </trkpt>
      <trkpt lat="40.08577" lon="-7.32287">
        <ele>372.49</ele>
        <time>2019-10-17T16:09:40Z</time>
      </trkpt>
      <trkpt lat="40.08586" lon="-7.32292">
        <ele>370.882</ele>
        <time>2019-10-17T16:10:00Z</time>
      </trkpt>
      <trkpt lat="40.08595" lon="-7.32296">
        <ele>370.292</ele>
        <time>2019-10-17T16:10:20Z</time>
      </trkpt>
      <trkpt lat="40.08603" lon="-7.32297">
        <ele>369.614</ele>
        <time>2019-10-17T16:10:40Z</time>
      </trkpt>
      <trkpt lat="40.08613" lon="-7.32296">
        <ele>368.945</ele>
        <time>2019-10-17T16:11:00Z</time>
      </trkpt>
      <trkpt lat="40.08624" lon="-7.32293">
        <ele>368.597</ele>
        <time>2019-10-17T16:11:20Z</time>
      </trkpt>
      <trkpt lat="40.08636" lon="-7.3229">
        <ele>368.167</ele>
        <time>2019-10-17T16:11:40Z</time>
      </trkpt>
      <trkpt lat="40.08661" lon="-7.32284">
        <ele>367.264</ele>
        <time>2019-10-17T16:12:00Z</time>
      </trkpt>
      <trkpt lat="40.08672" lon="-7.32279">
        <ele>367.006</ele>
        <time>2019-10-17T16:12:20Z</time>
      </trkpt>
      <trkpt lat="40.08733" lon="-7.32259">
        <ele>365.916</ele>
        <time>2019-10-17T16:12:40Z</time>
      </trkpt>
      <trkpt lat="40.08801" lon="-7.32254">
        <ele>363.908</ele>
        <time>2019-10-17T16:13:00Z</time>
      </trkpt>
      <trkpt lat="40.08806" lon="-7.32253">
        <ele>363.89</ele>
        <time>2019-10-17T16:13:20Z</time>
      </trkpt>
      <trkpt lat="40.08808" lon="-7.32252">
        <ele>363.878</ele>
        <time>2019-10-17T16:13:40Z</time>
      </trkpt>
      <trkpt lat="40.08809" lon="-7.32252">
        <ele>363.87</ele>
        <time>2019-10-17T16:14:00Z</time>
      </trkpt>
      <trkpt lat="40.08808" lon="-7.32249">
        <ele>363.93</ele>
        <time>2019-10-17T16:14:20Z</time>
      </trkpt>
      <trkpt lat="40.0881" lon="-7.3225">
        <ele>363.882</ele>
        <time>2019-10-17T16:14:40Z</time>
      </trkpt>
      <trkpt lat="40.08811" lon="-7.32251">
        <ele>363.893</ele>
        <time>2019-10-17T16:15:00Z</time>
      </trkpt>
      <trkpt lat="40.08813" lon="-7.32251">
        <ele>363.735</ele>
        <time>2019-10-17T16:15:20Z</time>
      </trkpt>
      <trkpt lat="40.08815" lon="-7.3225">
        <ele>363.615</ele>
        <time>2019-10-17T16:15:40Z</time>
      </trkpt>
      <trkpt lat="40.08819" lon="-7.32248">
        <ele>363.558</ele>
        <time>2019-10-17T16:16:00Z</time>
      </trkpt>
      <trkpt lat="40.08824" lon="-7.32245">
        <ele>363.252</ele>
        <time>2019-10-17T16:16:20Z</time>
      </trkpt>
      <trkpt lat="40.08866" lon="-7.32212">
        <ele>356.517</ele>
        <time>2019-10-17T16:16:40Z</time>
      </trkpt>
      <trkpt lat="40.08875" lon="-7.32203">
        <ele>354.508</ele>
        <time>2019-10-17T16:17:00Z</time>
      </trkpt>
      <trkpt lat="40.089" lon="-7.32173">
        <ele>351.239</ele>
        <time>2019-10-17T16:17:20Z</time>
      </trkpt>
      <trkpt lat="40.08907" lon="-7.32166">
        <ele>350.797</ele>
        <time>2019-10-17T16:17:40Z</time>
      </trkpt>
      <trkpt lat="40.08915" lon="-7.3216">
        <ele>350.389</ele>
        <time>2019-10-17T16:18:00Z</time>
      </trkpt>
      <trkpt lat="40.08924" lon="-7.32156">
        <ele>350.449</ele>
        <time>2019-10-17T16:18:20Z</time>
      </trkpt>
      <trkpt lat="40.08934" lon="-7.32153">
        <ele>350.521</ele>
        <time>2019-10-17T16:18:40Z</time>
      </trkpt>
      <trkpt lat="40.08946" lon="-7.32152">
        <ele>350.562</ele>
        <time>2019-10-17T16:19:00Z</time>
      </trkpt>
      <trkpt lat="40.09012" lon="-7.32137">
        <ele>345.734</ele>
        <time>2019-10-17T16:19:20Z</time>
      </trkpt>
      <trkpt lat="40.0902" lon="-7.32132">
        <ele>344.684</ele>
        <time>2019-10-17T16:19:40Z</time>
      </trkpt>
      <trkpt lat="40.09026" lon="-7.32127">
        <ele>343.829</ele>
        <time>2019-10-17T16:20:00Z</time>
      </trkpt>
      <trkpt lat="40.0903" lon="-7.32122">
        <ele>343.4</ele>
        <time>2019-10-17T16:20:20Z</time>
      </trkpt>
      <trkpt lat="40.09033" lon="-7.32119">
        <ele>343.22</ele>
        <time>2019-10-17T16:20:40Z</time>
      </trkpt>
      <trkpt lat="40.09035" lon="-7.32117">
        <ele>343.208</ele>
        <time>2019-10-17T16:21:00Z</time>
      </trkpt>
      <trkpt lat="40.09048" lon="-7.32107">
        <ele>342.856</ele>
        <time>2019-10-17T16:21:20Z</time>
      </trkpt>
      <trkpt lat="40.09055" lon="-7.32102">
        <ele>342.724</ele>
        <time>2019-10-17T16:21:40Z</time>
      </trkpt>
      <trkpt lat="40.09096" lon="-7.32084">
        <ele>344.996</ele>
        <time>2019-10-17T16:22:00Z</time>
      </trkpt>
      <trkpt lat="40.09107" lon="-7.32082">
        <ele>345.676</ele>
        <time>2019-10-17T16:22:20Z</time>
      </trkpt>
      <trkpt lat="40.09129" lon="-7.32078">
        <ele>347.018</ele>
        <time>2019-10-17T16:22:40Z</time>
      </trkpt>
      <trkpt lat="40.0914" lon="-7.32073">
        <ele>347.379</ele>
        <time>2019-10-17T16:23:00Z</time>
      </trkpt>
      <trkpt lat="40.09148" lon="-7.32067">
        <ele>347.261</ele>
        <time>2019-10-17T16:23:20Z</time>
      </trkpt>
      <trkpt lat="40.09154" lon="-7.32059">
        <ele>346.841</ele>
        <time>2019-10-17T16:23:40Z</time>
      </trkpt>
      <trkpt lat="40.09159" lon="-7.32049">
        <ele>346.586</ele>
        <time>2019-10-17T16:24:00Z</time>
      </trkpt>
      <trkpt lat="40.09164" lon="-7.32038">
        <ele>346.26</ele>
        <time>2019-10-17T16:24:20Z</time>
      </trkpt>
      <trkpt lat="40.0917" lon="-7.32027">
        <ele>346.226</ele>
        <time>2019-10-17T16:24:40Z</time>
      </trkpt>
      <trkpt lat="40.09177" lon="-7.32018">
        <ele>347.108</ele>
        <time>2019-10-17T16:25:00Z</time>
      </trkpt>
      <trkpt lat="40.09185" lon="-7.3201">
        <ele>348.022</ele>
        <time>2019-10-17T16:25:20Z</time>
      </trkpt>
      <trkpt lat="40.09194" lon="-7.32005">
        <ele>348.84</ele>
        <time>2019-10-17T16:25:40Z</time>
      </trkpt>
      <trkpt lat="40.09203" lon="-7.32002">
        <ele>349.892</ele>
        <time>2019-10-17T16:26:00Z</time>
      </trkpt>
      <trkpt lat="40.09211" lon="-7.32002">
        <ele>350.712</ele>
        <time>2019-10-17T16:26:20Z</time>
      </trkpt>
      <trkpt lat="40.0922" lon="-7.32005">
        <ele>351.694</ele>
        <time>2019-10-17T16:26:40Z</time>
      </trkpt>
      <trkpt lat="40.0923" lon="-7.32008">
        <ele>352.225</ele>
        <time>2019-10-17T16:27:00Z</time>
      </trkpt>
      <trkpt lat="40.0924" lon="-7.32012">
        <ele>352.867</ele>
        <time>2019-10-17T16:27:20Z</time>
      </trkpt>
      <trkpt lat="40.0925" lon="-7.32014">
        <ele>353.577</ele>
        <time>2019-10-17T16:27:40Z</time>
      </trkpt>
      <trkpt lat="40.0926" lon="-7.32014">
        <ele>353.778</ele>
        <time>2019-10-17T16:28:00Z</time>
      </trkpt>
      <trkpt lat="40.09269" lon="-7.32012">
        <ele>354.033</ele>
        <time>2019-10-17T16:28:20Z</time>
      </trkpt>
      <trkpt lat="40.09279" lon="-7.32006">
        <ele>354.626</ele>
        <time>2019-10-17T16:28:40Z</time>
      </trkpt>
      <trkpt lat="40.0929" lon="-7.31999">
        <ele>355.508</ele>
        <time>2019-10-17T16:29:00Z</time>
      </trkpt>
      <trkpt lat="40.09332" lon="-7.31974">
        <ele>360.751</ele>
        <time>2019-10-17T16:29:20Z</time>
      </trkpt>
      <trkpt lat="40.09373" lon="-7.31951">
        <ele>366.239</ele>
        <time>2019-10-17T16:29:40Z</time>
      </trkpt>
      <trkpt lat="40.09384" lon="-7.31942">
        <ele>367.731</ele>
        <time>2019-10-17T16:30:00Z</time>
      </trkpt>
      <trkpt lat="40.09393" lon="-7.31933">
        <ele>368.671</ele>
        <time>2019-10-17T16:30:20Z</time>
      </trkpt>
      <trkpt lat="40.09401" lon="-7.31922">
        <ele>369.233</ele>
        <time>2019-10-17T16:30:40Z</time>
      </trkpt>
      <trkpt lat="40.09407" lon="-7.31909">
        <ele>369.814</ele>
        <time>2019-10-17T16:31:00Z</time>
      </trkpt>
      <trkpt lat="40.09412" lon="-7.31895">
        <ele>370.466</ele>
        <time>2019-10-17T16:31:20Z</time>
      </trkpt>
      <trkpt lat="40.09415" lon="-7.31881">
        <ele>370.666</ele>
        <time>2019-10-17T16:31:40Z</time>
      </trkpt>
      <trkpt lat="40.09418" lon="-7.31867">
        <ele>370.251</ele>
        <time>2019-10-17T16:32:00Z</time>
      </trkpt>
      <trkpt lat="40.09423" lon="-7.31855">
        <ele>370.001</ele>
        <time>2019-10-17T16:32:20Z</time>
      </trkpt>
      <trkpt lat="40.09429" lon="-7.31846">
        <ele>370.111</ele>
        <time>2019-10-17T16:32:40Z</time>
      </trkpt>
      <trkpt lat="40.09435" lon="-7.3184">
        <ele>370.408</ele>
        <time>2019-10-17T16:33:00Z</time>
      </trkpt>
      <trkpt lat="40.09443" lon="-7.31836">
        <ele>370.999</ele>
        <time>2019-10-17T16:33:20Z</time>
      </trkpt>
      <trkpt lat="40.09452" lon="-7.31833">
        <ele>371.017</ele>
        <time>2019-10-17T16:33:40Z</time>
      </trkpt>
      <trkpt lat="40.09461" lon="-7.31828">
        <ele>371.089</ele>
        <time>2019-10-17T16:34:00Z</time>
      </trkpt>
      <trkpt lat="40.09471" lon="-7.31821">
        <ele>371.419</ele>
        <time>2019-10-17T16:34:20Z</time>
      </trkpt>
      <trkpt lat="40.09533" lon="-7.31779">
        <ele>377.921</ele>
        <time>2019-10-17T16:34:40Z</time>
      </trkpt>
      <trkpt lat="40.09547" lon="-7.31772">
        <ele>378.042</ele>
        <time>2019-10-17T16:35:00Z</time>
      </trkpt>
      <trkpt lat="40.09579" lon="-7.31761">
        <ele>377.734</ele>
        <time>2019-10-17T16:35:20Z</time>
      </trkpt>
      <trkpt lat="40.09645" lon="-7.31739">
        <ele>381.574</ele>
        <time>2019-10-17T16:35:40Z</time>
      </trkpt>
      <trkpt lat="40.09701" lon="-7.3172">
        <ele>381.578</ele>
        <time>2019-10-17T16:36:00Z</time>
      </trkpt>
      <trkpt lat="40.09714" lon="-7.31719">
        <ele>382.433</ele>
        <time>2019-10-17T16:36:20Z</time>
      </trkpt>
      <trkpt lat="40.09727" lon="-7.3172">
        <ele>383.326</ele>
        <time>2019-10-17T16:36:40Z</time>
      </trkpt>
      <trkpt lat="40.0974" lon="-7.31722">
        <ele>384.308</ele>
        <time>2019-10-17T16:37:00Z</time>
      </trkpt>
      <trkpt lat="40.09752" lon="-7.31725">
        <ele>385.121</ele>
        <time>2019-10-17T16:37:20Z</time>
      </trkpt>
      <trkpt lat="40.09763" lon="-7.31728">
        <ele>385.539</ele>
        <time>2019-10-17T16:37:40Z</time>
      </trkpt>
      <trkpt lat="40.09783" lon="-7.31737">
        <ele>386.061</ele>
        <time>2019-10-17T16:38:00Z</time>
      </trkpt>
      <trkpt lat="40.09786" lon="-7.31741">
        <ele>386.111</ele>
        <time>2019-10-17T16:38:20Z</time>
      </trkpt>
      <trkpt lat="40.09789" lon="-7.31749">
        <ele>386.483</ele>
        <time>2019-10-17T16:38:40Z</time>
      </trkpt>
      <trkpt lat="40.098" lon="-7.31789">
        <ele>388.594</ele>
        <time>2019-10-17T16:39:00Z</time>
      </trkpt>
      <trkpt lat="40.09808" lon="-7.31804">
        <ele>389.966</ele>
        <time>2019-10-17T16:39:20Z</time>
      </trkpt>
      <trkpt lat="40.09817" lon="-7.31819">
        <ele>390.086</ele>
        <time>2019-10-17T16:39:40Z</time>
      </trkpt>
      <trkpt lat="40.09829" lon="-7.31832">
        <ele>390.056</ele>
        <time>2019-10-17T16:40:00Z</time>
      </trkpt>
      <trkpt lat="40.09843" lon="-7.31844">
        <ele>390.059</ele>
        <time>2019-10-17T16:40:20Z</time>
      </trkpt>
      <trkpt lat="40.09858" lon="-7.31853">
        <ele>390.014</ele>
        <time>2019-10-17T16:40:40Z</time>
      </trkpt>
      <trkpt lat="40.09874" lon="-7.3186">
        <ele>390.408</ele>
        <time>2019-10-17T16:41:00Z</time>
      </trkpt>
      <trkpt lat="40.09891" lon="-7.31865">
        <ele>391.089</ele>
        <time>2019-10-17T16:41:20Z</time>
      </trkpt>
      <trkpt lat="40.09909" lon="-7.31869">
        <ele>391.427</ele>
        <time>2019-10-17T16:41:40Z</time>
      </trkpt>
      <trkpt lat="40.09927" lon="-7.3187">
        <ele>392.389</ele>
        <time>2019-10-17T16:42:00Z</time>
      </trkpt>
      <trkpt lat="40.09944" lon="-7.3187">
        <ele>393.319</ele>
        <time>2019-10-17T16:42:20Z</time>
      </trkpt>
      <trkpt lat="40.09959" lon="-7.31867">
        <ele>394.341</ele>
        <time>2019-10-17T16:42:40Z</time>
      </trkpt>
      <trkpt lat="40.09975" lon="-7.31862">
        <ele>395.172</ele>
        <time>2019-10-17T16:43:00Z</time>
      </trkpt>
      <trkpt lat="40.0999" lon="-7.31853">
        <ele>395.314</ele>
        <time>2019-10-17T16:43:20Z</time>
      </trkpt>
      <trkpt lat="40.10004" lon="-7.31841">
        <ele>395.564</ele>
        <time>2019-10-17T16:43:40Z</time>
      </trkpt>
      <trkpt lat="40.10019" lon="-7.31828">
        <ele>395.574</ele>
        <time>2019-10-17T16:44:00Z</time>
      </trkpt>
      <trkpt lat="40.10059" lon="-7.31787">
        <ele>396.456</ele>
        <time>2019-10-17T16:44:20Z</time>
      </trkpt>
      <trkpt lat="40.10072" lon="-7.3177">
        <ele>397.721</ele>
        <time>2019-10-17T16:44:40Z</time>
      </trkpt>
      <trkpt lat="40.10083" lon="-7.31751">
        <ele>398.908</ele>
        <time>2019-10-17T16:45:00Z</time>
      </trkpt>
      <trkpt lat="40.10094" lon="-7.31731">
        <ele>402.581</ele>
        <time>2019-10-17T16:45:20Z</time>
      </trkpt>
      <trkpt lat="40.10103" lon="-7.31709">
        <ele>405.659</ele>
        <time>2019-10-17T16:45:40Z</time>
      </trkpt>
      <trkpt lat="40.10111" lon="-7.31687">
        <ele>407.551</ele>
        <time>2019-10-17T16:46:00Z</time>
      </trkpt>
      <trkpt lat="40.10118" lon="-7.31666">
        <ele>409.321</ele>
        <time>2019-10-17T16:46:20Z</time>
      </trkpt>
      <trkpt lat="40.10125" lon="-7.31646">
        <ele>409.963</ele>
        <time>2019-10-17T16:46:40Z</time>
      </trkpt>
      <trkpt lat="40.10145" lon="-7.31591">
        <ele>407.524</ele>
        <time>2019-10-17T16:47:00Z</time>
      </trkpt>
      <trkpt lat="40.10154" lon="-7.31573">
        <ele>406.456</ele>
        <time>2019-10-17T16:47:20Z</time>
      </trkpt>
      <trkpt lat="40.10166" lon="-7.31556">
        <ele>405.136</ele>
        <time>2019-10-17T16:47:40Z</time>
      </trkpt>
      <trkpt lat="40.10212" lon="-7.31497">
        <ele>399.925</ele>
        <time>2019-10-17T16:48:00Z</time>
      </trkpt>
      <trkpt lat="40.1022" lon="-7.31484">
        <ele>399.426</ele>
        <time>2019-10-17T16:48:20Z</time>
      </trkpt>
      <trkpt lat="40.10225" lon="-7.31468">
        <ele>399.308</ele>
        <time>2019-10-17T16:48:40Z</time>
      </trkpt>
      <trkpt lat="40.10227" lon="-7.3145">
        <ele>399.508</ele>
        <time>2019-10-17T16:49:00Z</time>
      </trkpt>
      <trkpt lat="40.10226" lon="-7.31432">
        <ele>400.166</ele>
        <time>2019-10-17T16:49:20Z</time>
      </trkpt>
      <trkpt lat="40.10226" lon="-7.31415">
        <ele>401.244</ele>
        <time>2019-10-17T16:49:40Z</time>
      </trkpt>
      <trkpt lat="40.10228" lon="-7.31399">
        <ele>402.746</ele>
        <time>2019-10-17T16:50:00Z</time>
      </trkpt>
      <trkpt lat="40.10233" lon="-7.31384">
        <ele>403.766</ele>
        <time>2019-10-17T16:50:20Z</time>
      </trkpt>
      <trkpt lat="40.10241" lon="-7.3137">
        <ele>404.258</ele>
        <time>2019-10-17T16:50:40Z</time>
      </trkpt>
      <trkpt lat="40.10259" lon="-7.31343">
        <ele>405.949</ele>
        <time>2019-10-17T16:51:00Z</time>
      </trkpt>
      <trkpt lat="40.10267" lon="-7.31333">
        <ele>406.171</ele>
        <time>2019-10-17T16:51:20Z</time>
      </trkpt>
      <trkpt lat="40.10274" lon="-7.31326">
        <ele>405.971</ele>
        <time>2019-10-17T16:51:40Z</time>
      </trkpt>
      <trkpt lat="40.10277" lon="-7.31321">
        <ele>406.028</ele>
        <time>2019-10-17T16:52:00Z</time>
      </trkpt>
      <trkpt lat="40.1028" lon="-7.31318">
        <ele>406.089</ele>
        <time>2019-10-17T16:52:20Z</time>
      </trkpt>
      <trkpt lat="40.10283" lon="-7.3132">
        <ele>405.917</ele>
        <time>2019-10-17T16:52:40Z</time>
      </trkpt>
      <trkpt lat="40.10287" lon="-7.31325">
        <ele>405.508</ele>
        <time>2019-10-17T16:53:00Z</time>
      </trkpt>
      <trkpt lat="40.10293" lon="-7.31333">
        <ele>405.066</ele>
        <time>2019-10-17T16:53:20Z</time>
      </trkpt>
      <trkpt lat="40.10299" lon="-7.31344">
        <ele>404.594</ele>
        <time>2019-10-17T16:53:40Z</time>
      </trkpt>
      <trkpt lat="40.10307" lon="-7.31355">
        <ele>404.346</ele>
        <time>2019-10-17T16:54:00Z</time>
      </trkpt>
      <trkpt lat="40.10317" lon="-7.31366">
        <ele>404.376</ele>
        <time>2019-10-17T16:54:20Z</time>
      </trkpt>
      <trkpt lat="40.10329" lon="-7.31376">
        <ele>404.828</ele>
        <time>2019-10-17T16:54:40Z</time>
      </trkpt>
      <trkpt lat="40.10343" lon="-7.31386">
        <ele>405.749</ele>
        <time>2019-10-17T16:55:00Z</time>
      </trkpt>
      <trkpt lat="40.10357" lon="-7.31394">
        <ele>406.771</ele>
        <time>2019-10-17T16:55:20Z</time>
      </trkpt>
      <trkpt lat="40.10372" lon="-7.31402">
        <ele>407.691</ele>
        <time>2019-10-17T16:55:40Z</time>
      </trkpt>
      <trkpt lat="40.10386" lon="-7.31409">
        <ele>408.587</ele>
        <time>2019-10-17T16:56:00Z</time>
      </trkpt>
      <trkpt lat="40.10409" lon="-7.31425">
        <ele>409.042</ele>
        <time>2019-10-17T16:56:20Z</time>
      </trkpt>
      <trkpt lat="40.10419" lon="-7.31436">
        <ele>408.826</ele>
        <time>2019-10-17T16:56:40Z</time>
      </trkpt>
      <trkpt lat="40.10429" lon="-7.31448">
        <ele>408.108</ele>
        <time>2019-10-17T16:57:00Z</time>
      </trkpt>
      <trkpt lat="40.10469" lon="-7.31503">
        <ele>406.222</ele>
        <time>2019-10-17T16:57:20Z</time>
      </trkpt>
      <trkpt lat="40.1048" lon="-7.31513">
        <ele>406.13</ele>
        <time>2019-10-17T16:57:40Z</time>
      </trkpt>
      <trkpt lat="40.10491" lon="-7.3152">
        <ele>405.922</ele>
        <time>2019-10-17T16:58:00Z</time>
      </trkpt>
      <trkpt lat="40.10498" lon="-7.31523">
        <ele>405.752</ele>
        <time>2019-10-17T16:58:20Z</time>
      </trkpt>
      <trkpt lat="40.10503" lon="-7.31522">
        <ele>405.634</ele>
        <time>2019-10-17T16:58:40Z</time>
      </trkpt>
      <trkpt lat="40.10505" lon="-7.31519">
        <ele>405.485</ele>
        <time>2019-10-17T16:59:00Z</time>
      </trkpt>
      <trkpt lat="40.10505" lon="-7.31517">
        <ele>405.217</ele>
        <time>2019-10-17T16:59:20Z</time>
      </trkpt>
      <trkpt lat="40.10505" lon="-7.31517">
        <ele>405.257</ele>
        <time>2019-10-17T16:59:40Z</time>
      </trkpt>
      <trkpt lat="40.10505" lon="-7.31517">
        <ele>405.214</ele>
        <time>2019-10-17T17:00:00Z</time>
      </trkpt>
      <trkpt lat="40.10505" lon="-7.31517">
        <ele>405.254</ele>
        <time>2019-10-17T17:00:20Z</time>
      </trkpt>
      <trkpt lat="40.10511" lon="-7.3148">
        <ele>403.309</ele>
        <time>2019-10-17T17:00:40Z</time>
      </trkpt>
      <trkpt lat="40.1053" lon="-7.31396">
        <ele>400.008</ele>
        <time>2019-10-17T17:01:00Z</time>
      </trkpt>
      <trkpt lat="40.10534" lon="-7.31385">
        <ele>399.845</ele>
        <time>2019-10-17T17:01:20Z</time>
      </trkpt>
      <trkpt lat="40.1054" lon="-7.31376">
        <ele>399.583</ele>
        <time>2019-10-17T17:01:40Z</time>
      </trkpt>
      <trkpt lat="40.10547" lon="-7.31369">
        <ele>399.385</ele>
        <time>2019-10-17T17:02:00Z</time>
      </trkpt>
      <trkpt lat="40.10553" lon="-7.31364">
        <ele>399.145</ele>
        <time>2019-10-17T17:02:20Z</time>
      </trkpt>
      <trkpt lat="40.10559" lon="-7.31359">
        <ele>398.897</ele>
        <time>2019-10-17T17:02:40Z</time>
      </trkpt>
      <trkpt lat="40.10576" lon="-7.31345">
        <ele>398.188</ele>
        <time>2019-10-17T17:03:00Z</time>
      </trkpt>
      <trkpt lat="40.10606" lon="-7.31124">
        <ele>391.61</ele>
        <time>2019-10-17T17:03:20Z</time>
      </trkpt>
      <trkpt lat="40.10623" lon="-7.31091">
        <ele>390.04</ele>
        <time>2019-10-17T17:03:40Z</time>
      </trkpt>
      <trkpt lat="40.10693" lon="-7.31054">
        <ele>385.867</ele>
        <time>2019-10-17T17:04:00Z</time>
      </trkpt>
      <trkpt lat="40.1085" lon="-7.30885">
        <ele>381.381</ele>
        <time>2019-10-17T17:04:20Z</time>
      </trkpt>
      <trkpt lat="40.10863" lon="-7.30856">
        <ele>382.619</ele>
        <time>2019-10-17T17:04:40Z</time>
      </trkpt>
      <trkpt lat="40.11031" lon="-7.30749">
        <ele>375.708</ele>
        <time>2019-10-17T17:05:00Z</time>
      </trkpt>
      <trkpt lat="40.11149" lon="-7.30699">
        <ele>370.39</ele>
        <time>2019-10-17T17:05:20Z</time>
      </trkpt>
      <trkpt lat="40.11209" lon="-7.30617">
        <ele>371.748</ele>
        <time>2019-10-17T17:05:40Z</time>
      </trkpt>
      <trkpt lat="40.11305" lon="-7.30576">
        <ele>369.26</ele>
        <time>2019-10-17T17:06:00Z</time>
      </trkpt>
      <trkpt lat="40.1142" lon="-7.30568">
        <ele>362.39</ele>
        <time>2019-10-17T17:06:20Z</time>
      </trkpt>
      <trkpt lat="40.11487" lon="-7.30533">
        <ele>361.392</ele>
        <time>2019-10-17T17:06:40Z</time>
      </trkpt>
      <trkpt lat="40.11493" lon="-7.30372">
        <ele>362.313</ele>
        <time>2019-10-17T17:07:00Z</time>
      </trkpt>
      <trkpt lat="40.11471" lon="-7.30291">
        <ele>361.015</ele>
        <time>2019-10-17T17:07:20Z</time>
      </trkpt>
      <trkpt lat="40.11437" lon="-7.30135">
        <ele>355.075</ele>
        <time>2019-10-17T17:07:40Z</time>
      </trkpt>
      <trkpt lat="40.11463" lon="-7.30066">
        <ele>358.844</ele>
        <time>2019-10-17T17:08:00Z</time>
      </trkpt>
      <trkpt lat="40.11511" lon="-7.29989">
        <ele>363.205</ele>
        <time>2019-10-17T17:08:20Z</time>
      </trkpt>
      <trkpt lat="40.1151" lon="-7.2997">
        <ele>364.915</ele>
        <time>2019-10-17T17:08:40Z</time>
      </trkpt>
      <trkpt lat="40.11512" lon="-7.29894">
        <ele>363.108</ele>
        <time>2019-10-17T17:09:00Z</time>
      </trkpt>
      <trkpt lat="40.11549" lon="-7.29756">
        <ele>365.068</ele>
        <time>2019-10-17T17:09:20Z</time>
      </trkpt>
      <trkpt lat="40.11709" lon="-7.29484">
        <ele>369.286</ele>
        <time>2019-10-17T17:09:40Z</time>
      </trkpt>
      <trkpt lat="40.11765" lon="-7.29495">
        <ele>371.038</ele>
        <time>2019-10-17T17:10:00Z</time>
      </trkpt>
      <trkpt lat="40.11831" lon="-7.29514">
        <ele>372.548</ele>
        <time>2019-10-17T17:10:20Z</time>
      </trkpt>
      <trkpt lat="40.11983" lon="-7.29501">
        <ele>377.14</ele>
        <time>2019-10-17T17:10:40Z</time>
      </trkpt>
      <trkpt lat="40.12011" lon="-7.2949">
        <ele>379.051</ele>
        <time>2019-10-17T17:11:00Z</time>
      </trkpt>
      <trkpt lat="40.12146" lon="-7.29395">
        <ele>375.553</ele>
        <time>2019-10-17T17:11:20Z</time>
      </trkpt>
      <trkpt lat="40.1219" lon="-7.29371">
        <ele>374.893</ele>
        <time>2019-10-17T17:11:40Z</time>
      </trkpt>
      <trkpt lat="40.12214" lon="-7.29336">
        <ele>373.833</ele>
        <time>2019-10-17T17:12:00Z</time>
      </trkpt>
      <trkpt lat="40.12233" lon="-7.29246">
        <ele>375.123</ele>
        <time>2019-10-17T17:12:20Z</time>
      </trkpt>
      <trkpt lat="40.12278" lon="-7.29189">
        <ele>376.215</ele>
        <time>2019-10-17T17:12:40Z</time>
      </trkpt>
      <trkpt lat="40.12357" lon="-7.29158">
        <ele>378.208</ele>
        <time>2019-10-17T17:13:00Z</time>
      </trkpt>
      <trkpt lat="40.12482" lon="-7.29179">
        <ele>379.597</ele>
        <time>2019-10-17T17:13:20Z</time>
      </trkpt>
      <trkpt lat="40.12748" lon="-7.29349">
        <ele>390.915</ele>
        <time>2019-10-17T17:13:40Z</time>
      </trkpt>
      <trkpt lat="40.12826" lon="-7.29393">
        <ele>395.227</ele>
        <time>2019-10-17T17:14:00Z</time>
      </trkpt>
      <trkpt lat="40.12844" lon="-7.29393">
        <ele>395.047</ele>
        <time>2019-10-17T17:14:20Z</time>
      </trkpt>
      <trkpt lat="40.12847" lon="-7.29389">
        <ele>395.059</ele>
        <time>2019-10-17T17:14:40Z</time>
      </trkpt>
      <trkpt lat="40.12875" lon="-7.29341">
        <ele>392.88</ele>
        <time>2019-10-17T17:15:00Z</time>
      </trkpt>
      <trkpt lat="40.1288" lon="-7.29333">
        <ele>392.382</ele>
        <time>2019-10-17T17:15:20Z</time>
      </trkpt>
      <trkpt lat="40.12928" lon="-7.29292">
        <ele>388.482</ele>
        <time>2019-10-17T17:15:40Z</time>
      </trkpt>
      <trkpt lat="40.13002" lon="-7.29274">
        <ele>382.991</ele>
        <time>2019-10-17T17:16:00Z</time>
      </trkpt>
      <trkpt lat="40.13058" lon="-7.29217">
        <ele>380.981</ele>
        <time>2019-10-17T17:16:20Z</time>
      </trkpt>
      <trkpt lat="40.13111" lon="-7.29122">
        <ele>377.819</ele>
        <time>2019-10-17T17:16:40Z</time>
      </trkpt>
      <trkpt lat="40.1316" lon="-7.29052">
        <ele>374.708</ele>
        <time>2019-10-17T17:17:00Z</time>
      </trkpt>
      <trkpt lat="40.1319" lon="-7.29031">
        <ele>374.013</ele>
        <time>2019-10-17T17:17:20Z</time>
      </trkpt>
      <trkpt lat="40.13285" lon="-7.2902">
        <ele>377.531</ele>
        <time>2019-10-17T17:17:40Z</time>
      </trkpt>
      <trkpt lat="40.13373" lon="-7.28991">
        <ele>379.933</ele>
        <time>2019-10-17T17:18:00Z</time>
      </trkpt>
      <trkpt lat="40.1344" lon="-7.29007">
        <ele>379.223</ele>
        <time>2019-10-17T17:18:20Z</time>
      </trkpt>
      <trkpt lat="40.13641" lon="-7.28948">
        <ele>379.215</ele>
        <time>2019-10-17T17:18:40Z</time>
      </trkpt>
      <trkpt lat="40.13654" lon="-7.28959">
        <ele>380.686</ele>
        <time>2019-10-17T17:19:00Z</time>
      </trkpt>
      <trkpt lat="40.13694" lon="-7.28983">
        <ele>382.058</ele>
        <time>2019-10-17T17:19:20Z</time>
      </trkpt>
      <trkpt lat="40.13748" lon="-7.29063">
        <ele>385.428</ele>
        <time>2019-10-17T17:19:40Z</time>
      </trkpt>
      <trkpt lat="40.13773" lon="-7.28993">
        <ele>385.996</ele>
        <time>2019-10-17T17:20:00Z</time>
      </trkpt>
      <trkpt lat="40.13798" lon="-7.28959">
        <ele>381.531</ele>
        <time>2019-10-17T17:20:20Z</time>
      </trkpt>
      <trkpt lat="40.13861" lon="-7.2893">
        <ele>380.024</ele>
        <time>2019-10-17T17:20:40Z</time>
      </trkpt>
      <trkpt lat="40.13926" lon="-7.28974">
        <ele>384.408</ele>
        <time>2019-10-17T17:21:00Z</time>
      </trkpt>
      <trkpt lat="40.13959" lon="-7.28986">
        <ele>385.843</ele>
        <time>2019-10-17T17:21:20Z</time>
      </trkpt>
      <trkpt lat="40.14153" lon="-7.29101">
        <ele>383.341</ele>
        <time>2019-10-17T17:21:40Z</time>
      </trkpt>
      <trkpt lat="40.14202" lon="-7.29155">
        <ele>380.763</ele>
        <time>2019-10-17T17:22:00Z</time>
      </trkpt>
      <trkpt lat="40.14228" lon="-7.29202">
        <ele>380.123</ele>
        <time>2019-10-17T17:22:20Z</time>
      </trkpt>
      <trkpt lat="40.14309" lon="-7.29273">
        <ele>380.735</ele>
        <time>2019-10-17T17:22:40Z</time>
      </trkpt>
      <trkpt lat="40.14341" lon="-7.29284">
        <ele>380.996</ele>
        <time>2019-10-17T17:23:00Z</time>
      </trkpt>
      <trkpt lat="40.14403" lon="-7.29259">
        <ele>378.568</ele>
        <time>2019-10-17T17:23:20Z</time>
      </trkpt>
      <trkpt lat="40.14437" lon="-7.29219">
        <ele>379.438</ele>
        <time>2019-10-17T17:23:40Z</time>
      </trkpt>
      <trkpt lat="40.14463" lon="-7.29359">
        <ele>377.616</ele>
        <time>2019-10-17T17:24:00Z</time>
      </trkpt>
      <trkpt lat="40.14522" lon="-7.2952">
        <ele>379.876</ele>
        <time>2019-10-17T17:24:20Z</time>
      </trkpt>
      <trkpt lat="40.14593" lon="-7.29563">
        <ele>383.513</ele>
        <time>2019-10-17T17:24:40Z</time>
      </trkpt>
      <trkpt lat="40.14648" lon="-7.29513">
        <ele>383.008</ele>
        <time>2019-10-17T17:25:00Z</time>
      </trkpt>
      <trkpt lat="40.14678" lon="-7.29489">
        <ele>382.465</ele>
        <time>2019-10-17T17:25:20Z</time>
      </trkpt>
      <trkpt lat="40.147" lon="-7.29479">
        <ele>381.053</ele>
        <time>2019-10-17T17:25:40Z</time>
      </trkpt>
      <trkpt lat="40.14719" lon="-7.29419">
        <ele>378.265</ele>
        <time>2019-10-17T17:26:00Z</time>
      </trkpt>
      <trkpt lat="40.14729" lon="-7.2937">
        <ele>376.355</ele>
        <time>2019-10-17T17:26:20Z</time>
      </trkpt>
      <trkpt lat="40.14718" lon="-7.29304">
        <ele>376.177</ele>
        <time>2019-10-17T17:26:40Z</time>
      </trkpt>
      <trkpt lat="40.14714" lon="-7.29279">
        <ele>377.088</ele>
        <time>2019-10-17T17:27:00Z</time>
      </trkpt>
      <trkpt lat="40.14732" lon="-7.29176">
        <ele>373.76</ele>
        <time>2019-10-17T17:27:20Z</time>
      </trkpt>
      <trkpt lat="40.14721" lon="-7.29058">
        <ele>375.97</ele>
        <time>2019-10-17T17:27:40Z</time>
      </trkpt>
      <trkpt lat="40.14744" lon="-7.28988">
        <ele>379.222</ele>
        <time>2019-10-17T17:28:00Z</time>
      </trkpt>
      <trkpt lat="40.14781" lon="-7.28863">
        <ele>382.962</ele>
        <time>2019-10-17T17:28:20Z</time>
      </trkpt>
      <trkpt lat="40.14844" lon="-7.28499">
        <ele>383.408</ele>
        <time>2019-10-17T17:28:40Z</time>
      </trkpt>
      <trkpt lat="40.14872" lon="-7.28402">
        <ele>383.508</ele>
        <time>2019-10-17T17:29:00Z</time>
      </trkpt>
      <trkpt lat="40.15039" lon="-7.28142">
        <ele>384.936</ele>
        <time>2019-10-17T17:29:20Z</time>
      </trkpt>
      <trkpt lat="40.15041" lon="-7.2814">
        <ele>385.024</ele>
        <time>2019-10-17T17:29:40Z</time>
      </trkpt>
      <trkpt lat="40.15115" lon="-7.28001">
        <ele>383.356</ele>
        <time>2019-10-17T17:30:00Z</time>
      </trkpt>
      <trkpt lat="40.15138" lon="-7.27955">
        <ele>382.776</ele>
        <time>2019-10-17T17:30:20Z</time>
      </trkpt>
      <trkpt lat="40.15182" lon="-7.27905">
        <ele>382.568</ele>
        <time>2019-10-17T17:30:40Z</time>
      </trkpt>
      <trkpt lat="40.15376" lon="-7.27763">
        <ele>387.079</ele>
        <time>2019-10-17T17:31:00Z</time>
      </trkpt>
      <trkpt lat="40.15729" lon="-7.27636">
        <ele>407.671</ele>
        <time>2019-10-17T17:31:20Z</time>
      </trkpt>
      <trkpt lat="40.15775" lon="-7.27618">
        <ele>410.921</ele>
        <time>2019-10-17T17:31:40Z</time>
      </trkpt>
      <trkpt lat="40.15875" lon="-7.27596">
        <ele>414.314</ele>
        <time>2019-10-17T17:32:00Z</time>
      </trkpt>
      <trkpt lat="40.15981" lon="-7.27546">
        <ele>413.054</ele>
        <time>2019-10-17T17:32:20Z</time>
      </trkpt>
      <trkpt lat="40.16478" lon="-7.27428">
        <ele>413.609</ele>
        <time>2019-10-17T17:32:40Z</time>
      </trkpt>
      <trkpt lat="40.16611" lon="-7.27407">
        <ele>418.308</ele>
        <time>2019-10-17T17:33:00Z</time>
      </trkpt>
      <trkpt lat="40.16844" lon="-7.27382">
        <ele>418.035</ele>
        <time>2019-10-17T17:33:20Z</time>
      </trkpt>
      <trkpt lat="40.17196" lon="-7.27605">
        <ele>435.173</ele>
        <time>2019-10-17T17:33:40Z</time>
      </trkpt>
      <trkpt lat="40.17259" lon="-7.27765">
        <ele>423.435</ele>
        <time>2019-10-17T17:34:00Z</time>
      </trkpt>
      <trkpt lat="40.17421" lon="-7.27698">
        <ele>438.965</ele>
        <time>2019-10-17T17:34:20Z</time>
      </trkpt>
      <trkpt lat="40.17708" lon="-7.27387">
        <ele>464.527</ele>
        <time>2019-10-17T17:34:40Z</time>
      </trkpt>
      <trkpt lat="40.18014" lon="-7.2726">
        <ele>486.498</ele>
        <time>2019-10-17T17:35:00Z</time>
      </trkpt>
      <trkpt lat="40.18104" lon="-7.27287">
        <ele>495.56</ele>
        <time>2019-10-17T17:35:20Z</time>
      </trkpt>
      <trkpt lat="40.1814" lon="-7.27176">
        <ele>500.72</ele>
        <time>2019-10-17T17:35:40Z</time>
      </trkpt>
      <trkpt lat="40.18319" lon="-7.27093">
        <ele>487.984</ele>
        <time>2019-10-17T17:36:00Z</time>
      </trkpt>
      <trkpt lat="40.18432" lon="-7.27132">
        <ele>494.407</ele>
        <time>2019-10-17T17:36:20Z</time>
      </trkpt>
      <trkpt lat="40.18683" lon="-7.26965">
        <ele>515.917</ele>
        <time>2019-10-17T17:36:40Z</time>
      </trkpt>
      <trkpt lat="40.18863" lon="-7.26699">
        <ele>516.008</ele>
        <time>2019-10-17T17:37:00Z</time>
      </trkpt>
      <trkpt lat="40.18908" lon="-7.2656">
        <ele>511.342</ele>
        <time>2019-10-17T17:37:20Z</time>
      </trkpt>
      <trkpt lat="40.18966" lon="-7.26593">
        <ele>505.72</ele>
        <time>2019-10-17T17:37:40Z</time>
      </trkpt>
      <trkpt lat="40.19123" lon="-7.26499">
        <ele>512.022</ele>
        <time>2019-10-17T17:38:00Z</time>
      </trkpt>
      <trkpt lat="40.19501" lon="-7.25894">
        <ele>549.542</ele>
        <time>2019-10-17T17:38:20Z</time>
      </trkpt>
      <trkpt lat="40.19784" lon="-7.25605">
        <ele>570.354</ele>
        <time>2019-10-17T17:38:40Z</time>
      </trkpt>
      <trkpt lat="40.19869" lon="-7.25411">
        <ele>594.435</ele>
        <time>2019-10-17T17:39:00Z</time>
      </trkpt>
      <trkpt lat="40.20116" lon="-7.252">
        <ele>648.187</ele>
        <time>2019-10-17T17:39:20Z</time>
      </trkpt>
      <trkpt lat="40.20228" lon="-7.25216">
        <ele>675.167</ele>
        <time>2019-10-17T17:39:40Z</time>
      </trkpt>
      <trkpt lat="40.20538" lon="-7.25211">
        <ele>736.319</ele>
        <time>2019-10-17T17:40:00Z</time>
      </trkpt>
      <trkpt lat="40.20782" lon="-7.25651">
        <ele>702.609</ele>
        <time>2019-10-17T17:40:20Z</time>
      </trkpt>
      <trkpt lat="40.20901" lon="-7.2576">
        <ele>681.019</ele>
        <time>2019-10-17T17:40:40Z</time>
      </trkpt>
      <trkpt lat="40.21109" lon="-7.25729">
        <ele>640.608</ele>
        <time>2019-10-17T17:41:00Z</time>
      </trkpt>
      <trkpt lat="40.21136" lon="-7.25722">
        <ele>635.485</ele>
        <time>2019-10-17T17:41:20Z</time>
      </trkpt>
      <trkpt lat="40.2119" lon="-7.25755">
        <ele>622.113</ele>
        <time>2019-10-17T17:41:40Z</time>
      </trkpt>
      <trkpt lat="40.21209" lon="-7.25735">
        <ele>618.885</ele>
        <time>2019-10-17T17:42:00Z</time>
      </trkpt>
      <trkpt lat="40.21214" lon="-7.25492">
        <ele>582.835</ele>
        <time>2019-10-17T17:42:20Z</time>
      </trkpt>
      <trkpt lat="40.21481" lon="-7.25159">
        <ele>527.497</ele>
        <time>2019-10-17T17:42:40Z</time>
      </trkpt>
      <trkpt lat="40.21546" lon="-7.25139">
        <ele>523.118</ele>
        <time>2019-10-17T17:43:00Z</time>
      </trkpt>
      <trkpt lat="40.21648" lon="-7.25165">
        <ele>500.41</ele>
        <time>2019-10-17T17:43:20Z</time>
      </trkpt>
      <trkpt lat="40.21732" lon="-7.25135">
        <ele>490.86</ele>
        <time>2019-10-17T17:43:40Z</time>
      </trkpt>
      <trkpt lat="40.2185" lon="-7.25105">
        <ele>487.697</ele>
        <time>2019-10-17T17:44:00Z</time>
      </trkpt>
      <trkpt lat="40.2184" lon="-7.24912">
        <ele>491.023</ele>
        <time>2019-10-17T17:44:20Z</time>
      </trkpt>
      <trkpt lat="40.21872" lon="-7.24852">
        <ele>489.825</ele>
        <time>2019-10-17T17:44:40Z</time>
      </trkpt>
      <trkpt lat="40.22044" lon="-7.24992">
        <ele>486.808</ele>
        <time>2019-10-17T17:45:00Z</time>
      </trkpt>
      <trkpt lat="40.2223" lon="-7.25099">
        <ele>475.513</ele>
        <time>2019-10-17T17:45:20Z</time>
      </trkpt>
      <trkpt lat="40.22205" lon="-7.25312">
        <ele>475.721</ele>
        <time>2019-10-17T17:45:40Z</time>
      </trkpt>
      <trkpt lat="40.22482" lon="-7.25369">
        <ele>472.673</ele>
        <time>2019-10-17T17:46:00Z</time>
      </trkpt>
      <trkpt lat="40.22665" lon="-7.25374">
        <ele>468.133</ele>
        <time>2019-10-17T17:46:20Z</time>
      </trkpt>
      <trkpt lat="40.22689" lon="-7.25371">
        <ele>467.275</ele>
        <time>2019-10-17T17:46:40Z</time>
      </trkpt>
      <trkpt lat="40.22694" lon="-7.25307">
        <ele>467.056</ele>
        <time>2019-10-17T17:47:00Z</time>
      </trkpt>
      <trkpt lat="40.22806" lon="-7.25302">
        <ele>464.028</ele>
        <time>2019-10-17T17:47:20Z</time>
      </trkpt>
      <trkpt lat="40.22843" lon="-7.25431">
        <ele>459.028</ele>
        <time>2019-10-17T17:47:40Z</time>
      </trkpt>
      <trkpt lat="40.22903" lon="-7.25477">
        <ele>458.856</ele>
        <time>2019-10-17T17:48:00Z</time>
      </trkpt>
      <trkpt lat="40.23106" lon="-7.25479">
        <ele>458.059</ele>
        <time>2019-10-17T17:48:20Z</time>
      </trkpt>
      <trkpt lat="40.23135" lon="-7.25465">
        <ele>457.414</ele>
        <time>2019-10-17T17:48:40Z</time>
      </trkpt>
      <trkpt lat="40.23171" lon="-7.25346">
        <ele>456.808</ele>
        <time>2019-10-17T17:49:00Z</time>
      </trkpt>
      <trkpt lat="40.23147" lon="-7.25204">
        <ele>457.379</ele>
        <time>2019-10-17T17:49:20Z</time>
      </trkpt>
      <trkpt lat="40.23355" lon="-7.25277">
        <ele>460.637</ele>
        <time>2019-10-17T17:49:40Z</time>
      </trkpt>
      <trkpt lat="40.23531" lon="-7.24876">
        <ele>466.839</ele>
        <time>2019-10-17T17:50:00Z</time>
      </trkpt>
      <trkpt lat="40.23591" lon="-7.24793">
        <ele>466.159</ele>
        <time>2019-10-17T17:50:20Z</time>
      </trkpt>
      <trkpt lat="40.23631" lon="-7.24775">
        <ele>465.681</ele>
        <time>2019-10-17T17:50:40Z</time>
      </trkpt>
      <trkpt lat="40.23781" lon="-7.24804">
        <ele>475.162</ele>
        <time>2019-10-17T17:51:00Z</time>
      </trkpt>
      <trkpt lat="40.2393" lon="-7.24853">
        <ele>470.164</ele>
        <time>2019-10-17T17:51:20Z</time>
      </trkpt>
      <trkpt lat="40.23985" lon="-7.24954">
        <ele>466.444</ele>
        <time>2019-10-17T17:51:40Z</time>
      </trkpt>
      <trkpt lat="40.24451" lon="-7.25352">
        <ele>463.379</ele>
        <time>2019-10-17T17:52:00Z</time>
      </trkpt>
      <trkpt lat="40.24683" lon="-7.2535">
        <ele>468.205</ele>
        <time>2019-10-17T17:52:20Z</time>
      </trkpt>
      <trkpt lat="40.24702" lon="-7.25363">
        <ele>467.925</ele>
        <time>2019-10-17T17:52:40Z</time>
      </trkpt>
      <trkpt lat="40.24792" lon="-7.25475">
        <ele>466.608</ele>
        <time>2019-10-17T17:53:00Z</time>
      </trkpt>
      <trkpt lat="40.25041" lon="-7.25499">
        <ele>472.521</ele>
        <time>2019-10-17T17:53:20Z</time>
      </trkpt>
      <trkpt lat="40.25185" lon="-7.25468">
        <ele>476.789</ele>
        <time>2019-10-17T17:53:40Z</time>
      </trkpt>
      <trkpt lat="40.25248" lon="-7.25461">
        <ele>475.941</ele>
        <time>2019-10-17T17:54:00Z</time>
      </trkpt>
      <trkpt lat="40.25515" lon="-7.25481">
        <ele>466.871</ele>
        <time>2019-10-17T17:54:20Z</time>
      </trkpt>
      <trkpt lat="40.25839" lon="-7.25408">
        <ele>482.033</ele>
        <time>2019-10-17T17:54:40Z</time>
      </trkpt>
      <trkpt lat="40.25942" lon="-7.25437">
        <ele>483.134</ele>
        <time>2019-10-17T17:55:00Z</time>
      </trkpt>
      <trkpt lat="40.26065" lon="-7.25474">
        <ele>482.436</ele>
        <time>2019-10-17T17:55:20Z</time>
      </trkpt>
      <trkpt lat="40.26114" lon="-7.25484">
        <ele>484.616</ele>
        <time>2019-10-17T17:55:40Z</time>
      </trkpt>
      <trkpt lat="40.26204" lon="-7.25564">
        <ele>487.469</ele>
        <time>2019-10-17T17:56:00Z</time>
      </trkpt>
      <trkpt lat="40.26241" lon="-7.25527">
        <ele>491.304</ele>
        <time>2019-10-17T17:56:20Z</time>
      </trkpt>
      <trkpt lat="40.26345" lon="-7.25703">
        <ele>495.124</ele>
        <time>2019-10-17T17:56:40Z</time>
      </trkpt>
      <trkpt lat="40.26437" lon="-7.25944">
        <ele>501.208</ele>
        <time>2019-10-17T17:57:00Z</time>
      </trkpt>
      <trkpt lat="40.26487" lon="-7.26242">
        <ele>510.13</ele>
        <time>2019-10-17T17:57:20Z</time>
      </trkpt>
      <trkpt lat="40.26468" lon="-7.26282">
        <ele>511.078</ele>
        <time>2019-10-17T17:57:40Z</time>
      </trkpt>
      <trkpt lat="40.26529" lon="-7.26473">
        <ele>529.09</ele>
        <time>2019-10-17T17:58:00Z</time>
      </trkpt>
      <trkpt lat="40.26548" lon="-7.2665">
        <ele>543.41</ele>
        <time>2019-10-17T17:58:20Z</time>
      </trkpt>
      <trkpt lat="40.26581" lon="-7.26664">
        <ele>545.782</ele>
        <time>2019-10-17T17:58:40Z</time>
      </trkpt>
      <trkpt lat="40.26584" lon="-7.26688">
        <ele>548.363</ele>
        <time>2019-10-17T17:59:00Z</time>
      </trkpt>
      <trkpt lat="40.26681" lon="-7.26694">
        <ele>553.935</ele>
        <time>2019-10-17T17:59:20Z</time>
      </trkpt>
      <trkpt lat="40.26692" lon="-7.2679">
        <ele>562.235</ele>
        <time>2019-10-17T17:59:40Z</time>
      </trkpt>
      <trkpt lat="40.26722" lon="-7.26833">
        <ele>566.015</ele>
        <time>2019-10-17T18:00:00Z</time>
      </trkpt>
      <trkpt lat="40.26692" lon="-7.26993">
        <ele>583.165</ele>
        <time>2019-10-17T18:00:20Z</time>
      </trkpt>
      <trkpt lat="40.26832" lon="-7.27153">
        <ele>605.711</ele>
        <time>2019-10-17T18:00:40Z</time>
      </trkpt>
      <trkpt lat="40.26846" lon="-7.27317">
        <ele>628.408</ele>
        <time>2019-10-17T18:01:00Z</time>
      </trkpt>
      <trkpt lat="40.26962" lon="-7.27307">
        <ele>637.585</ele>
        <time>2019-10-17T18:01:20Z</time>
      </trkpt>
      <trkpt lat="40.2701" lon="-7.27287">
        <ele>638.183</ele>
        <time>2019-10-17T18:01:40Z</time>
      </trkpt>
      <trkpt lat="40.27226" lon="-7.2735">
        <ele>651.255</ele>
        <time>2019-10-17T18:02:00Z</time>
      </trkpt>
      <trkpt lat="40.27175" lon="-7.27462">
        <ele>661.625</ele>
        <time>2019-10-17T18:02:20Z</time>
      </trkpt>
      <trkpt lat="40.27216" lon="-7.27667">
        <ele>673.757</ele>
        <time>2019-10-17T18:02:40Z</time>
      </trkpt>
      <trkpt lat="40.2722" lon="-7.27928">
        <ele>685.918</ele>
        <time>2019-10-17T18:03:00Z</time>
      </trkpt>
      <trkpt lat="40.27279" lon="-7.28095">
        <ele>692.81</ele>
        <time>2019-10-17T18:03:20Z</time>
      </trkpt>
      <trkpt lat="40.27216" lon="-7.28312">
        <ele>709.77</ele>
        <time>2019-10-17T18:03:40Z</time>
      </trkpt>
      <trkpt lat="40.27122" lon="-7.28412">
        <ele>718.361</ele>
        <time>2019-10-17T18:04:00Z</time>
      </trkpt>
      <trkpt lat="40.27229" lon="-7.28539">
        <ele>727.121</ele>
        <time>2019-10-17T18:04:20Z</time>
      </trkpt>
      <trkpt lat="40.27184" lon="-7.28922">
        <ele>723.013</ele>
        <time>2019-10-17T18:04:40Z</time>
      </trkpt>
      <trkpt lat="40.27171" lon="-7.28989">
        <ele>715.508</ele>
        <time>2019-10-17T18:05:00Z</time>
      </trkpt>
      <trkpt lat="40.27243" lon="-7.29206">
        <ele>693.31</ele>
        <time>2019-10-17T18:05:20Z</time>
      </trkpt>
      <trkpt lat="40.27148" lon="-7.29678">
        <ele>668.378</ele>
        <time>2019-10-17T18:05:40Z</time>
      </trkpt>
      <trkpt lat="40.27256" lon="-7.2975">
        <ele>658.16</ele>
        <time>2019-10-17T18:06:00Z</time>
      </trkpt>
      <trkpt lat="40.27494" lon="-7.30166">
        <ele>602.17</ele>
        <time>2019-10-17T18:06:20Z</time>
      </trkpt>
      <trkpt lat="40.27683" lon="-7.30616">
        <ele>571.192</ele>
        <time>2019-10-17T18:06:40Z</time>
      </trkpt>
      <trkpt lat="40.27768" lon="-7.30671">
        <ele>568.793</ele>
        <time>2019-10-17T18:07:00Z</time>
      </trkpt>
      <trkpt lat="40.27885" lon="-7.30888">
        <ele>554.065</ele>
        <time>2019-10-17T18:07:20Z</time>
      </trkpt>
      <trkpt lat="40.28173" lon="-7.30927">
        <ele>536.535</ele>
        <time>2019-10-17T18:07:40Z</time>
      </trkpt>
      <trkpt lat="40.28173" lon="-7.30855">
        <ele>534.225</ele>
        <time>2019-10-17T18:08:00Z</time>
      </trkpt>
      <trkpt lat="40.28226" lon="-7.30838">
        <ele>529.626</ele>
        <time>2019-10-17T18:08:20Z</time>
      </trkpt>
      <trkpt lat="40.2828" lon="-7.30871">
        <ele>523.808</ele>
        <time>2019-10-17T18:08:40Z</time>
      </trkpt>
      <trkpt lat="40.28473" lon="-7.30799">
        <ele>510.008</ele>
        <time>2019-10-17T18:09:00Z</time>
      </trkpt>
      <trkpt lat="40.28487" lon="-7.30721">
        <ele>507.056</ele>
        <time>2019-10-17T18:09:20Z</time>
      </trkpt>
      <trkpt lat="40.2855" lon="-7.30666">
        <ele>506.594</ele>
        <time>2019-10-17T18:09:40Z</time>
      </trkpt>
      <trkpt lat="40.28747" lon="-7.30721">
        <ele>498.086</ele>
        <time>2019-10-17T18:10:00Z</time>
      </trkpt>
      <trkpt lat="40.29021" lon="-7.30533">
        <ele>490.986</ele>
        <time>2019-10-17T18:10:20Z</time>
      </trkpt>
      <trkpt lat="40.29197" lon="-7.30499">
        <ele>489.098</ele>
        <time>2019-10-17T18:10:40Z</time>
      </trkpt>
      <trkpt lat="40.29295" lon="-7.30555">
        <ele>491.619</ele>
        <time>2019-10-17T18:11:00Z</time>
      </trkpt>
      <trkpt lat="40.29596" lon="-7.30388">
        <ele>502.581</ele>
        <time>2019-10-17T18:11:20Z</time>
      </trkpt>
      <trkpt lat="40.29776" lon="-7.30394">
        <ele>500.221</ele>
        <time>2019-10-17T18:11:40Z</time>
      </trkpt>
      <trkpt lat="40.30257" lon="-7.31232">
        <ele>465.271</ele>
        <time>2019-10-17T18:12:00Z</time>
      </trkpt>
      <trkpt lat="40.30328" lon="-7.3126">
        <ele>465.641</ele>
        <time>2019-10-17T18:12:20Z</time>
      </trkpt>
      <trkpt lat="40.30351" lon="-7.31238">
        <ele>465.615</ele>
        <time>2019-10-17T18:12:40Z</time>
      </trkpt>
      <trkpt lat="40.30495" lon="-7.31243">
        <ele>468.008</ele>
        <time>2019-10-17T18:13:00Z</time>
      </trkpt>
      <trkpt lat="40.30701" lon="-7.31832">
        <ele>473.041</ele>
        <time>2019-10-17T18:13:20Z</time>
      </trkpt>
      <trkpt lat="40.30993" lon="-7.32115">
        <ele>464.889</ele>
        <time>2019-10-17T18:13:40Z</time>
      </trkpt>
      <trkpt lat="40.30999" lon="-7.31982">
        <ele>461.411</ele>
        <time>2019-10-17T18:14:00Z</time>
      </trkpt>
      <trkpt lat="40.31129" lon="-7.32038">
        <ele>456.541</ele>
        <time>2019-10-17T18:14:20Z</time>
      </trkpt>
      <trkpt lat="40.31133" lon="-7.3223">
        <ele>456.353</ele>
        <time>2019-10-17T18:14:40Z</time>
      </trkpt>
      <trkpt lat="40.31227" lon="-7.32209">
        <ele>452.864</ele>
        <time>2019-10-17T18:15:00Z</time>
      </trkpt>
      <trkpt lat="40.31313" lon="-7.32149">
        <ele>451.056</ele>
        <time>2019-10-17T18:15:20Z</time>
      </trkpt>
      <trkpt lat="40.31367" lon="-7.32156">
        <ele>452.246</ele>
        <time>2019-10-17T18:15:40Z</time>
      </trkpt>
      <trkpt lat="40.3143" lon="-7.32188">
        <ele>453.725</ele>
        <time>2019-10-17T18:16:00Z</time>
      </trkpt>
      <trkpt lat="40.31466" lon="-7.3206">
        <ele>456.626</ele>
        <time>2019-10-17T18:16:20Z</time>
      </trkpt>
      <trkpt lat="40.31461" lon="-7.31955">
        <ele>457.608</ele>
        <time>2019-10-17T18:16:40Z</time>
      </trkpt>
      <trkpt lat="40.31614" lon="-7.31966">
        <ele>462.808</ele>
        <time>2019-10-17T18:17:00Z</time>
      </trkpt>
      <trkpt lat="40.31821" lon="-7.32027">
        <ele>471.086</ele>
        <time>2019-10-17T18:17:20Z</time>
      </trkpt>
      <trkpt lat="40.31861" lon="-7.3196">
        <ele>470.614</ele>
        <time>2019-10-17T18:17:40Z</time>
      </trkpt>
      <trkpt lat="40.31955" lon="-7.31949">
        <ele>470.086</ele>
        <time>2019-10-17T18:18:00Z</time>
      </trkpt>
      <trkpt lat="40.31964" lon="-7.32088">
        <ele>476.026</ele>
        <time>2019-10-17T18:18:20Z</time>
      </trkpt>
      <trkpt lat="40.32036" lon="-7.32021">
        <ele>475.788</ele>
        <time>2019-10-17T18:18:40Z</time>
      </trkpt>
      <trkpt lat="40.3209" lon="-7.32327">
        <ele>484.879</ele>
        <time>2019-10-17T18:19:00Z</time>
      </trkpt>
      <trkpt lat="40.32139" lon="-7.32377">
        <ele>486.111</ele>
        <time>2019-10-17T18:19:20Z</time>
      </trkpt>
      <trkpt lat="40.32292" lon="-7.32982">
        <ele>463.231</ele>
        <time>2019-10-17T18:19:40Z</time>
      </trkpt>
      <trkpt lat="40.32382" lon="-7.32921">
        <ele>460.632</ele>
        <time>2019-10-17T18:20:00Z</time>
      </trkpt>
      <trkpt lat="40.32737" lon="-7.32927">
        <ele>455.492</ele>
        <time>2019-10-17T18:20:20Z</time>
      </trkpt>
      <trkpt lat="40.32873" lon="-7.33212">
        <ele>452.611</ele>
        <time>2019-10-17T18:20:40Z</time>
      </trkpt>
      <trkpt lat="40.33444" lon="-7.33422">
        <ele>473.008</ele>
        <time>2019-10-17T18:21:00Z</time>
      </trkpt>
      <trkpt lat="40.33591" lon="-7.33176">
        <ele>462.197</ele>
        <time>2019-10-17T18:21:20Z</time>
      </trkpt>
      <trkpt lat="40.33609" lon="-7.33168">
        <ele>462.035</ele>
        <time>2019-10-17T18:21:40Z</time>
      </trkpt>
      <trkpt lat="40.33776" lon="-7.32881">
        <ele>459.727</ele>
        <time>2019-10-17T18:22:00Z</time>
      </trkpt>
      <trkpt lat="40.33845" lon="-7.32846">
        <ele>460.257</ele>
        <time>2019-10-17T18:22:20Z</time>
      </trkpt>
      <trkpt lat="40.33904" lon="-7.32779">
        <ele>457.659</ele>
        <time>2019-10-17T18:22:40Z</time>
      </trkpt>
      <trkpt lat="40.34016" lon="-7.3269">
        <ele>459.41</ele>
        <time>2019-10-17T18:23:00Z</time>
      </trkpt>
      <trkpt lat="40.34284" lon="-7.3249">
        <ele>461.642</ele>
        <time>2019-10-17T18:23:20Z</time>
      </trkpt>
      <trkpt lat="40.34365" lon="-7.32538">
        <ele>463.772</ele>
        <time>2019-10-17T18:23:40Z</time>
      </trkpt>
      <trkpt lat="40.34423" lon="-7.32556">
        <ele>464.877</ele>
        <time>2019-10-17T18:24:00Z</time>
      </trkpt>
      <trkpt lat="40.34456" lon="-7.32523">
        <ele>461.961</ele>
        <time>2019-10-17T18:24:20Z</time>
      </trkpt>
      <trkpt lat="40.34516" lon="-7.32699">
        <ele>461.727</ele>
        <time>2019-10-17T18:24:40Z</time>
      </trkpt>
      <trkpt lat="40.34487" lon="-7.32788">
        <ele>471.008</ele>
        <time>2019-10-17T18:25:00Z</time>
      </trkpt>
      <trkpt lat="40.34575" lon="-7.32934">
        <ele>469.681</ele>
        <time>2019-10-17T18:25:20Z</time>
      </trkpt>
      <trkpt lat="40.34606" lon="-7.33027">
        <ele>470.459</ele>
        <time>2019-10-17T18:25:40Z</time>
      </trkpt>
      <trkpt lat="40.34729" lon="-7.33217">
        <ele>471.841</ele>
        <time>2019-10-17T18:26:00Z</time>
      </trkpt>
      <trkpt lat="40.34827" lon="-7.33397">
        <ele>484.161</ele>
        <time>2019-10-17T18:26:20Z</time>
      </trkpt>
      <trkpt lat="40.3482" lon="-7.33426">
        <ele>484.823</ele>
        <time>2019-10-17T18:26:40Z</time>
      </trkpt>
      <trkpt lat="40.34725" lon="-7.33496">
        <ele>487.914</ele>
        <time>2019-10-17T18:27:00Z</time>
      </trkpt>
      <trkpt lat="40.35058" lon="-7.33713">
        <ele>474.186</ele>
        <time>2019-10-17T18:27:20Z</time>
      </trkpt>
      <trkpt lat="40.35297" lon="-7.33534">
        <ele>489.536</ele>
        <time>2019-10-17T18:27:40Z</time>
      </trkpt>
      <trkpt lat="40.35574" lon="-7.33643">
        <ele>490.423</ele>
        <time>2019-10-17T18:28:00Z</time>
      </trkpt>
      <trkpt lat="40.35719" lon="-7.33752">
        <ele>489.883</ele>
        <time>2019-10-17T18:28:20Z</time>
      </trkpt>
      <trkpt lat="40.35951" lon="-7.33791">
        <ele>496.011</ele>
        <time>2019-10-17T18:28:40Z</time>
      </trkpt>
      <trkpt lat="40.36171" lon="-7.33814">
        <ele>498.308</ele>
        <time>2019-10-17T18:29:00Z</time>
      </trkpt>
      <trkpt lat="40.36178" lon="-7.33978">
        <ele>505.576</ele>
        <time>2019-10-17T18:29:20Z</time>
      </trkpt>
      <trkpt lat="40.36182" lon="-7.34072">
        <ele>515.324</ele>
        <time>2019-10-17T18:29:40Z</time>
      </trkpt>
      <trkpt lat="40.36074" lon="-7.34132">
        <ele>518.596</ele>
        <time>2019-10-17T18:30:00Z</time>
      </trkpt>
      <trkpt lat="40.36091" lon="-7.34193">
        <ele>522.686</ele>
        <time>2019-10-17T18:30:20Z</time>
      </trkpt>
      <trkpt lat="40.36165" lon="-7.34276">
        <ele>530.178</ele>
        <time>2019-10-17T18:30:40Z</time>
      </trkpt>
      <trkpt lat="40.36172" lon="-7.3431">
        <ele>532.849</ele>
        <time>2019-10-17T18:31:00Z</time>
      </trkpt>
      <trkpt lat="40.36151" lon="-7.3437">
        <ele>537.581</ele>
        <time>2019-10-17T18:31:20Z</time>
      </trkpt>
      <trkpt lat="40.36144" lon="-7.3442">
        <ele>541.851</ele>
        <time>2019-10-17T18:31:40Z</time>
      </trkpt>
      <trkpt lat="40.36169" lon="-7.34445">
        <ele>540.931</ele>
        <time>2019-10-17T18:32:00Z</time>
      </trkpt>
      <trkpt lat="40.36219" lon="-7.34448">
        <ele>541.661</ele>
        <time>2019-10-17T18:32:20Z</time>
      </trkpt>
      <trkpt lat="40.3631" lon="-7.34486">
        <ele>547.407</ele>
        <time>2019-10-17T18:32:40Z</time>
      </trkpt>
      <trkpt lat="40.36319" lon="-7.34528">
        <ele>551.008</ele>
        <time>2019-10-17T18:33:00Z</time>
      </trkpt>
      <trkpt lat="40.36248" lon="-7.34676">
        <ele>560.237</ele>
        <time>2019-10-17T18:33:20Z</time>
      </trkpt>
      <trkpt lat="40.36223" lon="-7.347">
        <ele>564.075</ele>
        <time>2019-10-17T18:33:40Z</time>
      </trkpt>
      <trkpt lat="40.36203" lon="-7.34703">
        <ele>566.447</ele>
        <time>2019-10-17T18:34:00Z</time>
      </trkpt>
      <trkpt lat="40.36194" lon="-7.34725">
        <ele>568.177</ele>
        <time>2019-10-17T18:34:20Z</time>
      </trkpt>
      <trkpt lat="40.3613" lon="-7.34766">
        <ele>577.349</ele>
        <time>2019-10-17T18:34:40Z</time>
      </trkpt>
      <trkpt lat="40.36149" lon="-7.34854">
        <ele>570.02</ele>
        <time>2019-10-17T18:35:00Z</time>
      </trkpt>
      <trkpt lat="40.36214" lon="-7.34889">
        <ele>556.572</ele>
        <time>2019-10-17T18:35:20Z</time>
      </trkpt>
      <trkpt lat="40.36311" lon="-7.34916">
        <ele>539.082</ele>
        <time>2019-10-17T18:35:40Z</time>
      </trkpt>
      <trkpt lat="40.36329" lon="-7.34908">
        <ele>536.772</ele>
        <time>2019-10-17T18:36:00Z</time>
      </trkpt>
      <trkpt lat="40.36405" lon="-7.34971">
        <ele>522.813</ele>
        <time>2019-10-17T18:36:20Z</time>
      </trkpt>
      <trkpt lat="40.36416" lon="-7.34991">
        <ele>520.714</ele>
        <time>2019-10-17T18:36:40Z</time>
      </trkpt>
      <trkpt lat="40.3644" lon="-7.35146">
        <ele>507.208</ele>
        <time>2019-10-17T18:37:00Z</time>
      </trkpt>
      <trkpt lat="40.36466" lon="-7.35186">
        <ele>499.661</ele>
        <time>2019-10-17T18:37:20Z</time>
      </trkpt>
      <trkpt lat="40.36442" lon="-7.35248">
        <ele>496.969</ele>
        <time>2019-10-17T18:37:40Z</time>
      </trkpt>
      <trkpt lat="40.36411" lon="-7.35291">
        <ele>495.971</ele>
        <time>2019-10-17T18:38:00Z</time>
      </trkpt>
      <trkpt lat="40.36407" lon="-7.35304">
        <ele>493.681</ele>
        <time>2019-10-17T18:38:20Z</time>
      </trkpt>
      <trkpt lat="40.36387" lon="-7.35319">
        <ele>492.443</ele>
        <time>2019-10-17T18:38:40Z</time>
      </trkpt>
      <trkpt lat="40.36349" lon="-7.35363">
        <ele>496.094</ele>
        <time>2019-10-17T18:39:00Z</time>
      </trkpt>
      <trkpt lat="40.36323" lon="-7.35391">
        <ele>498.276</ele>
        <time>2019-10-17T18:39:20Z</time>
      </trkpt>
      <trkpt lat="40.36314" lon="-7.35416">
        <ele>496.266</ele>
        <time>2019-10-17T18:39:40Z</time>
      </trkpt>
      <trkpt lat="40.36318" lon="-7.35431">
        <ele>493.649</ele>
        <time>2019-10-17T18:40:00Z</time>
      </trkpt>
      <trkpt lat="40.363" lon="-7.35486">
        <ele>487.802</ele>
        <time>2019-10-17T18:40:20Z</time>
      </trkpt>
      <trkpt lat="40.36284" lon="-7.35514">
        <ele>486.622</ele>
        <time>2019-10-17T18:40:40Z</time>
      </trkpt>
      <trkpt lat="40.36276" lon="-7.35536">
        <ele>485.508</ele>
        <time>2019-10-17T18:41:00Z</time>
      </trkpt>
      <trkpt lat="40.36281" lon="-7.35552">
        <ele>482.898</ele>
        <time>2019-10-17T18:41:20Z</time>
      </trkpt>
      <trkpt lat="40.36322" lon="-7.35547">
        <ele>477.446</ele>
        <time>2019-10-17T18:41:40Z</time>
      </trkpt>
      <trkpt lat="40.36381" lon="-7.35609">
        <ele>467.618</ele>
        <time>2019-10-17T18:42:00Z</time>
      </trkpt>
      <trkpt lat="40.36401" lon="-7.35628">
        <ele>465.468</ele>
        <time>2019-10-17T18:42:20Z</time>
      </trkpt>
      <trkpt lat="40.36639" lon="-7.35888">
        <ele>461.07</ele>
        <time>2019-10-17T18:42:40Z</time>
      </trkpt>
      <trkpt lat="40.36681" lon="-7.35939">
        <ele>460.491</ele>
        <time>2019-10-17T18:43:00Z</time>
      </trkpt>
      <trkpt lat="40.36692" lon="-7.35955">
        <ele>460.913</ele>
        <time>2019-10-17T18:43:20Z</time>
      </trkpt>
      <trkpt lat="40.36802" lon="-7.36056">
        <ele>466.953</ele>
        <time>2019-10-17T18:43:40Z</time>
      </trkpt>
      <trkpt lat="40.37263" lon="-7.36544">
        <ele>473.465</ele>
        <time>2019-10-17T18:44:00Z</time>
      </trkpt>
      <trkpt lat="40.37367" lon="-7.36789">
        <ele>479.068</ele>
        <time>2019-10-17T18:44:20Z</time>
      </trkpt>
      <trkpt lat="40.37375" lon="-7.36814">
        <ele>480.314</ele>
        <time>2019-10-17T18:44:40Z</time>
      </trkpt>
      <trkpt lat="40.37397" lon="-7.36966">
        <ele>488.708</ele>
        <time>2019-10-17T18:45:00Z</time>
      </trkpt>
      <trkpt lat="40.37429" lon="-7.37036">
        <ele>492.41</ele>
        <time>2019-10-17T18:45:20Z</time>
      </trkpt>
      <trkpt lat="40.37442" lon="-7.37042">
        <ele>493.818</ele>
        <time>2019-10-17T18:45:40Z</time>
      </trkpt>
      <trkpt lat="40.3757" lon="-7.37023">
        <ele>503.98</ele>
        <time>2019-10-17T18:46:00Z</time>
      </trkpt>
      <trkpt lat="40.37622" lon="-7.37015">
        <ele>506.51</ele>
        <time>2019-10-17T18:46:20Z</time>
      </trkpt>
      <trkpt lat="40.37648" lon="-7.37026">
        <ele>507.562</ele>
        <time>2019-10-17T18:46:40Z</time>
      </trkpt>
      <trkpt lat="40.37686" lon="-7.37095">
        <ele>509.563</ele>
        <time>2019-10-17T18:47:00Z</time>
      </trkpt>
      <trkpt lat="40.37708" lon="-7.37131">
        <ele>511.065</ele>
        <time>2019-10-17T18:47:20Z</time>
      </trkpt>
      <trkpt lat="40.37736" lon="-7.3715">
        <ele>515.465</ele>
        <time>2019-10-17T18:47:40Z</time>
      </trkpt>
      <trkpt lat="40.37864" lon="-7.37103">
        <ele>524.859</ele>
        <time>2019-10-17T18:48:00Z</time>
      </trkpt>
      <trkpt lat="40.37902" lon="-7.37111">
        <ele>524.503</ele>
        <time>2019-10-17T18:48:20Z</time>
      </trkpt>
      <trkpt lat="40.3792" lon="-7.37137">
        <ele>524.323</ele>
        <time>2019-10-17T18:48:40Z</time>
      </trkpt>
      <trkpt lat="40.37971" lon="-7.37372">
        <ele>544.708</ele>
        <time>2019-10-17T18:49:00Z</time>
      </trkpt>
      <trkpt lat="40.37993" lon="-7.37596">
        <ele>548.629</ele>
        <time>2019-10-17T18:49:20Z</time>
      </trkpt>
      <trkpt lat="40.37996" lon="-7.3764">
        <ele>547.417</ele>
        <time>2019-10-17T18:49:40Z</time>
      </trkpt>
      <trkpt lat="40.38024" lon="-7.37708">
        <ele>555.189</ele>
        <time>2019-10-17T18:50:00Z</time>
      </trkpt>
      <trkpt lat="40.38061" lon="-7.37732">
        <ele>555.779</ele>
        <time>2019-10-17T18:50:20Z</time>
      </trkpt>
      <trkpt lat="40.38219" lon="-7.37668">
        <ele>562.011</ele>
        <time>2019-10-17T18:50:40Z</time>
      </trkpt>
      <trkpt lat="40.38303" lon="-7.37668">
        <ele>568.322</ele>
        <time>2019-10-17T18:51:00Z</time>
      </trkpt>
      <trkpt lat="40.38375" lon="-7.37664">
        <ele>570.134</ele>
        <time>2019-10-17T18:51:20Z</time>
      </trkpt>
      <trkpt lat="40.38523" lon="-7.37539">
        <ele>565.834</ele>
        <time>2019-10-17T18:51:40Z</time>
      </trkpt>
      <trkpt lat="40.38571" lon="-7.37535">
        <ele>567.064</ele>
        <time>2019-10-17T18:52:00Z</time>
      </trkpt>
      <trkpt lat="40.38598" lon="-7.37555">
        <ele>569.806</ele>
        <time>2019-10-17T18:52:20Z</time>
      </trkpt>
      <trkpt lat="40.38696" lon="-7.37712">
        <ele>566.216</ele>
        <time>2019-10-17T18:52:40Z</time>
      </trkpt>
      <trkpt lat="40.38723" lon="-7.37781">
        <ele>563.908</ele>
        <time>2019-10-17T18:53:00Z</time>
      </trkpt>
      <trkpt lat="40.38728" lon="-7.37829">
        <ele>563.22</ele>
        <time>2019-10-17T18:53:20Z</time>
      </trkpt>
      <trkpt lat="40.38722" lon="-7.3793">
        <ele>559.738</ele>
        <time>2019-10-17T18:53:40Z</time>
      </trkpt>
      <trkpt lat="40.38705" lon="-7.38005">
        <ele>560.06</ele>
        <time>2019-10-17T18:54:00Z</time>
      </trkpt>
      <trkpt lat="40.38641" lon="-7.3821">
        <ele>549.94</ele>
        <time>2019-10-17T18:54:20Z</time>
      </trkpt>
      <trkpt lat="40.38632" lon="-7.3829">
        <ele>546.182</ele>
        <time>2019-10-17T18:54:40Z</time>
      </trkpt>
      <trkpt lat="40.38659" lon="-7.38354">
        <ele>541.853</ele>
        <time>2019-10-17T18:55:00Z</time>
      </trkpt>
      <trkpt lat="40.38801" lon="-7.38406">
        <ele>537.275</ele>
        <time>2019-10-17T18:55:20Z</time>
      </trkpt>
      <trkpt lat="40.38823" lon="-7.38444">
        <ele>537.495</ele>
        <time>2019-10-17T18:55:40Z</time>
      </trkpt>
      <trkpt lat="40.38832" lon="-7.38492">
        <ele>533.372</ele>
        <time>2019-10-17T18:56:00Z</time>
      </trkpt>
      <trkpt lat="40.38831" lon="-7.38517">
        <ele>531.413</ele>
        <time>2019-10-17T18:56:20Z</time>
      </trkpt>
      <trkpt lat="40.38833" lon="-7.38622">
        <ele>533.414</ele>
        <time>2019-10-17T18:56:40Z</time>
      </trkpt>
      <trkpt lat="40.38911" lon="-7.38792">
        <ele>528.808</ele>
        <time>2019-10-17T18:57:00Z</time>
      </trkpt>
      <trkpt lat="40.38967" lon="-7.3893">
        <ele>517.541</ele>
        <time>2019-10-17T18:57:20Z</time>
      </trkpt>
      <trkpt lat="40.39" lon="-7.38952">
        <ele>519.439</ele>
        <time>2019-10-17T18:57:40Z</time>
      </trkpt>
      <trkpt lat="40.39085" lon="-7.38958">
        <ele>518.441</ele>
        <time>2019-10-17T18:58:00Z</time>
      </trkpt>
      <trkpt lat="40.39133" lon="-7.38985">
        <ele>516.371</ele>
        <time>2019-10-17T18:58:20Z</time>
      </trkpt>
      <trkpt lat="40.39504" lon="-7.39311">
        <ele>511.753</ele>
        <time>2019-10-17T18:58:40Z</time>
      </trkpt>
      <trkpt lat="40.39619" lon="-7.39412">
        <ele>507.744</ele>
        <time>2019-10-17T18:59:00Z</time>
      </trkpt>
      <trkpt lat="40.3975" lon="-7.39468">
        <ele>504.326</ele>
        <time>2019-10-17T18:59:20Z</time>
      </trkpt>
      <trkpt lat="40.39787" lon="-7.39487">
        <ele>509.526</ele>
        <time>2019-10-17T18:59:40Z</time>
      </trkpt>
      <trkpt lat="40.39915" lon="-7.39629">
        <ele>518.925</ele>
        <time>2019-10-17T19:00:00Z</time>
      </trkpt>
      <trkpt lat="40.40011" lon="-7.39731">
        <ele>517.026</ele>
        <time>2019-10-17T19:00:20Z</time>
      </trkpt>
      <trkpt lat="40.40079" lon="-7.39723">
        <ele>510.108</ele>
        <time>2019-10-17T19:00:40Z</time>
      </trkpt>
      <trkpt lat="40.40174" lon="-7.39578">
        <ele>507.608</ele>
        <time>2019-10-17T19:01:00Z</time>
      </trkpt>
      <trkpt lat="40.40296" lon="-7.39584">
        <ele>511.516</ele>
        <time>2019-10-17T19:01:20Z</time>
      </trkpt>
      <trkpt lat="40.40383" lon="-7.3963">
        <ele>511.934</ele>
        <time>2019-10-17T19:01:40Z</time>
      </trkpt>
      <trkpt lat="40.40468" lon="-7.39686">
        <ele>508.846</ele>
        <time>2019-10-17T19:02:00Z</time>
      </trkpt>
      <trkpt lat="40.40475" lon="-7.39693">
        <ele>508.496</ele>
        <time>2019-10-17T19:02:20Z</time>
      </trkpt>
      <trkpt lat="40.40528" lon="-7.39755">
        <ele>502.358</ele>
        <time>2019-10-17T19:02:40Z</time>
      </trkpt>
      <trkpt lat="40.40553" lon="-7.39766">
        <ele>505.669</ele>
        <time>2019-10-17T19:03:00Z</time>
      </trkpt>
      <trkpt lat="40.40586" lon="-7.3976">
        <ele>510.331</ele>
        <time>2019-10-17T19:03:20Z</time>
      </trkpt>
      <trkpt lat="40.40631" lon="-7.39766">
        <ele>510.451</ele>
        <time>2019-10-17T19:03:40Z</time>
      </trkpt>
      <trkpt lat="40.408" lon="-7.39924">
        <ele>518.085</ele>
        <time>2019-10-17T19:04:00Z</time>
      </trkpt>
      <trkpt lat="40.40834" lon="-7.39935">
        <ele>520.489</ele>
        <time>2019-10-17T19:04:20Z</time>
      </trkpt>
      <trkpt lat="40.40862" lon="-7.39911">
        <ele>523.317</ele>
        <time>2019-10-17T19:04:40Z</time>
      </trkpt>
      <trkpt lat="40.40871" lon="-7.39889">
        <ele>524.308</ele>
        <time>2019-10-17T19:05:00Z</time>
      </trkpt>
      <trkpt lat="40.40868" lon="-7.39803">
        <ele>533.292</ele>
        <time>2019-10-17T19:05:20Z</time>
      </trkpt>
      <trkpt lat="40.40882" lon="-7.39776">
        <ele>534.87</ele>
        <time>2019-10-17T19:05:40Z</time>
      </trkpt>
      <trkpt lat="40.40903" lon="-7.3977">
        <ele>533.732</ele>
        <time>2019-10-17T19:06:00Z</time>
      </trkpt>
      <trkpt lat="40.40924" lon="-7.39779">
        <ele>532.182</ele>
        <time>2019-10-17T19:06:20Z</time>
      </trkpt>
      <trkpt lat="40.40938" lon="-7.39817">
        <ele>529.034</ele>
        <time>2019-10-17T19:06:40Z</time>
      </trkpt>
      <trkpt lat="40.40951" lon="-7.39823">
        <ele>530.125</ele>
        <time>2019-10-17T19:07:00Z</time>
      </trkpt>
      <trkpt lat="40.4098" lon="-7.39831">
        <ele>531.987</ele>
        <time>2019-10-17T19:07:20Z</time>
      </trkpt>
      <trkpt lat="40.41034" lon="-7.39785">
        <ele>537.697</ele>
        <time>2019-10-17T19:07:40Z</time>
      </trkpt>
      <trkpt lat="40.41133" lon="-7.3975">
        <ele>543.133</ele>
        <time>2019-10-17T19:08:00Z</time>
      </trkpt>
      <trkpt lat="40.41157" lon="-7.39727">
        <ele>544.723</ele>
        <time>2019-10-17T19:08:20Z</time>
      </trkpt>
      <trkpt lat="40.41176" lon="-7.39662">
        <ele>553.415</ele>
        <time>2019-10-17T19:08:40Z</time>
      </trkpt>
      <trkpt lat="40.41196" lon="-7.39644">
        <ele>553.208</ele>
        <time>2019-10-17T19:09:00Z</time>
      </trkpt>
      <trkpt lat="40.41236" lon="-7.39658">
        <ele>550.887</ele>
        <time>2019-10-17T19:09:20Z</time>
      </trkpt>
      <trkpt lat="40.41259" lon="-7.39657">
        <ele>552.055</ele>
        <time>2019-10-17T19:09:40Z</time>
      </trkpt>
      <trkpt lat="40.41285" lon="-7.39642">
        <ele>553.887</ele>
        <time>2019-10-17T19:10:00Z</time>
      </trkpt>
      <trkpt lat="40.41319" lon="-7.39578">
        <ele>558.667</ele>
        <time>2019-10-17T19:10:20Z</time>
      </trkpt>
      <trkpt lat="40.41343" lon="-7.39572">
        <ele>558.349</ele>
        <time>2019-10-17T19:10:40Z</time>
      </trkpt>
      <trkpt lat="40.41421" lon="-7.39575">
        <ele>556.13</ele>
        <time>2019-10-17T19:11:00Z</time>
      </trkpt>
      <trkpt lat="40.41444" lon="-7.39549">
        <ele>560.342</ele>
        <time>2019-10-17T19:11:20Z</time>
      </trkpt>
      <trkpt lat="40.41453" lon="-7.39512">
        <ele>563.822</ele>
        <time>2019-10-17T19:11:40Z</time>
      </trkpt>
      <trkpt lat="40.41461" lon="-7.395">
        <ele>564.257</ele>
        <time>2019-10-17T19:12:00Z</time>
      </trkpt>
      <trkpt lat="40.41484" lon="-7.39486">
        <ele>564</ele>
        <time>2019-10-17T19:12:20Z</time>
      </trkpt>
      <trkpt lat="40.41534" lon="-7.39506">
        <ele>560.72</ele>
        <time>2019-10-17T19:12:40Z</time>
      </trkpt>
      <trkpt lat="40.41564" lon="-7.39501">
        <ele>561.108</ele>
        <time>2019-10-17T19:13:00Z</time>
      </trkpt>
      <trkpt lat="40.41599" lon="-7.39488">
        <ele>559.999</ele>
        <time>2019-10-17T19:13:20Z</time>
      </trkpt>
      <trkpt lat="40.4162" lon="-7.39455">
        <ele>564.477</ele>
        <time>2019-10-17T19:13:40Z</time>
      </trkpt>
      <trkpt lat="40.41651" lon="-7.39437">
        <ele>568.449</ele>
        <time>2019-10-17T19:14:00Z</time>
      </trkpt>
      <trkpt lat="40.41691" lon="-7.3942">
        <ele>565.559</ele>
        <time>2019-10-17T19:14:20Z</time>
      </trkpt>
      <trkpt lat="40.417" lon="-7.39402">
        <ele>565.141</ele>
        <time>2019-10-17T19:14:40Z</time>
      </trkpt>
      <trkpt lat="40.41703" lon="-7.39336">
        <ele>575.842</ele>
        <time>2019-10-17T19:15:00Z</time>
      </trkpt>
      <trkpt lat="40.41722" lon="-7.39304">
        <ele>576.254</ele>
        <time>2019-10-17T19:15:20Z</time>
      </trkpt>
      <trkpt lat="40.41747" lon="-7.39314">
        <ele>576.634</ele>
        <time>2019-10-17T19:15:40Z</time>
      </trkpt>
      <trkpt lat="40.4179" lon="-7.3935">
        <ele>574.594</ele>
        <time>2019-10-17T19:16:00Z</time>
      </trkpt>
      <trkpt lat="40.41809" lon="-7.39359">
        <ele>573.257</ele>
        <time>2019-10-17T19:16:20Z</time>
      </trkpt>
      <trkpt lat="40.41854" lon="-7.39314">
        <ele>577.022</ele>
        <time>2019-10-17T19:16:40Z</time>
      </trkpt>
      <trkpt lat="40.41901" lon="-7.39211">
        <ele>585.208</ele>
        <time>2019-10-17T19:17:00Z</time>
      </trkpt>
      <trkpt lat="40.41928" lon="-7.39184">
        <ele>587.513</ele>
        <time>2019-10-17T19:17:20Z</time>
      </trkpt>
      <trkpt lat="40.41998" lon="-7.39197">
        <ele>589.741</ele>
        <time>2019-10-17T19:17:40Z</time>
      </trkpt>
      <trkpt lat="40.42121" lon="-7.39028">
        <ele>599.883</ele>
        <time>2019-10-17T19:18:00Z</time>
      </trkpt>
      <trkpt lat="40.42186" lon="-7.38972">
        <ele>603.523</ele>
        <time>2019-10-17T19:18:20Z</time>
      </trkpt>
      <trkpt lat="40.42217" lon="-7.38906">
        <ele>611.655</ele>
        <time>2019-10-17T19:18:40Z</time>
      </trkpt>
      <trkpt lat="40.42252" lon="-7.38899">
        <ele>610.216</ele>
        <time>2019-10-17T19:19:00Z</time>
      </trkpt>
      <trkpt lat="40.4226" lon="-7.3891">
        <ele>610.778</ele>
        <time>2019-10-17T19:19:20Z</time>
      </trkpt>
      <trkpt lat="40.42294" lon="-7.3899">
        <ele>610.988</ele>
        <time>2019-10-17T19:19:40Z</time>
      </trkpt>
      <trkpt lat="40.42373" lon="-7.39028">
        <ele>613.589</ele>
        <time>2019-10-17T19:20:00Z</time>
      </trkpt>
      <trkpt lat="40.42406" lon="-7.39023">
        <ele>612.806</ele>
        <time>2019-10-17T19:20:20Z</time>
      </trkpt>
      <trkpt lat="40.42429" lon="-7.39004">
        <ele>613.526</ele>
        <time>2019-10-17T19:20:40Z</time>
      </trkpt>
      <trkpt lat="40.42449" lon="-7.38922">
        <ele>619.308</ele>
        <time>2019-10-17T19:21:00Z</time>
      </trkpt>
      <trkpt lat="40.42465" lon="-7.38885">
        <ele>621.852</ele>
        <time>2019-10-17T19:21:20Z</time>
      </trkpt>
      <trkpt lat="40.42521" lon="-7.38873">
        <ele>618.56</ele>
        <time>2019-10-17T19:21:40Z</time>
      </trkpt>
      <trkpt lat="40.4253" lon="-7.38825">
        <ele>623.722</ele>
        <time>2019-10-17T19:22:00Z</time>
      </trkpt>
      <trkpt lat="40.42466" lon="-7.38767">
        <ele>629.792</ele>
        <time>2019-10-17T19:22:20Z</time>
      </trkpt>
      <trkpt lat="40.42465" lon="-7.387">
        <ele>635.834</ele>
        <time>2019-10-17T19:22:40Z</time>
      </trkpt>
      <trkpt lat="40.42512" lon="-7.38649">
        <ele>636.215</ele>
        <time>2019-10-17T19:23:00Z</time>
      </trkpt>
      <trkpt lat="40.4254" lon="-7.38566">
        <ele>641.697</ele>
        <time>2019-10-17T19:23:20Z</time>
      </trkpt>
      <trkpt lat="40.42603" lon="-7.3853">
        <ele>645.337</ele>
        <time>2019-10-17T19:23:40Z</time>
      </trkpt>
      <trkpt lat="40.42627" lon="-7.38488">
        <ele>647.776</ele>
        <time>2019-10-17T19:24:00Z</time>
      </trkpt>
      <trkpt lat="40.42617" lon="-7.38384">
        <ele>653.19</ele>
        <time>2019-10-17T19:24:20Z</time>
      </trkpt>
      <trkpt lat="40.42641" lon="-7.38238">
        <ele>662.419</ele>
        <time>2019-10-17T19:24:40Z</time>
      </trkpt>
      <trkpt lat="40.42672" lon="-7.38186">
        <ele>664.608</ele>
        <time>2019-10-17T19:25:00Z</time>
      </trkpt>
      <trkpt lat="40.4272" lon="-7.38184">
        <ele>664.121</ele>
        <time>2019-10-17T19:25:20Z</time>
      </trkpt>
      <trkpt lat="40.4287" lon="-7.38243">
        <ele>674.439</ele>
        <time>2019-10-17T19:25:40Z</time>
      </trkpt>
      <trkpt lat="40.42902" lon="-7.38231">
        <ele>675.441</ele>
        <time>2019-10-17T19:26:00Z</time>
      </trkpt>
      <trkpt lat="40.42993" lon="-7.38107">
        <ele>682.741</ele>
        <time>2019-10-17T19:26:20Z</time>
      </trkpt>
      <trkpt lat="40.43012" lon="-7.38056">
        <ele>687.343</ele>
        <time>2019-10-17T19:26:40Z</time>
      </trkpt>
      <trkpt lat="40.43006" lon="-7.37977">
        <ele>694.884</ele>
        <time>2019-10-17T19:27:00Z</time>
      </trkpt>
      <trkpt lat="40.43016" lon="-7.37913">
        <ele>698.476</ele>
        <time>2019-10-17T19:27:20Z</time>
      </trkpt>
      <trkpt lat="40.43032" lon="-7.37892">
        <ele>699.166</ele>
        <time>2019-10-17T19:27:40Z</time>
      </trkpt>
      <trkpt lat="40.43079" lon="-7.37876">
        <ele>702.174</ele>
        <time>2019-10-17T19:28:00Z</time>
      </trkpt>
      <trkpt lat="40.43112" lon="-7.37889">
        <ele>701.356</ele>
        <time>2019-10-17T19:28:20Z</time>
      </trkpt>
      <trkpt lat="40.43128" lon="-7.37904">
        <ele>703.621</ele>
        <time>2019-10-17T19:28:40Z</time>
      </trkpt>
      <trkpt lat="40.43122" lon="-7.37931">
        <ele>697.808</ele>
        <time>2019-10-17T19:29:00Z</time>
      </trkpt>
      <trkpt lat="40.43127" lon="-7.37944">
        <ele>697.761</ele>
        <time>2019-10-17T19:29:20Z</time>
      </trkpt>
      <trkpt lat="40.43154" lon="-7.37984">
        <ele>697.829</ele>
        <time>2019-10-17T19:29:40Z</time>
      </trkpt>
      <trkpt lat="40.43162" lon="-7.38023">
        <ele>690.521</ele>
        <time>2019-10-17T19:30:00Z</time>
      </trkpt>
      <trkpt lat="40.43186" lon="-7.38049">
        <ele>689.231</ele>
        <time>2019-10-17T19:30:20Z</time>
      </trkpt>
      <trkpt lat="40.43219" lon="-7.38079">
        <ele>686.873</ele>
        <time>2019-10-17T19:30:40Z</time>
      </trkpt>
      <trkpt lat="40.43238" lon="-7.38073">
        <ele>688.664</ele>
        <time>2019-10-17T19:31:00Z</time>
      </trkpt>
      <trkpt lat="40.43258" lon="-7.38075">
        <ele>688.386</ele>
        <time>2019-10-17T19:31:20Z</time>
      </trkpt>
      <trkpt lat="40.43284" lon="-7.3807">
        <ele>689.196</ele>
        <time>2019-10-17T19:31:40Z</time>
      </trkpt>
      <trkpt lat="40.43302" lon="-7.3807">
        <ele>688.422</ele>
        <time>2019-10-17T19:32:00Z</time>
      </trkpt>
      <trkpt lat="40.43319" lon="-7.38099">
        <ele>682.262</ele>
        <time>2019-10-17T19:32:20Z</time>
      </trkpt>
      <trkpt lat="40.43412" lon="-7.38169">
        <ele>672.108</ele>
        <time>2019-10-17T19:32:40Z</time>
      </trkpt>
      <trkpt lat="40.43456" lon="-7.3821">
        <ele>666.308</ele>
        <time>2019-10-17T19:33:00Z</time>
      </trkpt>
      <trkpt lat="40.4348" lon="-7.3821">
        <ele>664.316</ele>
        <time>2019-10-17T19:33:20Z</time>
      </trkpt>
      <trkpt lat="40.43508" lon="-7.38167">
        <ele>665.864</ele>
        <time>2019-10-17T19:33:40Z</time>
      </trkpt>
      <trkpt lat="40.43525" lon="-7.38167">
        <ele>663.466</ele>
        <time>2019-10-17T19:34:00Z</time>
      </trkpt>
      <trkpt lat="40.43553" lon="-7.38172">
        <ele>660.396</ele>
        <time>2019-10-17T19:34:20Z</time>
      </trkpt>
      <trkpt lat="40.43597" lon="-7.38161">
        <ele>660.468</ele>
        <time>2019-10-17T19:34:40Z</time>
      </trkpt>
      <trkpt lat="40.43615" lon="-7.38121">
        <ele>663.519</ele>
        <time>2019-10-17T19:35:00Z</time>
      </trkpt>
      <trkpt lat="40.43624" lon="-7.38086">
        <ele>666.251</ele>
        <time>2019-10-17T19:35:20Z</time>
      </trkpt>
      <trkpt lat="40.43666" lon="-7.38086">
        <ele>658.871</ele>
        <time>2019-10-17T19:35:40Z</time>
      </trkpt>
      <trkpt lat="40.43704" lon="-7.38111">
        <ele>654.718</ele>
        <time>2019-10-17T19:36:00Z</time>
      </trkpt>
      <trkpt lat="40.4375" lon="-7.38112">
        <ele>653.998</ele>
        <time>2019-10-17T19:36:20Z</time>
      </trkpt>
      <trkpt lat="40.43778" lon="-7.38113">
        <ele>652.717</ele>
        <time>2019-10-17T19:36:40Z</time>
      </trkpt>
      <trkpt lat="40.43799" lon="-7.381">
        <ele>651.608</ele>
        <time>2019-10-17T19:37:00Z</time>
      </trkpt>
      <trkpt lat="40.43851" lon="-7.38055">
        <ele>649.225</ele>
        <time>2019-10-17T19:37:20Z</time>
      </trkpt>
      <trkpt lat="40.43855" lon="-7.38037">
        <ele>651.213</ele>
        <time>2019-10-17T19:37:40Z</time>
      </trkpt>
      <trkpt lat="40.43854" lon="-7.3802">
        <ele>654.335</ele>
        <time>2019-10-17T19:38:00Z</time>
      </trkpt>
      <trkpt lat="40.4387" lon="-7.38007">
        <ele>653.275</ele>
        <time>2019-10-17T19:38:20Z</time>
      </trkpt>
      <trkpt lat="40.43895" lon="-7.38014">
        <ele>647.897</ele>
        <time>2019-10-17T19:38:40Z</time>
      </trkpt>
      <trkpt lat="40.43942" lon="-7.38035">
        <ele>641.348</ele>
        <time>2019-10-17T19:39:00Z</time>
      </trkpt>
      <trkpt lat="40.4397" lon="-7.38045">
        <ele>636.98</ele>
        <time>2019-10-17T19:39:20Z</time>
      </trkpt>
      <trkpt lat="40.44042" lon="-7.38004">
        <ele>632.14</ele>
        <time>2019-10-17T19:39:40Z</time>
      </trkpt>
      <trkpt lat="40.44065" lon="-7.37977">
        <ele>630.281</ele>
        <time>2019-10-17T19:40:00Z</time>
      </trkpt>
      <trkpt lat="40.44086" lon="-7.38006">
        <ele>621.861</ele>
        <time>2019-10-17T19:40:20Z</time>
      </trkpt>
      <trkpt lat="40.44143" lon="-7.37978">
        <ele>624.717</ele>
        <time>2019-10-17T19:40:40Z</time>
      </trkpt>
      <trkpt lat="40.44198" lon="-7.37985">
        <ele>626.908</ele>
        <time>2019-10-17T19:41:00Z</time>
      </trkpt>
      <trkpt lat="40.44241" lon="-7.38022">
        <ele>621.412</ele>
        <time>2019-10-17T19:41:20Z</time>
      </trkpt>
      <trkpt lat="40.4429" lon="-7.38049">
        <ele>628.65</ele>
        <time>2019-10-17T19:41:40Z</time>
      </trkpt>
      <trkpt lat="40.44317" lon="-7.38048">
        <ele>632.042</ele>
        <time>2019-10-17T19:42:00Z</time>
      </trkpt>
      <trkpt lat="40.44346" lon="-7.38026">
        <ele>634.562</ele>
        <time>2019-10-17T19:42:20Z</time>
      </trkpt>
      <trkpt lat="40.44379" lon="-7.3795">
        <ele>637.784</ele>
        <time>2019-10-17T19:42:40Z</time>
      </trkpt>
      <trkpt lat="40.44402" lon="-7.37888">
        <ele>640.035</ele>
        <time>2019-10-17T19:43:00Z</time>
      </trkpt>
      <trkpt lat="40.44431" lon="-7.37893">
        <ele>643.817</ele>
        <time>2019-10-17T19:43:20Z</time>
      </trkpt>
      <trkpt lat="40.44437" lon="-7.379">
        <ele>645.437</ele>
        <time>2019-10-17T19:43:40Z</time>
      </trkpt>
      <trkpt lat="40.44419" lon="-7.37932">
        <ele>644.663</ele>
        <time>2019-10-17T19:44:00Z</time>
      </trkpt>
      <trkpt lat="40.44422" lon="-7.38051">
        <ele>658.644</ele>
        <time>2019-10-17T19:44:20Z</time>
      </trkpt>
      <trkpt lat="40.44378" lon="-7.38122">
        <ele>664.318</ele>
        <time>2019-10-17T19:44:40Z</time>
      </trkpt>
      <trkpt lat="40.44345" lon="-7.38126">
        <ele>661.808</ele>
        <time>2019-10-17T19:45:00Z</time>
      </trkpt>
      <trkpt lat="40.44325" lon="-7.38155">
        <ele>668.35</ele>
        <time>2019-10-17T19:45:20Z</time>
      </trkpt>
      <trkpt lat="40.44293" lon="-7.38193">
        <ele>671.198</ele>
        <time>2019-10-17T19:45:40Z</time>
      </trkpt>
      <trkpt lat="40.44282" lon="-7.38216">
        <ele>674.84</ele>
        <time>2019-10-17T19:46:00Z</time>
      </trkpt>
      <trkpt lat="40.44252" lon="-7.38258">
        <ele>681.32</ele>
        <time>2019-10-17T19:46:20Z</time>
      </trkpt>
      <trkpt lat="40.44232" lon="-7.38278">
        <ele>678.362</ele>
        <time>2019-10-17T19:46:40Z</time>
      </trkpt>
      <trkpt lat="40.44225" lon="-7.38322">
        <ele>685.493</ele>
        <time>2019-10-17T19:47:00Z</time>
      </trkpt>
      <trkpt lat="40.44233" lon="-7.38331">
        <ele>690.585</ele>
        <time>2019-10-17T19:47:20Z</time>
      </trkpt>
      <trkpt lat="40.44245" lon="-7.38327">
        <ele>694.465</ele>
        <time>2019-10-17T19:47:40Z</time>
      </trkpt>
      <trkpt lat="40.44293" lon="-7.38289">
        <ele>698.953</ele>
        <time>2019-10-17T19:48:00Z</time>
      </trkpt>
      <trkpt lat="40.44316" lon="-7.38278">
        <ele>698.304</ele>
        <time>2019-10-17T19:48:20Z</time>
      </trkpt>
      <trkpt lat="40.44358" lon="-7.38282">
        <ele>706.814</ele>
        <time>2019-10-17T19:48:40Z</time>
      </trkpt>
      <trkpt lat="40.44378" lon="-7.38272">
        <ele>707.608</ele>
        <time>2019-10-17T19:49:00Z</time>
      </trkpt>
      <trkpt lat="40.44467" lon="-7.3826">
        <ele>725.549</ele>
        <time>2019-10-17T19:49:20Z</time>
      </trkpt>
      <trkpt lat="40.44482" lon="-7.38243">
        <ele>726.667</ele>
        <time>2019-10-17T19:49:40Z</time>
      </trkpt>
      <trkpt lat="40.4451" lon="-7.38183">
        <ele>719.999</ele>
        <time>2019-10-17T19:50:00Z</time>
      </trkpt>
      <trkpt lat="40.44528" lon="-7.38162">
        <ele>718.659</ele>
        <time>2019-10-17T19:50:20Z</time>
      </trkpt>
      <trkpt lat="40.44549" lon="-7.38166">
        <ele>722.111</ele>
        <time>2019-10-17T19:50:40Z</time>
      </trkpt>
      <trkpt lat="40.44555" lon="-7.38188">
        <ele>729.122</ele>
        <time>2019-10-17T19:51:00Z</time>
      </trkpt>
      <trkpt lat="40.44527" lon="-7.38199">
        <ele>729.034</ele>
        <time>2019-10-17T19:51:20Z</time>
      </trkpt>
      <trkpt lat="40.44523" lon="-7.38223">
        <ele>734.264</ele>
        <time>2019-10-17T19:51:40Z</time>
      </trkpt>
      <trkpt lat="40.44523" lon="-7.38221">
        <ele>733.792</ele>
        <time>2019-10-17T19:52:00Z</time>
      </trkpt>
      <trkpt lat="40.44531" lon="-7.38249">
        <ele>739.573</ele>
        <time>2019-10-17T19:52:20Z</time>
      </trkpt>
      <trkpt lat="40.44529" lon="-7.38284">
        <ele>745.42</ele>
        <time>2019-10-17T19:52:40Z</time>
      </trkpt>
      <trkpt lat="40.44514" lon="-7.38342">
        <ele>758.008</ele>
        <time>2019-10-17T19:53:00Z</time>
      </trkpt>
      <trkpt lat="40.44478" lon="-7.38371">
        <ele>760.313</ele>
        <time>2019-10-17T19:53:20Z</time>
      </trkpt>
      <trkpt lat="40.44442" lon="-7.38386">
        <ele>758.541</ele>
        <time>2019-10-17T19:53:40Z</time>
      </trkpt>
      <trkpt lat="40.44422" lon="-7.38423">
        <ele>765.613</ele>
        <time>2019-10-17T19:54:00Z</time>
      </trkpt>
      <trkpt lat="40.4439" lon="-7.3845">
        <ele>766.673</ele>
        <time>2019-10-17T19:54:20Z</time>
      </trkpt>
      <trkpt lat="40.44375" lon="-7.38481">
        <ele>770.275</ele>
        <time>2019-10-17T19:54:40Z</time>
      </trkpt>
      <trkpt lat="40.44369" lon="-7.38525">
        <ele>776.476</ele>
        <time>2019-10-17T19:55:00Z</time>
      </trkpt>
      <trkpt lat="40.44373" lon="-7.38578">
        <ele>787.678</ele>
        <time>2019-10-17T19:55:20Z</time>
      </trkpt>
      <trkpt lat="40.44365" lon="-7.38607">
        <ele>789.558</ele>
        <time>2019-10-17T19:55:40Z</time>
      </trkpt>
      <trkpt lat="40.4435" lon="-7.38613">
        <ele>787.739</ele>
        <time>2019-10-17T19:56:00Z</time>
      </trkpt>
      <trkpt lat="40.44325" lon="-7.38653">
        <ele>789.401</ele>
        <time>2019-10-17T19:56:20Z</time>
      </trkpt>
      <trkpt lat="40.4431" lon="-7.38734">
        <ele>793.921</ele>
        <time>2019-10-17T19:56:40Z</time>
      </trkpt>
      <trkpt lat="40.44316" lon="-7.38736">
        <ele>795.308</ele>
        <time>2019-10-17T19:57:00Z</time>
      </trkpt>
      <trkpt lat="40.44327" lon="-7.38735">
        <ele>797.677</ele>
        <time>2019-10-17T19:57:20Z</time>
      </trkpt>
      <trkpt lat="40.44412" lon="-7.38672">
        <ele>814.325</ele>
        <time>2019-10-17T19:57:40Z</time>
      </trkpt>
      <trkpt lat="40.44475" lon="-7.38613">
        <ele>820.747</ele>
        <time>2019-10-17T19:58:00Z</time>
      </trkpt>
      <trkpt lat="40.44493" lon="-7.38606">
        <ele>821.547</ele>
        <time>2019-10-17T19:58:20Z</time>
      </trkpt>
      <trkpt lat="40.44601" lon="-7.38665">
        <ele>840.939</ele>
        <time>2019-10-17T19:58:40Z</time>
      </trkpt>
      <trkpt lat="40.44619" lon="-7.38655">
        <ele>841.04</ele>
        <time>2019-10-17T19:59:00Z</time>
      </trkpt>
      <trkpt lat="40.4463" lon="-7.38653">
        <ele>842.582</ele>
        <time>2019-10-17T19:59:20Z</time>
      </trkpt>
      <trkpt lat="40.44652" lon="-7.38644">
        <ele>845.152</ele>
        <time>2019-10-17T19:59:40Z</time>
      </trkpt>
      <trkpt lat="40.44721" lon="-7.38664">
        <ele>852.928</ele>
        <time>2019-10-17T20:00:00Z</time>
      </trkpt>
      <trkpt lat="40.44755" lon="-7.38683">
        <ele>862.389</ele>
        <time>2019-10-17T20:00:20Z</time>
      </trkpt>
      <trkpt lat="40.44752" lon="-7.38701">
        <ele>866.617</ele>
        <time>2019-10-17T20:00:40Z</time>
      </trkpt>
      <trkpt lat="40.44735" lon="-7.38716">
        <ele>869.008</ele>
        <time>2019-10-17T20:01:00Z</time>
      </trkpt>
      <trkpt lat="40.44678" lon="-7.3875">
        <ele>872.236</ele>
        <time>2019-10-17T20:01:20Z</time>
      </trkpt>
      <trkpt lat="40.44638" lon="-7.38811">
        <ele>877.574</ele>
        <time>2019-10-17T20:01:40Z</time>
      </trkpt>
      <trkpt lat="40.44594" lon="-7.3894">
        <ele>888.976</ele>
        <time>2019-10-17T20:02:00Z</time>
      </trkpt>
      <trkpt lat="40.44561" lon="-7.38957">
        <ele>889.146</ele>
        <time>2019-10-17T20:02:20Z</time>
      </trkpt>
      <trkpt lat="40.4456" lon="-7.38974">
        <ele>891.628</ele>
        <time>2019-10-17T20:02:40Z</time>
      </trkpt>
      <trkpt lat="40.44575" lon="-7.3898">
        <ele>893.819</ele>
        <time>2019-10-17T20:03:00Z</time>
      </trkpt>
      <trkpt lat="40.44633" lon="-7.39085">
        <ele>909.921</ele>
        <time>2019-10-17T20:03:20Z</time>
      </trkpt>
      <trkpt lat="40.44636" lon="-7.39117">
        <ele>912.091</ele>
        <time>2019-10-17T20:03:40Z</time>
      </trkpt>
      <trkpt lat="40.44669" lon="-7.39126">
        <ele>918.486</ele>
        <time>2019-10-17T20:04:00Z</time>
      </trkpt>
      <trkpt lat="40.44675" lon="-7.39154">
        <ele>923.16</ele>
        <time>2019-10-17T20:04:20Z</time>
      </trkpt>
      <trkpt lat="40.44671" lon="-7.39221">
        <ele>931.426</ele>
        <time>2019-10-17T20:04:40Z</time>
      </trkpt>
      <trkpt lat="40.44695" lon="-7.39351">
        <ele>941.408</ele>
        <time>2019-10-17T20:05:00Z</time>
      </trkpt>
      <trkpt lat="40.44688" lon="-7.39423">
        <ele>948.132</ele>
        <time>2019-10-17T20:05:20Z</time>
      </trkpt>
      <trkpt lat="40.44657" lon="-7.39447">
        <ele>946.93</ele>
        <time>2019-10-17T20:05:40Z</time>
      </trkpt>
      <trkpt lat="40.44634" lon="-7.39496">
        <ele>955.542</ele>
        <time>2019-10-17T20:06:00Z</time>
      </trkpt>
      <trkpt lat="40.44616" lon="-7.39568">
        <ele>959.592</ele>
        <time>2019-10-17T20:06:20Z</time>
      </trkpt>
      <trkpt lat="40.446" lon="-7.39567">
        <ele>957.264</ele>
        <time>2019-10-17T20:06:40Z</time>
      </trkpt>
      <trkpt lat="40.44572" lon="-7.39566">
        <ele>954.745</ele>
        <time>2019-10-17T20:07:00Z</time>
      </trkpt>
      <trkpt lat="40.4457" lon="-7.39603">
        <ele>959.557</ele>
        <time>2019-10-17T20:07:20Z</time>
      </trkpt>
      <trkpt lat="40.44577" lon="-7.39621">
        <ele>962.047</ele>
        <time>2019-10-17T20:07:40Z</time>
      </trkpt>
      <trkpt lat="40.4465" lon="-7.39659">
        <ele>975.979</ele>
        <time>2019-10-17T20:08:00Z</time>
      </trkpt>
      <trkpt lat="40.4467" lon="-7.39661">
        <ele>978.205</ele>
        <time>2019-10-17T20:08:20Z</time>
      </trkpt>
      <trkpt lat="40.44684" lon="-7.39652">
        <ele>980.025</ele>
        <time>2019-10-17T20:08:40Z</time>
      </trkpt>
      <trkpt lat="40.44712" lon="-7.39642">
        <ele>983.008</ele>
        <time>2019-10-17T20:09:00Z</time>
      </trkpt>
      <trkpt lat="40.44733" lon="-7.39648">
        <ele>985.391</ele>
        <time>2019-10-17T20:09:20Z</time>
      </trkpt>
      <trkpt lat="40.44784" lon="-7.39788">
        <ele>991.439</ele>
        <time>2019-10-17T20:09:40Z</time>
      </trkpt>
      <trkpt lat="40.44837" lon="-7.39866">
        <ele>979.581</ele>
        <time>2019-10-17T20:10:00Z</time>
      </trkpt>
      <trkpt lat="40.44867" lon="-7.39938">
        <ele>970.011</ele>
        <time>2019-10-17T20:10:20Z</time>
      </trkpt>
      <trkpt lat="40.4486" lon="-7.39957">
        <ele>966.963</ele>
        <time>2019-10-17T20:10:40Z</time>
      </trkpt>
      <trkpt lat="40.44793" lon="-7.40009">
        <ele>967.084</ele>
        <time>2019-10-17T20:11:00Z</time>
      </trkpt>
      <trkpt lat="40.44761" lon="-7.40063">
        <ele>965.516</ele>
        <time>2019-10-17T20:11:20Z</time>
      </trkpt>
      <trkpt lat="40.44731" lon="-7.40157">
        <ele>955.926</ele>
        <time>2019-10-17T20:11:40Z</time>
      </trkpt>
      <trkpt lat="40.44715" lon="-7.40185">
        <ele>958.396</ele>
        <time>2019-10-17T20:12:00Z</time>
      </trkpt>
      <trkpt lat="40.44737" lon="-7.40322">
        <ele>943.531</ele>
        <time>2019-10-17T20:12:20Z</time>
      </trkpt>
      <trkpt lat="40.44738" lon="-7.404">
        <ele>940.224</ele>
        <time>2019-10-17T20:12:40Z</time>
      </trkpt>
      <trkpt lat="40.44743" lon="-7.40408">
        <ele>939.608</ele>
        <time>2019-10-17T20:13:00Z</time>
      </trkpt>
      <trkpt lat="40.44756" lon="-7.40413">
        <ele>938.443</ele>
        <time>2019-10-17T20:13:20Z</time>
      </trkpt>
      <trkpt lat="40.44813" lon="-7.40455">
        <ele>936.851</ele>
        <time>2019-10-17T20:13:40Z</time>
      </trkpt>
      <trkpt lat="40.44874" lon="-7.40525">
        <ele>933.893</ele>
        <time>2019-10-17T20:14:00Z</time>
      </trkpt>
      <trkpt lat="40.44908" lon="-7.4053">
        <ele>933.113</ele>
        <time>2019-10-17T20:14:20Z</time>
      </trkpt>
      <trkpt lat="40.44937" lon="-7.40548">
        <ele>934.765</ele>
        <time>2019-10-17T20:14:40Z</time>
      </trkpt>
      <trkpt lat="40.44953" lon="-7.40578">
        <ele>936.856</ele>
        <time>2019-10-17T20:15:00Z</time>
      </trkpt>
      <trkpt lat="40.44975" lon="-7.4062">
        <ele>939.678</ele>
        <time>2019-10-17T20:15:20Z</time>
      </trkpt>
      <trkpt lat="40.45009" lon="-7.40653">
        <ele>945.358</ele>
        <time>2019-10-17T20:15:40Z</time>
      </trkpt>
      <trkpt lat="40.45058" lon="-7.40707">
        <ele>952.563</ele>
        <time>2019-10-17T20:16:00Z</time>
      </trkpt>
      <trkpt lat="40.45083" lon="-7.40721">
        <ele>957.044</ele>
        <time>2019-10-17T20:16:20Z</time>
      </trkpt>
      <trkpt lat="40.45086" lon="-7.40691">
        <ele>959.318</ele>
        <time>2019-10-17T20:16:40Z</time>
      </trkpt>
      <trkpt lat="40.45085" lon="-7.40658">
        <ele>959.208</ele>
        <time>2019-10-17T20:17:00Z</time>
      </trkpt>
      <trkpt lat="40.45098" lon="-7.40623">
        <ele>959.35</ele>
        <time>2019-10-17T20:17:20Z</time>
      </trkpt>
      <trkpt lat="40.45147" lon="-7.40646">
        <ele>964.878</ele>
        <time>2019-10-17T20:17:40Z</time>
      </trkpt>
      <trkpt lat="40.45275" lon="-7.40685">
        <ele>972.45</ele>
        <time>2019-10-17T20:18:00Z</time>
      </trkpt>
      <trkpt lat="40.45404" lon="-7.40715">
        <ele>977.91</ele>
        <time>2019-10-17T20:18:20Z</time>
      </trkpt>
      <trkpt lat="40.45508" lon="-7.40852">
        <ele>983.082</ele>
        <time>2019-10-17T20:18:40Z</time>
      </trkpt>
      <trkpt lat="40.45656" lon="-7.40893">
        <ele>1000.333</ele>
        <time>2019-10-17T20:19:00Z</time>
      </trkpt>
      <trkpt lat="40.45745" lon="-7.40878">
        <ele>1005.065</ele>
        <time>2019-10-17T20:19:20Z</time>
      </trkpt>
      <trkpt lat="40.45861" lon="-7.40871">
        <ele>1011.975</ele>
        <time>2019-10-17T20:19:40Z</time>
      </trkpt>
      <trkpt lat="40.45929" lon="-7.40894">
        <ele>1012.427</ele>
        <time>2019-10-17T20:20:00Z</time>
      </trkpt>
      <trkpt lat="40.46004" lon="-7.40974">
        <ele>1013.468</ele>
        <time>2019-10-17T20:20:20Z</time>
      </trkpt>
      <trkpt lat="40.46049" lon="-7.41028">
        <ele>1015.114</ele>
        <time>2019-10-17T20:20:40Z</time>
      </trkpt>
      <trkpt lat="40.4626" lon="-7.41248">
        <ele>1022.908</ele>
        <time>2019-10-17T20:21:00Z</time>
      </trkpt>
      <trkpt lat="40.46287" lon="-7.41276">
        <ele>1024.056</ele>
        <time>2019-10-17T20:21:20Z</time>
      </trkpt>
      <trkpt lat="40.46371" lon="-7.41358">
        <ele>1022.514</ele>
        <time>2019-10-17T20:21:40Z</time>
      </trkpt>
      <trkpt lat="40.4644" lon="-7.41413">
        <ele>1012.926</ele>
        <time>2019-10-17T20:22:00Z</time>
      </trkpt>
      <trkpt lat="40.46481" lon="-7.41478">
        <ele>1008.226</ele>
        <time>2019-10-17T20:22:20Z</time>
      </trkpt>
      <trkpt lat="40.46523" lon="-7.4151">
        <ele>1002.768</ele>
        <time>2019-10-17T20:22:40Z</time>
      </trkpt>
      <trkpt lat="40.46599" lon="-7.4152">
        <ele>999.739</ele>
        <time>2019-10-17T20:23:00Z</time>
      </trkpt>
      <trkpt lat="40.46612" lon="-7.4152">
        <ele>999.221</ele>
        <time>2019-10-17T20:23:20Z</time>
      </trkpt>
      <trkpt lat="40.46689" lon="-7.41482">
        <ele>996.151</ele>
        <time>2019-10-17T20:23:40Z</time>
      </trkpt>
      <trkpt lat="40.46776" lon="-7.41449">
        <ele>988.728</ele>
        <time>2019-10-17T20:24:00Z</time>
      </trkpt>
      <trkpt lat="40.46875" lon="-7.41451">
        <ele>981.089</ele>
        <time>2019-10-17T20:24:20Z</time>
      </trkpt>
      <trkpt lat="40.47" lon="-7.41486">
        <ele>975.017</ele>
        <time>2019-10-17T20:24:40Z</time>
      </trkpt>
      <trkpt lat="40.47125" lon="-7.41515">
        <ele>972.208</ele>
        <time>2019-10-17T20:25:00Z</time>
      </trkpt>
      <trkpt lat="40.47162" lon="-7.4151">
        <ele>971.716</ele>
        <time>2019-10-17T20:25:20Z</time>
      </trkpt>
      <trkpt lat="40.47192" lon="-7.4151">
        <ele>971.164</ele>
        <time>2019-10-17T20:25:40Z</time>
      </trkpt>
      <trkpt lat="40.47262" lon="-7.41516">
        <ele>971.916</ele>
        <time>2019-10-17T20:26:00Z</time>
      </trkpt>
      <trkpt lat="40.47305" lon="-7.41515">
        <ele>970.536</ele>
        <time>2019-10-17T20:26:20Z</time>
      </trkpt>
      <trkpt lat="40.47396" lon="-7.41537">
        <ele>961.648</ele>
        <time>2019-10-17T20:26:40Z</time>
      </trkpt>
      <trkpt lat="40.4742" lon="-7.41554">
        <ele>959.019</ele>
        <time>2019-10-17T20:27:00Z</time>
      </trkpt>
      <trkpt lat="40.47567" lon="-7.41701">
        <ele>934.381</ele>
        <time>2019-10-17T20:27:20Z</time>
      </trkpt>
      <trkpt lat="40.47615" lon="-7.41721">
        <ele>929.031</ele>
        <time>2019-10-17T20:27:40Z</time>
      </trkpt>
      <trkpt lat="40.47738" lon="-7.41707">
        <ele>914.179</ele>
        <time>2019-10-17T20:28:00Z</time>
      </trkpt>
      <trkpt lat="40.4796" lon="-7.41629">
        <ele>891.005</ele>
        <time>2019-10-17T20:28:20Z</time>
      </trkpt>
      <trkpt lat="40.47978" lon="-7.41612">
        <ele>890.325</ele>
        <time>2019-10-17T20:28:40Z</time>
      </trkpt>
      <trkpt lat="40.47995" lon="-7.41598">
        <ele>887.608</ele>
        <time>2019-10-17T20:29:00Z</time>
      </trkpt>
      <trkpt lat="40.48025" lon="-7.41612">
        <ele>883.631</ele>
        <time>2019-10-17T20:29:20Z</time>
      </trkpt>
      <trkpt lat="40.48083" lon="-7.4168">
        <ele>874.069</ele>
        <time>2019-10-17T20:29:40Z</time>
      </trkpt>
      <trkpt lat="40.48178" lon="-7.41774">
        <ele>857.041</ele>
        <time>2019-10-17T20:30:00Z</time>
      </trkpt>
      <trkpt lat="40.48224" lon="-7.41838">
        <ele>849.371</ele>
        <time>2019-10-17T20:30:20Z</time>
      </trkpt>
      <trkpt lat="40.48222" lon="-7.419">
        <ele>840.843</ele>
        <time>2019-10-17T20:30:40Z</time>
      </trkpt>
      <trkpt lat="40.48255" lon="-7.4188">
        <ele>838.294</ele>
        <time>2019-10-17T20:31:00Z</time>
      </trkpt>
      <trkpt lat="40.48343" lon="-7.41812">
        <ele>828.626</ele>
        <time>2019-10-17T20:31:20Z</time>
      </trkpt>
      <trkpt lat="40.48457" lon="-7.41725">
        <ele>820.616</ele>
        <time>2019-10-17T20:31:40Z</time>
      </trkpt>
      <trkpt lat="40.48565" lon="-7.41597">
        <ele>806.221</ele>
        <time>2019-10-17T20:32:00Z</time>
      </trkpt>
      <trkpt lat="40.48594" lon="-7.41511">
        <ele>800.941</ele>
        <time>2019-10-17T20:32:20Z</time>
      </trkpt>
      <trkpt lat="40.48626" lon="-7.41493">
        <ele>802.605</ele>
        <time>2019-10-17T20:32:40Z</time>
      </trkpt>
      <trkpt lat="40.48642" lon="-7.41499">
        <ele>803.908</ele>
        <time>2019-10-17T20:33:00Z</time>
      </trkpt>
      <trkpt lat="40.4879" lon="-7.41633">
        <ele>829.196</ele>
        <time>2019-10-17T20:33:20Z</time>
      </trkpt>
      <trkpt lat="40.48854" lon="-7.41652">
        <ele>837.854</ele>
        <time>2019-10-17T20:33:40Z</time>
      </trkpt>
      <trkpt lat="40.49003" lon="-7.41705">
        <ele>851.616</ele>
        <time>2019-10-17T20:34:00Z</time>
      </trkpt>
      <trkpt lat="40.4908" lon="-7.41773">
        <ele>865.636</ele>
        <time>2019-10-17T20:34:20Z</time>
      </trkpt>
      <trkpt lat="40.49068" lon="-7.41802">
        <ele>866.868</ele>
        <time>2019-10-17T20:34:40Z</time>
      </trkpt>
      <trkpt lat="40.49063" lon="-7.41859">
        <ele>870.499</ele>
        <time>2019-10-17T20:35:00Z</time>
      </trkpt>
      <trkpt lat="40.49111" lon="-7.4195">
        <ele>883.061</ele>
        <time>2019-10-17T20:35:20Z</time>
      </trkpt>
      <trkpt lat="40.49197" lon="-7.41986">
        <ele>893.881</ele>
        <time>2019-10-17T20:35:40Z</time>
      </trkpt>
      <trkpt lat="40.49194" lon="-7.42079">
        <ele>910.484</ele>
        <time>2019-10-17T20:36:00Z</time>
      </trkpt>
      <trkpt lat="40.49181" lon="-7.42096">
        <ele>912.907</ele>
        <time>2019-10-17T20:36:20Z</time>
      </trkpt>
      <trkpt lat="40.49172" lon="-7.42096">
        <ele>912.517</ele>
        <time>2019-10-17T20:36:40Z</time>
      </trkpt>
      <trkpt lat="40.49164" lon="-7.42105">
        <ele>912.908</ele>
        <time>2019-10-17T20:37:00Z</time>
      </trkpt>
      <trkpt lat="40.49163" lon="-7.42122">
        <ele>913.822</ele>
        <time>2019-10-17T20:37:20Z</time>
      </trkpt>
      <trkpt lat="40.49166" lon="-7.42131">
        <ele>914.66</ele>
        <time>2019-10-17T20:37:40Z</time>
      </trkpt>
      <trkpt lat="40.49201" lon="-7.42185">
        <ele>923.052</ele>
        <time>2019-10-17T20:38:00Z</time>
      </trkpt>
      <trkpt lat="40.49228" lon="-7.42292">
        <ele>936.862</ele>
        <time>2019-10-17T20:38:20Z</time>
      </trkpt>
      <trkpt lat="40.49255" lon="-7.42445">
        <ele>960.074</ele>
        <time>2019-10-17T20:38:40Z</time>
      </trkpt>
      <trkpt lat="40.49232" lon="-7.42492">
        <ele>965.475</ele>
        <time>2019-10-17T20:39:00Z</time>
      </trkpt>
      <trkpt lat="40.49222" lon="-7.42506">
        <ele>965.637</ele>
        <time>2019-10-17T20:39:20Z</time>
      </trkpt>
      <trkpt lat="40.49215" lon="-7.42589">
        <ele>969.677</ele>
        <time>2019-10-17T20:39:40Z</time>
      </trkpt>
      <trkpt lat="40.49246" lon="-7.42635">
        <ele>977.327</ele>
        <time>2019-10-17T20:40:00Z</time>
      </trkpt>
      <trkpt lat="40.4929" lon="-7.42653">
        <ele>983.768</ele>
        <time>2019-10-17T20:40:20Z</time>
      </trkpt>
      <trkpt lat="40.49311" lon="-7.42643">
        <ele>988.014</ele>
        <time>2019-10-17T20:40:40Z</time>
      </trkpt>
      <trkpt lat="40.49355" lon="-7.42572">
        <ele>996.108</ele>
        <time>2019-10-17T20:41:00Z</time>
      </trkpt>
      <trkpt lat="40.49419" lon="-7.4256">
        <ele>1006.046</ele>
        <time>2019-10-17T20:41:20Z</time>
      </trkpt>
      <trkpt lat="40.49442" lon="-7.42575">
        <ele>1011.124</ele>
        <time>2019-10-17T20:41:40Z</time>
      </trkpt>
      <trkpt lat="40.49449" lon="-7.42599">
        <ele>1014.116</ele>
        <time>2019-10-17T20:42:00Z</time>
      </trkpt>
      <trkpt lat="40.49449" lon="-7.42606">
        <ele>1015.096</ele>
        <time>2019-10-17T20:42:20Z</time>
      </trkpt>
      <trkpt lat="40.49461" lon="-7.42645">
        <ele>1018.518</ele>
        <time>2019-10-17T20:42:40Z</time>
      </trkpt>
      <trkpt lat="40.49527" lon="-7.42705">
        <ele>1029.719</ele>
        <time>2019-10-17T20:43:00Z</time>
      </trkpt>
      <trkpt lat="40.49545" lon="-7.42718">
        <ele>1033.931</ele>
        <time>2019-10-17T20:43:20Z</time>
      </trkpt>
      <trkpt lat="40.49558" lon="-7.42736">
        <ele>1038.221</ele>
        <time>2019-10-17T20:43:40Z</time>
      </trkpt>
      <trkpt lat="40.49581" lon="-7.42822">
        <ele>1046.712</ele>
        <time>2019-10-17T20:44:00Z</time>
      </trkpt>
      <trkpt lat="40.49615" lon="-7.42876">
        <ele>1055.132</ele>
        <time>2019-10-17T20:44:20Z</time>
      </trkpt>
      <trkpt lat="40.49663" lon="-7.42914">
        <ele>1063.205</ele>
        <time>2019-10-17T20:44:40Z</time>
      </trkpt>
      <trkpt lat="40.4971" lon="-7.4294">
        <ele>1069.508</ele>
        <time>2019-10-17T20:45:00Z</time>
      </trkpt>
      <trkpt lat="40.49727" lon="-7.42953">
        <ele>1069.895</ele>
        <time>2019-10-17T20:45:20Z</time>
      </trkpt>
      <trkpt lat="40.49772" lon="-7.43037">
        <ele>1073.423</ele>
        <time>2019-10-17T20:45:40Z</time>
      </trkpt>
      <trkpt lat="40.49784" lon="-7.43077">
        <ele>1076.395</ele>
        <time>2019-10-17T20:46:00Z</time>
      </trkpt>
      <trkpt lat="40.49835" lon="-7.43214">
        <ele>1088.295</ele>
        <time>2019-10-17T20:46:20Z</time>
      </trkpt>
      <trkpt lat="40.49865" lon="-7.43328">
        <ele>1098.617</ele>
        <time>2019-10-17T20:46:40Z</time>
      </trkpt>
      <trkpt lat="40.499" lon="-7.43451">
        <ele>1103.428</ele>
        <time>2019-10-17T20:47:00Z</time>
      </trkpt>
      <trkpt lat="40.49908" lon="-7.4358">
        <ele>1116.45</ele>
        <time>2019-10-17T20:47:20Z</time>
      </trkpt>
      <trkpt lat="40.49881" lon="-7.43689">
        <ele>1126.05</ele>
        <time>2019-10-17T20:47:40Z</time>
      </trkpt>
      <trkpt lat="40.49903" lon="-7.43835">
        <ele>1129.143</ele>
        <time>2019-10-17T20:48:00Z</time>
      </trkpt>
      <trkpt lat="40.49906" lon="-7.43895">
        <ele>1132.264</ele>
        <time>2019-10-17T20:48:20Z</time>
      </trkpt>
      <trkpt lat="40.49902" lon="-7.43987">
        <ele>1141.71</ele>
        <time>2019-10-17T20:48:40Z</time>
      </trkpt>
      <trkpt lat="40.49925" lon="-7.44071">
        <ele>1149.608</ele>
        <time>2019-10-17T20:49:00Z</time>
      </trkpt>
      <trkpt lat="40.4993" lon="-7.44082">
        <ele>1149.978</ele>
        <time>2019-10-17T20:49:20Z</time>
      </trkpt>
      <trkpt lat="40.49976" lon="-7.44141">
        <ele>1158.296</ele>
        <time>2019-10-17T20:49:40Z</time>
      </trkpt>
      <trkpt lat="40.50138" lon="-7.44299">
        <ele>1168.748</ele>
        <time>2019-10-17T20:50:00Z</time>
      </trkpt>
      <trkpt lat="40.50208" lon="-7.44349">
        <ele>1173.718</ele>
        <time>2019-10-17T20:50:20Z</time>
      </trkpt>
      <trkpt lat="40.50342" lon="-7.44295">
        <ele>1178.98</ele>
        <time>2019-10-17T20:50:40Z</time>
      </trkpt>
      <trkpt lat="40.50432" lon="-7.44247">
        <ele>1187.171</ele>
        <time>2019-10-17T20:51:00Z</time>
      </trkpt>
      <trkpt lat="40.50599" lon="-7.44071">
        <ele>1189.963</ele>
        <time>2019-10-17T20:51:20Z</time>
      </trkpt>
      <trkpt lat="40.50582" lon="-7.44094">
        <ele>1190.363</ele>
        <time>2019-10-17T20:51:40Z</time>
      </trkpt>
      <trkpt lat="40.50579" lon="-7.44098">
        <ele>1190.336</ele>
        <time>2019-10-17T20:52:00Z</time>
      </trkpt>
      <trkpt lat="40.50566" lon="-7.44131">
        <ele>1190.217</ele>
        <time>2019-10-17T20:52:20Z</time>
      </trkpt>
      <trkpt lat="40.50557" lon="-7.44161">
        <ele>1190.118</ele>
        <time>2019-10-17T20:52:40Z</time>
      </trkpt>
      <trkpt lat="40.50554" lon="-7.44172">
        <ele>1190.208</ele>
        <time>2019-10-17T20:53:00Z</time>
      </trkpt>
      <trkpt lat="40.50547" lon="-7.44202">
        <ele>1190.747</ele>
        <time>2019-10-17T20:53:20Z</time>
      </trkpt>
      <trkpt lat="40.50542" lon="-7.44236">
        <ele>1190.715</ele>
        <time>2019-10-17T20:53:40Z</time>
      </trkpt>
      <trkpt lat="40.50537" lon="-7.44289">
        <ele>1190.257</ele>
        <time>2019-10-17T20:54:00Z</time>
      </trkpt>
      <trkpt lat="40.50534" lon="-7.44317">
        <ele>1189.077</ele>
        <time>2019-10-17T20:54:20Z</time>
      </trkpt>
      <trkpt lat="40.50524" lon="-7.44391">
        <ele>1186.889</ele>
        <time>2019-10-17T20:54:40Z</time>
      </trkpt>
      <trkpt lat="40.50522" lon="-7.44471">
        <ele>1183.87</ele>
        <time>2019-10-17T20:55:00Z</time>
      </trkpt>
      <trkpt lat="40.50516" lon="-7.44513">
        <ele>1180.922</ele>
        <time>2019-10-17T20:55:20Z</time>
      </trkpt>
      <trkpt lat="40.50518" lon="-7.44565">
        <ele>1176.692</ele>
        <time>2019-10-17T20:55:40Z</time>
      </trkpt>
      <trkpt lat="40.5052" lon="-7.44571">
        <ele>1176.352</ele>
        <time>2019-10-17T20:56:00Z</time>
      </trkpt>
      <trkpt lat="40.50527" lon="-7.44596">
        <ele>1175.553</ele>
        <time>2019-10-17T20:56:20Z</time>
      </trkpt>
      <trkpt lat="40.50533" lon="-7.44644">
        <ele>1174.708</ele>
        <time>2019-10-17T20:56:40Z</time>
      </trkpt>
      <trkpt lat="40.50533" lon="-7.44687">
        <ele>1174.108</ele>
        <time>2019-10-17T20:57:00Z</time>
      </trkpt>
      <trkpt lat="40.5053" lon="-7.44718">
        <ele>1173.389</ele>
        <time>2019-10-17T20:57:20Z</time>
      </trkpt>
      <trkpt lat="40.50528" lon="-7.44735">
        <ele>1172.537</ele>
        <time>2019-10-17T20:57:40Z</time>
      </trkpt>
      <trkpt lat="40.50524" lon="-7.44821">
        <ele>1169.319</ele>
        <time>2019-10-17T20:58:00Z</time>
      </trkpt>
      <trkpt lat="40.50523" lon="-7.44841">
        <ele>1168.759</ele>
        <time>2019-10-17T20:58:20Z</time>
      </trkpt>
      <trkpt lat="40.50534" lon="-7.4491">
        <ele>1168.871</ele>
        <time>2019-10-17T20:58:40Z</time>
      </trkpt>
      <trkpt lat="40.50543" lon="-7.44964">
        <ele>1169.182</ele>
        <time>2019-10-17T20:59:00Z</time>
      </trkpt>
      <trkpt lat="40.50555" lon="-7.45019">
        <ele>1167.314</ele>
        <time>2019-10-17T20:59:20Z</time>
      </trkpt>
      <trkpt lat="40.50558" lon="-7.45026">
        <ele>1167.474</ele>
        <time>2019-10-17T20:59:40Z</time>
      </trkpt>
      <trkpt lat="40.50563" lon="-7.45038">
        <ele>1167.418</ele>
        <time>2019-10-17T21:00:00Z</time>
      </trkpt>
      <trkpt lat="40.50568" lon="-7.4505">
        <ele>1167.298</ele>
        <time>2019-10-17T21:00:20Z</time>
      </trkpt>
      <trkpt lat="40.50583" lon="-7.45089">
        <ele>1166.817</ele>
        <time>2019-10-17T21:00:40Z</time>
      </trkpt>
      <trkpt lat="40.50587" lon="-7.45111">
        <ele>1166.608</ele>
        <time>2019-10-17T21:01:00Z</time>
      </trkpt>
      <trkpt lat="40.50593" lon="-7.45127">
        <ele>1166.895</ele>
        <time>2019-10-17T21:01:20Z</time>
      </trkpt>
      <trkpt lat="40.50605" lon="-7.45198">
        <ele>1165.153</ele>
        <time>2019-10-17T21:01:40Z</time>
      </trkpt>
      <trkpt lat="40.50611" lon="-7.45221">
        <ele>1164.175</ele>
        <time>2019-10-17T21:02:00Z</time>
      </trkpt>
      <trkpt lat="40.50621" lon="-7.45249">
        <ele>1163.765</ele>
        <time>2019-10-17T21:02:20Z</time>
      </trkpt>
      <trkpt lat="40.50624" lon="-7.45261">
        <ele>1163.327</ele>
        <time>2019-10-17T21:02:40Z</time>
      </trkpt>
      <trkpt lat="40.50628" lon="-7.4528">
        <ele>1162.418</ele>
        <time>2019-10-17T21:03:00Z</time>
      </trkpt>
      <trkpt lat="40.50644" lon="-7.45328">
        <ele>1160.11</ele>
        <time>2019-10-17T21:03:20Z</time>
      </trkpt>
      <trkpt lat="40.50663" lon="-7.45369">
        <ele>1162.29</ele>
        <time>2019-10-17T21:03:40Z</time>
      </trkpt>
      <trkpt lat="40.50671" lon="-7.45387">
        <ele>1162.635</ele>
        <time>2019-10-17T21:04:00Z</time>
      </trkpt>
      <trkpt lat="40.50692" lon="-7.45441">
        <ele>1160.986</ele>
        <time>2019-10-17T21:04:20Z</time>
      </trkpt>
      <trkpt lat="40.50718" lon="-7.45506">
        <ele>1158.314</ele>
        <time>2019-10-17T21:04:40Z</time>
      </trkpt>
      <trkpt lat="40.50745" lon="-7.45596">
        <ele>1155.308</ele>
        <time>2019-10-17T21:05:00Z</time>
      </trkpt>
      <trkpt lat="40.50767" lon="-7.45641">
        <ele>1155.127</ele>
        <time>2019-10-17T21:05:20Z</time>
      </trkpt>
      <trkpt lat="40.50787" lon="-7.45656">
        <ele>1153.895</ele>
        <time>2019-10-17T21:05:40Z</time>
      </trkpt>
      <trkpt lat="40.508" lon="-7.45649">
        <ele>1152.827</ele>
        <time>2019-10-17T21:06:00Z</time>
      </trkpt>
      <trkpt lat="40.50812" lon="-7.45638">
        <ele>1151.767</ele>
        <time>2019-10-17T21:06:20Z</time>
      </trkpt>
      <trkpt lat="40.50826" lon="-7.4562">
        <ele>1149.799</ele>
        <time>2019-10-17T21:06:40Z</time>
      </trkpt>
      <trkpt lat="40.50835" lon="-7.45611">
        <ele>1148.79</ele>
        <time>2019-10-17T21:07:00Z</time>
      </trkpt>
      <trkpt lat="40.5086" lon="-7.45588">
        <ele>1146.022</ele>
        <time>2019-10-17T21:07:20Z</time>
      </trkpt>
      <trkpt lat="40.50884" lon="-7.45574">
        <ele>1145.942</ele>
        <time>2019-10-17T21:07:40Z</time>
      </trkpt>
      <trkpt lat="40.50891" lon="-7.45572">
        <ele>1145.728</ele>
        <time>2019-10-17T21:08:00Z</time>
      </trkpt>
      <trkpt lat="40.50917" lon="-7.45584">
        <ele>1143.089</ele>
        <time>2019-10-17T21:08:20Z</time>
      </trkpt>
      <trkpt lat="40.5092" lon="-7.45592">
        <ele>1142.517</ele>
        <time>2019-10-17T21:08:40Z</time>
      </trkpt>
      <trkpt lat="40.50924" lon="-7.45602">
        <ele>1142.208</ele>
        <time>2019-10-17T21:09:00Z</time>
      </trkpt>
      <trkpt lat="40.50933" lon="-7.45626">
        <ele>1142.616</ele>
        <time>2019-10-17T21:09:20Z</time>
      </trkpt>
      <trkpt lat="40.50947" lon="-7.45667">
        <ele>1144.414</ele>
        <time>2019-10-17T21:09:40Z</time>
      </trkpt>
      <trkpt lat="40.5096" lon="-7.4571">
        <ele>1146.526</ele>
        <time>2019-10-17T21:10:00Z</time>
      </trkpt>
      <trkpt lat="40.50972" lon="-7.45755">
        <ele>1147.786</ele>
        <time>2019-10-17T21:10:20Z</time>
      </trkpt>
      <trkpt lat="40.50988" lon="-7.45793">
        <ele>1149.978</ele>
        <time>2019-10-17T21:10:40Z</time>
      </trkpt>
      <trkpt lat="40.51" lon="-7.45824">
        <ele>1154.399</ele>
        <time>2019-10-17T21:11:00Z</time>
      </trkpt>
      <trkpt lat="40.51001" lon="-7.45854">
        <ele>1155.261</ele>
        <time>2019-10-17T21:11:20Z</time>
      </trkpt>
      <trkpt lat="40.50993" lon="-7.45879">
        <ele>1154.461</ele>
        <time>2019-10-17T21:11:40Z</time>
      </trkpt>
      <trkpt lat="40.50982" lon="-7.45911">
        <ele>1153.292</ele>
        <time>2019-10-17T21:12:00Z</time>
      </trkpt>
      <trkpt lat="40.50968" lon="-7.45934">
        <ele>1152.773</ele>
        <time>2019-10-17T21:12:20Z</time>
      </trkpt>
      <trkpt lat="40.50954" lon="-7.45957">
        <ele>1153.02</ele>
        <time>2019-10-17T21:12:40Z</time>
      </trkpt>
      <trkpt lat="40.50955" lon="-7.4598">
        <ele>1154.408</ele>
        <time>2019-10-17T21:13:00Z</time>
      </trkpt>
      <trkpt lat="40.50981" lon="-7.45997">
        <ele>1157.353</ele>
        <time>2019-10-17T21:13:20Z</time>
      </trkpt>
      <trkpt lat="40.51004" lon="-7.46015">
        <ele>1158.291</ele>
        <time>2019-10-17T21:13:40Z</time>
      </trkpt>
      <trkpt lat="40.51012" lon="-7.46026">
        <ele>1158.533</ele>
        <time>2019-10-17T21:14:00Z</time>
      </trkpt>
      <trkpt lat="40.50989" lon="-7.46049">
        <ele>1157.273</ele>
        <time>2019-10-17T21:14:20Z</time>
      </trkpt>
      <trkpt lat="40.50953" lon="-7.46079">
        <ele>1156.115</ele>
        <time>2019-10-17T21:14:40Z</time>
      </trkpt>
      <trkpt lat="40.50901" lon="-7.46122">
        <ele>1156.236</ele>
        <time>2019-10-17T21:15:00Z</time>
      </trkpt>
      <trkpt lat="40.50848" lon="-7.4617">
        <ele>1156.558</ele>
        <time>2019-10-17T21:15:20Z</time>
      </trkpt>
      <trkpt lat="40.50802" lon="-7.4622">
        <ele>1155.658</ele>
        <time>2019-10-17T21:15:40Z</time>
      </trkpt>
      <trkpt lat="40.50784" lon="-7.46247">
        <ele>1157.167</ele>
        <time>2019-10-17T21:16:00Z</time>
      </trkpt>
      <trkpt lat="40.50777" lon="-7.46258">
        <ele>1158.181</ele>
        <time>2019-10-17T21:16:20Z</time>
      </trkpt>
      <trkpt lat="40.50743" lon="-7.46297">
        <ele>1160.019</ele>
        <time>2019-10-17T21:16:40Z</time>
      </trkpt>
      <trkpt lat="40.50709" lon="-7.46341">
        <ele>1159.808</ele>
        <time>2019-10-17T21:17:00Z</time>
      </trkpt>
      <trkpt lat="40.50676" lon="-7.46392">
        <ele>1161.98</ele>
        <time>2019-10-17T21:17:20Z</time>
      </trkpt>
      <trkpt lat="40.5066" lon="-7.46437">
        <ele>1162.438</ele>
        <time>2019-10-17T21:17:40Z</time>
      </trkpt>
      <trkpt lat="40.50652" lon="-7.4648">
        <ele>1163.06</ele>
        <time>2019-10-17T21:18:00Z</time>
      </trkpt>
      <trkpt lat="40.50645" lon="-7.46521">
        <ele>1164.44</ele>
        <time>2019-10-17T21:18:20Z</time>
      </trkpt>
      <trkpt lat="40.50638" lon="-7.46567">
        <ele>1164.362</ele>
        <time>2019-10-17T21:18:40Z</time>
      </trkpt>
      <trkpt lat="40.50632" lon="-7.46617">
        <ele>1165.333</ele>
        <time>2019-10-17T21:19:00Z</time>
      </trkpt>
      <trkpt lat="40.50623" lon="-7.46666">
        <ele>1164.975</ele>
        <time>2019-10-17T21:19:20Z</time>
      </trkpt>
      <trkpt lat="40.50614" lon="-7.46729">
        <ele>1168.415</ele>
        <time>2019-10-17T21:19:40Z</time>
      </trkpt>
      <trkpt lat="40.50608" lon="-7.46771">
        <ele>1168.877</ele>
        <time>2019-10-17T21:20:00Z</time>
      </trkpt>
      <trkpt lat="40.50599" lon="-7.46819">
        <ele>1169.661</ele>
        <time>2019-10-17T21:20:20Z</time>
      </trkpt>
      <trkpt lat="40.50589" lon="-7.46879">
        <ele>1169.527</ele>
        <time>2019-10-17T21:20:40Z</time>
      </trkpt>
      <trkpt lat="40.5058" lon="-7.46929">
        <ele>1171.008</ele>
        <time>2019-10-17T21:21:00Z</time>
      </trkpt>
      <trkpt lat="40.50573" lon="-7.46971">
        <ele>1172.051</ele>
        <time>2019-10-17T21:21:20Z</time>
      </trkpt>
      <trkpt lat="40.50566" lon="-7.47005">
        <ele>1171.919</ele>
        <time>2019-10-17T21:21:40Z</time>
      </trkpt>
      <trkpt lat="40.50552" lon="-7.4704">
        <ele>1175.751</ele>
        <time>2019-10-17T21:22:00Z</time>
      </trkpt>
      <trkpt lat="40.50532" lon="-7.47065">
        <ele>1178.911</ele>
        <time>2019-10-17T21:22:20Z</time>
      </trkpt>
      <trkpt lat="40.50516" lon="-7.47085">
        <ele>1180.483</ele>
        <time>2019-10-17T21:22:40Z</time>
      </trkpt>
      <trkpt lat="40.50497" lon="-7.47109">
        <ele>1180.654</ele>
        <time>2019-10-17T21:23:00Z</time>
      </trkpt>
      <trkpt lat="40.50479" lon="-7.47132">
        <ele>1182.546</ele>
        <time>2019-10-17T21:23:20Z</time>
      </trkpt>
      <trkpt lat="40.50476" lon="-7.47137">
        <ele>1183.076</ele>
        <time>2019-10-17T21:23:40Z</time>
      </trkpt>
      <trkpt lat="40.50466" lon="-7.47156">
        <ele>1184.023</ele>
        <time>2019-10-17T21:24:00Z</time>
      </trkpt>
      <trkpt lat="40.50458" lon="-7.47198">
        <ele>1185.183</ele>
        <time>2019-10-17T21:24:20Z</time>
      </trkpt>
      <trkpt lat="40.50461" lon="-7.47241">
        <ele>1187.211</ele>
        <time>2019-10-17T21:24:40Z</time>
      </trkpt>
      <trkpt lat="40.50475" lon="-7.4728">
        <ele>1190.408</ele>
        <time>2019-10-17T21:25:00Z</time>
      </trkpt>
      <trkpt lat="40.50492" lon="-7.47314">
        <ele>1192.416</ele>
        <time>2019-10-17T21:25:20Z</time>
      </trkpt>
      <trkpt lat="40.5051" lon="-7.4735">
        <ele>1194.524</ele>
        <time>2019-10-17T21:25:40Z</time>
      </trkpt>
      <trkpt lat="40.50516" lon="-7.47389">
        <ele>1196.846</ele>
        <time>2019-10-17T21:26:00Z</time>
      </trkpt>
      <trkpt lat="40.50508" lon="-7.47433">
        <ele>1198.326</ele>
        <time>2019-10-17T21:26:20Z</time>
      </trkpt>
      <trkpt lat="40.50492" lon="-7.47462">
        <ele>1199.768</ele>
        <time>2019-10-17T21:26:40Z</time>
      </trkpt>
      <trkpt lat="40.5048" lon="-7.47501">
        <ele>1200.519</ele>
        <time>2019-10-17T21:27:00Z</time>
      </trkpt>
      <trkpt lat="40.50479" lon="-7.47541">
        <ele>1202.391</ele>
        <time>2019-10-17T21:27:20Z</time>
      </trkpt>
      <trkpt lat="40.50488" lon="-7.47583">
        <ele>1205.311</ele>
        <time>2019-10-17T21:27:40Z</time>
      </trkpt>
      <trkpt lat="40.50505" lon="-7.47621">
        <ele>1207.255</ele>
        <time>2019-10-17T21:28:00Z</time>
      </trkpt>
      <trkpt lat="40.50526" lon="-7.47652">
        <ele>1208.307</ele>
        <time>2019-10-17T21:28:20Z</time>
      </trkpt>
      <trkpt lat="40.50541" lon="-7.47688">
        <ele>1210.017</ele>
        <time>2019-10-17T21:28:40Z</time>
      </trkpt>
      <trkpt lat="40.50562" lon="-7.47725">
        <ele>1212.508</ele>
        <time>2019-10-17T21:29:00Z</time>
      </trkpt>
      <trkpt lat="40.50578" lon="-7.47758">
        <ele>1213.529</ele>
        <time>2019-10-17T21:29:20Z</time>
      </trkpt>
      <trkpt lat="40.50599" lon="-7.47805">
        <ele>1214.117</ele>
        <time>2019-10-17T21:29:40Z</time>
      </trkpt>
      <trkpt lat="40.50625" lon="-7.47855">
        <ele>1214.339</ele>
        <time>2019-10-17T21:30:00Z</time>
      </trkpt>
      <trkpt lat="40.50638" lon="-7.4792">
        <ele>1214.979</ele>
        <time>2019-10-17T21:30:20Z</time>
      </trkpt>
      <trkpt lat="40.50637" lon="-7.47953">
        <ele>1214.751</ele>
        <time>2019-10-17T21:30:40Z</time>
      </trkpt>
      <trkpt lat="40.50632" lon="-7.47993">
        <ele>1213.912</ele>
        <time>2019-10-17T21:31:00Z</time>
      </trkpt>
      <trkpt lat="40.50634" lon="-7.48063">
        <ele>1213.744</ele>
        <time>2019-10-17T21:31:20Z</time>
      </trkpt>
      <trkpt lat="40.50613" lon="-7.48125">
        <ele>1213.244</ele>
        <time>2019-10-17T21:31:40Z</time>
      </trkpt>
      <trkpt lat="40.50608" lon="-7.48133">
        <ele>1213.184</ele>
        <time>2019-10-17T21:32:00Z</time>
      </trkpt>
      <trkpt lat="40.50597" lon="-7.48146">
        <ele>1212.807</ele>
        <time>2019-10-17T21:32:20Z</time>
      </trkpt>
      <trkpt lat="40.50579" lon="-7.48161">
        <ele>1211.817</ele>
        <time>2019-10-17T21:32:40Z</time>
      </trkpt>
      <trkpt lat="40.50534" lon="-7.48203">
        <ele>1211.708</ele>
        <time>2019-10-17T21:33:00Z</time>
      </trkpt>
      <trkpt lat="40.50523" lon="-7.48216">
        <ele>1211.832</ele>
        <time>2019-10-17T21:33:20Z</time>
      </trkpt>
      <trkpt lat="40.5049" lon="-7.48306">
        <ele>1213.65</ele>
        <time>2019-10-17T21:33:40Z</time>
      </trkpt>
      <trkpt lat="40.50484" lon="-7.48405">
        <ele>1210.432</ele>
        <time>2019-10-17T21:34:00Z</time>
      </trkpt>
      <trkpt lat="40.50467" lon="-7.48475">
        <ele>1209.532</ele>
        <time>2019-10-17T21:34:20Z</time>
      </trkpt>
      <trkpt lat="40.50463" lon="-7.48488">
        <ele>1209.284</ele>
        <time>2019-10-17T21:34:40Z</time>
      </trkpt>
      <trkpt lat="40.50433" lon="-7.48562">
        <ele>1205.325</ele>
        <time>2019-10-17T21:35:00Z</time>
      </trkpt>
      <trkpt lat="40.50403" lon="-7.48617">
        <ele>1201.577</ele>
        <time>2019-10-17T21:35:20Z</time>
      </trkpt>
      <trkpt lat="40.50385" lon="-7.48655">
        <ele>1197.277</ele>
        <time>2019-10-17T21:35:40Z</time>
      </trkpt>
      <trkpt lat="40.50394" lon="-7.48672">
        <ele>1195.953</ele>
        <time>2019-10-17T21:36:00Z</time>
      </trkpt>
      <trkpt lat="40.50406" lon="-7.48666">
        <ele>1197.304</ele>
        <time>2019-10-17T21:36:20Z</time>
      </trkpt>
      <trkpt lat="40.5042" lon="-7.48658">
        <ele>1198.614</ele>
        <time>2019-10-17T21:36:40Z</time>
      </trkpt>
      <trkpt lat="40.5047" lon="-7.48642">
        <ele>1198.908</ele>
        <time>2019-10-17T21:37:00Z</time>
      </trkpt>
      <trkpt lat="40.50535" lon="-7.48647">
        <ele>1199.549</ele>
        <time>2019-10-17T21:37:20Z</time>
      </trkpt>
      <trkpt lat="40.50587" lon="-7.48659">
        <ele>1199.837</ele>
        <time>2019-10-17T21:37:40Z</time>
      </trkpt>
      <trkpt lat="40.50627" lon="-7.48662">
        <ele>1200.069</ele>
        <time>2019-10-17T21:38:00Z</time>
      </trkpt>
      <trkpt lat="40.50648" lon="-7.48697">
        <ele>1198.169</ele>
        <time>2019-10-17T21:38:20Z</time>
      </trkpt>
      <trkpt lat="40.50653" lon="-7.48746">
        <ele>1193.581</ele>
        <time>2019-10-17T21:38:40Z</time>
      </trkpt>
      <trkpt lat="40.5066" lon="-7.48768">
        <ele>1191.362</ele>
        <time>2019-10-17T21:39:00Z</time>
      </trkpt>
      <trkpt lat="40.50662" lon="-7.48774">
        <ele>1190.564</ele>
        <time>2019-10-17T21:39:20Z</time>
      </trkpt>
      <trkpt lat="40.50686" lon="-7.48805">
        <ele>1185.564</ele>
        <time>2019-10-17T21:39:40Z</time>
      </trkpt>
      <trkpt lat="40.50702" lon="-7.48819">
        <ele>1182.484</ele>
        <time>2019-10-17T21:40:00Z</time>
      </trkpt>
      <trkpt lat="40.50702" lon="-7.48827">
        <ele>1181.207</ele>
        <time>2019-10-17T21:40:20Z</time>
      </trkpt>
      <trkpt lat="40.50693" lon="-7.4883">
        <ele>1181.417</ele>
        <time>2019-10-17T21:40:40Z</time>
      </trkpt>
      <trkpt lat="40.50686" lon="-7.48831">
        <ele>1181.008</ele>
        <time>2019-10-17T21:41:00Z</time>
      </trkpt>
      <trkpt lat="40.50651" lon="-7.48837">
        <ele>1178.492</ele>
        <time>2019-10-17T21:41:20Z</time>
      </trkpt>
      <trkpt lat="40.5064" lon="-7.48838">
        <ele>1177.73</ele>
        <time>2019-10-17T21:41:40Z</time>
      </trkpt>
      <trkpt lat="40.50608" lon="-7.48838">
        <ele>1174.662</ele>
        <time>2019-10-17T21:42:00Z</time>
      </trkpt>
      <trkpt lat="40.50586" lon="-7.48845">
        <ele>1172.542</ele>
        <time>2019-10-17T21:42:20Z</time>
      </trkpt>
      <trkpt lat="40.50553" lon="-7.48867">
        <ele>1171.684</ele>
        <time>2019-10-17T21:42:40Z</time>
      </trkpt>
      <trkpt lat="40.50543" lon="-7.4887">
        <ele>1171.075</ele>
        <time>2019-10-17T21:43:00Z</time>
      </trkpt>
      <trkpt lat="40.50487" lon="-7.48903">
        <ele>1165.317</ele>
        <time>2019-10-17T21:43:20Z</time>
      </trkpt>
      <trkpt lat="40.50477" lon="-7.48909">
        <ele>1165.637</ele>
        <time>2019-10-17T21:43:40Z</time>
      </trkpt>
      <trkpt lat="40.50453" lon="-7.48928">
        <ele>1164.929</ele>
        <time>2019-10-17T21:44:00Z</time>
      </trkpt>
      <trkpt lat="40.5044" lon="-7.48969">
        <ele>1161.3</ele>
        <time>2019-10-17T21:44:20Z</time>
      </trkpt>
      <trkpt lat="40.50443" lon="-7.48977">
        <ele>1159.82</ele>
        <time>2019-10-17T21:44:40Z</time>
      </trkpt>
      <trkpt lat="40.50447" lon="-7.48991">
        <ele>1156.708</ele>
        <time>2019-10-17T21:45:00Z</time>
      </trkpt>
      <trkpt lat="40.50451" lon="-7.49006">
        <ele>1153.846</ele>
        <time>2019-10-17T21:45:20Z</time>
      </trkpt>
      <trkpt lat="40.50454" lon="-7.49023">
        <ele>1150.474</ele>
        <time>2019-10-17T21:45:40Z</time>
      </trkpt>
      <trkpt lat="40.50454" lon="-7.49044">
        <ele>1147.376</ele>
        <time>2019-10-17T21:46:00Z</time>
      </trkpt>
      <trkpt lat="40.50436" lon="-7.49099">
        <ele>1144.946</ele>
        <time>2019-10-17T21:46:20Z</time>
      </trkpt>
      <trkpt lat="40.50433" lon="-7.49105">
        <ele>1144.778</ele>
        <time>2019-10-17T21:46:40Z</time>
      </trkpt>
      <trkpt lat="40.50426" lon="-7.49115">
        <ele>1144.919</ele>
        <time>2019-10-17T21:47:00Z</time>
      </trkpt>
      <trkpt lat="40.50396" lon="-7.49165">
        <ele>1140.341</ele>
        <time>2019-10-17T21:47:20Z</time>
      </trkpt>
      <trkpt lat="40.50387" lon="-7.49169">
        <ele>1140.611</ele>
        <time>2019-10-17T21:47:40Z</time>
      </trkpt>
      <trkpt lat="40.50383" lon="-7.49169">
        <ele>1140.737</ele>
        <time>2019-10-17T21:48:00Z</time>
      </trkpt>
      <trkpt lat="40.50348" lon="-7.49181">
        <ele>1140.049</ele>
        <time>2019-10-17T21:48:20Z</time>
      </trkpt>
      <trkpt lat="40.50345" lon="-7.49201">
        <ele>1136.013</ele>
        <time>2019-10-17T21:48:40Z</time>
      </trkpt>
      <trkpt lat="40.50345" lon="-7.49209">
        <ele>1134.108</ele>
        <time>2019-10-17T21:49:00Z</time>
      </trkpt>
      <trkpt lat="40.50343" lon="-7.49226">
        <ele>1130.747</ele>
        <time>2019-10-17T21:49:20Z</time>
      </trkpt>
      <trkpt lat="40.50328" lon="-7.49253">
        <ele>1128.225</ele>
        <time>2019-10-17T21:49:40Z</time>
      </trkpt>
      <trkpt lat="40.50323" lon="-7.4926">
        <ele>1128.127</ele>
        <time>2019-10-17T21:50:00Z</time>
      </trkpt>
      <trkpt lat="40.50312" lon="-7.49267">
        <ele>1129.457</ele>
        <time>2019-10-17T21:50:20Z</time>
      </trkpt>
      <trkpt lat="40.50282" lon="-7.49288">
        <ele>1131.839</ele>
        <time>2019-10-17T21:50:40Z</time>
      </trkpt>
      <trkpt lat="40.50242" lon="-7.49323">
        <ele>1124.89</ele>
        <time>2019-10-17T21:51:00Z</time>
      </trkpt>
      <trkpt lat="40.50206" lon="-7.49352">
        <ele>1123.172</ele>
        <time>2019-10-17T21:51:20Z</time>
      </trkpt>
      <trkpt lat="40.5017" lon="-7.49384">
        <ele>1122.612</ele>
        <time>2019-10-17T21:51:40Z</time>
      </trkpt>
      <trkpt lat="40.50155" lon="-7.49402">
        <ele>1121.351</ele>
        <time>2019-10-17T21:52:00Z</time>
      </trkpt>
      <trkpt lat="40.50142" lon="-7.49441">
        <ele>1115.301</ele>
        <time>2019-10-17T21:52:20Z</time>
      </trkpt>
      <trkpt lat="40.50137" lon="-7.49463">
        <ele>1110.811</ele>
        <time>2019-10-17T21:52:40Z</time>
      </trkpt>
      <trkpt lat="40.50125" lon="-7.49489">
        <ele>1107.308</ele>
        <time>2019-10-17T21:53:00Z</time>
      </trkpt>
      <trkpt lat="40.50115" lon="-7.49501">
        <ele>1107.089</ele>
        <time>2019-10-17T21:53:20Z</time>
      </trkpt>
      <trkpt lat="40.50104" lon="-7.49509">
        <ele>1108.887</ele>
        <time>2019-10-17T21:53:40Z</time>
      </trkpt>
      <trkpt lat="40.50085" lon="-7.49563">
        <ele>1114.459</ele>
        <time>2019-10-17T21:54:00Z</time>
      </trkpt>
      <trkpt lat="40.50092" lon="-7.49572">
        <ele>1113.429</ele>
        <time>2019-10-17T21:54:20Z</time>
      </trkpt>
      <trkpt lat="40.50124" lon="-7.49604">
        <ele>1106.441</ele>
        <time>2019-10-17T21:54:40Z</time>
      </trkpt>
      <trkpt lat="40.50141" lon="-7.49651">
        <ele>1105.382</ele>
        <time>2019-10-17T21:55:00Z</time>
      </trkpt>
      <trkpt lat="40.50136" lon="-7.49673">
        <ele>1107.224</ele>
        <time>2019-10-17T21:55:20Z</time>
      </trkpt>
      <trkpt lat="40.50116" lon="-7.49697">
        <ele>1108.024</ele>
        <time>2019-10-17T21:55:40Z</time>
      </trkpt>
      <trkpt lat="40.5007" lon="-7.49708">
        <ele>1107.857</ele>
        <time>2019-10-17T21:56:00Z</time>
      </trkpt>
      <trkpt lat="40.50012" lon="-7.49731">
        <ele>1106.7</ele>
        <time>2019-10-17T21:56:20Z</time>
      </trkpt>
      <trkpt lat="40.49998" lon="-7.49734">
        <ele>1107.62</ele>
        <time>2019-10-17T21:56:40Z</time>
      </trkpt>
      <trkpt lat="40.49944" lon="-7.49764">
        <ele>1108.608</ele>
        <time>2019-10-17T21:57:00Z</time>
      </trkpt>
      <trkpt lat="40.49916" lon="-7.49806">
        <ele>1108.119</ele>
        <time>2019-10-17T21:57:20Z</time>
      </trkpt>
      <trkpt lat="40.49882" lon="-7.4985">
        <ele>1106.637</ele>
        <time>2019-10-17T21:57:40Z</time>
      </trkpt>
      <trkpt lat="40.49856" lon="-7.49878">
        <ele>1105.149</ele>
        <time>2019-10-17T21:58:00Z</time>
      </trkpt>
      <trkpt lat="40.4982" lon="-7.49889">
        <ele>1109.099</ele>
        <time>2019-10-17T21:58:20Z</time>
      </trkpt>
      <trkpt lat="40.49803" lon="-7.49897">
        <ele>1110.421</ele>
        <time>2019-10-17T21:58:40Z</time>
      </trkpt>
      <trkpt lat="40.49797" lon="-7.499">
        <ele>1111.212</ele>
        <time>2019-10-17T21:59:00Z</time>
      </trkpt>
      <trkpt lat="40.4978" lon="-7.49944">
        <ele>1107.664</ele>
        <time>2019-10-17T21:59:20Z</time>
      </trkpt>
      <trkpt lat="40.49775" lon="-7.49965">
        <ele>1105.134</ele>
        <time>2019-10-17T21:59:40Z</time>
      </trkpt>
      <trkpt lat="40.49769" lon="-7.49976">
        <ele>1104.552</ele>
        <time>2019-10-17T22:00:00Z</time>
      </trkpt>
      <trkpt lat="40.4975" lon="-7.50033">
        <ele>1102.953</ele>
        <time>2019-10-17T22:00:20Z</time>
      </trkpt>
      <trkpt lat="40.49719" lon="-7.50035">
        <ele>1107.608</ele>
        <time>2019-10-17T22:00:40Z</time>
      </trkpt>
      <trkpt lat="40.49675" lon="-7.50057">
        <ele>1107.008</ele>
        <time>2019-10-17T22:01:00Z</time>
      </trkpt>
      <trkpt lat="40.4964" lon="-7.50075">
        <ele>1101.889</ele>
        <time>2019-10-17T22:01:20Z</time>
      </trkpt>
      <trkpt lat="40.4962" lon="-7.50076">
        <ele>1102.917</ele>
        <time>2019-10-17T22:01:40Z</time>
      </trkpt>
      <trkpt lat="40.49575" lon="-7.50083">
        <ele>1102.119</ele>
        <time>2019-10-17T22:02:00Z</time>
      </trkpt>
      <trkpt lat="40.4954" lon="-7.50089">
        <ele>1106.579</ele>
        <time>2019-10-17T22:02:20Z</time>
      </trkpt>
      <trkpt lat="40.49514" lon="-7.50098">
        <ele>1111.561</ele>
        <time>2019-10-17T22:02:40Z</time>
      </trkpt>
      <trkpt lat="40.49506" lon="-7.50098">
        <ele>1113.942</ele>
        <time>2019-10-17T22:03:00Z</time>
      </trkpt>
      <trkpt lat="40.49499" lon="-7.501">
        <ele>1115.114</ele>
        <time>2019-10-17T22:03:20Z</time>
      </trkpt>
      <trkpt lat="40.49467" lon="-7.5011">
        <ele>1120.444</ele>
        <time>2019-10-17T22:03:40Z</time>
      </trkpt>
      <trkpt lat="40.49468" lon="-7.50143">
        <ele>1119.237</ele>
        <time>2019-10-17T22:04:00Z</time>
      </trkpt>
      <trkpt lat="40.49475" lon="-7.50183">
        <ele>1117.449</ele>
        <time>2019-10-17T22:04:20Z</time>
      </trkpt>
      <trkpt lat="40.49462" lon="-7.50224">
        <ele>1117.813</ele>
        <time>2019-10-17T22:04:40Z</time>
      </trkpt>
      <trkpt lat="40.49445" lon="-7.50246">
        <ele>1116.508</ele>
        <time>2019-10-17T22:05:00Z</time>
      </trkpt>
      <trkpt lat="40.49435" lon="-7.50284">
        <ele>1116.167</ele>
        <time>2019-10-17T22:05:20Z</time>
      </trkpt>
      <trkpt lat="40.49439" lon="-7.50307">
        <ele>1113.685</ele>
        <time>2019-10-17T22:05:40Z</time>
      </trkpt>
      <trkpt lat="40.49437" lon="-7.50361">
        <ele>1110.477</ele>
        <time>2019-10-17T22:06:00Z</time>
      </trkpt>
      <trkpt lat="40.49433" lon="-7.50376">
        <ele>1110.377</ele>
        <time>2019-10-17T22:06:20Z</time>
      </trkpt>
      <trkpt lat="40.49426" lon="-7.50398">
        <ele>1110.449</ele>
        <time>2019-10-17T22:06:40Z</time>
      </trkpt>
      <trkpt lat="40.49422" lon="-7.50412">
        <ele>1108.42</ele>
        <time>2019-10-17T22:07:00Z</time>
      </trkpt>
      <trkpt lat="40.49413" lon="-7.5045">
        <ele>1104.052</ele>
        <time>2019-10-17T22:07:20Z</time>
      </trkpt>
      <trkpt lat="40.4941" lon="-7.50464">
        <ele>1102.512</ele>
        <time>2019-10-17T22:07:40Z</time>
      </trkpt>
      <trkpt lat="40.49396" lon="-7.5049">
        <ele>1098.659</ele>
        <time>2019-10-17T22:08:00Z</time>
      </trkpt>
      <trkpt lat="40.49346" lon="-7.50551">
        <ele>1094.403</ele>
        <time>2019-10-17T22:08:20Z</time>
      </trkpt>
      <trkpt lat="40.49287" lon="-7.50593">
        <ele>1094.123</ele>
        <time>2019-10-17T22:08:40Z</time>
      </trkpt>
      <trkpt lat="40.49244" lon="-7.50604">
        <ele>1099.308</ele>
        <time>2019-10-17T22:09:00Z</time>
      </trkpt>
      <trkpt lat="40.49226" lon="-7.50637">
        <ele>1102.849</ele>
        <time>2019-10-17T22:09:20Z</time>
      </trkpt>
      <trkpt lat="40.49239" lon="-7.50669">
        <ele>1096.287</ele>
        <time>2019-10-17T22:09:40Z</time>
      </trkpt>
      <trkpt lat="40.4925" lon="-7.50711">
        <ele>1088.399</ele>
        <time>2019-10-17T22:10:00Z</time>
      </trkpt>
      <trkpt lat="40.49255" lon="-7.50727">
        <ele>1085.459</ele>
        <time>2019-10-17T22:10:20Z</time>
      </trkpt>
      <trkpt lat="40.49259" lon="-7.50762">
        <ele>1082.871</ele>
        <time>2019-10-17T22:10:40Z</time>
      </trkpt>
      <trkpt lat="40.49261" lon="-7.50789">
        <ele>1080.462</ele>
        <time>2019-10-17T22:11:00Z</time>
      </trkpt>
      <trkpt lat="40.49261" lon="-7.50817">
        <ele>1076.874</ele>
        <time>2019-10-17T22:11:20Z</time>
      </trkpt>
      <trkpt lat="40.49258" lon="-7.50835">
        <ele>1075.754</ele>
        <time>2019-10-17T22:11:40Z</time>
      </trkpt>
      <trkpt lat="40.49253" lon="-7.50852">
        <ele>1075.221</ele>
        <time>2019-10-17T22:12:00Z</time>
      </trkpt>
      <trkpt lat="40.49243" lon="-7.50887">
        <ele>1074.241</ele>
        <time>2019-10-17T22:12:20Z</time>
      </trkpt>
      <trkpt lat="40.49241" lon="-7.50896">
        <ele>1073.405</ele>
        <time>2019-10-17T22:12:40Z</time>
      </trkpt>
      <trkpt lat="40.49229" lon="-7.50942">
        <ele>1069.508</ele>
        <time>2019-10-17T22:13:00Z</time>
      </trkpt>
      <trkpt lat="40.4922" lon="-7.50982">
        <ele>1066.296</ele>
        <time>2019-10-17T22:13:20Z</time>
      </trkpt>
      <trkpt lat="40.49171" lon="-7.51073">
        <ele>1058.014</ele>
        <time>2019-10-17T22:13:40Z</time>
      </trkpt>
      <trkpt lat="40.49153" lon="-7.51088">
        <ele>1056.356</ele>
        <time>2019-10-17T22:14:00Z</time>
      </trkpt>
      <trkpt lat="40.49129" lon="-7.51091">
        <ele>1059.366</ele>
        <time>2019-10-17T22:14:20Z</time>
      </trkpt>
      <trkpt lat="40.49094" lon="-7.511">
        <ele>1061.598</ele>
        <time>2019-10-17T22:14:40Z</time>
      </trkpt>
      <trkpt lat="40.4907" lon="-7.51111">
        <ele>1061.559</ele>
        <time>2019-10-17T22:15:00Z</time>
      </trkpt>
      <trkpt lat="40.49058" lon="-7.51116">
        <ele>1061.251</ele>
        <time>2019-10-17T22:15:20Z</time>
      </trkpt>
      <trkpt lat="40.49005" lon="-7.51152">
        <ele>1055.281</ele>
        <time>2019-10-17T22:15:40Z</time>
      </trkpt>
      <trkpt lat="40.48984" lon="-7.5117">
        <ele>1054.074</ele>
        <time>2019-10-17T22:16:00Z</time>
      </trkpt>
      <trkpt lat="40.48967" lon="-7.51178">
        <ele>1057.356</ele>
        <time>2019-10-17T22:16:20Z</time>
      </trkpt>
      <trkpt lat="40.4895" lon="-7.51218">
        <ele>1054.721</ele>
        <time>2019-10-17T22:16:40Z</time>
      </trkpt>
      <trkpt lat="40.48949" lon="-7.51254">
        <ele>1050.508</ele>
        <time>2019-10-17T22:17:00Z</time>
      </trkpt>
      <trkpt lat="40.48951" lon="-7.51273">
        <ele>1046.911</ele>
        <time>2019-10-17T22:17:20Z</time>
      </trkpt>
      <trkpt lat="40.48944" lon="-7.51308">
        <ele>1045.149</ele>
        <time>2019-10-17T22:17:40Z</time>
      </trkpt>
      <trkpt lat="40.48934" lon="-7.51337">
        <ele>1046.581</ele>
        <time>2019-10-17T22:18:00Z</time>
      </trkpt>
      <trkpt lat="40.4893" lon="-7.51351">
        <ele>1046.581</ele>
        <time>2019-10-17T22:18:20Z</time>
      </trkpt>
      <trkpt lat="40.48933" lon="-7.51382">
        <ele>1041.283</ele>
        <time>2019-10-17T22:18:40Z</time>
      </trkpt>
      <trkpt lat="40.48936" lon="-7.51388">
        <ele>1039.654</ele>
        <time>2019-10-17T22:19:00Z</time>
      </trkpt>
      <trkpt lat="40.48965" lon="-7.514">
        <ele>1031.016</ele>
        <time>2019-10-17T22:19:20Z</time>
      </trkpt>
      <trkpt lat="40.48972" lon="-7.51389">
        <ele>1031.276</ele>
        <time>2019-10-17T22:19:40Z</time>
      </trkpt>
      <trkpt lat="40.48981" lon="-7.5137">
        <ele>1029.236</ele>
        <time>2019-10-17T22:20:00Z</time>
      </trkpt>
      <trkpt lat="40.4901" lon="-7.51355">
        <ele>1022.417</ele>
        <time>2019-10-17T22:20:20Z</time>
      </trkpt>
      <trkpt lat="40.49051" lon="-7.51326">
        <ele>1016.218</ele>
        <time>2019-10-17T22:20:40Z</time>
      </trkpt>
      <trkpt lat="40.49063" lon="-7.51288">
        <ele>1015.408</ele>
        <time>2019-10-17T22:21:00Z</time>
      </trkpt>
      <trkpt lat="40.49071" lon="-7.51242">
        <ele>1015.237</ele>
        <time>2019-10-17T22:21:20Z</time>
      </trkpt>
      <trkpt lat="40.49073" lon="-7.51234">
        <ele>1016.115</ele>
        <time>2019-10-17T22:21:40Z</time>
      </trkpt>
      <trkpt lat="40.4909" lon="-7.5121">
        <ele>1017.797</ele>
        <time>2019-10-17T22:22:00Z</time>
      </trkpt>
      <trkpt lat="40.49095" lon="-7.51211">
        <ele>1016.317</ele>
        <time>2019-10-17T22:22:20Z</time>
      </trkpt>
      <trkpt lat="40.49121" lon="-7.51215">
        <ele>1009.399</ele>
        <time>2019-10-17T22:22:40Z</time>
      </trkpt>
      <trkpt lat="40.49134" lon="-7.51214">
        <ele>1006.66</ele>
        <time>2019-10-17T22:23:00Z</time>
      </trkpt>
      <trkpt lat="40.49153" lon="-7.51218">
        <ele>1001.292</ele>
        <time>2019-10-17T22:23:20Z</time>
      </trkpt>
      <trkpt lat="40.49163" lon="-7.51221">
        <ele>998.092</ele>
        <time>2019-10-17T22:23:40Z</time>
      </trkpt>
      <trkpt lat="40.49195" lon="-7.5123">
        <ele>988.614</ele>
        <time>2019-10-17T22:24:00Z</time>
      </trkpt>
      <trkpt lat="40.49201" lon="-7.51232">
        <ele>987.754</ele>
        <time>2019-10-17T22:24:20Z</time>
      </trkpt>
      <trkpt lat="40.49222" lon="-7.51242">
        <ele>983.409</ele>
        <time>2019-10-17T22:24:40Z</time>
      </trkpt>
      <trkpt lat="40.49242" lon="-7.5125">
        <ele>978.808</ele>
        <time>2019-10-17T22:25:00Z</time>
      </trkpt>
      <trkpt lat="40.49253" lon="-7.51255">
        <ele>976.765</ele>
        <time>2019-10-17T22:25:20Z</time>
      </trkpt>
      <trkpt lat="40.49277" lon="-7.51258">
        <ele>974.073</ele>
        <time>2019-10-17T22:25:40Z</time>
      </trkpt>
      <trkpt lat="40.49305" lon="-7.51255">
        <ele>971.725</ele>
        <time>2019-10-17T22:26:00Z</time>
      </trkpt>
      <trkpt lat="40.49332" lon="-7.51252">
        <ele>967.995</ele>
        <time>2019-10-17T22:26:20Z</time>
      </trkpt>
      <trkpt lat="40.49344" lon="-7.51248">
        <ele>965.867</ele>
        <time>2019-10-17T22:26:40Z</time>
      </trkpt>
      <trkpt lat="40.49372" lon="-7.51235">
        <ele>960.118</ele>
        <time>2019-10-17T22:27:00Z</time>
      </trkpt>
      <trkpt lat="40.49379" lon="-7.51225">
        <ele>959.48</ele>
        <time>2019-10-17T22:27:20Z</time>
      </trkpt>
      <trkpt lat="40.49394" lon="-7.51194">
        <ele>961.73</ele>
        <time>2019-10-17T22:27:40Z</time>
      </trkpt>
      <trkpt lat="40.49409" lon="-7.51173">
        <ele>960.756</ele>
        <time>2019-10-17T22:28:00Z</time>
      </trkpt>
      <trkpt lat="40.49426" lon="-7.51158">
        <ele>956.259</ele>
        <time>2019-10-17T22:28:20Z</time>
      </trkpt>
      <trkpt lat="40.49434" lon="-7.51151">
        <ele>953.614</ele>
        <time>2019-10-17T22:28:40Z</time>
      </trkpt>
      <trkpt lat="40.49459" lon="-7.51136">
        <ele>948.608</ele>
        <time>2019-10-17T22:29:00Z</time>
      </trkpt>
      <trkpt lat="40.49463" lon="-7.51133">
        <ele>948.019</ele>
        <time>2019-10-17T22:29:20Z</time>
      </trkpt>
      <trkpt lat="40.49481" lon="-7.51118">
        <ele>946.117</ele>
        <time>2019-10-17T22:29:40Z</time>
      </trkpt>
      <trkpt lat="40.495" lon="-7.51104">
        <ele>943.429</ele>
        <time>2019-10-17T22:30:00Z</time>
      </trkpt>
      <trkpt lat="40.49527" lon="-7.51094">
        <ele>935.579</ele>
        <time>2019-10-17T22:30:20Z</time>
      </trkpt>
      <trkpt lat="40.49533" lon="-7.51094">
        <ele>933.931</ele>
        <time>2019-10-17T22:30:40Z</time>
      </trkpt>
      <trkpt lat="40.49556" lon="-7.51089">
        <ele>929.482</ele>
        <time>2019-10-17T22:31:00Z</time>
      </trkpt>
      <trkpt lat="40.49586" lon="-7.51088">
        <ele>926.964</ele>
        <time>2019-10-17T22:31:20Z</time>
      </trkpt>
      <trkpt lat="40.49594" lon="-7.51086">
        <ele>926.794</ele>
        <time>2019-10-17T22:31:40Z</time>
      </trkpt>
      <trkpt lat="40.49602" lon="-7.5109">
        <ele>925.549</ele>
        <time>2019-10-17T22:32:00Z</time>
      </trkpt>
      <trkpt lat="40.49603" lon="-7.51105">
        <ele>923.102</ele>
        <time>2019-10-17T22:32:20Z</time>
      </trkpt>
      <trkpt lat="40.49601" lon="-7.5111">
        <ele>922.222</ele>
        <time>2019-10-17T22:32:40Z</time>
      </trkpt>
      <trkpt lat="40.49586" lon="-7.51141">
        <ele>917.908</ele>
        <time>2019-10-17T22:33:00Z</time>
      </trkpt>
      <trkpt lat="40.49591" lon="-7.51178">
        <ele>917.848</ele>
        <time>2019-10-17T22:33:20Z</time>
      </trkpt>
      <trkpt lat="40.49602" lon="-7.5118">
        <ele>917.996</ele>
        <time>2019-10-17T22:33:40Z</time>
      </trkpt>
      <trkpt lat="40.49658" lon="-7.51181">
        <ele>915.038</ele>
        <time>2019-10-17T22:34:00Z</time>
      </trkpt>
      <trkpt lat="40.49694" lon="-7.51183">
        <ele>912.638</ele>
        <time>2019-10-17T22:34:20Z</time>
      </trkpt>
      <trkpt lat="40.49764" lon="-7.51162">
        <ele>906.19</ele>
        <time>2019-10-17T22:34:40Z</time>
      </trkpt>
      <trkpt lat="40.49816" lon="-7.51164">
        <ele>901.121</ele>
        <time>2019-10-17T22:35:00Z</time>
      </trkpt>
      <trkpt lat="40.49831" lon="-7.51178">
        <ele>900.533</ele>
        <time>2019-10-17T22:35:20Z</time>
      </trkpt>
      <trkpt lat="40.4985" lon="-7.51205">
        <ele>901.943</ele>
        <time>2019-10-17T22:35:40Z</time>
      </trkpt>
      <trkpt lat="40.49894" lon="-7.51219">
        <ele>901.898</ele>
        <time>2019-10-17T22:36:00Z</time>
      </trkpt>
      <trkpt lat="40.499" lon="-7.51216">
        <ele>901.915</ele>
        <time>2019-10-17T22:36:20Z</time>
      </trkpt>
      <trkpt lat="40.49922" lon="-7.51208">
        <ele>903.226</ele>
        <time>2019-10-17T22:36:40Z</time>
      </trkpt>
      <trkpt lat="40.49942" lon="-7.512">
        <ele>904.008</ele>
        <time>2019-10-17T22:37:00Z</time>
      </trkpt>
      <trkpt lat="40.49973" lon="-7.51205">
        <ele>906.183</ele>
        <time>2019-10-17T22:37:20Z</time>
      </trkpt>
      <trkpt lat="40.49991" lon="-7.51245">
        <ele>912.721</ele>
        <time>2019-10-17T22:37:40Z</time>
      </trkpt>
      <trkpt lat="40.50014" lon="-7.51276">
        <ele>913.593</ele>
        <time>2019-10-17T22:38:00Z</time>
      </trkpt>
      <trkpt lat="40.50045" lon="-7.513">
        <ele>912.683</ele>
        <time>2019-10-17T22:38:20Z</time>
      </trkpt>
      <trkpt lat="40.50078" lon="-7.51322">
        <ele>912.465</ele>
        <time>2019-10-17T22:38:40Z</time>
      </trkpt>
      <trkpt lat="40.5011" lon="-7.51346">
        <ele>913.356</ele>
        <time>2019-10-17T22:39:00Z</time>
      </trkpt>
      <trkpt lat="40.5014" lon="-7.51359">
        <ele>913.648</ele>
        <time>2019-10-17T22:39:20Z</time>
      </trkpt>
      <trkpt lat="40.50169" lon="-7.5137">
        <ele>915.738</ele>
        <time>2019-10-17T22:39:40Z</time>
      </trkpt>
      <trkpt lat="40.50188" lon="-7.51411">
        <ele>923.329</ele>
        <time>2019-10-17T22:40:00Z</time>
      </trkpt>
      <trkpt lat="40.50209" lon="-7.51422">
        <ele>925.3</ele>
        <time>2019-10-17T22:40:20Z</time>
      </trkpt>
      <trkpt lat="40.50236" lon="-7.5141">
        <ele>924.12</ele>
        <time>2019-10-17T22:40:40Z</time>
      </trkpt>
      <trkpt lat="40.50266" lon="-7.51403">
        <ele>924.208</ele>
        <time>2019-10-17T22:41:00Z</time>
      </trkpt>
      <trkpt lat="40.503" lon="-7.51388">
        <ele>924.116</ele>
        <time>2019-10-17T22:41:20Z</time>
      </trkpt>
      <trkpt lat="40.50333" lon="-7.51375">
        <ele>926.964</ele>
        <time>2019-10-17T22:41:40Z</time>
      </trkpt>
      <trkpt lat="40.50369" lon="-7.51369">
        <ele>932.066</ele>
        <time>2019-10-17T22:42:00Z</time>
      </trkpt>
      <trkpt lat="40.50404" lon="-7.51366">
        <ele>932.166</ele>
        <time>2019-10-17T22:42:20Z</time>
      </trkpt>
      <trkpt lat="40.50463" lon="-7.51374">
        <ele>929.028</ele>
        <time>2019-10-17T22:42:40Z</time>
      </trkpt>
      <trkpt lat="40.50478" lon="-7.51383">
        <ele>930.599</ele>
        <time>2019-10-17T22:43:00Z</time>
      </trkpt>
      <trkpt lat="40.50511" lon="-7.51396">
        <ele>930.711</ele>
        <time>2019-10-17T22:43:20Z</time>
      </trkpt>
      <trkpt lat="40.50551" lon="-7.5141">
        <ele>931.271</ele>
        <time>2019-10-17T22:43:40Z</time>
      </trkpt>
      <trkpt lat="40.50593" lon="-7.51431">
        <ele>932.989</ele>
        <time>2019-10-17T22:44:00Z</time>
      </trkpt>
      <trkpt lat="40.50631" lon="-7.51431">
        <ele>932.906</ele>
        <time>2019-10-17T22:44:20Z</time>
      </trkpt>
      <trkpt lat="40.50662" lon="-7.51421">
        <ele>933.926</ele>
        <time>2019-10-17T22:44:40Z</time>
      </trkpt>
      <trkpt lat="40.50689" lon="-7.5143">
        <ele>935.308</ele>
        <time>2019-10-17T22:45:00Z</time>
      </trkpt>
      <trkpt lat="40.50714" lon="-7.51441">
        <ele>936.542</ele>
        <time>2019-10-17T22:45:20Z</time>
      </trkpt>
      <trkpt lat="40.50718" lon="-7.5146">
        <ele>938.03</ele>
        <time>2019-10-17T22:45:40Z</time>
      </trkpt>
      <trkpt lat="40.50693" lon="-7.51475">
        <ele>938.082</ele>
        <time>2019-10-17T22:46:00Z</time>
      </trkpt>
      <trkpt lat="40.50654" lon="-7.51493">
        <ele>938.462</ele>
        <time>2019-10-17T22:46:20Z</time>
      </trkpt>
      <trkpt lat="40.50622" lon="-7.51501">
        <ele>939.174</ele>
        <time>2019-10-17T22:46:40Z</time>
      </trkpt>
      <trkpt lat="40.50587" lon="-7.51506">
        <ele>941.215</ele>
        <time>2019-10-17T22:47:00Z</time>
      </trkpt>
      <trkpt lat="40.50559" lon="-7.51507">
        <ele>944.467</ele>
        <time>2019-10-17T22:47:20Z</time>
      </trkpt>
      <trkpt lat="40.50538" lon="-7.51509">
        <ele>946.277</ele>
        <time>2019-10-17T22:47:40Z</time>
      </trkpt>
      <trkpt lat="40.50517" lon="-7.51511">
        <ele>948.498</ele>
        <time>2019-10-17T22:48:00Z</time>
      </trkpt>
      <trkpt lat="40.50501" lon="-7.51513">
        <ele>950.715</ele>
        <time>2019-10-17T22:48:20Z</time>
      </trkpt>
      <trkpt lat="40.50467" lon="-7.51523">
        <ele>956.526</ele>
        <time>2019-10-17T22:48:40Z</time>
      </trkpt>
      <trkpt lat="40.50437" lon="-7.51532">
        <ele>958.808</ele>
        <time>2019-10-17T22:49:00Z</time>
      </trkpt>
      <trkpt lat="40.50428" lon="-7.51538">
        <ele>958.893</ele>
        <time>2019-10-17T22:49:20Z</time>
      </trkpt>
      <trkpt lat="40.50412" lon="-7.51549">
        <ele>959.671</ele>
        <time>2019-10-17T22:49:40Z</time>
      </trkpt>
      <trkpt lat="40.50407" lon="-7.51552">
        <ele>959.763</ele>
        <time>2019-10-17T22:50:00Z</time>
      </trkpt>
      <trkpt lat="40.50407" lon="-7.51562">
        <ele>961.043</ele>
        <time>2019-10-17T22:50:20Z</time>
      </trkpt>
      <trkpt lat="40.50392" lon="-7.51581">
        <ele>961.075</ele>
        <time>2019-10-17T22:50:40Z</time>
      </trkpt>
      <trkpt lat="40.50376" lon="-7.51609">
        <ele>964.716</ele>
        <time>2019-10-17T22:51:00Z</time>
      </trkpt>
      <trkpt lat="40.50355" lon="-7.51641">
        <ele>968.468</ele>
        <time>2019-10-17T22:51:20Z</time>
      </trkpt>
      <trkpt lat="40.50337" lon="-7.5167">
        <ele>968.998</ele>
        <time>2019-10-17T22:51:40Z</time>
      </trkpt>
      <trkpt lat="40.50317" lon="-7.51701">
        <ele>971.417</ele>
        <time>2019-10-17T22:52:00Z</time>
      </trkpt>
      <trkpt lat="40.50298" lon="-7.51732">
        <ele>973.187</ele>
        <time>2019-10-17T22:52:20Z</time>
      </trkpt>
      <trkpt lat="40.50276" lon="-7.51769">
        <ele>972.615</ele>
        <time>2019-10-17T22:52:40Z</time>
      </trkpt>
      <trkpt lat="40.50253" lon="-7.51813">
        <ele>973.108</ele>
        <time>2019-10-17T22:53:00Z</time>
      </trkpt>
      <trkpt lat="40.50237" lon="-7.51843">
        <ele>974.165</ele>
        <time>2019-10-17T22:53:20Z</time>
      </trkpt>
      <trkpt lat="40.50223" lon="-7.51869">
        <ele>975.963</ele>
        <time>2019-10-17T22:53:40Z</time>
      </trkpt>
      <trkpt lat="40.50204" lon="-7.51901">
        <ele>980.775</ele>
        <time>2019-10-17T22:54:00Z</time>
      </trkpt>
      <trkpt lat="40.50186" lon="-7.51931">
        <ele>983.935</ele>
        <time>2019-10-17T22:54:20Z</time>
      </trkpt>
      <trkpt lat="40.50164" lon="-7.51959">
        <ele>985.937</ele>
        <time>2019-10-17T22:54:40Z</time>
      </trkpt>
      <trkpt lat="40.50139" lon="-7.51987">
        <ele>987.048</ele>
        <time>2019-10-17T22:55:00Z</time>
      </trkpt>
      <trkpt lat="40.50126" lon="-7.52019">
        <ele>986.51</ele>
        <time>2019-10-17T22:55:20Z</time>
      </trkpt>
      <trkpt lat="40.50113" lon="-7.52045">
        <ele>986.56</ele>
        <time>2019-10-17T22:55:40Z</time>
      </trkpt>
      <trkpt lat="40.50075" lon="-7.52089">
        <ele>988.753</ele>
        <time>2019-10-17T22:56:00Z</time>
      </trkpt>
      <trkpt lat="40.50048" lon="-7.52119">
        <ele>989.604</ele>
        <time>2019-10-17T22:56:20Z</time>
      </trkpt>
      <trkpt lat="40.50016" lon="-7.52159">
        <ele>989.814</ele>
        <time>2019-10-17T22:56:40Z</time>
      </trkpt>
      <trkpt lat="40.49989" lon="-7.5219">
        <ele>990.208</ele>
        <time>2019-10-17T22:57:00Z</time>
      </trkpt>
      <trkpt lat="40.49962" lon="-7.52228">
        <ele>993.589</ele>
        <time>2019-10-17T22:57:20Z</time>
      </trkpt>
      <trkpt lat="40.4993" lon="-7.5227">
        <ele>995.057</ele>
        <time>2019-10-17T22:57:40Z</time>
      </trkpt>
      <trkpt lat="40.49905" lon="-7.523">
        <ele>996.479</ele>
        <time>2019-10-17T22:58:00Z</time>
      </trkpt>
      <trkpt lat="40.49875" lon="-7.52346">
        <ele>1000.429</ele>
        <time>2019-10-17T22:58:20Z</time>
      </trkpt>
      <trkpt lat="40.49853" lon="-7.52372">
        <ele>1000.691</ele>
        <time>2019-10-17T22:58:40Z</time>
      </trkpt>
      <trkpt lat="40.49816" lon="-7.52405">
        <ele>999.012</ele>
        <time>2019-10-17T22:59:00Z</time>
      </trkpt>
      <trkpt lat="40.49788" lon="-7.5242">
        <ele>1002.644</ele>
        <time>2019-10-17T22:59:20Z</time>
      </trkpt>
      <trkpt lat="40.49779" lon="-7.52428">
        <ele>1003.674</ele>
        <time>2019-10-17T22:59:40Z</time>
      </trkpt>
      <trkpt lat="40.49776" lon="-7.52432">
        <ele>1003.889</ele>
        <time>2019-10-17T23:00:00Z</time>
      </trkpt>
      <trkpt lat="40.49753" lon="-7.52443">
        <ele>1006.706</ele>
        <time>2019-10-17T23:00:20Z</time>
      </trkpt>
      <trkpt lat="40.49733" lon="-7.52457">
        <ele>1009.326</ele>
        <time>2019-10-17T23:00:40Z</time>
      </trkpt>
      <trkpt lat="40.49712" lon="-7.52476">
        <ele>1011.408</ele>
        <time>2019-10-17T23:01:00Z</time>
      </trkpt>
      <trkpt lat="40.49685" lon="-7.52492">
        <ele>1013.882</ele>
        <time>2019-10-17T23:01:20Z</time>
      </trkpt>
      <trkpt lat="40.49662" lon="-7.52511">
        <ele>1015.53</ele>
        <time>2019-10-17T23:01:40Z</time>
      </trkpt>
      <trkpt lat="40.49636" lon="-7.52534">
        <ele>1018.742</ele>
        <time>2019-10-17T23:02:00Z</time>
      </trkpt>
      <trkpt lat="40.49612" lon="-7.52554">
        <ele>1021.192</ele>
        <time>2019-10-17T23:02:20Z</time>
      </trkpt>
      <trkpt lat="40.49583" lon="-7.52584">
        <ele>1020.914</ele>
        <time>2019-10-17T23:02:40Z</time>
      </trkpt>
      <trkpt lat="40.49551" lon="-7.52605">
        <ele>1021.965</ele>
        <time>2019-10-17T23:03:00Z</time>
      </trkpt>
      <trkpt lat="40.49532" lon="-7.52614">
        <ele>1021.867</ele>
        <time>2019-10-17T23:03:20Z</time>
      </trkpt>
      <trkpt lat="40.4952" lon="-7.52615">
        <ele>1022.927</ele>
        <time>2019-10-17T23:03:40Z</time>
      </trkpt>
      <trkpt lat="40.49508" lon="-7.52611">
        <ele>1025.178</ele>
        <time>2019-10-17T23:04:00Z</time>
      </trkpt>
      <trkpt lat="40.49473" lon="-7.52612">
        <ele>1030.733</ele>
        <time>2019-10-17T23:04:20Z</time>
      </trkpt>
      <trkpt lat="40.49455" lon="-7.52623">
        <ele>1032.426</ele>
        <time>2019-10-17T23:04:40Z</time>
      </trkpt>
      <trkpt lat="40.49455" lon="-7.52636">
        <ele>1031.908</ele>
        <time>2019-10-17T23:05:00Z</time>
      </trkpt>
      <trkpt lat="40.4947" lon="-7.52669">
        <ele>1028.851</ele>
        <time>2019-10-17T23:05:20Z</time>
      </trkpt>
      <trkpt lat="40.49476" lon="-7.5268">
        <ele>1028.169</ele>
        <time>2019-10-17T23:05:40Z</time>
      </trkpt>
      <trkpt lat="40.49481" lon="-7.52692">
        <ele>1026.891</ele>
        <time>2019-10-17T23:06:00Z</time>
      </trkpt>
      <trkpt lat="40.49514" lon="-7.5274">
        <ele>1026.181</ele>
        <time>2019-10-17T23:06:20Z</time>
      </trkpt>
      <trkpt lat="40.49538" lon="-7.52766">
        <ele>1027.413</ele>
        <time>2019-10-17T23:06:40Z</time>
      </trkpt>
      <trkpt lat="40.4956" lon="-7.52792">
        <ele>1028.564</ele>
        <time>2019-10-17T23:07:00Z</time>
      </trkpt>
      <trkpt lat="40.49576" lon="-7.52844">
        <ele>1032.586</ele>
        <time>2019-10-17T23:07:20Z</time>
      </trkpt>
      <trkpt lat="40.4958" lon="-7.52915">
        <ele>1033.376</ele>
        <time>2019-10-17T23:07:40Z</time>
      </trkpt>
      <trkpt lat="40.49575" lon="-7.52967">
        <ele>1034.852</ele>
        <time>2019-10-17T23:08:00Z</time>
      </trkpt>
      <trkpt lat="40.49579" lon="-7.53064">
        <ele>1034.153</ele>
        <time>2019-10-17T23:08:20Z</time>
      </trkpt>
      <trkpt lat="40.49593" lon="-7.53103">
        <ele>1034.308</ele>
        <time>2019-10-17T23:08:40Z</time>
      </trkpt>
      <trkpt lat="40.49633" lon="-7.53189">
        <ele>1026.908</ele>
        <time>2019-10-17T23:09:00Z</time>
      </trkpt>
      <trkpt lat="40.4965" lon="-7.53257">
        <ele>1025.089</ele>
        <time>2019-10-17T23:09:20Z</time>
      </trkpt>
      <trkpt lat="40.49647" lon="-7.53325">
        <ele>1024.727</ele>
        <time>2019-10-17T23:09:40Z</time>
      </trkpt>
      <trkpt lat="40.49639" lon="-7.53346">
        <ele>1026.549</ele>
        <time>2019-10-17T23:10:00Z</time>
      </trkpt>
      <trkpt lat="40.49616" lon="-7.5337">
        <ele>1031.129</ele>
        <time>2019-10-17T23:10:20Z</time>
      </trkpt>
      <trkpt lat="40.49597" lon="-7.53381">
        <ele>1033.891</ele>
        <time>2019-10-17T23:10:40Z</time>
      </trkpt>
      <trkpt lat="40.49573" lon="-7.53384">
        <ele>1036.992</ele>
        <time>2019-10-17T23:11:00Z</time>
      </trkpt>
      <trkpt lat="40.49546" lon="-7.53375">
        <ele>1039.874</ele>
        <time>2019-10-17T23:11:20Z</time>
      </trkpt>
      <trkpt lat="40.49513" lon="-7.53362">
        <ele>1042.984</ele>
        <time>2019-10-17T23:11:40Z</time>
      </trkpt>
      <trkpt lat="40.49478" lon="-7.53379">
        <ele>1047.735</ele>
        <time>2019-10-17T23:12:00Z</time>
      </trkpt>
      <trkpt lat="40.4947" lon="-7.53403">
        <ele>1048.086</ele>
        <time>2019-10-17T23:12:20Z</time>
      </trkpt>
      <trkpt lat="40.49459" lon="-7.53455">
        <ele>1048.714</ele>
        <time>2019-10-17T23:12:40Z</time>
      </trkpt>
      <trkpt lat="40.49442" lon="-7.53496">
        <ele>1052.708</ele>
        <time>2019-10-17T23:13:00Z</time>
      </trkpt>
      <trkpt lat="40.49423" lon="-7.53536">
        <ele>1054.457</ele>
        <time>2019-10-17T23:13:20Z</time>
      </trkpt>
      <trkpt lat="40.49405" lon="-7.53566">
        <ele>1055.235</ele>
        <time>2019-10-17T23:13:40Z</time>
      </trkpt>
      <trkpt lat="40.49371" lon="-7.53581">
        <ele>1056.157</ele>
        <time>2019-10-17T23:14:00Z</time>
      </trkpt>
      <trkpt lat="40.49353" lon="-7.5356">
        <ele>1056.877</ele>
        <time>2019-10-17T23:14:20Z</time>
      </trkpt>
      <trkpt lat="40.49326" lon="-7.53502">
        <ele>1058.689</ele>
        <time>2019-10-17T23:14:40Z</time>
      </trkpt>
      <trkpt lat="40.49272" lon="-7.5347">
        <ele>1059.19</ele>
        <time>2019-10-17T23:15:00Z</time>
      </trkpt>
      <trkpt lat="40.49248" lon="-7.53468">
        <ele>1058.892</ele>
        <time>2019-10-17T23:15:20Z</time>
      </trkpt>
      <trkpt lat="40.49231" lon="-7.53474">
        <ele>1059.282</ele>
        <time>2019-10-17T23:15:40Z</time>
      </trkpt>
      <trkpt lat="40.49215" lon="-7.53491">
        <ele>1059.311</ele>
        <time>2019-10-17T23:16:00Z</time>
      </trkpt>
      <trkpt lat="40.4919" lon="-7.53526">
        <ele>1060.221</ele>
        <time>2019-10-17T23:16:20Z</time>
      </trkpt>
      <trkpt lat="40.49163" lon="-7.53563">
        <ele>1061.603</ele>
        <time>2019-10-17T23:16:40Z</time>
      </trkpt>
      <trkpt lat="40.4913" lon="-7.53591">
        <ele>1062.008</ele>
        <time>2019-10-17T23:17:00Z</time>
      </trkpt>
      <trkpt lat="40.49101" lon="-7.53608">
        <ele>1063.245</ele>
        <time>2019-10-17T23:17:20Z</time>
      </trkpt>
      <trkpt lat="40.49077" lon="-7.5362">
        <ele>1064.343</ele>
        <time>2019-10-17T23:17:40Z</time>
      </trkpt>
      <trkpt lat="40.49041" lon="-7.5362">
        <ele>1069.655</ele>
        <time>2019-10-17T23:18:00Z</time>
      </trkpt>
      <trkpt lat="40.49034" lon="-7.53623">
        <ele>1070.355</ele>
        <time>2019-10-17T23:18:20Z</time>
      </trkpt>
      <trkpt lat="40.49023" lon="-7.53635">
        <ele>1071.187</ele>
        <time>2019-10-17T23:18:40Z</time>
      </trkpt>
      <trkpt lat="40.49007" lon="-7.53657">
        <ele>1072.788</ele>
        <time>2019-10-17T23:19:00Z</time>
      </trkpt>
      <trkpt lat="40.48991" lon="-7.53678">
        <ele>1072.58</ele>
        <time>2019-10-17T23:19:20Z</time>
      </trkpt>
      <trkpt lat="40.48972" lon="-7.53692">
        <ele>1069.79</ele>
        <time>2019-10-17T23:19:40Z</time>
      </trkpt>
      <trkpt lat="40.48941" lon="-7.53685">
        <ele>1074.954</ele>
        <time>2019-10-17T23:20:00Z</time>
      </trkpt>
      <trkpt lat="40.48901" lon="-7.53677">
        <ele>1078.956</ele>
        <time>2019-10-17T23:20:20Z</time>
      </trkpt>
      <trkpt lat="40.48865" lon="-7.53677">
        <ele>1083.011</ele>
        <time>2019-10-17T23:20:40Z</time>
      </trkpt>
      <trkpt lat="40.48851" lon="-7.53719">
        <ele>1082.108</ele>
        <time>2019-10-17T23:21:00Z</time>
      </trkpt>
      <trkpt lat="40.48852" lon="-7.53774">
        <ele>1082.059</ele>
        <time>2019-10-17T23:21:20Z</time>
      </trkpt>
      <trkpt lat="40.48879" lon="-7.53831">
        <ele>1079.797</ele>
        <time>2019-10-17T23:21:40Z</time>
      </trkpt>
      <trkpt lat="40.48884" lon="-7.53843">
        <ele>1079.839</ele>
        <time>2019-10-17T23:22:00Z</time>
      </trkpt>
      <trkpt lat="40.48891" lon="-7.53857">
        <ele>1079.749</ele>
        <time>2019-10-17T23:22:20Z</time>
      </trkpt>
      <trkpt lat="40.48921" lon="-7.53885">
        <ele>1077.571</ele>
        <time>2019-10-17T23:22:40Z</time>
      </trkpt>
      <trkpt lat="40.48952" lon="-7.5391">
        <ele>1076.072</ele>
        <time>2019-10-17T23:23:00Z</time>
      </trkpt>
      <trkpt lat="40.48977" lon="-7.53945">
        <ele>1074.974</ele>
        <time>2019-10-17T23:23:20Z</time>
      </trkpt>
      <trkpt lat="40.4899" lon="-7.53974">
        <ele>1074.634</ele>
        <time>2019-10-17T23:23:40Z</time>
      </trkpt>
      <trkpt lat="40.49016" lon="-7.54052">
        <ele>1070.679</ele>
        <time>2019-10-17T23:24:00Z</time>
      </trkpt>
      <trkpt lat="40.49029" lon="-7.54074">
        <ele>1070.305</ele>
        <time>2019-10-17T23:24:20Z</time>
      </trkpt>
      <trkpt lat="40.49047" lon="-7.54091">
        <ele>1071.225</ele>
        <time>2019-10-17T23:24:40Z</time>
      </trkpt>
      <trkpt lat="40.49098" lon="-7.54139">
        <ele>1077.008</ele>
        <time>2019-10-17T23:25:00Z</time>
      </trkpt>
      <trkpt lat="40.49148" lon="-7.54188">
        <ele>1079.571</ele>
        <time>2019-10-17T23:25:20Z</time>
      </trkpt>
      <trkpt lat="40.49162" lon="-7.54197">
        <ele>1080.029</ele>
        <time>2019-10-17T23:25:40Z</time>
      </trkpt>
      <trkpt lat="40.49222" lon="-7.54208">
        <ele>1079.021</ele>
        <time>2019-10-17T23:26:00Z</time>
      </trkpt>
      <trkpt lat="40.49279" lon="-7.54218">
        <ele>1078.731</ele>
        <time>2019-10-17T23:26:20Z</time>
      </trkpt>
      <trkpt lat="40.49334" lon="-7.54225">
        <ele>1080.553</ele>
        <time>2019-10-17T23:26:40Z</time>
      </trkpt>
      <trkpt lat="40.49406" lon="-7.54246">
        <ele>1076.284</ele>
        <time>2019-10-17T23:27:00Z</time>
      </trkpt>
      <trkpt lat="40.49422" lon="-7.54307">
        <ele>1080.496</ele>
        <time>2019-10-17T23:27:20Z</time>
      </trkpt>
      <trkpt lat="40.49427" lon="-7.54392">
        <ele>1082.216</ele>
        <time>2019-10-17T23:27:40Z</time>
      </trkpt>
      <trkpt lat="40.49424" lon="-7.54495">
        <ele>1082.743</ele>
        <time>2019-10-17T23:28:00Z</time>
      </trkpt>
      <trkpt lat="40.49403" lon="-7.54568">
        <ele>1083.364</ele>
        <time>2019-10-17T23:28:20Z</time>
      </trkpt>
      <trkpt lat="40.49357" lon="-7.5466">
        <ele>1078.01</ele>
        <time>2019-10-17T23:28:40Z</time>
      </trkpt>
      <trkpt lat="40.49339" lon="-7.54691">
        <ele>1077.208</ele>
        <time>2019-10-17T23:29:00Z</time>
      </trkpt>
      <trkpt lat="40.49285" lon="-7.54792">
        <ele>1073.448</ele>
        <time>2019-10-17T23:29:20Z</time>
      </trkpt>
      <trkpt lat="40.49257" lon="-7.54839">
        <ele>1069.386</ele>
        <time>2019-10-17T23:29:40Z</time>
      </trkpt>
      <trkpt lat="40.49253" lon="-7.54847">
        <ele>1068.588</ele>
        <time>2019-10-17T23:30:00Z</time>
      </trkpt>
      <trkpt lat="40.49217" lon="-7.5491">
        <ele>1062.458</ele>
        <time>2019-10-17T23:30:20Z</time>
      </trkpt>
      <trkpt lat="40.49204" lon="-7.5494">
        <ele>1060.11</ele>
        <time>2019-10-17T23:30:40Z</time>
      </trkpt>
      <trkpt lat="40.49173" lon="-7.54948">
        <ele>1064.361</ele>
        <time>2019-10-17T23:31:00Z</time>
      </trkpt>
      <trkpt lat="40.49138" lon="-7.54962">
        <ele>1065.083</ele>
        <time>2019-10-17T23:31:20Z</time>
      </trkpt>
      <trkpt lat="40.49115" lon="-7.54982">
        <ele>1061.263</ele>
        <time>2019-10-17T23:31:40Z</time>
      </trkpt>
      <trkpt lat="40.49087" lon="-7.54996">
        <ele>1061.664</ele>
        <time>2019-10-17T23:32:00Z</time>
      </trkpt>
      <trkpt lat="40.49018" lon="-7.55015">
        <ele>1059.106</ele>
        <time>2019-10-17T23:32:20Z</time>
      </trkpt>
      <trkpt lat="40.48954" lon="-7.55038">
        <ele>1056.516</ele>
        <time>2019-10-17T23:32:40Z</time>
      </trkpt>
      <trkpt lat="40.48888" lon="-7.55099">
        <ele>1051.608</ele>
        <time>2019-10-17T23:33:00Z</time>
      </trkpt>
      <trkpt lat="40.48878" lon="-7.55115">
        <ele>1048.74</ele>
        <time>2019-10-17T23:33:20Z</time>
      </trkpt>
      <trkpt lat="40.48825" lon="-7.55129">
        <ele>1045.988</ele>
        <time>2019-10-17T23:33:40Z</time>
      </trkpt>
      <trkpt lat="40.48808" lon="-7.55116">
        <ele>1045.45</ele>
        <time>2019-10-17T23:34:00Z</time>
      </trkpt>
      <trkpt lat="40.48769" lon="-7.55086">
        <ele>1040.44</ele>
        <time>2019-10-17T23:34:20Z</time>
      </trkpt>
      <trkpt lat="40.48737" lon="-7.55066">
        <ele>1036.692</ele>
        <time>2019-10-17T23:34:40Z</time>
      </trkpt>
      <trkpt lat="40.48715" lon="-7.55051">
        <ele>1033.463</ele>
        <time>2019-10-17T23:35:00Z</time>
      </trkpt>
      <trkpt lat="40.48684" lon="-7.55003">
        <ele>1030.465</ele>
        <time>2019-10-17T23:35:20Z</time>
      </trkpt>
      <trkpt lat="40.48672" lon="-7.54945">
        <ele>1035.395</ele>
        <time>2019-10-17T23:35:40Z</time>
      </trkpt>
      <trkpt lat="40.48654" lon="-7.54925">
        <ele>1032.972</ele>
        <time>2019-10-17T23:36:00Z</time>
      </trkpt>
      <trkpt lat="40.48641" lon="-7.54939">
        <ele>1028.313</ele>
        <time>2019-10-17T23:36:20Z</time>
      </trkpt>
      <trkpt lat="40.48619" lon="-7.54992">
        <ele>1027.714</ele>
        <time>2019-10-17T23:36:40Z</time>
      </trkpt>
      <trkpt lat="40.48599" lon="-7.55059">
        <ele>1024.608</ele>
        <time>2019-10-17T23:37:00Z</time>
      </trkpt>
      <trkpt lat="40.48601" lon="-7.55113">
        <ele>1025.441</ele>
        <time>2019-10-17T23:37:20Z</time>
      </trkpt>
      <trkpt lat="40.48621" lon="-7.55186">
        <ele>1018.669</ele>
        <time>2019-10-17T23:37:40Z</time>
      </trkpt>
      <trkpt lat="40.48624" lon="-7.55196">
        <ele>1017.221</ele>
        <time>2019-10-17T23:38:00Z</time>
      </trkpt>
      <trkpt lat="40.48624" lon="-7.55219">
        <ele>1017.971</ele>
        <time>2019-10-17T23:38:20Z</time>
      </trkpt>
      <trkpt lat="40.48615" lon="-7.55277">
        <ele>1021.593</ele>
        <time>2019-10-17T23:38:40Z</time>
      </trkpt>
      <trkpt lat="40.486" lon="-7.55335">
        <ele>1021.764</ele>
        <time>2019-10-17T23:39:00Z</time>
      </trkpt>
      <trkpt lat="40.48561" lon="-7.55361">
        <ele>1021.466</ele>
        <time>2019-10-17T23:39:20Z</time>
      </trkpt>
      <trkpt lat="40.48522" lon="-7.554">
        <ele>1025.836</ele>
        <time>2019-10-17T23:39:40Z</time>
      </trkpt>
      <trkpt lat="40.48523" lon="-7.55409">
        <ele>1025.056</ele>
        <time>2019-10-17T23:40:00Z</time>
      </trkpt>
      <trkpt lat="40.48525" lon="-7.55425">
        <ele>1022.759</ele>
        <time>2019-10-17T23:40:20Z</time>
      </trkpt>
      <trkpt lat="40.48527" lon="-7.55524">
        <ele>1021.714</ele>
        <time>2019-10-17T23:40:40Z</time>
      </trkpt>
      <trkpt lat="40.48539" lon="-7.55571">
        <ele>1022.808</ele>
        <time>2019-10-17T23:41:00Z</time>
      </trkpt>
      <trkpt lat="40.48546" lon="-7.55591">
        <ele>1021.359</ele>
        <time>2019-10-17T23:41:20Z</time>
      </trkpt>
      <trkpt lat="40.48552" lon="-7.55604">
        <ele>1019.937</ele>
        <time>2019-10-17T23:41:40Z</time>
      </trkpt>
      <trkpt lat="40.48561" lon="-7.55643">
        <ele>1018.369</ele>
        <time>2019-10-17T23:42:00Z</time>
      </trkpt>
      <trkpt lat="40.48559" lon="-7.55753">
        <ele>1018.689</ele>
        <time>2019-10-17T23:42:20Z</time>
      </trkpt>
      <trkpt lat="40.48559" lon="-7.55782">
        <ele>1020.541</ele>
        <time>2019-10-17T23:42:40Z</time>
      </trkpt>
      <trkpt lat="40.48575" lon="-7.55863">
        <ele>1018.242</ele>
        <time>2019-10-17T23:43:00Z</time>
      </trkpt>
      <trkpt lat="40.48578" lon="-7.55933">
        <ele>1014.424</ele>
        <time>2019-10-17T23:43:20Z</time>
      </trkpt>
      <trkpt lat="40.4857" lon="-7.56018">
        <ele>1013.074</ele>
        <time>2019-10-17T23:43:40Z</time>
      </trkpt>
      <trkpt lat="40.48569" lon="-7.56049">
        <ele>1010.374</ele>
        <time>2019-10-17T23:44:00Z</time>
      </trkpt>
      <trkpt lat="40.48575" lon="-7.56122">
        <ele>1005.456</ele>
        <time>2019-10-17T23:44:20Z</time>
      </trkpt>
      <trkpt lat="40.48576" lon="-7.5618">
        <ele>1001.921</ele>
        <time>2019-10-17T23:44:40Z</time>
      </trkpt>
      <trkpt lat="40.48575" lon="-7.56216">
        <ele>1001.108</ele>
        <time>2019-10-17T23:45:00Z</time>
      </trkpt>
      <trkpt lat="40.48588" lon="-7.56263">
        <ele>1002.951</ele>
        <time>2019-10-17T23:45:20Z</time>
      </trkpt>
      <trkpt lat="40.48623" lon="-7.56288">
        <ele>999.269</ele>
        <time>2019-10-17T23:45:40Z</time>
      </trkpt>
      <trkpt lat="40.4868" lon="-7.56306">
        <ele>993.841</ele>
        <time>2019-10-17T23:46:00Z</time>
      </trkpt>
      <trkpt lat="40.48742" lon="-7.5635">
        <ele>993.441</ele>
        <time>2019-10-17T23:46:20Z</time>
      </trkpt>
      <trkpt lat="40.48763" lon="-7.56362">
        <ele>991.773</ele>
        <time>2019-10-17T23:46:40Z</time>
      </trkpt>
      <trkpt lat="40.48781" lon="-7.5639">
        <ele>989.044</ele>
        <time>2019-10-17T23:47:00Z</time>
      </trkpt>
      <trkpt lat="40.48783" lon="-7.56401">
        <ele>988.436</ele>
        <time>2019-10-17T23:47:20Z</time>
      </trkpt>
      <trkpt lat="40.48784" lon="-7.56412">
        <ele>988.266</ele>
        <time>2019-10-17T23:47:40Z</time>
      </trkpt>
      <trkpt lat="40.48785" lon="-7.56437">
        <ele>987.567</ele>
        <time>2019-10-17T23:48:00Z</time>
      </trkpt>
      <trkpt lat="40.48795" lon="-7.5649">
        <ele>982.181</ele>
        <time>2019-10-17T23:48:20Z</time>
      </trkpt>
      <trkpt lat="40.48808" lon="-7.56528">
        <ele>979.619</ele>
        <time>2019-10-17T23:48:40Z</time>
      </trkpt>
      <trkpt lat="40.48813" lon="-7.56541">
        <ele>978.408</ele>
        <time>2019-10-17T23:49:00Z</time>
      </trkpt>
      <trkpt lat="40.48843" lon="-7.56584">
        <ele>972.93</ele>
        <time>2019-10-17T23:49:20Z</time>
      </trkpt>
      <trkpt lat="40.48853" lon="-7.56592">
        <ele>971.498</ele>
        <time>2019-10-17T23:49:40Z</time>
      </trkpt>
      <trkpt lat="40.48907" lon="-7.56629">
        <ele>966.24</ele>
        <time>2019-10-17T23:50:00Z</time>
      </trkpt>
      <trkpt lat="40.48928" lon="-7.56645">
        <ele>964.46</ele>
        <time>2019-10-17T23:50:20Z</time>
      </trkpt>
      <trkpt lat="40.48969" lon="-7.56677">
        <ele>962.662</ele>
        <time>2019-10-17T23:50:40Z</time>
      </trkpt>
      <trkpt lat="40.49008" lon="-7.56705">
        <ele>960.333</ele>
        <time>2019-10-17T23:51:00Z</time>
      </trkpt>
      <trkpt lat="40.49074" lon="-7.56758">
        <ele>957.595</ele>
        <time>2019-10-17T23:51:20Z</time>
      </trkpt>
      <trkpt lat="40.49121" lon="-7.56782">
        <ele>954.745</ele>
        <time>2019-10-17T23:51:40Z</time>
      </trkpt>
      <trkpt lat="40.49143" lon="-7.5681">
        <ele>952.653</ele>
        <time>2019-10-17T23:52:00Z</time>
      </trkpt>
      <trkpt lat="40.49146" lon="-7.56819">
        <ele>951.604</ele>
        <time>2019-10-17T23:52:20Z</time>
      </trkpt>
      <trkpt lat="40.49155" lon="-7.56845">
        <ele>949.414</ele>
        <time>2019-10-17T23:52:40Z</time>
      </trkpt>
      <trkpt lat="40.49154" lon="-7.56865">
        <ele>948.408</ele>
        <time>2019-10-17T23:53:00Z</time>
      </trkpt>
      <trkpt lat="40.49136" lon="-7.5689">
        <ele>946.779</ele>
        <time>2019-10-17T23:53:20Z</time>
      </trkpt>
      <trkpt lat="40.49123" lon="-7.56904">
        <ele>945.037</ele>
        <time>2019-10-17T23:53:40Z</time>
      </trkpt>
      <trkpt lat="40.49122" lon="-7.56931">
        <ele>943.749</ele>
        <time>2019-10-17T23:54:00Z</time>
      </trkpt>
      <trkpt lat="40.49142" lon="-7.57006">
        <ele>940.749</ele>
        <time>2019-10-17T23:54:20Z</time>
      </trkpt>
      <trkpt lat="40.49146" lon="-7.5703">
        <ele>939.111</ele>
        <time>2019-10-17T23:54:40Z</time>
      </trkpt>
      <trkpt lat="40.49163" lon="-7.57073">
        <ele>937.212</ele>
        <time>2019-10-17T23:55:00Z</time>
      </trkpt>
      <trkpt lat="40.49166" lon="-7.57079">
        <ele>937.124</ele>
        <time>2019-10-17T23:55:20Z</time>
      </trkpt>
      <trkpt lat="40.49181" lon="-7.5716">
        <ele>934.324</ele>
        <time>2019-10-17T23:55:40Z</time>
      </trkpt>
      <trkpt lat="40.49183" lon="-7.57181">
        <ele>933.422</ele>
        <time>2019-10-17T23:56:00Z</time>
      </trkpt>
      <trkpt lat="40.49182" lon="-7.57195">
        <ele>932.762</ele>
        <time>2019-10-17T23:56:20Z</time>
      </trkpt>
      <trkpt lat="40.49187" lon="-7.57226">
        <ele>931.108</ele>
        <time>2019-10-17T23:56:40Z</time>
      </trkpt>
      <trkpt lat="40.49202" lon="-7.57249">
        <ele>929.308</ele>
        <time>2019-10-17T23:57:00Z</time>
      </trkpt>
      <trkpt lat="40.49248" lon="-7.57303">
        <ele>923.256</ele>
        <time>2019-10-17T23:57:20Z</time>
      </trkpt>
      <trkpt lat="40.49258" lon="-7.57319">
        <ele>921.794</ele>
        <time>2019-10-17T23:57:40Z</time>
      </trkpt>
      <trkpt lat="40.49269" lon="-7.57335">
        <ele>920.286</ele>
        <time>2019-10-17T23:58:00Z</time>
      </trkpt>
      <trkpt lat="40.49275" lon="-7.57343">
        <ele>919.446</ele>
        <time>2019-10-17T23:58:20Z</time>
      </trkpt>
      <trkpt lat="40.49296" lon="-7.57365">
        <ele>916.098</ele>
        <time>2019-10-17T23:58:40Z</time>
      </trkpt>
      <trkpt lat="40.49302" lon="-7.57376">
        <ele>914.839</ele>
        <time>2019-10-17T23:59:00Z</time>
      </trkpt>
      <trkpt lat="40.49324" lon="-7.57399">
        <ele>911.921</ele>
        <time>2019-10-17T23:59:20Z</time>
      </trkpt>
      <trkpt lat="40.49346" lon="-7.57413">
        <ele>909.841</ele>
        <time>2019-10-17T23:59:40Z</time>
      </trkpt>
      <trkpt lat="40.49355" lon="-7.57418">
        <ele>908.542</ele>
        <time>2019-10-18T00:00:00Z</time>
      </trkpt>
      <trkpt lat="40.49365" lon="-7.5742">
        <ele>907.322</ele>
        <time>2019-10-18T00:00:20Z</time>
      </trkpt>
      <trkpt lat="40.49377" lon="-7.5745">
        <ele>903.714</ele>
        <time>2019-10-18T00:00:40Z</time>
      </trkpt>
      <trkpt lat="40.49382" lon="-7.57459">
        <ele>902.008</ele>
        <time>2019-10-18T00:01:00Z</time>
      </trkpt>
      <trkpt lat="40.49401" lon="-7.57477">
        <ele>899.288</ele>
        <time>2019-10-18T00:01:20Z</time>
      </trkpt>
      <trkpt lat="40.49419" lon="-7.57499">
        <ele>897.026</ele>
        <time>2019-10-18T00:01:40Z</time>
      </trkpt>
      <trkpt lat="40.49426" lon="-7.57505">
        <ele>896.688</ele>
        <time>2019-10-18T00:02:00Z</time>
      </trkpt>
      <trkpt lat="40.49436" lon="-7.57548">
        <ele>895.878</ele>
        <time>2019-10-18T00:02:20Z</time>
      </trkpt>
      <trkpt lat="40.4943" lon="-7.57601">
        <ele>892.99</ele>
        <time>2019-10-18T00:02:40Z</time>
      </trkpt>
      <trkpt lat="40.49426" lon="-7.5763">
        <ele>890.891</ele>
        <time>2019-10-18T00:03:00Z</time>
      </trkpt>
      <trkpt lat="40.49424" lon="-7.57649">
        <ele>889.633</ele>
        <time>2019-10-18T00:03:20Z</time>
      </trkpt>
      <trkpt lat="40.49414" lon="-7.57669">
        <ele>887.663</ele>
        <time>2019-10-18T00:03:40Z</time>
      </trkpt>
      <trkpt lat="40.4941" lon="-7.57679">
        <ele>886.875</ele>
        <time>2019-10-18T00:04:00Z</time>
      </trkpt>
      <trkpt lat="40.49382" lon="-7.57729">
        <ele>885.328</ele>
        <time>2019-10-18T00:04:20Z</time>
      </trkpt>
      <trkpt lat="40.49375" lon="-7.57746">
        <ele>885.82</ele>
        <time>2019-10-18T00:04:40Z</time>
      </trkpt>
      <trkpt lat="40.4939" lon="-7.57759">
        <ele>887.408</ele>
        <time>2019-10-18T00:05:00Z</time>
      </trkpt>
      <trkpt lat="40.49394" lon="-7.57762">
        <ele>887.631</ele>
        <time>2019-10-18T00:05:20Z</time>
      </trkpt>
      <trkpt lat="40.49402" lon="-7.5777">
        <ele>888.039</ele>
        <time>2019-10-18T00:05:40Z</time>
      </trkpt>
      <trkpt lat="40.49435" lon="-7.57803">
        <ele>885.991</ele>
        <time>2019-10-18T00:06:00Z</time>
      </trkpt>
      <trkpt lat="40.49463" lon="-7.5783">
        <ele>882.481</ele>
        <time>2019-10-18T00:06:20Z</time>
      </trkpt>
      <trkpt lat="40.4947" lon="-7.57835">
        <ele>881.343</ele>
        <time>2019-10-18T00:06:40Z</time>
      </trkpt>
      <trkpt lat="40.49486" lon="-7.57851">
        <ele>879.434</ele>
        <time>2019-10-18T00:07:00Z</time>
      </trkpt>
      <trkpt lat="40.49494" lon="-7.57864">
        <ele>877.956</ele>
        <time>2019-10-18T00:07:20Z</time>
      </trkpt>
      <trkpt lat="40.49496" lon="-7.57895">
        <ele>872.576</ele>
        <time>2019-10-18T00:07:40Z</time>
      </trkpt>
      <trkpt lat="40.49491" lon="-7.57922">
        <ele>868.656</ele>
        <time>2019-10-18T00:08:00Z</time>
      </trkpt>
      <trkpt lat="40.49487" lon="-7.57938">
        <ele>866.259</ele>
        <time>2019-10-18T00:08:20Z</time>
      </trkpt>
      <trkpt lat="40.49476" lon="-7.57963">
        <ele>862.514</ele>
        <time>2019-10-18T00:08:40Z</time>
      </trkpt>
      <trkpt lat="40.49472" lon="-7.57979">
        <ele>860.208</ele>
        <time>2019-10-18T00:09:00Z</time>
      </trkpt>
      <trkpt lat="40.49466" lon="-7.58003">
        <ele>857.289</ele>
        <time>2019-10-18T00:09:20Z</time>
      </trkpt>
      <trkpt lat="40.49462" lon="-7.58023">
        <ele>853.747</ele>
        <time>2019-10-18T00:09:40Z</time>
      </trkpt>
      <trkpt lat="40.49462" lon="-7.58038">
        <ele>850.229</ele>
        <time>2019-10-18T00:10:00Z</time>
      </trkpt>
      <trkpt lat="40.49462" lon="-7.58045">
        <ele>848.459</ele>
        <time>2019-10-18T00:10:20Z</time>
      </trkpt>
      <trkpt lat="40.49462" lon="-7.58059">
        <ele>845.321</ele>
        <time>2019-10-18T00:10:40Z</time>
      </trkpt>
      <trkpt lat="40.49457" lon="-7.5807">
        <ele>844.482</ele>
        <time>2019-10-18T00:11:00Z</time>
      </trkpt>
      <trkpt lat="40.49456" lon="-7.58094">
        <ele>840.814</ele>
        <time>2019-10-18T00:11:20Z</time>
      </trkpt>
      <trkpt lat="40.49446" lon="-7.58115">
        <ele>839.014</ele>
        <time>2019-10-18T00:11:40Z</time>
      </trkpt>
      <trkpt lat="40.49437" lon="-7.58133">
        <ele>836.965</ele>
        <time>2019-10-18T00:12:00Z</time>
      </trkpt>
      <trkpt lat="40.49424" lon="-7.58146">
        <ele>836.768</ele>
        <time>2019-10-18T00:12:20Z</time>
      </trkpt>
      <trkpt lat="40.49415" lon="-7.5817">
        <ele>832.614</ele>
        <time>2019-10-18T00:12:40Z</time>
      </trkpt>
      <trkpt lat="40.49414" lon="-7.5818">
        <ele>830.308</ele>
        <time>2019-10-18T00:13:00Z</time>
      </trkpt>
      <trkpt lat="40.49419" lon="-7.58189">
        <ele>827.87</ele>
        <time>2019-10-18T00:13:20Z</time>
      </trkpt>
      <trkpt lat="40.49429" lon="-7.58205">
        <ele>822.628</ele>
        <time>2019-10-18T00:13:40Z</time>
      </trkpt>
      <trkpt lat="40.4944" lon="-7.58219">
        <ele>817.63</ele>
        <time>2019-10-18T00:14:00Z</time>
      </trkpt>
      <trkpt lat="40.49446" lon="-7.58225">
        <ele>815.47</ele>
        <time>2019-10-18T00:14:20Z</time>
      </trkpt>
      <trkpt lat="40.49453" lon="-7.58241">
        <ele>812.232</ele>
        <time>2019-10-18T00:14:40Z</time>
      </trkpt>
      <trkpt lat="40.4945" lon="-7.58255">
        <ele>810.693</ele>
        <time>2019-10-18T00:15:00Z</time>
      </trkpt>
      <trkpt lat="40.49435" lon="-7.58275">
        <ele>809.175</ele>
        <time>2019-10-18T00:15:20Z</time>
      </trkpt>
      <trkpt lat="40.49427" lon="-7.58287">
        <ele>807.275</ele>
        <time>2019-10-18T00:15:40Z</time>
      </trkpt>
      <trkpt lat="40.49413" lon="-7.58296">
        <ele>805.721</ele>
        <time>2019-10-18T00:16:00Z</time>
      </trkpt>
      <trkpt lat="40.49393" lon="-7.58315">
        <ele>802.841</ele>
        <time>2019-10-18T00:16:20Z</time>
      </trkpt>
      <trkpt lat="40.49389" lon="-7.58319">
        <ele>802.105</ele>
        <time>2019-10-18T00:16:40Z</time>
      </trkpt>
      <trkpt lat="40.49376" lon="-7.58346">
        <ele>799.608</ele>
        <time>2019-10-18T00:17:00Z</time>
      </trkpt>
      <trkpt lat="40.49357" lon="-7.5834">
        <ele>802.156</ele>
        <time>2019-10-18T00:17:20Z</time>
      </trkpt>
      <trkpt lat="40.49327" lon="-7.5833">
        <ele>804.124</ele>
        <time>2019-10-18T00:17:40Z</time>
      </trkpt>
      <trkpt lat="40.49319" lon="-7.58362">
        <ele>798.446</ele>
        <time>2019-10-18T00:18:00Z</time>
      </trkpt>
      <trkpt lat="40.49315" lon="-7.58396">
        <ele>793.426</ele>
        <time>2019-10-18T00:18:20Z</time>
      </trkpt>
      <trkpt lat="40.49311" lon="-7.58443">
        <ele>789.478</ele>
        <time>2019-10-18T00:18:40Z</time>
      </trkpt>
      <trkpt lat="40.49309" lon="-7.58465">
        <ele>788.499</ele>
        <time>2019-10-18T00:19:00Z</time>
      </trkpt>
      <trkpt lat="40.49306" lon="-7.58505">
        <ele>786.591</ele>
        <time>2019-10-18T00:19:20Z</time>
      </trkpt>
      <trkpt lat="40.49302" lon="-7.58541">
        <ele>781.561</ele>
        <time>2019-10-18T00:19:40Z</time>
      </trkpt>
      <trkpt lat="40.493" lon="-7.5855">
        <ele>780.093</ele>
        <time>2019-10-18T00:20:00Z</time>
      </trkpt>
      <trkpt lat="40.49292" lon="-7.58579">
        <ele>775.065</ele>
        <time>2019-10-18T00:20:20Z</time>
      </trkpt>
      <trkpt lat="40.49285" lon="-7.58602">
        <ele>771.821</ele>
        <time>2019-10-18T00:20:40Z</time>
      </trkpt>
      <trkpt lat="40.49281" lon="-7.58622">
        <ele>768.808</ele>
        <time>2019-10-18T00:21:00Z</time>
      </trkpt>
      <trkpt lat="40.49274" lon="-7.58653">
        <ele>763.493</ele>
        <time>2019-10-18T00:21:20Z</time>
      </trkpt>
      <trkpt lat="40.4927" lon="-7.58674">
        <ele>759.571</ele>
        <time>2019-10-18T00:21:40Z</time>
      </trkpt>
      <trkpt lat="40.49267" lon="-7.58697">
        <ele>755.683</ele>
        <time>2019-10-18T00:22:00Z</time>
      </trkpt>
      <trkpt lat="40.49265" lon="-7.58715">
        <ele>753.893</ele>
        <time>2019-10-18T00:22:20Z</time>
      </trkpt>
      <trkpt lat="40.49259" lon="-7.58741">
        <ele>751.375</ele>
        <time>2019-10-18T00:22:40Z</time>
      </trkpt>
      <trkpt lat="40.49252" lon="-7.58758">
        <ele>749.676</ele>
        <time>2019-10-18T00:23:00Z</time>
      </trkpt>
      <trkpt lat="40.49247" lon="-7.58765">
        <ele>748.728</ele>
        <time>2019-10-18T00:23:20Z</time>
      </trkpt>
      <trkpt lat="40.49227" lon="-7.58799">
        <ele>743.238</ele>
        <time>2019-10-18T00:23:40Z</time>
      </trkpt>
      <trkpt lat="40.49211" lon="-7.58825">
        <ele>738.173</ele>
        <time>2019-10-18T00:24:00Z</time>
      </trkpt>
      <trkpt lat="40.4921" lon="-7.58835">
        <ele>736.285</ele>
        <time>2019-10-18T00:24:20Z</time>
      </trkpt>
      <trkpt lat="40.49222" lon="-7.58845">
        <ele>734.413</ele>
        <time>2019-10-18T00:24:40Z</time>
      </trkpt>
      <trkpt lat="40.49231" lon="-7.58852">
        <ele>733.308</ele>
        <time>2019-10-18T00:25:00Z</time>
      </trkpt>
      <trkpt lat="40.49246" lon="-7.58877">
        <ele>729.431</ele>
        <time>2019-10-18T00:25:20Z</time>
      </trkpt>
      <trkpt lat="40.49247" lon="-7.58885">
        <ele>728.359</ele>
        <time>2019-10-18T00:25:40Z</time>
      </trkpt>
      <trkpt lat="40.49248" lon="-7.58913">
        <ele>725.281</ele>
        <time>2019-10-18T00:26:00Z</time>
      </trkpt>
      <trkpt lat="40.4926" lon="-7.58947">
        <ele>718.871</ele>
        <time>2019-10-18T00:26:20Z</time>
      </trkpt>
      <trkpt lat="40.49274" lon="-7.58958">
        <ele>716.573</ele>
        <time>2019-10-18T00:26:40Z</time>
      </trkpt>
      <trkpt lat="40.49305" lon="-7.58975">
        <ele>713.194</ele>
        <time>2019-10-18T00:27:00Z</time>
      </trkpt>
      <trkpt lat="40.49328" lon="-7.58986">
        <ele>710.196</ele>
        <time>2019-10-18T00:27:20Z</time>
      </trkpt>
      <trkpt lat="40.49352" lon="-7.58996">
        <ele>707.856</ele>
        <time>2019-10-18T00:27:40Z</time>
      </trkpt>
      <trkpt lat="40.49369" lon="-7.58999">
        <ele>706.984</ele>
        <time>2019-10-18T00:28:00Z</time>
      </trkpt>
      <trkpt lat="40.49383" lon="-7.59">
        <ele>706.207</ele>
        <time>2019-10-18T00:28:20Z</time>
      </trkpt>
      <trkpt lat="40.49441" lon="-7.58969">
        <ele>701.817</ele>
        <time>2019-10-18T00:28:40Z</time>
      </trkpt>
      <trkpt lat="40.49461" lon="-7.58958">
        <ele>700.508</ele>
        <time>2019-10-18T00:29:00Z</time>
      </trkpt>
      <trkpt lat="40.49484" lon="-7.58976">
        <ele>698.152</ele>
        <time>2019-10-18T00:29:20Z</time>
      </trkpt>
      <trkpt lat="40.49501" lon="-7.59002">
        <ele>695.77</ele>
        <time>2019-10-18T00:29:40Z</time>
      </trkpt>
      <trkpt lat="40.49511" lon="-7.59018">
        <ele>693.042</ele>
        <time>2019-10-18T00:30:00Z</time>
      </trkpt>
      <trkpt lat="40.49524" lon="-7.59038">
        <ele>689.122</ele>
        <time>2019-10-18T00:30:20Z</time>
      </trkpt>
      <trkpt lat="40.49542" lon="-7.59066">
        <ele>684.784</ele>
        <time>2019-10-18T00:30:40Z</time>
      </trkpt>
      <trkpt lat="40.49546" lon="-7.59072">
        <ele>684.155</ele>
        <time>2019-10-18T00:31:00Z</time>
      </trkpt>
      <trkpt lat="40.49555" lon="-7.59087">
        <ele>682.787</ele>
        <time>2019-10-18T00:31:20Z</time>
      </trkpt>
      <trkpt lat="40.49561" lon="-7.59098">
        <ele>682.347</ele>
        <time>2019-10-18T00:31:40Z</time>
      </trkpt>
      <trkpt lat="40.49569" lon="-7.59113">
        <ele>681.457</ele>
        <time>2019-10-18T00:32:00Z</time>
      </trkpt>
      <trkpt lat="40.49564" lon="-7.59123">
        <ele>680.5</ele>
        <time>2019-10-18T00:32:20Z</time>
      </trkpt>
      <trkpt lat="40.49524" lon="-7.59163">
        <ele>676.42</ele>
        <time>2019-10-18T00:32:40Z</time>
      </trkpt>
      <trkpt lat="40.49475" lon="-7.59198">
        <ele>674.508</ele>
        <time>2019-10-18T00:33:00Z</time>
      </trkpt>
      <trkpt lat="40.49451" lon="-7.59234">
        <ele>673.949</ele>
        <time>2019-10-18T00:33:20Z</time>
      </trkpt>
      <trkpt lat="40.49438" lon="-7.59262">
        <ele>673.787</ele>
        <time>2019-10-18T00:33:40Z</time>
      </trkpt>
      <trkpt lat="40.49404" lon="-7.5928">
        <ele>673.279</ele>
        <time>2019-10-18T00:34:00Z</time>
      </trkpt>
      <trkpt lat="40.49377" lon="-7.59304">
        <ele>671.769</ele>
        <time>2019-10-18T00:34:20Z</time>
      </trkpt>
      <trkpt lat="40.49351" lon="-7.59313">
        <ele>668.491</ele>
        <time>2019-10-18T00:34:40Z</time>
      </trkpt>
      <trkpt lat="40.49328" lon="-7.59322">
        <ele>664.612</ele>
        <time>2019-10-18T00:35:00Z</time>
      </trkpt>
      <trkpt lat="40.49322" lon="-7.59326">
        <ele>663.434</ele>
        <time>2019-10-18T00:35:20Z</time>
      </trkpt>
      <trkpt lat="40.49315" lon="-7.5935">
        <ele>660.774</ele>
        <time>2019-10-18T00:35:40Z</time>
      </trkpt>
      <trkpt lat="40.49315" lon="-7.5936">
        <ele>660.162</ele>
        <time>2019-10-18T00:36:00Z</time>
      </trkpt>
      <trkpt lat="40.49311" lon="-7.59384">
        <ele>658.483</ele>
        <time>2019-10-18T00:36:20Z</time>
      </trkpt>
      <trkpt lat="40.49308" lon="-7.59402">
        <ele>657.111</ele>
        <time>2019-10-18T00:36:40Z</time>
      </trkpt>
      <trkpt lat="40.49285" lon="-7.59416">
        <ele>654.508</ele>
        <time>2019-10-18T00:37:00Z</time>
      </trkpt>
      <trkpt lat="40.49279" lon="-7.59422">
        <ele>653.95</ele>
        <time>2019-10-18T00:37:20Z</time>
      </trkpt>
      <trkpt lat="40.49262" lon="-7.5949">
        <ele>655.218</ele>
        <time>2019-10-18T00:37:40Z</time>
      </trkpt>
      <trkpt lat="40.4926" lon="-7.595">
        <ele>655.77</ele>
        <time>2019-10-18T00:38:00Z</time>
      </trkpt>
      <trkpt lat="40.49275" lon="-7.59548">
        <ele>653.24</ele>
        <time>2019-10-18T00:38:20Z</time>
      </trkpt>
      <trkpt lat="40.49312" lon="-7.59557">
        <ele>648.032</ele>
        <time>2019-10-18T00:38:40Z</time>
      </trkpt>
      <trkpt lat="40.49343" lon="-7.5958">
        <ele>641.653</ele>
        <time>2019-10-18T00:39:00Z</time>
      </trkpt>
      <trkpt lat="40.49338" lon="-7.59615">
        <ele>639.425</ele>
        <time>2019-10-18T00:39:20Z</time>
      </trkpt>
      <trkpt lat="40.49315" lon="-7.59662">
        <ele>637.535</ele>
        <time>2019-10-18T00:39:40Z</time>
      </trkpt>
      <trkpt lat="40.49298" lon="-7.59703">
        <ele>636.566</ele>
        <time>2019-10-18T00:40:00Z</time>
      </trkpt>
      <trkpt lat="40.49276" lon="-7.59762">
        <ele>630.929</ele>
        <time>2019-10-18T00:40:20Z</time>
      </trkpt>
      <trkpt lat="40.49259" lon="-7.59813">
        <ele>628.521</ele>
        <time>2019-10-18T00:40:40Z</time>
      </trkpt>
      <trkpt lat="40.49241" lon="-7.59865">
        <ele>627.308</ele>
        <time>2019-10-18T00:41:00Z</time>
      </trkpt>
      <trkpt lat="40.49233" lon="-7.59905">
        <ele>623.89</ele>
        <time>2019-10-18T00:41:20Z</time>
      </trkpt>
      <trkpt lat="40.49239" lon="-7.59957">
        <ele>619.028</ele>
        <time>2019-10-18T00:41:40Z</time>
      </trkpt>
      <trkpt lat="40.49256" lon="-7.59987">
        <ele>616.26</ele>
        <time>2019-10-18T00:42:00Z</time>
      </trkpt>
      <trkpt lat="40.49275" lon="-7.60008">
        <ele>614.52</ele>
        <time>2019-10-18T00:42:20Z</time>
      </trkpt>
      <trkpt lat="40.49296" lon="-7.60022">
        <ele>613.352</ele>
        <time>2019-10-18T00:42:40Z</time>
      </trkpt>
      <trkpt lat="40.49337" lon="-7.60047">
        <ele>609.093</ele>
        <time>2019-10-18T00:43:00Z</time>
      </trkpt>
      <trkpt lat="40.49345" lon="-7.60054">
        <ele>607.875</ele>
        <time>2019-10-18T00:43:20Z</time>
      </trkpt>
      <trkpt lat="40.49381" lon="-7.60081">
        <ele>604.485</ele>
        <time>2019-10-18T00:43:40Z</time>
      </trkpt>
      <trkpt lat="40.49418" lon="-7.60107">
        <ele>601.967</ele>
        <time>2019-10-18T00:44:00Z</time>
      </trkpt>
      <trkpt lat="40.49451" lon="-7.60131">
        <ele>600.881</ele>
        <time>2019-10-18T00:44:20Z</time>
      </trkpt>
      <trkpt lat="40.49457" lon="-7.60135">
        <ele>600.619</ele>
        <time>2019-10-18T00:44:40Z</time>
      </trkpt>
      <trkpt lat="40.49462" lon="-7.60142">
        <ele>600.208</ele>
        <time>2019-10-18T00:45:00Z</time>
      </trkpt>
      <trkpt lat="40.49472" lon="-7.6015">
        <ele>599.25</ele>
        <time>2019-10-18T00:45:20Z</time>
      </trkpt>
      <trkpt lat="40.49466" lon="-7.60152">
        <ele>599.318</ele>
        <time>2019-10-18T00:45:40Z</time>
      </trkpt>
      <trkpt lat="40.49459" lon="-7.60155">
        <ele>599.34</ele>
        <time>2019-10-18T00:46:00Z</time>
      </trkpt>
      <trkpt lat="40.49459" lon="-7.60165">
        <ele>598.68</ele>
        <time>2019-10-18T00:46:20Z</time>
      </trkpt>
      <trkpt lat="40.49468" lon="-7.6019">
        <ele>596.572</ele>
        <time>2019-10-18T00:46:40Z</time>
      </trkpt>
      <trkpt lat="40.49485" lon="-7.60216">
        <ele>596.173</ele>
        <time>2019-10-18T00:47:00Z</time>
      </trkpt>
      <trkpt lat="40.49509" lon="-7.60249">
        <ele>594.745</ele>
        <time>2019-10-18T00:47:20Z</time>
      </trkpt>
      <trkpt lat="40.49536" lon="-7.60323">
        <ele>591.095</ele>
        <time>2019-10-18T00:47:40Z</time>
      </trkpt>
      <trkpt lat="40.49539" lon="-7.60361">
        <ele>590.433</ele>
        <time>2019-10-18T00:48:00Z</time>
      </trkpt>
      <trkpt lat="40.49537" lon="-7.60387">
        <ele>589.423</ele>
        <time>2019-10-18T00:48:20Z</time>
      </trkpt>
      <trkpt lat="40.49541" lon="-7.60411">
        <ele>588.715</ele>
        <time>2019-10-18T00:48:40Z</time>
      </trkpt>
      <trkpt lat="40.49546" lon="-7.60428">
        <ele>588.808</ele>
        <time>2019-10-18T00:49:00Z</time>
      </trkpt>
      <trkpt lat="40.4954" lon="-7.60464">
        <ele>589.067</ele>
        <time>2019-10-18T00:49:20Z</time>
      </trkpt>
      <trkpt lat="40.49536" lon="-7.60468">
        <ele>589.025</ele>
        <time>2019-10-18T00:49:40Z</time>
      </trkpt>
      <trkpt lat="40.49518" lon="-7.60503">
        <ele>588.257</ele>
        <time>2019-10-18T00:50:00Z</time>
      </trkpt>
      <trkpt lat="40.49495" lon="-7.60565">
        <ele>587.427</ele>
        <time>2019-10-18T00:50:20Z</time>
      </trkpt>
      <trkpt lat="40.49505" lon="-7.60599">
        <ele>586.459</ele>
        <time>2019-10-18T00:50:40Z</time>
      </trkpt>
      <trkpt lat="40.49545" lon="-7.60648">
        <ele>583.08</ele>
        <time>2019-10-18T00:51:00Z</time>
      </trkpt>
      <trkpt lat="40.49554" lon="-7.6068">
        <ele>580.652</ele>
        <time>2019-10-18T00:51:20Z</time>
      </trkpt>
      <trkpt lat="40.49557" lon="-7.60736">
        <ele>579.472</ele>
        <time>2019-10-18T00:51:40Z</time>
      </trkpt>
      <trkpt lat="40.49567" lon="-7.60784">
        <ele>577.912</ele>
        <time>2019-10-18T00:52:00Z</time>
      </trkpt>
      <trkpt lat="40.4957" lon="-7.60792">
        <ele>577.532</ele>
        <time>2019-10-18T00:52:20Z</time>
      </trkpt>
      <trkpt lat="40.49627" lon="-7.60901">
        <ele>571.705</ele>
        <time>2019-10-18T00:52:40Z</time>
      </trkpt>
      <trkpt lat="40.49661" lon="-7.6094">
        <ele>569.308</ele>
        <time>2019-10-18T00:53:00Z</time>
      </trkpt>
      <trkpt lat="40.49676" lon="-7.60974">
        <ele>568.315</ele>
        <time>2019-10-18T00:53:20Z</time>
      </trkpt>
      <trkpt lat="40.49721" lon="-7.61027">
        <ele>567.023</ele>
        <time>2019-10-18T00:53:40Z</time>
      </trkpt>
      <trkpt lat="40.49856" lon="-7.61151">
        <ele>563.625</ele>
        <time>2019-10-18T00:54:00Z</time>
      </trkpt>
      <trkpt lat="40.49776" lon="-7.6142">
        <ele>557.675</ele>
        <time>2019-10-18T00:54:20Z</time>
      </trkpt>
      <trkpt lat="40.49873" lon="-7.61579">
        <ele>549.337</ele>
        <time>2019-10-18T00:54:40Z</time>
      </trkpt>
      <trkpt lat="40.50043" lon="-7.61581">
        <ele>526.358</ele>
        <time>2019-10-18T00:55:00Z</time>
      </trkpt>
      <trkpt lat="40.50067" lon="-7.61557">
        <ele>524.24</ele>
        <time>2019-10-18T00:55:20Z</time>
      </trkpt>
      <trkpt lat="40.50087" lon="-7.61568">
        <ele>522.83</ele>
        <time>2019-10-18T00:55:40Z</time>
      </trkpt>
      <trkpt lat="40.50066" lon="-7.61726">
        <ele>520.222</ele>
        <time>2019-10-18T00:56:00Z</time>
      </trkpt>
      <trkpt lat="40.49797" lon="-7.62059">
        <ele>521.262</ele>
        <time>2019-10-18T00:56:20Z</time>
      </trkpt>
      <trkpt lat="40.49695" lon="-7.62223">
        <ele>523.008</ele>
        <time>2019-10-18T00:56:40Z</time>
      </trkpt>
      <trkpt lat="40.49684" lon="-7.62303">
        <ele>522.508</ele>
        <time>2019-10-18T00:57:00Z</time>
      </trkpt>
      <trkpt lat="40.49687" lon="-7.624">
        <ele>521.296</ele>
        <time>2019-10-18T00:57:20Z</time>
      </trkpt>
      <trkpt lat="40.49686" lon="-7.6242">
        <ele>520.934</ele>
        <time>2019-10-18T00:57:40Z</time>
      </trkpt>
      <trkpt lat="40.49667" lon="-7.62474">
        <ele>520.096</ele>
        <time>2019-10-18T00:58:00Z</time>
      </trkpt>
      <trkpt lat="40.4966" lon="-7.62489">
        <ele>520.076</ele>
        <time>2019-10-18T00:58:20Z</time>
      </trkpt>
      <trkpt lat="40.49649" lon="-7.62506">
        <ele>519.968</ele>
        <time>2019-10-18T00:58:40Z</time>
      </trkpt>
      <trkpt lat="40.4958" lon="-7.62581">
        <ele>518.839</ele>
        <time>2019-10-18T00:59:00Z</time>
      </trkpt>
      <trkpt lat="40.49536" lon="-7.6264">
        <ele>519.361</ele>
        <time>2019-10-18T00:59:20Z</time>
      </trkpt>
      <trkpt lat="40.4954" lon="-7.62708">
        <ele>518.931</ele>
        <time>2019-10-18T00:59:40Z</time>
      </trkpt>
      <trkpt lat="40.49551" lon="-7.62748">
        <ele>519.742</ele>
        <time>2019-10-18T01:00:00Z</time>
      </trkpt>
      <trkpt lat="40.49561" lon="-7.62803">
        <ele>519.122</ele>
        <time>2019-10-18T01:00:20Z</time>
      </trkpt>
      <trkpt lat="40.49575" lon="-7.62837">
        <ele>519.014</ele>
        <time>2019-10-18T01:00:40Z</time>
      </trkpt>
      <trkpt lat="40.49575" lon="-7.62859">
        <ele>518.708</ele>
        <time>2019-10-18T01:01:00Z</time>
      </trkpt>
      <trkpt lat="40.49578" lon="-7.6288">
        <ele>517.418</ele>
        <time>2019-10-18T01:01:20Z</time>
      </trkpt>
      <trkpt lat="40.49578" lon="-7.62924">
        <ele>515.676</ele>
        <time>2019-10-18T01:01:40Z</time>
      </trkpt>
      <trkpt lat="40.49575" lon="-7.62946">
        <ele>515.068</ele>
        <time>2019-10-18T01:02:00Z</time>
      </trkpt>
      <trkpt lat="40.49573" lon="-7.62963">
        <ele>514.398</ele>
        <time>2019-10-18T01:02:20Z</time>
      </trkpt>
      <trkpt lat="40.49559" lon="-7.63029">
        <ele>511.85</ele>
        <time>2019-10-18T01:02:40Z</time>
      </trkpt>
      <trkpt lat="40.4955" lon="-7.63063">
        <ele>510.371</ele>
        <time>2019-10-18T01:03:00Z</time>
      </trkpt>
      <trkpt lat="40.49525" lon="-7.63135">
        <ele>507.123</ele>
        <time>2019-10-18T01:03:20Z</time>
      </trkpt>
      <trkpt lat="40.49495" lon="-7.632">
        <ele>503.023</ele>
        <time>2019-10-18T01:03:40Z</time>
      </trkpt>
      <trkpt lat="40.4949" lon="-7.63247">
        <ele>502.476</ele>
        <time>2019-10-18T01:04:00Z</time>
      </trkpt>
      <trkpt lat="40.49486" lon="-7.63313">
        <ele>504.29</ele>
        <time>2019-10-18T01:04:20Z</time>
      </trkpt>
      <trkpt lat="40.4949" lon="-7.63375">
        <ele>503.419</ele>
        <time>2019-10-18T01:04:40Z</time>
      </trkpt>
      <trkpt lat="40.49493" lon="-7.63401">
        <ele>502.808</ele>
        <time>2019-10-18T01:05:00Z</time>
      </trkpt>
      <trkpt lat="40.49495" lon="-7.63426">
        <ele>502.381</ele>
        <time>2019-10-18T01:05:20Z</time>
      </trkpt>
      <trkpt lat="40.49488" lon="-7.63523">
        <ele>498.539</ele>
        <time>2019-10-18T01:05:40Z</time>
      </trkpt>
      <trkpt lat="40.49487" lon="-7.63529">
        <ele>498.411</ele>
        <time>2019-10-18T01:06:00Z</time>
      </trkpt>
      <trkpt lat="40.49451" lon="-7.6363">
        <ele>495.941</ele>
        <time>2019-10-18T01:06:20Z</time>
      </trkpt>
      <trkpt lat="40.4944" lon="-7.63663">
        <ele>494.443</ele>
        <time>2019-10-18T01:06:40Z</time>
      </trkpt>
      <trkpt lat="40.4944" lon="-7.63681">
        <ele>494.594</ele>
        <time>2019-10-18T01:07:00Z</time>
      </trkpt>
      <trkpt lat="40.49449" lon="-7.637">
        <ele>494.566</ele>
        <time>2019-10-18T01:07:20Z</time>
      </trkpt>
      <trkpt lat="40.49449" lon="-7.63721">
        <ele>493.926</ele>
        <time>2019-10-18T01:07:40Z</time>
      </trkpt>
      <trkpt lat="40.4945" lon="-7.63736">
        <ele>493.718</ele>
        <time>2019-10-18T01:08:00Z</time>
      </trkpt>
      <trkpt lat="40.49493" lon="-7.638">
        <ele>490.298</ele>
        <time>2019-10-18T01:08:20Z</time>
      </trkpt>
      <trkpt lat="40.49507" lon="-7.63816">
        <ele>490.217</ele>
        <time>2019-10-18T01:08:40Z</time>
      </trkpt>
      <trkpt lat="40.49539" lon="-7.63902">
        <ele>489.408</ele>
        <time>2019-10-18T01:09:00Z</time>
      </trkpt>
      <trkpt lat="40.49578" lon="-7.64031">
        <ele>484.675</ele>
        <time>2019-10-18T01:09:20Z</time>
      </trkpt>
      <trkpt lat="40.49628" lon="-7.6415">
        <ele>479.853</ele>
        <time>2019-10-18T01:09:40Z</time>
      </trkpt>
      <trkpt lat="40.49677" lon="-7.6427">
        <ele>479.335</ele>
        <time>2019-10-18T01:10:00Z</time>
      </trkpt>
      <trkpt lat="40.49711" lon="-7.64355">
        <ele>477.515</ele>
        <time>2019-10-18T01:10:20Z</time>
      </trkpt>
      <trkpt lat="40.49741" lon="-7.64455">
        <ele>475.017</ele>
        <time>2019-10-18T01:10:40Z</time>
      </trkpt>
      <trkpt lat="40.49745" lon="-7.64475">
        <ele>475.018</ele>
        <time>2019-10-18T01:11:00Z</time>
      </trkpt>
      <trkpt lat="40.49749" lon="-7.64525">
        <ele>475.06</ele>
        <time>2019-10-18T01:11:20Z</time>
      </trkpt>
      <trkpt lat="40.49773" lon="-7.64555">
        <ele>473.26</ele>
        <time>2019-10-18T01:11:40Z</time>
      </trkpt>
      <trkpt lat="40.49776" lon="-7.6456">
        <ele>472.983</ele>
        <time>2019-10-18T01:12:00Z</time>
      </trkpt>
      <trkpt lat="40.49786" lon="-7.6459">
        <ele>471.725</ele>
        <time>2019-10-18T01:12:20Z</time>
      </trkpt>
      <trkpt lat="40.4979" lon="-7.64608">
        <ele>471.217</ele>
        <time>2019-10-18T01:12:40Z</time>
      </trkpt>
      <trkpt lat="40.49793" lon="-7.64642">
        <ele>469.808</ele>
        <time>2019-10-18T01:13:00Z</time>
      </trkpt>
      <trkpt lat="40.49796" lon="-7.64661">
        <ele>468.442</ele>
        <time>2019-10-18T01:13:20Z</time>
      </trkpt>
      <trkpt lat="40.49804" lon="-7.64671">
        <ele>467.51</ele>
        <time>2019-10-18T01:13:40Z</time>
      </trkpt>
      <trkpt lat="40.49846" lon="-7.64692">
        <ele>465.142</ele>
        <time>2019-10-18T01:14:00Z</time>
      </trkpt>
      <trkpt lat="40.49882" lon="-7.64702">
        <ele>464.942</ele>
        <time>2019-10-18T01:14:20Z</time>
      </trkpt>
      <trkpt lat="40.49905" lon="-7.64722">
        <ele>465.674</ele>
        <time>2019-10-18T01:14:40Z</time>
      </trkpt>
      <trkpt lat="40.49933" lon="-7.64785">
        <ele>462.795</ele>
        <time>2019-10-18T01:15:00Z</time>
      </trkpt>
      <trkpt lat="40.49946" lon="-7.64806">
        <ele>461.927</ele>
        <time>2019-10-18T01:15:20Z</time>
      </trkpt>
      <trkpt lat="40.49981" lon="-7.64817">
        <ele>459.477</ele>
        <time>2019-10-18T01:15:40Z</time>
      </trkpt>
      <trkpt lat="40.50004" lon="-7.64815">
        <ele>458.092</ele>
        <time>2019-10-18T01:16:00Z</time>
      </trkpt>
      <trkpt lat="40.5002" lon="-7.64814">
        <ele>456.473</ele>
        <time>2019-10-18T01:16:20Z</time>
      </trkpt>
      <trkpt lat="40.50043" lon="-7.64819">
        <ele>454.72</ele>
        <time>2019-10-18T01:16:40Z</time>
      </trkpt>
      <trkpt lat="40.50064" lon="-7.64835">
        <ele>453.708</ele>
        <time>2019-10-18T01:17:00Z</time>
      </trkpt>
      <trkpt lat="40.50095" lon="-7.6488">
        <ele>452.533</ele>
        <time>2019-10-18T01:17:20Z</time>
      </trkpt>
      <trkpt lat="40.50109" lon="-7.64908">
        <ele>452.791</ele>
        <time>2019-10-18T01:17:40Z</time>
      </trkpt>
      <trkpt lat="40.50156" lon="-7.64946">
        <ele>450.413</ele>
        <time>2019-10-18T01:18:00Z</time>
      </trkpt>
      <trkpt lat="40.50164" lon="-7.64962">
        <ele>450.163</ele>
        <time>2019-10-18T01:18:20Z</time>
      </trkpt>
      <trkpt lat="40.50183" lon="-7.64974">
        <ele>448.155</ele>
        <time>2019-10-18T01:18:40Z</time>
      </trkpt>
      <trkpt lat="40.50217" lon="-7.64984">
        <ele>442.916</ele>
        <time>2019-10-18T01:19:00Z</time>
      </trkpt>
      <trkpt lat="40.50246" lon="-7.64998">
        <ele>436.878</ele>
        <time>2019-10-18T01:19:20Z</time>
      </trkpt>
      <trkpt lat="40.50271" lon="-7.65023">
        <ele>433.078</ele>
        <time>2019-10-18T01:19:40Z</time>
      </trkpt>
      <trkpt lat="40.50296" lon="-7.65018">
        <ele>429.628</ele>
        <time>2019-10-18T01:20:00Z</time>
      </trkpt>
      <trkpt lat="40.50364" lon="-7.64977">
        <ele>435.389</ele>
        <time>2019-10-18T01:20:20Z</time>
      </trkpt>
      <trkpt lat="40.50392" lon="-7.64961">
        <ele>438.817</ele>
        <time>2019-10-18T01:20:40Z</time>
      </trkpt>
      <trkpt lat="40.50401" lon="-7.64971">
        <ele>438.508</ele>
        <time>2019-10-18T01:21:00Z</time>
      </trkpt>
      <trkpt lat="40.50408" lon="-7.65">
        <ele>436.146</ele>
        <time>2019-10-18T01:21:20Z</time>
      </trkpt>
      <trkpt lat="40.50425" lon="-7.65063">
        <ele>431.484</ele>
        <time>2019-10-18T01:21:40Z</time>
      </trkpt>
      <trkpt lat="40.50441" lon="-7.6509">
        <ele>431.046</ele>
        <time>2019-10-18T01:22:00Z</time>
      </trkpt>
      <trkpt lat="40.50473" lon="-7.65123">
        <ele>429.526</ele>
        <time>2019-10-18T01:22:20Z</time>
      </trkpt>
      <trkpt lat="40.50517" lon="-7.65163">
        <ele>425.998</ele>
        <time>2019-10-18T01:22:40Z</time>
      </trkpt>
      <trkpt lat="40.50557" lon="-7.65199">
        <ele>424.189</ele>
        <time>2019-10-18T01:23:00Z</time>
      </trkpt>
      <trkpt lat="40.50575" lon="-7.65207">
        <ele>423.491</ele>
        <time>2019-10-18T01:23:20Z</time>
      </trkpt>
      <trkpt lat="40.50603" lon="-7.65207">
        <ele>421.641</ele>
        <time>2019-10-18T01:23:40Z</time>
      </trkpt>
      <trkpt lat="40.50672" lon="-7.65203">
        <ele>421.966</ele>
        <time>2019-10-18T01:24:00Z</time>
      </trkpt>
      <trkpt lat="40.50705" lon="-7.65218">
        <ele>423.629</ele>
        <time>2019-10-18T01:24:20Z</time>
      </trkpt>
      <trkpt lat="40.50738" lon="-7.6524">
        <ele>426.821</ele>
        <time>2019-10-18T01:24:40Z</time>
      </trkpt>
      <trkpt lat="40.50766" lon="-7.65267">
        <ele>430.308</ele>
        <time>2019-10-18T01:25:00Z</time>
      </trkpt>
      <trkpt lat="40.50783" lon="-7.65294">
        <ele>433.11</ele>
        <time>2019-10-18T01:25:20Z</time>
      </trkpt>
      <trkpt lat="40.50801" lon="-7.6533">
        <ele>435.538</ele>
        <time>2019-10-18T01:25:40Z</time>
      </trkpt>
      <trkpt lat="40.5081" lon="-7.65373">
        <ele>438.46</ele>
        <time>2019-10-18T01:26:00Z</time>
      </trkpt>
      <trkpt lat="40.50818" lon="-7.65414">
        <ele>440.49</ele>
        <time>2019-10-18T01:26:20Z</time>
      </trkpt>
      <trkpt lat="40.50826" lon="-7.65468">
        <ele>439.482</ele>
        <time>2019-10-18T01:26:40Z</time>
      </trkpt>
      <trkpt lat="40.50834" lon="-7.65505">
        <ele>437.853</ele>
        <time>2019-10-18T01:27:00Z</time>
      </trkpt>
      <trkpt lat="40.5084" lon="-7.65526">
        <ele>436.645</ele>
        <time>2019-10-18T01:27:20Z</time>
      </trkpt>
      <trkpt lat="40.50844" lon="-7.65537">
        <ele>436.315</ele>
        <time>2019-10-18T01:27:40Z</time>
      </trkpt>
      <trkpt lat="40.50873" lon="-7.65603">
        <ele>431.983</ele>
        <time>2019-10-18T01:28:00Z</time>
      </trkpt>
      <trkpt lat="40.50876" lon="-7.65609">
        <ele>431.625</ele>
        <time>2019-10-18T01:28:20Z</time>
      </trkpt>
      <trkpt lat="40.50885" lon="-7.65623">
        <ele>430.317</ele>
        <time>2019-10-18T01:28:40Z</time>
      </trkpt>
      <trkpt lat="40.50901" lon="-7.65646">
        <ele>428.008</ele>
        <time>2019-10-18T01:29:00Z</time>
      </trkpt>
      <trkpt lat="40.5092" lon="-7.65674">
        <ele>426.522</ele>
        <time>2019-10-18T01:29:20Z</time>
      </trkpt>
      <trkpt lat="40.50926" lon="-7.65685">
        <ele>425.97</ele>
        <time>2019-10-18T01:29:40Z</time>
      </trkpt>
      <trkpt lat="40.50938" lon="-7.6571">
        <ele>424.852</ele>
        <time>2019-10-18T01:30:00Z</time>
      </trkpt>
      <trkpt lat="40.50945" lon="-7.65728">
        <ele>423.732</ele>
        <time>2019-10-18T01:30:20Z</time>
      </trkpt>
      <trkpt lat="40.50962" lon="-7.65768">
        <ele>420.294</ele>
        <time>2019-10-18T01:30:40Z</time>
      </trkpt>
      <trkpt lat="40.50973" lon="-7.65789">
        <ele>418.625</ele>
        <time>2019-10-18T01:31:00Z</time>
      </trkpt>
      <trkpt lat="40.50989" lon="-7.65807">
        <ele>416.147</ele>
        <time>2019-10-18T01:31:20Z</time>
      </trkpt>
      <trkpt lat="40.50995" lon="-7.65815">
        <ele>415.177</ele>
        <time>2019-10-18T01:31:40Z</time>
      </trkpt>
      <trkpt lat="40.51002" lon="-7.65839">
        <ele>413.952</ele>
        <time>2019-10-18T01:32:00Z</time>
      </trkpt>
      <trkpt lat="40.50984" lon="-7.65922">
        <ele>410.653</ele>
        <time>2019-10-18T01:32:20Z</time>
      </trkpt>
      <trkpt lat="40.50981" lon="-7.65929">
        <ele>410.108</ele>
        <time>2019-10-18T01:32:40Z</time>
      </trkpt>
      <trkpt lat="40.50973" lon="-7.65981">
        <ele>407.608</ele>
        <time>2019-10-18T01:33:00Z</time>
      </trkpt>
      <trkpt lat="40.51001" lon="-7.66078">
        <ele>407.879</ele>
        <time>2019-10-18T01:33:20Z</time>
      </trkpt>
      <trkpt lat="40.51011" lon="-7.66115">
        <ele>412.117</ele>
        <time>2019-10-18T01:33:40Z</time>
      </trkpt>
      <trkpt lat="40.51018" lon="-7.66146">
        <ele>414.159</ele>
        <time>2019-10-18T01:34:00Z</time>
      </trkpt>
      <trkpt lat="40.51028" lon="-7.66173">
        <ele>416.499</ele>
        <time>2019-10-18T01:34:20Z</time>
      </trkpt>
      <trkpt lat="40.51032" lon="-7.66202">
        <ele>419.441</ele>
        <time>2019-10-18T01:34:40Z</time>
      </trkpt>
      <trkpt lat="40.51033" lon="-7.66222">
        <ele>421.782</ele>
        <time>2019-10-18T01:35:00Z</time>
      </trkpt>
      <trkpt lat="40.51" lon="-7.66312">
        <ele>423.354</ele>
        <time>2019-10-18T01:35:20Z</time>
      </trkpt>
      <trkpt lat="40.51044" lon="-7.66333">
        <ele>428.764</ele>
        <time>2019-10-18T01:35:40Z</time>
      </trkpt>
      <trkpt lat="40.51066" lon="-7.6633">
        <ele>431.288</ele>
        <time>2019-10-18T01:36:00Z</time>
      </trkpt>
      <trkpt lat="40.51127" lon="-7.66351">
        <ele>435.624</ele>
        <time>2019-10-18T01:36:20Z</time>
      </trkpt>
      <trkpt lat="40.51131" lon="-7.66425">
        <ele>439.026</ele>
        <time>2019-10-18T01:36:40Z</time>
      </trkpt>
      <trkpt lat="40.51158" lon="-7.6648">
        <ele>441.208</ele>
        <time>2019-10-18T01:37:00Z</time>
      </trkpt>
      <trkpt lat="40.51223" lon="-7.66463">
        <ele>445.422</ele>
        <time>2019-10-18T01:37:20Z</time>
      </trkpt>
      <trkpt lat="40.51297" lon="-7.66478">
        <ele>449.87</ele>
        <time>2019-10-18T01:37:40Z</time>
      </trkpt>
      <trkpt lat="40.51342" lon="-7.66461">
        <ele>455.142</ele>
        <time>2019-10-18T01:38:00Z</time>
      </trkpt>
      <trkpt lat="40.51389" lon="-7.66506">
        <ele>461.832</ele>
        <time>2019-10-18T01:38:20Z</time>
      </trkpt>
      <trkpt lat="40.51417" lon="-7.66507">
        <ele>463.054</ele>
        <time>2019-10-18T01:38:40Z</time>
      </trkpt>
      <trkpt lat="40.51448" lon="-7.66571">
        <ele>464.225</ele>
        <time>2019-10-18T01:39:00Z</time>
      </trkpt>
      <trkpt lat="40.51451" lon="-7.66582">
        <ele>464.417</ele>
        <time>2019-10-18T01:39:20Z</time>
      </trkpt>
      <trkpt lat="40.51476" lon="-7.66601">
        <ele>467.777</ele>
        <time>2019-10-18T01:39:40Z</time>
      </trkpt>
      <trkpt lat="40.51491" lon="-7.66625">
        <ele>470.328</ele>
        <time>2019-10-18T01:40:00Z</time>
      </trkpt>
      <trkpt lat="40.51493" lon="-7.66638">
        <ele>470.989</ele>
        <time>2019-10-18T01:40:20Z</time>
      </trkpt>
      <trkpt lat="40.51504" lon="-7.66668">
        <ele>472.717</ele>
        <time>2019-10-18T01:40:40Z</time>
      </trkpt>
      <trkpt lat="40.51511" lon="-7.66686">
        <ele>474.508</ele>
        <time>2019-10-18T01:41:00Z</time>
      </trkpt>
      <trkpt lat="40.51515" lon="-7.66695">
        <ele>475.736</ele>
        <time>2019-10-18T01:41:20Z</time>
      </trkpt>
      <trkpt lat="40.51526" lon="-7.66724">
        <ele>477.924</ele>
        <time>2019-10-18T01:41:40Z</time>
      </trkpt>
      <trkpt lat="40.51525" lon="-7.66733">
        <ele>478.166</ele>
        <time>2019-10-18T01:42:00Z</time>
      </trkpt>
      <trkpt lat="40.51509" lon="-7.66753">
        <ele>478.496</ele>
        <time>2019-10-18T01:42:20Z</time>
      </trkpt>
      <trkpt lat="40.51485" lon="-7.66784">
        <ele>476.118</ele>
        <time>2019-10-18T01:42:40Z</time>
      </trkpt>
      <trkpt lat="40.51466" lon="-7.66827">
        <ele>474.359</ele>
        <time>2019-10-18T01:43:00Z</time>
      </trkpt>
      <trkpt lat="40.51466" lon="-7.66856">
        <ele>477.971</ele>
        <time>2019-10-18T01:43:20Z</time>
      </trkpt>
      <trkpt lat="40.51464" lon="-7.66872">
        <ele>479.491</ele>
        <time>2019-10-18T01:43:40Z</time>
      </trkpt>
      <trkpt lat="40.51465" lon="-7.66879">
        <ele>480.298</ele>
        <time>2019-10-18T01:44:00Z</time>
      </trkpt>
      <trkpt lat="40.51465" lon="-7.6691">
        <ele>483.515</ele>
        <time>2019-10-18T01:44:20Z</time>
      </trkpt>
      <trkpt lat="40.51455" lon="-7.66935">
        <ele>485.526</ele>
        <time>2019-10-18T01:44:40Z</time>
      </trkpt>
      <trkpt lat="40.51446" lon="-7.66943">
        <ele>486.008</ele>
        <time>2019-10-18T01:45:00Z</time>
      </trkpt>
      <trkpt lat="40.51448" lon="-7.66976">
        <ele>488.373</ele>
        <time>2019-10-18T01:45:20Z</time>
      </trkpt>
      <trkpt lat="40.5146" lon="-7.67014">
        <ele>489.861</ele>
        <time>2019-10-18T01:45:40Z</time>
      </trkpt>
      <trkpt lat="40.5147" lon="-7.67037">
        <ele>490.083</ele>
        <time>2019-10-18T01:46:00Z</time>
      </trkpt>
      <trkpt lat="40.51482" lon="-7.67071">
        <ele>490.423</ele>
        <time>2019-10-18T01:46:20Z</time>
      </trkpt>
      <trkpt lat="40.51464" lon="-7.67096">
        <ele>490.735</ele>
        <time>2019-10-18T01:46:40Z</time>
      </trkpt>
      <trkpt lat="40.51448" lon="-7.67133">
        <ele>492.116</ele>
        <time>2019-10-18T01:47:00Z</time>
      </trkpt>
      <trkpt lat="40.51433" lon="-7.67154">
        <ele>492.418</ele>
        <time>2019-10-18T01:47:20Z</time>
      </trkpt>
      <trkpt lat="40.51415" lon="-7.67168">
        <ele>490.968</ele>
        <time>2019-10-18T01:47:40Z</time>
      </trkpt>
      <trkpt lat="40.51403" lon="-7.67203">
        <ele>489.654</ele>
        <time>2019-10-18T01:48:00Z</time>
      </trkpt>
      <trkpt lat="40.51403" lon="-7.6726">
        <ele>491.456</ele>
        <time>2019-10-18T01:48:20Z</time>
      </trkpt>
      <trkpt lat="40.51409" lon="-7.67305">
        <ele>495.711</ele>
        <time>2019-10-18T01:48:40Z</time>
      </trkpt>
      <trkpt lat="40.51417" lon="-7.67317">
        <ele>496.008</ele>
        <time>2019-10-18T01:49:00Z</time>
      </trkpt>
      <trkpt lat="40.51468" lon="-7.67338">
        <ele>494.829</ele>
        <time>2019-10-18T01:49:20Z</time>
      </trkpt>
      <trkpt lat="40.51515" lon="-7.67378">
        <ele>489.937</ele>
        <time>2019-10-18T01:49:40Z</time>
      </trkpt>
      <trkpt lat="40.51528" lon="-7.67394">
        <ele>488.689</ele>
        <time>2019-10-18T01:50:00Z</time>
      </trkpt>
      <trkpt lat="40.51572" lon="-7.67435">
        <ele>488.569</ele>
        <time>2019-10-18T01:50:20Z</time>
      </trkpt>
      <trkpt lat="40.51614" lon="-7.67474">
        <ele>486.941</ele>
        <time>2019-10-18T01:50:40Z</time>
      </trkpt>
      <trkpt lat="40.51634" lon="-7.67499">
        <ele>485.992</ele>
        <time>2019-10-18T01:51:00Z</time>
      </trkpt>
      <trkpt lat="40.51648" lon="-7.67509">
        <ele>485.514</ele>
        <time>2019-10-18T01:51:20Z</time>
      </trkpt>
      <trkpt lat="40.51673" lon="-7.6752">
        <ele>484.844</ele>
        <time>2019-10-18T01:51:40Z</time>
      </trkpt>
      <trkpt lat="40.51727" lon="-7.67545">
        <ele>482.819</ele>
        <time>2019-10-18T01:52:00Z</time>
      </trkpt>
      <trkpt lat="40.51745" lon="-7.67574">
        <ele>482.209</ele>
        <time>2019-10-18T01:52:20Z</time>
      </trkpt>
      <trkpt lat="40.51738" lon="-7.6761">
        <ele>482.019</ele>
        <time>2019-10-18T01:52:40Z</time>
      </trkpt>
      <trkpt lat="40.51735" lon="-7.6762">
        <ele>481.808</ele>
        <time>2019-10-18T01:53:00Z</time>
      </trkpt>
      <trkpt lat="40.51725" lon="-7.67651">
        <ele>481.175</ele>
        <time>2019-10-18T01:53:20Z</time>
      </trkpt>
      <trkpt lat="40.51717" lon="-7.67694">
        <ele>480.093</ele>
        <time>2019-10-18T01:53:40Z</time>
      </trkpt>
      <trkpt lat="40.51717" lon="-7.67721">
        <ele>479.265</ele>
        <time>2019-10-18T01:54:00Z</time>
      </trkpt>
      <trkpt lat="40.51731" lon="-7.67763">
        <ele>476.935</ele>
        <time>2019-10-18T01:54:20Z</time>
      </trkpt>
      <trkpt lat="40.51738" lon="-7.67784">
        <ele>475.667</ele>
        <time>2019-10-18T01:54:40Z</time>
      </trkpt>
      <trkpt lat="40.51725" lon="-7.67798">
        <ele>475.268</ele>
        <time>2019-10-18T01:55:00Z</time>
      </trkpt>
      <trkpt lat="40.51702" lon="-7.67797">
        <ele>476.85</ele>
        <time>2019-10-18T01:55:20Z</time>
      </trkpt>
      <trkpt lat="40.51688" lon="-7.67799">
        <ele>477.09</ele>
        <time>2019-10-18T01:55:40Z</time>
      </trkpt>
      <trkpt lat="40.51678" lon="-7.67804">
        <ele>476.533</ele>
        <time>2019-10-18T01:56:00Z</time>
      </trkpt>
      <trkpt lat="40.5166" lon="-7.67818">
        <ele>474.923</ele>
        <time>2019-10-18T01:56:20Z</time>
      </trkpt>
      <trkpt lat="40.51638" lon="-7.67826">
        <ele>473.415</ele>
        <time>2019-10-18T01:56:40Z</time>
      </trkpt>
      <trkpt lat="40.51619" lon="-7.67844">
        <ele>469.908</ele>
        <time>2019-10-18T01:57:00Z</time>
      </trkpt>
      <trkpt lat="40.51596" lon="-7.67871">
        <ele>466.667</ele>
        <time>2019-10-18T01:57:20Z</time>
      </trkpt>
      <trkpt lat="40.51575" lon="-7.67892">
        <ele>465.555</ele>
        <time>2019-10-18T01:57:40Z</time>
      </trkpt>
      <trkpt lat="40.51565" lon="-7.6792">
        <ele>463.777</ele>
        <time>2019-10-18T01:58:00Z</time>
      </trkpt>
      <trkpt lat="40.51546" lon="-7.67947">
        <ele>461.197</ele>
        <time>2019-10-18T01:58:20Z</time>
      </trkpt>
      <trkpt lat="40.51511" lon="-7.67972">
        <ele>456.839</ele>
        <time>2019-10-18T01:58:40Z</time>
      </trkpt>
      <trkpt lat="40.51499" lon="-7.67982">
        <ele>455.69</ele>
        <time>2019-10-18T01:59:00Z</time>
      </trkpt>
      <trkpt lat="40.51495" lon="-7.67985">
        <ele>455.292</ele>
        <time>2019-10-18T01:59:20Z</time>
      </trkpt>
      <trkpt lat="40.5148" lon="-7.68016">
        <ele>452.872</ele>
        <time>2019-10-18T01:59:40Z</time>
      </trkpt>
      <trkpt lat="40.51491" lon="-7.68035">
        <ele>452.234</ele>
        <time>2019-10-18T02:00:00Z</time>
      </trkpt>
      <trkpt lat="40.51509" lon="-7.68052">
        <ele>450.655</ele>
        <time>2019-10-18T02:00:20Z</time>
      </trkpt>
      <trkpt lat="40.51515" lon="-7.6806">
        <ele>449.41</ele>
        <time>2019-10-18T02:00:40Z</time>
      </trkpt>
      <trkpt lat="40.51529" lon="-7.68089">
        <ele>446.308</ele>
        <time>2019-10-18T02:01:00Z</time>
      </trkpt>
      <trkpt lat="40.51527" lon="-7.68134">
        <ele>441.627</ele>
        <time>2019-10-18T02:01:20Z</time>
      </trkpt>
      <trkpt lat="40.51526" lon="-7.68182">
        <ele>437.615</ele>
        <time>2019-10-18T02:01:40Z</time>
      </trkpt>
      <trkpt lat="40.51514" lon="-7.68209">
        <ele>437.277</ele>
        <time>2019-10-18T02:02:00Z</time>
      </trkpt>
      <trkpt lat="40.51525" lon="-7.68246">
        <ele>433.557</ele>
        <time>2019-10-18T02:02:20Z</time>
      </trkpt>
      <trkpt lat="40.51541" lon="-7.68266">
        <ele>428.469</ele>
        <time>2019-10-18T02:02:40Z</time>
      </trkpt>
      <trkpt lat="40.51547" lon="-7.68286">
        <ele>425.55</ele>
        <time>2019-10-18T02:03:00Z</time>
      </trkpt>
      <trkpt lat="40.51557" lon="-7.68303">
        <ele>423.172</ele>
        <time>2019-10-18T02:03:20Z</time>
      </trkpt>
      <trkpt lat="40.51569" lon="-7.68316">
        <ele>420.372</ele>
        <time>2019-10-18T02:03:40Z</time>
      </trkpt>
      <trkpt lat="40.51573" lon="-7.68319">
        <ele>419.552</ele>
        <time>2019-10-18T02:04:00Z</time>
      </trkpt>
      <trkpt lat="40.51591" lon="-7.68344">
        <ele>415.553</ele>
        <time>2019-10-18T02:04:20Z</time>
      </trkpt>
      <trkpt lat="40.51583" lon="-7.6837">
        <ele>414.708</ele>
        <time>2019-10-18T02:04:40Z</time>
      </trkpt>
      <trkpt lat="40.51554" lon="-7.68395">
        <ele>416.108</ele>
        <time>2019-10-18T02:05:00Z</time>
      </trkpt>
      <trkpt lat="40.51543" lon="-7.68405">
        <ele>416.959</ele>
        <time>2019-10-18T02:05:20Z</time>
      </trkpt>
      <trkpt lat="40.51535" lon="-7.68437">
        <ele>418.477</ele>
        <time>2019-10-18T02:05:40Z</time>
      </trkpt>
      <trkpt lat="40.51531" lon="-7.68444">
        <ele>418.929</ele>
        <time>2019-10-18T02:06:00Z</time>
      </trkpt>
      <trkpt lat="40.51512" lon="-7.68458">
        <ele>419.829</ele>
        <time>2019-10-18T02:06:20Z</time>
      </trkpt>
      <trkpt lat="40.51496" lon="-7.68475">
        <ele>420.871</ele>
        <time>2019-10-18T02:06:40Z</time>
      </trkpt>
      <trkpt lat="40.51483" lon="-7.68493">
        <ele>424.192</ele>
        <time>2019-10-18T02:07:00Z</time>
      </trkpt>
      <trkpt lat="40.51468" lon="-7.68515">
        <ele>427.634</ele>
        <time>2019-10-18T02:07:20Z</time>
      </trkpt>
      <trkpt lat="40.5146" lon="-7.68549">
        <ele>429.864</ele>
        <time>2019-10-18T02:07:40Z</time>
      </trkpt>
      <trkpt lat="40.51449" lon="-7.68589">
        <ele>430.288</ele>
        <time>2019-10-18T02:08:00Z</time>
      </trkpt>
      <trkpt lat="40.51454" lon="-7.68618">
        <ele>429.324</ele>
        <time>2019-10-18T02:08:20Z</time>
      </trkpt>
      <trkpt lat="40.51469" lon="-7.68655">
        <ele>430.026</ele>
        <time>2019-10-18T02:08:40Z</time>
      </trkpt>
      <trkpt lat="40.51475" lon="-7.68685">
        <ele>432.108</ele>
        <time>2019-10-18T02:09:00Z</time>
      </trkpt>
      <trkpt lat="40.51472" lon="-7.68692">
        <ele>432.822</ele>
        <time>2019-10-18T02:09:20Z</time>
      </trkpt>
      <trkpt lat="40.51461" lon="-7.68707">
        <ele>435.09</ele>
        <time>2019-10-18T02:09:40Z</time>
      </trkpt>
      <trkpt lat="40.51457" lon="-7.68713">
        <ele>436.052</ele>
        <time>2019-10-18T02:10:00Z</time>
      </trkpt>
      <trkpt lat="40.51443" lon="-7.68732">
        <ele>438.832</ele>
        <time>2019-10-18T02:10:20Z</time>
      </trkpt>
      <trkpt lat="40.51439" lon="-7.68758">
        <ele>440.524</ele>
        <time>2019-10-18T02:10:40Z</time>
      </trkpt>
      <trkpt lat="40.51432" lon="-7.6879">
        <ele>442.525</ele>
        <time>2019-10-18T02:11:00Z</time>
      </trkpt>
      <trkpt lat="40.51439" lon="-7.68831">
        <ele>444.637</ele>
        <time>2019-10-18T02:11:20Z</time>
      </trkpt>
      <trkpt lat="40.51438" lon="-7.68871">
        <ele>446.887</ele>
        <time>2019-10-18T02:11:40Z</time>
      </trkpt>
      <trkpt lat="40.51456" lon="-7.68904">
        <ele>445.821</ele>
        <time>2019-10-18T02:12:00Z</time>
      </trkpt>
      <trkpt lat="40.51468" lon="-7.68941">
        <ele>447.141</ele>
        <time>2019-10-18T02:12:20Z</time>
      </trkpt>
      <trkpt lat="40.51477" lon="-7.68957">
        <ele>447.105</ele>
        <time>2019-10-18T02:12:40Z</time>
      </trkpt>
      <trkpt lat="40.51484" lon="-7.68963">
        <ele>446.808</ele>
        <time>2019-10-18T02:13:00Z</time>
      </trkpt>
      <trkpt lat="40.51506" lon="-7.68991">
        <ele>446.486</ele>
        <time>2019-10-18T02:13:20Z</time>
      </trkpt>
      <trkpt lat="40.51522" lon="-7.69022">
        <ele>448.754</ele>
        <time>2019-10-18T02:13:40Z</time>
      </trkpt>
      <trkpt lat="40.51533" lon="-7.69045">
        <ele>451.366</ele>
        <time>2019-10-18T02:14:00Z</time>
      </trkpt>
      <trkpt lat="40.51542" lon="-7.69078">
        <ele>454.636</ele>
        <time>2019-10-18T02:14:20Z</time>
      </trkpt>
      <trkpt lat="40.51546" lon="-7.69113">
        <ele>457.768</ele>
        <time>2019-10-18T02:14:40Z</time>
      </trkpt>
      <trkpt lat="40.51551" lon="-7.69142">
        <ele>459.379</ele>
        <time>2019-10-18T02:15:00Z</time>
      </trkpt>
      <trkpt lat="40.51561" lon="-7.6917">
        <ele>461.371</ele>
        <time>2019-10-18T02:15:20Z</time>
      </trkpt>
      <trkpt lat="40.51578" lon="-7.69204">
        <ele>462.381</ele>
        <time>2019-10-18T02:15:40Z</time>
      </trkpt>
      <trkpt lat="40.51598" lon="-7.69259">
        <ele>462.319</ele>
        <time>2019-10-18T02:16:00Z</time>
      </trkpt>
      <trkpt lat="40.516" lon="-7.69269">
        <ele>462.009</ele>
        <time>2019-10-18T02:16:20Z</time>
      </trkpt>
      <trkpt lat="40.51617" lon="-7.69276">
        <ele>460.919</ele>
        <time>2019-10-18T02:16:40Z</time>
      </trkpt>
      <trkpt lat="40.51658" lon="-7.69269">
        <ele>458.508</ele>
        <time>2019-10-18T02:17:00Z</time>
      </trkpt>
      <trkpt lat="40.51692" lon="-7.69258">
        <ele>456.695</ele>
        <time>2019-10-18T02:17:20Z</time>
      </trkpt>
      <trkpt lat="40.51753" lon="-7.69225">
        <ele>453.733</ele>
        <time>2019-10-18T02:17:40Z</time>
      </trkpt>
      <trkpt lat="40.51776" lon="-7.69229">
        <ele>452.195</ele>
        <time>2019-10-18T02:18:00Z</time>
      </trkpt>
      <trkpt lat="40.51832" lon="-7.69288">
        <ele>448.355</ele>
        <time>2019-10-18T02:18:20Z</time>
      </trkpt>
      <trkpt lat="40.51851" lon="-7.69321">
        <ele>448.297</ele>
        <time>2019-10-18T02:18:40Z</time>
      </trkpt>
      <trkpt lat="40.51883" lon="-7.69351">
        <ele>450.188</ele>
        <time>2019-10-18T02:19:00Z</time>
      </trkpt>
      <trkpt lat="40.51926" lon="-7.69389">
        <ele>448.29</ele>
        <time>2019-10-18T02:19:20Z</time>
      </trkpt>
      <trkpt lat="40.51951" lon="-7.69412">
        <ele>444.28</ele>
        <time>2019-10-18T02:19:40Z</time>
      </trkpt>
      <trkpt lat="40.52002" lon="-7.69426">
        <ele>441.112</ele>
        <time>2019-10-18T02:20:00Z</time>
      </trkpt>
      <trkpt lat="40.52007" lon="-7.69429">
        <ele>440.832</ele>
        <time>2019-10-18T02:20:20Z</time>
      </trkpt>
      <trkpt lat="40.52036" lon="-7.69449">
        <ele>439.505</ele>
        <time>2019-10-18T02:20:40Z</time>
      </trkpt>
      <trkpt lat="40.52052" lon="-7.69472">
        <ele>439.408</ele>
        <time>2019-10-18T02:21:00Z</time>
      </trkpt>
      <trkpt lat="40.52057" lon="-7.69489">
        <ele>439.425</ele>
        <time>2019-10-18T02:21:20Z</time>
      </trkpt>
      <trkpt lat="40.52075" lon="-7.69525">
        <ele>436.123</ele>
        <time>2019-10-18T02:21:40Z</time>
      </trkpt>
      <trkpt lat="40.52103" lon="-7.69548">
        <ele>432.085</ele>
        <time>2019-10-18T02:22:00Z</time>
      </trkpt>
      <trkpt lat="40.52112" lon="-7.69559">
        <ele>430.975</ele>
        <time>2019-10-18T02:22:20Z</time>
      </trkpt>
      <trkpt lat="40.52121" lon="-7.6957">
        <ele>430.167</ele>
        <time>2019-10-18T02:22:40Z</time>
      </trkpt>
      <trkpt lat="40.52147" lon="-7.69606">
        <ele>426.688</ele>
        <time>2019-10-18T02:23:00Z</time>
      </trkpt>
      <trkpt lat="40.52193" lon="-7.6963">
        <ele>420.86</ele>
        <time>2019-10-18T02:23:20Z</time>
      </trkpt>
      <trkpt lat="40.52217" lon="-7.69644">
        <ele>418.48</ele>
        <time>2019-10-18T02:23:40Z</time>
      </trkpt>
      <trkpt lat="40.52261" lon="-7.69647">
        <ele>416.816</ele>
        <time>2019-10-18T02:24:00Z</time>
      </trkpt>
      <trkpt lat="40.52276" lon="-7.69641">
        <ele>417.076</ele>
        <time>2019-10-18T02:24:20Z</time>
      </trkpt>
      <trkpt lat="40.52655" lon="-7.69565">
        <ele>423.913</ele>
        <time>2019-10-18T02:24:40Z</time>
      </trkpt>
      <trkpt lat="40.5273" lon="-7.69505">
        <ele>420.608</ele>
        <time>2019-10-18T02:25:00Z</time>
      </trkpt>
      <trkpt lat="40.52819" lon="-7.69658">
        <ele>430.665</ele>
        <time>2019-10-18T02:25:20Z</time>
      </trkpt>
      <trkpt lat="40.52825" lon="-7.69878">
        <ele>425.153</ele>
        <time>2019-10-18T02:25:40Z</time>
      </trkpt>
      <trkpt lat="40.52839" lon="-7.70118">
        <ele>414.355</ele>
        <time>2019-10-18T02:26:00Z</time>
      </trkpt>
      <trkpt lat="40.52874" lon="-7.70211">
        <ele>412.765</ele>
        <time>2019-10-18T02:26:20Z</time>
      </trkpt>
      <trkpt lat="40.53011" lon="-7.70277">
        <ele>393.837</ele>
        <time>2019-10-18T02:26:40Z</time>
      </trkpt>
      <trkpt lat="40.5324" lon="-7.70247">
        <ele>385.828</ele>
        <time>2019-10-18T02:27:00Z</time>
      </trkpt>
      <trkpt lat="40.53464" lon="-7.70513">
        <ele>380.11</ele>
        <time>2019-10-18T02:27:20Z</time>
      </trkpt>
      <trkpt lat="40.53559" lon="-7.70516">
        <ele>378.72</ele>
        <time>2019-10-18T02:27:40Z</time>
      </trkpt>
      <trkpt lat="40.53758" lon="-7.70615">
        <ele>373.393</ele>
        <time>2019-10-18T02:28:00Z</time>
      </trkpt>
      <trkpt lat="40.53938" lon="-7.70611">
        <ele>371.765</ele>
        <time>2019-10-18T02:28:20Z</time>
      </trkpt>
      <trkpt lat="40.54012" lon="-7.70606">
        <ele>361.221</ele>
        <time>2019-10-18T02:28:40Z</time>
      </trkpt>
      <trkpt lat="40.54112" lon="-7.70601">
        <ele>361.808</ele>
        <time>2019-10-18T02:29:00Z</time>
      </trkpt>
      <trkpt lat="40.54184" lon="-7.70559">
        <ele>365.653</ele>
        <time>2019-10-18T02:29:20Z</time>
      </trkpt>
      <trkpt lat="40.54233" lon="-7.70527">
        <ele>362.931</ele>
        <time>2019-10-18T02:29:40Z</time>
      </trkpt>
      <trkpt lat="40.54256" lon="-7.70512">
        <ele>361.663</ele>
        <time>2019-10-18T02:30:00Z</time>
      </trkpt>
      <trkpt lat="40.54305" lon="-7.7048">
        <ele>356.443</ele>
        <time>2019-10-18T02:30:20Z</time>
      </trkpt>
      <trkpt lat="40.54358" lon="-7.70446">
        <ele>353.595</ele>
        <time>2019-10-18T02:30:40Z</time>
      </trkpt>
      <trkpt lat="40.54367" lon="-7.70439">
        <ele>353.246</ele>
        <time>2019-10-18T02:31:00Z</time>
      </trkpt>
      <trkpt lat="40.54431" lon="-7.70357">
        <ele>347.338</ele>
        <time>2019-10-18T02:31:20Z</time>
      </trkpt>
      <trkpt lat="40.54459" lon="-7.70314">
        <ele>337.218</ele>
        <time>2019-10-18T02:31:40Z</time>
      </trkpt>
      <trkpt lat="40.54474" lon="-7.70261">
        <ele>335.389</ele>
        <time>2019-10-18T02:32:00Z</time>
      </trkpt>
      <trkpt lat="40.54478" lon="-7.70197">
        <ele>333.306</ele>
        <time>2019-10-18T02:32:20Z</time>
      </trkpt>
      <trkpt lat="40.54479" lon="-7.70183">
        <ele>332.826</ele>
        <time>2019-10-18T02:32:40Z</time>
      </trkpt>
      <trkpt lat="40.54458" lon="-7.70113">
        <ele>330.308</ele>
        <time>2019-10-18T02:33:00Z</time>
      </trkpt>
      <trkpt lat="40.54437" lon="-7.70048">
        <ele>322.312</ele>
        <time>2019-10-18T02:33:20Z</time>
      </trkpt>
      <trkpt lat="40.54433" lon="-7.70004">
        <ele>318.04</ele>
        <time>2019-10-18T02:33:40Z</time>
      </trkpt>
      <trkpt lat="40.54442" lon="-7.69954">
        <ele>314.792</ele>
        <time>2019-10-18T02:34:00Z</time>
      </trkpt>
      <trkpt lat="40.5446" lon="-7.69937">
        <ele>312.992</ele>
        <time>2019-10-18T02:34:20Z</time>
      </trkpt>
      <trkpt lat="40.5448" lon="-7.69924">
        <ele>309.854</ele>
        <time>2019-10-18T02:34:40Z</time>
      </trkpt>
      <trkpt lat="40.54523" lon="-7.69921">
        <ele>305.715</ele>
        <time>2019-10-18T02:35:00Z</time>
      </trkpt>
      <trkpt lat="40.54564" lon="-7.69952">
        <ele>305.427</ele>
        <time>2019-10-18T02:35:20Z</time>
      </trkpt>
      <trkpt lat="40.54571" lon="-7.69964">
        <ele>305.127</ele>
        <time>2019-10-18T02:35:40Z</time>
      </trkpt>
      <trkpt lat="40.54574" lon="-7.70014">
        <ele>298.156</ele>
        <time>2019-10-18T02:36:00Z</time>
      </trkpt>
      <trkpt lat="40.54565" lon="-7.70076">
        <ele>295.959</ele>
        <time>2019-10-18T02:36:20Z</time>
      </trkpt>
      <trkpt lat="40.54573" lon="-7.7018">
        <ele>298.114</ele>
        <time>2019-10-18T02:36:40Z</time>
      </trkpt>
      <trkpt lat="40.54586" lon="-7.70252">
        <ele>295.408</ele>
        <time>2019-10-18T02:37:00Z</time>
      </trkpt>
      <trkpt lat="40.54609" lon="-7.70315">
        <ele>291.479</ele>
        <time>2019-10-18T02:37:20Z</time>
      </trkpt>
      <trkpt lat="40.54611" lon="-7.70375">
        <ele>285.617</ele>
        <time>2019-10-18T02:37:40Z</time>
      </trkpt>
      <trkpt lat="40.54606" lon="-7.70387">
        <ele>284.849</ele>
        <time>2019-10-18T02:38:00Z</time>
      </trkpt>
      <trkpt lat="40.54585" lon="-7.7043">
        <ele>282.119</ele>
        <time>2019-10-18T02:38:20Z</time>
      </trkpt>
      <trkpt lat="40.54557" lon="-7.70463">
        <ele>283.061</ele>
        <time>2019-10-18T02:38:40Z</time>
      </trkpt>
      <trkpt lat="40.54556" lon="-7.70495">
        <ele>276.062</ele>
        <time>2019-10-18T02:39:00Z</time>
      </trkpt>
      <trkpt lat="40.54577" lon="-7.70485">
        <ele>272.914</ele>
        <time>2019-10-18T02:39:20Z</time>
      </trkpt>
      <trkpt lat="40.54619" lon="-7.70436">
        <ele>269.774</ele>
        <time>2019-10-18T02:39:40Z</time>
      </trkpt>
      <trkpt lat="40.54647" lon="-7.70403">
        <ele>263.872</ele>
        <time>2019-10-18T02:40:00Z</time>
      </trkpt>
      <trkpt lat="40.54659" lon="-7.70357">
        <ele>262.713</ele>
        <time>2019-10-18T02:40:20Z</time>
      </trkpt>
      <trkpt lat="40.54653" lon="-7.7031">
        <ele>268.414</ele>
        <time>2019-10-18T02:40:40Z</time>
      </trkpt>
      <trkpt lat="40.54666" lon="-7.70274">
        <ele>258.108</ele>
        <time>2019-10-18T02:41:00Z</time>
      </trkpt>
      <trkpt lat="40.54683" lon="-7.70266">
        <ele>254.231</ele>
        <time>2019-10-18T02:41:20Z</time>
      </trkpt>
      <trkpt lat="40.54691" lon="-7.70263">
        <ele>252.829</ele>
        <time>2019-10-18T02:41:40Z</time>
      </trkpt>
      <trkpt lat="40.54701" lon="-7.70258">
        <ele>254.151</ele>
        <time>2019-10-18T02:42:00Z</time>
      </trkpt>
      <trkpt lat="40.54713" lon="-7.7026">
        <ele>257.161</ele>
        <time>2019-10-18T02:42:20Z</time>
      </trkpt>
      <trkpt lat="40.54729" lon="-7.70295">
        <ele>259.263</ele>
        <time>2019-10-18T02:42:40Z</time>
      </trkpt>
      <trkpt lat="40.54733" lon="-7.70313">
        <ele>259.774</ele>
        <time>2019-10-18T02:43:00Z</time>
      </trkpt>
      <trkpt lat="40.54737" lon="-7.70356">
        <ele>259.386</ele>
        <time>2019-10-18T02:43:20Z</time>
      </trkpt>
      <trkpt lat="40.5474" lon="-7.70401">
        <ele>260.616</ele>
        <time>2019-10-18T02:43:40Z</time>
      </trkpt>
      <trkpt lat="40.54741" lon="-7.7044">
        <ele>261.739</ele>
        <time>2019-10-18T02:44:00Z</time>
      </trkpt>
      <trkpt lat="40.54741" lon="-7.7048">
        <ele>262.901</ele>
        <time>2019-10-18T02:44:20Z</time>
      </trkpt>
      <trkpt lat="40.54732" lon="-7.70519">
        <ele>263.421</ele>
        <time>2019-10-18T02:44:40Z</time>
      </trkpt>
      <trkpt lat="40.5472" lon="-7.70553">
        <ele>265.708</ele>
        <time>2019-10-18T02:45:00Z</time>
      </trkpt>
      <trkpt lat="40.54705" lon="-7.70591">
        <ele>267.347</ele>
        <time>2019-10-18T02:45:20Z</time>
      </trkpt>
      <trkpt lat="40.54693" lon="-7.70626">
        <ele>268.495</ele>
        <time>2019-10-18T02:45:40Z</time>
      </trkpt>
      <trkpt lat="40.54684" lon="-7.70666">
        <ele>269.477</ele>
        <time>2019-10-18T02:46:00Z</time>
      </trkpt>
      <trkpt lat="40.54674" lon="-7.70711">
        <ele>272.267</ele>
        <time>2019-10-18T02:46:20Z</time>
      </trkpt>
      <trkpt lat="40.54665" lon="-7.70749">
        <ele>274.989</ele>
        <time>2019-10-18T02:46:40Z</time>
      </trkpt>
      <trkpt lat="40.54654" lon="-7.70792">
        <ele>276.32</ele>
        <time>2019-10-18T02:47:00Z</time>
      </trkpt>
      <trkpt lat="40.54646" lon="-7.70837">
        <ele>276.882</ele>
        <time>2019-10-18T02:47:20Z</time>
      </trkpt>
      <trkpt lat="40.54661" lon="-7.7087">
        <ele>279.512</ele>
        <time>2019-10-18T02:47:40Z</time>
      </trkpt>
      <trkpt lat="40.54684" lon="-7.70894">
        <ele>282.464</ele>
        <time>2019-10-18T02:48:00Z</time>
      </trkpt>
      <trkpt lat="40.54708" lon="-7.70906">
        <ele>285.306</ele>
        <time>2019-10-18T02:48:20Z</time>
      </trkpt>
      <trkpt lat="40.54745" lon="-7.70914">
        <ele>287.516</ele>
        <time>2019-10-18T02:48:40Z</time>
      </trkpt>
      <trkpt lat="40.54785" lon="-7.70918">
        <ele>290.808</ele>
        <time>2019-10-18T02:49:00Z</time>
      </trkpt>
      <trkpt lat="40.5483" lon="-7.70919">
        <ele>297.17</ele>
        <time>2019-10-18T02:49:20Z</time>
      </trkpt>
      <trkpt lat="40.54993" lon="-7.70957">
        <ele>300.898</ele>
        <time>2019-10-18T02:49:40Z</time>
      </trkpt>
      <trkpt lat="40.55148" lon="-7.70788">
        <ele>305.59</ele>
        <time>2019-10-18T02:50:00Z</time>
      </trkpt>
      <trkpt lat="40.55268" lon="-7.70625">
        <ele>308.42</ele>
        <time>2019-10-18T02:50:20Z</time>
      </trkpt>
      <trkpt lat="40.55666" lon="-7.70435">
        <ele>326.032</ele>
        <time>2019-10-18T02:50:40Z</time>
      </trkpt>
      <trkpt lat="40.55698" lon="-7.70474">
        <ele>324.493</ele>
        <time>2019-10-18T02:51:00Z</time>
      </trkpt>
      <trkpt lat="40.55707" lon="-7.70551">
        <ele>332.475</ele>
        <time>2019-10-18T02:51:20Z</time>
      </trkpt>
      <trkpt lat="40.55632" lon="-7.70641">
        <ele>332.165</ele>
        <time>2019-10-18T02:51:40Z</time>
      </trkpt>
      <trkpt lat="40.55606" lon="-7.70736">
        <ele>340.021</ele>
        <time>2019-10-18T02:52:00Z</time>
      </trkpt>
      <trkpt lat="40.55539" lon="-7.70793">
        <ele>345.141</ele>
        <time>2019-10-18T02:52:20Z</time>
      </trkpt>
      <trkpt lat="40.55492" lon="-7.7096">
        <ele>354.305</ele>
        <time>2019-10-18T02:52:40Z</time>
      </trkpt>
      <trkpt lat="40.55447" lon="-7.71044">
        <ele>356.208</ele>
        <time>2019-10-18T02:53:00Z</time>
      </trkpt>
      <trkpt lat="40.55507" lon="-7.71115">
        <ele>361.446</ele>
        <time>2019-10-18T02:53:20Z</time>
      </trkpt>
      <trkpt lat="40.55588" lon="-7.7117">
        <ele>365.944</ele>
        <time>2019-10-18T02:53:40Z</time>
      </trkpt>
      <trkpt lat="40.557" lon="-7.71135">
        <ele>373.266</ele>
        <time>2019-10-18T02:54:00Z</time>
      </trkpt>
      <trkpt lat="40.55725" lon="-7.7099">
        <ele>382.746</ele>
        <time>2019-10-18T02:54:20Z</time>
      </trkpt>
      <trkpt lat="40.559" lon="-7.70943">
        <ele>393.068</ele>
        <time>2019-10-18T02:54:40Z</time>
      </trkpt>
      <trkpt lat="40.55936" lon="-7.7097">
        <ele>396.539</ele>
        <time>2019-10-18T02:55:00Z</time>
      </trkpt>
      <trkpt lat="40.55897" lon="-7.71104">
        <ele>397.981</ele>
        <time>2019-10-18T02:55:20Z</time>
      </trkpt>
      <trkpt lat="40.5594" lon="-7.71286">
        <ele>400.961</ele>
        <time>2019-10-18T02:55:40Z</time>
      </trkpt>
      <trkpt lat="40.5609" lon="-7.71456">
        <ele>414.383</ele>
        <time>2019-10-18T02:56:00Z</time>
      </trkpt>
      <trkpt lat="40.56229" lon="-7.71432">
        <ele>422.225</ele>
        <time>2019-10-18T02:56:20Z</time>
      </trkpt>
      <trkpt lat="40.56333" lon="-7.7158">
        <ele>427.217</ele>
        <time>2019-10-18T02:56:40Z</time>
      </trkpt>
      <trkpt lat="40.56356" lon="-7.71646">
        <ele>428.508</ele>
        <time>2019-10-18T02:57:00Z</time>
      </trkpt>
      <trkpt lat="40.56377" lon="-7.71757">
        <ele>433.582</ele>
        <time>2019-10-18T02:57:20Z</time>
      </trkpt>
      <trkpt lat="40.56392" lon="-7.71783">
        <ele>435.09</ele>
        <time>2019-10-18T02:57:40Z</time>
      </trkpt>
      <trkpt lat="40.56411" lon="-7.71841">
        <ele>435.012</ele>
        <time>2019-10-18T02:58:00Z</time>
      </trkpt>
      <trkpt lat="40.56418" lon="-7.719">
        <ele>438.222</ele>
        <time>2019-10-18T02:58:20Z</time>
      </trkpt>
      <trkpt lat="40.5643" lon="-7.71971">
        <ele>439.164</ele>
        <time>2019-10-18T02:58:40Z</time>
      </trkpt>
      <trkpt lat="40.56438" lon="-7.72017">
        <ele>439.425</ele>
        <time>2019-10-18T02:59:00Z</time>
      </trkpt>
      <trkpt lat="40.5644" lon="-7.72027">
        <ele>439.627</ele>
        <time>2019-10-18T02:59:20Z</time>
      </trkpt>
      <trkpt lat="40.56445" lon="-7.72067">
        <ele>441.877</ele>
        <time>2019-10-18T02:59:40Z</time>
      </trkpt>
      <trkpt lat="40.56454" lon="-7.72113">
        <ele>445.747</ele>
        <time>2019-10-18T03:00:00Z</time>
      </trkpt>
      <trkpt lat="40.56465" lon="-7.72151">
        <ele>447.229</ele>
        <time>2019-10-18T03:00:20Z</time>
      </trkpt>
      <trkpt lat="40.56483" lon="-7.72184">
        <ele>449.621</ele>
        <time>2019-10-18T03:00:40Z</time>
      </trkpt>
      <trkpt lat="40.56513" lon="-7.7221">
        <ele>452.308</ele>
        <time>2019-10-18T03:01:00Z</time>
      </trkpt>
      <trkpt lat="40.56534" lon="-7.7222">
        <ele>454.658</ele>
        <time>2019-10-18T03:01:20Z</time>
      </trkpt>
      <trkpt lat="40.56562" lon="-7.72224">
        <ele>457.566</ele>
        <time>2019-10-18T03:01:40Z</time>
      </trkpt>
      <trkpt lat="40.56597" lon="-7.7222">
        <ele>460.368</ele>
        <time>2019-10-18T03:02:00Z</time>
      </trkpt>
      <trkpt lat="40.56629" lon="-7.72219">
        <ele>464.138</ele>
        <time>2019-10-18T03:02:20Z</time>
      </trkpt>
      <trkpt lat="40.56672" lon="-7.72227">
        <ele>466.38</ele>
        <time>2019-10-18T03:02:40Z</time>
      </trkpt>
      <trkpt lat="40.56716" lon="-7.72256">
        <ele>466.251</ele>
        <time>2019-10-18T03:03:00Z</time>
      </trkpt>
      <trkpt lat="40.56778" lon="-7.72303">
        <ele>461.783</ele>
        <time>2019-10-18T03:03:20Z</time>
      </trkpt>
      <trkpt lat="40.56833" lon="-7.7231">
        <ele>462.623</ele>
        <time>2019-10-18T03:03:40Z</time>
      </trkpt>
      <trkpt lat="40.56905" lon="-7.72317">
        <ele>465.864</ele>
        <time>2019-10-18T03:04:00Z</time>
      </trkpt>
      <trkpt lat="40.56951" lon="-7.72352">
        <ele>467.806</ele>
        <time>2019-10-18T03:04:20Z</time>
      </trkpt>
      <trkpt lat="40.56992" lon="-7.72391">
        <ele>470.616</ele>
        <time>2019-10-18T03:04:40Z</time>
      </trkpt>
      <trkpt lat="40.5703" lon="-7.72437">
        <ele>472.308</ele>
        <time>2019-10-18T03:05:00Z</time>
      </trkpt>
      <trkpt lat="40.57069" lon="-7.72493">
        <ele>475.57</ele>
        <time>2019-10-18T03:05:20Z</time>
      </trkpt>
      <trkpt lat="40.571" lon="-7.7255">
        <ele>479.878</ele>
        <time>2019-10-18T03:05:40Z</time>
      </trkpt>
      <trkpt lat="40.57144" lon="-7.72656">
        <ele>476.97</ele>
        <time>2019-10-18T03:06:00Z</time>
      </trkpt>
      <trkpt lat="40.57117" lon="-7.72945">
        <ele>459.24</ele>
        <time>2019-10-18T03:06:20Z</time>
      </trkpt>
      <trkpt lat="40.57205" lon="-7.73146">
        <ele>456.872</ele>
        <time>2019-10-18T03:06:40Z</time>
      </trkpt>
      <trkpt lat="40.57308" lon="-7.73245">
        <ele>457.223</ele>
        <time>2019-10-18T03:07:00Z</time>
      </trkpt>
      <trkpt lat="40.57397" lon="-7.73099">
        <ele>461.015</ele>
        <time>2019-10-18T03:07:20Z</time>
      </trkpt>
      <trkpt lat="40.57439" lon="-7.7308">
        <ele>464.035</ele>
        <time>2019-10-18T03:07:40Z</time>
      </trkpt>
      <trkpt lat="40.57528" lon="-7.73178">
        <ele>477.888</ele>
        <time>2019-10-18T03:08:00Z</time>
      </trkpt>
      <trkpt lat="40.57545" lon="-7.73235">
        <ele>482.924</ele>
        <time>2019-10-18T03:08:20Z</time>
      </trkpt>
      <trkpt lat="40.57569" lon="-7.73263">
        <ele>485.826</ele>
        <time>2019-10-18T03:08:40Z</time>
      </trkpt>
      <trkpt lat="40.57568" lon="-7.73303">
        <ele>484.508</ele>
        <time>2019-10-18T03:09:00Z</time>
      </trkpt>
      <trkpt lat="40.57653" lon="-7.73335">
        <ele>493.452</ele>
        <time>2019-10-18T03:09:20Z</time>
      </trkpt>
      <trkpt lat="40.57706" lon="-7.73308">
        <ele>504.67</ele>
        <time>2019-10-18T03:09:40Z</time>
      </trkpt>
      <trkpt lat="40.57728" lon="-7.73279">
        <ele>508.782</ele>
        <time>2019-10-18T03:10:00Z</time>
      </trkpt>
      <trkpt lat="40.57813" lon="-7.73255">
        <ele>518.772</ele>
        <time>2019-10-18T03:10:20Z</time>
      </trkpt>
      <trkpt lat="40.57859" lon="-7.7322">
        <ele>520.244</ele>
        <time>2019-10-18T03:10:40Z</time>
      </trkpt>
      <trkpt lat="40.57954" lon="-7.73203">
        <ele>522.735</ele>
        <time>2019-10-18T03:11:00Z</time>
      </trkpt>
      <trkpt lat="40.57999" lon="-7.73235">
        <ele>530.467</ele>
        <time>2019-10-18T03:11:20Z</time>
      </trkpt>
      <trkpt lat="40.58028" lon="-7.73171">
        <ele>532.267</ele>
        <time>2019-10-18T03:11:40Z</time>
      </trkpt>
      <trkpt lat="40.58062" lon="-7.73164">
        <ele>534.091</ele>
        <time>2019-10-18T03:12:00Z</time>
      </trkpt>
      <trkpt lat="40.58107" lon="-7.73127">
        <ele>533.481</ele>
        <time>2019-10-18T03:12:20Z</time>
      </trkpt>
      <trkpt lat="40.5814" lon="-7.73128">
        <ele>535.619</ele>
        <time>2019-10-18T03:12:40Z</time>
      </trkpt>
      <trkpt lat="40.58203" lon="-7.73262">
        <ele>542.508</ele>
        <time>2019-10-18T03:13:00Z</time>
      </trkpt>
      <trkpt lat="40.58248" lon="-7.733">
        <ele>540.973</ele>
        <time>2019-10-18T03:13:20Z</time>
      </trkpt>
      <trkpt lat="40.58381" lon="-7.73373">
        <ele>533.751</ele>
        <time>2019-10-18T03:13:40Z</time>
      </trkpt>
      <trkpt lat="40.58424" lon="-7.73978">
        <ele>515.893</ele>
        <time>2019-10-18T03:14:00Z</time>
      </trkpt>
      <trkpt lat="40.58388" lon="-7.74083">
        <ele>514.073</ele>
        <time>2019-10-18T03:14:20Z</time>
      </trkpt>
      <trkpt lat="40.58401" lon="-7.74383">
        <ele>508.475</ele>
        <time>2019-10-18T03:14:40Z</time>
      </trkpt>
      <trkpt lat="40.58486" lon="-7.74555">
        <ele>506.036</ele>
        <time>2019-10-18T03:15:00Z</time>
      </trkpt>
      <trkpt lat="40.58491" lon="-7.746">
        <ele>505.138</ele>
        <time>2019-10-18T03:15:20Z</time>
      </trkpt>
      <trkpt lat="40.58558" lon="-7.746">
        <ele>499.168</ele>
        <time>2019-10-18T03:15:40Z</time>
      </trkpt>
      <trkpt lat="40.58599" lon="-7.74666">
        <ele>494.337</ele>
        <time>2019-10-18T03:16:00Z</time>
      </trkpt>
      <trkpt lat="40.58662" lon="-7.74811">
        <ele>482.949</ele>
        <time>2019-10-18T03:16:20Z</time>
      </trkpt>
      <trkpt lat="40.58747" lon="-7.74861">
        <ele>473.513</ele>
        <time>2019-10-18T03:16:40Z</time>
      </trkpt>
      <trkpt lat="40.58801" lon="-7.74972">
        <ele>460.108</ele>
        <time>2019-10-18T03:17:00Z</time>
      </trkpt>
      <trkpt lat="40.58823" lon="-7.75016">
        <ele>455.887</ele>
        <time>2019-10-18T03:17:20Z</time>
      </trkpt>
      <trkpt lat="40.5903" lon="-7.75172">
        <ele>444.265</ele>
        <time>2019-10-18T03:17:40Z</time>
      </trkpt>
      <trkpt lat="40.59084" lon="-7.75094">
        <ele>447.477</ele>
        <time>2019-10-18T03:18:00Z</time>
      </trkpt>
      <trkpt lat="40.59371" lon="-7.75116">
        <ele>467.297</ele>
        <time>2019-10-18T03:18:20Z</time>
      </trkpt>
      <trkpt lat="40.59564" lon="-7.75227">
        <ele>491.279</ele>
        <time>2019-10-18T03:18:40Z</time>
      </trkpt>
      <trkpt lat="40.59605" lon="-7.75249">
        <ele>495.56</ele>
        <time>2019-10-18T03:19:00Z</time>
      </trkpt>
      <trkpt lat="40.59663" lon="-7.75344">
        <ele>508.012</ele>
        <time>2019-10-18T03:19:20Z</time>
      </trkpt>
      <trkpt lat="40.59856" lon="-7.75388">
        <ele>516.232</ele>
        <time>2019-10-18T03:19:40Z</time>
      </trkpt>
      <trkpt lat="40.59973" lon="-7.75471">
        <ele>516.137</ele>
        <time>2019-10-18T03:20:00Z</time>
      </trkpt>
      <trkpt lat="40.60148" lon="-7.7566">
        <ele>527.349</ele>
        <time>2019-10-18T03:20:20Z</time>
      </trkpt>
      <trkpt lat="40.60265" lon="-7.75849">
        <ele>534.613</ele>
        <time>2019-10-18T03:20:40Z</time>
      </trkpt>
      <trkpt lat="40.60382" lon="-7.76127">
        <ele>540.908</ele>
        <time>2019-10-18T03:21:00Z</time>
      </trkpt>
      <trkpt lat="40.60487" lon="-7.762">
        <ele>542.577</ele>
        <time>2019-10-18T03:21:20Z</time>
      </trkpt>
      <trkpt lat="40.60485" lon="-7.76239">
        <ele>542.145</ele>
        <time>2019-10-18T03:21:40Z</time>
      </trkpt>
      <trkpt lat="40.60673" lon="-7.76306">
        <ele>538.427</ele>
        <time>2019-10-18T03:22:00Z</time>
      </trkpt>
      <trkpt lat="40.60838" lon="-7.76199">
        <ele>521.067</ele>
        <time>2019-10-18T03:22:20Z</time>
      </trkpt>
      <trkpt lat="40.60964" lon="-7.76128">
        <ele>520.769</ele>
        <time>2019-10-18T03:22:40Z</time>
      </trkpt>
      <trkpt lat="40.61088" lon="-7.76026">
        <ele>515.96</ele>
        <time>2019-10-18T03:23:00Z</time>
      </trkpt>
      <trkpt lat="40.61226" lon="-7.75984">
        <ele>507.462</ele>
        <time>2019-10-18T03:23:20Z</time>
      </trkpt>
      <trkpt lat="40.6124" lon="-7.75973">
        <ele>507.322</ele>
        <time>2019-10-18T03:23:40Z</time>
      </trkpt>
      <trkpt lat="40.61282" lon="-7.75964">
        <ele>506.928</ele>
        <time>2019-10-18T03:24:00Z</time>
      </trkpt>
      <trkpt lat="40.61287" lon="-7.75907">
        <ele>511.889</ele>
        <time>2019-10-18T03:24:20Z</time>
      </trkpt>
      <trkpt lat="40.61383" lon="-7.7568">
        <ele>518.217</ele>
        <time>2019-10-18T03:24:40Z</time>
      </trkpt>
      <trkpt lat="40.61459" lon="-7.75588">
        <ele>523.408</ele>
        <time>2019-10-18T03:25:00Z</time>
      </trkpt>
      <trkpt lat="40.61505" lon="-7.75508">
        <ele>525.926</ele>
        <time>2019-10-18T03:25:20Z</time>
      </trkpt>
      <trkpt lat="40.61527" lon="-7.75482">
        <ele>524.454</ele>
        <time>2019-10-18T03:25:40Z</time>
      </trkpt>
      <trkpt lat="40.61607" lon="-7.75454">
        <ele>519.526</ele>
        <time>2019-10-18T03:26:00Z</time>
      </trkpt>
      <trkpt lat="40.61564" lon="-7.75353">
        <ele>510.616</ele>
        <time>2019-10-18T03:26:20Z</time>
      </trkpt>
      <trkpt lat="40.61527" lon="-7.75139">
        <ele>512.138</ele>
        <time>2019-10-18T03:26:40Z</time>
      </trkpt>
      <trkpt lat="40.61509" lon="-7.75106">
        <ele>514.969</ele>
        <time>2019-10-18T03:27:00Z</time>
      </trkpt>
      <trkpt lat="40.61566" lon="-7.75093">
        <ele>504.271</ele>
        <time>2019-10-18T03:27:20Z</time>
      </trkpt>
      <trkpt lat="40.61585" lon="-7.75138">
        <ele>507.531</ele>
        <time>2019-10-18T03:27:40Z</time>
      </trkpt>
      <trkpt lat="40.61594" lon="-7.75259">
        <ele>507.083</ele>
        <time>2019-10-18T03:28:00Z</time>
      </trkpt>
      <trkpt lat="40.61621" lon="-7.75354">
        <ele>506.725</ele>
        <time>2019-10-18T03:28:20Z</time>
      </trkpt>
      <trkpt lat="40.61691" lon="-7.75563">
        <ele>517.517</ele>
        <time>2019-10-18T03:28:40Z</time>
      </trkpt>
      <trkpt lat="40.61757" lon="-7.75626">
        <ele>514.508</ele>
        <time>2019-10-18T03:29:00Z</time>
      </trkpt>
      <trkpt lat="40.61784" lon="-7.7565">
        <ele>512.742</ele>
        <time>2019-10-18T03:29:20Z</time>
      </trkpt>
      <trkpt lat="40.61802" lon="-7.75681">
        <ele>512.55</ele>
        <time>2019-10-18T03:29:40Z</time>
      </trkpt>
      <trkpt lat="40.61809" lon="-7.75744">
        <ele>509.322</ele>
        <time>2019-10-18T03:30:00Z</time>
      </trkpt>
      <trkpt lat="40.61831" lon="-7.75805">
        <ele>506.172</ele>
        <time>2019-10-18T03:30:20Z</time>
      </trkpt>
      <trkpt lat="40.61876" lon="-7.75837">
        <ele>505.554</ele>
        <time>2019-10-18T03:30:40Z</time>
      </trkpt>
      <trkpt lat="40.61985" lon="-7.758">
        <ele>506.135</ele>
        <time>2019-10-18T03:31:00Z</time>
      </trkpt>
      <trkpt lat="40.62039" lon="-7.75763">
        <ele>504.397</ele>
        <time>2019-10-18T03:31:20Z</time>
      </trkpt>
      <trkpt lat="40.62062" lon="-7.75774">
        <ele>507.187</ele>
        <time>2019-10-18T03:31:40Z</time>
      </trkpt>
      <trkpt lat="40.62012" lon="-7.75915">
        <ele>508.311</ele>
        <time>2019-10-18T03:32:00Z</time>
      </trkpt>
      <trkpt lat="40.62035" lon="-7.75931">
        <ele>512.021</ele>
        <time>2019-10-18T03:32:20Z</time>
      </trkpt>
      <trkpt lat="40.62018" lon="-7.76004">
        <ele>513.203</ele>
        <time>2019-10-18T03:32:40Z</time>
      </trkpt>
      <trkpt lat="40.62029" lon="-7.76016">
        <ele>515.108</ele>
        <time>2019-10-18T03:33:00Z</time>
      </trkpt>
      <trkpt lat="40.62078" lon="-7.76101">
        <ele>521.685</ele>
        <time>2019-10-18T03:33:20Z</time>
      </trkpt>
      <trkpt lat="40.62104" lon="-7.76124">
        <ele>523.573</ele>
        <time>2019-10-18T03:33:40Z</time>
      </trkpt>
      <trkpt lat="40.62135" lon="-7.76134">
        <ele>525.015</ele>
        <time>2019-10-18T03:34:00Z</time>
      </trkpt>
      <trkpt lat="40.62188" lon="-7.76116">
        <ele>531.125</ele>
        <time>2019-10-18T03:34:20Z</time>
      </trkpt>
      <trkpt lat="40.622" lon="-7.76122">
        <ele>530.887</ele>
        <time>2019-10-18T03:34:40Z</time>
      </trkpt>
      <trkpt lat="40.62272" lon="-7.76168">
        <ele>522.688</ele>
        <time>2019-10-18T03:35:00Z</time>
      </trkpt>
      <trkpt lat="40.62314" lon="-7.76197">
        <ele>519.57</ele>
        <time>2019-10-18T03:35:20Z</time>
      </trkpt>
      <trkpt lat="40.62385" lon="-7.76223">
        <ele>509.68</ele>
        <time>2019-10-18T03:35:40Z</time>
      </trkpt>
      <trkpt lat="40.62389" lon="-7.76276">
        <ele>508.014</ele>
        <time>2019-10-18T03:36:00Z</time>
      </trkpt>
      <trkpt lat="40.62393" lon="-7.76331">
        <ele>505.054</ele>
        <time>2019-10-18T03:36:20Z</time>
      </trkpt>
      <trkpt lat="40.62357" lon="-7.76391">
        <ele>502.909</ele>
        <time>2019-10-18T03:36:40Z</time>
      </trkpt>
      <trkpt lat="40.62366" lon="-7.76487">
        <ele>497.108</ele>
        <time>2019-10-18T03:37:00Z</time>
      </trkpt>
      <trkpt lat="40.62397" lon="-7.7649">
        <ele>498.055</ele>
        <time>2019-10-18T03:37:20Z</time>
      </trkpt>
      <trkpt lat="40.62535" lon="-7.7656">
        <ele>502.373</ele>
        <time>2019-10-18T03:37:40Z</time>
      </trkpt>
      <trkpt lat="40.626" lon="-7.76618">
        <ele>508.125</ele>
        <time>2019-10-18T03:38:00Z</time>
      </trkpt>
      <trkpt lat="40.62633" lon="-7.76633">
        <ele>508.435</ele>
        <time>2019-10-18T03:38:20Z</time>
      </trkpt>
      <trkpt lat="40.6269" lon="-7.76635">
        <ele>509.197</ele>
        <time>2019-10-18T03:38:40Z</time>
      </trkpt>
      <trkpt lat="40.62811" lon="-7.76682">
        <ele>517.948</ele>
        <time>2019-10-18T03:39:00Z</time>
      </trkpt>
      <trkpt lat="40.62835" lon="-7.76749">
        <ele>516.35</ele>
        <time>2019-10-18T03:39:20Z</time>
      </trkpt>
      <trkpt lat="40.62937" lon="-7.76752">
        <ele>516.76</ele>
        <time>2019-10-18T03:39:40Z</time>
      </trkpt>
      <trkpt lat="40.62964" lon="-7.76772">
        <ele>509.676</ele>
        <time>2019-10-18T03:40:00Z</time>
      </trkpt>
      <trkpt lat="40.63021" lon="-7.76762">
        <ele>504.09</ele>
        <time>2019-10-18T03:40:20Z</time>
      </trkpt>
      <trkpt lat="40.63185" lon="-7.76875">
        <ele>498.819</ele>
        <time>2019-10-18T03:40:40Z</time>
      </trkpt>
      <trkpt lat="40.6322" lon="-7.76959">
        <ele>494.408</ele>
        <time>2019-10-18T03:41:00Z</time>
      </trkpt>
      <trkpt lat="40.63301" lon="-7.77035">
        <ele>467.021</ele>
        <time>2019-10-18T03:41:20Z</time>
      </trkpt>
      <trkpt lat="40.63358" lon="-7.77152">
        <ele>449.479</ele>
        <time>2019-10-18T03:41:40Z</time>
      </trkpt>
      <trkpt lat="40.63363" lon="-7.77158">
        <ele>448.521</ele>
        <time>2019-10-18T03:42:00Z</time>
      </trkpt>
      <trkpt lat="40.63372" lon="-7.77227">
        <ele>447.381</ele>
        <time>2019-10-18T03:42:20Z</time>
      </trkpt>
      <trkpt lat="40.63372" lon="-7.77261">
        <ele>445.793</ele>
        <time>2019-10-18T03:42:40Z</time>
      </trkpt>
      <trkpt lat="40.63377" lon="-7.77284">
        <ele>442.814</ele>
        <time>2019-10-18T03:43:00Z</time>
      </trkpt>
      <trkpt lat="40.63412" lon="-7.77274">
        <ele>439.776</ele>
        <time>2019-10-18T03:43:20Z</time>
      </trkpt>
      <trkpt lat="40.63433" lon="-7.77255">
        <ele>438.266</ele>
        <time>2019-10-18T03:43:40Z</time>
      </trkpt>
      <trkpt lat="40.63441" lon="-7.77222">
        <ele>436.581</ele>
        <time>2019-10-18T03:44:00Z</time>
      </trkpt>
      <trkpt lat="40.63457" lon="-7.772">
        <ele>434.161</ele>
        <time>2019-10-18T03:44:20Z</time>
      </trkpt>
      <trkpt lat="40.63492" lon="-7.77189">
        <ele>427.817</ele>
        <time>2019-10-18T03:44:40Z</time>
      </trkpt>
      <trkpt lat="40.6353" lon="-7.77173">
        <ele>423.508</ele>
        <time>2019-10-18T03:45:00Z</time>
      </trkpt>
      <trkpt lat="40.63581" lon="-7.77173">
        <ele>415.032</ele>
        <time>2019-10-18T03:45:20Z</time>
      </trkpt>
      <trkpt lat="40.63609" lon="-7.77171">
        <ele>410.78</ele>
        <time>2019-10-18T03:45:40Z</time>
      </trkpt>
      <trkpt lat="40.63617" lon="-7.77195">
        <ele>405.772</ele>
        <time>2019-10-18T03:46:00Z</time>
      </trkpt>
      <trkpt lat="40.63621" lon="-7.77199">
        <ele>404.472</ele>
        <time>2019-10-18T03:46:20Z</time>
      </trkpt>
      <trkpt lat="40.63636" lon="-7.77184">
        <ele>403.534</ele>
        <time>2019-10-18T03:46:40Z</time>
      </trkpt>
      <trkpt lat="40.6365" lon="-7.77175">
        <ele>401.225</ele>
        <time>2019-10-18T03:47:00Z</time>
      </trkpt>
      <trkpt lat="40.63661" lon="-7.77182">
        <ele>396.997</ele>
        <time>2019-10-18T03:47:20Z</time>
      </trkpt>
      <trkpt lat="40.63682" lon="-7.77178">
        <ele>391.797</ele>
        <time>2019-10-18T03:47:40Z</time>
      </trkpt>
      <trkpt lat="40.63693" lon="-7.77153">
        <ele>392.512</ele>
        <time>2019-10-18T03:48:00Z</time>
      </trkpt>
      <trkpt lat="40.63701" lon="-7.77144">
        <ele>391.532</ele>
        <time>2019-10-18T03:48:20Z</time>
      </trkpt>
      <trkpt lat="40.63704" lon="-7.77157">
        <ele>388.205</ele>
        <time>2019-10-18T03:48:40Z</time>
      </trkpt>
      <trkpt lat="40.63703" lon="-7.77214">
        <ele>383.908</ele>
        <time>2019-10-18T03:49:00Z</time>
      </trkpt>
      <trkpt lat="40.6369" lon="-7.77238">
        <ele>385.425</ele>
        <time>2019-10-18T03:49:20Z</time>
      </trkpt>
      <trkpt lat="40.6369" lon="-7.77249">
        <ele>384.923</ele>
        <time>2019-10-18T03:49:40Z</time>
      </trkpt>
      <trkpt lat="40.63698" lon="-7.77268">
        <ele>383.365</ele>
        <time>2019-10-18T03:50:00Z</time>
      </trkpt>
      <trkpt lat="40.6373" lon="-7.77218">
        <ele>378.495</ele>
        <time>2019-10-18T03:50:20Z</time>
      </trkpt>
      <trkpt lat="40.63738" lon="-7.77194">
        <ele>376.577</ele>
        <time>2019-10-18T03:50:40Z</time>
      </trkpt>
      <trkpt lat="40.63751" lon="-7.77155">
        <ele>372.488</ele>
        <time>2019-10-18T03:51:00Z</time>
      </trkpt>
      <trkpt lat="40.63768" lon="-7.77143">
        <ele>367.17</ele>
        <time>2019-10-18T03:51:20Z</time>
      </trkpt>
      <trkpt lat="40.63783" lon="-7.77127">
        <ele>363.61</ele>
        <time>2019-10-18T03:51:40Z</time>
      </trkpt>
      <trkpt lat="40.63787" lon="-7.77092">
        <ele>367.155</ele>
        <time>2019-10-18T03:52:00Z</time>
      </trkpt>
      <trkpt lat="40.63812" lon="-7.7706">
        <ele>361.707</ele>
        <time>2019-10-18T03:52:20Z</time>
      </trkpt>
      <trkpt lat="40.63821" lon="-7.77053">
        <ele>358.717</ele>
        <time>2019-10-18T03:52:40Z</time>
      </trkpt>
      <trkpt lat="40.63828" lon="-7.77051">
        <ele>356.408</ele>
        <time>2019-10-18T03:53:00Z</time>
      </trkpt>
      <trkpt lat="40.63827" lon="-7.77078">
        <ele>356.189</ele>
        <time>2019-10-18T03:53:20Z</time>
      </trkpt>
      <trkpt lat="40.63816" lon="-7.77121">
        <ele>354.367</ele>
        <time>2019-10-18T03:53:40Z</time>
      </trkpt>
      <trkpt lat="40.63802" lon="-7.7718">
        <ele>353.399</ele>
        <time>2019-10-18T03:54:00Z</time>
      </trkpt>
      <trkpt lat="40.63796" lon="-7.77192">
        <ele>355.839</ele>
        <time>2019-10-18T03:54:20Z</time>
      </trkpt>
      <trkpt lat="40.63792" lon="-7.77213">
        <ele>358.671</ele>
        <time>2019-10-18T03:54:40Z</time>
      </trkpt>
      <trkpt lat="40.63803" lon="-7.7723">
        <ele>355.612</ele>
        <time>2019-10-18T03:55:00Z</time>
      </trkpt>
      <trkpt lat="40.63821" lon="-7.77234">
        <ele>351.354</ele>
        <time>2019-10-18T03:55:20Z</time>
      </trkpt>
      <trkpt lat="40.63835" lon="-7.77232">
        <ele>347.524</ele>
        <time>2019-10-18T03:55:40Z</time>
      </trkpt>
      <trkpt lat="40.63854" lon="-7.77225">
        <ele>341.472</ele>
        <time>2019-10-18T03:56:00Z</time>
      </trkpt>
      <trkpt lat="40.63869" lon="-7.77225">
        <ele>337.413</ele>
        <time>2019-10-18T03:56:20Z</time>
      </trkpt>
      <trkpt lat="40.63892" lon="-7.77235">
        <ele>333.314</ele>
        <time>2019-10-18T03:56:40Z</time>
      </trkpt>
      <trkpt lat="40.63908" lon="-7.77244">
        <ele>330.908</ele>
        <time>2019-10-18T03:57:00Z</time>
      </trkpt>
      <trkpt lat="40.63919" lon="-7.77252">
        <ele>328.731</ele>
        <time>2019-10-18T03:57:20Z</time>
      </trkpt>
      <trkpt lat="40.63924" lon="-7.77253">
        <ele>327.169</ele>
        <time>2019-10-18T03:57:40Z</time>
      </trkpt>
      <trkpt lat="40.63932" lon="-7.77261">
        <ele>325.661</ele>
        <time>2019-10-18T03:58:00Z</time>
      </trkpt>
      <trkpt lat="40.63946" lon="-7.77302">
        <ele>323.571</ele>
        <time>2019-10-18T03:58:20Z</time>
      </trkpt>
      <trkpt lat="40.63942" lon="-7.77315">
        <ele>325.363</ele>
        <time>2019-10-18T03:58:40Z</time>
      </trkpt>
      <trkpt lat="40.6394" lon="-7.7733">
        <ele>326.524</ele>
        <time>2019-10-18T03:59:00Z</time>
      </trkpt>
      <trkpt lat="40.63946" lon="-7.77341">
        <ele>325.176</ele>
        <time>2019-10-18T03:59:20Z</time>
      </trkpt>
      <trkpt lat="40.63954" lon="-7.77339">
        <ele>322.476</ele>
        <time>2019-10-18T03:59:40Z</time>
      </trkpt>
      <trkpt lat="40.6396" lon="-7.77326">
        <ele>320.296</ele>
        <time>2019-10-18T04:00:00Z</time>
      </trkpt>
      <trkpt lat="40.6397" lon="-7.773">
        <ele>316.931</ele>
        <time>2019-10-18T04:00:20Z</time>
      </trkpt>
      <trkpt lat="40.63971" lon="-7.77336">
        <ele>317.324</ele>
        <time>2019-10-18T04:00:40Z</time>
      </trkpt>
      <trkpt lat="40.63967" lon="-7.77385">
        <ele>316.908</ele>
        <time>2019-10-18T04:01:00Z</time>
      </trkpt>
      <trkpt lat="40.63953" lon="-7.77441">
        <ele>316.843</ele>
        <time>2019-10-18T04:01:20Z</time>
      </trkpt>
      <trkpt lat="40.63932" lon="-7.7747">
        <ele>316.321</ele>
        <time>2019-10-18T04:01:40Z</time>
      </trkpt>
      <trkpt lat="40.63924" lon="-7.77477">
        <ele>316.823</ele>
        <time>2019-10-18T04:02:00Z</time>
      </trkpt>
      <trkpt lat="40.63906" lon="-7.7749">
        <ele>317.133</ele>
        <time>2019-10-18T04:02:20Z</time>
      </trkpt>
      <trkpt lat="40.63877" lon="-7.77496">
        <ele>317.735</ele>
        <time>2019-10-18T04:02:40Z</time>
      </trkpt>
      <trkpt lat="40.63864" lon="-7.77494">
        <ele>317.766</ele>
        <time>2019-10-18T04:03:00Z</time>
      </trkpt>
      <trkpt lat="40.63852" lon="-7.77498">
        <ele>316.968</ele>
        <time>2019-10-18T04:03:20Z</time>
      </trkpt>
      <trkpt lat="40.63836" lon="-7.77513">
        <ele>315.078</ele>
        <time>2019-10-18T04:03:40Z</time>
      </trkpt>
      <trkpt lat="40.63815" lon="-7.77531">
        <ele>318.642</ele>
        <time>2019-10-18T04:04:00Z</time>
      </trkpt>
      <trkpt lat="40.63809" lon="-7.77538">
        <ele>320.222</ele>
        <time>2019-10-18T04:04:20Z</time>
      </trkpt>
      <trkpt lat="40.63812" lon="-7.77573">
        <ele>318.314</ele>
        <time>2019-10-18T04:04:40Z</time>
      </trkpt>
      <trkpt lat="40.63829" lon="-7.77591">
        <ele>313.708</ele>
        <time>2019-10-18T04:05:00Z</time>
      </trkpt>
      <trkpt lat="40.63829" lon="-7.77633">
        <ele>315.438</ele>
        <time>2019-10-18T04:05:20Z</time>
      </trkpt>
      <trkpt lat="40.63806" lon="-7.77678">
        <ele>319.966</ele>
        <time>2019-10-18T04:05:40Z</time>
      </trkpt>
      <trkpt lat="40.63785" lon="-7.77717">
        <ele>317.638</ele>
        <time>2019-10-18T04:06:00Z</time>
      </trkpt>
      <trkpt lat="40.63774" lon="-7.77734">
        <ele>317.458</ele>
        <time>2019-10-18T04:06:20Z</time>
      </trkpt>
      <trkpt lat="40.63753" lon="-7.77787">
        <ele>317.62</ele>
        <time>2019-10-18T04:06:40Z</time>
      </trkpt>
      <trkpt lat="40.63716" lon="-7.77833">
        <ele>321.141</ele>
        <time>2019-10-18T04:07:00Z</time>
      </trkpt>
      <trkpt lat="40.63687" lon="-7.77877">
        <ele>320.753</ele>
        <time>2019-10-18T04:07:20Z</time>
      </trkpt>
      <trkpt lat="40.63688" lon="-7.77908">
        <ele>319.383</ele>
        <time>2019-10-18T04:07:40Z</time>
      </trkpt>
      <trkpt lat="40.63729" lon="-7.77932">
        <ele>316.477</ele>
        <time>2019-10-18T04:08:00Z</time>
      </trkpt>
      <trkpt lat="40.63739" lon="-7.77963">
        <ele>318.961</ele>
        <time>2019-10-18T04:08:20Z</time>
      </trkpt>
      <trkpt lat="40.63741" lon="-7.77969">
        <ele>319.527</ele>
        <time>2019-10-18T04:08:40Z</time>
      </trkpt>
      <trkpt lat="40.63749" lon="-7.78011">
        <ele>321.108</ele>
        <time>2019-10-18T04:09:00Z</time>
      </trkpt>
      <trkpt lat="40.63738" lon="-7.7804">
        <ele>323.481</ele>
        <time>2019-10-18T04:09:20Z</time>
      </trkpt>
      <trkpt lat="40.63719" lon="-7.78052">
        <ele>326.989</ele>
        <time>2019-10-18T04:09:40Z</time>
      </trkpt>
      <trkpt lat="40.637" lon="-7.78064">
        <ele>329.481</ele>
        <time>2019-10-18T04:10:00Z</time>
      </trkpt>
      <trkpt lat="40.63677" lon="-7.78076">
        <ele>331.791</ele>
        <time>2019-10-18T04:10:20Z</time>
      </trkpt>
      <trkpt lat="40.63673" lon="-7.78082">
        <ele>332.113</ele>
        <time>2019-10-18T04:10:40Z</time>
      </trkpt>
      <trkpt lat="40.63656" lon="-7.7811">
        <ele>335.034</ele>
        <time>2019-10-18T04:11:00Z</time>
      </trkpt>
      <trkpt lat="40.63646" lon="-7.78139">
        <ele>335.556</ele>
        <time>2019-10-18T04:11:20Z</time>
      </trkpt>
      <trkpt lat="40.63631" lon="-7.7816">
        <ele>337.026</ele>
        <time>2019-10-18T04:11:40Z</time>
      </trkpt>
      <trkpt lat="40.63613" lon="-7.78182">
        <ele>340.967</ele>
        <time>2019-10-18T04:12:00Z</time>
      </trkpt>
      <trkpt lat="40.63599" lon="-7.78209">
        <ele>343.281</ele>
        <time>2019-10-18T04:12:20Z</time>
      </trkpt>
      <trkpt lat="40.6358" lon="-7.78237">
        <ele>345.319</ele>
        <time>2019-10-18T04:12:40Z</time>
      </trkpt>
      <trkpt lat="40.63564" lon="-7.78252">
        <ele>345.308</ele>
        <time>2019-10-18T04:13:00Z</time>
      </trkpt>
      <trkpt lat="40.63541" lon="-7.78285">
        <ele>342.39</ele>
        <time>2019-10-18T04:13:20Z</time>
      </trkpt>
      <trkpt lat="40.63523" lon="-7.78341">
        <ele>334.698</ele>
        <time>2019-10-18T04:13:40Z</time>
      </trkpt>
      <trkpt lat="40.63507" lon="-7.78377">
        <ele>329.75</ele>
        <time>2019-10-18T04:14:00Z</time>
      </trkpt>
      <trkpt lat="40.63472" lon="-7.78411">
        <ele>322.96</ele>
        <time>2019-10-18T04:14:20Z</time>
      </trkpt>
      <trkpt lat="40.63455" lon="-7.7842">
        <ele>321.912</ele>
        <time>2019-10-18T04:14:40Z</time>
      </trkpt>
      <trkpt lat="40.63417" lon="-7.78488">
        <ele>323.573</ele>
        <time>2019-10-18T04:15:00Z</time>
      </trkpt>
      <trkpt lat="40.63416" lon="-7.78497">
        <ele>324.075</ele>
        <time>2019-10-18T04:15:20Z</time>
      </trkpt>
      <trkpt lat="40.63404" lon="-7.78544">
        <ele>328.285</ele>
        <time>2019-10-18T04:15:40Z</time>
      </trkpt>
      <trkpt lat="40.63392" lon="-7.7859">
        <ele>330.458</ele>
        <time>2019-10-18T04:16:00Z</time>
      </trkpt>
      <trkpt lat="40.63386" lon="-7.78629">
        <ele>328.252</ele>
        <time>2019-10-18T04:16:20Z</time>
      </trkpt>
      <trkpt lat="40.63385" lon="-7.78659">
        <ele>325.617</ele>
        <time>2019-10-18T04:16:40Z</time>
      </trkpt>
      <trkpt lat="40.63385" lon="-7.78674">
        <ele>324.108</ele>
        <time>2019-10-18T04:17:00Z</time>
      </trkpt>
      <trkpt lat="40.63369" lon="-7.78721">
        <ele>320.229</ele>
        <time>2019-10-18T04:17:20Z</time>
      </trkpt>
      <trkpt lat="40.63342" lon="-7.7877">
        <ele>317.457</ele>
        <time>2019-10-18T04:17:40Z</time>
      </trkpt>
      <trkpt lat="40.63318" lon="-7.78848">
        <ele>318.329</ele>
        <time>2019-10-18T04:18:00Z</time>
      </trkpt>
      <trkpt lat="40.63296" lon="-7.78898">
        <ele>321.439</ele>
        <time>2019-10-18T04:18:20Z</time>
      </trkpt>
      <trkpt lat="40.63287" lon="-7.78954">
        <ele>322.891</ele>
        <time>2019-10-18T04:18:40Z</time>
      </trkpt>
      <trkpt lat="40.63284" lon="-7.79004">
        <ele>321.562</ele>
        <time>2019-10-18T04:19:00Z</time>
      </trkpt>
      <trkpt lat="40.63283" lon="-7.79016">
        <ele>321.264</ele>
        <time>2019-10-18T04:19:20Z</time>
      </trkpt>
      <trkpt lat="40.63268" lon="-7.79063">
        <ele>323.984</ele>
        <time>2019-10-18T04:19:40Z</time>
      </trkpt>
      <trkpt lat="40.63263" lon="-7.79103">
        <ele>322.765</ele>
        <time>2019-10-18T04:20:00Z</time>
      </trkpt>
      <trkpt lat="40.6329" lon="-7.79129">
        <ele>316.868</ele>
        <time>2019-10-18T04:20:20Z</time>
      </trkpt>
      <trkpt lat="40.63305" lon="-7.79138">
        <ele>315.014</ele>
        <time>2019-10-18T04:20:40Z</time>
      </trkpt>
      <trkpt lat="40.63308" lon="-7.79143">
        <ele>315.108</ele>
        <time>2019-10-18T04:21:00Z</time>
      </trkpt>
      <trkpt lat="40.63321" lon="-7.7917">
        <ele>314.97</ele>
        <time>2019-10-18T04:21:20Z</time>
      </trkpt>
      <trkpt lat="40.63324" lon="-7.79181">
        <ele>315.218</ele>
        <time>2019-10-18T04:21:40Z</time>
      </trkpt>
      <trkpt lat="40.63336" lon="-7.79234">
        <ele>315.38</ele>
        <time>2019-10-18T04:22:00Z</time>
      </trkpt>
      <trkpt lat="40.63336" lon="-7.79244">
        <ele>315.01</ele>
        <time>2019-10-18T04:22:20Z</time>
      </trkpt>
      <trkpt lat="40.63331" lon="-7.79299">
        <ele>314.112</ele>
        <time>2019-10-18T04:22:40Z</time>
      </trkpt>
      <trkpt lat="40.63329" lon="-7.79341">
        <ele>318.773</ele>
        <time>2019-10-18T04:23:00Z</time>
      </trkpt>
      <trkpt lat="40.6333" lon="-7.79351">
        <ele>319.375</ele>
        <time>2019-10-18T04:23:20Z</time>
      </trkpt>
      <trkpt lat="40.63337" lon="-7.79346">
        <ele>315.755</ele>
        <time>2019-10-18T04:23:40Z</time>
      </trkpt>
      <trkpt lat="40.63354" lon="-7.79318">
        <ele>308.918</ele>
        <time>2019-10-18T04:24:00Z</time>
      </trkpt>
      <trkpt lat="40.63362" lon="-7.7932">
        <ele>307.198</ele>
        <time>2019-10-18T04:24:20Z</time>
      </trkpt>
      <trkpt lat="40.63391" lon="-7.79322">
        <ele>308.917</ele>
        <time>2019-10-18T04:24:40Z</time>
      </trkpt>
      <trkpt lat="40.63396" lon="-7.79324">
        <ele>310.508</ele>
        <time>2019-10-18T04:25:00Z</time>
      </trkpt>
      <trkpt lat="40.63401" lon="-7.79313">
        <ele>312.735</ele>
        <time>2019-10-18T04:25:20Z</time>
      </trkpt>
      <trkpt lat="40.63407" lon="-7.79285">
        <ele>315.473</ele>
        <time>2019-10-18T04:25:40Z</time>
      </trkpt>
      <trkpt lat="40.63418" lon="-7.79258">
        <ele>319.045</ele>
        <time>2019-10-18T04:26:00Z</time>
      </trkpt>
      <trkpt lat="40.63428" lon="-7.79226">
        <ele>322.785</ele>
        <time>2019-10-18T04:26:20Z</time>
      </trkpt>
      <trkpt lat="40.63429" lon="-7.79219">
        <ele>322.977</ele>
        <time>2019-10-18T04:26:40Z</time>
      </trkpt>
      <trkpt lat="40.63436" lon="-7.7919">
        <ele>323.958</ele>
        <time>2019-10-18T04:27:00Z</time>
      </trkpt>
      <trkpt lat="40.63446" lon="-7.79159">
        <ele>327.74</ele>
        <time>2019-10-18T04:27:20Z</time>
      </trkpt>
      <trkpt lat="40.63461" lon="-7.79131">
        <ele>332.75</ele>
        <time>2019-10-18T04:27:40Z</time>
      </trkpt>
      <trkpt lat="40.63471" lon="-7.79103">
        <ele>337.727</ele>
        <time>2019-10-18T04:28:00Z</time>
      </trkpt>
      <trkpt lat="40.63476" lon="-7.79094">
        <ele>338.968</ele>
        <time>2019-10-18T04:28:20Z</time>
      </trkpt>
      <trkpt lat="40.63489" lon="-7.79087">
        <ele>341.714</ele>
        <time>2019-10-18T04:28:40Z</time>
      </trkpt>
      <trkpt lat="40.63502" lon="-7.79083">
        <ele>344.408</ele>
        <time>2019-10-18T04:29:00Z</time>
      </trkpt>
      <trkpt lat="40.63515" lon="-7.79091">
        <ele>348.146</ele>
        <time>2019-10-18T04:29:20Z</time>
      </trkpt>
      <trkpt lat="40.63519" lon="-7.79095">
        <ele>349.164</ele>
        <time>2019-10-18T04:29:40Z</time>
      </trkpt>
      <trkpt lat="40.63529" lon="-7.79117">
        <ele>352.256</ele>
        <time>2019-10-18T04:30:00Z</time>
      </trkpt>
      <trkpt lat="40.6354" lon="-7.79135">
        <ele>354.746</ele>
        <time>2019-10-18T04:30:20Z</time>
      </trkpt>
      <trkpt lat="40.6355" lon="-7.79143">
        <ele>356.678</ele>
        <time>2019-10-18T04:30:40Z</time>
      </trkpt>
      <trkpt lat="40.63564" lon="-7.79138">
        <ele>358.939</ele>
        <time>2019-10-18T04:31:00Z</time>
      </trkpt>
      <trkpt lat="40.6357" lon="-7.79137">
        <ele>359.531</ele>
        <time>2019-10-18T04:31:20Z</time>
      </trkpt>
      <trkpt lat="40.63593" lon="-7.79132">
        <ele>361.211</ele>
        <time>2019-10-18T04:31:40Z</time>
      </trkpt>
      <trkpt lat="40.63601" lon="-7.79134">
        <ele>361.497</ele>
        <time>2019-10-18T04:32:00Z</time>
      </trkpt>
      <trkpt lat="40.63616" lon="-7.79145">
        <ele>363.223</ele>
        <time>2019-10-18T04:32:20Z</time>
      </trkpt>
      <trkpt lat="40.63624" lon="-7.79148">
        <ele>364.525</ele>
        <time>2019-10-18T04:32:40Z</time>
      </trkpt>
      <trkpt lat="40.63629" lon="-7.79153">
        <ele>366.108</ele>
        <time>2019-10-18T04:33:00Z</time>
      </trkpt>
      <trkpt lat="40.63648" lon="-7.79159">
        <ele>368.693</ele>
        <time>2019-10-18T04:33:20Z</time>
      </trkpt>
      <trkpt lat="40.63665" lon="-7.7917">
        <ele>370.791</ele>
        <time>2019-10-18T04:33:40Z</time>
      </trkpt>
      <trkpt lat="40.63681" lon="-7.79172">
        <ele>370.643</ele>
        <time>2019-10-18T04:34:00Z</time>
      </trkpt>
      <trkpt lat="40.63702" lon="-7.79184">
        <ele>371.823</ele>
        <time>2019-10-18T04:34:20Z</time>
      </trkpt>
      <trkpt lat="40.63721" lon="-7.79192">
        <ele>371.935</ele>
        <time>2019-10-18T04:34:40Z</time>
      </trkpt>
      <trkpt lat="40.63747" lon="-7.79198">
        <ele>373.166</ele>
        <time>2019-10-18T04:35:00Z</time>
      </trkpt>
      <trkpt lat="40.63763" lon="-7.792">
        <ele>374.168</ele>
        <time>2019-10-18T04:35:20Z</time>
      </trkpt>
      <trkpt lat="40.63783" lon="-7.79214">
        <ele>375.238</ele>
        <time>2019-10-18T04:35:40Z</time>
      </trkpt>
      <trkpt lat="40.63792" lon="-7.79236">
        <ele>376.841</ele>
        <time>2019-10-18T04:36:00Z</time>
      </trkpt>
      <trkpt lat="40.63813" lon="-7.79263">
        <ele>379.681</ele>
        <time>2019-10-18T04:36:20Z</time>
      </trkpt>
      <trkpt lat="40.63833" lon="-7.79297">
        <ele>383.409</ele>
        <time>2019-10-18T04:36:40Z</time>
      </trkpt>
      <trkpt lat="40.63835" lon="-7.79331">
        <ele>385.208</ele>
        <time>2019-10-18T04:37:00Z</time>
      </trkpt>
      <trkpt lat="40.63846" lon="-7.7936">
        <ele>387.748</ele>
        <time>2019-10-18T04:37:20Z</time>
      </trkpt>
      <trkpt lat="40.63858" lon="-7.79384">
        <ele>390.496</ele>
        <time>2019-10-18T04:37:40Z</time>
      </trkpt>
      <trkpt lat="40.63872" lon="-7.79407">
        <ele>393.928</ele>
        <time>2019-10-18T04:38:00Z</time>
      </trkpt>
      <trkpt lat="40.63876" lon="-7.79418">
        <ele>395.388</ele>
        <time>2019-10-18T04:38:20Z</time>
      </trkpt>
      <trkpt lat="40.63894" lon="-7.79446">
        <ele>398.92</ele>
        <time>2019-10-18T04:38:40Z</time>
      </trkpt>
      <trkpt lat="40.6391" lon="-7.7947">
        <ele>400.141</ele>
        <time>2019-10-18T04:39:00Z</time>
      </trkpt>
      <trkpt lat="40.63923" lon="-7.79495">
        <ele>400.783</ele>
        <time>2019-10-18T04:39:20Z</time>
      </trkpt>
      <trkpt lat="40.6394" lon="-7.79521">
        <ele>403.313</ele>
        <time>2019-10-18T04:39:40Z</time>
      </trkpt>
      <trkpt lat="40.63959" lon="-7.79545">
        <ele>405.296</ele>
        <time>2019-10-18T04:40:00Z</time>
      </trkpt>
      <trkpt lat="40.63982" lon="-7.79567">
        <ele>407.331</ele>
        <time>2019-10-18T04:40:20Z</time>
      </trkpt>
      <trkpt lat="40.64008" lon="-7.7959">
        <ele>410.324</ele>
        <time>2019-10-18T04:40:40Z</time>
      </trkpt>
      <trkpt lat="40.64037" lon="-7.79618">
        <ele>412.108</ele>
        <time>2019-10-18T04:41:00Z</time>
      </trkpt>
      <trkpt lat="40.64046" lon="-7.79622">
        <ele>412.393</ele>
        <time>2019-10-18T04:41:20Z</time>
      </trkpt>
      <trkpt lat="40.64081" lon="-7.79631">
        <ele>411.681</ele>
        <time>2019-10-18T04:41:40Z</time>
      </trkpt>
      <trkpt lat="40.64126" lon="-7.79633">
        <ele>408.913</ele>
        <time>2019-10-18T04:42:00Z</time>
      </trkpt>
      <trkpt lat="40.64173" lon="-7.79635">
        <ele>406.073</ele>
        <time>2019-10-18T04:42:20Z</time>
      </trkpt>
      <trkpt lat="40.6422" lon="-7.79638">
        <ele>402.345</ele>
        <time>2019-10-18T04:42:40Z</time>
      </trkpt>
      <trkpt lat="40.64264" lon="-7.79679">
        <ele>402.546</ele>
        <time>2019-10-18T04:43:00Z</time>
      </trkpt>
      <trkpt lat="40.64267" lon="-7.79688">
        <ele>402.958</ele>
        <time>2019-10-18T04:43:20Z</time>
      </trkpt>
      <trkpt lat="40.64284" lon="-7.79733">
        <ele>405.958</ele>
        <time>2019-10-18T04:43:40Z</time>
      </trkpt>
      <trkpt lat="40.64296" lon="-7.79758">
        <ele>408.385</ele>
        <time>2019-10-18T04:44:00Z</time>
      </trkpt>
      <trkpt lat="40.64314" lon="-7.79777">
        <ele>410.689</ele>
        <time>2019-10-18T04:44:20Z</time>
      </trkpt>
      <trkpt lat="40.64334" lon="-7.79793">
        <ele>412.617</ele>
        <time>2019-10-18T04:44:40Z</time>
      </trkpt>
      <trkpt lat="40.64368" lon="-7.79815">
        <ele>416.008</ele>
        <time>2019-10-18T04:45:00Z</time>
      </trkpt>
      <trkpt lat="40.64363" lon="-7.79823">
        <ele>415.892</ele>
        <time>2019-10-18T04:45:20Z</time>
      </trkpt>
      <trkpt lat="40.6435" lon="-7.79841">
        <ele>414.66</ele>
        <time>2019-10-18T04:45:40Z</time>
      </trkpt>
      <trkpt lat="40.64314" lon="-7.79888">
        <ele>410.632</ele>
        <time>2019-10-18T04:46:00Z</time>
      </trkpt>
      <trkpt lat="40.64264" lon="-7.79917">
        <ele>408.072</ele>
        <time>2019-10-18T04:46:20Z</time>
      </trkpt>
      <trkpt lat="40.64251" lon="-7.79934">
        <ele>405.874</ele>
        <time>2019-10-18T04:46:40Z</time>
      </trkpt>
      <trkpt lat="40.64244" lon="-7.79957">
        <ele>404.415</ele>
        <time>2019-10-18T04:47:00Z</time>
      </trkpt>
      <trkpt lat="40.64241" lon="-7.80056">
        <ele>401.087</ele>
        <time>2019-10-18T04:47:20Z</time>
      </trkpt>
      <trkpt lat="40.64221" lon="-7.80143">
        <ele>398.877</ele>
        <time>2019-10-18T04:47:40Z</time>
      </trkpt>
      <trkpt lat="40.64172" lon="-7.80212">
        <ele>394.893</ele>
        <time>2019-10-18T04:48:00Z</time>
      </trkpt>
      <trkpt lat="40.64145" lon="-7.80296">
        <ele>390.565</ele>
        <time>2019-10-18T04:48:20Z</time>
      </trkpt>
      <trkpt lat="40.64206" lon="-7.80307">
        <ele>394.321</ele>
        <time>2019-10-18T04:48:40Z</time>
      </trkpt>
      <trkpt lat="40.64203" lon="-7.80443">
        <ele>391.308</ele>
        <time>2019-10-18T04:49:00Z</time>
      </trkpt>
      <trkpt lat="40.64215" lon="-7.80467">
        <ele>392.663</ele>
        <time>2019-10-18T04:49:20Z</time>
      </trkpt>
      <trkpt lat="40.64232" lon="-7.80563">
        <ele>398.231</ele>
        <time>2019-10-18T04:49:40Z</time>
      </trkpt>
      <trkpt lat="40.64293" lon="-7.80583">
        <ele>398.933</ele>
        <time>2019-10-18T04:50:00Z</time>
      </trkpt>
      <trkpt lat="40.64343" lon="-7.80647">
        <ele>396.033</ele>
        <time>2019-10-18T04:50:20Z</time>
      </trkpt>
      <trkpt lat="40.64382" lon="-7.80683">
        <ele>393.695</ele>
        <time>2019-10-18T04:50:40Z</time>
      </trkpt>
      <trkpt lat="40.64409" lon="-7.80643">
        <ele>392.966</ele>
        <time>2019-10-18T04:51:00Z</time>
      </trkpt>
      <trkpt lat="40.64444" lon="-7.80636">
        <ele>387.588</ele>
        <time>2019-10-18T04:51:20Z</time>
      </trkpt>
      <trkpt lat="40.64474" lon="-7.80663">
        <ele>382.588</ele>
        <time>2019-10-18T04:51:40Z</time>
      </trkpt>
      <trkpt lat="40.64503" lon="-7.80667">
        <ele>383.082</ele>
        <time>2019-10-18T04:52:00Z</time>
      </trkpt>
      <trkpt lat="40.64596" lon="-7.8069">
        <ele>380.443</ele>
        <time>2019-10-18T04:52:20Z</time>
      </trkpt>
      <trkpt lat="40.64647" lon="-7.80654">
        <ele>380.817</ele>
        <time>2019-10-18T04:52:40Z</time>
      </trkpt>
      <trkpt lat="40.64675" lon="-7.80652">
        <ele>383.508</ele>
        <time>2019-10-18T04:53:00Z</time>
      </trkpt>
      <trkpt lat="40.64682" lon="-7.80687">
        <ele>383.142</ele>
        <time>2019-10-18T04:53:20Z</time>
      </trkpt>
      <trkpt lat="40.64727" lon="-7.80754">
        <ele>387.56</ele>
        <time>2019-10-18T04:53:40Z</time>
      </trkpt>
      <trkpt lat="40.64783" lon="-7.80774">
        <ele>388.112</ele>
        <time>2019-10-18T04:54:00Z</time>
      </trkpt>
      <trkpt lat="40.64851" lon="-7.80778">
        <ele>381.442</ele>
        <time>2019-10-18T04:54:20Z</time>
      </trkpt>
      <trkpt lat="40.64875" lon="-7.80756">
        <ele>382.374</ele>
        <time>2019-10-18T04:54:40Z</time>
      </trkpt>
      <trkpt lat="40.64916" lon="-7.80749">
        <ele>384.025</ele>
        <time>2019-10-18T04:55:00Z</time>
      </trkpt>
      <trkpt lat="40.64993" lon="-7.80716">
        <ele>390.687</ele>
        <time>2019-10-18T04:55:20Z</time>
      </trkpt>
      <trkpt lat="40.6502" lon="-7.80678">
        <ele>389.847</ele>
        <time>2019-10-18T04:55:40Z</time>
      </trkpt>
      <trkpt lat="40.65076" lon="-7.80576">
        <ele>386.094</ele>
        <time>2019-10-18T04:56:00Z</time>
      </trkpt>
      <trkpt lat="40.65124" lon="-7.80578">
        <ele>382.557</ele>
        <time>2019-10-18T04:56:20Z</time>
      </trkpt>
      <trkpt lat="40.65144" lon="-7.80587">
        <ele>381.622</ele>
        <time>2019-10-18T04:56:40Z</time>
      </trkpt>
      <trkpt lat="40.65227" lon="-7.80602">
        <ele>381.108</ele>
        <time>2019-10-18T04:57:00Z</time>
      </trkpt>
      <trkpt lat="40.65257" lon="-7.80623">
        <ele>382.053</ele>
        <time>2019-10-18T04:57:20Z</time>
      </trkpt>
      <trkpt lat="40.65329" lon="-7.80623">
        <ele>386.511</ele>
        <time>2019-10-18T04:57:40Z</time>
      </trkpt>
      <trkpt lat="40.65392" lon="-7.8065">
        <ele>391.843</ele>
        <time>2019-10-18T04:58:00Z</time>
      </trkpt>
      <trkpt lat="40.65448" lon="-7.8065">
        <ele>396.813</ele>
        <time>2019-10-18T04:58:20Z</time>
      </trkpt>
      <trkpt lat="40.65478" lon="-7.80718">
        <ele>399.255</ele>
        <time>2019-10-18T04:58:40Z</time>
      </trkpt>
      <trkpt lat="40.65502" lon="-7.80729">
        <ele>402.946</ele>
        <time>2019-10-18T04:59:00Z</time>
      </trkpt>
      <trkpt lat="40.65541" lon="-7.80818">
        <ele>399.188</ele>
        <time>2019-10-18T04:59:20Z</time>
      </trkpt>
      <trkpt lat="40.65583" lon="-7.80827">
        <ele>399.688</ele>
        <time>2019-10-18T04:59:40Z</time>
      </trkpt>
      <trkpt lat="40.65681" lon="-7.81334">
        <ele>410.568</ele>
        <time>2019-10-18T05:00:00Z</time>
      </trkpt>
      <trkpt lat="40.65839" lon="-7.81179">
        <ele>417.642</ele>
        <time>2019-10-18T05:00:20Z</time>
      </trkpt>
      <trkpt lat="40.65852" lon="-7.81218">
        <ele>413.826</ele>
        <time>2019-10-18T05:00:40Z</time>
      </trkpt>
      <trkpt lat="40.65866" lon="-7.81256">
        <ele>410.208</ele>
        <time>2019-10-18T05:01:00Z</time>
      </trkpt>
      <trkpt lat="40.65879" lon="-7.81291">
        <ele>406.67</ele>
        <time>2019-10-18T05:01:20Z</time>
      </trkpt>
      <trkpt lat="40.65893" lon="-7.81326">
        <ele>402.918</ele>
        <time>2019-10-18T05:01:40Z</time>
      </trkpt>
      <trkpt lat="40.65924" lon="-7.81364">
        <ele>397.77</ele>
        <time>2019-10-18T05:02:00Z</time>
      </trkpt>
      <trkpt lat="40.65964" lon="-7.81393">
        <ele>393.46</ele>
        <time>2019-10-18T05:02:20Z</time>
      </trkpt>
      <trkpt lat="40.65999" lon="-7.81405">
        <ele>389.652</ele>
        <time>2019-10-18T05:02:40Z</time>
      </trkpt>
      <trkpt lat="40.66017" lon="-7.81403">
        <ele>387.493</ele>
        <time>2019-10-18T05:03:00Z</time>
      </trkpt>
      <trkpt lat="40.66057" lon="-7.81385">
        <ele>384.385</ele>
        <time>2019-10-18T05:03:20Z</time>
      </trkpt>
      <trkpt lat="40.66081" lon="-7.8137">
        <ele>383.315</ele>
        <time>2019-10-18T05:03:40Z</time>
      </trkpt>
      <trkpt lat="40.66107" lon="-7.81355">
        <ele>379.072</ele>
        <time>2019-10-18T05:04:00Z</time>
      </trkpt>
      <trkpt lat="40.66146" lon="-7.81331">
        <ele>373.113</ele>
        <time>2019-10-18T05:04:20Z</time>
      </trkpt>
      <trkpt lat="40.66184" lon="-7.81308">
        <ele>371.014</ele>
        <time>2019-10-18T05:04:40Z</time>
      </trkpt>
      <trkpt lat="40.66235" lon="-7.81285">
        <ele>365.508</ele>
        <time>2019-10-18T05:05:00Z</time>
      </trkpt>
      <trkpt lat="40.66295" lon="-7.81261">
        <ele>362.181</ele>
        <time>2019-10-18T05:05:20Z</time>
      </trkpt>
      <trkpt lat="40.66343" lon="-7.81245">
        <ele>360.149</ele>
        <time>2019-10-18T05:05:40Z</time>
      </trkpt>
      <trkpt lat="40.66393" lon="-7.81236">
        <ele>356.461</ele>
        <time>2019-10-18T05:06:00Z</time>
      </trkpt>
      <trkpt lat="40.66406" lon="-7.81234">
        <ele>355.921</ele>
        <time>2019-10-18T05:06:20Z</time>
      </trkpt>
      <trkpt lat="40.66452" lon="-7.81213">
        <ele>353.633</ele>
        <time>2019-10-18T05:06:40Z</time>
      </trkpt>
      <trkpt lat="40.66511" lon="-7.81145">
        <ele>356.074</ele>
        <time>2019-10-18T05:07:00Z</time>
      </trkpt>
      <trkpt lat="40.66593" lon="-7.81032">
        <ele>355.076</ele>
        <time>2019-10-18T05:07:20Z</time>
      </trkpt>
      <trkpt lat="40.6662" lon="-7.80992">
        <ele>349.776</ele>
        <time>2019-10-18T05:07:40Z</time>
      </trkpt>
      <trkpt lat="40.66628" lon="-7.80982">
        <ele>348.571</ele>
        <time>2019-10-18T05:08:00Z</time>
      </trkpt>
      <trkpt lat="40.66645" lon="-7.80964">
        <ele>346.141</ele>
        <time>2019-10-18T05:08:20Z</time>
      </trkpt>
      <trkpt lat="40.66721" lon="-7.80915">
        <ele>342.215</ele>
        <time>2019-10-18T05:08:40Z</time>
      </trkpt>
      <trkpt lat="40.66739" lon="-7.80903">
        <ele>339.808</ele>
        <time>2019-10-18T05:09:00Z</time>
      </trkpt>
      <trkpt lat="40.66789" lon="-7.80888">
        <ele>336.231</ele>
        <time>2019-10-18T05:09:20Z</time>
      </trkpt>
      <trkpt lat="40.6681" lon="-7.8089">
        <ele>334.559</ele>
        <time>2019-10-18T05:09:40Z</time>
      </trkpt>
      <trkpt lat="40.66849" lon="-7.80903">
        <ele>331.151</ele>
        <time>2019-10-18T05:10:00Z</time>
      </trkpt>
      <trkpt lat="40.66867" lon="-7.80917">
        <ele>330.071</ele>
        <time>2019-10-18T05:10:20Z</time>
      </trkpt>
      <trkpt lat="40.66874" lon="-7.80928">
        <ele>329.423</ele>
        <time>2019-10-18T05:10:40Z</time>
      </trkpt>
      <trkpt lat="40.66904" lon="-7.80988">
        <ele>326.734</ele>
        <time>2019-10-18T05:11:00Z</time>
      </trkpt>
      <trkpt lat="40.66924" lon="-7.81031">
        <ele>330.386</ele>
        <time>2019-10-18T05:11:20Z</time>
      </trkpt>
      <trkpt lat="40.66922" lon="-7.81041">
        <ele>332.096</ele>
        <time>2019-10-18T05:11:40Z</time>
      </trkpt>
      <trkpt lat="40.66921" lon="-7.81069">
        <ele>335.692</ele>
        <time>2019-10-18T05:12:00Z</time>
      </trkpt>
      <trkpt lat="40.6692" lon="-7.81078">
        <ele>336.173</ele>
        <time>2019-10-18T05:12:20Z</time>
      </trkpt>
      <trkpt lat="40.66917" lon="-7.811">
        <ele>337.22</ele>
        <time>2019-10-18T05:12:40Z</time>
      </trkpt>
      <trkpt lat="40.66917" lon="-7.81109">
        <ele>337.808</ele>
        <time>2019-10-18T05:13:00Z</time>
      </trkpt>
      <trkpt lat="40.66916" lon="-7.81119">
        <ele>338.183</ele>
        <time>2019-10-18T05:13:20Z</time>
      </trkpt>
      <trkpt lat="40.66925" lon="-7.81142">
        <ele>340.611</ele>
        <time>2019-10-18T05:13:40Z</time>
      </trkpt>
      <trkpt lat="40.6695" lon="-7.81203">
        <ele>345.873</ele>
        <time>2019-10-18T05:14:00Z</time>
      </trkpt>
      <trkpt lat="40.66958" lon="-7.81329">
        <ele>350.633</ele>
        <time>2019-10-18T05:14:20Z</time>
      </trkpt>
      <trkpt lat="40.66951" lon="-7.81439">
        <ele>356.155</ele>
        <time>2019-10-18T05:14:40Z</time>
      </trkpt>
      <trkpt lat="40.66934" lon="-7.81473">
        <ele>356.376</ele>
        <time>2019-10-18T05:15:00Z</time>
      </trkpt>
      <trkpt lat="40.66914" lon="-7.81519">
        <ele>358.818</ele>
        <time>2019-10-18T05:15:20Z</time>
      </trkpt>
      <trkpt lat="40.66907" lon="-7.81746">
        <ele>382.598</ele>
        <time>2019-10-18T05:15:40Z</time>
      </trkpt>
      <trkpt lat="40.66883" lon="-7.81818">
        <ele>386.397</ele>
        <time>2019-10-18T05:16:00Z</time>
      </trkpt>
      <trkpt lat="40.66992" lon="-7.81723">
        <ele>388.923</ele>
        <time>2019-10-18T05:16:20Z</time>
      </trkpt>
      <trkpt lat="40.671" lon="-7.81512">
        <ele>386.725</ele>
        <time>2019-10-18T05:16:40Z</time>
      </trkpt>
      <trkpt lat="40.67131" lon="-7.81409">
        <ele>388.308</ele>
        <time>2019-10-18T05:17:00Z</time>
      </trkpt>
      <trkpt lat="40.67207" lon="-7.81444">
        <ele>399.283</ele>
        <time>2019-10-18T05:17:20Z</time>
      </trkpt>
      <trkpt lat="40.67314" lon="-7.81364">
        <ele>405.911</ele>
        <time>2019-10-18T05:17:40Z</time>
      </trkpt>
      <trkpt lat="40.67365" lon="-7.81375">
        <ele>413.253</ele>
        <time>2019-10-18T05:18:00Z</time>
      </trkpt>
      <trkpt lat="40.67408" lon="-7.81483">
        <ele>430.683</ele>
        <time>2019-10-18T05:18:20Z</time>
      </trkpt>
      <trkpt lat="40.67367" lon="-7.81558">
        <ele>436.255</ele>
        <time>2019-10-18T05:18:40Z</time>
      </trkpt>
      <trkpt lat="40.67372" lon="-7.81592">
        <ele>439.426</ele>
        <time>2019-10-18T05:19:00Z</time>
      </trkpt>
      <trkpt lat="40.6736" lon="-7.81627">
        <ele>443.378</ele>
        <time>2019-10-18T05:19:20Z</time>
      </trkpt>
      <trkpt lat="40.67414" lon="-7.81707">
        <ele>452.668</ele>
        <time>2019-10-18T05:19:40Z</time>
      </trkpt>
      <trkpt lat="40.67382" lon="-7.81778">
        <ele>456.711</ele>
        <time>2019-10-18T05:20:00Z</time>
      </trkpt>
      <trkpt lat="40.67402" lon="-7.81805">
        <ele>457.921</ele>
        <time>2019-10-18T05:20:20Z</time>
      </trkpt>
      <trkpt lat="40.67454" lon="-7.81778">
        <ele>465.403</ele>
        <time>2019-10-18T05:20:40Z</time>
      </trkpt>
      <trkpt lat="40.67492" lon="-7.81851">
        <ele>469.408</ele>
        <time>2019-10-18T05:21:00Z</time>
      </trkpt>
      <trkpt lat="40.6758" lon="-7.81786">
        <ele>481.815</ele>
        <time>2019-10-18T05:21:20Z</time>
      </trkpt>
      <trkpt lat="40.67802" lon="-7.81604">
        <ele>484.063</ele>
        <time>2019-10-18T05:21:40Z</time>
      </trkpt>
      <trkpt lat="40.67803" lon="-7.81532">
        <ele>483.985</ele>
        <time>2019-10-18T05:22:00Z</time>
      </trkpt>
      <trkpt lat="40.67831" lon="-7.81501">
        <ele>485.935</ele>
        <time>2019-10-18T05:22:20Z</time>
      </trkpt>
      <trkpt lat="40.67868" lon="-7.81496">
        <ele>485.677</ele>
        <time>2019-10-18T05:22:40Z</time>
      </trkpt>
      <trkpt lat="40.67898" lon="-7.81495">
        <ele>487.148</ele>
        <time>2019-10-18T05:23:00Z</time>
      </trkpt>
      <trkpt lat="40.67904" lon="-7.815">
        <ele>487.18</ele>
        <time>2019-10-18T05:23:20Z</time>
      </trkpt>
      <trkpt lat="40.67915" lon="-7.81508">
        <ele>486.71</ele>
        <time>2019-10-18T05:23:40Z</time>
      </trkpt>
      <trkpt lat="40.6793" lon="-7.81517">
        <ele>487.468</ele>
        <time>2019-10-18T05:24:00Z</time>
      </trkpt>
      <trkpt lat="40.67942" lon="-7.81525">
        <ele>487.942</ele>
        <time>2019-10-18T05:24:20Z</time>
      </trkpt>
      <trkpt lat="40.67958" lon="-7.81528">
        <ele>489.026</ele>
        <time>2019-10-18T05:24:40Z</time>
      </trkpt>
      <trkpt lat="40.67984" lon="-7.81518">
        <ele>491.308</ele>
        <time>2019-10-18T05:25:00Z</time>
      </trkpt>
      <trkpt lat="40.68014" lon="-7.81502">
        <ele>491.99</ele>
        <time>2019-10-18T05:25:20Z</time>
      </trkpt>
      <trkpt lat="40.68034" lon="-7.81471">
        <ele>492.438</ele>
        <time>2019-10-18T05:25:40Z</time>
      </trkpt>
      <trkpt lat="40.68051" lon="-7.8144">
        <ele>493.33</ele>
        <time>2019-10-18T05:26:00Z</time>
      </trkpt>
      <trkpt lat="40.68074" lon="-7.81413">
        <ele>492.16</ele>
        <time>2019-10-18T05:26:20Z</time>
      </trkpt>
      <trkpt lat="40.6811" lon="-7.81411">
        <ele>491.052</ele>
        <time>2019-10-18T05:26:40Z</time>
      </trkpt>
      <trkpt lat="40.68136" lon="-7.81426">
        <ele>492.273</ele>
        <time>2019-10-18T05:27:00Z</time>
      </trkpt>
      <trkpt lat="40.68154" lon="-7.8145">
        <ele>494.085</ele>
        <time>2019-10-18T05:27:20Z</time>
      </trkpt>
      <trkpt lat="40.68168" lon="-7.81468">
        <ele>495.115</ele>
        <time>2019-10-18T05:27:40Z</time>
      </trkpt>
      <trkpt lat="40.68204" lon="-7.81484">
        <ele>495.582</ele>
        <time>2019-10-18T05:28:00Z</time>
      </trkpt>
      <trkpt lat="40.68235" lon="-7.81494">
        <ele>495.943</ele>
        <time>2019-10-18T05:28:20Z</time>
      </trkpt>
      <trkpt lat="40.68271" lon="-7.81506">
        <ele>497.517</ele>
        <time>2019-10-18T05:28:40Z</time>
      </trkpt>
      <trkpt lat="40.68301" lon="-7.81509">
        <ele>498.508</ele>
        <time>2019-10-18T05:29:00Z</time>
      </trkpt>
      <trkpt lat="40.68326" lon="-7.81498">
        <ele>498.642</ele>
        <time>2019-10-18T05:29:20Z</time>
      </trkpt>
      <trkpt lat="40.68375" lon="-7.81475">
        <ele>498.75</ele>
        <time>2019-10-18T05:29:40Z</time>
      </trkpt>
      <trkpt lat="40.68381" lon="-7.81473">
        <ele>498.732</ele>
        <time>2019-10-18T05:30:00Z</time>
      </trkpt>
      <trkpt lat="40.68386" lon="-7.81469">
        <ele>498.772</ele>
        <time>2019-10-18T05:30:20Z</time>
      </trkpt>
      <trkpt lat="40.68414" lon="-7.81457">
        <ele>497.944</ele>
        <time>2019-10-18T05:30:40Z</time>
      </trkpt>
      <trkpt lat="40.68457" lon="-7.81422">
        <ele>495.975</ele>
        <time>2019-10-18T05:31:00Z</time>
      </trkpt>
      <trkpt lat="40.68494" lon="-7.81388">
        <ele>496.387</ele>
        <time>2019-10-18T05:31:20Z</time>
      </trkpt>
      <trkpt lat="40.68518" lon="-7.81373">
        <ele>497.787</ele>
        <time>2019-10-18T05:31:40Z</time>
      </trkpt>
      <trkpt lat="40.68529" lon="-7.81357">
        <ele>497.726</ele>
        <time>2019-10-18T05:32:00Z</time>
      </trkpt>
      <trkpt lat="40.68536" lon="-7.81344">
        <ele>496.847</ele>
        <time>2019-10-18T05:32:20Z</time>
      </trkpt>
      <trkpt lat="40.6855" lon="-7.81332">
        <ele>495.911</ele>
        <time>2019-10-18T05:32:40Z</time>
      </trkpt>
      <trkpt lat="40.68607" lon="-7.81278">
        <ele>491.008</ele>
        <time>2019-10-18T05:33:00Z</time>
      </trkpt>
      <trkpt lat="40.68656" lon="-7.81252">
        <ele>491.116</ele>
        <time>2019-10-18T05:33:20Z</time>
      </trkpt>
      <trkpt lat="40.68701" lon="-7.8124">
        <ele>490.674</ele>
        <time>2019-10-18T05:33:40Z</time>
      </trkpt>
      <trkpt lat="40.68745" lon="-7.81234">
        <ele>491.666</ele>
        <time>2019-10-18T05:34:00Z</time>
      </trkpt>
      <trkpt lat="40.68772" lon="-7.81238">
        <ele>494.896</ele>
        <time>2019-10-18T05:34:20Z</time>
      </trkpt>
      <trkpt lat="40.68801" lon="-7.81242">
        <ele>498.588</ele>
        <time>2019-10-18T05:34:40Z</time>
      </trkpt>
      <trkpt lat="40.68829" lon="-7.8124">
        <ele>502.079</ele>
        <time>2019-10-18T05:35:00Z</time>
      </trkpt>
      <trkpt lat="40.6885" lon="-7.81226">
        <ele>504.591</ele>
        <time>2019-10-18T05:35:20Z</time>
      </trkpt>
      <trkpt lat="40.68867" lon="-7.81209">
        <ele>506.141</ele>
        <time>2019-10-18T05:35:40Z</time>
      </trkpt>
      <trkpt lat="40.68891" lon="-7.81223">
        <ele>509.352</ele>
        <time>2019-10-18T05:36:00Z</time>
      </trkpt>
      <trkpt lat="40.68903" lon="-7.8122">
        <ele>509.853</ele>
        <time>2019-10-18T05:36:20Z</time>
      </trkpt>
      <trkpt lat="40.68927" lon="-7.81197">
        <ele>507.308</ele>
        <time>2019-10-18T05:36:40Z</time>
      </trkpt>
      <trkpt lat="40.68947" lon="-7.81185">
        <ele>505.808</ele>
        <time>2019-10-18T05:37:00Z</time>
      </trkpt>
      <trkpt lat="40.68956" lon="-7.81185">
        <ele>506.229</ele>
        <time>2019-10-18T05:37:20Z</time>
      </trkpt>
      <trkpt lat="40.68981" lon="-7.8117">
        <ele>506.887</ele>
        <time>2019-10-18T05:37:40Z</time>
      </trkpt>
      <trkpt lat="40.69" lon="-7.81148">
        <ele>510.029</ele>
        <time>2019-10-18T05:38:00Z</time>
      </trkpt>
      <trkpt lat="40.69011" lon="-7.81158">
        <ele>511.819</ele>
        <time>2019-10-18T05:38:20Z</time>
      </trkpt>
      <trkpt lat="40.69027" lon="-7.81156">
        <ele>514.211</ele>
        <time>2019-10-18T05:38:40Z</time>
      </trkpt>
      <trkpt lat="40.69035" lon="-7.81157">
        <ele>514.882</ele>
        <time>2019-10-18T05:39:00Z</time>
      </trkpt>
      <trkpt lat="40.69038" lon="-7.81186">
        <ele>514.734</ele>
        <time>2019-10-18T05:39:20Z</time>
      </trkpt>
      <trkpt lat="40.69047" lon="-7.8121">
        <ele>515.874</ele>
        <time>2019-10-18T05:39:40Z</time>
      </trkpt>
      <trkpt lat="40.69048" lon="-7.81217">
        <ele>516.034</ele>
        <time>2019-10-18T05:40:00Z</time>
      </trkpt>
      <trkpt lat="40.69045" lon="-7.81242">
        <ele>517.355</ele>
        <time>2019-10-18T05:40:20Z</time>
      </trkpt>
      <trkpt lat="40.69029" lon="-7.81261">
        <ele>517.31</ele>
        <time>2019-10-18T05:40:40Z</time>
      </trkpt>
      <trkpt lat="40.69012" lon="-7.81286">
        <ele>519.408</ele>
        <time>2019-10-18T05:41:00Z</time>
      </trkpt>
      <trkpt lat="40.69008" lon="-7.81299">
        <ele>520.077</ele>
        <time>2019-10-18T05:41:20Z</time>
      </trkpt>
      <trkpt lat="40.69007" lon="-7.81317">
        <ele>520.635</ele>
        <time>2019-10-18T05:41:40Z</time>
      </trkpt>
      <trkpt lat="40.6901" lon="-7.81323">
        <ele>521.037</ele>
        <time>2019-10-18T05:42:00Z</time>
      </trkpt>
      <trkpt lat="40.69027" lon="-7.81335">
        <ele>522.117</ele>
        <time>2019-10-18T05:42:20Z</time>
      </trkpt>
      <trkpt lat="40.69039" lon="-7.81341">
        <ele>523.839</ele>
        <time>2019-10-18T05:42:40Z</time>
      </trkpt>
      <trkpt lat="40.69059" lon="-7.81339">
        <ele>525.91</ele>
        <time>2019-10-18T05:43:00Z</time>
      </trkpt>
      <trkpt lat="40.69063" lon="-7.81337">
        <ele>525.952</ele>
        <time>2019-10-18T05:43:20Z</time>
      </trkpt>
      <trkpt lat="40.6907" lon="-7.81339">
        <ele>526.522</ele>
        <time>2019-10-18T05:43:40Z</time>
      </trkpt>
      <trkpt lat="40.69086" lon="-7.81345">
        <ele>527.973</ele>
        <time>2019-10-18T05:44:00Z</time>
      </trkpt>
      <trkpt lat="40.69105" lon="-7.81349">
        <ele>528.985</ele>
        <time>2019-10-18T05:44:20Z</time>
      </trkpt>
      <trkpt lat="40.69127" lon="-7.81353">
        <ele>529.213</ele>
        <time>2019-10-18T05:44:40Z</time>
      </trkpt>
      <trkpt lat="40.69146" lon="-7.81348">
        <ele>528.908</ele>
        <time>2019-10-18T05:45:00Z</time>
      </trkpt>
      <trkpt lat="40.69166" lon="-7.81334">
        <ele>529.091</ele>
        <time>2019-10-18T05:45:20Z</time>
      </trkpt>
      <trkpt lat="40.69175" lon="-7.81337">
        <ele>529.649</ele>
        <time>2019-10-18T05:45:40Z</time>
      </trkpt>
      <trkpt lat="40.69198" lon="-7.81351">
        <ele>530.351</ele>
        <time>2019-10-18T05:46:00Z</time>
      </trkpt>
      <trkpt lat="40.69222" lon="-7.81355">
        <ele>531.631</ele>
        <time>2019-10-18T05:46:20Z</time>
      </trkpt>
      <trkpt lat="40.69249" lon="-7.81357">
        <ele>533.273</ele>
        <time>2019-10-18T05:46:40Z</time>
      </trkpt>
      <trkpt lat="40.69261" lon="-7.81359">
        <ele>533.914</ele>
        <time>2019-10-18T05:47:00Z</time>
      </trkpt>
      <trkpt lat="40.69285" lon="-7.81362">
        <ele>536.386</ele>
        <time>2019-10-18T05:47:20Z</time>
      </trkpt>
      <trkpt lat="40.69304" lon="-7.8137">
        <ele>539.366</ele>
        <time>2019-10-18T05:47:40Z</time>
      </trkpt>
      <trkpt lat="40.69318" lon="-7.81392">
        <ele>539.835</ele>
        <time>2019-10-18T05:48:00Z</time>
      </trkpt>
      <trkpt lat="40.69331" lon="-7.81416">
        <ele>540.786</ele>
        <time>2019-10-18T05:48:20Z</time>
      </trkpt>
      <trkpt lat="40.69349" lon="-7.81439">
        <ele>541.814</ele>
        <time>2019-10-18T05:48:40Z</time>
      </trkpt>
      <trkpt lat="40.6938" lon="-7.81467">
        <ele>543.608</ele>
        <time>2019-10-18T05:49:00Z</time>
      </trkpt>
      <trkpt lat="40.69404" lon="-7.81489">
        <ele>543.477</ele>
        <time>2019-10-18T05:49:20Z</time>
      </trkpt>
      <trkpt lat="40.69409" lon="-7.81494">
        <ele>543.675</ele>
        <time>2019-10-18T05:49:40Z</time>
      </trkpt>
      <trkpt lat="40.69428" lon="-7.81512">
        <ele>545.457</ele>
        <time>2019-10-18T05:50:00Z</time>
      </trkpt>
      <trkpt lat="40.69437" lon="-7.81522">
        <ele>546.367</ele>
        <time>2019-10-18T05:50:20Z</time>
      </trkpt>
      <trkpt lat="40.69441" lon="-7.81527">
        <ele>546.749</ele>
        <time>2019-10-18T05:50:40Z</time>
      </trkpt>
      <trkpt lat="40.69464" lon="-7.81548">
        <ele>549.15</ele>
        <time>2019-10-18T05:51:00Z</time>
      </trkpt>
      <trkpt lat="40.69492" lon="-7.81558">
        <ele>552.052</ele>
        <time>2019-10-18T05:51:20Z</time>
      </trkpt>
      <trkpt lat="40.69498" lon="-7.81564">
        <ele>552.592</ele>
        <time>2019-10-18T05:51:40Z</time>
      </trkpt>
      <trkpt lat="40.69521" lon="-7.81583">
        <ele>555.061</ele>
        <time>2019-10-18T05:52:00Z</time>
      </trkpt>
      <trkpt lat="40.6955" lon="-7.81606">
        <ele>555.321</ele>
        <time>2019-10-18T05:52:20Z</time>
      </trkpt>
      <trkpt lat="40.69586" lon="-7.81632">
        <ele>553.213</ele>
        <time>2019-10-18T05:52:40Z</time>
      </trkpt>
      <trkpt lat="40.69605" lon="-7.81658">
        <ele>549.808</ele>
        <time>2019-10-18T05:53:00Z</time>
      </trkpt>
      <trkpt lat="40.69625" lon="-7.8169">
        <ele>549.01</ele>
        <time>2019-10-18T05:53:20Z</time>
      </trkpt>
      <trkpt lat="40.69646" lon="-7.81722">
        <ele>548.848</ele>
        <time>2019-10-18T05:53:40Z</time>
      </trkpt>
      <trkpt lat="40.69672" lon="-7.81737">
        <ele>546.16</ele>
        <time>2019-10-18T05:54:00Z</time>
      </trkpt>
      <trkpt lat="40.69691" lon="-7.81731">
        <ele>546.04</ele>
        <time>2019-10-18T05:54:20Z</time>
      </trkpt>
      <trkpt lat="40.69708" lon="-7.81734">
        <ele>544.192</ele>
        <time>2019-10-18T05:54:40Z</time>
      </trkpt>
      <trkpt lat="40.69742" lon="-7.81771">
        <ele>537.643</ele>
        <time>2019-10-18T05:55:00Z</time>
      </trkpt>
      <trkpt lat="40.69751" lon="-7.81786">
        <ele>536.995</ele>
        <time>2019-10-18T05:55:20Z</time>
      </trkpt>
      <trkpt lat="40.69731" lon="-7.81794">
        <ele>537.075</ele>
        <time>2019-10-18T05:55:40Z</time>
      </trkpt>
      <trkpt lat="40.69712" lon="-7.81815">
        <ele>537.698</ele>
        <time>2019-10-18T05:56:00Z</time>
      </trkpt>
      <trkpt lat="40.69691" lon="-7.81859">
        <ele>536.715</ele>
        <time>2019-10-18T05:56:20Z</time>
      </trkpt>
      <trkpt lat="40.69671" lon="-7.81923">
        <ele>530.926</ele>
        <time>2019-10-18T05:56:40Z</time>
      </trkpt>
      <trkpt lat="40.69661" lon="-7.81983">
        <ele>528.708</ele>
        <time>2019-10-18T05:57:00Z</time>
      </trkpt>
      <trkpt lat="40.69643" lon="-7.82021">
        <ele>528.913</ele>
        <time>2019-10-18T05:57:20Z</time>
      </trkpt>
      <trkpt lat="40.69619" lon="-7.82054">
        <ele>528.031</ele>
        <time>2019-10-18T05:57:40Z</time>
      </trkpt>
      <trkpt lat="40.69608" lon="-7.82082">
        <ele>528.683</ele>
        <time>2019-10-18T05:58:00Z</time>
      </trkpt>
      <trkpt lat="40.69589" lon="-7.82116">
        <ele>528.693</ele>
        <time>2019-10-18T05:58:20Z</time>
      </trkpt>
      <trkpt lat="40.69568" lon="-7.82141">
        <ele>528.675</ele>
        <time>2019-10-18T05:58:40Z</time>
      </trkpt>
      <trkpt lat="40.69558" lon="-7.82174">
        <ele>530.516</ele>
        <time>2019-10-18T05:59:00Z</time>
      </trkpt>
      <trkpt lat="40.69552" lon="-7.82203">
        <ele>532.558</ele>
        <time>2019-10-18T05:59:20Z</time>
      </trkpt>
      <trkpt lat="40.6955" lon="-7.82208">
        <ele>532.838</ele>
        <time>2019-10-18T05:59:40Z</time>
      </trkpt>
      <trkpt lat="40.69541" lon="-7.82225">
        <ele>534.311</ele>
        <time>2019-10-18T06:00:00Z</time>
      </trkpt>
      <trkpt lat="40.69538" lon="-7.82261">
        <ele>538.421</ele>
        <time>2019-10-18T06:00:20Z</time>
      </trkpt>
      <trkpt lat="40.6955" lon="-7.82304">
        <ele>541.203</ele>
        <time>2019-10-18T06:00:40Z</time>
      </trkpt>
      <trkpt lat="40.69563" lon="-7.82336">
        <ele>544.408</ele>
        <time>2019-10-18T06:01:00Z</time>
      </trkpt>
      <trkpt lat="40.69582" lon="-7.82364">
        <ele>546.985</ele>
        <time>2019-10-18T06:01:20Z</time>
      </trkpt>
      <trkpt lat="40.69596" lon="-7.82409">
        <ele>548.343</ele>
        <time>2019-10-18T06:01:40Z</time>
      </trkpt>
      <trkpt lat="40.69618" lon="-7.82469">
        <ele>546.215</ele>
        <time>2019-10-18T06:02:00Z</time>
      </trkpt>
      <trkpt lat="40.69626" lon="-7.82482">
        <ele>545.145</ele>
        <time>2019-10-18T06:02:20Z</time>
      </trkpt>
      <trkpt lat="40.69659" lon="-7.82537">
        <ele>537.977</ele>
        <time>2019-10-18T06:02:40Z</time>
      </trkpt>
      <trkpt lat="40.69679" lon="-7.82547">
        <ele>536.218</ele>
        <time>2019-10-18T06:03:00Z</time>
      </trkpt>
      <trkpt lat="40.69693" lon="-7.82565">
        <ele>533.52</ele>
        <time>2019-10-18T06:03:20Z</time>
      </trkpt>
      <trkpt lat="40.69716" lon="-7.82595">
        <ele>528.35</ele>
        <time>2019-10-18T06:03:40Z</time>
      </trkpt>
      <trkpt lat="40.69745" lon="-7.82634">
        <ele>525.414</ele>
        <time>2019-10-18T06:04:00Z</time>
      </trkpt>
      <trkpt lat="40.69758" lon="-7.82688">
        <ele>523.054</ele>
        <time>2019-10-18T06:04:20Z</time>
      </trkpt>
      <trkpt lat="40.69758" lon="-7.827">
        <ele>521.709</ele>
        <time>2019-10-18T06:04:40Z</time>
      </trkpt>
      <trkpt lat="40.6975" lon="-7.82746">
        <ele>513.708</ele>
        <time>2019-10-18T06:05:00Z</time>
      </trkpt>
      <trkpt lat="40.69747" lon="-7.82769">
        <ele>510.375</ele>
        <time>2019-10-18T06:05:20Z</time>
      </trkpt>
      <trkpt lat="40.69751" lon="-7.8281">
        <ele>503.433</ele>
        <time>2019-10-18T06:05:40Z</time>
      </trkpt>
      <trkpt lat="40.69754" lon="-7.82819">
        <ele>502.015</ele>
        <time>2019-10-18T06:06:00Z</time>
      </trkpt>
      <trkpt lat="40.6977" lon="-7.8286">
        <ele>497.355</ele>
        <time>2019-10-18T06:06:20Z</time>
      </trkpt>
      <trkpt lat="40.69779" lon="-7.82879">
        <ele>494.897</ele>
        <time>2019-10-18T06:06:40Z</time>
      </trkpt>
      <trkpt lat="40.69802" lon="-7.82907">
        <ele>490.058</ele>
        <time>2019-10-18T06:07:00Z</time>
      </trkpt>
      <trkpt lat="40.6982" lon="-7.82925">
        <ele>486.04</ele>
        <time>2019-10-18T06:07:20Z</time>
      </trkpt>
      <trkpt lat="40.69834" lon="-7.82945">
        <ele>481.88</ele>
        <time>2019-10-18T06:07:40Z</time>
      </trkpt>
      <trkpt lat="40.69837" lon="-7.82951">
        <ele>480.419</ele>
        <time>2019-10-18T06:08:00Z</time>
      </trkpt>
      <trkpt lat="40.69857" lon="-7.82972">
        <ele>474.609</ele>
        <time>2019-10-18T06:08:20Z</time>
      </trkpt>
      <trkpt lat="40.69863" lon="-7.82974">
        <ele>473.819</ele>
        <time>2019-10-18T06:08:40Z</time>
      </trkpt>
      <trkpt lat="40.69943" lon="-7.82981">
        <ele>477.308</ele>
        <time>2019-10-18T06:09:00Z</time>
      </trkpt>
      <trkpt lat="40.69986" lon="-7.82983">
        <ele>477.755</ele>
        <time>2019-10-18T06:09:20Z</time>
      </trkpt>
      <trkpt lat="40.70029" lon="-7.82986">
        <ele>480.673</ele>
        <time>2019-10-18T06:09:40Z</time>
      </trkpt>
      <trkpt lat="40.7006" lon="-7.82998">
        <ele>482.485</ele>
        <time>2019-10-18T06:10:00Z</time>
      </trkpt>
      <trkpt lat="40.70086" lon="-7.83022">
        <ele>484.365</ele>
        <time>2019-10-18T06:10:20Z</time>
      </trkpt>
      <trkpt lat="40.70091" lon="-7.83026">
        <ele>484.867</ele>
        <time>2019-10-18T06:10:40Z</time>
      </trkpt>
      <trkpt lat="40.7012" lon="-7.83027">
        <ele>487.078</ele>
        <time>2019-10-18T06:11:00Z</time>
      </trkpt>
      <trkpt lat="40.70151" lon="-7.83014">
        <ele>487.98</ele>
        <time>2019-10-18T06:11:20Z</time>
      </trkpt>
      <trkpt lat="40.70173" lon="-7.83">
        <ele>490.74</ele>
        <time>2019-10-18T06:11:40Z</time>
      </trkpt>
      <trkpt lat="40.70193" lon="-7.82988">
        <ele>494.139</ele>
        <time>2019-10-18T06:12:00Z</time>
      </trkpt>
      <trkpt lat="40.70262" lon="-7.83013">
        <ele>494.801</ele>
        <time>2019-10-18T06:12:20Z</time>
      </trkpt>
      <trkpt lat="40.70301" lon="-7.83004">
        <ele>495.121</ele>
        <time>2019-10-18T06:12:40Z</time>
      </trkpt>
      <trkpt lat="40.70346" lon="-7.83062">
        <ele>499.708</ele>
        <time>2019-10-18T06:13:00Z</time>
      </trkpt>
      <trkpt lat="40.70429" lon="-7.83071">
        <ele>507.097</ele>
        <time>2019-10-18T06:13:20Z</time>
      </trkpt>
      <trkpt lat="40.7043" lon="-7.83071">
        <ele>507.195</ele>
        <time>2019-10-18T06:13:40Z</time>
      </trkpt>
      <trkpt lat="40.70443" lon="-7.83106">
        <ele>509.787</ele>
        <time>2019-10-18T06:14:00Z</time>
      </trkpt>
      <trkpt lat="40.70407" lon="-7.83144">
        <ele>511.057</ele>
        <time>2019-10-18T06:14:20Z</time>
      </trkpt>
      <trkpt lat="40.70387" lon="-7.8324">
        <ele>515.899</ele>
        <time>2019-10-18T06:14:40Z</time>
      </trkpt>
      <trkpt lat="40.70362" lon="-7.83286">
        <ele>520.34</ele>
        <time>2019-10-18T06:15:00Z</time>
      </trkpt>
      <trkpt lat="40.7033" lon="-7.83295">
        <ele>519.682</ele>
        <time>2019-10-18T06:15:20Z</time>
      </trkpt>
      <trkpt lat="40.70344" lon="-7.83337">
        <ele>523.612</ele>
        <time>2019-10-18T06:15:40Z</time>
      </trkpt>
      <trkpt lat="40.70391" lon="-7.83364">
        <ele>527.486</ele>
        <time>2019-10-18T06:16:00Z</time>
      </trkpt>
      <trkpt lat="40.70438" lon="-7.83331">
        <ele>530.86</ele>
        <time>2019-10-18T06:16:20Z</time>
      </trkpt>
      <trkpt lat="40.7061" lon="-7.83311">
        <ele>541.726</ele>
        <time>2019-10-18T06:16:40Z</time>
      </trkpt>
      <trkpt lat="40.70618" lon="-7.83353">
        <ele>547.308</ele>
        <time>2019-10-18T06:17:00Z</time>
      </trkpt>
      <trkpt lat="40.70557" lon="-7.83413">
        <ele>550.762</ele>
        <time>2019-10-18T06:17:20Z</time>
      </trkpt>
      <trkpt lat="40.70566" lon="-7.83457">
        <ele>553.93</ele>
        <time>2019-10-18T06:17:40Z</time>
      </trkpt>
      <trkpt lat="40.70607" lon="-7.83479">
        <ele>559.032</ele>
        <time>2019-10-18T06:18:00Z</time>
      </trkpt>
      <trkpt lat="40.70661" lon="-7.83473">
        <ele>563.462</ele>
        <time>2019-10-18T06:18:20Z</time>
      </trkpt>
      <trkpt lat="40.70681" lon="-7.83448">
        <ele>563.394</ele>
        <time>2019-10-18T06:18:40Z</time>
      </trkpt>
      <trkpt lat="40.70724" lon="-7.83446">
        <ele>567.345</ele>
        <time>2019-10-18T06:19:00Z</time>
      </trkpt>
      <trkpt lat="40.70746" lon="-7.83477">
        <ele>572.767</ele>
        <time>2019-10-18T06:19:20Z</time>
      </trkpt>
      <trkpt lat="40.70737" lon="-7.83522">
        <ele>574.357</ele>
        <time>2019-10-18T06:19:40Z</time>
      </trkpt>
      <trkpt lat="40.70791" lon="-7.83615">
        <ele>587.438</ele>
        <time>2019-10-18T06:20:00Z</time>
      </trkpt>
      <trkpt lat="40.70895" lon="-7.83655">
        <ele>594.87</ele>
        <time>2019-10-18T06:20:20Z</time>
      </trkpt>
      <trkpt lat="40.7097" lon="-7.83686">
        <ele>599.217</ele>
        <time>2019-10-18T06:20:40Z</time>
      </trkpt>
      <trkpt lat="40.70999" lon="-7.8367">
        <ele>600.808</ele>
        <time>2019-10-18T06:21:00Z</time>
      </trkpt>
      <trkpt lat="40.71109" lon="-7.83673">
        <ele>617.327</ele>
        <time>2019-10-18T06:21:20Z</time>
      </trkpt>
      <trkpt lat="40.71152" lon="-7.83759">
        <ele>621.585</ele>
        <time>2019-10-18T06:21:40Z</time>
      </trkpt>
      <trkpt lat="40.71154" lon="-7.83775">
        <ele>620.447</ele>
        <time>2019-10-18T06:22:00Z</time>
      </trkpt>
      <trkpt lat="40.71179" lon="-7.83775">
        <ele>623.897</ele>
        <time>2019-10-18T06:22:20Z</time>
      </trkpt>
      <trkpt lat="40.7126" lon="-7.83817">
        <ele>628.849</ele>
        <time>2019-10-18T06:22:40Z</time>
      </trkpt>
      <trkpt lat="40.71275" lon="-7.83816">
        <ele>630.99</ele>
        <time>2019-10-18T06:23:00Z</time>
      </trkpt>
      <trkpt lat="40.71301" lon="-7.83824">
        <ele>633.892</ele>
        <time>2019-10-18T06:23:20Z</time>
      </trkpt>
      <trkpt lat="40.71301" lon="-7.83837">
        <ele>633.122</ele>
        <time>2019-10-18T06:23:40Z</time>
      </trkpt>
      <trkpt lat="40.71309" lon="-7.83872">
        <ele>633.886</ele>
        <time>2019-10-18T06:24:00Z</time>
      </trkpt>
      <trkpt lat="40.71296" lon="-7.84022">
        <ele>646.76</ele>
        <time>2019-10-18T06:24:20Z</time>
      </trkpt>
      <trkpt lat="40.71261" lon="-7.84215">
        <ele>649.926</ele>
        <time>2019-10-18T06:24:40Z</time>
      </trkpt>
      <trkpt lat="40.71296" lon="-7.84391">
        <ele>651.908</ele>
        <time>2019-10-18T06:25:00Z</time>
      </trkpt>
      <trkpt lat="40.71259" lon="-7.84398">
        <ele>647.652</ele>
        <time>2019-10-18T06:25:20Z</time>
      </trkpt>
      <trkpt lat="40.7124" lon="-7.84458">
        <ele>641.88</ele>
        <time>2019-10-18T06:25:40Z</time>
      </trkpt>
      <trkpt lat="40.71361" lon="-7.84601">
        <ele>644.132</ele>
        <time>2019-10-18T06:26:00Z</time>
      </trkpt>
      <trkpt lat="40.71402" lon="-7.84758">
        <ele>641.772</ele>
        <time>2019-10-18T06:26:20Z</time>
      </trkpt>
      <trkpt lat="40.71412" lon="-7.84898">
        <ele>642.034</ele>
        <time>2019-10-18T06:26:40Z</time>
      </trkpt>
      <trkpt lat="40.71539" lon="-7.85188">
        <ele>624.395</ele>
        <time>2019-10-18T06:27:00Z</time>
      </trkpt>
      <trkpt lat="40.71561" lon="-7.85414">
        <ele>621.837</ele>
        <time>2019-10-18T06:27:20Z</time>
      </trkpt>
      <trkpt lat="40.7152" lon="-7.85548">
        <ele>622.357</ele>
        <time>2019-10-18T06:27:40Z</time>
      </trkpt>
      <trkpt lat="40.71552" lon="-7.85701">
        <ele>621.249</ele>
        <time>2019-10-18T06:28:00Z</time>
      </trkpt>
      <trkpt lat="40.71614" lon="-7.85814">
        <ele>626.702</ele>
        <time>2019-10-18T06:28:20Z</time>
      </trkpt>
      <trkpt lat="40.71655" lon="-7.85794">
        <ele>627.322</ele>
        <time>2019-10-18T06:28:40Z</time>
      </trkpt>
      <trkpt lat="40.71687" lon="-7.85831">
        <ele>630.508</ele>
        <time>2019-10-18T06:29:00Z</time>
      </trkpt>
      <trkpt lat="40.71763" lon="-7.85781">
        <ele>634.678</ele>
        <time>2019-10-18T06:29:20Z</time>
      </trkpt>
      <trkpt lat="40.71749" lon="-7.85847">
        <ele>636.426</ele>
        <time>2019-10-18T06:29:40Z</time>
      </trkpt>
      <trkpt lat="40.71784" lon="-7.85937">
        <ele>638.968</ele>
        <time>2019-10-18T06:30:00Z</time>
      </trkpt>
      <trkpt lat="40.71765" lon="-7.86117">
        <ele>648.098</ele>
        <time>2019-10-18T06:30:20Z</time>
      </trkpt>
      <trkpt lat="40.71803" lon="-7.86211">
        <ele>657.41</ele>
        <time>2019-10-18T06:30:40Z</time>
      </trkpt>
      <trkpt lat="40.71954" lon="-7.86291">
        <ele>662.331</ele>
        <time>2019-10-18T06:31:00Z</time>
      </trkpt>
      <trkpt lat="40.72116" lon="-7.86554">
        <ele>664.773</ele>
        <time>2019-10-18T06:31:20Z</time>
      </trkpt>
      <trkpt lat="40.72218" lon="-7.86657">
        <ele>655.913</ele>
        <time>2019-10-18T06:31:40Z</time>
      </trkpt>
      <trkpt lat="40.72323" lon="-7.8668">
        <ele>648.766</ele>
        <time>2019-10-18T06:32:00Z</time>
      </trkpt>
      <trkpt lat="40.72383" lon="-7.86754">
        <ele>645.529</ele>
        <time>2019-10-18T06:32:20Z</time>
      </trkpt>
      <trkpt lat="40.72412" lon="-7.8685">
        <ele>643.021</ele>
        <time>2019-10-18T06:32:40Z</time>
      </trkpt>
      <trkpt lat="40.72377" lon="-7.87033">
        <ele>641.908</ele>
        <time>2019-10-18T06:33:00Z</time>
      </trkpt>
      <trkpt lat="40.72385" lon="-7.8706">
        <ele>641.42</ele>
        <time>2019-10-18T06:33:20Z</time>
      </trkpt>
      <trkpt lat="40.72383" lon="-7.871">
        <ele>639.618</ele>
        <time>2019-10-18T06:33:40Z</time>
      </trkpt>
      <trkpt lat="40.7239" lon="-7.87132">
        <ele>640.03</ele>
        <time>2019-10-18T06:34:00Z</time>
      </trkpt>
      <trkpt lat="40.72391" lon="-7.87164">
        <ele>639.06</ele>
        <time>2019-10-18T06:34:20Z</time>
      </trkpt>
      <trkpt lat="40.72392" lon="-7.87201">
        <ele>638.082</ele>
        <time>2019-10-18T06:34:40Z</time>
      </trkpt>
      <trkpt lat="40.72395" lon="-7.87236">
        <ele>638.533</ele>
        <time>2019-10-18T06:35:00Z</time>
      </trkpt>
      <trkpt lat="40.72398" lon="-7.8728">
        <ele>639.485</ele>
        <time>2019-10-18T06:35:20Z</time>
      </trkpt>
      <trkpt lat="40.72401" lon="-7.87319">
        <ele>641.345</ele>
        <time>2019-10-18T06:35:40Z</time>
      </trkpt>
      <trkpt lat="40.72404" lon="-7.87375">
        <ele>644.575</ele>
        <time>2019-10-18T06:36:00Z</time>
      </trkpt>
      <trkpt lat="40.72406" lon="-7.87411">
        <ele>645.828</ele>
        <time>2019-10-18T06:36:20Z</time>
      </trkpt>
      <trkpt lat="40.7241" lon="-7.87447">
        <ele>647.42</ele>
        <time>2019-10-18T06:36:40Z</time>
      </trkpt>
      <trkpt lat="40.72412" lon="-7.87486">
        <ele>649.308</ele>
        <time>2019-10-18T06:37:00Z</time>
      </trkpt>
      <trkpt lat="40.72415" lon="-7.87523">
        <ele>651.971</ele>
        <time>2019-10-18T06:37:20Z</time>
      </trkpt>
      <trkpt lat="40.72418" lon="-7.87558">
        <ele>655.149</ele>
        <time>2019-10-18T06:37:40Z</time>
      </trkpt>
      <trkpt lat="40.72415" lon="-7.87596">
        <ele>658.071</ele>
        <time>2019-10-18T06:38:00Z</time>
      </trkpt>
      <trkpt lat="40.72406" lon="-7.87626">
        <ele>659.931</ele>
        <time>2019-10-18T06:38:20Z</time>
      </trkpt>
      <trkpt lat="40.72398" lon="-7.87646">
        <ele>660.563</ele>
        <time>2019-10-18T06:38:40Z</time>
      </trkpt>
      <trkpt lat="40.72388" lon="-7.87689">
        <ele>661.814</ele>
        <time>2019-10-18T06:39:00Z</time>
      </trkpt>
      <trkpt lat="40.72382" lon="-7.87705">
        <ele>662.036</ele>
        <time>2019-10-18T06:39:20Z</time>
      </trkpt>
      <trkpt lat="40.72378" lon="-7.87721">
        <ele>662.016</ele>
        <time>2019-10-18T06:39:40Z</time>
      </trkpt>
      <trkpt lat="40.72355" lon="-7.8779">
        <ele>661.958</ele>
        <time>2019-10-18T06:40:00Z</time>
      </trkpt>
      <trkpt lat="40.72353" lon="-7.87797">
        <ele>662.052</ele>
        <time>2019-10-18T06:40:20Z</time>
      </trkpt>
      <trkpt lat="40.72352" lon="-7.8783">
        <ele>659.717</ele>
        <time>2019-10-18T06:40:40Z</time>
      </trkpt>
      <trkpt lat="40.7236" lon="-7.87856">
        <ele>656.608</ele>
        <time>2019-10-18T06:41:00Z</time>
      </trkpt>
      <trkpt lat="40.72378" lon="-7.87904">
        <ele>651.179</ele>
        <time>2019-10-18T06:41:20Z</time>
      </trkpt>
      <trkpt lat="40.72398" lon="-7.87944">
        <ele>645.877</ele>
        <time>2019-10-18T06:41:40Z</time>
      </trkpt>
      <trkpt lat="40.72432" lon="-7.87975">
        <ele>643.879</ele>
        <time>2019-10-18T06:42:00Z</time>
      </trkpt>
      <trkpt lat="40.72446" lon="-7.87986">
        <ele>643.569</ele>
        <time>2019-10-18T06:42:20Z</time>
      </trkpt>
      <trkpt lat="40.72466" lon="-7.8802">
        <ele>641.641</ele>
        <time>2019-10-18T06:42:40Z</time>
      </trkpt>
      <trkpt lat="40.72481" lon="-7.88121">
        <ele>642.152</ele>
        <time>2019-10-18T06:43:00Z</time>
      </trkpt>
      <trkpt lat="40.72491" lon="-7.88191">
        <ele>643.434</ele>
        <time>2019-10-18T06:43:20Z</time>
      </trkpt>
      <trkpt lat="40.72498" lon="-7.88248">
        <ele>641.284</ele>
        <time>2019-10-18T06:43:40Z</time>
      </trkpt>
      <trkpt lat="40.72536" lon="-7.88282">
        <ele>638.938</ele>
        <time>2019-10-18T06:44:00Z</time>
      </trkpt>
      <trkpt lat="40.72554" lon="-7.88299">
        <ele>638.27</ele>
        <time>2019-10-18T06:44:20Z</time>
      </trkpt>
      <trkpt lat="40.72571" lon="-7.88315">
        <ele>637.117</ele>
        <time>2019-10-18T06:44:40Z</time>
      </trkpt>
      <trkpt lat="40.72614" lon="-7.88358">
        <ele>634.008</ele>
        <time>2019-10-18T06:45:00Z</time>
      </trkpt>
      <trkpt lat="40.72663" lon="-7.88387">
        <ele>627.587</ele>
        <time>2019-10-18T06:45:20Z</time>
      </trkpt>
      <trkpt lat="40.72702" lon="-7.88389">
        <ele>625.025</ele>
        <time>2019-10-18T06:45:40Z</time>
      </trkpt>
      <trkpt lat="40.72715" lon="-7.88401">
        <ele>625.037</ele>
        <time>2019-10-18T06:46:00Z</time>
      </trkpt>
      <trkpt lat="40.72756" lon="-7.88465">
        <ele>623.177</ele>
        <time>2019-10-18T06:46:20Z</time>
      </trkpt>
      <trkpt lat="40.72763" lon="-7.8851">
        <ele>624.649</ele>
        <time>2019-10-18T06:46:40Z</time>
      </trkpt>
      <trkpt lat="40.72761" lon="-7.88527">
        <ele>625.69</ele>
        <time>2019-10-18T06:47:00Z</time>
      </trkpt>
      <trkpt lat="40.72751" lon="-7.88554">
        <ele>626.042</ele>
        <time>2019-10-18T06:47:20Z</time>
      </trkpt>
      <trkpt lat="40.72742" lon="-7.88578">
        <ele>625.522</ele>
        <time>2019-10-18T06:47:40Z</time>
      </trkpt>
      <trkpt lat="40.72741" lon="-7.88617">
        <ele>624.127</ele>
        <time>2019-10-18T06:48:00Z</time>
      </trkpt>
      <trkpt lat="40.72751" lon="-7.88641">
        <ele>625.168</ele>
        <time>2019-10-18T06:48:20Z</time>
      </trkpt>
      <trkpt lat="40.72794" lon="-7.88671">
        <ele>625.014</ele>
        <time>2019-10-18T06:48:40Z</time>
      </trkpt>
      <trkpt lat="40.7281" lon="-7.88685">
        <ele>625.008</ele>
        <time>2019-10-18T06:49:00Z</time>
      </trkpt>
      <trkpt lat="40.72822" lon="-7.88711">
        <ele>625.026</ele>
        <time>2019-10-18T06:49:20Z</time>
      </trkpt>
      <trkpt lat="40.72837" lon="-7.88747">
        <ele>624.924</ele>
        <time>2019-10-18T06:49:40Z</time>
      </trkpt>
      <trkpt lat="40.72842" lon="-7.88763">
        <ele>624.426</ele>
        <time>2019-10-18T06:50:00Z</time>
      </trkpt>
      <trkpt lat="40.72863" lon="-7.88809">
        <ele>623.916</ele>
        <time>2019-10-18T06:50:20Z</time>
      </trkpt>
      <trkpt lat="40.72867" lon="-7.88819">
        <ele>623.818</ele>
        <time>2019-10-18T06:50:40Z</time>
      </trkpt>
      <trkpt lat="40.72872" lon="-7.88828">
        <ele>623.689</ele>
        <time>2019-10-18T06:51:00Z</time>
      </trkpt>
      <trkpt lat="40.72894" lon="-7.88845">
        <ele>622.831</ele>
        <time>2019-10-18T06:51:20Z</time>
      </trkpt>
      <trkpt lat="40.72972" lon="-7.88853">
        <ele>623.031</ele>
        <time>2019-10-18T06:51:40Z</time>
      </trkpt>
      <trkpt lat="40.73008" lon="-7.88857">
        <ele>623.193</ele>
        <time>2019-10-18T06:52:00Z</time>
      </trkpt>
      <trkpt lat="40.73085" lon="-7.88865">
        <ele>621.965</ele>
        <time>2019-10-18T06:52:20Z</time>
      </trkpt>
      <trkpt lat="40.73115" lon="-7.88901">
        <ele>621.521</ele>
        <time>2019-10-18T06:52:40Z</time>
      </trkpt>
      <trkpt lat="40.73115" lon="-7.88953">
        <ele>620.808</ele>
        <time>2019-10-18T06:53:00Z</time>
      </trkpt>
      <trkpt lat="40.73111" lon="-7.88974">
        <ele>620.933</ele>
        <time>2019-10-18T06:53:20Z</time>
      </trkpt>
      <trkpt lat="40.73097" lon="-7.89045">
        <ele>620.871</ele>
        <time>2019-10-18T06:53:40Z</time>
      </trkpt>
      <trkpt lat="40.73104" lon="-7.89072">
        <ele>621.273</ele>
        <time>2019-10-18T06:54:00Z</time>
      </trkpt>
      <trkpt lat="40.7311" lon="-7.89085">
        <ele>621.123</ele>
        <time>2019-10-18T06:54:20Z</time>
      </trkpt>
      <trkpt lat="40.73122" lon="-7.89121">
        <ele>621.345</ele>
        <time>2019-10-18T06:54:40Z</time>
      </trkpt>
      <trkpt lat="40.73126" lon="-7.89131">
        <ele>621.386</ele>
        <time>2019-10-18T06:55:00Z</time>
      </trkpt>
      <trkpt lat="40.73143" lon="-7.89203">
        <ele>621.358</ele>
        <time>2019-10-18T06:55:20Z</time>
      </trkpt>
      <trkpt lat="40.73156" lon="-7.89223">
        <ele>621.438</ele>
        <time>2019-10-18T06:55:40Z</time>
      </trkpt>
      <trkpt lat="40.73169" lon="-7.89258">
        <ele>620.557</ele>
        <time>2019-10-18T06:56:00Z</time>
      </trkpt>
      <trkpt lat="40.73159" lon="-7.8929">
        <ele>620.3</ele>
        <time>2019-10-18T06:56:20Z</time>
      </trkpt>
      <trkpt lat="40.73156" lon="-7.89348">
        <ele>618.42</ele>
        <time>2019-10-18T06:56:40Z</time>
      </trkpt>
      <trkpt lat="40.73157" lon="-7.89359">
        <ele>618.308</ele>
        <time>2019-10-18T06:57:00Z</time>
      </trkpt>
      <trkpt lat="40.73156" lon="-7.89413">
        <ele>619.369</ele>
        <time>2019-10-18T06:57:20Z</time>
      </trkpt>
      <trkpt lat="40.73141" lon="-7.89476">
        <ele>614.867</ele>
        <time>2019-10-18T06:57:40Z</time>
      </trkpt>
      <trkpt lat="40.73113" lon="-7.89545">
        <ele>614.329</ele>
        <time>2019-10-18T06:58:00Z</time>
      </trkpt>
      <trkpt lat="40.73079" lon="-7.89612">
        <ele>613.049</ele>
        <time>2019-10-18T06:58:20Z</time>
      </trkpt>
      <trkpt lat="40.73064" lon="-7.8964">
        <ele>612.781</ele>
        <time>2019-10-18T06:58:40Z</time>
      </trkpt>
      <trkpt lat="40.73015" lon="-7.89693">
        <ele>613.432</ele>
        <time>2019-10-18T06:59:00Z</time>
      </trkpt>
      <trkpt lat="40.73007" lon="-7.89713">
        <ele>613.364</ele>
        <time>2019-10-18T06:59:20Z</time>
      </trkpt>
      <trkpt lat="40.72999" lon="-7.89759">
        <ele>611.774</ele>
        <time>2019-10-18T06:59:40Z</time>
      </trkpt>
      <trkpt lat="40.73" lon="-7.89798">
        <ele>611.093</ele>
        <time>2019-10-18T07:00:00Z</time>
      </trkpt>
      <trkpt lat="40.73007" lon="-7.89847">
        <ele>608.565</ele>
        <time>2019-10-18T07:00:20Z</time>
      </trkpt>
      <trkpt lat="40.73007" lon="-7.89873">
        <ele>607.621</ele>
        <time>2019-10-18T07:00:40Z</time>
      </trkpt>
      <trkpt lat="40.73003" lon="-7.89924">
        <ele>606.908</ele>
        <time>2019-10-18T07:01:00Z</time>
      </trkpt>
      <trkpt lat="40.72989" lon="-7.90028">
        <ele>606.413</ele>
        <time>2019-10-18T07:01:20Z</time>
      </trkpt>
      <trkpt lat="40.72976" lon="-7.9012">
        <ele>606.181</ele>
        <time>2019-10-18T07:01:40Z</time>
      </trkpt>
      <trkpt lat="40.72949" lon="-7.90252">
        <ele>608.863</ele>
        <time>2019-10-18T07:02:00Z</time>
      </trkpt>
      <trkpt lat="40.72946" lon="-7.90263">
        <ele>608.933</ele>
        <time>2019-10-18T07:02:20Z</time>
      </trkpt>
      <trkpt lat="40.7292" lon="-7.90358">
        <ele>611.135</ele>
        <time>2019-10-18T07:02:40Z</time>
      </trkpt>
      <trkpt lat="40.72906" lon="-7.90411">
        <ele>611.026</ele>
        <time>2019-10-18T07:03:00Z</time>
      </trkpt>
      <trkpt lat="40.72878" lon="-7.90529">
        <ele>609.348</ele>
        <time>2019-10-18T07:03:20Z</time>
      </trkpt>
      <trkpt lat="40.72853" lon="-7.90636">
        <ele>605.148</ele>
        <time>2019-10-18T07:03:40Z</time>
      </trkpt>
      <trkpt lat="40.72833" lon="-7.9072">
        <ele>608.048</ele>
        <time>2019-10-18T07:04:00Z</time>
      </trkpt>
      <trkpt lat="40.72828" lon="-7.90737">
        <ele>606.961</ele>
        <time>2019-10-18T07:04:20Z</time>
      </trkpt>
      <trkpt lat="40.72825" lon="-7.9075">
        <ele>606.017</ele>
        <time>2019-10-18T07:04:40Z</time>
      </trkpt>
      <trkpt lat="40.72824" lon="-7.90768">
        <ele>604.908</ele>
        <time>2019-10-18T07:05:00Z</time>
      </trkpt>
      <trkpt lat="40.72811" lon="-7.90836">
        <ele>604.098</ele>
        <time>2019-10-18T07:05:20Z</time>
      </trkpt>
      <trkpt lat="40.72801" lon="-7.90917">
        <ele>601.056</ele>
        <time>2019-10-18T07:05:40Z</time>
      </trkpt>
      <trkpt lat="40.72794" lon="-7.90953">
        <ele>600.158</ele>
        <time>2019-10-18T07:06:00Z</time>
      </trkpt>
      <trkpt lat="40.7279" lon="-7.91059">
        <ele>600.198</ele>
        <time>2019-10-18T07:06:20Z</time>
      </trkpt>
      <trkpt lat="40.7279" lon="-7.91113">
        <ele>600.42</ele>
        <time>2019-10-18T07:06:40Z</time>
      </trkpt>
      <trkpt lat="40.72787" lon="-7.91186">
        <ele>599.521</ele>
        <time>2019-10-18T07:07:00Z</time>
      </trkpt>
      <trkpt lat="40.72786" lon="-7.9128">
        <ele>603.933</ele>
        <time>2019-10-18T07:07:20Z</time>
      </trkpt>
      <trkpt lat="40.72779" lon="-7.91393">
        <ele>599.023</ele>
        <time>2019-10-18T07:07:40Z</time>
      </trkpt>
      <trkpt lat="40.72767" lon="-7.91487">
        <ele>598.722</ele>
        <time>2019-10-18T07:08:00Z</time>
      </trkpt>
      <trkpt lat="40.72772" lon="-7.91574">
        <ele>597.162</ele>
        <time>2019-10-18T07:08:20Z</time>
      </trkpt>
      <trkpt lat="40.72779" lon="-7.91644">
        <ele>594.808</ele>
        <time>2019-10-18T07:08:40Z</time>
      </trkpt>
      <trkpt lat="40.72795" lon="-7.91708">
        <ele>592.908</ele>
        <time>2019-10-18T07:09:00Z</time>
      </trkpt>
      <trkpt lat="40.7281" lon="-7.91789">
        <ele>589.686</ele>
        <time>2019-10-18T07:09:20Z</time>
      </trkpt>
      <trkpt lat="40.72808" lon="-7.91865">
        <ele>586.964</ele>
        <time>2019-10-18T07:09:40Z</time>
      </trkpt>
      <trkpt lat="40.72807" lon="-7.91886">
        <ele>586.276</ele>
        <time>2019-10-18T07:10:00Z</time>
      </trkpt>
      <trkpt lat="40.72815" lon="-7.91944">
        <ele>583.796</ele>
        <time>2019-10-18T07:10:20Z</time>
      </trkpt>
      <trkpt lat="40.72842" lon="-7.91988">
        <ele>583.618</ele>
        <time>2019-10-18T07:10:40Z</time>
      </trkpt>
      <trkpt lat="40.72884" lon="-7.92026">
        <ele>583.849</ele>
        <time>2019-10-18T07:11:00Z</time>
      </trkpt>
      <trkpt lat="40.72891" lon="-7.92034">
        <ele>584.251</ele>
        <time>2019-10-18T07:11:20Z</time>
      </trkpt>
      <trkpt lat="40.72917" lon="-7.92119">
        <ele>586.761</ele>
        <time>2019-10-18T07:11:40Z</time>
      </trkpt>
      <trkpt lat="40.72925" lon="-7.92215">
        <ele>583.256</ele>
        <time>2019-10-18T07:12:00Z</time>
      </trkpt>
      <trkpt lat="40.72931" lon="-7.92311">
        <ele>583.159</ele>
        <time>2019-10-18T07:12:20Z</time>
      </trkpt>
      <trkpt lat="40.7293" lon="-7.92383">
        <ele>586.414</ele>
        <time>2019-10-18T07:12:40Z</time>
      </trkpt>
      <trkpt lat="40.72919" lon="-7.92448">
        <ele>588.808</ele>
        <time>2019-10-18T07:13:00Z</time>
      </trkpt>
      <trkpt lat="40.72891" lon="-7.92515">
        <ele>589.919</ele>
        <time>2019-10-18T07:13:20Z</time>
      </trkpt>
      <trkpt lat="40.7287" lon="-7.92552">
        <ele>588.397</ele>
        <time>2019-10-18T07:13:40Z</time>
      </trkpt>
      <trkpt lat="40.72834" lon="-7.92624">
        <ele>583.699</ele>
        <time>2019-10-18T07:14:00Z</time>
      </trkpt>
      <trkpt lat="40.72815" lon="-7.92673">
        <ele>581.659</ele>
        <time>2019-10-18T07:14:20Z</time>
      </trkpt>
      <trkpt lat="40.72803" lon="-7.92732">
        <ele>580.981</ele>
        <time>2019-10-18T07:14:40Z</time>
      </trkpt>
      <trkpt lat="40.72796" lon="-7.92839">
        <ele>581.072</ele>
        <time>2019-10-18T07:15:00Z</time>
      </trkpt>
      <trkpt lat="40.72794" lon="-7.92863">
        <ele>581.064</ele>
        <time>2019-10-18T07:15:20Z</time>
      </trkpt>
      <trkpt lat="40.72792" lon="-7.92881">
        <ele>580.734</ele>
        <time>2019-10-18T07:15:40Z</time>
      </trkpt>
      <trkpt lat="40.72788" lon="-7.92937">
        <ele>579.933</ele>
        <time>2019-10-18T07:16:00Z</time>
      </trkpt>
      <trkpt lat="40.72783" lon="-7.93007">
        <ele>584.923</ele>
        <time>2019-10-18T07:16:20Z</time>
      </trkpt>
      <trkpt lat="40.72781" lon="-7.93025">
        <ele>585.215</ele>
        <time>2019-10-18T07:16:40Z</time>
      </trkpt>
      <trkpt lat="40.72784" lon="-7.93094">
        <ele>584.308</ele>
        <time>2019-10-18T07:17:00Z</time>
      </trkpt>
      <trkpt lat="40.72808" lon="-7.93185">
        <ele>582.827</ele>
        <time>2019-10-18T07:17:20Z</time>
      </trkpt>
      <trkpt lat="40.72834" lon="-7.93275">
        <ele>578.285</ele>
        <time>2019-10-18T07:17:40Z</time>
      </trkpt>
      <trkpt lat="40.72884" lon="-7.93363">
        <ele>578.777</ele>
        <time>2019-10-18T07:18:00Z</time>
      </trkpt>
      <trkpt lat="40.72904" lon="-7.9339">
        <ele>577.067</ele>
        <time>2019-10-18T07:18:20Z</time>
      </trkpt>
      <trkpt lat="40.72909" lon="-7.934">
        <ele>576.969</ele>
        <time>2019-10-18T07:18:40Z</time>
      </trkpt>
      <trkpt lat="40.72931" lon="-7.93429">
        <ele>577.73</ele>
        <time>2019-10-18T07:19:00Z</time>
      </trkpt>
      <trkpt lat="40.72939" lon="-7.93443">
        <ele>578.022</ele>
        <time>2019-10-18T07:19:20Z</time>
      </trkpt>
      <trkpt lat="40.72956" lon="-7.93472">
        <ele>577.222</ele>
        <time>2019-10-18T07:19:40Z</time>
      </trkpt>
      <trkpt lat="40.72971" lon="-7.93497">
        <ele>575.248</ele>
        <time>2019-10-18T07:20:00Z</time>
      </trkpt>
      <trkpt lat="40.73028" lon="-7.93594">
        <ele>579.461</ele>
        <time>2019-10-18T07:20:20Z</time>
      </trkpt>
      <trkpt lat="40.73071" lon="-7.93658">
        <ele>580.317</ele>
        <time>2019-10-18T07:20:40Z</time>
      </trkpt>
      <trkpt lat="40.73126" lon="-7.93718">
        <ele>582.808</ele>
        <time>2019-10-18T07:21:00Z</time>
      </trkpt>
      <trkpt lat="40.73155" lon="-7.93743">
        <ele>584.638</ele>
        <time>2019-10-18T07:21:20Z</time>
      </trkpt>
      <trkpt lat="40.7318" lon="-7.93765">
        <ele>586.196</ele>
        <time>2019-10-18T07:21:40Z</time>
      </trkpt>
      <trkpt lat="40.73224" lon="-7.93808">
        <ele>588.178</ele>
        <time>2019-10-18T07:22:00Z</time>
      </trkpt>
      <trkpt lat="40.73267" lon="-7.93849">
        <ele>592.068</ele>
        <time>2019-10-18T07:22:20Z</time>
      </trkpt>
      <trkpt lat="40.73308" lon="-7.93889">
        <ele>593.96</ele>
        <time>2019-10-18T07:22:40Z</time>
      </trkpt>
      <trkpt lat="40.73314" lon="-7.93902">
        <ele>593.761</ele>
        <time>2019-10-18T07:23:00Z</time>
      </trkpt>
      <trkpt lat="40.73314" lon="-7.93918">
        <ele>593.773</ele>
        <time>2019-10-18T07:23:20Z</time>
      </trkpt>
      <trkpt lat="40.73322" lon="-7.93968">
        <ele>593.143</ele>
        <time>2019-10-18T07:23:40Z</time>
      </trkpt>
      <trkpt lat="40.73328" lon="-7.9403">
        <ele>594.976</ele>
        <time>2019-10-18T07:24:00Z</time>
      </trkpt>
      <trkpt lat="40.73311" lon="-7.94068">
        <ele>595.19</ele>
        <time>2019-10-18T07:24:20Z</time>
      </trkpt>
      <trkpt lat="40.73293" lon="-7.94119">
        <ele>593.719</ele>
        <time>2019-10-18T07:24:40Z</time>
      </trkpt>
      <trkpt lat="40.7329" lon="-7.94139">
        <ele>593.008</ele>
        <time>2019-10-18T07:25:00Z</time>
      </trkpt>
      <trkpt lat="40.73206" lon="-7.9445">
        <ele>584.461</ele>
        <time>2019-10-18T07:25:20Z</time>
      </trkpt>
      <trkpt lat="40.73228" lon="-7.94559">
        <ele>581.989</ele>
        <time>2019-10-18T07:25:40Z</time>
      </trkpt>
      <trkpt lat="40.73232" lon="-7.94669">
        <ele>580.031</ele>
        <time>2019-10-18T07:26:00Z</time>
      </trkpt>
      <trkpt lat="40.73248" lon="-7.94764">
        <ele>578.551</ele>
        <time>2019-10-18T07:26:20Z</time>
      </trkpt>
      <trkpt lat="40.7332" lon="-7.94847">
        <ele>573.713</ele>
        <time>2019-10-18T07:26:40Z</time>
      </trkpt>
      <trkpt lat="40.7336" lon="-7.94795">
        <ele>571.544</ele>
        <time>2019-10-18T07:27:00Z</time>
      </trkpt>
      <trkpt lat="40.734" lon="-7.94747">
        <ele>570.466</ele>
        <time>2019-10-18T07:27:20Z</time>
      </trkpt>
      <trkpt lat="40.73424" lon="-7.94742">
        <ele>569.046</ele>
        <time>2019-10-18T07:27:40Z</time>
      </trkpt>
      <trkpt lat="40.73461" lon="-7.94759">
        <ele>566.051</ele>
        <time>2019-10-18T07:28:00Z</time>
      </trkpt>
      <trkpt lat="40.73508" lon="-7.9475">
        <ele>565.001</ele>
        <time>2019-10-18T07:28:20Z</time>
      </trkpt>
      <trkpt lat="40.7356" lon="-7.94804">
        <ele>560.911</ele>
        <time>2019-10-18T07:28:40Z</time>
      </trkpt>
      <trkpt lat="40.73602" lon="-7.94814">
        <ele>559.608</ele>
        <time>2019-10-18T07:29:00Z</time>
      </trkpt>
      <trkpt lat="40.73626" lon="-7.94782">
        <ele>562.789</ele>
        <time>2019-10-18T07:29:20Z</time>
      </trkpt>
      <trkpt lat="40.73665" lon="-7.94772">
        <ele>561.547</ele>
        <time>2019-10-18T07:29:40Z</time>
      </trkpt>
      <trkpt lat="40.73621" lon="-7.94857">
        <ele>553.789</ele>
        <time>2019-10-18T07:30:00Z</time>
      </trkpt>
      <trkpt lat="40.73594" lon="-7.94937">
        <ele>547.279</ele>
        <time>2019-10-18T07:30:20Z</time>
      </trkpt>
      <trkpt lat="40.73599" lon="-7.95012">
        <ele>550.911</ele>
        <time>2019-10-18T07:30:40Z</time>
      </trkpt>
      <trkpt lat="40.73614" lon="-7.95052">
        <ele>548.122</ele>
        <time>2019-10-18T07:31:00Z</time>
      </trkpt>
      <trkpt lat="40.73603" lon="-7.95088">
        <ele>548.094</ele>
        <time>2019-10-18T07:31:20Z</time>
      </trkpt>
      <trkpt lat="40.7362" lon="-7.95145">
        <ele>547.184</ele>
        <time>2019-10-18T07:31:40Z</time>
      </trkpt>
      <trkpt lat="40.73649" lon="-7.95175">
        <ele>543.913</ele>
        <time>2019-10-18T07:32:00Z</time>
      </trkpt>
      <trkpt lat="40.73664" lon="-7.95218">
        <ele>543.143</ele>
        <time>2019-10-18T07:32:20Z</time>
      </trkpt>
      <trkpt lat="40.73717" lon="-7.95228">
        <ele>542.307</ele>
        <time>2019-10-18T07:32:40Z</time>
      </trkpt>
      <trkpt lat="40.73734" lon="-7.95265">
        <ele>543.708</ele>
        <time>2019-10-18T07:33:00Z</time>
      </trkpt>
      <trkpt lat="40.73746" lon="-7.95313">
        <ele>543.345</ele>
        <time>2019-10-18T07:33:20Z</time>
      </trkpt>
      <trkpt lat="40.738" lon="-7.95365">
        <ele>540.073</ele>
        <time>2019-10-18T07:33:40Z</time>
      </trkpt>
      <trkpt lat="40.73824" lon="-7.95395">
        <ele>536.895</ele>
        <time>2019-10-18T07:34:00Z</time>
      </trkpt>
      <trkpt lat="40.73845" lon="-7.95397">
        <ele>535.645</ele>
        <time>2019-10-18T07:34:20Z</time>
      </trkpt>
      <trkpt lat="40.73997" lon="-7.95393">
        <ele>529.297</ele>
        <time>2019-10-18T07:34:40Z</time>
      </trkpt>
      <trkpt lat="40.7407" lon="-7.95387">
        <ele>527.998</ele>
        <time>2019-10-18T07:35:00Z</time>
      </trkpt>
      <trkpt lat="40.7416" lon="-7.95408">
        <ele>528.99</ele>
        <time>2019-10-18T07:35:20Z</time>
      </trkpt>
      <trkpt lat="40.74188" lon="-7.95401">
        <ele>528.93</ele>
        <time>2019-10-18T07:35:40Z</time>
      </trkpt>
      <trkpt lat="40.74219" lon="-7.95475">
        <ele>533.193</ele>
        <time>2019-10-18T07:36:00Z</time>
      </trkpt>
      <trkpt lat="40.7425" lon="-7.95498">
        <ele>533.065</ele>
        <time>2019-10-18T07:36:20Z</time>
      </trkpt>
      <trkpt lat="40.74266" lon="-7.95546">
        <ele>535.821</ele>
        <time>2019-10-18T07:36:40Z</time>
      </trkpt>
      <trkpt lat="40.74318" lon="-7.9556">
        <ele>532.108</ele>
        <time>2019-10-18T07:37:00Z</time>
      </trkpt>
      <trkpt lat="40.74369" lon="-7.95548">
        <ele>527.083</ele>
        <time>2019-10-18T07:37:20Z</time>
      </trkpt>
      <trkpt lat="40.74376" lon="-7.9555">
        <ele>526.641</ele>
        <time>2019-10-18T07:37:40Z</time>
      </trkpt>
      <trkpt lat="40.74383" lon="-7.95558">
        <ele>526.543</ele>
        <time>2019-10-18T07:38:00Z</time>
      </trkpt>
      <trkpt lat="40.74394" lon="-7.95571">
        <ele>526.433</ele>
        <time>2019-10-18T07:38:20Z</time>
      </trkpt>
      <trkpt lat="40.74411" lon="-7.9558">
        <ele>524.795</ele>
        <time>2019-10-18T07:38:40Z</time>
      </trkpt>
      <trkpt lat="40.74438" lon="-7.95594">
        <ele>520.536</ele>
        <time>2019-10-18T07:39:00Z</time>
      </trkpt>
      <trkpt lat="40.74446" lon="-7.95593">
        <ele>519.298</ele>
        <time>2019-10-18T07:39:20Z</time>
      </trkpt>
      <trkpt lat="40.74447" lon="-7.95601">
        <ele>519.298</ele>
        <time>2019-10-18T07:39:40Z</time>
      </trkpt>
      <trkpt lat="40.74455" lon="-7.95609">
        <ele>518.189</ele>
        <time>2019-10-18T07:40:00Z</time>
      </trkpt>
      <trkpt lat="40.74484" lon="-7.95665">
        <ele>515.706</ele>
        <time>2019-10-18T07:40:20Z</time>
      </trkpt>
      <trkpt lat="40.74508" lon="-7.95791">
        <ele>513.226</ele>
        <time>2019-10-18T07:40:40Z</time>
      </trkpt>
      <trkpt lat="40.7456" lon="-7.95921">
        <ele>509.108</ele>
        <time>2019-10-18T07:41:00Z</time>
      </trkpt>
      <trkpt lat="40.74708" lon="-7.96044">
        <ele>515.282</ele>
        <time>2019-10-18T07:41:20Z</time>
      </trkpt>
      <trkpt lat="40.74775" lon="-7.96001">
        <ele>515.99</ele>
        <time>2019-10-18T07:41:40Z</time>
      </trkpt>
      <trkpt lat="40.74894" lon="-7.96021">
        <ele>518.822</ele>
        <time>2019-10-18T07:42:00Z</time>
      </trkpt>
      <trkpt lat="40.75042" lon="-7.96214">
        <ele>530.322</ele>
        <time>2019-10-18T07:42:20Z</time>
      </trkpt>
      <trkpt lat="40.75117" lon="-7.96411">
        <ele>529.534</ele>
        <time>2019-10-18T07:42:40Z</time>
      </trkpt>
      <trkpt lat="40.75163" lon="-7.96761">
        <ele>507.465</ele>
        <time>2019-10-18T07:43:00Z</time>
      </trkpt>
      <trkpt lat="40.75198" lon="-7.96859">
        <ele>500.357</ele>
        <time>2019-10-18T07:43:20Z</time>
      </trkpt>
      <trkpt lat="40.75188" lon="-7.96977">
        <ele>494.457</ele>
        <time>2019-10-18T07:43:40Z</time>
      </trkpt>
      <trkpt lat="40.75186" lon="-7.97044">
        <ele>492.065</ele>
        <time>2019-10-18T07:44:00Z</time>
      </trkpt>
      <trkpt lat="40.75195" lon="-7.97077">
        <ele>488.568</ele>
        <time>2019-10-18T07:44:20Z</time>
      </trkpt>
      <trkpt lat="40.75312" lon="-7.9711">
        <ele>484.714</ele>
        <time>2019-10-18T07:44:40Z</time>
      </trkpt>
      <trkpt lat="40.75362" lon="-7.9713">
        <ele>485.608</ele>
        <time>2019-10-18T07:45:00Z</time>
      </trkpt>
      <trkpt lat="40.75431" lon="-7.97226">
        <ele>473.91</ele>
        <time>2019-10-18T07:45:20Z</time>
      </trkpt>
      <trkpt lat="40.75481" lon="-7.97377">
        <ele>464.078</ele>
        <time>2019-10-18T07:45:40Z</time>
      </trkpt>
      <trkpt lat="40.75445" lon="-7.97488">
        <ele>455.31</ele>
        <time>2019-10-18T07:46:00Z</time>
      </trkpt>
      <trkpt lat="40.75396" lon="-7.9759">
        <ele>453.22</ele>
        <time>2019-10-18T07:46:20Z</time>
      </trkpt>
      <trkpt lat="40.7537" lon="-7.9765">
        <ele>450.942</ele>
        <time>2019-10-18T07:46:40Z</time>
      </trkpt>
      <trkpt lat="40.75391" lon="-7.97717">
        <ele>446.783</ele>
        <time>2019-10-18T07:47:00Z</time>
      </trkpt>
      <trkpt lat="40.75429" lon="-7.97781">
        <ele>442.625</ele>
        <time>2019-10-18T07:47:20Z</time>
      </trkpt>
      <trkpt lat="40.75517" lon="-7.97866">
        <ele>438.655</ele>
        <time>2019-10-18T07:47:40Z</time>
      </trkpt>
      <trkpt lat="40.75522" lon="-7.97894">
        <ele>437.716</ele>
        <time>2019-10-18T07:48:00Z</time>
      </trkpt>
      <trkpt lat="40.75504" lon="-7.97954">
        <ele>441.676</ele>
        <time>2019-10-18T07:48:20Z</time>
      </trkpt>
      <trkpt lat="40.75522" lon="-7.97999">
        <ele>440.713</ele>
        <time>2019-10-18T07:48:40Z</time>
      </trkpt>
      <trkpt lat="40.7552" lon="-7.98037">
        <ele>443.208</ele>
        <time>2019-10-18T07:49:00Z</time>
      </trkpt>
      <trkpt lat="40.75537" lon="-7.98125">
        <ele>446.415</ele>
        <time>2019-10-18T07:49:20Z</time>
      </trkpt>
      <trkpt lat="40.75529" lon="-7.9815">
        <ele>446.153</ele>
        <time>2019-10-18T07:49:40Z</time>
      </trkpt>
      <trkpt lat="40.75438" lon="-7.98272">
        <ele>443.785</ele>
        <time>2019-10-18T07:50:00Z</time>
      </trkpt>
      <trkpt lat="40.75422" lon="-7.98283">
        <ele>443.495</ele>
        <time>2019-10-18T07:50:20Z</time>
      </trkpt>
      <trkpt lat="40.75431" lon="-7.98291">
        <ele>442.317</ele>
        <time>2019-10-18T07:50:40Z</time>
      </trkpt>
      <trkpt lat="40.75533" lon="-7.9826">
        <ele>436.238</ele>
        <time>2019-10-18T07:51:00Z</time>
      </trkpt>
      <trkpt lat="40.75594" lon="-7.98308">
        <ele>421.52</ele>
        <time>2019-10-18T07:51:20Z</time>
      </trkpt>
      <trkpt lat="40.75615" lon="-7.98306">
        <ele>417.12</ele>
        <time>2019-10-18T07:51:40Z</time>
      </trkpt>
      <trkpt lat="40.75644" lon="-7.98248">
        <ele>418.491</ele>
        <time>2019-10-18T07:52:00Z</time>
      </trkpt>
      <trkpt lat="40.75672" lon="-7.9821">
        <ele>415.681</ele>
        <time>2019-10-18T07:52:20Z</time>
      </trkpt>
      <trkpt lat="40.7568" lon="-7.98168">
        <ele>410.019</ele>
        <time>2019-10-18T07:52:40Z</time>
      </trkpt>
      <trkpt lat="40.7572" lon="-7.98105">
        <ele>394.808</ele>
        <time>2019-10-18T07:53:00Z</time>
      </trkpt>
      <trkpt lat="40.7577" lon="-7.98049">
        <ele>389.033</ele>
        <time>2019-10-18T07:53:20Z</time>
      </trkpt>
      <trkpt lat="40.75802" lon="-7.98024">
        <ele>383.661</ele>
        <time>2019-10-18T07:53:40Z</time>
      </trkpt>
      <trkpt lat="40.75819" lon="-7.98025">
        <ele>379.853</ele>
        <time>2019-10-18T07:54:00Z</time>
      </trkpt>
      <trkpt lat="40.75834" lon="-7.98032">
        <ele>375.823</ele>
        <time>2019-10-18T07:54:20Z</time>
      </trkpt>
      <trkpt lat="40.75842" lon="-7.98025">
        <ele>373.625</ele>
        <time>2019-10-18T07:54:40Z</time>
      </trkpt>
      <trkpt lat="40.75832" lon="-7.97969">
        <ele>377.296</ele>
        <time>2019-10-18T07:55:00Z</time>
      </trkpt>
      <trkpt lat="40.75839" lon="-7.97948">
        <ele>374.688</ele>
        <time>2019-10-18T07:55:20Z</time>
      </trkpt>
      <trkpt lat="40.75852" lon="-7.97948">
        <ele>370.818</ele>
        <time>2019-10-18T07:55:40Z</time>
      </trkpt>
      <trkpt lat="40.75861" lon="-7.9796">
        <ele>368.559</ele>
        <time>2019-10-18T07:56:00Z</time>
      </trkpt>
      <trkpt lat="40.75873" lon="-7.98006">
        <ele>365.603</ele>
        <time>2019-10-18T07:56:20Z</time>
      </trkpt>
      <trkpt lat="40.75883" lon="-7.9802">
        <ele>362.123</ele>
        <time>2019-10-18T07:56:40Z</time>
      </trkpt>
      <trkpt lat="40.75897" lon="-7.98019">
        <ele>358.508</ele>
        <time>2019-10-18T07:57:00Z</time>
      </trkpt>
      <trkpt lat="40.75907" lon="-7.98001">
        <ele>357.399</ele>
        <time>2019-10-18T07:57:20Z</time>
      </trkpt>
      <trkpt lat="40.75922" lon="-7.97924">
        <ele>355.447</ele>
        <time>2019-10-18T07:57:40Z</time>
      </trkpt>
      <trkpt lat="40.75968" lon="-7.97852">
        <ele>352.319</ele>
        <time>2019-10-18T07:58:00Z</time>
      </trkpt>
      <trkpt lat="40.75989" lon="-7.97849">
        <ele>349.689</ele>
        <time>2019-10-18T07:58:20Z</time>
      </trkpt>
      <trkpt lat="40.75998" lon="-7.97879">
        <ele>347.051</ele>
        <time>2019-10-18T07:58:40Z</time>
      </trkpt>
      <trkpt lat="40.75976" lon="-7.97933">
        <ele>346.942</ele>
        <time>2019-10-18T07:59:00Z</time>
      </trkpt>
      <trkpt lat="40.75988" lon="-7.97969">
        <ele>342.194</ele>
        <time>2019-10-18T07:59:20Z</time>
      </trkpt>
      <trkpt lat="40.76003" lon="-7.9799">
        <ele>335.684</ele>
        <time>2019-10-18T07:59:40Z</time>
      </trkpt>
      <trkpt lat="40.76002" lon="-7.98001">
        <ele>334.388</ele>
        <time>2019-10-18T08:00:00Z</time>
      </trkpt>
      <trkpt lat="40.75989" lon="-7.98039">
        <ele>331.524</ele>
        <time>2019-10-18T08:00:20Z</time>
      </trkpt>
      <trkpt lat="40.75994" lon="-7.98053">
        <ele>327.226</ele>
        <time>2019-10-18T08:00:40Z</time>
      </trkpt>
      <trkpt lat="40.76008" lon="-7.98043">
        <ele>324.708</ele>
        <time>2019-10-18T08:01:00Z</time>
      </trkpt>
      <trkpt lat="40.76021" lon="-7.98014">
        <ele>325.522</ele>
        <time>2019-10-18T08:01:20Z</time>
      </trkpt>
      <trkpt lat="40.76049" lon="-7.97975">
        <ele>324.47</ele>
        <time>2019-10-18T08:01:40Z</time>
      </trkpt>
      <trkpt lat="40.76107" lon="-7.97941">
        <ele>310.142</ele>
        <time>2019-10-18T08:02:00Z</time>
      </trkpt>
      <trkpt lat="40.76132" lon="-7.97882">
        <ele>306.492</ele>
        <time>2019-10-18T08:02:20Z</time>
      </trkpt>
      <trkpt lat="40.76141" lon="-7.9788">
        <ele>302.834</ele>
        <time>2019-10-18T08:02:40Z</time>
      </trkpt>
      <trkpt lat="40.76154" lon="-7.9789">
        <ele>299.785</ele>
        <time>2019-10-18T08:03:00Z</time>
      </trkpt>
      <trkpt lat="40.76159" lon="-7.97908">
        <ele>296.447</ele>
        <time>2019-10-18T08:03:20Z</time>
      </trkpt>
      <trkpt lat="40.76136" lon="-7.97942">
        <ele>297.827</ele>
        <time>2019-10-18T08:03:40Z</time>
      </trkpt>
      <trkpt lat="40.76123" lon="-7.97969">
        <ele>297.298</ele>
        <time>2019-10-18T08:04:00Z</time>
      </trkpt>
      <trkpt lat="40.76117" lon="-7.97991">
        <ele>295.415</ele>
        <time>2019-10-18T08:04:20Z</time>
      </trkpt>
      <trkpt lat="40.76104" lon="-7.98011">
        <ele>296.326</ele>
        <time>2019-10-18T08:04:40Z</time>
      </trkpt>
      <trkpt lat="40.76081" lon="-7.98025">
        <ele>301.308</ele>
        <time>2019-10-18T08:05:00Z</time>
      </trkpt>
      <trkpt lat="40.7608" lon="-7.98054">
        <ele>295.643</ele>
        <time>2019-10-18T08:05:20Z</time>
      </trkpt>
      <trkpt lat="40.76102" lon="-7.98043">
        <ele>289.271</ele>
        <time>2019-10-18T08:05:40Z</time>
      </trkpt>
      <trkpt lat="40.76113" lon="-7.98033">
        <ele>287.833</ele>
        <time>2019-10-18T08:06:00Z</time>
      </trkpt>
      <trkpt lat="40.7613" lon="-7.98014">
        <ele>285.063</ele>
        <time>2019-10-18T08:06:20Z</time>
      </trkpt>
      <trkpt lat="40.7616" lon="-7.97988">
        <ele>280.695</ele>
        <time>2019-10-18T08:06:40Z</time>
      </trkpt>
      <trkpt lat="40.76189" lon="-7.97968">
        <ele>279.076</ele>
        <time>2019-10-18T08:07:00Z</time>
      </trkpt>
      <trkpt lat="40.76215" lon="-7.97951">
        <ele>275.658</ele>
        <time>2019-10-18T08:07:20Z</time>
      </trkpt>
      <trkpt lat="40.76244" lon="-7.9793">
        <ele>267.028</ele>
        <time>2019-10-18T08:07:40Z</time>
      </trkpt>
      <trkpt lat="40.76263" lon="-7.97917">
        <ele>262.539</ele>
        <time>2019-10-18T08:08:00Z</time>
      </trkpt>
      <trkpt lat="40.7628" lon="-7.97903">
        <ele>257.101</ele>
        <time>2019-10-18T08:08:20Z</time>
      </trkpt>
      <trkpt lat="40.7629" lon="-7.97878">
        <ele>254.221</ele>
        <time>2019-10-18T08:08:40Z</time>
      </trkpt>
      <trkpt lat="40.76296" lon="-7.9785">
        <ele>252.008</ele>
        <time>2019-10-18T08:09:00Z</time>
      </trkpt>
      <trkpt lat="40.763" lon="-7.97834">
        <ele>251.437</ele>
        <time>2019-10-18T08:09:20Z</time>
      </trkpt>
      <trkpt lat="40.76303" lon="-7.9782">
        <ele>252.575</ele>
        <time>2019-10-18T08:09:40Z</time>
      </trkpt>
      <trkpt lat="40.76302" lon="-7.97807">
        <ele>253.757</ele>
        <time>2019-10-18T08:10:00Z</time>
      </trkpt>
      <trkpt lat="40.76289" lon="-7.97793">
        <ele>256.617</ele>
        <time>2019-10-18T08:10:20Z</time>
      </trkpt>
      <trkpt lat="40.76273" lon="-7.97772">
        <ele>259.999</ele>
        <time>2019-10-18T08:10:40Z</time>
      </trkpt>
      <trkpt lat="40.76257" lon="-7.97752">
        <ele>264.93</ele>
        <time>2019-10-18T08:11:00Z</time>
      </trkpt>
      <trkpt lat="40.76241" lon="-7.97734">
        <ele>267.962</ele>
        <time>2019-10-18T08:11:20Z</time>
      </trkpt>
      <trkpt lat="40.76228" lon="-7.97719">
        <ele>269.462</ele>
        <time>2019-10-18T08:11:40Z</time>
      </trkpt>
      <trkpt lat="40.76215" lon="-7.97708">
        <ele>270.279</ele>
        <time>2019-10-18T08:12:00Z</time>
      </trkpt>
      <trkpt lat="40.76209" lon="-7.97702">
        <ele>271.105</ele>
        <time>2019-10-18T08:12:20Z</time>
      </trkpt>
      <trkpt lat="40.76204" lon="-7.97697">
        <ele>271.625</ele>
        <time>2019-10-18T08:12:40Z</time>
      </trkpt>
      <trkpt lat="40.76198" lon="-7.97694">
        <ele>271.608</ele>
        <time>2019-10-18T08:13:00Z</time>
      </trkpt>
      <trkpt lat="40.76189" lon="-7.97682">
        <ele>274.191</ele>
        <time>2019-10-18T08:13:20Z</time>
      </trkpt>
      <trkpt lat="40.76175" lon="-7.97673">
        <ele>274.869</ele>
        <time>2019-10-18T08:13:40Z</time>
      </trkpt>
      <trkpt lat="40.76165" lon="-7.97659">
        <ele>276.721</ele>
        <time>2019-10-18T08:14:00Z</time>
      </trkpt>
      <trkpt lat="40.76157" lon="-7.97652">
        <ele>276.241</ele>
        <time>2019-10-18T08:14:20Z</time>
      </trkpt>
      <trkpt lat="40.76142" lon="-7.97621">
        <ele>281.213</ele>
        <time>2019-10-18T08:14:40Z</time>
      </trkpt>
      <trkpt lat="40.76139" lon="-7.97617">
        <ele>281.314</ele>
        <time>2019-10-18T08:15:00Z</time>
      </trkpt>
      <trkpt lat="40.76136" lon="-7.9761">
        <ele>282.146</ele>
        <time>2019-10-18T08:15:20Z</time>
      </trkpt>
      <trkpt lat="40.76124" lon="-7.97576">
        <ele>283.976</ele>
        <time>2019-10-18T08:15:40Z</time>
      </trkpt>
      <trkpt lat="40.76118" lon="-7.97542">
        <ele>284.976</ele>
        <time>2019-10-18T08:16:00Z</time>
      </trkpt>
      <trkpt lat="40.76119" lon="-7.97511">
        <ele>284.09</ele>
        <time>2019-10-18T08:16:20Z</time>
      </trkpt>
      <trkpt lat="40.76133" lon="-7.97481">
        <ele>287.019</ele>
        <time>2019-10-18T08:16:40Z</time>
      </trkpt>
      <trkpt lat="40.76153" lon="-7.97475">
        <ele>293.408</ele>
        <time>2019-10-18T08:17:00Z</time>
      </trkpt>
      <trkpt lat="40.76177" lon="-7.9748">
        <ele>298.071</ele>
        <time>2019-10-18T08:17:20Z</time>
      </trkpt>
      <trkpt lat="40.76199" lon="-7.97491">
        <ele>298.539</ele>
        <time>2019-10-18T08:17:40Z</time>
      </trkpt>
      <trkpt lat="40.76226" lon="-7.97533">
        <ele>298.731</ele>
        <time>2019-10-18T08:18:00Z</time>
      </trkpt>
      <trkpt lat="40.76251" lon="-7.97576">
        <ele>293.791</ele>
        <time>2019-10-18T08:18:20Z</time>
      </trkpt>
      <trkpt lat="40.76274" lon="-7.97618">
        <ele>295.153</ele>
        <time>2019-10-18T08:18:40Z</time>
      </trkpt>
      <trkpt lat="40.76296" lon="-7.9765">
        <ele>297.794</ele>
        <time>2019-10-18T08:19:00Z</time>
      </trkpt>
      <trkpt lat="40.76323" lon="-7.97668">
        <ele>300.746</ele>
        <time>2019-10-18T08:19:20Z</time>
      </trkpt>
      <trkpt lat="40.76347" lon="-7.97678">
        <ele>303.436</ele>
        <time>2019-10-18T08:19:40Z</time>
      </trkpt>
      <trkpt lat="40.76374" lon="-7.97688">
        <ele>305.521</ele>
        <time>2019-10-18T08:20:00Z</time>
      </trkpt>
      <trkpt lat="40.76395" lon="-7.97698">
        <ele>305.641</ele>
        <time>2019-10-18T08:20:20Z</time>
      </trkpt>
      <trkpt lat="40.76415" lon="-7.97716">
        <ele>305.905</ele>
        <time>2019-10-18T08:20:40Z</time>
      </trkpt>
      <trkpt lat="40.76438" lon="-7.9774">
        <ele>308.608</ele>
        <time>2019-10-18T08:21:00Z</time>
      </trkpt>
      <trkpt lat="40.76451" lon="-7.97775">
        <ele>309.696</ele>
        <time>2019-10-18T08:21:20Z</time>
      </trkpt>
      <trkpt lat="40.76461" lon="-7.97814">
        <ele>311.954</ele>
        <time>2019-10-18T08:21:40Z</time>
      </trkpt>
      <trkpt lat="40.76477" lon="-7.97843">
        <ele>316.086</ele>
        <time>2019-10-18T08:22:00Z</time>
      </trkpt>
      <trkpt lat="40.76485" lon="-7.97877">
        <ele>317.786</ele>
        <time>2019-10-18T08:22:20Z</time>
      </trkpt>
      <trkpt lat="40.76488" lon="-7.97889">
        <ele>318.798</ele>
        <time>2019-10-18T08:22:40Z</time>
      </trkpt>
      <trkpt lat="40.76492" lon="-7.97911">
        <ele>317.959</ele>
        <time>2019-10-18T08:23:00Z</time>
      </trkpt>
      <trkpt lat="40.76507" lon="-7.97946">
        <ele>320.431</ele>
        <time>2019-10-18T08:23:20Z</time>
      </trkpt>
      <trkpt lat="40.7653" lon="-7.9798">
        <ele>325.471</ele>
        <time>2019-10-18T08:23:40Z</time>
      </trkpt>
      <trkpt lat="40.76537" lon="-7.98023">
        <ele>327.791</ele>
        <time>2019-10-18T08:24:00Z</time>
      </trkpt>
      <trkpt lat="40.76521" lon="-7.98055">
        <ele>329.281</ele>
        <time>2019-10-18T08:24:20Z</time>
      </trkpt>
      <trkpt lat="40.76504" lon="-7.98082">
        <ele>328.819</ele>
        <time>2019-10-18T08:24:40Z</time>
      </trkpt>
      <trkpt lat="40.76488" lon="-7.98109">
        <ele>329.608</ele>
        <time>2019-10-18T08:25:00Z</time>
      </trkpt>
      <trkpt lat="40.76477" lon="-7.9813">
        <ele>331.183</ele>
        <time>2019-10-18T08:25:20Z</time>
      </trkpt>
      <trkpt lat="40.76475" lon="-7.98138">
        <ele>332.331</ele>
        <time>2019-10-18T08:25:40Z</time>
      </trkpt>
      <trkpt lat="40.76463" lon="-7.98165">
        <ele>335.343</ele>
        <time>2019-10-18T08:26:00Z</time>
      </trkpt>
      <trkpt lat="40.76451" lon="-7.98197">
        <ele>337.133</ele>
        <time>2019-10-18T08:26:20Z</time>
      </trkpt>
      <trkpt lat="40.76441" lon="-7.98231">
        <ele>338.345</ele>
        <time>2019-10-18T08:26:40Z</time>
      </trkpt>
      <trkpt lat="40.76452" lon="-7.98273">
        <ele>338.026</ele>
        <time>2019-10-18T08:27:00Z</time>
      </trkpt>
      <trkpt lat="40.76479" lon="-7.9832">
        <ele>338.498</ele>
        <time>2019-10-18T08:27:20Z</time>
      </trkpt>
      <trkpt lat="40.76499" lon="-7.98346">
        <ele>336.638</ele>
        <time>2019-10-18T08:27:40Z</time>
      </trkpt>
      <trkpt lat="40.76494" lon="-7.98408">
        <ele>330.518</ele>
        <time>2019-10-18T08:28:00Z</time>
      </trkpt>
      <trkpt lat="40.76507" lon="-7.98466">
        <ele>325.398</ele>
        <time>2019-10-18T08:28:20Z</time>
      </trkpt>
      <trkpt lat="40.76534" lon="-7.98476">
        <ele>323.117</ele>
        <time>2019-10-18T08:28:40Z</time>
      </trkpt>
      <trkpt lat="40.76579" lon="-7.98518">
        <ele>314.808</ele>
        <time>2019-10-18T08:29:00Z</time>
      </trkpt>
      <trkpt lat="40.76581" lon="-7.98584">
        <ele>305.195</ele>
        <time>2019-10-18T08:29:20Z</time>
      </trkpt>
      <trkpt lat="40.7653" lon="-7.98676">
        <ele>301.463</ele>
        <time>2019-10-18T08:29:40Z</time>
      </trkpt>
      <trkpt lat="40.765" lon="-7.98702">
        <ele>298.245</ele>
        <time>2019-10-18T08:30:00Z</time>
      </trkpt>
      <trkpt lat="40.76475" lon="-7.98757">
        <ele>286.385</ele>
        <time>2019-10-18T08:30:20Z</time>
      </trkpt>
      <trkpt lat="40.76499" lon="-7.98802">
        <ele>287.477</ele>
        <time>2019-10-18T08:30:40Z</time>
      </trkpt>
      <trkpt lat="40.76511" lon="-7.98867">
        <ele>278.788</ele>
        <time>2019-10-18T08:31:00Z</time>
      </trkpt>
      <trkpt lat="40.76515" lon="-7.98906">
        <ele>269.41</ele>
        <time>2019-10-18T08:31:20Z</time>
      </trkpt>
      <trkpt lat="40.76577" lon="-7.98934">
        <ele>260.49</ele>
        <time>2019-10-18T08:31:40Z</time>
      </trkpt>
      <trkpt lat="40.76595" lon="-7.98927">
        <ele>259.758</ele>
        <time>2019-10-18T08:32:00Z</time>
      </trkpt>
      <trkpt lat="40.76595" lon="-7.98946">
        <ele>255.152</ele>
        <time>2019-10-18T08:32:20Z</time>
      </trkpt>
      <trkpt lat="40.76569" lon="-7.98986">
        <ele>250.617</ele>
        <time>2019-10-18T08:32:40Z</time>
      </trkpt>
      <trkpt lat="40.76577" lon="-7.99009">
        <ele>248.308</ele>
        <time>2019-10-18T08:33:00Z</time>
      </trkpt>
      <trkpt lat="40.76606" lon="-7.99022">
        <ele>246.429</ele>
        <time>2019-10-18T08:33:20Z</time>
      </trkpt>
      <trkpt lat="40.76624" lon="-7.99052">
        <ele>248.657</ele>
        <time>2019-10-18T08:33:40Z</time>
      </trkpt>
      <trkpt lat="40.76658" lon="-7.99066">
        <ele>250.139</ele>
        <time>2019-10-18T08:34:00Z</time>
      </trkpt>
      <trkpt lat="40.76666" lon="-7.99082">
        <ele>252.889</ele>
        <time>2019-10-18T08:34:20Z</time>
      </trkpt>
      <trkpt lat="40.76626" lon="-7.99094">
        <ele>255.071</ele>
        <time>2019-10-18T08:34:40Z</time>
      </trkpt>
      <trkpt lat="40.76604" lon="-7.99184">
        <ele>260.922</ele>
        <time>2019-10-18T08:35:00Z</time>
      </trkpt>
      <trkpt lat="40.76622" lon="-7.99241">
        <ele>270.154</ele>
        <time>2019-10-18T08:35:20Z</time>
      </trkpt>
      <trkpt lat="40.76642" lon="-7.99264">
        <ele>277.054</ele>
        <time>2019-10-18T08:35:40Z</time>
      </trkpt>
      <trkpt lat="40.76645" lon="-7.99267">
        <ele>277.627</ele>
        <time>2019-10-18T08:36:00Z</time>
      </trkpt>
      <trkpt lat="40.76635" lon="-7.99289">
        <ele>281.268</ele>
        <time>2019-10-18T08:36:20Z</time>
      </trkpt>
      <trkpt lat="40.76611" lon="-7.99307">
        <ele>278.214</ele>
        <time>2019-10-18T08:36:40Z</time>
      </trkpt>
      <trkpt lat="40.76615" lon="-7.99319">
        <ele>281.508</ele>
        <time>2019-10-18T08:37:00Z</time>
      </trkpt>
      <trkpt lat="40.76641" lon="-7.99325">
        <ele>290.076</ele>
        <time>2019-10-18T08:37:20Z</time>
      </trkpt>
      <trkpt lat="40.76645" lon="-7.99349">
        <ele>295.124</ele>
        <time>2019-10-18T08:37:40Z</time>
      </trkpt>
      <trkpt lat="40.76634" lon="-7.99377">
        <ele>298.496</ele>
        <time>2019-10-18T08:38:00Z</time>
      </trkpt>
      <trkpt lat="40.76634" lon="-7.9939">
        <ele>301.046</ele>
        <time>2019-10-18T08:38:20Z</time>
      </trkpt>
      <trkpt lat="40.76635" lon="-7.99437">
        <ele>311.048</ele>
        <time>2019-10-18T08:38:40Z</time>
      </trkpt>
      <trkpt lat="40.76618" lon="-7.99457">
        <ele>314.199</ele>
        <time>2019-10-18T08:39:00Z</time>
      </trkpt>
      <trkpt lat="40.76593" lon="-7.99459">
        <ele>312.881</ele>
        <time>2019-10-18T08:39:20Z</time>
      </trkpt>
      <trkpt lat="40.76584" lon="-7.99477">
        <ele>317.231</ele>
        <time>2019-10-18T08:39:40Z</time>
      </trkpt>
      <trkpt lat="40.76587" lon="-7.9954">
        <ele>328.043</ele>
        <time>2019-10-18T08:40:00Z</time>
      </trkpt>
      <trkpt lat="40.76572" lon="-7.99588">
        <ele>336.464</ele>
        <time>2019-10-18T08:40:20Z</time>
      </trkpt>
      <trkpt lat="40.76566" lon="-7.99605">
        <ele>339.01</ele>
        <time>2019-10-18T08:40:40Z</time>
      </trkpt>
      <trkpt lat="40.7656" lon="-7.99625">
        <ele>339.608</ele>
        <time>2019-10-18T08:41:00Z</time>
      </trkpt>
      <trkpt lat="40.76559" lon="-7.99644">
        <ele>339.268</ele>
        <time>2019-10-18T08:41:20Z</time>
      </trkpt>
      <trkpt lat="40.76558" lon="-7.99643">
        <ele>339.256</ele>
        <time>2019-10-18T08:41:40Z</time>
      </trkpt>
      <trkpt lat="40.76554" lon="-7.99657">
        <ele>339.078</ele>
        <time>2019-10-18T08:42:00Z</time>
      </trkpt>
      <trkpt lat="40.76551" lon="-7.99682">
        <ele>338.668</ele>
        <time>2019-10-18T08:42:20Z</time>
      </trkpt>
      <trkpt lat="40.7655" lon="-7.99693">
        <ele>338.28</ele>
        <time>2019-10-18T08:42:40Z</time>
      </trkpt>
      <trkpt lat="40.76554" lon="-7.99718">
        <ele>336.431</ele>
        <time>2019-10-18T08:43:00Z</time>
      </trkpt>
      <trkpt lat="40.76571" lon="-7.9974">
        <ele>333.973</ele>
        <time>2019-10-18T08:43:20Z</time>
      </trkpt>
      <trkpt lat="40.7666" lon="-7.99835">
        <ele>332.523</ele>
        <time>2019-10-18T08:43:40Z</time>
      </trkpt>
      <trkpt lat="40.76681" lon="-7.99854">
        <ele>331.646</ele>
        <time>2019-10-18T08:44:00Z</time>
      </trkpt>
      <trkpt lat="40.76722" lon="-7.9989">
        <ele>326.888</ele>
        <time>2019-10-18T08:44:20Z</time>
      </trkpt>
      <trkpt lat="40.7677" lon="-7.99899">
        <ele>331.116</ele>
        <time>2019-10-18T08:44:40Z</time>
      </trkpt>
      <trkpt lat="40.76807" lon="-7.99909">
        <ele>337.608</ele>
        <time>2019-10-18T08:45:00Z</time>
      </trkpt>
      <trkpt lat="40.76812" lon="-7.99918">
        <ele>336.278</ele>
        <time>2019-10-18T08:45:20Z</time>
      </trkpt>
      <trkpt lat="40.76834" lon="-7.99948">
        <ele>333.866</ele>
        <time>2019-10-18T08:45:40Z</time>
      </trkpt>
      <trkpt lat="40.76868" lon="-7.99969">
        <ele>332.688</ele>
        <time>2019-10-18T08:46:00Z</time>
      </trkpt>
      <trkpt lat="40.76909" lon="-7.99981">
        <ele>333.168</ele>
        <time>2019-10-18T08:46:20Z</time>
      </trkpt>
      <trkpt lat="40.76946" lon="-8.00003">
        <ele>336.07</ele>
        <time>2019-10-18T08:46:40Z</time>
      </trkpt>
      <trkpt lat="40.76945" lon="-8.00041">
        <ele>334.091</ele>
        <time>2019-10-18T08:47:00Z</time>
      </trkpt>
      <trkpt lat="40.76902" lon="-8.00091">
        <ele>325.373</ele>
        <time>2019-10-18T08:47:20Z</time>
      </trkpt>
      <trkpt lat="40.76895" lon="-8.00102">
        <ele>323.453</ele>
        <time>2019-10-18T08:47:40Z</time>
      </trkpt>
      <trkpt lat="40.76886" lon="-8.00156">
        <ele>317.768</ele>
        <time>2019-10-18T08:48:00Z</time>
      </trkpt>
      <trkpt lat="40.76897" lon="-8.0017">
        <ele>317.942</ele>
        <time>2019-10-18T08:48:20Z</time>
      </trkpt>
      <trkpt lat="40.76938" lon="-8.00191">
        <ele>320.226</ele>
        <time>2019-10-18T08:48:40Z</time>
      </trkpt>
      <trkpt lat="40.76959" lon="-8.00219">
        <ele>319.208</ele>
        <time>2019-10-18T08:49:00Z</time>
      </trkpt>
      <trkpt lat="40.76938" lon="-8.00253">
        <ele>316.87</ele>
        <time>2019-10-18T08:49:20Z</time>
      </trkpt>
      <trkpt lat="40.76897" lon="-8.00285">
        <ele>316.998</ele>
        <time>2019-10-18T08:49:40Z</time>
      </trkpt>
      <trkpt lat="40.76881" lon="-8.00305">
        <ele>318.57</ele>
        <time>2019-10-18T08:50:00Z</time>
      </trkpt>
      <trkpt lat="40.76878" lon="-8.00339">
        <ele>318.76</ele>
        <time>2019-10-18T08:50:20Z</time>
      </trkpt>
      <trkpt lat="40.76886" lon="-8.00355">
        <ele>318.862</ele>
        <time>2019-10-18T08:50:40Z</time>
      </trkpt>
      <trkpt lat="40.7691" lon="-8.00389">
        <ele>323.283</ele>
        <time>2019-10-18T08:51:00Z</time>
      </trkpt>
      <trkpt lat="40.76922" lon="-8.0042">
        <ele>321.955</ele>
        <time>2019-10-18T08:51:20Z</time>
      </trkpt>
      <trkpt lat="40.76945" lon="-8.00464">
        <ele>320.435</ele>
        <time>2019-10-18T08:51:40Z</time>
      </trkpt>
      <trkpt lat="40.76977" lon="-8.0046">
        <ele>324.148</ele>
        <time>2019-10-18T08:52:00Z</time>
      </trkpt>
      <trkpt lat="40.77014" lon="-8.00439">
        <ele>328.261</ele>
        <time>2019-10-18T08:52:20Z</time>
      </trkpt>
      <trkpt lat="40.77049" lon="-8.00442">
        <ele>328.317</ele>
        <time>2019-10-18T08:52:40Z</time>
      </trkpt>
      <trkpt lat="40.77083" lon="-8.00468">
        <ele>325.408</ele>
        <time>2019-10-18T08:53:00Z</time>
      </trkpt>
      <trkpt lat="40.77096" lon="-8.00512">
        <ele>327.228</ele>
        <time>2019-10-18T08:53:20Z</time>
      </trkpt>
      <trkpt lat="40.77081" lon="-8.00539">
        <ele>329.366</ele>
        <time>2019-10-18T08:53:40Z</time>
      </trkpt>
      <trkpt lat="40.77059" lon="-8.00569">
        <ele>331.328</ele>
        <time>2019-10-18T08:54:00Z</time>
      </trkpt>
      <trkpt lat="40.77037" lon="-8.00586">
        <ele>331.028</ele>
        <time>2019-10-18T08:54:20Z</time>
      </trkpt>
      <trkpt lat="40.77015" lon="-8.00597">
        <ele>329.59</ele>
        <time>2019-10-18T08:54:40Z</time>
      </trkpt>
      <trkpt lat="40.77011" lon="-8.00624">
        <ele>332.221</ele>
        <time>2019-10-18T08:55:00Z</time>
      </trkpt>
      <trkpt lat="40.77025" lon="-8.00658">
        <ele>339.523</ele>
        <time>2019-10-18T08:55:20Z</time>
      </trkpt>
      <trkpt lat="40.77034" lon="-8.00697">
        <ele>345.943</ele>
        <time>2019-10-18T08:55:40Z</time>
      </trkpt>
      <trkpt lat="40.7702" lon="-8.0072">
        <ele>346.689</ele>
        <time>2019-10-18T08:56:00Z</time>
      </trkpt>
      <trkpt lat="40.76995" lon="-8.00714">
        <ele>345.106</ele>
        <time>2019-10-18T08:56:20Z</time>
      </trkpt>
      <trkpt lat="40.76973" lon="-8.00719">
        <ele>347.726</ele>
        <time>2019-10-18T08:56:40Z</time>
      </trkpt>
      <trkpt lat="40.76947" lon="-8.00726">
        <ele>348.108</ele>
        <time>2019-10-18T08:57:00Z</time>
      </trkpt>
      <trkpt lat="40.76925" lon="-8.0074">
        <ele>349.632</ele>
        <time>2019-10-18T08:57:20Z</time>
      </trkpt>
      <trkpt lat="40.76923" lon="-8.00754">
        <ele>351.61</ele>
        <time>2019-10-18T08:57:40Z</time>
      </trkpt>
      <trkpt lat="40.76924" lon="-8.00769">
        <ele>353.522</ele>
        <time>2019-10-18T08:58:00Z</time>
      </trkpt>
      <trkpt lat="40.76925" lon="-8.00806">
        <ele>358.552</ele>
        <time>2019-10-18T08:58:20Z</time>
      </trkpt>
      <trkpt lat="40.76923" lon="-8.00831">
        <ele>360.354</ele>
        <time>2019-10-18T08:58:40Z</time>
      </trkpt>
      <trkpt lat="40.76917" lon="-8.00875">
        <ele>360.715</ele>
        <time>2019-10-18T08:59:00Z</time>
      </trkpt>
      <trkpt lat="40.7693" lon="-8.0091">
        <ele>363.237</ele>
        <time>2019-10-18T08:59:20Z</time>
      </trkpt>
      <trkpt lat="40.76949" lon="-8.00935">
        <ele>367.757</ele>
        <time>2019-10-18T08:59:40Z</time>
      </trkpt>
      <trkpt lat="40.76947" lon="-8.00965">
        <ele>368.326</ele>
        <time>2019-10-18T09:00:00Z</time>
      </trkpt>
      <trkpt lat="40.76938" lon="-8.01002">
        <ele>367.947</ele>
        <time>2019-10-18T09:00:20Z</time>
      </trkpt>
      <trkpt lat="40.76953" lon="-8.01022">
        <ele>371.411</ele>
        <time>2019-10-18T09:00:40Z</time>
      </trkpt>
      <trkpt lat="40.76973" lon="-8.01036">
        <ele>374.708</ele>
        <time>2019-10-18T09:01:00Z</time>
      </trkpt>
      <trkpt lat="40.76986" lon="-8.01066">
        <ele>375.676</ele>
        <time>2019-10-18T09:01:20Z</time>
      </trkpt>
      <trkpt lat="40.76994" lon="-8.01102">
        <ele>373.574</ele>
        <time>2019-10-18T09:01:40Z</time>
      </trkpt>
      <trkpt lat="40.77024" lon="-8.0113">
        <ele>374.066</ele>
        <time>2019-10-18T09:02:00Z</time>
      </trkpt>
      <trkpt lat="40.77054" lon="-8.01162">
        <ele>375.456</ele>
        <time>2019-10-18T09:02:20Z</time>
      </trkpt>
      <trkpt lat="40.77072" lon="-8.01213">
        <ele>378.838</ele>
        <time>2019-10-18T09:02:40Z</time>
      </trkpt>
      <trkpt lat="40.77051" lon="-8.01228">
        <ele>378.689</ele>
        <time>2019-10-18T09:03:00Z</time>
      </trkpt>
      <trkpt lat="40.77025" lon="-8.01234">
        <ele>376.731</ele>
        <time>2019-10-18T09:03:20Z</time>
      </trkpt>
      <trkpt lat="40.77008" lon="-8.01261">
        <ele>378.411</ele>
        <time>2019-10-18T09:03:40Z</time>
      </trkpt>
      <trkpt lat="40.77016" lon="-8.01312">
        <ele>385.442</ele>
        <time>2019-10-18T09:04:00Z</time>
      </trkpt>
      <trkpt lat="40.77012" lon="-8.01349">
        <ele>387.322</ele>
        <time>2019-10-18T09:04:20Z</time>
      </trkpt>
      <trkpt lat="40.77007" lon="-8.01382">
        <ele>388.714</ele>
        <time>2019-10-18T09:04:40Z</time>
      </trkpt>
      <trkpt lat="40.77006" lon="-8.01388">
        <ele>388.808</ele>
        <time>2019-10-18T09:05:00Z</time>
      </trkpt>
      <trkpt lat="40.77002" lon="-8.01425">
        <ele>390.488</ele>
        <time>2019-10-18T09:05:20Z</time>
      </trkpt>
      <trkpt lat="40.77001" lon="-8.01447">
        <ele>392.436</ele>
        <time>2019-10-18T09:05:40Z</time>
      </trkpt>
      <trkpt lat="40.77003" lon="-8.01478">
        <ele>395.598</ele>
        <time>2019-10-18T09:06:00Z</time>
      </trkpt>
      <trkpt lat="40.77004" lon="-8.0151">
        <ele>396.488</ele>
        <time>2019-10-18T09:06:20Z</time>
      </trkpt>
      <trkpt lat="40.77007" lon="-8.01525">
        <ele>396.32</ele>
        <time>2019-10-18T09:06:40Z</time>
      </trkpt>
      <trkpt lat="40.7703" lon="-8.01547">
        <ele>396.491</ele>
        <time>2019-10-18T09:07:00Z</time>
      </trkpt>
      <trkpt lat="40.77059" lon="-8.01543">
        <ele>397.573</ele>
        <time>2019-10-18T09:07:20Z</time>
      </trkpt>
      <trkpt lat="40.77089" lon="-8.01555">
        <ele>397.253</ele>
        <time>2019-10-18T09:07:40Z</time>
      </trkpt>
      <trkpt lat="40.77097" lon="-8.01573">
        <ele>396.977</ele>
        <time>2019-10-18T09:08:00Z</time>
      </trkpt>
      <trkpt lat="40.77124" lon="-8.01622">
        <ele>396.661</ele>
        <time>2019-10-18T09:08:20Z</time>
      </trkpt>
      <trkpt lat="40.77159" lon="-8.01658">
        <ele>399.927</ele>
        <time>2019-10-18T09:08:40Z</time>
      </trkpt>
      <trkpt lat="40.77168" lon="-8.01709">
        <ele>399.208</ele>
        <time>2019-10-18T09:09:00Z</time>
      </trkpt>
      <trkpt lat="40.77174" lon="-8.01758">
        <ele>396.511</ele>
        <time>2019-10-18T09:09:20Z</time>
      </trkpt>
      <trkpt lat="40.77177" lon="-8.01774">
        <ele>395.749</ele>
        <time>2019-10-18T09:09:40Z</time>
      </trkpt>
      <trkpt lat="40.77196" lon="-8.01803">
        <ele>395.621</ele>
        <time>2019-10-18T09:10:00Z</time>
      </trkpt>
      <trkpt lat="40.77232" lon="-8.01828">
        <ele>397.461</ele>
        <time>2019-10-18T09:10:20Z</time>
      </trkpt>
      <trkpt lat="40.77242" lon="-8.01877">
        <ele>395.153</ele>
        <time>2019-10-18T09:10:40Z</time>
      </trkpt>
      <trkpt lat="40.77252" lon="-8.01926">
        <ele>397.834</ele>
        <time>2019-10-18T09:11:00Z</time>
      </trkpt>
      <trkpt lat="40.77265" lon="-8.01971">
        <ele>403.256</ele>
        <time>2019-10-18T09:11:20Z</time>
      </trkpt>
      <trkpt lat="40.7728" lon="-8.02026">
        <ele>403.396</ele>
        <time>2019-10-18T09:11:40Z</time>
      </trkpt>
      <trkpt lat="40.77286" lon="-8.02073">
        <ele>403.432</ele>
        <time>2019-10-18T09:12:00Z</time>
      </trkpt>
      <trkpt lat="40.77299" lon="-8.02119">
        <ele>406.392</ele>
        <time>2019-10-18T09:12:20Z</time>
      </trkpt>
      <trkpt lat="40.77296" lon="-8.02133">
        <ele>407.611</ele>
        <time>2019-10-18T09:12:40Z</time>
      </trkpt>
      <trkpt lat="40.77271" lon="-8.02188">
        <ele>408.208</ele>
        <time>2019-10-18T09:13:00Z</time>
      </trkpt>
      <trkpt lat="40.77266" lon="-8.02206">
        <ele>406.917</ele>
        <time>2019-10-18T09:13:20Z</time>
      </trkpt>
      <trkpt lat="40.77247" lon="-8.02259">
        <ele>403.115</ele>
        <time>2019-10-18T09:13:40Z</time>
      </trkpt>
      <trkpt lat="40.77223" lon="-8.02348">
        <ele>399.087</ele>
        <time>2019-10-18T09:14:00Z</time>
      </trkpt>
      <trkpt lat="40.77195" lon="-8.02409">
        <ele>394.377</ele>
        <time>2019-10-18T09:14:20Z</time>
      </trkpt>
      <trkpt lat="40.77159" lon="-8.02515">
        <ele>387.789</ele>
        <time>2019-10-18T09:14:40Z</time>
      </trkpt>
      <trkpt lat="40.77136" lon="-8.02549">
        <ele>387.17</ele>
        <time>2019-10-18T09:15:00Z</time>
      </trkpt>
      <trkpt lat="40.77065" lon="-8.02615">
        <ele>387.922</ele>
        <time>2019-10-18T09:15:20Z</time>
      </trkpt>
      <trkpt lat="40.77048" lon="-8.02655">
        <ele>388.452</ele>
        <time>2019-10-18T09:15:40Z</time>
      </trkpt>
      <trkpt lat="40.77046" lon="-8.02716">
        <ele>389.885</ele>
        <time>2019-10-18T09:16:00Z</time>
      </trkpt>
      <trkpt lat="40.7705" lon="-8.02737">
        <ele>390.189</ele>
        <time>2019-10-18T09:16:20Z</time>
      </trkpt>
      <trkpt lat="40.77087" lon="-8.02826">
        <ele>385.617</ele>
        <time>2019-10-18T09:16:40Z</time>
      </trkpt>
      <trkpt lat="40.77106" lon="-8.02872">
        <ele>383.808</ele>
        <time>2019-10-18T09:17:00Z</time>
      </trkpt>
      <trkpt lat="40.77154" lon="-8.02981">
        <ele>381.282</ele>
        <time>2019-10-18T09:17:20Z</time>
      </trkpt>
      <trkpt lat="40.77167" lon="-8.03">
        <ele>381.06</ele>
        <time>2019-10-18T09:17:40Z</time>
      </trkpt>
      <trkpt lat="40.77173" lon="-8.03035">
        <ele>381.892</ele>
        <time>2019-10-18T09:18:00Z</time>
      </trkpt>
      <trkpt lat="40.77155" lon="-8.03132">
        <ele>381.342</ele>
        <time>2019-10-18T09:18:20Z</time>
      </trkpt>
      <trkpt lat="40.77162" lon="-8.03242">
        <ele>379.774</ele>
        <time>2019-10-18T09:18:40Z</time>
      </trkpt>
      <trkpt lat="40.77169" lon="-8.03353">
        <ele>372.555</ele>
        <time>2019-10-18T09:19:00Z</time>
      </trkpt>
      <trkpt lat="40.77172" lon="-8.03407">
        <ele>372.937</ele>
        <time>2019-10-18T09:19:20Z</time>
      </trkpt>
      <trkpt lat="40.77151" lon="-8.03498">
        <ele>371.337</ele>
        <time>2019-10-18T09:19:40Z</time>
      </trkpt>
      <trkpt lat="40.77135" lon="-8.03559">
        <ele>368.831</ele>
        <time>2019-10-18T09:20:00Z</time>
      </trkpt>
      <trkpt lat="40.77086" lon="-8.03652">
        <ele>369.661</ele>
        <time>2019-10-18T09:20:20Z</time>
      </trkpt>
      <trkpt lat="40.7704" lon="-8.03735">
        <ele>368.607</ele>
        <time>2019-10-18T09:20:40Z</time>
      </trkpt>
      <trkpt lat="40.77016" lon="-8.03779">
        <ele>363.708</ele>
        <time>2019-10-18T09:21:00Z</time>
      </trkpt>
      <trkpt lat="40.77011" lon="-8.03789">
        <ele>362.327</ele>
        <time>2019-10-18T09:21:20Z</time>
      </trkpt>
      <trkpt lat="40.77009" lon="-8.03846">
        <ele>356.835</ele>
        <time>2019-10-18T09:21:40Z</time>
      </trkpt>
      <trkpt lat="40.77015" lon="-8.0387">
        <ele>355.347</ele>
        <time>2019-10-18T09:22:00Z</time>
      </trkpt>
      <trkpt lat="40.77007" lon="-8.03924">
        <ele>351.377</ele>
        <time>2019-10-18T09:22:20Z</time>
      </trkpt>
      <trkpt lat="40.76992" lon="-8.03938">
        <ele>349.959</ele>
        <time>2019-10-18T09:22:40Z</time>
      </trkpt>
      <trkpt lat="40.76928" lon="-8.03993">
        <ele>346.46</ele>
        <time>2019-10-18T09:23:00Z</time>
      </trkpt>
      <trkpt lat="40.76886" lon="-8.04008">
        <ele>345.782</ele>
        <time>2019-10-18T09:23:20Z</time>
      </trkpt>
      <trkpt lat="40.76848" lon="-8.04006">
        <ele>342.812</ele>
        <time>2019-10-18T09:23:40Z</time>
      </trkpt>
      <trkpt lat="40.76828" lon="-8.04004">
        <ele>340.885</ele>
        <time>2019-10-18T09:24:00Z</time>
      </trkpt>
      <trkpt lat="40.76775" lon="-8.03989">
        <ele>334.389</ele>
        <time>2019-10-18T09:24:20Z</time>
      </trkpt>
      <trkpt lat="40.76764" lon="-8.03985">
        <ele>335.117</ele>
        <time>2019-10-18T09:24:40Z</time>
      </trkpt>
      <trkpt lat="40.76724" lon="-8.03984">
        <ele>335.308</ele>
        <time>2019-10-18T09:25:00Z</time>
      </trkpt>
      <trkpt lat="40.76688" lon="-8.04004">
        <ele>332.022</ele>
        <time>2019-10-18T09:25:20Z</time>
      </trkpt>
      <trkpt lat="40.76659" lon="-8.04018">
        <ele>328.44</ele>
        <time>2019-10-18T09:25:40Z</time>
      </trkpt>
      <trkpt lat="40.76587" lon="-8.04069">
        <ele>327.582</ele>
        <time>2019-10-18T09:26:00Z</time>
      </trkpt>
      <trkpt lat="40.76565" lon="-8.0409">
        <ele>326.752</ele>
        <time>2019-10-18T09:26:20Z</time>
      </trkpt>
      <trkpt lat="40.76544" lon="-8.04129">
        <ele>326.554</ele>
        <time>2019-10-18T09:26:40Z</time>
      </trkpt>
      <trkpt lat="40.76522" lon="-8.04201">
        <ele>320.395</ele>
        <time>2019-10-18T09:27:00Z</time>
      </trkpt>
      <trkpt lat="40.76505" lon="-8.0425">
        <ele>319.917</ele>
        <time>2019-10-18T09:27:20Z</time>
      </trkpt>
      <trkpt lat="40.76486" lon="-8.04282">
        <ele>317.037</ele>
        <time>2019-10-18T09:27:40Z</time>
      </trkpt>
      <trkpt lat="40.76465" lon="-8.04332">
        <ele>310.092</ele>
        <time>2019-10-18T09:28:00Z</time>
      </trkpt>
      <trkpt lat="40.76455" lon="-8.04375">
        <ele>306.173</ele>
        <time>2019-10-18T09:28:20Z</time>
      </trkpt>
      <trkpt lat="40.76417" lon="-8.04428">
        <ele>304.42</ele>
        <time>2019-10-18T09:28:40Z</time>
      </trkpt>
      <trkpt lat="40.76369" lon="-8.04457">
        <ele>302.108</ele>
        <time>2019-10-18T09:29:00Z</time>
      </trkpt>
      <trkpt lat="40.76341" lon="-8.04495">
        <ele>299.453</ele>
        <time>2019-10-18T09:29:20Z</time>
      </trkpt>
      <trkpt lat="40.76332" lon="-8.0452">
        <ele>298.371</ele>
        <time>2019-10-18T09:29:40Z</time>
      </trkpt>
      <trkpt lat="40.76338" lon="-8.04583">
        <ele>297.083</ele>
        <time>2019-10-18T09:30:00Z</time>
      </trkpt>
      <trkpt lat="40.76354" lon="-8.04655">
        <ele>294.143</ele>
        <time>2019-10-18T09:30:20Z</time>
      </trkpt>
      <trkpt lat="40.76346" lon="-8.0473">
        <ele>289.215</ele>
        <time>2019-10-18T09:30:40Z</time>
      </trkpt>
      <trkpt lat="40.76344" lon="-8.04749">
        <ele>286.276</ele>
        <time>2019-10-18T09:31:00Z</time>
      </trkpt>
      <trkpt lat="40.76344" lon="-8.04764">
        <ele>284.778</ele>
        <time>2019-10-18T09:31:20Z</time>
      </trkpt>
      <trkpt lat="40.76344" lon="-8.04771">
        <ele>284.068</ele>
        <time>2019-10-18T09:31:40Z</time>
      </trkpt>
      <trkpt lat="40.76356" lon="-8.04801">
        <ele>283.449</ele>
        <time>2019-10-18T09:32:00Z</time>
      </trkpt>
      <trkpt lat="40.7638" lon="-8.04837">
        <ele>282.602</ele>
        <time>2019-10-18T09:32:20Z</time>
      </trkpt>
      <trkpt lat="40.76391" lon="-8.04879">
        <ele>282.022</ele>
        <time>2019-10-18T09:32:40Z</time>
      </trkpt>
      <trkpt lat="40.76396" lon="-8.04944">
        <ele>283.608</ele>
        <time>2019-10-18T09:33:00Z</time>
      </trkpt>
      <trkpt lat="40.76408" lon="-8.05">
        <ele>284.498</ele>
        <time>2019-10-18T09:33:20Z</time>
      </trkpt>
      <trkpt lat="40.76411" lon="-8.05007">
        <ele>283.446</ele>
        <time>2019-10-18T09:33:40Z</time>
      </trkpt>
      <trkpt lat="40.76419" lon="-8.05038">
        <ele>277.128</ele>
        <time>2019-10-18T09:34:00Z</time>
      </trkpt>
      <trkpt lat="40.76424" lon="-8.0506">
        <ele>272.178</ele>
        <time>2019-10-18T09:34:20Z</time>
      </trkpt>
      <trkpt lat="40.76436" lon="-8.05091">
        <ele>270.02</ele>
        <time>2019-10-18T09:34:40Z</time>
      </trkpt>
      <trkpt lat="40.76435" lon="-8.05143">
        <ele>271.291</ele>
        <time>2019-10-18T09:35:00Z</time>
      </trkpt>
      <trkpt lat="40.7643" lon="-8.05152">
        <ele>270.673</ele>
        <time>2019-10-18T09:35:20Z</time>
      </trkpt>
      <trkpt lat="40.76401" lon="-8.05216">
        <ele>263.993</ele>
        <time>2019-10-18T09:35:40Z</time>
      </trkpt>
      <trkpt lat="40.7638" lon="-8.05274">
        <ele>256.799</ele>
        <time>2019-10-18T09:36:00Z</time>
      </trkpt>
      <trkpt lat="40.76373" lon="-8.05297">
        <ele>254.107</ele>
        <time>2019-10-18T09:36:20Z</time>
      </trkpt>
      <trkpt lat="40.76388" lon="-8.05358">
        <ele>251.127</ele>
        <time>2019-10-18T09:36:40Z</time>
      </trkpt>
      <trkpt lat="40.76418" lon="-8.05397">
        <ele>248.308</ele>
        <time>2019-10-18T09:37:00Z</time>
      </trkpt>
      <trkpt lat="40.76408" lon="-8.05396">
        <ele>247.793</ele>
        <time>2019-10-18T09:37:20Z</time>
      </trkpt>
      <trkpt lat="40.76358" lon="-8.05373">
        <ele>244.711</ele>
        <time>2019-10-18T09:37:40Z</time>
      </trkpt>
      <trkpt lat="40.76328" lon="-8.05338">
        <ele>242.533</ele>
        <time>2019-10-18T09:38:00Z</time>
      </trkpt>
      <trkpt lat="40.76322" lon="-8.05285">
        <ele>241.323</ele>
        <time>2019-10-18T09:38:20Z</time>
      </trkpt>
      <trkpt lat="40.76314" lon="-8.05275">
        <ele>238.985</ele>
        <time>2019-10-18T09:38:40Z</time>
      </trkpt>
      <trkpt lat="40.76296" lon="-8.0526">
        <ele>235.796</ele>
        <time>2019-10-18T09:39:00Z</time>
      </trkpt>
      <trkpt lat="40.7627" lon="-8.05249">
        <ele>233.958</ele>
        <time>2019-10-18T09:39:20Z</time>
      </trkpt>
      <trkpt lat="40.76246" lon="-8.05245">
        <ele>233.498</ele>
        <time>2019-10-18T09:39:40Z</time>
      </trkpt>
      <trkpt lat="40.76216" lon="-8.05251">
        <ele>231.483</ele>
        <time>2019-10-18T09:40:00Z</time>
      </trkpt>
      <trkpt lat="40.76179" lon="-8.05248">
        <ele>226.525</ele>
        <time>2019-10-18T09:40:20Z</time>
      </trkpt>
      <trkpt lat="40.76157" lon="-8.05268">
        <ele>223.417</ele>
        <time>2019-10-18T09:40:40Z</time>
      </trkpt>
      <trkpt lat="40.76137" lon="-8.0532">
        <ele>222.008</ele>
        <time>2019-10-18T09:41:00Z</time>
      </trkpt>
      <trkpt lat="40.76125" lon="-8.05341">
        <ele>219.392</ele>
        <time>2019-10-18T09:41:20Z</time>
      </trkpt>
      <trkpt lat="40.76103" lon="-8.05368">
        <ele>216.15</ele>
        <time>2019-10-18T09:41:40Z</time>
      </trkpt>
      <trkpt lat="40.76095" lon="-8.05391">
        <ele>215.462</ele>
        <time>2019-10-18T09:42:00Z</time>
      </trkpt>
      <trkpt lat="40.76087" lon="-8.05436">
        <ele>213.062</ele>
        <time>2019-10-18T09:42:20Z</time>
      </trkpt>
      <trkpt lat="40.76079" lon="-8.05469">
        <ele>209.684</ele>
        <time>2019-10-18T09:42:40Z</time>
      </trkpt>
      <trkpt lat="40.76077" lon="-8.05477">
        <ele>208.735</ele>
        <time>2019-10-18T09:43:00Z</time>
      </trkpt>
      <trkpt lat="40.76062" lon="-8.05502">
        <ele>205.827</ele>
        <time>2019-10-18T09:43:20Z</time>
      </trkpt>
      <trkpt lat="40.76058" lon="-8.05507">
        <ele>205.347</ele>
        <time>2019-10-18T09:43:40Z</time>
      </trkpt>
      <trkpt lat="40.76048" lon="-8.05536">
        <ele>201.763</ele>
        <time>2019-10-18T09:44:00Z</time>
      </trkpt>
      <trkpt lat="40.7604" lon="-8.05558">
        <ele>200.244</ele>
        <time>2019-10-18T09:44:20Z</time>
      </trkpt>
      <trkpt lat="40.76026" lon="-8.05586">
        <ele>197.518</ele>
        <time>2019-10-18T09:44:40Z</time>
      </trkpt>
      <trkpt lat="40.76018" lon="-8.05601">
        <ele>195.408</ele>
        <time>2019-10-18T09:45:00Z</time>
      </trkpt>
      <trkpt lat="40.76008" lon="-8.05621">
        <ele>192.12</ele>
        <time>2019-10-18T09:45:20Z</time>
      </trkpt>
      <trkpt lat="40.76001" lon="-8.05634">
        <ele>190.368</ele>
        <time>2019-10-18T09:45:40Z</time>
      </trkpt>
      <trkpt lat="40.75983" lon="-8.0565">
        <ele>185.34</ele>
        <time>2019-10-18T09:46:00Z</time>
      </trkpt>
      <trkpt lat="40.75974" lon="-8.05658">
        <ele>182.97</ele>
        <time>2019-10-18T09:46:20Z</time>
      </trkpt>
      <trkpt lat="40.75962" lon="-8.0567">
        <ele>179.962</ele>
        <time>2019-10-18T09:46:40Z</time>
      </trkpt>
      <trkpt lat="40.75953" lon="-8.05685">
        <ele>177.323</ele>
        <time>2019-10-18T09:47:00Z</time>
      </trkpt>
      <trkpt lat="40.75946" lon="-8.05704">
        <ele>174.625</ele>
        <time>2019-10-18T09:47:20Z</time>
      </trkpt>
      <trkpt lat="40.75938" lon="-8.05736">
        <ele>170.545</ele>
        <time>2019-10-18T09:47:40Z</time>
      </trkpt>
      <trkpt lat="40.75931" lon="-8.05748">
        <ele>168.641</ele>
        <time>2019-10-18T09:48:00Z</time>
      </trkpt>
      <trkpt lat="40.75945" lon="-8.05765">
        <ele>167.981</ele>
        <time>2019-10-18T09:48:20Z</time>
      </trkpt>
      <trkpt lat="40.75946" lon="-8.0579">
        <ele>165.209</ele>
        <time>2019-10-18T09:48:40Z</time>
      </trkpt>
      <trkpt lat="40.7595" lon="-8.05809">
        <ele>163.908</ele>
        <time>2019-10-18T09:49:00Z</time>
      </trkpt>
      <trkpt lat="40.75954" lon="-8.05835">
        <ele>162.648</ele>
        <time>2019-10-18T09:49:20Z</time>
      </trkpt>
      <trkpt lat="40.75969" lon="-8.05915">
        <ele>162.116</ele>
        <time>2019-10-18T09:49:40Z</time>
      </trkpt>
      <trkpt lat="40.75979" lon="-8.05969">
        <ele>165.048</ele>
        <time>2019-10-18T09:50:00Z</time>
      </trkpt>
      <trkpt lat="40.75999" lon="-8.06001">
        <ele>169.068</ele>
        <time>2019-10-18T09:50:20Z</time>
      </trkpt>
      <trkpt lat="40.76024" lon="-8.06055">
        <ele>176.51</ele>
        <time>2019-10-18T09:50:40Z</time>
      </trkpt>
      <trkpt lat="40.76183" lon="-8.05998">
        <ele>178.311</ele>
        <time>2019-10-18T09:51:00Z</time>
      </trkpt>
      <trkpt lat="40.76267" lon="-8.0601">
        <ele>181.273</ele>
        <time>2019-10-18T09:51:20Z</time>
      </trkpt>
      <trkpt lat="40.76316" lon="-8.06006">
        <ele>177.823</ele>
        <time>2019-10-18T09:51:40Z</time>
      </trkpt>
      <trkpt lat="40.76372" lon="-8.06006">
        <ele>176.596</ele>
        <time>2019-10-18T09:52:00Z</time>
      </trkpt>
      <trkpt lat="40.76384" lon="-8.06009">
        <ele>176.931</ele>
        <time>2019-10-18T09:52:20Z</time>
      </trkpt>
      <trkpt lat="40.76393" lon="-8.06013">
        <ele>177.124</ele>
        <time>2019-10-18T09:52:40Z</time>
      </trkpt>
      <trkpt lat="40.76402" lon="-8.06018">
        <ele>177.008</ele>
        <time>2019-10-18T09:53:00Z</time>
      </trkpt>
      <trkpt lat="40.76417" lon="-8.06033">
        <ele>177.223</ele>
        <time>2019-10-18T09:53:20Z</time>
      </trkpt>
      <trkpt lat="40.7644" lon="-8.06042">
        <ele>175.841</ele>
        <time>2019-10-18T09:53:40Z</time>
      </trkpt>
      <trkpt lat="40.76525" lon="-8.06033">
        <ele>172.723</ele>
        <time>2019-10-18T09:54:00Z</time>
      </trkpt>
      <trkpt lat="40.76626" lon="-8.06035">
        <ele>175.583</ele>
        <time>2019-10-18T09:54:20Z</time>
      </trkpt>
      <trkpt lat="40.76704" lon="-8.06031">
        <ele>173.995</ele>
        <time>2019-10-18T09:54:40Z</time>
      </trkpt>
      <trkpt lat="40.76795" lon="-8.06022">
        <ele>172.186</ele>
        <time>2019-10-18T09:55:00Z</time>
      </trkpt>
      <trkpt lat="40.76898" lon="-8.06016">
        <ele>173.088</ele>
        <time>2019-10-18T09:55:20Z</time>
      </trkpt>
      <trkpt lat="40.76981" lon="-8.06023">
        <ele>173.758</ele>
        <time>2019-10-18T09:55:40Z</time>
      </trkpt>
      <trkpt lat="40.77041" lon="-8.06047">
        <ele>172.782</ele>
        <time>2019-10-18T09:56:00Z</time>
      </trkpt>
      <trkpt lat="40.77074" lon="-8.06081">
        <ele>172.843</ele>
        <time>2019-10-18T09:56:20Z</time>
      </trkpt>
      <trkpt lat="40.77106" lon="-8.06108">
        <ele>173.917</ele>
        <time>2019-10-18T09:56:40Z</time>
      </trkpt>
      <trkpt lat="40.7714" lon="-8.06126">
        <ele>174.008</ele>
        <time>2019-10-18T09:57:00Z</time>
      </trkpt>
      <trkpt lat="40.77182" lon="-8.06156">
        <ele>173.022</ele>
        <time>2019-10-18T09:57:20Z</time>
      </trkpt>
      <trkpt lat="40.77209" lon="-8.06186">
        <ele>172.81</ele>
        <time>2019-10-18T09:57:40Z</time>
      </trkpt>
      <trkpt lat="40.77228" lon="-8.06211">
        <ele>172.872</ele>
        <time>2019-10-18T09:58:00Z</time>
      </trkpt>
      <trkpt lat="40.7725" lon="-8.0626">
        <ele>172.472</ele>
        <time>2019-10-18T09:58:20Z</time>
      </trkpt>
      <trkpt lat="40.77243" lon="-8.063">
        <ele>177.034</ele>
        <time>2019-10-18T09:58:40Z</time>
      </trkpt>
      <trkpt lat="40.77251" lon="-8.0635">
        <ele>180.745</ele>
        <time>2019-10-18T09:59:00Z</time>
      </trkpt>
      <trkpt lat="40.7726" lon="-8.06388">
        <ele>183.987</ele>
        <time>2019-10-18T09:59:20Z</time>
      </trkpt>
      <trkpt lat="40.7727" lon="-8.0641">
        <ele>184.447</ele>
        <time>2019-10-18T09:59:40Z</time>
      </trkpt>
      <trkpt lat="40.77266" lon="-8.06419">
        <ele>185.433</ele>
        <time>2019-10-18T10:00:00Z</time>
      </trkpt>
      <trkpt lat="40.77258" lon="-8.06445">
        <ele>188.223</ele>
        <time>2019-10-18T10:00:20Z</time>
      </trkpt>
      <trkpt lat="40.77254" lon="-8.06455">
        <ele>190.115</ele>
        <time>2019-10-18T10:00:40Z</time>
      </trkpt>
      <trkpt lat="40.77253" lon="-8.06476">
        <ele>193.708</ele>
        <time>2019-10-18T10:01:00Z</time>
      </trkpt>
      <trkpt lat="40.77271" lon="-8.06497">
        <ele>195.677</ele>
        <time>2019-10-18T10:01:20Z</time>
      </trkpt>
      <trkpt lat="40.77285" lon="-8.06516">
        <ele>196.365</ele>
        <time>2019-10-18T10:01:40Z</time>
      </trkpt>
      <trkpt lat="40.77289" lon="-8.0652">
        <ele>196.067</ele>
        <time>2019-10-18T10:02:00Z</time>
      </trkpt>
      <trkpt lat="40.77291" lon="-8.0654">
        <ele>198.877</ele>
        <time>2019-10-18T10:02:20Z</time>
      </trkpt>
      <trkpt lat="40.77293" lon="-8.06553">
        <ele>200.019</ele>
        <time>2019-10-18T10:02:40Z</time>
      </trkpt>
      <trkpt lat="40.77297" lon="-8.06564">
        <ele>200.18</ele>
        <time>2019-10-18T10:03:00Z</time>
      </trkpt>
      <trkpt lat="40.77306" lon="-8.06573">
        <ele>198.492</ele>
        <time>2019-10-18T10:03:20Z</time>
      </trkpt>
      <trkpt lat="40.77311" lon="-8.0658">
        <ele>198.792</ele>
        <time>2019-10-18T10:03:40Z</time>
      </trkpt>
      <trkpt lat="40.77329" lon="-8.06605">
        <ele>199.441</ele>
        <time>2019-10-18T10:04:00Z</time>
      </trkpt>
      <trkpt lat="40.77353" lon="-8.06618">
        <ele>199.681</ele>
        <time>2019-10-18T10:04:20Z</time>
      </trkpt>
      <trkpt lat="40.77384" lon="-8.06628">
        <ele>198.809</ele>
        <time>2019-10-18T10:04:40Z</time>
      </trkpt>
      <trkpt lat="40.77403" lon="-8.06641">
        <ele>201.108</ele>
        <time>2019-10-18T10:05:00Z</time>
      </trkpt>
      <trkpt lat="40.77411" lon="-8.06656">
        <ele>204.518</ele>
        <time>2019-10-18T10:05:20Z</time>
      </trkpt>
      <trkpt lat="40.77416" lon="-8.06662">
        <ele>205.866</ele>
        <time>2019-10-18T10:05:40Z</time>
      </trkpt>
      <trkpt lat="40.77429" lon="-8.06675">
        <ele>208.118</ele>
        <time>2019-10-18T10:06:00Z</time>
      </trkpt>
      <trkpt lat="40.77445" lon="-8.06719">
        <ele>211.428</ele>
        <time>2019-10-18T10:06:20Z</time>
      </trkpt>
      <trkpt lat="40.77456" lon="-8.06764">
        <ele>203.38</ele>
        <time>2019-10-18T10:06:40Z</time>
      </trkpt>
      <trkpt lat="40.77466" lon="-8.06806">
        <ele>194.531</ele>
        <time>2019-10-18T10:07:00Z</time>
      </trkpt>
      <trkpt lat="40.77469" lon="-8.06864">
        <ele>192.493</ele>
        <time>2019-10-18T10:07:20Z</time>
      </trkpt>
      <trkpt lat="40.77492" lon="-8.06876">
        <ele>191.783</ele>
        <time>2019-10-18T10:07:40Z</time>
      </trkpt>
      <trkpt lat="40.775" lon="-8.06872">
        <ele>190.487</ele>
        <time>2019-10-18T10:08:00Z</time>
      </trkpt>
      <trkpt lat="40.77534" lon="-8.06853">
        <ele>187.542</ele>
        <time>2019-10-18T10:08:20Z</time>
      </trkpt>
      <trkpt lat="40.77561" lon="-8.06852">
        <ele>185.626</ele>
        <time>2019-10-18T10:08:40Z</time>
      </trkpt>
      <trkpt lat="40.77617" lon="-8.06854">
        <ele>182.508</ele>
        <time>2019-10-18T10:09:00Z</time>
      </trkpt>
      <trkpt lat="40.77635" lon="-8.0684">
        <ele>179.842</ele>
        <time>2019-10-18T10:09:20Z</time>
      </trkpt>
      <trkpt lat="40.77644" lon="-8.06799">
        <ele>179.46</ele>
        <time>2019-10-18T10:09:40Z</time>
      </trkpt>
      <trkpt lat="40.77647" lon="-8.06788">
        <ele>180.052</ele>
        <time>2019-10-18T10:10:00Z</time>
      </trkpt>
      <trkpt lat="40.77654" lon="-8.06756">
        <ele>182.892</ele>
        <time>2019-10-18T10:10:20Z</time>
      </trkpt>
      <trkpt lat="40.77656" lon="-8.06749">
        <ele>183.414</ele>
        <time>2019-10-18T10:10:40Z</time>
      </trkpt>
      <trkpt lat="40.77675" lon="-8.06727">
        <ele>184.765</ele>
        <time>2019-10-18T10:11:00Z</time>
      </trkpt>
      <trkpt lat="40.77696" lon="-8.0672">
        <ele>185.857</ele>
        <time>2019-10-18T10:11:20Z</time>
      </trkpt>
      <trkpt lat="40.77708" lon="-8.06715">
        <ele>186.247</ele>
        <time>2019-10-18T10:11:40Z</time>
      </trkpt>
      <trkpt lat="40.77716" lon="-8.06712">
        <ele>186.737</ele>
        <time>2019-10-18T10:12:00Z</time>
      </trkpt>
      <trkpt lat="40.7774" lon="-8.0671">
        <ele>189.749</ele>
        <time>2019-10-18T10:12:20Z</time>
      </trkpt>
      <trkpt lat="40.77763" lon="-8.0671">
        <ele>193.313</ele>
        <time>2019-10-18T10:12:40Z</time>
      </trkpt>
      <trkpt lat="40.7777" lon="-8.06709">
        <ele>194.308</ele>
        <time>2019-10-18T10:13:00Z</time>
      </trkpt>
      <trkpt lat="40.77778" lon="-8.0671">
        <ele>195.847</ele>
        <time>2019-10-18T10:13:20Z</time>
      </trkpt>
      <trkpt lat="40.77803" lon="-8.06716">
        <ele>199.455</ele>
        <time>2019-10-18T10:13:40Z</time>
      </trkpt>
      <trkpt lat="40.77831" lon="-8.06721">
        <ele>202.597</ele>
        <time>2019-10-18T10:14:00Z</time>
      </trkpt>
      <trkpt lat="40.77852" lon="-8.06742">
        <ele>207.717</ele>
        <time>2019-10-18T10:14:20Z</time>
      </trkpt>
      <trkpt lat="40.77862" lon="-8.06753">
        <ele>210.439</ele>
        <time>2019-10-18T10:14:40Z</time>
      </trkpt>
      <trkpt lat="40.7789" lon="-8.06763">
        <ele>212.46</ele>
        <time>2019-10-18T10:15:00Z</time>
      </trkpt>
      <trkpt lat="40.779" lon="-8.06778">
        <ele>214.892</ele>
        <time>2019-10-18T10:15:20Z</time>
      </trkpt>
      <trkpt lat="40.77934" lon="-8.068">
        <ele>218.992</ele>
        <time>2019-10-18T10:15:40Z</time>
      </trkpt>
      <trkpt lat="40.7799" lon="-8.06747">
        <ele>226.725</ele>
        <time>2019-10-18T10:16:00Z</time>
      </trkpt>
      <trkpt lat="40.7801" lon="-8.06753">
        <ele>227.226</ele>
        <time>2019-10-18T10:16:20Z</time>
      </trkpt>
      <trkpt lat="40.78035" lon="-8.06795">
        <ele>231.608</ele>
        <time>2019-10-18T10:16:40Z</time>
      </trkpt>
      <trkpt lat="40.78128" lon="-8.06969">
        <ele>262.308</ele>
        <time>2019-10-18T10:17:00Z</time>
      </trkpt>
      <trkpt lat="40.7816" lon="-8.07002">
        <ele>261.016</ele>
        <time>2019-10-18T10:17:20Z</time>
      </trkpt>
      <trkpt lat="40.78182" lon="-8.07051">
        <ele>267.974</ele>
        <time>2019-10-18T10:17:40Z</time>
      </trkpt>
      <trkpt lat="40.78193" lon="-8.07173">
        <ele>278.066</ele>
        <time>2019-10-18T10:18:00Z</time>
      </trkpt>
      <trkpt lat="40.7824" lon="-8.07206">
        <ele>288.726</ele>
        <time>2019-10-18T10:18:20Z</time>
      </trkpt>
      <trkpt lat="40.7831" lon="-8.07413">
        <ele>299.088</ele>
        <time>2019-10-18T10:18:40Z</time>
      </trkpt>
      <trkpt lat="40.78313" lon="-8.07504">
        <ele>303.259</ele>
        <time>2019-10-18T10:19:00Z</time>
      </trkpt>
      <trkpt lat="40.78337" lon="-8.07564">
        <ele>306.921</ele>
        <time>2019-10-18T10:19:20Z</time>
      </trkpt>
      <trkpt lat="40.78333" lon="-8.07606">
        <ele>306.721</ele>
        <time>2019-10-18T10:19:40Z</time>
      </trkpt>
      <trkpt lat="40.78353" lon="-8.07622">
        <ele>312.252</ele>
        <time>2019-10-18T10:20:00Z</time>
      </trkpt>
      <trkpt lat="40.78389" lon="-8.07613">
        <ele>318.853</ele>
        <time>2019-10-18T10:20:20Z</time>
      </trkpt>
      <trkpt lat="40.78466" lon="-8.07615">
        <ele>326.708</ele>
        <time>2019-10-18T10:20:40Z</time>
      </trkpt>
      <trkpt lat="40.78504" lon="-8.07639">
        <ele>326.508</ele>
        <time>2019-10-18T10:21:00Z</time>
      </trkpt>
      <trkpt lat="40.7855" lon="-8.07702">
        <ele>332.859</ele>
        <time>2019-10-18T10:21:20Z</time>
      </trkpt>
      <trkpt lat="40.78599" lon="-8.07746">
        <ele>332.087</ele>
        <time>2019-10-18T10:21:40Z</time>
      </trkpt>
      <trkpt lat="40.78624" lon="-8.07835">
        <ele>336.819</ele>
        <time>2019-10-18T10:22:00Z</time>
      </trkpt>
      <trkpt lat="40.78635" lon="-8.07559">
        <ele>345.469</ele>
        <time>2019-10-18T10:22:20Z</time>
      </trkpt>
      <trkpt lat="40.78764" lon="-8.0749">
        <ele>350.571</ele>
        <time>2019-10-18T10:22:40Z</time>
      </trkpt>
      <trkpt lat="40.78823" lon="-8.07536">
        <ele>357.142</ele>
        <time>2019-10-18T10:23:00Z</time>
      </trkpt>
      <trkpt lat="40.78947" lon="-8.0746">
        <ele>364.084</ele>
        <time>2019-10-18T10:23:20Z</time>
      </trkpt>
      <trkpt lat="40.79004" lon="-8.074">
        <ele>370.994</ele>
        <time>2019-10-18T10:23:40Z</time>
      </trkpt>
      <trkpt lat="40.79071" lon="-8.0743">
        <ele>376.921</ele>
        <time>2019-10-18T10:24:00Z</time>
      </trkpt>
      <trkpt lat="40.7922" lon="-8.0735">
        <ele>382.141</ele>
        <time>2019-10-18T10:24:20Z</time>
      </trkpt>
      <trkpt lat="40.79276" lon="-8.0736">
        <ele>387.705</ele>
        <time>2019-10-18T10:24:40Z</time>
      </trkpt>
      <trkpt lat="40.79371" lon="-8.0744">
        <ele>394.408</ele>
        <time>2019-10-18T10:25:00Z</time>
      </trkpt>
      <trkpt lat="40.79414" lon="-8.0737">
        <ele>405.176</ele>
        <time>2019-10-18T10:25:20Z</time>
      </trkpt>
      <trkpt lat="40.79562" lon="-8.07233">
        <ele>420.524</ele>
        <time>2019-10-18T10:25:40Z</time>
      </trkpt>
      <trkpt lat="40.79627" lon="-8.07133">
        <ele>424.496</ele>
        <time>2019-10-18T10:26:00Z</time>
      </trkpt>
      <trkpt lat="40.79753" lon="-8.07116">
        <ele>430.346</ele>
        <time>2019-10-18T10:26:20Z</time>
      </trkpt>
      <trkpt lat="40.79853" lon="-8.07156">
        <ele>431.528</ele>
        <time>2019-10-18T10:26:40Z</time>
      </trkpt>
      <trkpt lat="40.7991" lon="-8.07102">
        <ele>434.189</ele>
        <time>2019-10-18T10:27:00Z</time>
      </trkpt>
      <trkpt lat="40.79926" lon="-8.0709">
        <ele>435.851</ele>
        <time>2019-10-18T10:27:20Z</time>
      </trkpt>
      <trkpt lat="40.79948" lon="-8.07082">
        <ele>437.681</ele>
        <time>2019-10-18T10:27:40Z</time>
      </trkpt>
      <trkpt lat="40.7997" lon="-8.07083">
        <ele>440.799</ele>
        <time>2019-10-18T10:28:00Z</time>
      </trkpt>
      <trkpt lat="40.79976" lon="-8.07082">
        <ele>441.507</ele>
        <time>2019-10-18T10:28:20Z</time>
      </trkpt>
      <trkpt lat="40.79995" lon="-8.07077">
        <ele>443.727</ele>
        <time>2019-10-18T10:28:40Z</time>
      </trkpt>
      <trkpt lat="40.8" lon="-8.07079">
        <ele>444.108</ele>
        <time>2019-10-18T10:29:00Z</time>
      </trkpt>
      <trkpt lat="40.80005" lon="-8.0708">
        <ele>444.353</ele>
        <time>2019-10-18T10:29:20Z</time>
      </trkpt>
      <trkpt lat="40.8002" lon="-8.07086">
        <ele>444.551</ele>
        <time>2019-10-18T10:29:40Z</time>
      </trkpt>
      <trkpt lat="40.80038" lon="-8.07096">
        <ele>445.783</ele>
        <time>2019-10-18T10:30:00Z</time>
      </trkpt>
      <trkpt lat="40.80045" lon="-8.07098">
        <ele>446.393</ele>
        <time>2019-10-18T10:30:20Z</time>
      </trkpt>
      <trkpt lat="40.80068" lon="-8.07094">
        <ele>449.245</ele>
        <time>2019-10-18T10:30:40Z</time>
      </trkpt>
      <trkpt lat="40.80091" lon="-8.07087">
        <ele>451.526</ele>
        <time>2019-10-18T10:31:00Z</time>
      </trkpt>
      <trkpt lat="40.80118" lon="-8.0708">
        <ele>451.828</ele>
        <time>2019-10-18T10:31:20Z</time>
      </trkpt>
      <trkpt lat="40.80136" lon="-8.0708">
        <ele>453.218</ele>
        <time>2019-10-18T10:31:40Z</time>
      </trkpt>
      <trkpt lat="40.80159" lon="-8.07081">
        <ele>456.063</ele>
        <time>2019-10-18T10:32:00Z</time>
      </trkpt>
      <trkpt lat="40.80189" lon="-8.07089">
        <ele>459.344</ele>
        <time>2019-10-18T10:32:20Z</time>
      </trkpt>
      <trkpt lat="40.80213" lon="-8.07107">
        <ele>459.418</ele>
        <time>2019-10-18T10:32:40Z</time>
      </trkpt>
      <trkpt lat="40.80217" lon="-8.07111">
        <ele>459.208</ele>
        <time>2019-10-18T10:33:00Z</time>
      </trkpt>
      <trkpt lat="40.80235" lon="-8.07132">
        <ele>458.74</ele>
        <time>2019-10-18T10:33:20Z</time>
      </trkpt>
      <trkpt lat="40.80253" lon="-8.07143">
        <ele>458.558</ele>
        <time>2019-10-18T10:33:40Z</time>
      </trkpt>
      <trkpt lat="40.80276" lon="-8.07127">
        <ele>461.93</ele>
        <time>2019-10-18T10:34:00Z</time>
      </trkpt>
      <trkpt lat="40.8029" lon="-8.07112">
        <ele>464.85</ele>
        <time>2019-10-18T10:34:20Z</time>
      </trkpt>
      <trkpt lat="40.80313" lon="-8.07092">
        <ele>468.272</ele>
        <time>2019-10-18T10:34:40Z</time>
      </trkpt>
      <trkpt lat="40.80332" lon="-8.07075">
        <ele>469.453</ele>
        <time>2019-10-18T10:35:00Z</time>
      </trkpt>
      <trkpt lat="40.80357" lon="-8.07052">
        <ele>473.765</ele>
        <time>2019-10-18T10:35:20Z</time>
      </trkpt>
      <trkpt lat="40.80365" lon="-8.0705">
        <ele>474.225</ele>
        <time>2019-10-18T10:35:40Z</time>
      </trkpt>
      <trkpt lat="40.80387" lon="-8.07056">
        <ele>474.827</ele>
        <time>2019-10-18T10:36:00Z</time>
      </trkpt>
      <trkpt lat="40.80407" lon="-8.07062">
        <ele>474.868</ele>
        <time>2019-10-18T10:36:20Z</time>
      </trkpt>
      <trkpt lat="40.80428" lon="-8.07067">
        <ele>475.514</ele>
        <time>2019-10-18T10:36:40Z</time>
      </trkpt>
      <trkpt lat="40.80459" lon="-8.07074">
        <ele>476.708</ele>
        <time>2019-10-18T10:37:00Z</time>
      </trkpt>
      <trkpt lat="40.80499" lon="-8.07087">
        <ele>475.986</ele>
        <time>2019-10-18T10:37:20Z</time>
      </trkpt>
      <trkpt lat="40.80525" lon="-8.07102">
        <ele>475.924</ele>
        <time>2019-10-18T10:37:40Z</time>
      </trkpt>
      <trkpt lat="40.8053" lon="-8.07108">
        <ele>476.216</ele>
        <time>2019-10-18T10:38:00Z</time>
      </trkpt>
      <trkpt lat="40.80554" lon="-8.07127">
        <ele>477.826</ele>
        <time>2019-10-18T10:38:20Z</time>
      </trkpt>
      <trkpt lat="40.80573" lon="-8.07138">
        <ele>479.268</ele>
        <time>2019-10-18T10:38:40Z</time>
      </trkpt>
      <trkpt lat="40.80596" lon="-8.07151">
        <ele>478.729</ele>
        <time>2019-10-18T10:39:00Z</time>
      </trkpt>
      <trkpt lat="40.80629" lon="-8.07169">
        <ele>478.081</ele>
        <time>2019-10-18T10:39:20Z</time>
      </trkpt>
      <trkpt lat="40.80636" lon="-8.07175">
        <ele>477.911</ele>
        <time>2019-10-18T10:39:40Z</time>
      </trkpt>
      <trkpt lat="40.80668" lon="-8.07195">
        <ele>479.032</ele>
        <time>2019-10-18T10:40:00Z</time>
      </trkpt>
      <trkpt lat="40.80698" lon="-8.07204">
        <ele>480.592</ele>
        <time>2019-10-18T10:40:20Z</time>
      </trkpt>
      <trkpt lat="40.80727" lon="-8.07216">
        <ele>478.511</ele>
        <time>2019-10-18T10:40:40Z</time>
      </trkpt>
      <trkpt lat="40.80758" lon="-8.07223">
        <ele>476.708</ele>
        <time>2019-10-18T10:41:00Z</time>
      </trkpt>
      <trkpt lat="40.80795" lon="-8.07222">
        <ele>477.967</ele>
        <time>2019-10-18T10:41:20Z</time>
      </trkpt>
      <trkpt lat="40.8083" lon="-8.0723">
        <ele>480.055</ele>
        <time>2019-10-18T10:41:40Z</time>
      </trkpt>
      <trkpt lat="40.80865" lon="-8.07246">
        <ele>479.417</ele>
        <time>2019-10-18T10:42:00Z</time>
      </trkpt>
      <trkpt lat="40.80888" lon="-8.07259">
        <ele>479.947</ele>
        <time>2019-10-18T10:42:20Z</time>
      </trkpt>
      <trkpt lat="40.80914" lon="-8.07274">
        <ele>482.029</ele>
        <time>2019-10-18T10:42:40Z</time>
      </trkpt>
      <trkpt lat="40.80938" lon="-8.07297">
        <ele>483.04</ele>
        <time>2019-10-18T10:43:00Z</time>
      </trkpt>
      <trkpt lat="40.8096" lon="-8.07321">
        <ele>482.862</ele>
        <time>2019-10-18T10:43:20Z</time>
      </trkpt>
      <trkpt lat="40.80995" lon="-8.07347">
        <ele>484.162</ele>
        <time>2019-10-18T10:43:40Z</time>
      </trkpt>
      <trkpt lat="40.81011" lon="-8.07369">
        <ele>484.245</ele>
        <time>2019-10-18T10:44:00Z</time>
      </trkpt>
      <trkpt lat="40.81032" lon="-8.074">
        <ele>485.247</ele>
        <time>2019-10-18T10:44:20Z</time>
      </trkpt>
      <trkpt lat="40.81051" lon="-8.07421">
        <ele>486.811</ele>
        <time>2019-10-18T10:44:40Z</time>
      </trkpt>
      <trkpt lat="40.81074" lon="-8.07445">
        <ele>489.308</ele>
        <time>2019-10-18T10:45:00Z</time>
      </trkpt>
      <trkpt lat="40.81095" lon="-8.07472">
        <ele>492.068</ele>
        <time>2019-10-18T10:45:20Z</time>
      </trkpt>
      <trkpt lat="40.81114" lon="-8.07491">
        <ele>492.826</ele>
        <time>2019-10-18T10:45:40Z</time>
      </trkpt>
      <trkpt lat="40.8113" lon="-8.0751">
        <ele>493.628</ele>
        <time>2019-10-18T10:46:00Z</time>
      </trkpt>
      <trkpt lat="40.81144" lon="-8.07526">
        <ele>494.668</ele>
        <time>2019-10-18T10:46:20Z</time>
      </trkpt>
      <trkpt lat="40.81153" lon="-8.07531">
        <ele>495.31</ele>
        <time>2019-10-18T10:46:40Z</time>
      </trkpt>
      <trkpt lat="40.81174" lon="-8.07535">
        <ele>497.891</ele>
        <time>2019-10-18T10:47:00Z</time>
      </trkpt>
      <trkpt lat="40.81183" lon="-8.07536">
        <ele>499.393</ele>
        <time>2019-10-18T10:47:20Z</time>
      </trkpt>
      <trkpt lat="40.81204" lon="-8.07538">
        <ele>502.553</ele>
        <time>2019-10-18T10:47:40Z</time>
      </trkpt>
      <trkpt lat="40.81228" lon="-8.07537">
        <ele>505.386</ele>
        <time>2019-10-18T10:48:00Z</time>
      </trkpt>
      <trkpt lat="40.81255" lon="-8.07547">
        <ele>505.96</ele>
        <time>2019-10-18T10:48:20Z</time>
      </trkpt>
      <trkpt lat="40.81272" lon="-8.07558">
        <ele>504.726</ele>
        <time>2019-10-18T10:48:40Z</time>
      </trkpt>
      <trkpt lat="40.81285" lon="-8.07563">
        <ele>504.308</ele>
        <time>2019-10-18T10:49:00Z</time>
      </trkpt>
      <trkpt lat="40.81305" lon="-8.07579">
        <ele>502.642</ele>
        <time>2019-10-18T10:49:20Z</time>
      </trkpt>
      <trkpt lat="40.81313" lon="-8.07617">
        <ele>502.06</ele>
        <time>2019-10-18T10:49:40Z</time>
      </trkpt>
      <trkpt lat="40.81307" lon="-8.07628">
        <ele>501.722</ele>
        <time>2019-10-18T10:50:00Z</time>
      </trkpt>
      <trkpt lat="40.81281" lon="-8.07649">
        <ele>502.142</ele>
        <time>2019-10-18T10:50:20Z</time>
      </trkpt>
      <trkpt lat="40.81247" lon="-8.07669">
        <ele>502.954</ele>
        <time>2019-10-18T10:50:40Z</time>
      </trkpt>
      <trkpt lat="40.81222" lon="-8.07692">
        <ele>501.745</ele>
        <time>2019-10-18T10:51:00Z</time>
      </trkpt>
      <trkpt lat="40.81444" lon="-8.07866">
        <ele>533.367</ele>
        <time>2019-10-18T10:51:20Z</time>
      </trkpt>
      <trkpt lat="40.81777" lon="-8.08101">
        <ele>633.327</ele>
        <time>2019-10-18T10:51:40Z</time>
      </trkpt>
      <trkpt lat="40.82305" lon="-8.08277">
        <ele>693.833</ele>
        <time>2019-10-18T10:52:00Z</time>
      </trkpt>
      <trkpt lat="40.82625" lon="-8.08363">
        <ele>754.623</ele>
        <time>2019-10-18T10:52:20Z</time>
      </trkpt>
      <trkpt lat="40.8277" lon="-8.08534">
        <ele>762.115</ele>
        <time>2019-10-18T10:52:40Z</time>
      </trkpt>
      <trkpt lat="40.8282" lon="-8.08775">
        <ele>798.108</ele>
        <time>2019-10-18T10:53:00Z</time>
      </trkpt>
      <trkpt lat="40.82895" lon="-8.08876">
        <ele>824.377</ele>
        <time>2019-10-18T10:53:20Z</time>
      </trkpt>
      <trkpt lat="40.82914" lon="-8.08984">
        <ele>839.035</ele>
        <time>2019-10-18T10:53:40Z</time>
      </trkpt>
      <trkpt lat="40.82895" lon="-8.09054">
        <ele>850.037</ele>
        <time>2019-10-18T10:54:00Z</time>
      </trkpt>
      <trkpt lat="40.8287" lon="-8.08984">
        <ele>856.887</ele>
        <time>2019-10-18T10:54:20Z</time>
      </trkpt>
      <trkpt lat="40.82839" lon="-8.08992">
        <ele>860.839</ele>
        <time>2019-10-18T10:54:40Z</time>
      </trkpt>
      <trkpt lat="40.82839" lon="-8.09062">
        <ele>868.99</ele>
        <time>2019-10-18T10:55:00Z</time>
      </trkpt>
      <trkpt lat="40.82751" lon="-8.09148">
        <ele>892.612</ele>
        <time>2019-10-18T10:55:20Z</time>
      </trkpt>
      <trkpt lat="40.82744" lon="-8.09241">
        <ele>903.292</ele>
        <time>2019-10-18T10:55:40Z</time>
      </trkpt>
      <trkpt lat="40.82902" lon="-8.09327">
        <ele>920.861</ele>
        <time>2019-10-18T10:56:00Z</time>
      </trkpt>
      <trkpt lat="40.83002" lon="-8.09466">
        <ele>926.921</ele>
        <time>2019-10-18T10:56:20Z</time>
      </trkpt>
      <trkpt lat="40.82952" lon="-8.09536">
        <ele>932.713</ele>
        <time>2019-10-18T10:56:40Z</time>
      </trkpt>
      <trkpt lat="40.82895" lon="-8.09852">
        <ele>939.508</ele>
        <time>2019-10-18T10:57:00Z</time>
      </trkpt>
      <trkpt lat="40.82893" lon="-8.09878">
        <ele>938.86</ele>
        <time>2019-10-18T10:57:20Z</time>
      </trkpt>
      <trkpt lat="40.82876" lon="-8.09945">
        <ele>937.148</ele>
        <time>2019-10-18T10:57:40Z</time>
      </trkpt>
      <trkpt lat="40.82876" lon="-8.09968">
        <ele>938.23</ele>
        <time>2019-10-18T10:58:00Z</time>
      </trkpt>
      <trkpt lat="40.82867" lon="-8.09973">
        <ele>938.83</ele>
        <time>2019-10-18T10:58:20Z</time>
      </trkpt>
      <trkpt lat="40.82861" lon="-8.09983">
        <ele>941.292</ele>
        <time>2019-10-18T10:58:40Z</time>
      </trkpt>
      <trkpt lat="40.82866" lon="-8.10015">
        <ele>947.683</ele>
        <time>2019-10-18T10:59:00Z</time>
      </trkpt>
      <trkpt lat="40.8288" lon="-8.10086">
        <ele>954.945</ele>
        <time>2019-10-18T10:59:20Z</time>
      </trkpt>
      <trkpt lat="40.82895" lon="-8.10134">
        <ele>966.145</ele>
        <time>2019-10-18T10:59:40Z</time>
      </trkpt>
      <trkpt lat="40.82894" lon="-8.10161">
        <ele>973.413</ele>
        <time>2019-10-18T11:00:00Z</time>
      </trkpt>
      <trkpt lat="40.82885" lon="-8.10167">
        <ele>974.743</ele>
        <time>2019-10-18T11:00:20Z</time>
      </trkpt>
      <trkpt lat="40.82863" lon="-8.10164">
        <ele>972.807</ele>
        <time>2019-10-18T11:00:40Z</time>
      </trkpt>
      <trkpt lat="40.82841" lon="-8.10175">
        <ele>972.708</ele>
        <time>2019-10-18T11:01:00Z</time>
      </trkpt>
      <trkpt lat="40.82815" lon="-8.102">
        <ele>980.395</ele>
        <time>2019-10-18T11:01:20Z</time>
      </trkpt>
      <trkpt lat="40.82748" lon="-8.10352">
        <ele>1000.383</ele>
        <time>2019-10-18T11:01:40Z</time>
      </trkpt>
      <trkpt lat="40.82752" lon="-8.1053">
        <ele>1014.475</ele>
        <time>2019-10-18T11:02:00Z</time>
      </trkpt>
      <trkpt lat="40.82874" lon="-8.10658">
        <ele>1030.735</ele>
        <time>2019-10-18T11:02:20Z</time>
      </trkpt>
      <trkpt lat="40.82874" lon="-8.10802">
        <ele>1043.557</ele>
        <time>2019-10-18T11:02:40Z</time>
      </trkpt>
      <trkpt lat="40.83035" lon="-8.11146">
        <ele>1041.038</ele>
        <time>2019-10-18T11:03:00Z</time>
      </trkpt>
      <trkpt lat="40.83022" lon="-8.11246">
        <ele>1046.47</ele>
        <time>2019-10-18T11:03:20Z</time>
      </trkpt>
      <trkpt lat="40.83058" lon="-8.11396">
        <ele>1061.82</ele>
        <time>2019-10-18T11:03:40Z</time>
      </trkpt>
      <trkpt lat="40.83031" lon="-8.1179">
        <ele>1065.298</ele>
        <time>2019-10-18T11:04:00Z</time>
      </trkpt>
      <trkpt lat="40.83067" lon="-8.11946">
        <ele>1058.415</ele>
        <time>2019-10-18T11:04:20Z</time>
      </trkpt>
      <trkpt lat="40.83062" lon="-8.1214">
        <ele>1053.426</ele>
        <time>2019-10-18T11:04:40Z</time>
      </trkpt>
      <trkpt lat="40.82982" lon="-8.12479">
        <ele>1048.408</ele>
        <time>2019-10-18T11:05:00Z</time>
      </trkpt>
      <trkpt lat="40.82702" lon="-8.12927">
        <ele>1011.693</ele>
        <time>2019-10-18T11:05:20Z</time>
      </trkpt>
      <trkpt lat="40.82733" lon="-8.12924">
        <ele>1013.131</ele>
        <time>2019-10-18T11:05:40Z</time>
      </trkpt>
      <trkpt lat="40.82752" lon="-8.12957">
        <ele>1014.043</ele>
        <time>2019-10-18T11:06:00Z</time>
      </trkpt>
      <trkpt lat="40.82819" lon="-8.13086">
        <ele>1012.323</ele>
        <time>2019-10-18T11:06:20Z</time>
      </trkpt>
      <trkpt lat="40.82788" lon="-8.13202">
        <ele>1013.045</ele>
        <time>2019-10-18T11:06:40Z</time>
      </trkpt>
      <trkpt lat="40.82751" lon="-8.13251">
        <ele>1013.046</ele>
        <time>2019-10-18T11:07:00Z</time>
      </trkpt>
      <trkpt lat="40.82743" lon="-8.13391">
        <ele>1016.918</ele>
        <time>2019-10-18T11:07:20Z</time>
      </trkpt>
      <trkpt lat="40.82751" lon="-8.13526">
        <ele>1009.078</ele>
        <time>2019-10-18T11:07:40Z</time>
      </trkpt>
      <trkpt lat="40.82756" lon="-8.13606">
        <ele>1008.429</ele>
        <time>2019-10-18T11:08:00Z</time>
      </trkpt>
      <trkpt lat="40.82728" lon="-8.13706">
        <ele>1002.7</ele>
        <time>2019-10-18T11:08:20Z</time>
      </trkpt>
      <trkpt lat="40.82718" lon="-8.13827">
        <ele>990.82</ele>
        <time>2019-10-18T11:08:40Z</time>
      </trkpt>
      <trkpt lat="40.82716" lon="-8.13874">
        <ele>987.308</ele>
        <time>2019-10-18T11:09:00Z</time>
      </trkpt>
      <trkpt lat="40.82714" lon="-8.13924">
        <ele>983.696</ele>
        <time>2019-10-18T11:09:20Z</time>
      </trkpt>
      <trkpt lat="40.82712" lon="-8.14004">
        <ele>981.624</ele>
        <time>2019-10-18T11:09:40Z</time>
      </trkpt>
      <trkpt lat="40.82713" lon="-8.14064">
        <ele>977.456</ele>
        <time>2019-10-18T11:10:00Z</time>
      </trkpt>
      <trkpt lat="40.82719" lon="-8.14138">
        <ele>976.216</ele>
        <time>2019-10-18T11:10:20Z</time>
      </trkpt>
      <trkpt lat="40.82722" lon="-8.14153">
        <ele>975.578</ele>
        <time>2019-10-18T11:10:40Z</time>
      </trkpt>
      <trkpt lat="40.82731" lon="-8.14192">
        <ele>974.079</ele>
        <time>2019-10-18T11:11:00Z</time>
      </trkpt>
      <trkpt lat="40.82765" lon="-8.14272">
        <ele>970.781</ele>
        <time>2019-10-18T11:11:20Z</time>
      </trkpt>
      <trkpt lat="40.82792" lon="-8.14331">
        <ele>967.361</ele>
        <time>2019-10-18T11:11:40Z</time>
      </trkpt>
      <trkpt lat="40.82815" lon="-8.1438">
        <ele>966.056</ele>
        <time>2019-10-18T11:12:00Z</time>
      </trkpt>
      <trkpt lat="40.8282" lon="-8.14392">
        <ele>965.059</ele>
        <time>2019-10-18T11:12:20Z</time>
      </trkpt>
      <trkpt lat="40.82838" lon="-8.14431">
        <ele>959.514</ele>
        <time>2019-10-18T11:12:40Z</time>
      </trkpt>
      <trkpt lat="40.82863" lon="-8.1448">
        <ele>956.108</ele>
        <time>2019-10-18T11:13:00Z</time>
      </trkpt>
      <trkpt lat="40.82875" lon="-8.14503">
        <ele>955.669</ele>
        <time>2019-10-18T11:13:20Z</time>
      </trkpt>
      <trkpt lat="40.82869" lon="-8.14576">
        <ele>956.187</ele>
        <time>2019-10-18T11:13:40Z</time>
      </trkpt>
      <trkpt lat="40.82808" lon="-8.14655">
        <ele>952.659</ele>
        <time>2019-10-18T11:14:00Z</time>
      </trkpt>
      <trkpt lat="40.82793" lon="-8.14668">
        <ele>951.459</ele>
        <time>2019-10-18T11:14:20Z</time>
      </trkpt>
      <trkpt lat="40.82767" lon="-8.14708">
        <ele>952.771</ele>
        <time>2019-10-18T11:14:40Z</time>
      </trkpt>
      <trkpt lat="40.82747" lon="-8.14751">
        <ele>953.952</ele>
        <time>2019-10-18T11:15:00Z</time>
      </trkpt>
      <trkpt lat="40.82732" lon="-8.14788">
        <ele>953.214</ele>
        <time>2019-10-18T11:15:20Z</time>
      </trkpt>
      <trkpt lat="40.82714" lon="-8.14812">
        <ele>953.964</ele>
        <time>2019-10-18T11:15:40Z</time>
      </trkpt>
      <trkpt lat="40.82716" lon="-8.1482">
        <ele>954.126</ele>
        <time>2019-10-18T11:16:00Z</time>
      </trkpt>
      <trkpt lat="40.82715" lon="-8.14843">
        <ele>954.947</ele>
        <time>2019-10-18T11:16:20Z</time>
      </trkpt>
      <trkpt lat="40.82714" lon="-8.14901">
        <ele>953.411</ele>
        <time>2019-10-18T11:16:40Z</time>
      </trkpt>
      <trkpt lat="40.82709" lon="-8.14943">
        <ele>954.708</ele>
        <time>2019-10-18T11:17:00Z</time>
      </trkpt>
      <trkpt lat="40.82709" lon="-8.14953">
        <ele>955.866</ele>
        <time>2019-10-18T11:17:20Z</time>
      </trkpt>
      <trkpt lat="40.82708" lon="-8.14968">
        <ele>957.614</ele>
        <time>2019-10-18T11:17:40Z</time>
      </trkpt>
      <trkpt lat="40.82712" lon="-8.15013">
        <ele>961.586</ele>
        <time>2019-10-18T11:18:00Z</time>
      </trkpt>
      <trkpt lat="40.82738" lon="-8.15033">
        <ele>959.826</ele>
        <time>2019-10-18T11:18:20Z</time>
      </trkpt>
      <trkpt lat="40.82767" lon="-8.15044">
        <ele>957.348</ele>
        <time>2019-10-18T11:18:40Z</time>
      </trkpt>
      <trkpt lat="40.82797" lon="-8.15073">
        <ele>953.479</ele>
        <time>2019-10-18T11:19:00Z</time>
      </trkpt>
      <trkpt lat="40.82831" lon="-8.15138">
        <ele>949.561</ele>
        <time>2019-10-18T11:19:20Z</time>
      </trkpt>
      <trkpt lat="40.82853" lon="-8.15181">
        <ele>946.631</ele>
        <time>2019-10-18T11:19:40Z</time>
      </trkpt>
      <trkpt lat="40.82872" lon="-8.15221">
        <ele>942.777</ele>
        <time>2019-10-18T11:20:00Z</time>
      </trkpt>
      <trkpt lat="40.82897" lon="-8.15275">
        <ele>939.261</ele>
        <time>2019-10-18T11:20:20Z</time>
      </trkpt>
      <trkpt lat="40.82936" lon="-8.15306">
        <ele>938.627</ele>
        <time>2019-10-18T11:20:40Z</time>
      </trkpt>
      <trkpt lat="40.82947" lon="-8.15306">
        <ele>937.908</ele>
        <time>2019-10-18T11:21:00Z</time>
      </trkpt>
      <trkpt lat="40.82994" lon="-8.15304">
        <ele>934.911</ele>
        <time>2019-10-18T11:21:20Z</time>
      </trkpt>
      <trkpt lat="40.83024" lon="-8.15312">
        <ele>934.619</ele>
        <time>2019-10-18T11:21:40Z</time>
      </trkpt>
      <trkpt lat="40.83123" lon="-8.15359">
        <ele>933.561</ele>
        <time>2019-10-18T11:22:00Z</time>
      </trkpt>
      <trkpt lat="40.83143" lon="-8.15366">
        <ele>932.481</ele>
        <time>2019-10-18T11:22:20Z</time>
      </trkpt>
      <trkpt lat="40.83157" lon="-8.15401">
        <ele>929.773</ele>
        <time>2019-10-18T11:22:40Z</time>
      </trkpt>
      <trkpt lat="40.83142" lon="-8.15447">
        <ele>929.114</ele>
        <time>2019-10-18T11:23:00Z</time>
      </trkpt>
      <trkpt lat="40.83132" lon="-8.15489">
        <ele>930.356</ele>
        <time>2019-10-18T11:23:20Z</time>
      </trkpt>
      <trkpt lat="40.83109" lon="-8.15586">
        <ele>928.126</ele>
        <time>2019-10-18T11:23:40Z</time>
      </trkpt>
      <trkpt lat="40.83111" lon="-8.15625">
        <ele>927.696</ele>
        <time>2019-10-18T11:24:00Z</time>
      </trkpt>
      <trkpt lat="40.83131" lon="-8.15696">
        <ele>927.531</ele>
        <time>2019-10-18T11:24:20Z</time>
      </trkpt>
      <trkpt lat="40.83147" lon="-8.15751">
        <ele>928.924</ele>
        <time>2019-10-18T11:24:40Z</time>
      </trkpt>
      <trkpt lat="40.83164" lon="-8.15788">
        <ele>929.208</ele>
        <time>2019-10-18T11:25:00Z</time>
      </trkpt>
      <trkpt lat="40.83183" lon="-8.15824">
        <ele>929.963</ele>
        <time>2019-10-18T11:25:20Z</time>
      </trkpt>
      <trkpt lat="40.83211" lon="-8.15863">
        <ele>930.511</ele>
        <time>2019-10-18T11:25:40Z</time>
      </trkpt>
      <trkpt lat="40.83223" lon="-8.15866">
        <ele>930.373</ele>
        <time>2019-10-18T11:26:00Z</time>
      </trkpt>
      <trkpt lat="40.83248" lon="-8.15868">
        <ele>927.773</ele>
        <time>2019-10-18T11:26:20Z</time>
      </trkpt>
      <trkpt lat="40.83258" lon="-8.1588">
        <ele>927.695</ele>
        <time>2019-10-18T11:26:40Z</time>
      </trkpt>
      <trkpt lat="40.83264" lon="-8.15886">
        <ele>927.436</ele>
        <time>2019-10-18T11:27:00Z</time>
      </trkpt>
      <trkpt lat="40.83287" lon="-8.15917">
        <ele>927.048</ele>
        <time>2019-10-18T11:27:20Z</time>
      </trkpt>
      <trkpt lat="40.83312" lon="-8.15963">
        <ele>930.148</ele>
        <time>2019-10-18T11:27:40Z</time>
      </trkpt>
      <trkpt lat="40.83326" lon="-8.15998">
        <ele>931.476</ele>
        <time>2019-10-18T11:28:00Z</time>
      </trkpt>
      <trkpt lat="40.83325" lon="-8.16015">
        <ele>932.19</ele>
        <time>2019-10-18T11:28:20Z</time>
      </trkpt>
      <trkpt lat="40.83324" lon="-8.16033">
        <ele>932.519</ele>
        <time>2019-10-18T11:28:40Z</time>
      </trkpt>
      <trkpt lat="40.83325" lon="-8.16051">
        <ele>931.708</ele>
        <time>2019-10-18T11:29:00Z</time>
      </trkpt>
      <trkpt lat="40.83325" lon="-8.16065">
        <ele>931.651</ele>
        <time>2019-10-18T11:29:20Z</time>
      </trkpt>
      <trkpt lat="40.83326" lon="-8.16082">
        <ele>931.689</ele>
        <time>2019-10-18T11:29:40Z</time>
      </trkpt>
      <trkpt lat="40.83325" lon="-8.16101">
        <ele>933.251</ele>
        <time>2019-10-18T11:30:00Z</time>
      </trkpt>
      <trkpt lat="40.83326" lon="-8.16124">
        <ele>935.041</ele>
        <time>2019-10-18T11:30:20Z</time>
      </trkpt>
      <trkpt lat="40.83325" lon="-8.16147">
        <ele>936.873</ele>
        <time>2019-10-18T11:30:40Z</time>
      </trkpt>
      <trkpt lat="40.83326" lon="-8.16162">
        <ele>938.044</ele>
        <time>2019-10-18T11:31:00Z</time>
      </trkpt>
      <trkpt lat="40.83326" lon="-8.16181">
        <ele>940.086</ele>
        <time>2019-10-18T11:31:20Z</time>
      </trkpt>
      <trkpt lat="40.83327" lon="-8.162">
        <ele>942.196</ele>
        <time>2019-10-18T11:31:40Z</time>
      </trkpt>
      <trkpt lat="40.83329" lon="-8.16218">
        <ele>944.357</ele>
        <time>2019-10-18T11:32:00Z</time>
      </trkpt>
      <trkpt lat="40.83329" lon="-8.16234">
        <ele>945.7</ele>
        <time>2019-10-18T11:32:20Z</time>
      </trkpt>
      <trkpt lat="40.83331" lon="-8.1625">
        <ele>946.62</ele>
        <time>2019-10-18T11:32:40Z</time>
      </trkpt>
      <trkpt lat="40.83334" lon="-8.16266">
        <ele>947.108</ele>
        <time>2019-10-18T11:33:00Z</time>
      </trkpt>
      <trkpt lat="40.83336" lon="-8.16283">
        <ele>948.039</ele>
        <time>2019-10-18T11:33:20Z</time>
      </trkpt>
      <trkpt lat="40.83338" lon="-8.16303">
        <ele>948.677</ele>
        <time>2019-10-18T11:33:40Z</time>
      </trkpt>
      <trkpt lat="40.83339" lon="-8.16324">
        <ele>950.249</ele>
        <time>2019-10-18T11:34:00Z</time>
      </trkpt>
      <trkpt lat="40.8334" lon="-8.16339">
        <ele>951.629</ele>
        <time>2019-10-18T11:34:20Z</time>
      </trkpt>
      <trkpt lat="40.8334" lon="-8.16355">
        <ele>953.291</ele>
        <time>2019-10-18T11:34:40Z</time>
      </trkpt>
      <trkpt lat="40.8334" lon="-8.16369">
        <ele>953.832</ele>
        <time>2019-10-18T11:35:00Z</time>
      </trkpt>
      <trkpt lat="40.83339" lon="-8.16387">
        <ele>953.884</ele>
        <time>2019-10-18T11:35:20Z</time>
      </trkpt>
      <trkpt lat="40.83338" lon="-8.16408">
        <ele>954.514</ele>
        <time>2019-10-18T11:35:40Z</time>
      </trkpt>
      <trkpt lat="40.83337" lon="-8.16429">
        <ele>955.333</ele>
        <time>2019-10-18T11:36:00Z</time>
      </trkpt>
      <trkpt lat="40.83337" lon="-8.16449">
        <ele>956.023</ele>
        <time>2019-10-18T11:36:20Z</time>
      </trkpt>
      <trkpt lat="40.83331" lon="-8.16464">
        <ele>956.915</ele>
        <time>2019-10-18T11:36:40Z</time>
      </trkpt>
      <trkpt lat="40.83322" lon="-8.16487">
        <ele>957.308</ele>
        <time>2019-10-18T11:37:00Z</time>
      </trkpt>
      <trkpt lat="40.83315" lon="-8.16502">
        <ele>957.247</ele>
        <time>2019-10-18T11:37:20Z</time>
      </trkpt>
      <trkpt lat="40.83309" lon="-8.16512">
        <ele>956.975</ele>
        <time>2019-10-18T11:37:40Z</time>
      </trkpt>
      <trkpt lat="40.83301" lon="-8.16528">
        <ele>956.787</ele>
        <time>2019-10-18T11:38:00Z</time>
      </trkpt>
      <trkpt lat="40.83294" lon="-8.1654">
        <ele>957.187</ele>
        <time>2019-10-18T11:38:20Z</time>
      </trkpt>
      <trkpt lat="40.83286" lon="-8.16574">
        <ele>956.949</ele>
        <time>2019-10-18T11:38:40Z</time>
      </trkpt>
      <trkpt lat="40.83285" lon="-8.16584">
        <ele>956.77</ele>
        <time>2019-10-18T11:39:00Z</time>
      </trkpt>
      <trkpt lat="40.83285" lon="-8.1659">
        <ele>956.722</ele>
        <time>2019-10-18T11:39:20Z</time>
      </trkpt>
      <trkpt lat="40.83285" lon="-8.16606">
        <ele>956.892</ele>
        <time>2019-10-18T11:39:40Z</time>
      </trkpt>
      <trkpt lat="40.83285" lon="-8.16616">
        <ele>956.998</ele>
        <time>2019-10-18T11:40:00Z</time>
      </trkpt>
      <trkpt lat="40.83287" lon="-8.16624">
        <ele>957.015</ele>
        <time>2019-10-18T11:40:20Z</time>
      </trkpt>
      <trkpt lat="40.83284" lon="-8.16641">
        <ele>957.626</ele>
        <time>2019-10-18T11:40:40Z</time>
      </trkpt>
      <trkpt lat="40.83285" lon="-8.16647">
        <ele>958.108</ele>
        <time>2019-10-18T11:41:00Z</time>
      </trkpt>
      <trkpt lat="40.83286" lon="-8.16661">
        <ele>959.143</ele>
        <time>2019-10-18T11:41:20Z</time>
      </trkpt>
      <trkpt lat="40.83282" lon="-8.16673">
        <ele>960.661</ele>
        <time>2019-10-18T11:41:40Z</time>
      </trkpt>
      <trkpt lat="40.83281" lon="-8.1668">
        <ele>961.563</ele>
        <time>2019-10-18T11:42:00Z</time>
      </trkpt>
      <trkpt lat="40.8328" lon="-8.16692">
        <ele>963.413</ele>
        <time>2019-10-18T11:42:20Z</time>
      </trkpt>
      <trkpt lat="40.83277" lon="-8.16698">
        <ele>964.485</ele>
        <time>2019-10-18T11:42:40Z</time>
      </trkpt>
      <trkpt lat="40.83276" lon="-8.16708">
        <ele>965.796</ele>
        <time>2019-10-18T11:43:00Z</time>
      </trkpt>
      <trkpt lat="40.83272" lon="-8.16723">
        <ele>967.568</ele>
        <time>2019-10-18T11:43:20Z</time>
      </trkpt>
      <trkpt lat="40.8327" lon="-8.1673">
        <ele>967.918</ele>
        <time>2019-10-18T11:43:40Z</time>
      </trkpt>
      <trkpt lat="40.83266" lon="-8.16735">
        <ele>968.348</ele>
        <time>2019-10-18T11:44:00Z</time>
      </trkpt>
      <trkpt lat="40.83265" lon="-8.16748">
        <ele>968.961</ele>
        <time>2019-10-18T11:44:20Z</time>
      </trkpt>
      <trkpt lat="40.83264" lon="-8.16759">
        <ele>969.017</ele>
        <time>2019-10-18T11:44:40Z</time>
      </trkpt>
      <trkpt lat="40.83259" lon="-8.16778">
        <ele>969.308</ele>
        <time>2019-10-18T11:45:00Z</time>
      </trkpt>
      <trkpt lat="40.8325" lon="-8.16787">
        <ele>970.338</ele>
        <time>2019-10-18T11:45:20Z</time>
      </trkpt>
      <trkpt lat="40.83242" lon="-8.16785">
        <ele>971.166</ele>
        <time>2019-10-18T11:45:40Z</time>
      </trkpt>
      <trkpt lat="40.83235" lon="-8.16781">
        <ele>971.828</ele>
        <time>2019-10-18T11:46:00Z</time>
      </trkpt>
      <trkpt lat="40.83222" lon="-8.16774">
        <ele>973.158</ele>
        <time>2019-10-18T11:46:20Z</time>
      </trkpt>
      <trkpt lat="40.83213" lon="-8.16769">
        <ele>974.85</ele>
        <time>2019-10-18T11:46:40Z</time>
      </trkpt>
      <trkpt lat="40.83205" lon="-8.16771">
        <ele>976.561</ele>
        <time>2019-10-18T11:47:00Z</time>
      </trkpt>
      <trkpt lat="40.83202" lon="-8.16776">
        <ele>977.223</ele>
        <time>2019-10-18T11:47:20Z</time>
      </trkpt>
      <trkpt lat="40.83196" lon="-8.16786">
        <ele>978.513</ele>
        <time>2019-10-18T11:47:40Z</time>
      </trkpt>
      <trkpt lat="40.83191" lon="-8.16798">
        <ele>979.073</ele>
        <time>2019-10-18T11:48:00Z</time>
      </trkpt>
      <trkpt lat="40.83185" lon="-8.16807">
        <ele>980.085</ele>
        <time>2019-10-18T11:48:20Z</time>
      </trkpt>
      <trkpt lat="40.8318" lon="-8.16818">
        <ele>981.513</ele>
        <time>2019-10-18T11:48:40Z</time>
      </trkpt>
      <trkpt lat="40.83171" lon="-8.16833">
        <ele>984.108</ele>
        <time>2019-10-18T11:49:00Z</time>
      </trkpt>
      <trkpt lat="40.83172" lon="-8.16845">
        <ele>985.121</ele>
        <time>2019-10-18T11:49:20Z</time>
      </trkpt>
      <trkpt lat="40.83175" lon="-8.16858">
        <ele>986.269</ele>
        <time>2019-10-18T11:49:40Z</time>
      </trkpt>
      <trkpt lat="40.8318" lon="-8.16873">
        <ele>987.671</ele>
        <time>2019-10-18T11:50:00Z</time>
      </trkpt>
      <trkpt lat="40.83186" lon="-8.16888">
        <ele>988.661</ele>
        <time>2019-10-18T11:50:20Z</time>
      </trkpt>
      <trkpt lat="40.83191" lon="-8.16906">
        <ele>990.493</ele>
        <time>2019-10-18T11:50:40Z</time>
      </trkpt>
      <trkpt lat="40.83196" lon="-8.16919">
        <ele>991.044</ele>
        <time>2019-10-18T11:51:00Z</time>
      </trkpt>
      <trkpt lat="40.832" lon="-8.16931">
        <ele>992.496</ele>
        <time>2019-10-18T11:51:20Z</time>
      </trkpt>
      <trkpt lat="40.83199" lon="-8.16944">
        <ele>994.636</ele>
        <time>2019-10-18T11:51:40Z</time>
      </trkpt>
      <trkpt lat="40.83199" lon="-8.16955">
        <ele>996.472</ele>
        <time>2019-10-18T11:52:00Z</time>
      </trkpt>
      <trkpt lat="40.83199" lon="-8.16963">
        <ele>997.713</ele>
        <time>2019-10-18T11:52:20Z</time>
      </trkpt>
      <trkpt lat="40.83198" lon="-8.16972">
        <ele>999.114</ele>
        <time>2019-10-18T11:52:40Z</time>
      </trkpt>
      <trkpt lat="40.832" lon="-8.16999">
        <ele>1003.808</ele>
        <time>2019-10-18T11:53:00Z</time>
      </trkpt>
      <trkpt lat="40.83208" lon="-8.17002">
        <ele>1004.371</ele>
        <time>2019-10-18T11:53:20Z</time>
      </trkpt>
      <trkpt lat="40.83223" lon="-8.16995">
        <ele>1003.329</ele>
        <time>2019-10-18T11:53:40Z</time>
      </trkpt>
      <trkpt lat="40.83237" lon="-8.16986">
        <ele>1002.751</ele>
        <time>2019-10-18T11:54:00Z</time>
      </trkpt>
      <trkpt lat="40.8325" lon="-8.16982">
        <ele>1002.731</ele>
        <time>2019-10-18T11:54:20Z</time>
      </trkpt>
      <trkpt lat="40.83266" lon="-8.16981">
        <ele>1002.773</ele>
        <time>2019-10-18T11:54:40Z</time>
      </trkpt>
      <trkpt lat="40.83272" lon="-8.16981">
        <ele>1002.814</ele>
        <time>2019-10-18T11:55:00Z</time>
      </trkpt>
      <trkpt lat="40.83294" lon="-8.16991">
        <ele>1004.646</ele>
        <time>2019-10-18T11:55:20Z</time>
      </trkpt>
      <trkpt lat="40.83305" lon="-8.16996">
        <ele>1005.346</ele>
        <time>2019-10-18T11:55:40Z</time>
      </trkpt>
      <trkpt lat="40.83317" lon="-8.17">
        <ele>1005.259</ele>
        <time>2019-10-18T11:56:00Z</time>
      </trkpt>
      <trkpt lat="40.83331" lon="-8.17007">
        <ele>1006.103</ele>
        <time>2019-10-18T11:56:20Z</time>
      </trkpt>
      <trkpt lat="40.83344" lon="-8.17014">
        <ele>1007.923</ele>
        <time>2019-10-18T11:56:40Z</time>
      </trkpt>
      <trkpt lat="40.83357" lon="-8.17022">
        <ele>1009.608</ele>
        <time>2019-10-18T11:57:00Z</time>
      </trkpt>
      <trkpt lat="40.83365" lon="-8.17028">
        <ele>1010.279</ele>
        <time>2019-10-18T11:57:20Z</time>
      </trkpt>
      <trkpt lat="40.83373" lon="-8.17037">
        <ele>1010.777</ele>
        <time>2019-10-18T11:57:40Z</time>
      </trkpt>
      <trkpt lat="40.83384" lon="-8.17052">
        <ele>1012.319</ele>
        <time>2019-10-18T11:58:00Z</time>
      </trkpt>
      <trkpt lat="40.83394" lon="-8.17067">
        <ele>1013.929</ele>
        <time>2019-10-18T11:58:20Z</time>
      </trkpt>
      <trkpt lat="40.83403" lon="-8.17079">
        <ele>1014.981</ele>
        <time>2019-10-18T11:58:40Z</time>
      </trkpt>
      <trkpt lat="40.83415" lon="-8.17093">
        <ele>1015.442</ele>
        <time>2019-10-18T11:59:00Z</time>
      </trkpt>
      <trkpt lat="40.83428" lon="-8.17107">
        <ele>1015.794</ele>
        <time>2019-10-18T11:59:20Z</time>
      </trkpt>
      <trkpt lat="40.83435" lon="-8.1712">
        <ele>1017.084</ele>
        <time>2019-10-18T11:59:40Z</time>
      </trkpt>
      <trkpt lat="40.83442" lon="-8.17136">
        <ele>1018.953</ele>
        <time>2019-10-18T12:00:00Z</time>
      </trkpt>
      <trkpt lat="40.83451" lon="-8.17152">
        <ele>1019.904</ele>
        <time>2019-10-18T12:00:20Z</time>
      </trkpt>
      <trkpt lat="40.8346" lon="-8.17167">
        <ele>1020.714</ele>
        <time>2019-10-18T12:00:40Z</time>
      </trkpt>
      <trkpt lat="40.83467" lon="-8.17179">
        <ele>1021.208</ele>
        <time>2019-10-18T12:01:00Z</time>
      </trkpt>
      <trkpt lat="40.83474" lon="-8.17195">
        <ele>1022.859</ele>
        <time>2019-10-18T12:01:20Z</time>
      </trkpt>
      <trkpt lat="40.83481" lon="-8.17214">
        <ele>1026.447</ele>
        <time>2019-10-18T12:01:40Z</time>
      </trkpt>
      <trkpt lat="40.83486" lon="-8.17227">
        <ele>1028.869</ele>
        <time>2019-10-18T12:02:00Z</time>
      </trkpt>
      <trkpt lat="40.83493" lon="-8.17239">
        <ele>1030.629</ele>
        <time>2019-10-18T12:02:20Z</time>
      </trkpt>
      <trkpt lat="40.83499" lon="-8.17253">
        <ele>1032.991</ele>
        <time>2019-10-18T12:02:40Z</time>
      </trkpt>
      <trkpt lat="40.83505" lon="-8.17267">
        <ele>1034.452</ele>
        <time>2019-10-18T12:03:00Z</time>
      </trkpt>
      <trkpt lat="40.83509" lon="-8.17277">
        <ele>1035.264</ele>
        <time>2019-10-18T12:03:20Z</time>
      </trkpt>
      <trkpt lat="40.83514" lon="-8.17289">
        <ele>1036.244</ele>
        <time>2019-10-18T12:03:40Z</time>
      </trkpt>
      <trkpt lat="40.83521" lon="-8.17306">
        <ele>1037.952</ele>
        <time>2019-10-18T12:04:00Z</time>
      </trkpt>
      <trkpt lat="40.83527" lon="-8.1732">
        <ele>1038.653</ele>
        <time>2019-10-18T12:04:20Z</time>
      </trkpt>
      <trkpt lat="40.83536" lon="-8.17335">
        <ele>1040.208</ele>
        <time>2019-10-18T12:04:40Z</time>
      </trkpt>
      <trkpt lat="40.83541" lon="-8.17351">
        <ele>1042.008</ele>
        <time>2019-10-18T12:05:00Z</time>
      </trkpt>
      <trkpt lat="40.83546" lon="-8.17367">
        <ele>1043.279</ele>
        <time>2019-10-18T12:05:20Z</time>
      </trkpt>
      <trkpt lat="40.83553" lon="-8.17383">
        <ele>1043.897</ele>
        <time>2019-10-18T12:05:40Z</time>
      </trkpt>
      <trkpt lat="40.8356" lon="-8.174">
        <ele>1046.779</ele>
        <time>2019-10-18T12:06:00Z</time>
      </trkpt>
      <trkpt lat="40.83566" lon="-8.17413">
        <ele>1049.479</ele>
        <time>2019-10-18T12:06:20Z</time>
      </trkpt>
      <trkpt lat="40.8357" lon="-8.17434">
        <ele>1052.271</ele>
        <time>2019-10-18T12:06:40Z</time>
      </trkpt>
      <trkpt lat="40.83575" lon="-8.17455">
        <ele>1053.912</ele>
        <time>2019-10-18T12:07:00Z</time>
      </trkpt>
      <trkpt lat="40.83578" lon="-8.17469">
        <ele>1054.414</ele>
        <time>2019-10-18T12:07:20Z</time>
      </trkpt>
      <trkpt lat="40.83583" lon="-8.17486">
        <ele>1055.514</ele>
        <time>2019-10-18T12:07:40Z</time>
      </trkpt>
      <trkpt lat="40.83587" lon="-8.17501">
        <ele>1057.124</ele>
        <time>2019-10-18T12:08:00Z</time>
      </trkpt>
      <trkpt lat="40.83591" lon="-8.17517">
        <ele>1058.904</ele>
        <time>2019-10-18T12:08:20Z</time>
      </trkpt>
      <trkpt lat="40.83595" lon="-8.17533">
        <ele>1060.514</ele>
        <time>2019-10-18T12:08:40Z</time>
      </trkpt>
      <trkpt lat="40.83598" lon="-8.17548">
        <ele>1061.808</ele>
        <time>2019-10-18T12:09:00Z</time>
      </trkpt>
      <trkpt lat="40.83596" lon="-8.17564">
        <ele>1063.586</ele>
        <time>2019-10-18T12:09:20Z</time>
      </trkpt>
      <trkpt lat="40.83601" lon="-8.17578">
        <ele>1064.624</ele>
        <time>2019-10-18T12:09:40Z</time>
      </trkpt>
      <trkpt lat="40.83616" lon="-8.17602">
        <ele>1065.416</ele>
        <time>2019-10-18T12:10:00Z</time>
      </trkpt>
      <trkpt lat="40.83633" lon="-8.17624">
        <ele>1068.826</ele>
        <time>2019-10-18T12:10:20Z</time>
      </trkpt>
      <trkpt lat="40.83652" lon="-8.17636">
        <ele>1070.228</ele>
        <time>2019-10-18T12:10:40Z</time>
      </trkpt>
      <trkpt lat="40.83671" lon="-8.17642">
        <ele>1070.439</ele>
        <time>2019-10-18T12:11:00Z</time>
      </trkpt>
      <trkpt lat="40.83697" lon="-8.17654">
        <ele>1071.721</ele>
        <time>2019-10-18T12:11:20Z</time>
      </trkpt>
      <trkpt lat="40.83702" lon="-8.17657">
        <ele>1072.131</ele>
        <time>2019-10-18T12:11:40Z</time>
      </trkpt>
      <trkpt lat="40.83713" lon="-8.17665">
        <ele>1072.947</ele>
        <time>2019-10-18T12:12:00Z</time>
      </trkpt>
      <trkpt lat="40.83719" lon="-8.1767">
        <ele>1073.429</ele>
        <time>2019-10-18T12:12:20Z</time>
      </trkpt>
      <trkpt lat="40.83734" lon="-8.177">
        <ele>1076.321</ele>
        <time>2019-10-18T12:12:40Z</time>
      </trkpt>
      <trkpt lat="40.83728" lon="-8.17732">
        <ele>1077.908</ele>
        <time>2019-10-18T12:13:00Z</time>
      </trkpt>
      <trkpt lat="40.83732" lon="-8.17772">
        <ele>1078.518</ele>
        <time>2019-10-18T12:13:20Z</time>
      </trkpt>
      <trkpt lat="40.83749" lon="-8.17807">
        <ele>1080.146</ele>
        <time>2019-10-18T12:13:40Z</time>
      </trkpt>
      <trkpt lat="40.8377" lon="-8.17834">
        <ele>1082.068</ele>
        <time>2019-10-18T12:14:00Z</time>
      </trkpt>
      <trkpt lat="40.83779" lon="-8.17859">
        <ele>1084.838</ele>
        <time>2019-10-18T12:14:20Z</time>
      </trkpt>
      <trkpt lat="40.83781" lon="-8.17867">
        <ele>1085.51</ele>
        <time>2019-10-18T12:14:40Z</time>
      </trkpt>
      <trkpt lat="40.83784" lon="-8.17912">
        <ele>1088.641</ele>
        <time>2019-10-18T12:15:00Z</time>
      </trkpt>
      <trkpt lat="40.83778" lon="-8.17949">
        <ele>1090.063</ele>
        <time>2019-10-18T12:15:20Z</time>
      </trkpt>
      <trkpt lat="40.83777" lon="-8.17975">
        <ele>1090.043</ele>
        <time>2019-10-18T12:15:40Z</time>
      </trkpt>
      <trkpt lat="40.83791" lon="-8.18033">
        <ele>1086.937</ele>
        <time>2019-10-18T12:16:00Z</time>
      </trkpt>
      <trkpt lat="40.83812" lon="-8.18117">
        <ele>1083.749</ele>
        <time>2019-10-18T12:16:20Z</time>
      </trkpt>
      <trkpt lat="40.83829" lon="-8.18183">
        <ele>1082.113</ele>
        <time>2019-10-18T12:16:40Z</time>
      </trkpt>
      <trkpt lat="40.83845" lon="-8.18262">
        <ele>1078.508</ele>
        <time>2019-10-18T12:17:00Z</time>
      </trkpt>
      <trkpt lat="40.83858" lon="-8.18347">
        <ele>1077.827</ele>
        <time>2019-10-18T12:17:20Z</time>
      </trkpt>
      <trkpt lat="40.83867" lon="-8.18384">
        <ele>1078.055</ele>
        <time>2019-10-18T12:17:40Z</time>
      </trkpt>
      <trkpt lat="40.83891" lon="-8.18414">
        <ele>1076.197</ele>
        <time>2019-10-18T12:18:00Z</time>
      </trkpt>
      <trkpt lat="40.83923" lon="-8.18432">
        <ele>1074.147</ele>
        <time>2019-10-18T12:18:20Z</time>
      </trkpt>
      <trkpt lat="40.83927" lon="-8.18433">
        <ele>1074.249</ele>
        <time>2019-10-18T12:18:40Z</time>
      </trkpt>
      <trkpt lat="40.8394" lon="-8.18437">
        <ele>1074.47</ele>
        <time>2019-10-18T12:19:00Z</time>
      </trkpt>
      <trkpt lat="40.83955" lon="-8.18448">
        <ele>1073.172</ele>
        <time>2019-10-18T12:19:20Z</time>
      </trkpt>
      <trkpt lat="40.83964" lon="-8.18471">
        <ele>1068.592</ele>
        <time>2019-10-18T12:19:40Z</time>
      </trkpt>
      <trkpt lat="40.83965" lon="-8.18487">
        <ele>1066.223</ele>
        <time>2019-10-18T12:20:00Z</time>
      </trkpt>
      <trkpt lat="40.83963" lon="-8.18514">
        <ele>1063.183</ele>
        <time>2019-10-18T12:20:20Z</time>
      </trkpt>
      <trkpt lat="40.83961" lon="-8.18561">
        <ele>1060.011</ele>
        <time>2019-10-18T12:20:40Z</time>
      </trkpt>
      <trkpt lat="40.83959" lon="-8.1859">
        <ele>1057.808</ele>
        <time>2019-10-18T12:21:00Z</time>
      </trkpt>
      <trkpt lat="40.83952" lon="-8.18634">
        <ele>1053.526</ele>
        <time>2019-10-18T12:21:20Z</time>
      </trkpt>
      <trkpt lat="40.83951" lon="-8.18641">
        <ele>1052.634</ele>
        <time>2019-10-18T12:21:40Z</time>
      </trkpt>
      <trkpt lat="40.83967" lon="-8.18685">
        <ele>1050.296</ele>
        <time>2019-10-18T12:22:00Z</time>
      </trkpt>
      <trkpt lat="40.83991" lon="-8.18693">
        <ele>1050.686</ele>
        <time>2019-10-18T12:22:20Z</time>
      </trkpt>
      <trkpt lat="40.84064" lon="-8.18718">
        <ele>1048.718</ele>
        <time>2019-10-18T12:22:40Z</time>
      </trkpt>
      <trkpt lat="40.84105" lon="-8.18737">
        <ele>1048.529</ele>
        <time>2019-10-18T12:23:00Z</time>
      </trkpt>
      <trkpt lat="40.84127" lon="-8.18758">
        <ele>1048.791</ele>
        <time>2019-10-18T12:23:20Z</time>
      </trkpt>
      <trkpt lat="40.8414" lon="-8.18782">
        <ele>1048.081</ele>
        <time>2019-10-18T12:23:40Z</time>
      </trkpt>
      <trkpt lat="40.84153" lon="-8.18813">
        <ele>1047.713</ele>
        <time>2019-10-18T12:24:00Z</time>
      </trkpt>
      <trkpt lat="40.84178" lon="-8.18852">
        <ele>1044.543</ele>
        <time>2019-10-18T12:24:20Z</time>
      </trkpt>
      <trkpt lat="40.84188" lon="-8.18857">
        <ele>1043.207</ele>
        <time>2019-10-18T12:24:40Z</time>
      </trkpt>
      <trkpt lat="40.84199" lon="-8.18868">
        <ele>1041.208</ele>
        <time>2019-10-18T12:25:00Z</time>
      </trkpt>
      <trkpt lat="40.84214" lon="-8.18904">
        <ele>1038.645</ele>
        <time>2019-10-18T12:25:20Z</time>
      </trkpt>
      <trkpt lat="40.84228" lon="-8.18923">
        <ele>1037.783</ele>
        <time>2019-10-18T12:25:40Z</time>
      </trkpt>
      <trkpt lat="40.84232" lon="-8.18931">
        <ele>1037.355</ele>
        <time>2019-10-18T12:26:00Z</time>
      </trkpt>
      <trkpt lat="40.84236" lon="-8.18947">
        <ele>1036.685</ele>
        <time>2019-10-18T12:26:20Z</time>
      </trkpt>
      <trkpt lat="40.84245" lon="-8.18992">
        <ele>1035.717</ele>
        <time>2019-10-18T12:26:40Z</time>
      </trkpt>
      <trkpt lat="40.84255" lon="-8.19025">
        <ele>1035.088</ele>
        <time>2019-10-18T12:27:00Z</time>
      </trkpt>
      <trkpt lat="40.84261" lon="-8.19061">
        <ele>1035.14</ele>
        <time>2019-10-18T12:27:20Z</time>
      </trkpt>
      <trkpt lat="40.84258" lon="-8.19095">
        <ele>1033.83</ele>
        <time>2019-10-18T12:27:40Z</time>
      </trkpt>
      <trkpt lat="40.84257" lon="-8.19133">
        <ele>1030.051</ele>
        <time>2019-10-18T12:28:00Z</time>
      </trkpt>
      <trkpt lat="40.84248" lon="-8.19163">
        <ele>1028.401</ele>
        <time>2019-10-18T12:28:20Z</time>
      </trkpt>
      <trkpt lat="40.84246" lon="-8.19175">
        <ele>1026.811</ele>
        <time>2019-10-18T12:28:40Z</time>
      </trkpt>
      <trkpt lat="40.84256" lon="-8.1918">
        <ele>1024.708</ele>
        <time>2019-10-18T12:29:00Z</time>
      </trkpt>
      <trkpt lat="40.84268" lon="-8.19175">
        <ele>1023.739</ele>
        <time>2019-10-18T12:29:20Z</time>
      </trkpt>
      <trkpt lat="40.84293" lon="-8.19171">
        <ele>1021.427</ele>
        <time>2019-10-18T12:29:40Z</time>
      </trkpt>
      <trkpt lat="40.84321" lon="-8.19165">
        <ele>1021.329</ele>
        <time>2019-10-18T12:30:00Z</time>
      </trkpt>
      <trkpt lat="40.84333" lon="-8.19161">
        <ele>1021.879</ele>
        <time>2019-10-18T12:30:20Z</time>
      </trkpt>
      <trkpt lat="40.84347" lon="-8.19168">
        <ele>1021.831</ele>
        <time>2019-10-18T12:30:40Z</time>
      </trkpt>
      <trkpt lat="40.84349" lon="-8.1918">
        <ele>1020.512</ele>
        <time>2019-10-18T12:31:00Z</time>
      </trkpt>
      <trkpt lat="40.8435" lon="-8.19216">
        <ele>1015.924</ele>
        <time>2019-10-18T12:31:20Z</time>
      </trkpt>
      <trkpt lat="40.84352" lon="-8.1924">
        <ele>1012.824</ele>
        <time>2019-10-18T12:31:40Z</time>
      </trkpt>
      <trkpt lat="40.84351" lon="-8.19272">
        <ele>1008.081</ele>
        <time>2019-10-18T12:32:00Z</time>
      </trkpt>
      <trkpt lat="40.8434" lon="-8.19283">
        <ele>1004.761</ele>
        <time>2019-10-18T12:32:20Z</time>
      </trkpt>
      <trkpt lat="40.84333" lon="-8.19292">
        <ele>1002.517</ele>
        <time>2019-10-18T12:32:40Z</time>
      </trkpt>
      <trkpt lat="40.84345" lon="-8.19301">
        <ele>1003.308</ele>
        <time>2019-10-18T12:33:00Z</time>
      </trkpt>
      <trkpt lat="40.84365" lon="-8.19303">
        <ele>1005.362</ele>
        <time>2019-10-18T12:33:20Z</time>
      </trkpt>
      <trkpt lat="40.84397" lon="-8.19307">
        <ele>1003.77</ele>
        <time>2019-10-18T12:33:40Z</time>
      </trkpt>
      <trkpt lat="40.84426" lon="-8.19314">
        <ele>1001.222</ele>
        <time>2019-10-18T12:34:00Z</time>
      </trkpt>
      <trkpt lat="40.84466" lon="-8.19322">
        <ele>997.572</ele>
        <time>2019-10-18T12:34:20Z</time>
      </trkpt>
      <trkpt lat="40.84504" lon="-8.19329">
        <ele>994.264</ele>
        <time>2019-10-18T12:34:40Z</time>
      </trkpt>
      <trkpt lat="40.84532" lon="-8.1933">
        <ele>992.875</ele>
        <time>2019-10-18T12:35:00Z</time>
      </trkpt>
      <trkpt lat="40.84564" lon="-8.1933">
        <ele>987.567</ele>
        <time>2019-10-18T12:35:20Z</time>
      </trkpt>
      <trkpt lat="40.84596" lon="-8.19327">
        <ele>981.927</ele>
        <time>2019-10-18T12:35:40Z</time>
      </trkpt>
      <trkpt lat="40.84635" lon="-8.19316">
        <ele>975.979</ele>
        <time>2019-10-18T12:36:00Z</time>
      </trkpt>
      <trkpt lat="40.84662" lon="-8.19299">
        <ele>975.405</ele>
        <time>2019-10-18T12:36:20Z</time>
      </trkpt>
      <trkpt lat="40.84681" lon="-8.19271">
        <ele>973.625</ele>
        <time>2019-10-18T12:36:40Z</time>
      </trkpt>
      <trkpt lat="40.84686" lon="-8.19262">
        <ele>973.408</ele>
        <time>2019-10-18T12:37:00Z</time>
      </trkpt>
      <trkpt lat="40.84693" lon="-8.19261">
        <ele>971.311</ele>
        <time>2019-10-18T12:37:20Z</time>
      </trkpt>
      <trkpt lat="40.84695" lon="-8.19289">
        <ele>967.099</ele>
        <time>2019-10-18T12:37:40Z</time>
      </trkpt>
      <trkpt lat="40.8468" lon="-8.19316">
        <ele>968.681</ele>
        <time>2019-10-18T12:38:00Z</time>
      </trkpt>
      <trkpt lat="40.84658" lon="-8.1935">
        <ele>965.821</ele>
        <time>2019-10-18T12:38:20Z</time>
      </trkpt>
      <trkpt lat="40.84641" lon="-8.19385">
        <ele>958.033</ele>
        <time>2019-10-18T12:38:40Z</time>
      </trkpt>
      <trkpt lat="40.84634" lon="-8.19394">
        <ele>956.354</ele>
        <time>2019-10-18T12:39:00Z</time>
      </trkpt>
      <trkpt lat="40.84621" lon="-8.1941">
        <ele>954.296</ele>
        <time>2019-10-18T12:39:20Z</time>
      </trkpt>
      <trkpt lat="40.84602" lon="-8.19426">
        <ele>953.466</ele>
        <time>2019-10-18T12:39:40Z</time>
      </trkpt>
      <trkpt lat="40.84591" lon="-8.19433">
        <ele>954.066</ele>
        <time>2019-10-18T12:40:00Z</time>
      </trkpt>
      <trkpt lat="40.84576" lon="-8.19443">
        <ele>953.729</ele>
        <time>2019-10-18T12:40:20Z</time>
      </trkpt>
      <trkpt lat="40.84566" lon="-8.19449">
        <ele>952.221</ele>
        <time>2019-10-18T12:40:40Z</time>
      </trkpt>
      <trkpt lat="40.84548" lon="-8.19463">
        <ele>949.308</ele>
        <time>2019-10-18T12:41:00Z</time>
      </trkpt>
      <trkpt lat="40.84531" lon="-8.19477">
        <ele>945.37</ele>
        <time>2019-10-18T12:41:20Z</time>
      </trkpt>
      <trkpt lat="40.8451" lon="-8.19497">
        <ele>940.518</ele>
        <time>2019-10-18T12:41:40Z</time>
      </trkpt>
      <trkpt lat="40.84503" lon="-8.19505">
        <ele>939.23</ele>
        <time>2019-10-18T12:42:00Z</time>
      </trkpt>
      <trkpt lat="40.84492" lon="-8.19519">
        <ele>937.36</ele>
        <time>2019-10-18T12:42:20Z</time>
      </trkpt>
      <trkpt lat="40.84482" lon="-8.19532">
        <ele>936.552</ele>
        <time>2019-10-18T12:42:40Z</time>
      </trkpt>
      <trkpt lat="40.84465" lon="-8.19566">
        <ele>932.953</ele>
        <time>2019-10-18T12:43:00Z</time>
      </trkpt>
      <trkpt lat="40.84459" lon="-8.19596">
        <ele>927.615</ele>
        <time>2019-10-18T12:43:20Z</time>
      </trkpt>
      <trkpt lat="40.84457" lon="-8.19619">
        <ele>924.065</ele>
        <time>2019-10-18T12:43:40Z</time>
      </trkpt>
      <trkpt lat="40.84443" lon="-8.19647">
        <ele>920.985</ele>
        <time>2019-10-18T12:44:00Z</time>
      </trkpt>
      <trkpt lat="40.84436" lon="-8.19654">
        <ele>920.489</ele>
        <time>2019-10-18T12:44:20Z</time>
      </trkpt>
      <trkpt lat="40.84444" lon="-8.19672">
        <ele>917.517</ele>
        <time>2019-10-18T12:44:40Z</time>
      </trkpt>
      <trkpt lat="40.84466" lon="-8.19686">
        <ele>915.708</ele>
        <time>2019-10-18T12:45:00Z</time>
      </trkpt>
      <trkpt lat="40.84474" lon="-8.19698">
        <ele>914.552</ele>
        <time>2019-10-18T12:45:20Z</time>
      </trkpt>
      <trkpt lat="40.8448" lon="-8.19711">
        <ele>912.99</ele>
        <time>2019-10-18T12:45:40Z</time>
      </trkpt>
      <trkpt lat="40.84507" lon="-8.19739">
        <ele>910.052</ele>
        <time>2019-10-18T12:46:00Z</time>
      </trkpt>
      <trkpt lat="40.84526" lon="-8.19756">
        <ele>907.072</ele>
        <time>2019-10-18T12:46:20Z</time>
      </trkpt>
      <trkpt lat="40.84538" lon="-8.19805">
        <ele>904.684</ele>
        <time>2019-10-18T12:46:40Z</time>
      </trkpt>
      <trkpt lat="40.84536" lon="-8.19831">
        <ele>904.335</ele>
        <time>2019-10-18T12:47:00Z</time>
      </trkpt>
      <trkpt lat="40.84542" lon="-8.19833">
        <ele>904.577</ele>
        <time>2019-10-18T12:47:20Z</time>
      </trkpt>
      <trkpt lat="40.84615" lon="-8.19829">
        <ele>903.577</ele>
        <time>2019-10-18T12:47:40Z</time>
      </trkpt>
      <trkpt lat="40.84691" lon="-8.19817">
        <ele>897.984</ele>
        <time>2019-10-18T12:48:00Z</time>
      </trkpt>
      <trkpt lat="40.84699" lon="-8.19815">
        <ele>897.907</ele>
        <time>2019-10-18T12:48:20Z</time>
      </trkpt>
      <trkpt lat="40.84734" lon="-8.1979">
        <ele>896.417</ele>
        <time>2019-10-18T12:48:40Z</time>
      </trkpt>
      <trkpt lat="40.8475" lon="-8.19783">
        <ele>894.708</ele>
        <time>2019-10-18T12:49:00Z</time>
      </trkpt>
      <trkpt lat="40.84774" lon="-8.19778">
        <ele>894.022</ele>
        <time>2019-10-18T12:49:20Z</time>
      </trkpt>
      <trkpt lat="40.84799" lon="-8.19734">
        <ele>889.15</ele>
        <time>2019-10-18T12:49:40Z</time>
      </trkpt>
      <trkpt lat="40.84819" lon="-8.19701">
        <ele>886.862</ele>
        <time>2019-10-18T12:50:00Z</time>
      </trkpt>
      <trkpt lat="40.84832" lon="-8.19687">
        <ele>886.882</ele>
        <time>2019-10-18T12:50:20Z</time>
      </trkpt>
      <trkpt lat="40.84849" lon="-8.19652">
        <ele>883.814</ele>
        <time>2019-10-18T12:50:40Z</time>
      </trkpt>
      <trkpt lat="40.84865" lon="-8.19581">
        <ele>877.755</ele>
        <time>2019-10-18T12:51:00Z</time>
      </trkpt>
      <trkpt lat="40.8489" lon="-8.19545">
        <ele>875.097</ele>
        <time>2019-10-18T12:51:20Z</time>
      </trkpt>
      <trkpt lat="40.84908" lon="-8.19533">
        <ele>873.277</ele>
        <time>2019-10-18T12:51:40Z</time>
      </trkpt>
      <trkpt lat="40.84914" lon="-8.19529">
        <ele>872.551</ele>
        <time>2019-10-18T12:52:00Z</time>
      </trkpt>
      <trkpt lat="40.84937" lon="-8.19509">
        <ele>868.901</ele>
        <time>2019-10-18T12:52:20Z</time>
      </trkpt>
      <trkpt lat="40.8495" lon="-8.19498">
        <ele>866.711</ele>
        <time>2019-10-18T12:52:40Z</time>
      </trkpt>
      <trkpt lat="40.84979" lon="-8.19488">
        <ele>859.708</ele>
        <time>2019-10-18T12:53:00Z</time>
      </trkpt>
      <trkpt lat="40.84988" lon="-8.1949">
        <ele>857.689</ele>
        <time>2019-10-18T12:53:20Z</time>
      </trkpt>
      <trkpt lat="40.85006" lon="-8.19496">
        <ele>853.547</ele>
        <time>2019-10-18T12:53:40Z</time>
      </trkpt>
      <trkpt lat="40.85034" lon="-8.19474">
        <ele>850.669</ele>
        <time>2019-10-18T12:54:00Z</time>
      </trkpt>
      <trkpt lat="40.85032" lon="-8.19465">
        <ele>851.279</ele>
        <time>2019-10-18T12:54:20Z</time>
      </trkpt>
      <trkpt lat="40.85028" lon="-8.19444">
        <ele>852.031</ele>
        <time>2019-10-18T12:54:40Z</time>
      </trkpt>
      <trkpt lat="40.85048" lon="-8.19399">
        <ele>852.872</ele>
        <time>2019-10-18T12:55:00Z</time>
      </trkpt>
      <trkpt lat="40.85063" lon="-8.19391">
        <ele>852.274</ele>
        <time>2019-10-18T12:55:20Z</time>
      </trkpt>
      <trkpt lat="40.85102" lon="-8.19378">
        <ele>853.394</ele>
        <time>2019-10-18T12:55:40Z</time>
      </trkpt>
      <trkpt lat="40.85132" lon="-8.19354">
        <ele>854.962</ele>
        <time>2019-10-18T12:56:00Z</time>
      </trkpt>
      <trkpt lat="40.85145" lon="-8.19324">
        <ele>856.783</ele>
        <time>2019-10-18T12:56:20Z</time>
      </trkpt>
      <trkpt lat="40.8516" lon="-8.19308">
        <ele>857.311</ele>
        <time>2019-10-18T12:56:40Z</time>
      </trkpt>
      <trkpt lat="40.85174" lon="-8.19305">
        <ele>855.208</ele>
        <time>2019-10-18T12:57:00Z</time>
      </trkpt>
      <trkpt lat="40.85193" lon="-8.19294">
        <ele>853.56</ele>
        <time>2019-10-18T12:57:20Z</time>
      </trkpt>
      <trkpt lat="40.8521" lon="-8.19279">
        <ele>851.818</ele>
        <time>2019-10-18T12:57:40Z</time>
      </trkpt>
      <trkpt lat="40.85241" lon="-8.19221">
        <ele>843.33</ele>
        <time>2019-10-18T12:58:00Z</time>
      </trkpt>
      <trkpt lat="40.85246" lon="-8.19203">
        <ele>840.82</ele>
        <time>2019-10-18T12:58:20Z</time>
      </trkpt>
      <trkpt lat="40.85248" lon="-8.19171">
        <ele>840.622</ele>
        <time>2019-10-18T12:58:40Z</time>
      </trkpt>
      <trkpt lat="40.85233" lon="-8.1912">
        <ele>839.733</ele>
        <time>2019-10-18T12:59:00Z</time>
      </trkpt>
      <trkpt lat="40.85229" lon="-8.19111">
        <ele>839.725</ele>
        <time>2019-10-18T12:59:20Z</time>
      </trkpt>
      <trkpt lat="40.85237" lon="-8.19076">
        <ele>839.265</ele>
        <time>2019-10-18T12:59:40Z</time>
      </trkpt>
      <trkpt lat="40.85243" lon="-8.19075">
        <ele>838.132</ele>
        <time>2019-10-18T13:00:00Z</time>
      </trkpt>
      <trkpt lat="40.85254" lon="-8.19073">
        <ele>836.092</ele>
        <time>2019-10-18T13:00:20Z</time>
      </trkpt>
      <trkpt lat="40.85296" lon="-8.1904">
        <ele>833.311</ele>
        <time>2019-10-18T13:00:40Z</time>
      </trkpt>
      <trkpt lat="40.85324" lon="-8.18965">
        <ele>833.208</ele>
        <time>2019-10-18T13:01:00Z</time>
      </trkpt>
      <trkpt lat="40.8533" lon="-8.1895">
        <ele>832.627</ele>
        <time>2019-10-18T13:01:20Z</time>
      </trkpt>
      <trkpt lat="40.85352" lon="-8.18924">
        <ele>830.025</ele>
        <time>2019-10-18T13:01:40Z</time>
      </trkpt>
      <trkpt lat="40.85371" lon="-8.18914">
        <ele>826.697</ele>
        <time>2019-10-18T13:02:00Z</time>
      </trkpt>
      <trkpt lat="40.85385" lon="-8.18915">
        <ele>824.037</ele>
        <time>2019-10-18T13:02:20Z</time>
      </trkpt>
      <trkpt lat="40.85407" lon="-8.18917">
        <ele>821.779</ele>
        <time>2019-10-18T13:02:40Z</time>
      </trkpt>
      <trkpt lat="40.85431" lon="-8.18918">
        <ele>818.86</ele>
        <time>2019-10-18T13:03:00Z</time>
      </trkpt>
      <trkpt lat="40.85449" lon="-8.1892">
        <ele>815.232</ele>
        <time>2019-10-18T13:03:20Z</time>
      </trkpt>
      <trkpt lat="40.8548" lon="-8.18914">
        <ele>807.382</ele>
        <time>2019-10-18T13:03:40Z</time>
      </trkpt>
      <trkpt lat="40.85486" lon="-8.1891">
        <ele>805.819</ele>
        <time>2019-10-18T13:04:00Z</time>
      </trkpt>
      <trkpt lat="40.85497" lon="-8.18904">
        <ele>803.309</ele>
        <time>2019-10-18T13:04:20Z</time>
      </trkpt>
      <trkpt lat="40.85525" lon="-8.18884">
        <ele>796.919</ele>
        <time>2019-10-18T13:04:40Z</time>
      </trkpt>
      <trkpt lat="40.8554" lon="-8.1887">
        <ele>793.708</ele>
        <time>2019-10-18T13:05:00Z</time>
      </trkpt>
      <trkpt lat="40.85546" lon="-8.18865">
        <ele>792.875</ele>
        <time>2019-10-18T13:05:20Z</time>
      </trkpt>
      <trkpt lat="40.85576" lon="-8.18866">
        <ele>786.953</ele>
        <time>2019-10-18T13:05:40Z</time>
      </trkpt>
      <trkpt lat="40.85596" lon="-8.18887">
        <ele>781.575</ele>
        <time>2019-10-18T13:06:00Z</time>
      </trkpt>
      <trkpt lat="40.856" lon="-8.18896">
        <ele>779.535</ele>
        <time>2019-10-18T13:06:20Z</time>
      </trkpt>
      <trkpt lat="40.85611" lon="-8.1889">
        <ele>777.977</ele>
        <time>2019-10-18T13:06:40Z</time>
      </trkpt>
      <trkpt lat="40.85628" lon="-8.18869">
        <ele>774.328</ele>
        <time>2019-10-18T13:07:00Z</time>
      </trkpt>
      <trkpt lat="40.8564" lon="-8.18857">
        <ele>770.69</ele>
        <time>2019-10-18T13:07:20Z</time>
      </trkpt>
      <trkpt lat="40.85656" lon="-8.18847">
        <ele>766.28</ele>
        <time>2019-10-18T13:07:40Z</time>
      </trkpt>
      <trkpt lat="40.85668" lon="-8.18825">
        <ele>762.165</ele>
        <time>2019-10-18T13:08:00Z</time>
      </trkpt>
      <trkpt lat="40.85678" lon="-8.18811">
        <ele>759.068</ele>
        <time>2019-10-18T13:08:20Z</time>
      </trkpt>
      <trkpt lat="40.85687" lon="-8.18813">
        <ele>757.414</ele>
        <time>2019-10-18T13:08:40Z</time>
      </trkpt>
      <trkpt lat="40.85696" lon="-8.18824">
        <ele>756.608</ele>
        <time>2019-10-18T13:09:00Z</time>
      </trkpt>
      <trkpt lat="40.85707" lon="-8.18839">
        <ele>754.87</ele>
        <time>2019-10-18T13:09:20Z</time>
      </trkpt>
      <trkpt lat="40.85713" lon="-8.18847">
        <ele>753.038</ele>
        <time>2019-10-18T13:09:40Z</time>
      </trkpt>
      <trkpt lat="40.8571" lon="-8.18859">
        <ele>753.73</ele>
        <time>2019-10-18T13:10:00Z</time>
      </trkpt>
      <trkpt lat="40.85697" lon="-8.18875">
        <ele>755.91</ele>
        <time>2019-10-18T13:10:20Z</time>
      </trkpt>
      <trkpt lat="40.8569" lon="-8.18886">
        <ele>756.552</ele>
        <time>2019-10-18T13:10:40Z</time>
      </trkpt>
      <trkpt lat="40.85685" lon="-8.18906">
        <ele>757.043</ele>
        <time>2019-10-18T13:11:00Z</time>
      </trkpt>
      <trkpt lat="40.85667" lon="-8.1893">
        <ele>762.075</ele>
        <time>2019-10-18T13:11:20Z</time>
      </trkpt>
      <trkpt lat="40.85663" lon="-8.18934">
        <ele>762.665</ele>
        <time>2019-10-18T13:11:40Z</time>
      </trkpt>
      <trkpt lat="40.85646" lon="-8.18964">
        <ele>762.791</ele>
        <time>2019-10-18T13:12:00Z</time>
      </trkpt>
      <trkpt lat="40.85614" lon="-8.18999">
        <ele>763.681</ele>
        <time>2019-10-18T13:12:20Z</time>
      </trkpt>
      <trkpt lat="40.85596" lon="-8.19038">
        <ele>765.419</ele>
        <time>2019-10-18T13:12:40Z</time>
      </trkpt>
      <trkpt lat="40.85579" lon="-8.19076">
        <ele>768.208</ele>
        <time>2019-10-18T13:13:00Z</time>
      </trkpt>
      <trkpt lat="40.85564" lon="-8.19123">
        <ele>768.583</ele>
        <time>2019-10-18T13:13:20Z</time>
      </trkpt>
      <trkpt lat="40.8556" lon="-8.19135">
        <ele>767.771</ele>
        <time>2019-10-18T13:13:40Z</time>
      </trkpt>
      <trkpt lat="40.85544" lon="-8.19167">
        <ele>770.373</ele>
        <time>2019-10-18T13:14:00Z</time>
      </trkpt>
      <trkpt lat="40.85539" lon="-8.19175">
        <ele>772.463</ele>
        <time>2019-10-18T13:14:20Z</time>
      </trkpt>
      <trkpt lat="40.8554" lon="-8.19182">
        <ele>772.795</ele>
        <time>2019-10-18T13:14:40Z</time>
      </trkpt>
      <trkpt lat="40.85557" lon="-8.19205">
        <ele>771.436</ele>
        <time>2019-10-18T13:15:00Z</time>
      </trkpt>
      <trkpt lat="40.85566" lon="-8.19204">
        <ele>770.958</ele>
        <time>2019-10-18T13:15:20Z</time>
      </trkpt>
      <trkpt lat="40.8558" lon="-8.19194">
        <ele>768.228</ele>
        <time>2019-10-18T13:15:40Z</time>
      </trkpt>
      <trkpt lat="40.85587" lon="-8.19199">
        <ele>768.597</ele>
        <time>2019-10-18T13:16:00Z</time>
      </trkpt>
      <trkpt lat="40.85596" lon="-8.19213">
        <ele>771.223</ele>
        <time>2019-10-18T13:16:20Z</time>
      </trkpt>
      <trkpt lat="40.85599" lon="-8.19244">
        <ele>777.725</ele>
        <time>2019-10-18T13:16:40Z</time>
      </trkpt>
      <trkpt lat="40.85603" lon="-8.19272">
        <ele>782.208</ele>
        <time>2019-10-18T13:17:00Z</time>
      </trkpt>
      <trkpt lat="40.85611" lon="-8.19301">
        <ele>785.413</ele>
        <time>2019-10-18T13:17:20Z</time>
      </trkpt>
      <trkpt lat="40.85617" lon="-8.19332">
        <ele>785.461</ele>
        <time>2019-10-18T13:17:40Z</time>
      </trkpt>
      <trkpt lat="40.85607" lon="-8.1936">
        <ele>784.693</ele>
        <time>2019-10-18T13:18:00Z</time>
      </trkpt>
      <trkpt lat="40.85599" lon="-8.19368">
        <ele>784.293</ele>
        <time>2019-10-18T13:18:20Z</time>
      </trkpt>
      <trkpt lat="40.85575" lon="-8.19393">
        <ele>781.525</ele>
        <time>2019-10-18T13:18:40Z</time>
      </trkpt>
      <trkpt lat="40.85559" lon="-8.19404">
        <ele>780.276</ele>
        <time>2019-10-18T13:19:00Z</time>
      </trkpt>
      <trkpt lat="40.85539" lon="-8.19428">
        <ele>779.888</ele>
        <time>2019-10-18T13:19:20Z</time>
      </trkpt>
      <trkpt lat="40.855" lon="-8.1949">
        <ele>780.088</ele>
        <time>2019-10-18T13:19:40Z</time>
      </trkpt>
      <trkpt lat="40.85465" lon="-8.19525">
        <ele>781.059</ele>
        <time>2019-10-18T13:20:00Z</time>
      </trkpt>
      <trkpt lat="40.8545" lon="-8.19535">
        <ele>781.403</ele>
        <time>2019-10-18T13:20:20Z</time>
      </trkpt>
      <trkpt lat="40.85449" lon="-8.19563">
        <ele>781.823</ele>
        <time>2019-10-18T13:20:40Z</time>
      </trkpt>
      <trkpt lat="40.85462" lon="-8.1956">
        <ele>781.208</ele>
        <time>2019-10-18T13:21:00Z</time>
      </trkpt>
      <trkpt lat="40.85496" lon="-8.19547">
        <ele>781.719</ele>
        <time>2019-10-18T13:21:20Z</time>
      </trkpt>
      <trkpt lat="40.85502" lon="-8.19542">
        <ele>781.667</ele>
        <time>2019-10-18T13:21:40Z</time>
      </trkpt>
      <trkpt lat="40.85524" lon="-8.19533">
        <ele>780.979</ele>
        <time>2019-10-18T13:22:00Z</time>
      </trkpt>
      <trkpt lat="40.85546" lon="-8.19529">
        <ele>779.589</ele>
        <time>2019-10-18T13:22:20Z</time>
      </trkpt>
      <trkpt lat="40.85564" lon="-8.19545">
        <ele>782.381</ele>
        <time>2019-10-18T13:22:40Z</time>
      </trkpt>
      <trkpt lat="40.85577" lon="-8.19565">
        <ele>786.732</ele>
        <time>2019-10-18T13:23:00Z</time>
      </trkpt>
      <trkpt lat="40.8559" lon="-8.19588">
        <ele>790.554</ele>
        <time>2019-10-18T13:23:20Z</time>
      </trkpt>
      <trkpt lat="40.85598" lon="-8.19608">
        <ele>791.344</ele>
        <time>2019-10-18T13:23:40Z</time>
      </trkpt>
      <trkpt lat="40.85607" lon="-8.19625">
        <ele>791.447</ele>
        <time>2019-10-18T13:24:00Z</time>
      </trkpt>
      <trkpt lat="40.85624" lon="-8.19662">
        <ele>794.529</ele>
        <time>2019-10-18T13:24:20Z</time>
      </trkpt>
      <trkpt lat="40.85639" lon="-8.19681">
        <ele>795.821</ele>
        <time>2019-10-18T13:24:40Z</time>
      </trkpt>
      <trkpt lat="40.85659" lon="-8.1969">
        <ele>795.808</ele>
        <time>2019-10-18T13:25:00Z</time>
      </trkpt>
      <trkpt lat="40.8568" lon="-8.19699">
        <ele>796.858</ele>
        <time>2019-10-18T13:25:20Z</time>
      </trkpt>
      <trkpt lat="40.85706" lon="-8.19706">
        <ele>797.556</ele>
        <time>2019-10-18T13:25:40Z</time>
      </trkpt>
      <trkpt lat="40.85714" lon="-8.19711">
        <ele>798.888</ele>
        <time>2019-10-18T13:26:00Z</time>
      </trkpt>
      <trkpt lat="40.85746" lon="-8.19732">
        <ele>799.738</ele>
        <time>2019-10-18T13:26:20Z</time>
      </trkpt>
      <trkpt lat="40.85756" lon="-8.19738">
        <ele>800.34</ele>
        <time>2019-10-18T13:26:40Z</time>
      </trkpt>
      <trkpt lat="40.85775" lon="-8.19748">
        <ele>800.811</ele>
        <time>2019-10-18T13:27:00Z</time>
      </trkpt>
      <trkpt lat="40.85787" lon="-8.1979">
        <ele>802.143</ele>
        <time>2019-10-18T13:27:20Z</time>
      </trkpt>
      <trkpt lat="40.85791" lon="-8.19816">
        <ele>799.653</ele>
        <time>2019-10-18T13:27:40Z</time>
      </trkpt>
      <trkpt lat="40.85792" lon="-8.19858">
        <ele>798.565</ele>
        <time>2019-10-18T13:28:00Z</time>
      </trkpt>
      <trkpt lat="40.85774" lon="-8.19901">
        <ele>810.068</ele>
        <time>2019-10-18T13:28:20Z</time>
      </trkpt>
      <trkpt lat="40.85782" lon="-8.19926">
        <ele>809.914</ele>
        <time>2019-10-18T13:28:40Z</time>
      </trkpt>
      <trkpt lat="40.85795" lon="-8.19935">
        <ele>806.008</ele>
        <time>2019-10-18T13:29:00Z</time>
      </trkpt>
      <trkpt lat="40.85825" lon="-8.19946">
        <ele>796.92</ele>
        <time>2019-10-18T13:29:20Z</time>
      </trkpt>
      <trkpt lat="40.85858" lon="-8.20001">
        <ele>797.418</ele>
        <time>2019-10-18T13:29:40Z</time>
      </trkpt>
      <trkpt lat="40.85859" lon="-8.20008">
        <ele>797.64</ele>
        <time>2019-10-18T13:30:00Z</time>
      </trkpt>
      <trkpt lat="40.85875" lon="-8.20065">
        <ele>799.18</ele>
        <time>2019-10-18T13:30:20Z</time>
      </trkpt>
      <trkpt lat="40.8588" lon="-8.20079">
        <ele>799.612</ele>
        <time>2019-10-18T13:30:40Z</time>
      </trkpt>
      <trkpt lat="40.85897" lon="-8.20113">
        <ele>798.383</ele>
        <time>2019-10-18T13:31:00Z</time>
      </trkpt>
      <trkpt lat="40.85911" lon="-8.20154">
        <ele>799.065</ele>
        <time>2019-10-18T13:31:20Z</time>
      </trkpt>
      <trkpt lat="40.85948" lon="-8.20178">
        <ele>795.915</ele>
        <time>2019-10-18T13:31:40Z</time>
      </trkpt>
      <trkpt lat="40.85971" lon="-8.20177">
        <ele>789.124</ele>
        <time>2019-10-18T13:32:00Z</time>
      </trkpt>
      <trkpt lat="40.85995" lon="-8.20187">
        <ele>790.404</ele>
        <time>2019-10-18T13:32:20Z</time>
      </trkpt>
      <trkpt lat="40.86028" lon="-8.20216">
        <ele>796.614</ele>
        <time>2019-10-18T13:32:40Z</time>
      </trkpt>
      <trkpt lat="40.86047" lon="-8.20241">
        <ele>796.008</ele>
        <time>2019-10-18T13:33:00Z</time>
      </trkpt>
      <trkpt lat="40.86069" lon="-8.20275">
        <ele>795.486</ele>
        <time>2019-10-18T13:33:20Z</time>
      </trkpt>
      <trkpt lat="40.86086" lon="-8.20302">
        <ele>794.754</ele>
        <time>2019-10-18T13:33:40Z</time>
      </trkpt>
      <trkpt lat="40.86091" lon="-8.2031">
        <ele>795.236</ele>
        <time>2019-10-18T13:34:00Z</time>
      </trkpt>
      <trkpt lat="40.86109" lon="-8.20355">
        <ele>798.136</ele>
        <time>2019-10-18T13:34:20Z</time>
      </trkpt>
      <trkpt lat="40.86112" lon="-8.20363">
        <ele>798.178</ele>
        <time>2019-10-18T13:34:40Z</time>
      </trkpt>
      <trkpt lat="40.86124" lon="-8.20397">
        <ele>802.289</ele>
        <time>2019-10-18T13:35:00Z</time>
      </trkpt>
      <trkpt lat="40.86137" lon="-8.20433">
        <ele>805.521</ele>
        <time>2019-10-18T13:35:20Z</time>
      </trkpt>
      <trkpt lat="40.86141" lon="-8.20448">
        <ele>808.051</ele>
        <time>2019-10-18T13:35:40Z</time>
      </trkpt>
      <trkpt lat="40.86147" lon="-8.2049">
        <ele>811.949</ele>
        <time>2019-10-18T13:36:00Z</time>
      </trkpt>
      <trkpt lat="40.86167" lon="-8.20529">
        <ele>811.102</ele>
        <time>2019-10-18T13:36:20Z</time>
      </trkpt>
      <trkpt lat="40.86181" lon="-8.20524">
        <ele>811.622</ele>
        <time>2019-10-18T13:36:40Z</time>
      </trkpt>
      <trkpt lat="40.86199" lon="-8.20517">
        <ele>813.008</ele>
        <time>2019-10-18T13:37:00Z</time>
      </trkpt>
      <trkpt lat="40.86216" lon="-8.2048">
        <ele>814.068</ele>
        <time>2019-10-18T13:37:20Z</time>
      </trkpt>
      <trkpt lat="40.86218" lon="-8.20463">
        <ele>812.426</ele>
        <time>2019-10-18T13:37:40Z</time>
      </trkpt>
      <trkpt lat="40.86221" lon="-8.20449">
        <ele>810.468</ele>
        <time>2019-10-18T13:38:00Z</time>
      </trkpt>
      <trkpt lat="40.86232" lon="-8.2041">
        <ele>809.228</ele>
        <time>2019-10-18T13:38:20Z</time>
      </trkpt>
      <trkpt lat="40.86248" lon="-8.20373">
        <ele>811.87</ele>
        <time>2019-10-18T13:38:40Z</time>
      </trkpt>
      <trkpt lat="40.86257" lon="-8.20335">
        <ele>810.111</ele>
        <time>2019-10-18T13:39:00Z</time>
      </trkpt>
      <trkpt lat="40.86259" lon="-8.20329">
        <ele>809.883</ele>
        <time>2019-10-18T13:39:20Z</time>
      </trkpt>
      <trkpt lat="40.86272" lon="-8.20338">
        <ele>810.373</ele>
        <time>2019-10-18T13:39:40Z</time>
      </trkpt>
      <trkpt lat="40.86281" lon="-8.20378">
        <ele>812.862</ele>
        <time>2019-10-18T13:40:00Z</time>
      </trkpt>
      <trkpt lat="40.86294" lon="-8.20421">
        <ele>812.283</ele>
        <time>2019-10-18T13:40:20Z</time>
      </trkpt>
      <trkpt lat="40.86303" lon="-8.20459">
        <ele>815.211</ele>
        <time>2019-10-18T13:40:40Z</time>
      </trkpt>
      <trkpt lat="40.86304" lon="-8.20496">
        <ele>818.508</ele>
        <time>2019-10-18T13:41:00Z</time>
      </trkpt>
      <trkpt lat="40.86306" lon="-8.20538">
        <ele>822.12</ele>
        <time>2019-10-18T13:41:20Z</time>
      </trkpt>
      <trkpt lat="40.86314" lon="-8.20582">
        <ele>824.468</ele>
        <time>2019-10-18T13:41:40Z</time>
      </trkpt>
      <trkpt lat="40.86315" lon="-8.20631">
        <ele>824.34</ele>
        <time>2019-10-18T13:42:00Z</time>
      </trkpt>
      <trkpt lat="40.86323" lon="-8.20669">
        <ele>823.93</ele>
        <time>2019-10-18T13:42:20Z</time>
      </trkpt>
      <trkpt lat="40.8634" lon="-8.20701">
        <ele>826.772</ele>
        <time>2019-10-18T13:42:40Z</time>
      </trkpt>
      <trkpt lat="40.86357" lon="-8.20727">
        <ele>827.293</ele>
        <time>2019-10-18T13:43:00Z</time>
      </trkpt>
      <trkpt lat="40.86366" lon="-8.20745">
        <ele>826.615</ele>
        <time>2019-10-18T13:43:20Z</time>
      </trkpt>
      <trkpt lat="40.86383" lon="-8.20781">
        <ele>825.265</ele>
        <time>2019-10-18T13:43:40Z</time>
      </trkpt>
      <trkpt lat="40.86392" lon="-8.20805">
        <ele>826.249</ele>
        <time>2019-10-18T13:44:00Z</time>
      </trkpt>
      <trkpt lat="40.86403" lon="-8.20872">
        <ele>825.102</ele>
        <time>2019-10-18T13:44:20Z</time>
      </trkpt>
      <trkpt lat="40.86404" lon="-8.20917">
        <ele>826.622</ele>
        <time>2019-10-18T13:44:40Z</time>
      </trkpt>
      <trkpt lat="40.86411" lon="-8.20953">
        <ele>823.308</ele>
        <time>2019-10-18T13:45:00Z</time>
      </trkpt>
      <trkpt lat="40.86411" lon="-8.21004">
        <ele>825.548</ele>
        <time>2019-10-18T13:45:20Z</time>
      </trkpt>
      <trkpt lat="40.86404" lon="-8.21054">
        <ele>828.086</ele>
        <time>2019-10-18T13:45:40Z</time>
      </trkpt>
      <trkpt lat="40.86402" lon="-8.21061">
        <ele>829.058</ele>
        <time>2019-10-18T13:46:00Z</time>
      </trkpt>
      <trkpt lat="40.86396" lon="-8.21095">
        <ele>834.028</ele>
        <time>2019-10-18T13:46:20Z</time>
      </trkpt>
      <trkpt lat="40.86411" lon="-8.21109">
        <ele>828.93</ele>
        <time>2019-10-18T13:46:40Z</time>
      </trkpt>
      <trkpt lat="40.86432" lon="-8.21147">
        <ele>825.621</ele>
        <time>2019-10-18T13:47:00Z</time>
      </trkpt>
      <trkpt lat="40.8645" lon="-8.21193">
        <ele>827.073</ele>
        <time>2019-10-18T13:47:20Z</time>
      </trkpt>
      <trkpt lat="40.86461" lon="-8.21244">
        <ele>831.493</ele>
        <time>2019-10-18T13:47:40Z</time>
      </trkpt>
      <trkpt lat="40.8647" lon="-8.21296">
        <ele>830.267</ele>
        <time>2019-10-18T13:48:00Z</time>
      </trkpt>
      <trkpt lat="40.86475" lon="-8.21343">
        <ele>829.281</ele>
        <time>2019-10-18T13:48:20Z</time>
      </trkpt>
      <trkpt lat="40.86478" lon="-8.21354">
        <ele>829.419</ele>
        <time>2019-10-18T13:48:40Z</time>
      </trkpt>
      <trkpt lat="40.86503" lon="-8.21371">
        <ele>829.408</ele>
        <time>2019-10-18T13:49:00Z</time>
      </trkpt>
      <trkpt lat="40.8651" lon="-8.21362">
        <ele>830.32</ele>
        <time>2019-10-18T13:49:20Z</time>
      </trkpt>
      <trkpt lat="40.86516" lon="-8.2135">
        <ele>831.088</ele>
        <time>2019-10-18T13:49:40Z</time>
      </trkpt>
      <trkpt lat="40.86525" lon="-8.21324">
        <ele>832.06</ele>
        <time>2019-10-18T13:50:00Z</time>
      </trkpt>
      <trkpt lat="40.86541" lon="-8.21312">
        <ele>836.35</ele>
        <time>2019-10-18T13:50:20Z</time>
      </trkpt>
      <trkpt lat="40.86546" lon="-8.21317">
        <ele>837.872</ele>
        <time>2019-10-18T13:50:40Z</time>
      </trkpt>
      <trkpt lat="40.86552" lon="-8.21333">
        <ele>839.183</ele>
        <time>2019-10-18T13:51:00Z</time>
      </trkpt>
      <trkpt lat="40.86554" lon="-8.21343">
        <ele>839.915</ele>
        <time>2019-10-18T13:51:20Z</time>
      </trkpt>
      <trkpt lat="40.86568" lon="-8.21367">
        <ele>843.045</ele>
        <time>2019-10-18T13:51:40Z</time>
      </trkpt>
      <trkpt lat="40.8659" lon="-8.21378">
        <ele>845.683</ele>
        <time>2019-10-18T13:52:00Z</time>
      </trkpt>
      <trkpt lat="40.86596" lon="-8.21377">
        <ele>846.125</ele>
        <time>2019-10-18T13:52:20Z</time>
      </trkpt>
      <trkpt lat="40.86604" lon="-8.21349">
        <ele>848.417</ele>
        <time>2019-10-18T13:52:40Z</time>
      </trkpt>
      <trkpt lat="40.866" lon="-8.21314">
        <ele>850.008</ele>
        <time>2019-10-18T13:53:00Z</time>
      </trkpt>
      <trkpt lat="40.86596" lon="-8.21303">
        <ele>849.932</ele>
        <time>2019-10-18T13:53:20Z</time>
      </trkpt>
      <trkpt lat="40.86596" lon="-8.21271">
        <ele>851.77</ele>
        <time>2019-10-18T13:53:40Z</time>
      </trkpt>
      <trkpt lat="40.86599" lon="-8.21241">
        <ele>853.532</ele>
        <time>2019-10-18T13:54:00Z</time>
      </trkpt>
      <trkpt lat="40.86603" lon="-8.21221">
        <ele>854.562</ele>
        <time>2019-10-18T13:54:20Z</time>
      </trkpt>
      <trkpt lat="40.86608" lon="-8.21206">
        <ele>855.944</ele>
        <time>2019-10-18T13:54:40Z</time>
      </trkpt>
      <trkpt lat="40.86611" lon="-8.21197">
        <ele>856.945</ele>
        <time>2019-10-18T13:55:00Z</time>
      </trkpt>
      <trkpt lat="40.86617" lon="-8.21192">
        <ele>858.317</ele>
        <time>2019-10-18T13:55:20Z</time>
      </trkpt>
      <trkpt lat="40.86623" lon="-8.21178">
        <ele>859.427</ele>
        <time>2019-10-18T13:55:40Z</time>
      </trkpt>
      <trkpt lat="40.86646" lon="-8.21159">
        <ele>863.148</ele>
        <time>2019-10-18T13:56:00Z</time>
      </trkpt>
      <trkpt lat="40.86669" lon="-8.21142">
        <ele>868.061</ele>
        <time>2019-10-18T13:56:20Z</time>
      </trkpt>
      <trkpt lat="40.86683" lon="-8.21116">
        <ele>871.017</ele>
        <time>2019-10-18T13:56:40Z</time>
      </trkpt>
      <trkpt lat="40.86674" lon="-8.21102">
        <ele>868.408</ele>
        <time>2019-10-18T13:57:00Z</time>
      </trkpt>
      <trkpt lat="40.86669" lon="-8.21098">
        <ele>867.198</ele>
        <time>2019-10-18T13:57:20Z</time>
      </trkpt>
      <trkpt lat="40.86662" lon="-8.2108">
        <ele>866.426</ele>
        <time>2019-10-18T13:57:40Z</time>
      </trkpt>
      <trkpt lat="40.86652" lon="-8.21052">
        <ele>867.058</ele>
        <time>2019-10-18T13:58:00Z</time>
      </trkpt>
      <trkpt lat="40.86651" lon="-8.21017">
        <ele>868.728</ele>
        <time>2019-10-18T13:58:20Z</time>
      </trkpt>
      <trkpt lat="40.86654" lon="-8.20982">
        <ele>870.01</ele>
        <time>2019-10-18T13:58:40Z</time>
      </trkpt>
      <trkpt lat="40.86661" lon="-8.20965">
        <ele>871.861</ele>
        <time>2019-10-18T13:59:00Z</time>
      </trkpt>
      <trkpt lat="40.8667" lon="-8.20963">
        <ele>874.563</ele>
        <time>2019-10-18T13:59:20Z</time>
      </trkpt>
      <trkpt lat="40.86677" lon="-8.20978">
        <ele>876.893</ele>
        <time>2019-10-18T13:59:40Z</time>
      </trkpt>
      <trkpt lat="40.86689" lon="-8.20999">
        <ele>879.584</ele>
        <time>2019-10-18T14:00:00Z</time>
      </trkpt>
      <trkpt lat="40.867" lon="-8.21019">
        <ele>881.207</ele>
        <time>2019-10-18T14:00:20Z</time>
      </trkpt>
      <trkpt lat="40.86715" lon="-8.21035">
        <ele>884.417</ele>
        <time>2019-10-18T14:00:40Z</time>
      </trkpt>
      <trkpt lat="40.86737" lon="-8.21049">
        <ele>889.208</ele>
        <time>2019-10-18T14:01:00Z</time>
      </trkpt>
      <trkpt lat="40.86768" lon="-8.21068">
        <ele>893.692</ele>
        <time>2019-10-18T14:01:20Z</time>
      </trkpt>
      <trkpt lat="40.8679" lon="-8.21085">
        <ele>896.96</ele>
        <time>2019-10-18T14:01:40Z</time>
      </trkpt>
      <trkpt lat="40.86807" lon="-8.21108">
        <ele>899.772</ele>
        <time>2019-10-18T14:02:00Z</time>
      </trkpt>
      <trkpt lat="40.86809" lon="-8.21121">
        <ele>900.152</ele>
        <time>2019-10-18T14:02:20Z</time>
      </trkpt>
      <trkpt lat="40.86817" lon="-8.21137">
        <ele>902.374</ele>
        <time>2019-10-18T14:02:40Z</time>
      </trkpt>
      <trkpt lat="40.86832" lon="-8.21162">
        <ele>906.535</ele>
        <time>2019-10-18T14:03:00Z</time>
      </trkpt>
      <trkpt lat="40.8684" lon="-8.21181">
        <ele>908.097</ele>
        <time>2019-10-18T14:03:20Z</time>
      </trkpt>
      <trkpt lat="40.86841" lon="-8.21187">
        <ele>908.187</ele>
        <time>2019-10-18T14:03:40Z</time>
      </trkpt>
      <trkpt lat="40.86846" lon="-8.21197">
        <ele>909.199</ele>
        <time>2019-10-18T14:04:00Z</time>
      </trkpt>
      <trkpt lat="40.86848" lon="-8.21203">
        <ele>909.307</ele>
        <time>2019-10-18T14:04:20Z</time>
      </trkpt>
      <trkpt lat="40.86851" lon="-8.21211">
        <ele>909.527</ele>
        <time>2019-10-18T14:04:40Z</time>
      </trkpt>
      <trkpt lat="40.86853" lon="-8.21226">
        <ele>909.208</ele>
        <time>2019-10-18T14:05:00Z</time>
      </trkpt>
      <trkpt lat="40.86856" lon="-8.21233">
        <ele>909.973</ele>
        <time>2019-10-18T14:05:20Z</time>
      </trkpt>
      <trkpt lat="40.86856" lon="-8.2124">
        <ele>910.081</ele>
        <time>2019-10-18T14:05:40Z</time>
      </trkpt>
      <trkpt lat="40.86866" lon="-8.21253">
        <ele>912.773</ele>
        <time>2019-10-18T14:06:00Z</time>
      </trkpt>
      <trkpt lat="40.86888" lon="-8.21262">
        <ele>920.093</ele>
        <time>2019-10-18T14:06:20Z</time>
      </trkpt>
      <trkpt lat="40.86897" lon="-8.21281">
        <ele>923.965</ele>
        <time>2019-10-18T14:06:40Z</time>
      </trkpt>
      <trkpt lat="40.86875" lon="-8.21302">
        <ele>920.196</ele>
        <time>2019-10-18T14:07:00Z</time>
      </trkpt>
      <trkpt lat="40.8687" lon="-8.21322">
        <ele>920.388</ele>
        <time>2019-10-18T14:07:20Z</time>
      </trkpt>
      <trkpt lat="40.86873" lon="-8.21342">
        <ele>922.878</ele>
        <time>2019-10-18T14:07:40Z</time>
      </trkpt>
      <trkpt lat="40.86874" lon="-8.2136">
        <ele>925.283</ele>
        <time>2019-10-18T14:08:00Z</time>
      </trkpt>
      <trkpt lat="40.86877" lon="-8.21369">
        <ele>926.625</ele>
        <time>2019-10-18T14:08:20Z</time>
      </trkpt>
      <trkpt lat="40.86874" lon="-8.21379">
        <ele>926.717</ele>
        <time>2019-10-18T14:08:40Z</time>
      </trkpt>
      <trkpt lat="40.86873" lon="-8.21405">
        <ele>929.408</ele>
        <time>2019-10-18T14:09:00Z</time>
      </trkpt>
      <trkpt lat="40.86872" lon="-8.21426">
        <ele>931.452</ele>
        <time>2019-10-18T14:09:20Z</time>
      </trkpt>
      <trkpt lat="40.86877" lon="-8.21453">
        <ele>933.98</ele>
        <time>2019-10-18T14:09:40Z</time>
      </trkpt>
      <trkpt lat="40.86886" lon="-8.21476">
        <ele>937.252</ele>
        <time>2019-10-18T14:10:00Z</time>
      </trkpt>
      <trkpt lat="40.86889" lon="-8.21486">
        <ele>938.052</ele>
        <time>2019-10-18T14:10:20Z</time>
      </trkpt>
      <trkpt lat="40.86898" lon="-8.21505">
        <ele>941.044</ele>
        <time>2019-10-18T14:10:40Z</time>
      </trkpt>
      <trkpt lat="40.86908" lon="-8.21521">
        <ele>944.815</ele>
        <time>2019-10-18T14:11:00Z</time>
      </trkpt>
      <trkpt lat="40.86915" lon="-8.21539">
        <ele>947.687</ele>
        <time>2019-10-18T14:11:20Z</time>
      </trkpt>
      <trkpt lat="40.86927" lon="-8.2156">
        <ele>951.047</ele>
        <time>2019-10-18T14:11:40Z</time>
      </trkpt>
      <trkpt lat="40.86937" lon="-8.21591">
        <ele>953.976</ele>
        <time>2019-10-18T14:12:00Z</time>
      </trkpt>
      <trkpt lat="40.86936" lon="-8.21625">
        <ele>955.19</ele>
        <time>2019-10-18T14:12:20Z</time>
      </trkpt>
      <trkpt lat="40.8692" lon="-8.21647">
        <ele>953.819</ele>
        <time>2019-10-18T14:12:40Z</time>
      </trkpt>
      <trkpt lat="40.86901" lon="-8.21679">
        <ele>955.608</ele>
        <time>2019-10-18T14:13:00Z</time>
      </trkpt>
      <trkpt lat="40.86893" lon="-8.21707">
        <ele>958.421</ele>
        <time>2019-10-18T14:13:20Z</time>
      </trkpt>
      <trkpt lat="40.86889" lon="-8.21735">
        <ele>960.989</ele>
        <time>2019-10-18T14:13:40Z</time>
      </trkpt>
      <trkpt lat="40.86889" lon="-8.21746">
        <ele>961.721</ele>
        <time>2019-10-18T14:14:00Z</time>
      </trkpt>
      <trkpt lat="40.86892" lon="-8.21766">
        <ele>962.451</ele>
        <time>2019-10-18T14:14:20Z</time>
      </trkpt>
      <trkpt lat="40.86892" lon="-8.21778">
        <ele>962.583</ele>
        <time>2019-10-18T14:14:40Z</time>
      </trkpt>
      <trkpt lat="40.86879" lon="-8.21807">
        <ele>959.244</ele>
        <time>2019-10-18T14:15:00Z</time>
      </trkpt>
      <trkpt lat="40.86842" lon="-8.21804">
        <ele>955.286</ele>
        <time>2019-10-18T14:15:20Z</time>
      </trkpt>
      <trkpt lat="40.86814" lon="-8.21832">
        <ele>950.496</ele>
        <time>2019-10-18T14:15:40Z</time>
      </trkpt>
      <trkpt lat="40.86806" lon="-8.21897">
        <ele>944.244</ele>
        <time>2019-10-18T14:16:00Z</time>
      </trkpt>
      <trkpt lat="40.8678" lon="-8.21892">
        <ele>942.905</ele>
        <time>2019-10-18T14:16:20Z</time>
      </trkpt>
      <trkpt lat="40.86756" lon="-8.21914">
        <ele>941.915</ele>
        <time>2019-10-18T14:16:40Z</time>
      </trkpt>
      <trkpt lat="40.8673" lon="-8.2195">
        <ele>938.708</ele>
        <time>2019-10-18T14:17:00Z</time>
      </trkpt>
      <trkpt lat="40.86741" lon="-8.22047">
        <ele>931.448</ele>
        <time>2019-10-18T14:17:20Z</time>
      </trkpt>
      <trkpt lat="40.86758" lon="-8.22119">
        <ele>932.046</ele>
        <time>2019-10-18T14:17:40Z</time>
      </trkpt>
      <trkpt lat="40.86752" lon="-8.22151">
        <ele>929.498</ele>
        <time>2019-10-18T14:18:00Z</time>
      </trkpt>
      <trkpt lat="40.86798" lon="-8.22326">
        <ele>926.568</ele>
        <time>2019-10-18T14:18:20Z</time>
      </trkpt>
      <trkpt lat="40.86794" lon="-8.22392">
        <ele>929.75</ele>
        <time>2019-10-18T14:18:40Z</time>
      </trkpt>
      <trkpt lat="40.86801" lon="-8.22439">
        <ele>930.361</ele>
        <time>2019-10-18T14:19:00Z</time>
      </trkpt>
      <trkpt lat="40.86785" lon="-8.2257">
        <ele>928.233</ele>
        <time>2019-10-18T14:19:20Z</time>
      </trkpt>
      <trkpt lat="40.86785" lon="-8.22647">
        <ele>927.683</ele>
        <time>2019-10-18T14:19:40Z</time>
      </trkpt>
      <trkpt lat="40.86778" lon="-8.2267">
        <ele>926.296</ele>
        <time>2019-10-18T14:20:00Z</time>
      </trkpt>
      <trkpt lat="40.86759" lon="-8.22679">
        <ele>929.031</ele>
        <time>2019-10-18T14:20:20Z</time>
      </trkpt>
      <trkpt lat="40.8673" lon="-8.22601">
        <ele>935.024</ele>
        <time>2019-10-18T14:20:40Z</time>
      </trkpt>
      <trkpt lat="40.86648" lon="-8.22427">
        <ele>951.708</ele>
        <time>2019-10-18T14:21:00Z</time>
      </trkpt>
      <trkpt lat="40.86615" lon="-8.22378">
        <ele>952.973</ele>
        <time>2019-10-18T14:21:20Z</time>
      </trkpt>
      <trkpt lat="40.86593" lon="-8.22326">
        <ele>952.881</ele>
        <time>2019-10-18T14:21:40Z</time>
      </trkpt>
      <trkpt lat="40.86576" lon="-8.22304">
        <ele>956.623</ele>
        <time>2019-10-18T14:22:00Z</time>
      </trkpt>
      <trkpt lat="40.86549" lon="-8.22246">
        <ele>958.563</ele>
        <time>2019-10-18T14:22:20Z</time>
      </trkpt>
      <trkpt lat="40.86547" lon="-8.22259">
        <ele>961.545</ele>
        <time>2019-10-18T14:22:40Z</time>
      </trkpt>
      <trkpt lat="40.86576" lon="-8.2236">
        <ele>963.316</ele>
        <time>2019-10-18T14:23:00Z</time>
      </trkpt>
      <trkpt lat="40.86582" lon="-8.22389">
        <ele>965.628</ele>
        <time>2019-10-18T14:23:20Z</time>
      </trkpt>
      <trkpt lat="40.8659" lon="-8.2243">
        <ele>971.538</ele>
        <time>2019-10-18T14:23:40Z</time>
      </trkpt>
      <trkpt lat="40.86608" lon="-8.22475">
        <ele>972.986</ele>
        <time>2019-10-18T14:24:00Z</time>
      </trkpt>
      <trkpt lat="40.86637" lon="-8.22661">
        <ele>980.36</ele>
        <time>2019-10-18T14:24:20Z</time>
      </trkpt>
      <trkpt lat="40.8662" lon="-8.22758">
        <ele>987.326</ele>
        <time>2019-10-18T14:24:40Z</time>
      </trkpt>
      <trkpt lat="40.86599" lon="-8.22809">
        <ele>998.108</ele>
        <time>2019-10-18T14:25:00Z</time>
      </trkpt>
      <trkpt lat="40.86639" lon="-8.22928">
        <ele>999.022</ele>
        <time>2019-10-18T14:25:20Z</time>
      </trkpt>
      <trkpt lat="40.86647" lon="-8.2298">
        <ele>1006.12</ele>
        <time>2019-10-18T14:25:40Z</time>
      </trkpt>
      <trkpt lat="40.8669" lon="-8.23094">
        <ele>1012.592</ele>
        <time>2019-10-18T14:26:00Z</time>
      </trkpt>
      <trkpt lat="40.8672" lon="-8.23234">
        <ele>1012.312</ele>
        <time>2019-10-18T14:26:20Z</time>
      </trkpt>
      <trkpt lat="40.86718" lon="-8.23285">
        <ele>1013.714</ele>
        <time>2019-10-18T14:26:40Z</time>
      </trkpt>
      <trkpt lat="40.86735" lon="-8.2332">
        <ele>1013.985</ele>
        <time>2019-10-18T14:27:00Z</time>
      </trkpt>
      <trkpt lat="40.86747" lon="-8.23358">
        <ele>1016.057</ele>
        <time>2019-10-18T14:27:20Z</time>
      </trkpt>
      <trkpt lat="40.86772" lon="-8.2343">
        <ele>1015.147</ele>
        <time>2019-10-18T14:27:40Z</time>
      </trkpt>
      <trkpt lat="40.86799" lon="-8.23496">
        <ele>1013.853</ele>
        <time>2019-10-18T14:28:00Z</time>
      </trkpt>
      <trkpt lat="40.8683" lon="-8.23556">
        <ele>1007.904</ele>
        <time>2019-10-18T14:28:20Z</time>
      </trkpt>
      <trkpt lat="40.86831" lon="-8.23608">
        <ele>1011.614</ele>
        <time>2019-10-18T14:28:40Z</time>
      </trkpt>
      <trkpt lat="40.8684" lon="-8.23632">
        <ele>1011.008</ele>
        <time>2019-10-18T14:29:00Z</time>
      </trkpt>
      <trkpt lat="40.86887" lon="-8.2366">
        <ele>1001.719</ele>
        <time>2019-10-18T14:29:20Z</time>
      </trkpt>
      <trkpt lat="40.86894" lon="-8.23688">
        <ele>1001.777</ele>
        <time>2019-10-18T14:29:40Z</time>
      </trkpt>
      <trkpt lat="40.86923" lon="-8.23753">
        <ele>1005.979</ele>
        <time>2019-10-18T14:30:00Z</time>
      </trkpt>
      <trkpt lat="40.86937" lon="-8.23765">
        <ele>1007.589</ele>
        <time>2019-10-18T14:30:20Z</time>
      </trkpt>
      <trkpt lat="40.86953" lon="-8.23762">
        <ele>1008.641</ele>
        <time>2019-10-18T14:30:40Z</time>
      </trkpt>
      <trkpt lat="40.87028" lon="-8.23718">
        <ele>1015.922</ele>
        <time>2019-10-18T14:31:00Z</time>
      </trkpt>
      <trkpt lat="40.87056" lon="-8.23717">
        <ele>1018.034</ele>
        <time>2019-10-18T14:31:20Z</time>
      </trkpt>
      <trkpt lat="40.87061" lon="-8.23729">
        <ele>1019.034</ele>
        <time>2019-10-18T14:31:40Z</time>
      </trkpt>
      <trkpt lat="40.87049" lon="-8.23766">
        <ele>1017.923</ele>
        <time>2019-10-18T14:32:00Z</time>
      </trkpt>
      <trkpt lat="40.87048" lon="-8.23815">
        <ele>1016.683</ele>
        <time>2019-10-18T14:32:20Z</time>
      </trkpt>
      <trkpt lat="40.87045" lon="-8.23856">
        <ele>1017.111</ele>
        <time>2019-10-18T14:32:40Z</time>
      </trkpt>
      <trkpt lat="40.87045" lon="-8.23889">
        <ele>1018.808</ele>
        <time>2019-10-18T14:33:00Z</time>
      </trkpt>
      <trkpt lat="40.87051" lon="-8.23921">
        <ele>1018.976</ele>
        <time>2019-10-18T14:33:20Z</time>
      </trkpt>
      <trkpt lat="40.87051" lon="-8.23955">
        <ele>1019.254</ele>
        <time>2019-10-18T14:33:40Z</time>
      </trkpt>
      <trkpt lat="40.87041" lon="-8.23983">
        <ele>1021.186</ele>
        <time>2019-10-18T14:34:00Z</time>
      </trkpt>
      <trkpt lat="40.87036" lon="-8.24008">
        <ele>1024.186</ele>
        <time>2019-10-18T14:34:20Z</time>
      </trkpt>
      <trkpt lat="40.8703" lon="-8.24027">
        <ele>1025.998</ele>
        <time>2019-10-18T14:34:40Z</time>
      </trkpt>
      <trkpt lat="40.87023" lon="-8.24049">
        <ele>1027.329</ele>
        <time>2019-10-18T14:35:00Z</time>
      </trkpt>
      <trkpt lat="40.87018" lon="-8.24062">
        <ele>1028.381</ele>
        <time>2019-10-18T14:35:20Z</time>
      </trkpt>
      <trkpt lat="40.8701" lon="-8.24089">
        <ele>1030.981</ele>
        <time>2019-10-18T14:35:40Z</time>
      </trkpt>
      <trkpt lat="40.87006" lon="-8.24106">
        <ele>1032.648</ele>
        <time>2019-10-18T14:36:00Z</time>
      </trkpt>
      <trkpt lat="40.86998" lon="-8.24133">
        <ele>1033.761</ele>
        <time>2019-10-18T14:36:20Z</time>
      </trkpt>
      <trkpt lat="40.86997" lon="-8.24164">
        <ele>1033.817</ele>
        <time>2019-10-18T14:36:40Z</time>
      </trkpt>
      <trkpt lat="40.87002" lon="-8.24193">
        <ele>1033.308</ele>
        <time>2019-10-18T14:37:00Z</time>
      </trkpt>
      <trkpt lat="40.87021" lon="-8.24213">
        <ele>1034.668</ele>
        <time>2019-10-18T14:37:20Z</time>
      </trkpt>
      <trkpt lat="40.87048" lon="-8.24219">
        <ele>1036.696</ele>
        <time>2019-10-18T14:37:40Z</time>
      </trkpt>
      <trkpt lat="40.87078" lon="-8.24222">
        <ele>1039.458</ele>
        <time>2019-10-18T14:38:00Z</time>
      </trkpt>
      <trkpt lat="40.87083" lon="-8.24222">
        <ele>1040.098</ele>
        <time>2019-10-18T14:38:20Z</time>
      </trkpt>
      <trkpt lat="40.87092" lon="-8.2422">
        <ele>1040.22</ele>
        <time>2019-10-18T14:38:40Z</time>
      </trkpt>
      <trkpt lat="40.87119" lon="-8.24209">
        <ele>1040.951</ele>
        <time>2019-10-18T14:39:00Z</time>
      </trkpt>
      <trkpt lat="40.8715" lon="-8.24191">
        <ele>1042.313</ele>
        <time>2019-10-18T14:39:20Z</time>
      </trkpt>
      <trkpt lat="40.87172" lon="-8.24186">
        <ele>1043.623</ele>
        <time>2019-10-18T14:39:40Z</time>
      </trkpt>
      <trkpt lat="40.8719" lon="-8.24183">
        <ele>1045.546</ele>
        <time>2019-10-18T14:40:00Z</time>
      </trkpt>
      <trkpt lat="40.87198" lon="-8.24181">
        <ele>1046.288</ele>
        <time>2019-10-18T14:40:20Z</time>
      </trkpt>
      <trkpt lat="40.87219" lon="-8.24176">
        <ele>1047.816</ele>
        <time>2019-10-18T14:40:40Z</time>
      </trkpt>
      <trkpt lat="40.87237" lon="-8.24175">
        <ele>1049.608</ele>
        <time>2019-10-18T14:41:00Z</time>
      </trkpt>
      <trkpt lat="40.87246" lon="-8.24173">
        <ele>1050.658</ele>
        <time>2019-10-18T14:41:20Z</time>
      </trkpt>
      <trkpt lat="40.87269" lon="-8.24168">
        <ele>1053.756</ele>
        <time>2019-10-18T14:41:40Z</time>
      </trkpt>
      <trkpt lat="40.87298" lon="-8.24163">
        <ele>1057.088</ele>
        <time>2019-10-18T14:42:00Z</time>
      </trkpt>
      <trkpt lat="40.87317" lon="-8.24161">
        <ele>1058.948</ele>
        <time>2019-10-18T14:42:20Z</time>
      </trkpt>
      <trkpt lat="40.87341" lon="-8.24153">
        <ele>1061.25</ele>
        <time>2019-10-18T14:42:40Z</time>
      </trkpt>
      <trkpt lat="40.8736" lon="-8.2414">
        <ele>1061.931</ele>
        <time>2019-10-18T14:43:00Z</time>
      </trkpt>
      <trkpt lat="40.87378" lon="-8.24122">
        <ele>1064.173</ele>
        <time>2019-10-18T14:43:20Z</time>
      </trkpt>
      <trkpt lat="40.87393" lon="-8.24111">
        <ele>1065.853</ele>
        <time>2019-10-18T14:43:40Z</time>
      </trkpt>
      <trkpt lat="40.87403" lon="-8.24105">
        <ele>1067.571</ele>
        <time>2019-10-18T14:44:00Z</time>
      </trkpt>
      <trkpt lat="40.87413" lon="-8.24101">
        <ele>1069.341</ele>
        <time>2019-10-18T14:44:20Z</time>
      </trkpt>
      <trkpt lat="40.87427" lon="-8.24099">
        <ele>1070.515</ele>
        <time>2019-10-18T14:44:40Z</time>
      </trkpt>
      <trkpt lat="40.87438" lon="-8.24101">
        <ele>1071.108</ele>
        <time>2019-10-18T14:45:00Z</time>
      </trkpt>
      <trkpt lat="40.87443" lon="-8.24099">
        <ele>1071.441</ele>
        <time>2019-10-18T14:45:20Z</time>
      </trkpt>
      <trkpt lat="40.87461" lon="-8.24105">
        <ele>1070.559</ele>
        <time>2019-10-18T14:45:40Z</time>
      </trkpt>
      <trkpt lat="40.8747" lon="-8.2414">
        <ele>1071.041</ele>
        <time>2019-10-18T14:46:00Z</time>
      </trkpt>
      <trkpt lat="40.87482" lon="-8.24188">
        <ele>1072.461</ele>
        <time>2019-10-18T14:46:20Z</time>
      </trkpt>
      <trkpt lat="40.875" lon="-8.24244">
        <ele>1072.053</ele>
        <time>2019-10-18T14:46:40Z</time>
      </trkpt>
      <trkpt lat="40.87526" lon="-8.24287">
        <ele>1070.954</ele>
        <time>2019-10-18T14:47:00Z</time>
      </trkpt>
      <trkpt lat="40.87557" lon="-8.24321">
        <ele>1072.966</ele>
        <time>2019-10-18T14:47:20Z</time>
      </trkpt>
      <trkpt lat="40.87584" lon="-8.24375">
        <ele>1070.446</ele>
        <time>2019-10-18T14:47:40Z</time>
      </trkpt>
      <trkpt lat="40.87601" lon="-8.2438">
        <ele>1068.921</ele>
        <time>2019-10-18T14:48:00Z</time>
      </trkpt>
      <trkpt lat="40.87623" lon="-8.24368">
        <ele>1067.941</ele>
        <time>2019-10-18T14:48:20Z</time>
      </trkpt>
      <trkpt lat="40.87643" lon="-8.24362">
        <ele>1067.805</ele>
        <time>2019-10-18T14:48:40Z</time>
      </trkpt>
      <trkpt lat="40.87668" lon="-8.24371">
        <ele>1067.008</ele>
        <time>2019-10-18T14:49:00Z</time>
      </trkpt>
      <trkpt lat="40.87728" lon="-8.24405">
        <ele>1065.456</ele>
        <time>2019-10-18T14:49:20Z</time>
      </trkpt>
      <trkpt lat="40.8774" lon="-8.24407">
        <ele>1065.154</ele>
        <time>2019-10-18T14:49:40Z</time>
      </trkpt>
      <trkpt lat="40.87787" lon="-8.24415">
        <ele>1063.636</ele>
        <time>2019-10-18T14:50:00Z</time>
      </trkpt>
      <trkpt lat="40.87802" lon="-8.24417">
        <ele>1063.296</ele>
        <time>2019-10-18T14:50:20Z</time>
      </trkpt>
      <trkpt lat="40.87812" lon="-8.24416">
        <ele>1062.538</ele>
        <time>2019-10-18T14:50:40Z</time>
      </trkpt>
      <trkpt lat="40.87828" lon="-8.24415">
        <ele>1061.349</ele>
        <time>2019-10-18T14:51:00Z</time>
      </trkpt>
      <trkpt lat="40.87851" lon="-8.24407">
        <ele>1059.431</ele>
        <time>2019-10-18T14:51:20Z</time>
      </trkpt>
      <trkpt lat="40.8786" lon="-8.24402">
        <ele>1058.641</ele>
        <time>2019-10-18T14:51:40Z</time>
      </trkpt>
      <trkpt lat="40.87889" lon="-8.24396">
        <ele>1055.385</ele>
        <time>2019-10-18T14:52:00Z</time>
      </trkpt>
      <trkpt lat="40.87901" lon="-8.24401">
        <ele>1053.089</ele>
        <time>2019-10-18T14:52:20Z</time>
      </trkpt>
      <trkpt lat="40.87917" lon="-8.24418">
        <ele>1049.917</ele>
        <time>2019-10-18T14:52:40Z</time>
      </trkpt>
      <trkpt lat="40.87922" lon="-8.24426">
        <ele>1048.208</ele>
        <time>2019-10-18T14:53:00Z</time>
      </trkpt>
      <trkpt lat="40.87938" lon="-8.24438">
        <ele>1044.012</ele>
        <time>2019-10-18T14:53:20Z</time>
      </trkpt>
      <trkpt lat="40.87956" lon="-8.24439">
        <ele>1040.03</ele>
        <time>2019-10-18T14:53:40Z</time>
      </trkpt>
      <trkpt lat="40.8797" lon="-8.24435">
        <ele>1037.162</ele>
        <time>2019-10-18T14:54:00Z</time>
      </trkpt>
      <trkpt lat="40.87992" lon="-8.2442">
        <ele>1033.182</ele>
        <time>2019-10-18T14:54:20Z</time>
      </trkpt>
      <trkpt lat="40.87998" lon="-8.24416">
        <ele>1032.344</ele>
        <time>2019-10-18T14:54:40Z</time>
      </trkpt>
      <trkpt lat="40.88013" lon="-8.24402">
        <ele>1030.675</ele>
        <time>2019-10-18T14:55:00Z</time>
      </trkpt>
      <trkpt lat="40.88037" lon="-8.24359">
        <ele>1030.587</ele>
        <time>2019-10-18T14:55:20Z</time>
      </trkpt>
      <trkpt lat="40.88075" lon="-8.24266">
        <ele>1026.617</ele>
        <time>2019-10-18T14:55:40Z</time>
      </trkpt>
      <trkpt lat="40.88092" lon="-8.24231">
        <ele>1026.938</ele>
        <time>2019-10-18T14:56:00Z</time>
      </trkpt>
      <trkpt lat="40.88101" lon="-8.2421">
        <ele>1027.47</ele>
        <time>2019-10-18T14:56:20Z</time>
      </trkpt>
      <trkpt lat="40.8813" lon="-8.24136">
        <ele>1027.917</ele>
        <time>2019-10-18T14:56:40Z</time>
      </trkpt>
      <trkpt lat="40.88162" lon="-8.24075">
        <ele>1023.708</ele>
        <time>2019-10-18T14:57:00Z</time>
      </trkpt>
      <trkpt lat="40.88164" lon="-8.24061">
        <ele>1021.867</ele>
        <time>2019-10-18T14:57:20Z</time>
      </trkpt>
      <trkpt lat="40.88167" lon="-8.24044">
        <ele>1020.695</ele>
        <time>2019-10-18T14:57:40Z</time>
      </trkpt>
      <trkpt lat="40.88167" lon="-8.24024">
        <ele>1019.987</ele>
        <time>2019-10-18T14:58:00Z</time>
      </trkpt>
      <trkpt lat="40.88168" lon="-8.24003">
        <ele>1019.057</ele>
        <time>2019-10-18T14:58:20Z</time>
      </trkpt>
      <trkpt lat="40.88171" lon="-8.23971">
        <ele>1014.539</ele>
        <time>2019-10-18T14:58:40Z</time>
      </trkpt>
      <trkpt lat="40.88175" lon="-8.23942">
        <ele>1011.49</ele>
        <time>2019-10-18T14:59:00Z</time>
      </trkpt>
      <trkpt lat="40.88181" lon="-8.23905">
        <ele>1007.952</ele>
        <time>2019-10-18T14:59:20Z</time>
      </trkpt>
      <trkpt lat="40.88185" lon="-8.23885">
        <ele>1005.972</ele>
        <time>2019-10-18T14:59:40Z</time>
      </trkpt>
      <trkpt lat="40.88194" lon="-8.23847">
        <ele>1001.063</ele>
        <time>2019-10-18T15:00:00Z</time>
      </trkpt>
      <trkpt lat="40.88197" lon="-8.23839">
        <ele>999.444</ele>
        <time>2019-10-18T15:00:20Z</time>
      </trkpt>
      <trkpt lat="40.88209" lon="-8.2383">
        <ele>996.318</ele>
        <time>2019-10-18T15:00:40Z</time>
      </trkpt>
      <trkpt lat="40.88226" lon="-8.23804">
        <ele>991.708</ele>
        <time>2019-10-18T15:01:00Z</time>
      </trkpt>
      <trkpt lat="40.88238" lon="-8.23781">
        <ele>989.48</ele>
        <time>2019-10-18T15:01:20Z</time>
      </trkpt>
      <trkpt lat="40.88245" lon="-8.23767">
        <ele>988.538</ele>
        <time>2019-10-18T15:01:40Z</time>
      </trkpt>
      <trkpt lat="40.88249" lon="-8.23761">
        <ele>987.81</ele>
        <time>2019-10-18T15:02:00Z</time>
      </trkpt>
      <trkpt lat="40.88261" lon="-8.23745">
        <ele>984.63</ele>
        <time>2019-10-18T15:02:20Z</time>
      </trkpt>
      <trkpt lat="40.88267" lon="-8.2374">
        <ele>983.412</ele>
        <time>2019-10-18T15:02:40Z</time>
      </trkpt>
      <trkpt lat="40.88278" lon="-8.23728">
        <ele>981.953</ele>
        <time>2019-10-18T15:03:00Z</time>
      </trkpt>
      <trkpt lat="40.88293" lon="-8.23714">
        <ele>978.555</ele>
        <time>2019-10-18T15:03:20Z</time>
      </trkpt>
      <trkpt lat="40.88308" lon="-8.23699">
        <ele>975.275</ele>
        <time>2019-10-18T15:03:40Z</time>
      </trkpt>
      <trkpt lat="40.88324" lon="-8.2368">
        <ele>970.349</ele>
        <time>2019-10-18T15:04:00Z</time>
      </trkpt>
      <trkpt lat="40.88335" lon="-8.23668">
        <ele>967.002</ele>
        <time>2019-10-18T15:04:20Z</time>
      </trkpt>
      <trkpt lat="40.88346" lon="-8.23655">
        <ele>962.222</ele>
        <time>2019-10-18T15:04:40Z</time>
      </trkpt>
      <trkpt lat="40.88358" lon="-8.23643">
        <ele>956.308</ele>
        <time>2019-10-18T15:05:00Z</time>
      </trkpt>
      <trkpt lat="40.88369" lon="-8.23631">
        <ele>951.488</ele>
        <time>2019-10-18T15:05:20Z</time>
      </trkpt>
      <trkpt lat="40.88376" lon="-8.23613">
        <ele>951.586</ele>
        <time>2019-10-18T15:05:40Z</time>
      </trkpt>
      <trkpt lat="40.88383" lon="-8.23599">
        <ele>951.918</ele>
        <time>2019-10-18T15:06:00Z</time>
      </trkpt>
      <trkpt lat="40.88392" lon="-8.23593">
        <ele>949.228</ele>
        <time>2019-10-18T15:06:20Z</time>
      </trkpt>
      <trkpt lat="40.88405" lon="-8.23588">
        <ele>944.05</ele>
        <time>2019-10-18T15:06:40Z</time>
      </trkpt>
      <trkpt lat="40.88418" lon="-8.23581">
        <ele>939.471</ele>
        <time>2019-10-18T15:07:00Z</time>
      </trkpt>
      <trkpt lat="40.88428" lon="-8.23574">
        <ele>936.843</ele>
        <time>2019-10-18T15:07:20Z</time>
      </trkpt>
      <trkpt lat="40.88442" lon="-8.23564">
        <ele>933.843</ele>
        <time>2019-10-18T15:07:40Z</time>
      </trkpt>
      <trkpt lat="40.88453" lon="-8.23557">
        <ele>931.772</ele>
        <time>2019-10-18T15:08:00Z</time>
      </trkpt>
      <trkpt lat="40.88463" lon="-8.23547">
        <ele>931.513</ele>
        <time>2019-10-18T15:08:20Z</time>
      </trkpt>
      <trkpt lat="40.88491" lon="-8.23521">
        <ele>929.014</ele>
        <time>2019-10-18T15:08:40Z</time>
      </trkpt>
      <trkpt lat="40.88507" lon="-8.23514">
        <ele>924.708</ele>
        <time>2019-10-18T15:09:00Z</time>
      </trkpt>
      <trkpt lat="40.88521" lon="-8.23507">
        <ele>920.411</ele>
        <time>2019-10-18T15:09:20Z</time>
      </trkpt>
      <trkpt lat="40.88534" lon="-8.235">
        <ele>916.989</ele>
        <time>2019-10-18T15:09:40Z</time>
      </trkpt>
      <trkpt lat="40.88552" lon="-8.2349">
        <ele>912.621</ele>
        <time>2019-10-18T15:10:00Z</time>
      </trkpt>
      <trkpt lat="40.88573" lon="-8.23479">
        <ele>910.121</ele>
        <time>2019-10-18T15:10:20Z</time>
      </trkpt>
      <trkpt lat="40.88598" lon="-8.23471">
        <ele>905.913</ele>
        <time>2019-10-18T15:10:40Z</time>
      </trkpt>
      <trkpt lat="40.88614" lon="-8.23465">
        <ele>902.364</ele>
        <time>2019-10-18T15:11:00Z</time>
      </trkpt>
      <trkpt lat="40.88636" lon="-8.23456">
        <ele>898.026</ele>
        <time>2019-10-18T15:11:20Z</time>
      </trkpt>
      <trkpt lat="40.88641" lon="-8.23454">
        <ele>896.766</ele>
        <time>2019-10-18T15:11:40Z</time>
      </trkpt>
      <trkpt lat="40.88657" lon="-8.23447">
        <ele>893.657</ele>
        <time>2019-10-18T15:12:00Z</time>
      </trkpt>
      <trkpt lat="40.88683" lon="-8.23438">
        <ele>889.5</ele>
        <time>2019-10-18T15:12:20Z</time>
      </trkpt>
      <trkpt lat="40.88702" lon="-8.23429">
        <ele>888.52</ele>
        <time>2019-10-18T15:12:40Z</time>
      </trkpt>
      <trkpt lat="40.88719" lon="-8.23419">
        <ele>887.908</ele>
        <time>2019-10-18T15:13:00Z</time>
      </trkpt>
      <trkpt lat="40.88735" lon="-8.23409">
        <ele>885.039</ele>
        <time>2019-10-18T15:13:20Z</time>
      </trkpt>
      <trkpt lat="40.88748" lon="-8.23401">
        <ele>881.837</ele>
        <time>2019-10-18T15:13:40Z</time>
      </trkpt>
      <trkpt lat="40.88757" lon="-8.23392">
        <ele>879.919</ele>
        <time>2019-10-18T15:14:00Z</time>
      </trkpt>
      <trkpt lat="40.88763" lon="-8.23384">
        <ele>879.229</ele>
        <time>2019-10-18T15:14:20Z</time>
      </trkpt>
      <trkpt lat="40.88782" lon="-8.23352">
        <ele>877.181</ele>
        <time>2019-10-18T15:14:40Z</time>
      </trkpt>
      <trkpt lat="40.88785" lon="-8.23347">
        <ele>876.672</ele>
        <time>2019-10-18T15:15:00Z</time>
      </trkpt>
      <trkpt lat="40.88798" lon="-8.2333">
        <ele>873.144</ele>
        <time>2019-10-18T15:15:20Z</time>
      </trkpt>
      <trkpt lat="40.8881" lon="-8.23318">
        <ele>870.244</ele>
        <time>2019-10-18T15:15:40Z</time>
      </trkpt>
      <trkpt lat="40.88816" lon="-8.23311">
        <ele>869.164</ele>
        <time>2019-10-18T15:16:00Z</time>
      </trkpt>
      <trkpt lat="40.88841" lon="-8.23278">
        <ele>866.806</ele>
        <time>2019-10-18T15:16:20Z</time>
      </trkpt>
      <trkpt lat="40.88851" lon="-8.23265">
        <ele>866.716</ele>
        <time>2019-10-18T15:16:40Z</time>
      </trkpt>
      <trkpt lat="40.88871" lon="-8.23241">
        <ele>864.608</ele>
        <time>2019-10-18T15:17:00Z</time>
      </trkpt>
      <trkpt lat="40.88894" lon="-8.23214">
        <ele>861.54</ele>
        <time>2019-10-18T15:17:20Z</time>
      </trkpt>
      <trkpt lat="40.88914" lon="-8.23193">
        <ele>858.528</ele>
        <time>2019-10-18T15:17:40Z</time>
      </trkpt>
      <trkpt lat="40.88934" lon="-8.23172">
        <ele>852.78</ele>
        <time>2019-10-18T15:18:00Z</time>
      </trkpt>
      <trkpt lat="40.88953" lon="-8.23146">
        <ele>848.12</ele>
        <time>2019-10-18T15:18:20Z</time>
      </trkpt>
      <trkpt lat="40.8897" lon="-8.23118">
        <ele>845.982</ele>
        <time>2019-10-18T15:18:40Z</time>
      </trkpt>
      <trkpt lat="40.8898" lon="-8.23099">
        <ele>843.413</ele>
        <time>2019-10-18T15:19:00Z</time>
      </trkpt>
      <trkpt lat="40.88985" lon="-8.23089">
        <ele>841.945</ele>
        <time>2019-10-18T15:19:20Z</time>
      </trkpt>
      <trkpt lat="40.88996" lon="-8.23064">
        <ele>838.945</ele>
        <time>2019-10-18T15:19:40Z</time>
      </trkpt>
      <trkpt lat="40.89005" lon="-8.23034">
        <ele>833.646</ele>
        <time>2019-10-18T15:20:00Z</time>
      </trkpt>
      <trkpt lat="40.89012" lon="-8.23003">
        <ele>831.188</ele>
        <time>2019-10-18T15:20:20Z</time>
      </trkpt>
      <trkpt lat="40.89019" lon="-8.2297">
        <ele>827.816</ele>
        <time>2019-10-18T15:20:40Z</time>
      </trkpt>
      <trkpt lat="40.89019" lon="-8.22943">
        <ele>826.808</ele>
        <time>2019-10-18T15:21:00Z</time>
      </trkpt>
      <trkpt lat="40.89" lon="-8.22916">
        <ele>826.968</ele>
        <time>2019-10-18T15:21:20Z</time>
      </trkpt>
      <trkpt lat="40.88964" lon="-8.22892">
        <ele>825.236</ele>
        <time>2019-10-18T15:21:40Z</time>
      </trkpt>
      <trkpt lat="40.88928" lon="-8.22859">
        <ele>827.588</ele>
        <time>2019-10-18T15:22:00Z</time>
      </trkpt>
      <trkpt lat="40.88915" lon="-8.22834">
        <ele>828.088</ele>
        <time>2019-10-18T15:22:20Z</time>
      </trkpt>
      <trkpt lat="40.8891" lon="-8.2282">
        <ele>829.75</ele>
        <time>2019-10-18T15:22:40Z</time>
      </trkpt>
      <trkpt lat="40.88929" lon="-8.22809">
        <ele>826.941</ele>
        <time>2019-10-18T15:23:00Z</time>
      </trkpt>
      <trkpt lat="40.88945" lon="-8.22824">
        <ele>824.693</ele>
        <time>2019-10-18T15:23:20Z</time>
      </trkpt>
      <trkpt lat="40.88982" lon="-8.22833">
        <ele>820.323</ele>
        <time>2019-10-18T15:23:40Z</time>
      </trkpt>
      <trkpt lat="40.89012" lon="-8.22827">
        <ele>816.257</ele>
        <time>2019-10-18T15:24:00Z</time>
      </trkpt>
      <trkpt lat="40.89026" lon="-8.22818">
        <ele>812.6</ele>
        <time>2019-10-18T15:24:20Z</time>
      </trkpt>
      <trkpt lat="40.89043" lon="-8.22809">
        <ele>811.02</ele>
        <time>2019-10-18T15:24:40Z</time>
      </trkpt>
      <trkpt lat="40.89071" lon="-8.22796">
        <ele>809.108</ele>
        <time>2019-10-18T15:25:00Z</time>
      </trkpt>
      <trkpt lat="40.89084" lon="-8.2279">
        <ele>807.749</ele>
        <time>2019-10-18T15:25:20Z</time>
      </trkpt>
      <trkpt lat="40.8909" lon="-8.2279">
        <ele>805.997</ele>
        <time>2019-10-18T15:25:40Z</time>
      </trkpt>
      <trkpt lat="40.89106" lon="-8.22789">
        <ele>800.649</ele>
        <time>2019-10-18T15:26:00Z</time>
      </trkpt>
      <trkpt lat="40.89124" lon="-8.22787">
        <ele>795.919</ele>
        <time>2019-10-18T15:26:20Z</time>
      </trkpt>
      <trkpt lat="40.89152" lon="-8.22782">
        <ele>790.081</ele>
        <time>2019-10-18T15:26:40Z</time>
      </trkpt>
      <trkpt lat="40.89169" lon="-8.22781">
        <ele>786.932</ele>
        <time>2019-10-18T15:27:00Z</time>
      </trkpt>
      <trkpt lat="40.89193" lon="-8.22774">
        <ele>787.074</ele>
        <time>2019-10-18T15:27:20Z</time>
      </trkpt>
      <trkpt lat="40.892" lon="-8.22774">
        <ele>786.574</ele>
        <time>2019-10-18T15:27:40Z</time>
      </trkpt>
      <trkpt lat="40.89241" lon="-8.22766">
        <ele>782.754</ele>
        <time>2019-10-18T15:28:00Z</time>
      </trkpt>
      <trkpt lat="40.89269" lon="-8.22765">
        <ele>776.856</ele>
        <time>2019-10-18T15:28:20Z</time>
      </trkpt>
      <trkpt lat="40.89293" lon="-8.22741">
        <ele>775.211</ele>
        <time>2019-10-18T15:28:40Z</time>
      </trkpt>
      <trkpt lat="40.893" lon="-8.22729">
        <ele>775.808</ele>
        <time>2019-10-18T15:29:00Z</time>
      </trkpt>
      <trkpt lat="40.89305" lon="-8.22722">
        <ele>776.149</ele>
        <time>2019-10-18T15:29:20Z</time>
      </trkpt>
      <trkpt lat="40.89318" lon="-8.22704">
        <ele>774.377</ele>
        <time>2019-10-18T15:29:40Z</time>
      </trkpt>
      <trkpt lat="40.89342" lon="-8.22669">
        <ele>767.469</ele>
        <time>2019-10-18T15:30:00Z</time>
      </trkpt>
      <trkpt lat="40.89358" lon="-8.22644">
        <ele>762.689</ele>
        <time>2019-10-18T15:30:20Z</time>
      </trkpt>
      <trkpt lat="40.89378" lon="-8.22611">
        <ele>757.451</ele>
        <time>2019-10-18T15:30:40Z</time>
      </trkpt>
      <trkpt lat="40.89381" lon="-8.22606">
        <ele>757.062</ele>
        <time>2019-10-18T15:31:00Z</time>
      </trkpt>
      <trkpt lat="40.89394" lon="-8.2258">
        <ele>756.224</ele>
        <time>2019-10-18T15:31:20Z</time>
      </trkpt>
      <trkpt lat="40.89398" lon="-8.22572">
        <ele>756.414</ele>
        <time>2019-10-18T15:31:40Z</time>
      </trkpt>
      <trkpt lat="40.89404" lon="-8.22564">
        <ele>756.426</ele>
        <time>2019-10-18T15:32:00Z</time>
      </trkpt>
      <trkpt lat="40.89416" lon="-8.22546">
        <ele>755.747</ele>
        <time>2019-10-18T15:32:20Z</time>
      </trkpt>
      <trkpt lat="40.8944" lon="-8.22511">
        <ele>750.511</ele>
        <time>2019-10-18T15:32:40Z</time>
      </trkpt>
      <trkpt lat="40.89457" lon="-8.22487">
        <ele>745.408</ele>
        <time>2019-10-18T15:33:00Z</time>
      </trkpt>
      <trkpt lat="40.89469" lon="-8.22467">
        <ele>742.426</ele>
        <time>2019-10-18T15:33:20Z</time>
      </trkpt>
      <trkpt lat="40.8948" lon="-8.22438">
        <ele>741.284</ele>
        <time>2019-10-18T15:33:40Z</time>
      </trkpt>
      <trkpt lat="40.89492" lon="-8.22415">
        <ele>739.886</ele>
        <time>2019-10-18T15:34:00Z</time>
      </trkpt>
      <trkpt lat="40.89504" lon="-8.224">
        <ele>737.486</ele>
        <time>2019-10-18T15:34:20Z</time>
      </trkpt>
      <trkpt lat="40.89521" lon="-8.22366">
        <ele>734.528</ele>
        <time>2019-10-18T15:34:40Z</time>
      </trkpt>
      <trkpt lat="40.89522" lon="-8.22358">
        <ele>734.239</ele>
        <time>2019-10-18T15:35:00Z</time>
      </trkpt>
      <trkpt lat="40.89527" lon="-8.2233">
        <ele>731.091</ele>
        <time>2019-10-18T15:35:20Z</time>
      </trkpt>
      <trkpt lat="40.89528" lon="-8.22321">
        <ele>729.641</ele>
        <time>2019-10-18T15:35:40Z</time>
      </trkpt>
      <trkpt lat="40.8953" lon="-8.22301">
        <ele>727.278</ele>
        <time>2019-10-18T15:36:00Z</time>
      </trkpt>
      <trkpt lat="40.89535" lon="-8.22233">
        <ele>722.633</ele>
        <time>2019-10-18T15:36:20Z</time>
      </trkpt>
      <trkpt lat="40.89528" lon="-8.22188">
        <ele>720.526</ele>
        <time>2019-10-18T15:36:40Z</time>
      </trkpt>
      <trkpt lat="40.89499" lon="-8.22162">
        <ele>716.908</ele>
        <time>2019-10-18T15:37:00Z</time>
      </trkpt>
      <trkpt lat="40.89478" lon="-8.2216">
        <ele>715.451</ele>
        <time>2019-10-18T15:37:20Z</time>
      </trkpt>
      <trkpt lat="40.89453" lon="-8.22159">
        <ele>717.699</ele>
        <time>2019-10-18T15:37:40Z</time>
      </trkpt>
      <trkpt lat="40.89451" lon="-8.22148">
        <ele>715.031</ele>
        <time>2019-10-18T15:38:00Z</time>
      </trkpt>
      <trkpt lat="40.89459" lon="-8.2213">
        <ele>709.461</ele>
        <time>2019-10-18T15:38:20Z</time>
      </trkpt>
      <trkpt lat="40.89472" lon="-8.22126">
        <ele>706.883</ele>
        <time>2019-10-18T15:38:40Z</time>
      </trkpt>
      <trkpt lat="40.89497" lon="-8.22128">
        <ele>706.964</ele>
        <time>2019-10-18T15:39:00Z</time>
      </trkpt>
      <trkpt lat="40.89509" lon="-8.22121">
        <ele>703.246</ele>
        <time>2019-10-18T15:39:20Z</time>
      </trkpt>
      <trkpt lat="40.89526" lon="-8.2211">
        <ele>697.986</ele>
        <time>2019-10-18T15:39:40Z</time>
      </trkpt>
      <trkpt lat="40.89534" lon="-8.22114">
        <ele>698.051</ele>
        <time>2019-10-18T15:40:00Z</time>
      </trkpt>
      <trkpt lat="40.89543" lon="-8.22125">
        <ele>700.001</ele>
        <time>2019-10-18T15:40:20Z</time>
      </trkpt>
      <trkpt lat="40.89569" lon="-8.22192">
        <ele>706.711</ele>
        <time>2019-10-18T15:40:40Z</time>
      </trkpt>
      <trkpt lat="40.89594" lon="-8.22254">
        <ele>703.508</ele>
        <time>2019-10-18T15:41:00Z</time>
      </trkpt>
      <trkpt lat="40.89618" lon="-8.22258">
        <ele>700.499</ele>
        <time>2019-10-18T15:41:20Z</time>
      </trkpt>
      <trkpt lat="40.8963" lon="-8.22255">
        <ele>698.687</ele>
        <time>2019-10-18T15:41:40Z</time>
      </trkpt>
      <trkpt lat="40.89638" lon="-8.22252">
        <ele>697.329</ele>
        <time>2019-10-18T15:42:00Z</time>
      </trkpt>
      <trkpt lat="40.8965" lon="-8.22247">
        <ele>694.579</ele>
        <time>2019-10-18T15:42:20Z</time>
      </trkpt>
      <trkpt lat="40.89667" lon="-8.22238">
        <ele>690.151</ele>
        <time>2019-10-18T15:42:40Z</time>
      </trkpt>
      <trkpt lat="40.89673" lon="-8.22234">
        <ele>688.412</ele>
        <time>2019-10-18T15:43:00Z</time>
      </trkpt>
      <trkpt lat="40.89693" lon="-8.22234">
        <ele>683.714</ele>
        <time>2019-10-18T15:43:20Z</time>
      </trkpt>
      <trkpt lat="40.89699" lon="-8.2224">
        <ele>683.194</ele>
        <time>2019-10-18T15:43:40Z</time>
      </trkpt>
      <trkpt lat="40.89707" lon="-8.22253">
        <ele>682.667</ele>
        <time>2019-10-18T15:44:00Z</time>
      </trkpt>
      <trkpt lat="40.89718" lon="-8.22277">
        <ele>681.581</ele>
        <time>2019-10-18T15:44:20Z</time>
      </trkpt>
      <trkpt lat="40.89727" lon="-8.22295">
        <ele>678.419</ele>
        <time>2019-10-18T15:44:40Z</time>
      </trkpt>
      <trkpt lat="40.89739" lon="-8.22313">
        <ele>675.808</ele>
        <time>2019-10-18T15:45:00Z</time>
      </trkpt>
      <trkpt lat="40.89753" lon="-8.22325">
        <ele>673.58</ele>
        <time>2019-10-18T15:45:20Z</time>
      </trkpt>
      <trkpt lat="40.89774" lon="-8.22324">
        <ele>672.228</ele>
        <time>2019-10-18T15:45:40Z</time>
      </trkpt>
      <trkpt lat="40.89791" lon="-8.22319">
        <ele>669.27</ele>
        <time>2019-10-18T15:46:00Z</time>
      </trkpt>
      <trkpt lat="40.89803" lon="-8.22321">
        <ele>667.05</ele>
        <time>2019-10-18T15:46:20Z</time>
      </trkpt>
      <trkpt lat="40.89812" lon="-8.22327">
        <ele>664.662</ele>
        <time>2019-10-18T15:46:40Z</time>
      </trkpt>
      <trkpt lat="40.89826" lon="-8.2235">
        <ele>660.263</ele>
        <time>2019-10-18T15:47:00Z</time>
      </trkpt>
      <trkpt lat="40.8983" lon="-8.22361">
        <ele>659.295</ele>
        <time>2019-10-18T15:47:20Z</time>
      </trkpt>
      <trkpt lat="40.89844" lon="-8.22384">
        <ele>658.395</ele>
        <time>2019-10-18T15:47:40Z</time>
      </trkpt>
      <trkpt lat="40.89856" lon="-8.22392">
        <ele>657.264</ele>
        <time>2019-10-18T15:48:00Z</time>
      </trkpt>
      <trkpt lat="40.89867" lon="-8.22391">
        <ele>655.206</ele>
        <time>2019-10-18T15:48:20Z</time>
      </trkpt>
      <trkpt lat="40.89878" lon="-8.22386">
        <ele>652.616</ele>
        <time>2019-10-18T15:48:40Z</time>
      </trkpt>
      <trkpt lat="40.89894" lon="-8.2237">
        <ele>648.208</ele>
        <time>2019-10-18T15:49:00Z</time>
      </trkpt>
      <trkpt lat="40.89907" lon="-8.22359">
        <ele>645.12</ele>
        <time>2019-10-18T15:49:20Z</time>
      </trkpt>
      <trkpt lat="40.89912" lon="-8.22356">
        <ele>644.298</ele>
        <time>2019-10-18T15:49:40Z</time>
      </trkpt>
      <trkpt lat="40.89926" lon="-8.22348">
        <ele>641.23</ele>
        <time>2019-10-18T15:50:00Z</time>
      </trkpt>
      <trkpt lat="40.89945" lon="-8.22323">
        <ele>637.34</ele>
        <time>2019-10-18T15:50:20Z</time>
      </trkpt>
      <trkpt lat="40.89951" lon="-8.2231">
        <ele>636.922</ele>
        <time>2019-10-18T15:50:40Z</time>
      </trkpt>
      <trkpt lat="40.89968" lon="-8.22282">
        <ele>635.493</ele>
        <time>2019-10-18T15:51:00Z</time>
      </trkpt>
      <trkpt lat="40.89983" lon="-8.22259">
        <ele>634.975</ele>
        <time>2019-10-18T15:51:20Z</time>
      </trkpt>
      <trkpt lat="40.89998" lon="-8.22236">
        <ele>633.615</ele>
        <time>2019-10-18T15:51:40Z</time>
      </trkpt>
      <trkpt lat="40.90013" lon="-8.22211">
        <ele>630.927</ele>
        <time>2019-10-18T15:52:00Z</time>
      </trkpt>
      <trkpt lat="40.90024" lon="-8.22192">
        <ele>627.968</ele>
        <time>2019-10-18T15:52:20Z</time>
      </trkpt>
      <trkpt lat="40.90033" lon="-8.22175">
        <ele>624.214</ele>
        <time>2019-10-18T15:52:40Z</time>
      </trkpt>
      <trkpt lat="40.90043" lon="-8.22142">
        <ele>618.708</ele>
        <time>2019-10-18T15:53:00Z</time>
      </trkpt>
      <trkpt lat="40.90046" lon="-8.22131">
        <ele>617.416</ele>
        <time>2019-10-18T15:53:20Z</time>
      </trkpt>
      <trkpt lat="40.90068" lon="-8.22106">
        <ele>612.464</ele>
        <time>2019-10-18T15:53:40Z</time>
      </trkpt>
      <trkpt lat="40.9008" lon="-8.22099">
        <ele>610.156</ele>
        <time>2019-10-18T15:54:00Z</time>
      </trkpt>
      <trkpt lat="40.90109" lon="-8.22093">
        <ele>605.686</ele>
        <time>2019-10-18T15:54:20Z</time>
      </trkpt>
      <trkpt lat="40.90132" lon="-8.22093">
        <ele>601.618</ele>
        <time>2019-10-18T15:54:40Z</time>
      </trkpt>
      <trkpt lat="40.90161" lon="-8.22077">
        <ele>600.089</ele>
        <time>2019-10-18T15:55:00Z</time>
      </trkpt>
      <trkpt lat="40.90173" lon="-8.22061">
        <ele>600.141</ele>
        <time>2019-10-18T15:55:20Z</time>
      </trkpt>
      <trkpt lat="40.90198" lon="-8.22009">
        <ele>593.971</ele>
        <time>2019-10-18T15:55:40Z</time>
      </trkpt>
      <trkpt lat="40.90223" lon="-8.21984">
        <ele>588.814</ele>
        <time>2019-10-18T15:56:00Z</time>
      </trkpt>
      <trkpt lat="40.90231" lon="-8.21981">
        <ele>586.954</ele>
        <time>2019-10-18T15:56:20Z</time>
      </trkpt>
      <trkpt lat="40.90263" lon="-8.21967">
        <ele>579.209</ele>
        <time>2019-10-18T15:56:40Z</time>
      </trkpt>
      <trkpt lat="40.90284" lon="-8.21952">
        <ele>574.708</ele>
        <time>2019-10-18T15:57:00Z</time>
      </trkpt>
      <trkpt lat="40.9029" lon="-8.21946">
        <ele>573.745</ele>
        <time>2019-10-18T15:57:20Z</time>
      </trkpt>
      <trkpt lat="40.90303" lon="-8.21927">
        <ele>572.783</ele>
        <time>2019-10-18T15:57:40Z</time>
      </trkpt>
      <trkpt lat="40.90309" lon="-8.21959">
        <ele>569.045</ele>
        <time>2019-10-18T15:58:00Z</time>
      </trkpt>
      <trkpt lat="40.90284" lon="-8.22039">
        <ele>573.695</ele>
        <time>2019-10-18T15:58:20Z</time>
      </trkpt>
      <trkpt lat="40.90263" lon="-8.2209">
        <ele>576.487</ele>
        <time>2019-10-18T15:58:40Z</time>
      </trkpt>
      <trkpt lat="40.90247" lon="-8.22141">
        <ele>571.348</ele>
        <time>2019-10-18T15:59:00Z</time>
      </trkpt>
      <trkpt lat="40.90194" lon="-8.22183">
        <ele>572.44</ele>
        <time>2019-10-18T15:59:20Z</time>
      </trkpt>
      <trkpt lat="40.90159" lon="-8.22399">
        <ele>540.77</ele>
        <time>2019-10-18T15:59:40Z</time>
      </trkpt>
      <trkpt lat="40.90112" lon="-8.22465">
        <ele>540.416</ele>
        <time>2019-10-18T16:00:00Z</time>
      </trkpt>
      <trkpt lat="40.90126" lon="-8.22528">
        <ele>520.676</ele>
        <time>2019-10-18T16:00:20Z</time>
      </trkpt>
      <trkpt lat="40.90117" lon="-8.22616">
        <ele>516.513</ele>
        <time>2019-10-18T16:00:40Z</time>
      </trkpt>
      <trkpt lat="40.90119" lon="-8.22681">
        <ele>511.508</ele>
        <time>2019-10-18T16:01:00Z</time>
      </trkpt>
      <trkpt lat="40.9006" lon="-8.22794">
        <ele>506.775</ele>
        <time>2019-10-18T16:01:20Z</time>
      </trkpt>
      <trkpt lat="40.90011" lon="-8.22879">
        <ele>503.363</ele>
        <time>2019-10-18T16:01:40Z</time>
      </trkpt>
      <trkpt lat="40.90078" lon="-8.23072">
        <ele>487.625</ele>
        <time>2019-10-18T16:02:00Z</time>
      </trkpt>
      <trkpt lat="40.90139" lon="-8.23065">
        <ele>480.795</ele>
        <time>2019-10-18T16:02:20Z</time>
      </trkpt>
      <trkpt lat="40.9025" lon="-8.22994">
        <ele>479.067</ele>
        <time>2019-10-18T16:02:40Z</time>
      </trkpt>
      <trkpt lat="40.90329" lon="-8.22959">
        <ele>479.478</ele>
        <time>2019-10-18T16:03:00Z</time>
      </trkpt>
      <trkpt lat="40.90414" lon="-8.23001">
        <ele>475.64</ele>
        <time>2019-10-18T16:03:20Z</time>
      </trkpt>
      <trkpt lat="40.90491" lon="-8.23041">
        <ele>469.79</ele>
        <time>2019-10-18T16:03:40Z</time>
      </trkpt>
      <trkpt lat="40.90574" lon="-8.23041">
        <ele>464.728</ele>
        <time>2019-10-18T16:04:00Z</time>
      </trkpt>
      <trkpt lat="40.90615" lon="-8.22961">
        <ele>456.989</ele>
        <time>2019-10-18T16:04:20Z</time>
      </trkpt>
      <trkpt lat="40.90732" lon="-8.22932">
        <ele>454.517</ele>
        <time>2019-10-18T16:04:40Z</time>
      </trkpt>
      <trkpt lat="40.90751" lon="-8.22899">
        <ele>452.708</ele>
        <time>2019-10-18T16:05:00Z</time>
      </trkpt>
      <trkpt lat="40.90768" lon="-8.22854">
        <ele>449.016</ele>
        <time>2019-10-18T16:05:20Z</time>
      </trkpt>
      <trkpt lat="40.90809" lon="-8.22836">
        <ele>449.674</ele>
        <time>2019-10-18T16:05:40Z</time>
      </trkpt>
      <trkpt lat="40.90872" lon="-8.22854">
        <ele>452.356</ele>
        <time>2019-10-18T16:06:00Z</time>
      </trkpt>
      <trkpt lat="40.90949" lon="-8.22943">
        <ele>462.246</ele>
        <time>2019-10-18T16:06:20Z</time>
      </trkpt>
      <trkpt lat="40.90983" lon="-8.22961">
        <ele>467.438</ele>
        <time>2019-10-18T16:06:40Z</time>
      </trkpt>
      <trkpt lat="40.91069" lon="-8.22961">
        <ele>468.679</ele>
        <time>2019-10-18T16:07:00Z</time>
      </trkpt>
      <trkpt lat="40.91145" lon="-8.22961">
        <ele>462.731</ele>
        <time>2019-10-18T16:07:20Z</time>
      </trkpt>
      <trkpt lat="40.91179" lon="-8.22983">
        <ele>457.781</ele>
        <time>2019-10-18T16:07:40Z</time>
      </trkpt>
      <trkpt lat="40.9117" lon="-8.23034">
        <ele>467.564</ele>
        <time>2019-10-18T16:08:00Z</time>
      </trkpt>
      <trkpt lat="40.91172" lon="-8.23081">
        <ele>466.106</ele>
        <time>2019-10-18T16:08:20Z</time>
      </trkpt>
      <trkpt lat="40.91186" lon="-8.23134">
        <ele>456.416</ele>
        <time>2019-10-18T16:08:40Z</time>
      </trkpt>
      <trkpt lat="40.91172" lon="-8.23225">
        <ele>462.708</ele>
        <time>2019-10-18T16:09:00Z</time>
      </trkpt>
      <trkpt lat="40.91199" lon="-8.23283">
        <ele>464.31</ele>
        <time>2019-10-18T16:09:20Z</time>
      </trkpt>
      <trkpt lat="40.91222" lon="-8.23341">
        <ele>460.868</ele>
        <time>2019-10-18T16:09:40Z</time>
      </trkpt>
      <trkpt lat="40.9124" lon="-8.23445">
        <ele>462.24</ele>
        <time>2019-10-18T16:10:00Z</time>
      </trkpt>
      <trkpt lat="40.91344" lon="-8.23532">
        <ele>464.93</ele>
        <time>2019-10-18T16:10:20Z</time>
      </trkpt>
      <trkpt lat="40.91405" lon="-8.23547">
        <ele>469.062</ele>
        <time>2019-10-18T16:10:40Z</time>
      </trkpt>
      <trkpt lat="40.91493" lon="-8.2354">
        <ele>465.683</ele>
        <time>2019-10-18T16:11:00Z</time>
      </trkpt>
      <trkpt lat="40.91599" lon="-8.23536">
        <ele>468.685</ele>
        <time>2019-10-18T16:11:20Z</time>
      </trkpt>
      <trkpt lat="40.91644" lon="-8.23525">
        <ele>466.035</ele>
        <time>2019-10-18T16:11:40Z</time>
      </trkpt>
      <trkpt lat="40.91723" lon="-8.23432">
        <ele>456.879</ele>
        <time>2019-10-18T16:12:00Z</time>
      </trkpt>
      <trkpt lat="40.9177" lon="-8.23403">
        <ele>456.405</ele>
        <time>2019-10-18T16:12:20Z</time>
      </trkpt>
      <trkpt lat="40.9181" lon="-8.23367">
        <ele>457.125</ele>
        <time>2019-10-18T16:12:40Z</time>
      </trkpt>
      <trkpt lat="40.91917" lon="-8.23298">
        <ele>463.808</ele>
        <time>2019-10-18T16:13:00Z</time>
      </trkpt>
      <trkpt lat="40.91939" lon="-8.23281">
        <ele>463.861</ele>
        <time>2019-10-18T16:13:20Z</time>
      </trkpt>
      <trkpt lat="40.91989" lon="-8.23256">
        <ele>468.389</ele>
        <time>2019-10-18T16:13:40Z</time>
      </trkpt>
      <trkpt lat="40.92011" lon="-8.23196">
        <ele>464.531</ele>
        <time>2019-10-18T16:14:00Z</time>
      </trkpt>
      <trkpt lat="40.92067" lon="-8.23165">
        <ele>467.541</ele>
        <time>2019-10-18T16:14:20Z</time>
      </trkpt>
      <trkpt lat="40.92088" lon="-8.23156">
        <ele>467.533</ele>
        <time>2019-10-18T16:14:40Z</time>
      </trkpt>
      <trkpt lat="40.92108" lon="-8.23174">
        <ele>471.434</ele>
        <time>2019-10-18T16:15:00Z</time>
      </trkpt>
      <trkpt lat="40.92126" lon="-8.2319">
        <ele>473.316</ele>
        <time>2019-10-18T16:15:20Z</time>
      </trkpt>
      <trkpt lat="40.92113" lon="-8.23216">
        <ele>473.866</ele>
        <time>2019-10-18T16:15:40Z</time>
      </trkpt>
      <trkpt lat="40.92108" lon="-8.23258">
        <ele>477.426</ele>
        <time>2019-10-18T16:16:00Z</time>
      </trkpt>
      <trkpt lat="40.92212" lon="-8.23169">
        <ele>481.347</ele>
        <time>2019-10-18T16:16:20Z</time>
      </trkpt>
      <trkpt lat="40.92239" lon="-8.23036">
        <ele>482.711</ele>
        <time>2019-10-18T16:16:40Z</time>
      </trkpt>
      <trkpt lat="40.92369" lon="-8.22843">
        <ele>495.308</ele>
        <time>2019-10-18T16:17:00Z</time>
      </trkpt>
      <trkpt lat="40.9239" lon="-8.22827">
        <ele>497.356</ele>
        <time>2019-10-18T16:17:20Z</time>
      </trkpt>
      <trkpt lat="40.9256" lon="-8.22799">
        <ele>496.834</ele>
        <time>2019-10-18T16:17:40Z</time>
      </trkpt>
      <trkpt lat="40.9262" lon="-8.2281">
        <ele>497.946</ele>
        <time>2019-10-18T16:18:00Z</time>
      </trkpt>
      <trkpt lat="40.92708" lon="-8.22754">
        <ele>498.056</ele>
        <time>2019-10-18T16:18:20Z</time>
      </trkpt>
      <trkpt lat="40.92751" lon="-8.22738">
        <ele>495.478</ele>
        <time>2019-10-18T16:18:40Z</time>
      </trkpt>
      <trkpt lat="40.92776" lon="-8.22743">
        <ele>498.889</ele>
        <time>2019-10-18T16:19:00Z</time>
      </trkpt>
      <trkpt lat="40.92802" lon="-8.22767">
        <ele>504.371</ele>
        <time>2019-10-18T16:19:20Z</time>
      </trkpt>
      <trkpt lat="40.9288" lon="-8.2287">
        <ele>511.371</ele>
        <time>2019-10-18T16:19:40Z</time>
      </trkpt>
      <trkpt lat="40.929" lon="-8.22921">
        <ele>510.535</ele>
        <time>2019-10-18T16:20:00Z</time>
      </trkpt>
      <trkpt lat="40.92943" lon="-8.22964">
        <ele>511.386</ele>
        <time>2019-10-18T16:20:20Z</time>
      </trkpt>
      <trkpt lat="40.92986" lon="-8.22986">
        <ele>513.914</ele>
        <time>2019-10-18T16:20:40Z</time>
      </trkpt>
      <trkpt lat="40.93018" lon="-8.22984">
        <ele>521.608</ele>
        <time>2019-10-18T16:21:00Z</time>
      </trkpt>
      <trkpt lat="40.93035" lon="-8.22991">
        <ele>524.927</ele>
        <time>2019-10-18T16:21:20Z</time>
      </trkpt>
      <trkpt lat="40.9308" lon="-8.23067">
        <ele>521.625</ele>
        <time>2019-10-18T16:21:40Z</time>
      </trkpt>
      <trkpt lat="40.93111" lon="-8.23068">
        <ele>527.487</ele>
        <time>2019-10-18T16:22:00Z</time>
      </trkpt>
      <trkpt lat="40.93142" lon="-8.23064">
        <ele>531.827</ele>
        <time>2019-10-18T16:22:20Z</time>
      </trkpt>
      <trkpt lat="40.93221" lon="-8.23077">
        <ele>538.479</ele>
        <time>2019-10-18T16:22:40Z</time>
      </trkpt>
      <trkpt lat="40.93232" lon="-8.23093">
        <ele>539.16</ele>
        <time>2019-10-18T16:23:00Z</time>
      </trkpt>
      <trkpt lat="40.93242" lon="-8.23122">
        <ele>538.392</ele>
        <time>2019-10-18T16:23:20Z</time>
      </trkpt>
      <trkpt lat="40.93255" lon="-8.23142">
        <ele>539.762</ele>
        <time>2019-10-18T16:23:40Z</time>
      </trkpt>
      <trkpt lat="40.93329" lon="-8.23177">
        <ele>547.466</ele>
        <time>2019-10-18T16:24:00Z</time>
      </trkpt>
      <trkpt lat="40.93365" lon="-8.23196">
        <ele>543.529</ele>
        <time>2019-10-18T16:24:20Z</time>
      </trkpt>
      <trkpt lat="40.93386" lon="-8.23177">
        <ele>544.221</ele>
        <time>2019-10-18T16:24:40Z</time>
      </trkpt>
      <trkpt lat="40.93384" lon="-8.23148">
        <ele>548.508</ele>
        <time>2019-10-18T16:25:00Z</time>
      </trkpt>
      <trkpt lat="40.93393" lon="-8.23127">
        <ele>549.73</ele>
        <time>2019-10-18T16:25:20Z</time>
      </trkpt>
      <trkpt lat="40.93428" lon="-8.23092">
        <ele>543.198</ele>
        <time>2019-10-18T16:25:40Z</time>
      </trkpt>
      <trkpt lat="40.93447" lon="-8.23051">
        <ele>546.34</ele>
        <time>2019-10-18T16:26:00Z</time>
      </trkpt>
      <trkpt lat="40.93489" lon="-8.23013">
        <ele>542.08</ele>
        <time>2019-10-18T16:26:20Z</time>
      </trkpt>
      <trkpt lat="40.93507" lon="-8.22938">
        <ele>548.352</ele>
        <time>2019-10-18T16:26:40Z</time>
      </trkpt>
      <trkpt lat="40.93533" lon="-8.22928">
        <ele>539.633</ele>
        <time>2019-10-18T16:27:00Z</time>
      </trkpt>
      <trkpt lat="40.93552" lon="-8.22872">
        <ele>542.525</ele>
        <time>2019-10-18T16:27:20Z</time>
      </trkpt>
      <trkpt lat="40.93559" lon="-8.22805">
        <ele>551.455</ele>
        <time>2019-10-18T16:27:40Z</time>
      </trkpt>
      <trkpt lat="40.93547" lon="-8.22745">
        <ele>564.531</ele>
        <time>2019-10-18T16:28:00Z</time>
      </trkpt>
      <trkpt lat="40.93557" lon="-8.22744">
        <ele>562.261</ele>
        <time>2019-10-18T16:28:20Z</time>
      </trkpt>
      <trkpt lat="40.93576" lon="-8.22745">
        <ele>557.007</ele>
        <time>2019-10-18T16:28:40Z</time>
      </trkpt>
      <trkpt lat="40.93586" lon="-8.22734">
        <ele>556.308</ele>
        <time>2019-10-18T16:29:00Z</time>
      </trkpt>
      <trkpt lat="40.9359" lon="-8.22653">
        <ele>568.857</ele>
        <time>2019-10-18T16:29:20Z</time>
      </trkpt>
      <trkpt lat="40.93574" lon="-8.22603">
        <ele>578.125</ele>
        <time>2019-10-18T16:29:40Z</time>
      </trkpt>
      <trkpt lat="40.93575" lon="-8.22585">
        <ele>580.587</ele>
        <time>2019-10-18T16:30:00Z</time>
      </trkpt>
      <trkpt lat="40.93587" lon="-8.22584">
        <ele>576.347</ele>
        <time>2019-10-18T16:30:20Z</time>
      </trkpt>
      <trkpt lat="40.93636" lon="-8.22591">
        <ele>568.669</ele>
        <time>2019-10-18T16:30:40Z</time>
      </trkpt>
      <trkpt lat="40.93669" lon="-8.22547">
        <ele>567.91</ele>
        <time>2019-10-18T16:31:00Z</time>
      </trkpt>
      <trkpt lat="40.9368" lon="-8.22517">
        <ele>566.622</ele>
        <time>2019-10-18T16:31:20Z</time>
      </trkpt>
      <trkpt lat="40.93681" lon="-8.22478">
        <ele>571.692</ele>
        <time>2019-10-18T16:31:40Z</time>
      </trkpt>
      <trkpt lat="40.93683" lon="-8.22466">
        <ele>573.127</ele>
        <time>2019-10-18T16:32:00Z</time>
      </trkpt>
      <trkpt lat="40.93694" lon="-8.22461">
        <ele>571.068</ele>
        <time>2019-10-18T16:32:20Z</time>
      </trkpt>
      <trkpt lat="40.93719" lon="-8.22475">
        <ele>563.914</ele>
        <time>2019-10-18T16:32:40Z</time>
      </trkpt>
      <trkpt lat="40.93726" lon="-8.22468">
        <ele>565.008</ele>
        <time>2019-10-18T16:33:00Z</time>
      </trkpt>
      <trkpt lat="40.93736" lon="-8.22454">
        <ele>569.486</ele>
        <time>2019-10-18T16:33:20Z</time>
      </trkpt>
      <trkpt lat="40.93744" lon="-8.22461">
        <ele>567.244</ele>
        <time>2019-10-18T16:33:40Z</time>
      </trkpt>
      <trkpt lat="40.93752" lon="-8.22467">
        <ele>565.166</ele>
        <time>2019-10-18T16:34:00Z</time>
      </trkpt>
      <trkpt lat="40.93766" lon="-8.22467">
        <ele>567.676</ele>
        <time>2019-10-18T16:34:20Z</time>
      </trkpt>
      <trkpt lat="40.93775" lon="-8.22474">
        <ele>567.138</ele>
        <time>2019-10-18T16:34:40Z</time>
      </trkpt>
      <trkpt lat="40.93773" lon="-8.22505">
        <ele>559.199</ele>
        <time>2019-10-18T16:35:00Z</time>
      </trkpt>
      <trkpt lat="40.93778" lon="-8.22533">
        <ele>554.111</ele>
        <time>2019-10-18T16:35:20Z</time>
      </trkpt>
      <trkpt lat="40.93792" lon="-8.22545">
        <ele>557.671</ele>
        <time>2019-10-18T16:35:40Z</time>
      </trkpt>
      <trkpt lat="40.93795" lon="-8.2256">
        <ele>556.199</ele>
        <time>2019-10-18T16:36:00Z</time>
      </trkpt>
      <trkpt lat="40.93816" lon="-8.22618">
        <ele>553.907</ele>
        <time>2019-10-18T16:36:20Z</time>
      </trkpt>
      <trkpt lat="40.93833" lon="-8.22629">
        <ele>558.427</ele>
        <time>2019-10-18T16:36:40Z</time>
      </trkpt>
      <trkpt lat="40.93829" lon="-8.22657">
        <ele>552.408</ele>
        <time>2019-10-18T16:37:00Z</time>
      </trkpt>
      <trkpt lat="40.93824" lon="-8.22687">
        <ele>550.383</ele>
        <time>2019-10-18T16:37:20Z</time>
      </trkpt>
      <trkpt lat="40.93802" lon="-8.22724">
        <ele>545.751</ele>
        <time>2019-10-18T16:37:40Z</time>
      </trkpt>
      <trkpt lat="40.93801" lon="-8.22745">
        <ele>543.883</ele>
        <time>2019-10-18T16:38:00Z</time>
      </trkpt>
      <trkpt lat="40.93806" lon="-8.22766">
        <ele>542.123</ele>
        <time>2019-10-18T16:38:20Z</time>
      </trkpt>
      <trkpt lat="40.93816" lon="-8.22767">
        <ele>545.035</ele>
        <time>2019-10-18T16:38:40Z</time>
      </trkpt>
      <trkpt lat="40.93845" lon="-8.22764">
        <ele>554.186</ele>
        <time>2019-10-18T16:39:00Z</time>
      </trkpt>
      <trkpt lat="40.93855" lon="-8.22776">
        <ele>555.378</ele>
        <time>2019-10-18T16:39:20Z</time>
      </trkpt>
      <trkpt lat="40.93852" lon="-8.22797">
        <ele>550.738</ele>
        <time>2019-10-18T16:39:40Z</time>
      </trkpt>
      <trkpt lat="40.93834" lon="-8.22825">
        <ele>540.634</ele>
        <time>2019-10-18T16:40:00Z</time>
      </trkpt>
      <trkpt lat="40.93827" lon="-8.22852">
        <ele>535.255</ele>
        <time>2019-10-18T16:40:20Z</time>
      </trkpt>
      <trkpt lat="40.93835" lon="-8.22924">
        <ele>537.21</ele>
        <time>2019-10-18T16:40:40Z</time>
      </trkpt>
      <trkpt lat="40.93838" lon="-8.22997">
        <ele>550.408</ele>
        <time>2019-10-18T16:41:00Z</time>
      </trkpt>
      <trkpt lat="40.93824" lon="-8.23011">
        <ele>550.047</ele>
        <time>2019-10-18T16:41:20Z</time>
      </trkpt>
      <trkpt lat="40.93805" lon="-8.23029">
        <ele>551.075</ele>
        <time>2019-10-18T16:41:40Z</time>
      </trkpt>
      <trkpt lat="40.9378" lon="-8.23046">
        <ele>547.357</ele>
        <time>2019-10-18T16:42:00Z</time>
      </trkpt>
      <trkpt lat="40.93762" lon="-8.23061">
        <ele>543.357</ele>
        <time>2019-10-18T16:42:20Z</time>
      </trkpt>
      <trkpt lat="40.93762" lon="-8.23084">
        <ele>544.329</ele>
        <time>2019-10-18T16:42:40Z</time>
      </trkpt>
      <trkpt lat="40.93766" lon="-8.231">
        <ele>546.04</ele>
        <time>2019-10-18T16:43:00Z</time>
      </trkpt>
      <trkpt lat="40.93789" lon="-8.23126">
        <ele>553.152</ele>
        <time>2019-10-18T16:43:20Z</time>
      </trkpt>
      <trkpt lat="40.93806" lon="-8.23132">
        <ele>556.852</ele>
        <time>2019-10-18T16:43:40Z</time>
      </trkpt>
      <trkpt lat="40.93819" lon="-8.23144">
        <ele>562.346</ele>
        <time>2019-10-18T16:44:00Z</time>
      </trkpt>
      <trkpt lat="40.93815" lon="-8.23161">
        <ele>563.088</ele>
        <time>2019-10-18T16:44:20Z</time>
      </trkpt>
      <trkpt lat="40.93789" lon="-8.23204">
        <ele>560.616</ele>
        <time>2019-10-18T16:44:40Z</time>
      </trkpt>
      <trkpt lat="40.93787" lon="-8.23231">
        <ele>561.408</ele>
        <time>2019-10-18T16:45:00Z</time>
      </trkpt>
      <trkpt lat="40.93807" lon="-8.2328">
        <ele>571.838</ele>
        <time>2019-10-18T16:45:20Z</time>
      </trkpt>
      <trkpt lat="40.93842" lon="-8.23341">
        <ele>582.526</ele>
        <time>2019-10-18T16:45:40Z</time>
      </trkpt>
      <trkpt lat="40.9386" lon="-8.23359">
        <ele>586.128</ele>
        <time>2019-10-18T16:46:00Z</time>
      </trkpt>
      <trkpt lat="40.93881" lon="-8.2337">
        <ele>588.458</ele>
        <time>2019-10-18T16:46:20Z</time>
      </trkpt>
      <trkpt lat="40.93899" lon="-8.2339">
        <ele>588.55</ele>
        <time>2019-10-18T16:46:40Z</time>
      </trkpt>
      <trkpt lat="40.93916" lon="-8.23402">
        <ele>592.491</ele>
        <time>2019-10-18T16:47:00Z</time>
      </trkpt>
      <trkpt lat="40.93915" lon="-8.2343">
        <ele>593.183</ele>
        <time>2019-10-18T16:47:20Z</time>
      </trkpt>
      <trkpt lat="40.93904" lon="-8.23447">
        <ele>592.723</ele>
        <time>2019-10-18T16:47:40Z</time>
      </trkpt>
      <trkpt lat="40.93883" lon="-8.23461">
        <ele>588.696</ele>
        <time>2019-10-18T16:48:00Z</time>
      </trkpt>
      <trkpt lat="40.93874" lon="-8.23477">
        <ele>586.931</ele>
        <time>2019-10-18T16:48:20Z</time>
      </trkpt>
      <trkpt lat="40.93877" lon="-8.23501">
        <ele>589.624</ele>
        <time>2019-10-18T16:48:40Z</time>
      </trkpt>
      <trkpt lat="40.93893" lon="-8.23542">
        <ele>596.208</ele>
        <time>2019-10-18T16:49:00Z</time>
      </trkpt>
      <trkpt lat="40.93911" lon="-8.23572">
        <ele>602.583</ele>
        <time>2019-10-18T16:49:20Z</time>
      </trkpt>
      <trkpt lat="40.9392" lon="-8.23612">
        <ele>606.141</ele>
        <time>2019-10-18T16:49:40Z</time>
      </trkpt>
      <trkpt lat="40.93923" lon="-8.23652">
        <ele>607.423</ele>
        <time>2019-10-18T16:50:00Z</time>
      </trkpt>
      <trkpt lat="40.93925" lon="-8.2367">
        <ele>608.093</ele>
        <time>2019-10-18T16:50:20Z</time>
      </trkpt>
      <trkpt lat="40.93955" lon="-8.23731">
        <ele>610.185</ele>
        <time>2019-10-18T16:50:40Z</time>
      </trkpt>
      <trkpt lat="40.93953" lon="-8.23708">
        <ele>611.826</ele>
        <time>2019-10-18T16:51:00Z</time>
      </trkpt>
      <trkpt lat="40.93955" lon="-8.23686">
        <ele>614.078</ele>
        <time>2019-10-18T16:51:20Z</time>
      </trkpt>
      <trkpt lat="40.93961" lon="-8.23678">
        <ele>616.018</ele>
        <time>2019-10-18T16:51:40Z</time>
      </trkpt>
      <trkpt lat="40.93969" lon="-8.23668">
        <ele>619.135</ele>
        <time>2019-10-18T16:52:00Z</time>
      </trkpt>
      <trkpt lat="40.93979" lon="-8.23659">
        <ele>621.286</ele>
        <time>2019-10-18T16:52:20Z</time>
      </trkpt>
      <trkpt lat="40.93985" lon="-8.23651">
        <ele>622.514</ele>
        <time>2019-10-18T16:52:40Z</time>
      </trkpt>
      <trkpt lat="40.93995" lon="-8.23642">
        <ele>624.808</ele>
        <time>2019-10-18T16:53:00Z</time>
      </trkpt>
      <trkpt lat="40.94005" lon="-8.23633">
        <ele>627.267</ele>
        <time>2019-10-18T16:53:20Z</time>
      </trkpt>
      <trkpt lat="40.94014" lon="-8.23625">
        <ele>629.385</ele>
        <time>2019-10-18T16:53:40Z</time>
      </trkpt>
      <trkpt lat="40.94021" lon="-8.23618">
        <ele>631.187</ele>
        <time>2019-10-18T16:54:00Z</time>
      </trkpt>
      <trkpt lat="40.9403" lon="-8.23609">
        <ele>633.787</ele>
        <time>2019-10-18T16:54:20Z</time>
      </trkpt>
      <trkpt lat="40.94039" lon="-8.23598">
        <ele>637.359</ele>
        <time>2019-10-18T16:54:40Z</time>
      </trkpt>
      <trkpt lat="40.94049" lon="-8.23585">
        <ele>640.83</ele>
        <time>2019-10-18T16:55:00Z</time>
      </trkpt>
      <trkpt lat="40.94056" lon="-8.23574">
        <ele>643.252</ele>
        <time>2019-10-18T16:55:20Z</time>
      </trkpt>
      <trkpt lat="40.94064" lon="-8.23564">
        <ele>645.682</ele>
        <time>2019-10-18T16:55:40Z</time>
      </trkpt>
      <trkpt lat="40.94072" lon="-8.23556">
        <ele>647.921</ele>
        <time>2019-10-18T16:56:00Z</time>
      </trkpt>
      <trkpt lat="40.9408" lon="-8.23547">
        <ele>649.441</ele>
        <time>2019-10-18T16:56:20Z</time>
      </trkpt>
      <trkpt lat="40.94088" lon="-8.23537">
        <ele>650.405</ele>
        <time>2019-10-18T16:56:40Z</time>
      </trkpt>
      <trkpt lat="40.94099" lon="-8.2353">
        <ele>651.608</ele>
        <time>2019-10-18T16:57:00Z</time>
      </trkpt>
      <trkpt lat="40.94111" lon="-8.23523">
        <ele>653.186</ele>
        <time>2019-10-18T16:57:20Z</time>
      </trkpt>
      <trkpt lat="40.94122" lon="-8.23509">
        <ele>654.674</ele>
        <time>2019-10-18T16:57:40Z</time>
      </trkpt>
      <trkpt lat="40.94131" lon="-8.23502">
        <ele>656.026</ele>
        <time>2019-10-18T16:58:00Z</time>
      </trkpt>
      <trkpt lat="40.94143" lon="-8.23474">
        <ele>656.896</ele>
        <time>2019-10-18T16:58:20Z</time>
      </trkpt>
      <trkpt lat="40.94147" lon="-8.23442">
        <ele>656.068</ele>
        <time>2019-10-18T16:58:40Z</time>
      </trkpt>
      <trkpt lat="40.94154" lon="-8.23427">
        <ele>656.339</ele>
        <time>2019-10-18T16:59:00Z</time>
      </trkpt>
      <trkpt lat="40.94176" lon="-8.23394">
        <ele>658.731</ele>
        <time>2019-10-18T16:59:20Z</time>
      </trkpt>
      <trkpt lat="40.94184" lon="-8.23367">
        <ele>661.321</ele>
        <time>2019-10-18T16:59:40Z</time>
      </trkpt>
      <trkpt lat="40.94192" lon="-8.23335">
        <ele>663.957</ele>
        <time>2019-10-18T17:00:00Z</time>
      </trkpt>
      <trkpt lat="40.94193" lon="-8.23305">
        <ele>666</ele>
        <time>2019-10-18T17:00:20Z</time>
      </trkpt>
      <trkpt lat="40.94191" lon="-8.23278">
        <ele>667.92</ele>
        <time>2019-10-18T17:00:40Z</time>
      </trkpt>
      <trkpt lat="40.94194" lon="-8.23248">
        <ele>668.208</ele>
        <time>2019-10-18T17:01:00Z</time>
      </trkpt>
      <trkpt lat="40.94207" lon="-8.23223">
        <ele>669.529</ele>
        <time>2019-10-18T17:01:20Z</time>
      </trkpt>
      <trkpt lat="40.94218" lon="-8.2321">
        <ele>670.837</ele>
        <time>2019-10-18T17:01:40Z</time>
      </trkpt>
      <trkpt lat="40.94233" lon="-8.23193">
        <ele>673.519</ele>
        <time>2019-10-18T17:02:00Z</time>
      </trkpt>
      <trkpt lat="40.94246" lon="-8.23177">
        <ele>675.779</ele>
        <time>2019-10-18T17:02:20Z</time>
      </trkpt>
      <trkpt lat="40.94251" lon="-8.2317">
        <ele>676.791</ele>
        <time>2019-10-18T17:02:40Z</time>
      </trkpt>
      <trkpt lat="40.94261" lon="-8.23158">
        <ele>678.232</ele>
        <time>2019-10-18T17:03:00Z</time>
      </trkpt>
      <trkpt lat="40.94271" lon="-8.23139">
        <ele>680.584</ele>
        <time>2019-10-18T17:03:20Z</time>
      </trkpt>
      <trkpt lat="40.94276" lon="-8.2313">
        <ele>681.854</ele>
        <time>2019-10-18T17:03:40Z</time>
      </trkpt>
      <trkpt lat="40.94285" lon="-8.23129">
        <ele>682.666</ele>
        <time>2019-10-18T17:04:00Z</time>
      </trkpt>
      <trkpt lat="40.94305" lon="-8.23136">
        <ele>682.529</ele>
        <time>2019-10-18T17:04:20Z</time>
      </trkpt>
      <trkpt lat="40.94334" lon="-8.23133">
        <ele>682.721</ele>
        <time>2019-10-18T17:04:40Z</time>
      </trkpt>
      <trkpt lat="40.94363" lon="-8.23119">
        <ele>679.708</ele>
        <time>2019-10-18T17:05:00Z</time>
      </trkpt>
      <trkpt lat="40.94401" lon="-8.2311">
        <ele>675.03</ele>
        <time>2019-10-18T17:05:20Z</time>
      </trkpt>
      <trkpt lat="40.94416" lon="-8.23105">
        <ele>673.038</ele>
        <time>2019-10-18T17:05:40Z</time>
      </trkpt>
      <trkpt lat="40.94431" lon="-8.23101">
        <ele>670.22</ele>
        <time>2019-10-18T17:06:00Z</time>
      </trkpt>
      <trkpt lat="40.9444" lon="-8.23098">
        <ele>668.65</ele>
        <time>2019-10-18T17:06:20Z</time>
      </trkpt>
      <trkpt lat="40.94445" lon="-8.23095">
        <ele>667.622</ele>
        <time>2019-10-18T17:06:40Z</time>
      </trkpt>
      <trkpt lat="40.94453" lon="-8.23091">
        <ele>665.463</ele>
        <time>2019-10-18T17:07:00Z</time>
      </trkpt>
      <trkpt lat="40.94467" lon="-8.23082">
        <ele>661.865</ele>
        <time>2019-10-18T17:07:20Z</time>
      </trkpt>
      <trkpt lat="40.94481" lon="-8.23072">
        <ele>658.495</ele>
        <time>2019-10-18T17:07:40Z</time>
      </trkpt>
      <trkpt lat="40.94492" lon="-8.23058">
        <ele>655.983</ele>
        <time>2019-10-18T17:08:00Z</time>
      </trkpt>
      <trkpt lat="40.94509" lon="-8.23042">
        <ele>651.925</ele>
        <time>2019-10-18T17:08:20Z</time>
      </trkpt>
      <trkpt lat="40.94525" lon="-8.2302">
        <ele>648.417</ele>
        <time>2019-10-18T17:08:40Z</time>
      </trkpt>
      <trkpt lat="40.9453" lon="-8.23015">
        <ele>646.908</ele>
        <time>2019-10-18T17:09:00Z</time>
      </trkpt>
      <trkpt lat="40.94544" lon="-8.22996">
        <ele>643.822</ele>
        <time>2019-10-18T17:09:20Z</time>
      </trkpt>
      <trkpt lat="40.94563" lon="-8.22974">
        <ele>638.52</ele>
        <time>2019-10-18T17:09:40Z</time>
      </trkpt>
      <trkpt lat="40.94567" lon="-8.22968">
        <ele>637.642</ele>
        <time>2019-10-18T17:10:00Z</time>
      </trkpt>
      <trkpt lat="40.94578" lon="-8.22954">
        <ele>635.512</ele>
        <time>2019-10-18T17:10:20Z</time>
      </trkpt>
      <trkpt lat="40.94592" lon="-8.22937">
        <ele>633.684</ele>
        <time>2019-10-18T17:10:40Z</time>
      </trkpt>
      <trkpt lat="40.94613" lon="-8.22914">
        <ele>631.735</ele>
        <time>2019-10-18T17:11:00Z</time>
      </trkpt>
      <trkpt lat="40.94631" lon="-8.22893">
        <ele>628.357</ele>
        <time>2019-10-18T17:11:20Z</time>
      </trkpt>
      <trkpt lat="40.9465" lon="-8.22879">
        <ele>624.497</ele>
        <time>2019-10-18T17:11:40Z</time>
      </trkpt>
      <trkpt lat="40.94674" lon="-8.22902">
        <ele>621.014</ele>
        <time>2019-10-18T17:12:00Z</time>
      </trkpt>
      <trkpt lat="40.94715" lon="-8.2296">
        <ele>614.754</ele>
        <time>2019-10-18T17:12:20Z</time>
      </trkpt>
      <trkpt lat="40.94737" lon="-8.22995">
        <ele>613.609</ele>
        <time>2019-10-18T17:12:40Z</time>
      </trkpt>
      <trkpt lat="40.94755" lon="-8.23038">
        <ele>615.708</ele>
        <time>2019-10-18T17:13:00Z</time>
      </trkpt>
      <trkpt lat="40.94778" lon="-8.23077">
        <ele>618.075</ele>
        <time>2019-10-18T17:13:20Z</time>
      </trkpt>
      <trkpt lat="40.94789" lon="-8.23092">
        <ele>617.863</ele>
        <time>2019-10-18T17:13:40Z</time>
      </trkpt>
      <trkpt lat="40.94816" lon="-8.23123">
        <ele>617.185</ele>
        <time>2019-10-18T17:14:00Z</time>
      </trkpt>
      <trkpt lat="40.94841" lon="-8.23155">
        <ele>617.945</ele>
        <time>2019-10-18T17:14:20Z</time>
      </trkpt>
      <trkpt lat="40.94864" lon="-8.2317">
        <ele>616.897</ele>
        <time>2019-10-18T17:14:40Z</time>
      </trkpt>
      <trkpt lat="40.94908" lon="-8.23197">
        <ele>614.598</ele>
        <time>2019-10-18T17:15:00Z</time>
      </trkpt>
      <trkpt lat="40.94926" lon="-8.23206">
        <ele>614.88</ele>
        <time>2019-10-18T17:15:20Z</time>
      </trkpt>
      <trkpt lat="40.94988" lon="-8.23242">
        <ele>609.36</ele>
        <time>2019-10-18T17:15:40Z</time>
      </trkpt>
      <trkpt lat="40.95011" lon="-8.23238">
        <ele>606.166</ele>
        <time>2019-10-18T17:16:00Z</time>
      </trkpt>
      <trkpt lat="40.9503" lon="-8.23236">
        <ele>604.429</ele>
        <time>2019-10-18T17:16:20Z</time>
      </trkpt>
      <trkpt lat="40.95051" lon="-8.23241">
        <ele>603.321</ele>
        <time>2019-10-18T17:16:40Z</time>
      </trkpt>
      <trkpt lat="40.95069" lon="-8.23243">
        <ele>601.208</ele>
        <time>2019-10-18T17:17:00Z</time>
      </trkpt>
      <trkpt lat="40.95107" lon="-8.23246">
        <ele>598.21</ele>
        <time>2019-10-18T17:17:20Z</time>
      </trkpt>
      <trkpt lat="40.95137" lon="-8.23247">
        <ele>596.898</ele>
        <time>2019-10-18T17:17:40Z</time>
      </trkpt>
      <trkpt lat="40.95187" lon="-8.23248">
        <ele>595.11</ele>
        <time>2019-10-18T17:18:00Z</time>
      </trkpt>
      <trkpt lat="40.95198" lon="-8.23253">
        <ele>595.26</ele>
        <time>2019-10-18T17:18:20Z</time>
      </trkpt>
      <trkpt lat="40.95226" lon="-8.23269">
        <ele>595.942</ele>
        <time>2019-10-18T17:18:40Z</time>
      </trkpt>
      <trkpt lat="40.95254" lon="-8.23289">
        <ele>597.983</ele>
        <time>2019-10-18T17:19:00Z</time>
      </trkpt>
      <trkpt lat="40.95266" lon="-8.23295">
        <ele>598.695</ele>
        <time>2019-10-18T17:19:20Z</time>
      </trkpt>
      <trkpt lat="40.95286" lon="-8.23284">
        <ele>600.055</ele>
        <time>2019-10-18T17:19:40Z</time>
      </trkpt>
      <trkpt lat="40.95301" lon="-8.23265">
        <ele>601.246</ele>
        <time>2019-10-18T17:20:00Z</time>
      </trkpt>
      <trkpt lat="40.95335" lon="-8.23251">
        <ele>601.988</ele>
        <time>2019-10-18T17:20:20Z</time>
      </trkpt>
      <trkpt lat="40.95379" lon="-8.23233">
        <ele>601.916</ele>
        <time>2019-10-18T17:20:40Z</time>
      </trkpt>
      <trkpt lat="40.95387" lon="-8.23222">
        <ele>602.008</ele>
        <time>2019-10-18T17:21:00Z</time>
      </trkpt>
      <trkpt lat="40.95398" lon="-8.23196">
        <ele>602.358</ele>
        <time>2019-10-18T17:21:20Z</time>
      </trkpt>
      <trkpt lat="40.95403" lon="-8.232">
        <ele>602.696</ele>
        <time>2019-10-18T17:21:40Z</time>
      </trkpt>
      <trkpt lat="40.95386" lon="-8.23259">
        <ele>601.228</ele>
        <time>2019-10-18T17:22:00Z</time>
      </trkpt>
      <trkpt lat="40.95394" lon="-8.23264">
        <ele>601.618</ele>
        <time>2019-10-18T17:22:20Z</time>
      </trkpt>
      <trkpt lat="40.954" lon="-8.23261">
        <ele>602.51</ele>
        <time>2019-10-18T17:22:40Z</time>
      </trkpt>
      <trkpt lat="40.95407" lon="-8.23253">
        <ele>603.891</ele>
        <time>2019-10-18T17:23:00Z</time>
      </trkpt>
      <trkpt lat="40.95416" lon="-8.23251">
        <ele>604.963</ele>
        <time>2019-10-18T17:23:20Z</time>
      </trkpt>
      <trkpt lat="40.95421" lon="-8.23247">
        <ele>605.453</ele>
        <time>2019-10-18T17:23:40Z</time>
      </trkpt>
      <trkpt lat="40.95429" lon="-8.2325">
        <ele>606.892</ele>
        <time>2019-10-18T17:24:00Z</time>
      </trkpt>
      <trkpt lat="40.95436" lon="-8.2325">
        <ele>607.773</ele>
        <time>2019-10-18T17:24:20Z</time>
      </trkpt>
      <trkpt lat="40.95442" lon="-8.23252">
        <ele>608.82</ele>
        <time>2019-10-18T17:24:40Z</time>
      </trkpt>
      <trkpt lat="40.95447" lon="-8.23257">
        <ele>609.708</ele>
        <time>2019-10-18T17:25:00Z</time>
      </trkpt>
      <trkpt lat="40.9546" lon="-8.23275">
        <ele>613.173</ele>
        <time>2019-10-18T17:25:20Z</time>
      </trkpt>
      <trkpt lat="40.95474" lon="-8.2329">
        <ele>615.611</ele>
        <time>2019-10-18T17:25:40Z</time>
      </trkpt>
      <trkpt lat="40.95479" lon="-8.23297">
        <ele>616.473</ele>
        <time>2019-10-18T17:26:00Z</time>
      </trkpt>
      <trkpt lat="40.95488" lon="-8.23302">
        <ele>618.533</ele>
        <time>2019-10-18T17:26:20Z</time>
      </trkpt>
      <trkpt lat="40.95492" lon="-8.23307">
        <ele>619.755</ele>
        <time>2019-10-18T17:26:40Z</time>
      </trkpt>
      <trkpt lat="40.95511" lon="-8.23308">
        <ele>624.286</ele>
        <time>2019-10-18T17:27:00Z</time>
      </trkpt>
      <trkpt lat="40.95529" lon="-8.23309">
        <ele>627.718</ele>
        <time>2019-10-18T17:27:20Z</time>
      </trkpt>
      <trkpt lat="40.95541" lon="-8.23318">
        <ele>627.638</ele>
        <time>2019-10-18T17:27:40Z</time>
      </trkpt>
      <trkpt lat="40.95547" lon="-8.23317">
        <ele>628.149</ele>
        <time>2019-10-18T17:28:00Z</time>
      </trkpt>
      <trkpt lat="40.95568" lon="-8.23324">
        <ele>628.202</ele>
        <time>2019-10-18T17:28:20Z</time>
      </trkpt>
      <trkpt lat="40.95593" lon="-8.23328">
        <ele>628.822</ele>
        <time>2019-10-18T17:28:40Z</time>
      </trkpt>
      <trkpt lat="40.95613" lon="-8.23333">
        <ele>630.308</ele>
        <time>2019-10-18T17:29:00Z</time>
      </trkpt>
      <trkpt lat="40.95626" lon="-8.23336">
        <ele>631.628</ele>
        <time>2019-10-18T17:29:20Z</time>
      </trkpt>
      <trkpt lat="40.95631" lon="-8.23334">
        <ele>632.746</ele>
        <time>2019-10-18T17:29:40Z</time>
      </trkpt>
      <trkpt lat="40.95639" lon="-8.23336">
        <ele>633.488</ele>
        <time>2019-10-18T17:30:00Z</time>
      </trkpt>
      <trkpt lat="40.95661" lon="-8.23341">
        <ele>632.038</ele>
        <time>2019-10-18T17:30:20Z</time>
      </trkpt>
      <trkpt lat="40.95666" lon="-8.23343">
        <ele>631.36</ele>
        <time>2019-10-18T17:30:40Z</time>
      </trkpt>
      <trkpt lat="40.95687" lon="-8.23339">
        <ele>632.211</ele>
        <time>2019-10-18T17:31:00Z</time>
      </trkpt>
      <trkpt lat="40.95694" lon="-8.23334">
        <ele>633.933</ele>
        <time>2019-10-18T17:31:20Z</time>
      </trkpt>
      <trkpt lat="40.95698" lon="-8.23323">
        <ele>636.553</ele>
        <time>2019-10-18T17:31:40Z</time>
      </trkpt>
      <trkpt lat="40.95709" lon="-8.2329">
        <ele>643.675</ele>
        <time>2019-10-18T17:32:00Z</time>
      </trkpt>
      <trkpt lat="40.95726" lon="-8.23299">
        <ele>642.528</ele>
        <time>2019-10-18T17:32:20Z</time>
      </trkpt>
      <trkpt lat="40.9574" lon="-8.23327">
        <ele>639.92</ele>
        <time>2019-10-18T17:32:40Z</time>
      </trkpt>
      <trkpt lat="40.95752" lon="-8.23351">
        <ele>641.008</ele>
        <time>2019-10-18T17:33:00Z</time>
      </trkpt>
      <trkpt lat="40.9576" lon="-8.23372">
        <ele>643.431</ele>
        <time>2019-10-18T17:33:20Z</time>
      </trkpt>
      <trkpt lat="40.95768" lon="-8.23396">
        <ele>645.659</ele>
        <time>2019-10-18T17:33:40Z</time>
      </trkpt>
      <trkpt lat="40.95778" lon="-8.23418">
        <ele>649.951</ele>
        <time>2019-10-18T17:34:00Z</time>
      </trkpt>
      <trkpt lat="40.95791" lon="-8.23432">
        <ele>652.831</ele>
        <time>2019-10-18T17:34:20Z</time>
      </trkpt>
      <trkpt lat="40.95812" lon="-8.23434">
        <ele>659.633</ele>
        <time>2019-10-18T17:34:40Z</time>
      </trkpt>
      <trkpt lat="40.95829" lon="-8.2344">
        <ele>664.124</ele>
        <time>2019-10-18T17:35:00Z</time>
      </trkpt>
      <trkpt lat="40.95834" lon="-8.23444">
        <ele>665.296</ele>
        <time>2019-10-18T17:35:20Z</time>
      </trkpt>
      <trkpt lat="40.95849" lon="-8.23461">
        <ele>667.056</ele>
        <time>2019-10-18T17:35:40Z</time>
      </trkpt>
      <trkpt lat="40.95858" lon="-8.23478">
        <ele>667.463</ele>
        <time>2019-10-18T17:36:00Z</time>
      </trkpt>
      <trkpt lat="40.95868" lon="-8.23493">
        <ele>668.044</ele>
        <time>2019-10-18T17:36:20Z</time>
      </trkpt>
      <trkpt lat="40.95872" lon="-8.235">
        <ele>668.118</ele>
        <time>2019-10-18T17:36:40Z</time>
      </trkpt>
      <trkpt lat="40.95877" lon="-8.23507">
        <ele>667.708</ele>
        <time>2019-10-18T17:37:00Z</time>
      </trkpt>
      <trkpt lat="40.95894" lon="-8.23525">
        <ele>668.13</ele>
        <time>2019-10-18T17:37:20Z</time>
      </trkpt>
      <trkpt lat="40.95913" lon="-8.23539">
        <ele>669.558</ele>
        <time>2019-10-18T17:37:40Z</time>
      </trkpt>
      <trkpt lat="40.95927" lon="-8.23546">
        <ele>669.94</ele>
        <time>2019-10-18T17:38:00Z</time>
      </trkpt>
      <trkpt lat="40.95937" lon="-8.23549">
        <ele>670.45</ele>
        <time>2019-10-18T17:38:20Z</time>
      </trkpt>
      <trkpt lat="40.95963" lon="-8.2355">
        <ele>675.042</ele>
        <time>2019-10-18T17:38:40Z</time>
      </trkpt>
      <trkpt lat="40.95985" lon="-8.2355">
        <ele>679.513</ele>
        <time>2019-10-18T17:39:00Z</time>
      </trkpt>
      <trkpt lat="40.96007" lon="-8.23561">
        <ele>682.955</ele>
        <time>2019-10-18T17:39:20Z</time>
      </trkpt>
      <trkpt lat="40.96024" lon="-8.23585">
        <ele>683.815</ele>
        <time>2019-10-18T17:39:40Z</time>
      </trkpt>
      <trkpt lat="40.96039" lon="-8.23609">
        <ele>684.439</ele>
        <time>2019-10-18T17:40:00Z</time>
      </trkpt>
      <trkpt lat="40.96043" lon="-8.23618">
        <ele>684.101</ele>
        <time>2019-10-18T17:40:20Z</time>
      </trkpt>
      <trkpt lat="40.96047" lon="-8.23626">
        <ele>683.821</ele>
        <time>2019-10-18T17:40:40Z</time>
      </trkpt>
      <trkpt lat="40.9605" lon="-8.23637">
        <ele>683.308</ele>
        <time>2019-10-18T17:41:00Z</time>
      </trkpt>
      <trkpt lat="40.96052" lon="-8.23647">
        <ele>683.087</ele>
        <time>2019-10-18T17:41:20Z</time>
      </trkpt>
      <trkpt lat="40.96055" lon="-8.23661">
        <ele>683.255</ele>
        <time>2019-10-18T17:41:40Z</time>
      </trkpt>
      <trkpt lat="40.96072" lon="-8.23669">
        <ele>687.227</ele>
        <time>2019-10-18T17:42:00Z</time>
      </trkpt>
      <trkpt lat="40.96079" lon="-8.23671">
        <ele>689.097</ele>
        <time>2019-10-18T17:42:20Z</time>
      </trkpt>
      <trkpt lat="40.96086" lon="-8.23675">
        <ele>691.039</ele>
        <time>2019-10-18T17:42:40Z</time>
      </trkpt>
      <trkpt lat="40.96097" lon="-8.23679">
        <ele>694.68</ele>
        <time>2019-10-18T17:43:00Z</time>
      </trkpt>
      <trkpt lat="40.96101" lon="-8.23681">
        <ele>696.072</ele>
        <time>2019-10-18T17:43:20Z</time>
      </trkpt>
      <trkpt lat="40.96106" lon="-8.23684">
        <ele>697.412</ele>
        <time>2019-10-18T17:43:40Z</time>
      </trkpt>
      <trkpt lat="40.96127" lon="-8.23693">
        <ele>701.222</ele>
        <time>2019-10-18T17:44:00Z</time>
      </trkpt>
      <trkpt lat="40.96141" lon="-8.23697">
        <ele>703.162</ele>
        <time>2019-10-18T17:44:20Z</time>
      </trkpt>
      <trkpt lat="40.96168" lon="-8.23699">
        <ele>704.208</ele>
        <time>2019-10-18T17:44:40Z</time>
      </trkpt>
      <trkpt lat="40.96191" lon="-8.23695">
        <ele>704.908</ele>
        <time>2019-10-18T17:45:00Z</time>
      </trkpt>
      <trkpt lat="40.96196" lon="-8.23693">
        <ele>705.126</ele>
        <time>2019-10-18T17:45:20Z</time>
      </trkpt>
      <trkpt lat="40.96208" lon="-8.23703">
        <ele>705.264</ele>
        <time>2019-10-18T17:45:40Z</time>
      </trkpt>
      <trkpt lat="40.96228" lon="-8.23715">
        <ele>705.846</ele>
        <time>2019-10-18T17:46:00Z</time>
      </trkpt>
      <trkpt lat="40.96243" lon="-8.23739">
        <ele>707.446</ele>
        <time>2019-10-18T17:46:20Z</time>
      </trkpt>
      <trkpt lat="40.96244" lon="-8.23745">
        <ele>707.628</ele>
        <time>2019-10-18T17:46:40Z</time>
      </trkpt>
      <trkpt lat="40.96248" lon="-8.23754">
        <ele>707.779</ele>
        <time>2019-10-18T17:47:00Z</time>
      </trkpt>
      <trkpt lat="40.96254" lon="-8.23779">
        <ele>707.221</ele>
        <time>2019-10-18T17:47:20Z</time>
      </trkpt>
      <trkpt lat="40.96256" lon="-8.23789">
        <ele>707.281</ele>
        <time>2019-10-18T17:47:40Z</time>
      </trkpt>
      <trkpt lat="40.96258" lon="-8.2381">
        <ele>707.578</ele>
        <time>2019-10-18T17:48:00Z</time>
      </trkpt>
      <trkpt lat="40.96263" lon="-8.2384">
        <ele>709.533</ele>
        <time>2019-10-18T17:48:20Z</time>
      </trkpt>
      <trkpt lat="40.96267" lon="-8.23869">
        <ele>712.126</ele>
        <time>2019-10-18T17:48:40Z</time>
      </trkpt>
      <trkpt lat="40.96274" lon="-8.23894">
        <ele>713.708</ele>
        <time>2019-10-18T17:49:00Z</time>
      </trkpt>
      <trkpt lat="40.96277" lon="-8.23904">
        <ele>714.441</ele>
        <time>2019-10-18T17:49:20Z</time>
      </trkpt>
      <trkpt lat="40.96284" lon="-8.23922">
        <ele>715.319</ele>
        <time>2019-10-18T17:49:40Z</time>
      </trkpt>
      <trkpt lat="40.96299" lon="-8.23942">
        <ele>716.371</ele>
        <time>2019-10-18T17:50:00Z</time>
      </trkpt>
      <trkpt lat="40.96308" lon="-8.23944">
        <ele>717.221</ele>
        <time>2019-10-18T17:50:20Z</time>
      </trkpt>
      <trkpt lat="40.96321" lon="-8.23943">
        <ele>718.093</ele>
        <time>2019-10-18T17:50:40Z</time>
      </trkpt>
      <trkpt lat="40.96331" lon="-8.23944">
        <ele>718.834</ele>
        <time>2019-10-18T17:51:00Z</time>
      </trkpt>
      <trkpt lat="40.96352" lon="-8.23945">
        <ele>718.346</ele>
        <time>2019-10-18T17:51:20Z</time>
      </trkpt>
      <trkpt lat="40.96377" lon="-8.23947">
        <ele>717.436</ele>
        <time>2019-10-18T17:51:40Z</time>
      </trkpt>
      <trkpt lat="40.96386" lon="-8.23949">
        <ele>717.136</ele>
        <time>2019-10-18T17:52:00Z</time>
      </trkpt>
      <trkpt lat="40.96395" lon="-8.23951">
        <ele>716.317</ele>
        <time>2019-10-18T17:52:20Z</time>
      </trkpt>
      <trkpt lat="40.96411" lon="-8.2396">
        <ele>714.718</ele>
        <time>2019-10-18T17:52:40Z</time>
      </trkpt>
      <trkpt lat="40.96441" lon="-8.2397">
        <ele>711.408</ele>
        <time>2019-10-18T17:53:00Z</time>
      </trkpt>
      <trkpt lat="40.96454" lon="-8.23966">
        <ele>710.097</ele>
        <time>2019-10-18T17:53:20Z</time>
      </trkpt>
      <trkpt lat="40.96478" lon="-8.23962">
        <ele>707.575</ele>
        <time>2019-10-18T17:53:40Z</time>
      </trkpt>
      <trkpt lat="40.96494" lon="-8.2397">
        <ele>705.787</ele>
        <time>2019-10-18T17:54:00Z</time>
      </trkpt>
      <trkpt lat="40.96507" lon="-8.2398">
        <ele>703.947</ele>
        <time>2019-10-18T17:54:20Z</time>
      </trkpt>
      <trkpt lat="40.96526" lon="-8.23991">
        <ele>701.189</ele>
        <time>2019-10-18T17:54:40Z</time>
      </trkpt>
      <trkpt lat="40.96538" lon="-8.23997">
        <ele>699.16</ele>
        <time>2019-10-18T17:55:00Z</time>
      </trkpt>
      <trkpt lat="40.96552" lon="-8.24004">
        <ele>697.362</ele>
        <time>2019-10-18T17:55:20Z</time>
      </trkpt>
      <trkpt lat="40.96567" lon="-8.24013">
        <ele>694.162</ele>
        <time>2019-10-18T17:55:40Z</time>
      </trkpt>
      <trkpt lat="40.9658" lon="-8.24022">
        <ele>690.762</ele>
        <time>2019-10-18T17:56:00Z</time>
      </trkpt>
      <trkpt lat="40.96597" lon="-8.24036">
        <ele>686.883</ele>
        <time>2019-10-18T17:56:20Z</time>
      </trkpt>
      <trkpt lat="40.96618" lon="-8.24054">
        <ele>682.311</ele>
        <time>2019-10-18T17:56:40Z</time>
      </trkpt>
      <trkpt lat="40.96629" lon="-8.24072">
        <ele>678.808</ele>
        <time>2019-10-18T17:57:00Z</time>
      </trkpt>
      <trkpt lat="40.96641" lon="-8.24094">
        <ele>675.42</ele>
        <time>2019-10-18T17:57:20Z</time>
      </trkpt>
      <trkpt lat="40.96655" lon="-8.2412">
        <ele>669.928</ele>
        <time>2019-10-18T17:57:40Z</time>
      </trkpt>
      <trkpt lat="40.96665" lon="-8.24137">
        <ele>667.35</ele>
        <time>2019-10-18T17:58:00Z</time>
      </trkpt>
      <trkpt lat="40.96672" lon="-8.24151">
        <ele>666.17</ele>
        <time>2019-10-18T17:58:20Z</time>
      </trkpt>
      <trkpt lat="40.96677" lon="-8.24161">
        <ele>665.942</ele>
        <time>2019-10-18T17:58:40Z</time>
      </trkpt>
      <trkpt lat="40.96683" lon="-8.24171">
        <ele>666.073</ele>
        <time>2019-10-18T17:59:00Z</time>
      </trkpt>
      <trkpt lat="40.96713" lon="-8.24206">
        <ele>665.945</ele>
        <time>2019-10-18T17:59:20Z</time>
      </trkpt>
      <trkpt lat="40.96748" lon="-8.24255">
        <ele>660.455</ele>
        <time>2019-10-18T17:59:40Z</time>
      </trkpt>
      <trkpt lat="40.96776" lon="-8.24309">
        <ele>655.445</ele>
        <time>2019-10-18T18:00:00Z</time>
      </trkpt>
      <trkpt lat="40.96789" lon="-8.24328">
        <ele>652.247</ele>
        <time>2019-10-18T18:00:20Z</time>
      </trkpt>
      <trkpt lat="40.96804" lon="-8.24352">
        <ele>649.611</ele>
        <time>2019-10-18T18:00:40Z</time>
      </trkpt>
      <trkpt lat="40.96818" lon="-8.24364">
        <ele>647.808</ele>
        <time>2019-10-18T18:01:00Z</time>
      </trkpt>
      <trkpt lat="40.96831" lon="-8.24368">
        <ele>645.678</ele>
        <time>2019-10-18T18:01:20Z</time>
      </trkpt>
      <trkpt lat="40.96839" lon="-8.24371">
        <ele>644.226</ele>
        <time>2019-10-18T18:01:40Z</time>
      </trkpt>
      <trkpt lat="40.96847" lon="-8.24365">
        <ele>641.298</ele>
        <time>2019-10-18T18:02:00Z</time>
      </trkpt>
      <trkpt lat="40.96854" lon="-8.24359">
        <ele>638.658</ele>
        <time>2019-10-18T18:02:20Z</time>
      </trkpt>
      <trkpt lat="40.96861" lon="-8.24355">
        <ele>636.36</ele>
        <time>2019-10-18T18:02:40Z</time>
      </trkpt>
      <trkpt lat="40.96874" lon="-8.24347">
        <ele>631.551</ele>
        <time>2019-10-18T18:03:00Z</time>
      </trkpt>
      <trkpt lat="40.96879" lon="-8.24345">
        <ele>629.883</ele>
        <time>2019-10-18T18:03:20Z</time>
      </trkpt>
      <trkpt lat="40.96888" lon="-8.24344">
        <ele>627.443</ele>
        <time>2019-10-18T18:03:40Z</time>
      </trkpt>
      <trkpt lat="40.96907" lon="-8.24336">
        <ele>623.096</ele>
        <time>2019-10-18T18:04:00Z</time>
      </trkpt>
      <trkpt lat="40.96915" lon="-8.24326">
        <ele>620.531</ele>
        <time>2019-10-18T18:04:20Z</time>
      </trkpt>
      <trkpt lat="40.96966" lon="-8.24312">
        <ele>617.324</ele>
        <time>2019-10-18T18:04:40Z</time>
      </trkpt>
      <trkpt lat="40.97019" lon="-8.24338">
        <ele>616.108</ele>
        <time>2019-10-18T18:05:00Z</time>
      </trkpt>
      <trkpt lat="40.97059" lon="-8.24358">
        <ele>615.783</ele>
        <time>2019-10-18T18:05:20Z</time>
      </trkpt>
      <trkpt lat="40.9708" lon="-8.24367">
        <ele>614.981</ele>
        <time>2019-10-18T18:05:40Z</time>
      </trkpt>
      <trkpt lat="40.97117" lon="-8.24385">
        <ele>609.013</ele>
        <time>2019-10-18T18:06:00Z</time>
      </trkpt>
      <trkpt lat="40.97172" lon="-8.24408">
        <ele>603.543</ele>
        <time>2019-10-18T18:06:20Z</time>
      </trkpt>
      <trkpt lat="40.97199" lon="-8.24419">
        <ele>600.815</ele>
        <time>2019-10-18T18:06:40Z</time>
      </trkpt>
      <trkpt lat="40.97229" lon="-8.24418">
        <ele>597.436</ele>
        <time>2019-10-18T18:07:00Z</time>
      </trkpt>
      <trkpt lat="40.97273" lon="-8.24403">
        <ele>595.138</ele>
        <time>2019-10-18T18:07:20Z</time>
      </trkpt>
      <trkpt lat="40.9731" lon="-8.24381">
        <ele>595.198</ele>
        <time>2019-10-18T18:07:40Z</time>
      </trkpt>
      <trkpt lat="40.97329" lon="-8.24375">
        <ele>592.767</ele>
        <time>2019-10-18T18:08:00Z</time>
      </trkpt>
      <trkpt lat="40.97338" lon="-8.24376">
        <ele>592.281</ele>
        <time>2019-10-18T18:08:20Z</time>
      </trkpt>
      <trkpt lat="40.97349" lon="-8.24388">
        <ele>591.319</ele>
        <time>2019-10-18T18:08:40Z</time>
      </trkpt>
      <trkpt lat="40.97366" lon="-8.24445">
        <ele>583.808</ele>
        <time>2019-10-18T18:09:00Z</time>
      </trkpt>
      <trkpt lat="40.9738" lon="-8.24457">
        <ele>585.31</ele>
        <time>2019-10-18T18:09:20Z</time>
      </trkpt>
      <trkpt lat="40.97382" lon="-8.24469">
        <ele>584.468</ele>
        <time>2019-10-18T18:09:40Z</time>
      </trkpt>
      <trkpt lat="40.97373" lon="-8.24503">
        <ele>578.53</ele>
        <time>2019-10-18T18:10:00Z</time>
      </trkpt>
      <trkpt lat="40.97379" lon="-8.24558">
        <ele>572.64</ele>
        <time>2019-10-18T18:10:20Z</time>
      </trkpt>
      <trkpt lat="40.97387" lon="-8.24588">
        <ele>572.442</ele>
        <time>2019-10-18T18:10:40Z</time>
      </trkpt>
      <trkpt lat="40.97387" lon="-8.24596">
        <ele>572.123</ele>
        <time>2019-10-18T18:11:00Z</time>
      </trkpt>
      <trkpt lat="40.97374" lon="-8.24613">
        <ele>566.565</ele>
        <time>2019-10-18T18:11:20Z</time>
      </trkpt>
      <trkpt lat="40.97354" lon="-8.24708">
        <ele>554.365</ele>
        <time>2019-10-18T18:11:40Z</time>
      </trkpt>
      <trkpt lat="40.97356" lon="-8.24754">
        <ele>550.069</ele>
        <time>2019-10-18T18:12:00Z</time>
      </trkpt>
      <trkpt lat="40.97372" lon="-8.24787">
        <ele>547.004</ele>
        <time>2019-10-18T18:12:20Z</time>
      </trkpt>
      <trkpt lat="40.97443" lon="-8.24843">
        <ele>551.024</ele>
        <time>2019-10-18T18:12:40Z</time>
      </trkpt>
      <trkpt lat="40.97448" lon="-8.24877">
        <ele>550.808</ele>
        <time>2019-10-18T18:13:00Z</time>
      </trkpt>
      <trkpt lat="40.9742" lon="-8.24892">
        <ele>539.84</ele>
        <time>2019-10-18T18:13:20Z</time>
      </trkpt>
      <trkpt lat="40.97392" lon="-8.24909">
        <ele>532.668</ele>
        <time>2019-10-18T18:13:40Z</time>
      </trkpt>
      <trkpt lat="40.97351" lon="-8.24957">
        <ele>522.46</ele>
        <time>2019-10-18T18:14:00Z</time>
      </trkpt>
      <trkpt lat="40.97335" lon="-8.25009">
        <ele>513.45</ele>
        <time>2019-10-18T18:14:20Z</time>
      </trkpt>
      <trkpt lat="40.97356" lon="-8.25146">
        <ele>502.452</ele>
        <time>2019-10-18T18:14:40Z</time>
      </trkpt>
      <trkpt lat="40.97369" lon="-8.25183">
        <ele>496.513</ele>
        <time>2019-10-18T18:15:00Z</time>
      </trkpt>
      <trkpt lat="40.97411" lon="-8.25249">
        <ele>482.445</ele>
        <time>2019-10-18T18:15:20Z</time>
      </trkpt>
      <trkpt lat="40.97449" lon="-8.25264">
        <ele>486.665</ele>
        <time>2019-10-18T18:15:40Z</time>
      </trkpt>
      <trkpt lat="40.97453" lon="-8.25273">
        <ele>485.464</ele>
        <time>2019-10-18T18:16:00Z</time>
      </trkpt>
      <trkpt lat="40.97431" lon="-8.25379">
        <ele>468.106</ele>
        <time>2019-10-18T18:16:20Z</time>
      </trkpt>
      <trkpt lat="40.97487" lon="-8.25428">
        <ele>477.616</ele>
        <time>2019-10-18T18:16:40Z</time>
      </trkpt>
      <trkpt lat="40.97496" lon="-8.25423">
        <ele>480.708</ele>
        <time>2019-10-18T18:17:00Z</time>
      </trkpt>
      <trkpt lat="40.97521" lon="-8.25385">
        <ele>494.42</ele>
        <time>2019-10-18T18:17:20Z</time>
      </trkpt>
      <trkpt lat="40.97551" lon="-8.25348">
        <ele>512.488</ele>
        <time>2019-10-18T18:17:40Z</time>
      </trkpt>
      <trkpt lat="40.97615" lon="-8.25407">
        <ele>507.11</ele>
        <time>2019-10-18T18:18:00Z</time>
      </trkpt>
      <trkpt lat="40.97642" lon="-8.25438">
        <ele>509.02</ele>
        <time>2019-10-18T18:18:20Z</time>
      </trkpt>
      <trkpt lat="40.97651" lon="-8.25538">
        <ele>502.112</ele>
        <time>2019-10-18T18:18:40Z</time>
      </trkpt>
      <trkpt lat="40.97674" lon="-8.25595">
        <ele>509.083</ele>
        <time>2019-10-18T18:19:00Z</time>
      </trkpt>
      <trkpt lat="40.97708" lon="-8.25646">
        <ele>516.535</ele>
        <time>2019-10-18T18:19:20Z</time>
      </trkpt>
      <trkpt lat="40.97737" lon="-8.25704">
        <ele>520.585</ele>
        <time>2019-10-18T18:19:40Z</time>
      </trkpt>
      <trkpt lat="40.9778" lon="-8.25762">
        <ele>527.436</ele>
        <time>2019-10-18T18:20:00Z</time>
      </trkpt>
      <trkpt lat="40.97807" lon="-8.25813">
        <ele>533.817</ele>
        <time>2019-10-18T18:20:20Z</time>
      </trkpt>
      <trkpt lat="40.97821" lon="-8.25826">
        <ele>536.418</ele>
        <time>2019-10-18T18:20:40Z</time>
      </trkpt>
      <trkpt lat="40.97823" lon="-8.25875">
        <ele>531.908</ele>
        <time>2019-10-18T18:21:00Z</time>
      </trkpt>
      <trkpt lat="40.97767" lon="-8.26075">
        <ele>486.547</ele>
        <time>2019-10-18T18:21:20Z</time>
      </trkpt>
      <trkpt lat="40.97753" lon="-8.26073">
        <ele>482.625</ele>
        <time>2019-10-18T18:21:40Z</time>
      </trkpt>
      <trkpt lat="40.9773" lon="-8.26195">
        <ele>476.577</ele>
        <time>2019-10-18T18:22:00Z</time>
      </trkpt>
      <trkpt lat="40.97742" lon="-8.26239">
        <ele>474.057</ele>
        <time>2019-10-18T18:22:20Z</time>
      </trkpt>
      <trkpt lat="40.97724" lon="-8.26293">
        <ele>468.169</ele>
        <time>2019-10-18T18:22:40Z</time>
      </trkpt>
      <trkpt lat="40.97663" lon="-8.26331">
        <ele>457.92</ele>
        <time>2019-10-18T18:23:00Z</time>
      </trkpt>
      <trkpt lat="40.97627" lon="-8.26297">
        <ele>453.852</ele>
        <time>2019-10-18T18:23:20Z</time>
      </trkpt>
      <trkpt lat="40.97593" lon="-8.26324">
        <ele>450.642</ele>
        <time>2019-10-18T18:23:40Z</time>
      </trkpt>
      <trkpt lat="40.97582" lon="-8.26339">
        <ele>451.287</ele>
        <time>2019-10-18T18:24:00Z</time>
      </trkpt>
      <trkpt lat="40.97613" lon="-8.26348">
        <ele>451.642</ele>
        <time>2019-10-18T18:24:20Z</time>
      </trkpt>
      <trkpt lat="40.97676" lon="-8.26504">
        <ele>427.926</ele>
        <time>2019-10-18T18:24:40Z</time>
      </trkpt>
      <trkpt lat="40.97712" lon="-8.26626">
        <ele>399.208</ele>
        <time>2019-10-18T18:25:00Z</time>
      </trkpt>
      <trkpt lat="40.9771" lon="-8.26744">
        <ele>381.972</ele>
        <time>2019-10-18T18:25:20Z</time>
      </trkpt>
      <trkpt lat="40.97683" lon="-8.26841">
        <ele>373.19</ele>
        <time>2019-10-18T18:25:40Z</time>
      </trkpt>
      <trkpt lat="40.97699" lon="-8.26855">
        <ele>369.722</ele>
        <time>2019-10-18T18:26:00Z</time>
      </trkpt>
      <trkpt lat="40.97726" lon="-8.2685">
        <ele>363.082</ele>
        <time>2019-10-18T18:26:20Z</time>
      </trkpt>
      <trkpt lat="40.97744" lon="-8.26824">
        <ele>357.894</ele>
        <time>2019-10-18T18:26:40Z</time>
      </trkpt>
      <trkpt lat="40.97758" lon="-8.26795">
        <ele>357.055</ele>
        <time>2019-10-18T18:27:00Z</time>
      </trkpt>
      <trkpt lat="40.97767" lon="-8.26777">
        <ele>358.097</ele>
        <time>2019-10-18T18:27:20Z</time>
      </trkpt>
      <trkpt lat="40.97784" lon="-8.26781">
        <ele>356.967</ele>
        <time>2019-10-18T18:27:40Z</time>
      </trkpt>
      <trkpt lat="40.97794" lon="-8.26828">
        <ele>354.728</ele>
        <time>2019-10-18T18:28:00Z</time>
      </trkpt>
      <trkpt lat="40.97811" lon="-8.26868">
        <ele>355.789</ele>
        <time>2019-10-18T18:28:20Z</time>
      </trkpt>
      <trkpt lat="40.97809" lon="-8.26886">
        <ele>353.917</ele>
        <time>2019-10-18T18:28:40Z</time>
      </trkpt>
      <trkpt lat="40.97825" lon="-8.26919">
        <ele>354.508</ele>
        <time>2019-10-18T18:29:00Z</time>
      </trkpt>
      <trkpt lat="40.97807" lon="-8.26966">
        <ele>352.086</ele>
        <time>2019-10-18T18:29:20Z</time>
      </trkpt>
      <trkpt lat="40.97828" lon="-8.26948">
        <ele>355.224</ele>
        <time>2019-10-18T18:29:40Z</time>
      </trkpt>
      <trkpt lat="40.97863" lon="-8.2697">
        <ele>364.576</ele>
        <time>2019-10-18T18:30:00Z</time>
      </trkpt>
      <trkpt lat="40.97872" lon="-8.26995">
        <ele>368.356</ele>
        <time>2019-10-18T18:30:20Z</time>
      </trkpt>
      <trkpt lat="40.97859" lon="-8.27039">
        <ele>364.578</ele>
        <time>2019-10-18T18:30:40Z</time>
      </trkpt>
      <trkpt lat="40.9787" lon="-8.27084">
        <ele>366.539</ele>
        <time>2019-10-18T18:31:00Z</time>
      </trkpt>
      <trkpt lat="40.97915" lon="-8.27119">
        <ele>366.781</ele>
        <time>2019-10-18T18:31:20Z</time>
      </trkpt>
      <trkpt lat="40.97965" lon="-8.27084">
        <ele>376.051</ele>
        <time>2019-10-18T18:31:40Z</time>
      </trkpt>
      <trkpt lat="40.97963" lon="-8.27016">
        <ele>388.938</ele>
        <time>2019-10-18T18:32:00Z</time>
      </trkpt>
      <trkpt lat="40.97967" lon="-8.27003">
        <ele>390.77</ele>
        <time>2019-10-18T18:32:20Z</time>
      </trkpt>
      <trkpt lat="40.97975" lon="-8.26984">
        <ele>393.917</ele>
        <time>2019-10-18T18:32:40Z</time>
      </trkpt>
      <trkpt lat="40.97981" lon="-8.26975">
        <ele>395.408</ele>
        <time>2019-10-18T18:33:00Z</time>
      </trkpt>
      <trkpt lat="40.97987" lon="-8.26978">
        <ele>395.567</ele>
        <time>2019-10-18T18:33:20Z</time>
      </trkpt>
      <trkpt lat="40.97999" lon="-8.26986">
        <ele>395.455</ele>
        <time>2019-10-18T18:33:40Z</time>
      </trkpt>
      <trkpt lat="40.98021" lon="-8.27004">
        <ele>395.877</ele>
        <time>2019-10-18T18:34:00Z</time>
      </trkpt>
      <trkpt lat="40.98031" lon="-8.27006">
        <ele>396.737</ele>
        <time>2019-10-18T18:34:20Z</time>
      </trkpt>
      <trkpt lat="40.98042" lon="-8.27002">
        <ele>398.399</ele>
        <time>2019-10-18T18:34:40Z</time>
      </trkpt>
      <trkpt lat="40.98051" lon="-8.26993">
        <ele>400.56</ele>
        <time>2019-10-18T18:35:00Z</time>
      </trkpt>
      <trkpt lat="40.98055" lon="-8.27004">
        <ele>399.412</ele>
        <time>2019-10-18T18:35:20Z</time>
      </trkpt>
      <trkpt lat="40.98061" lon="-8.2702">
        <ele>396.532</ele>
        <time>2019-10-18T18:35:40Z</time>
      </trkpt>
      <trkpt lat="40.98063" lon="-8.27026">
        <ele>395.452</ele>
        <time>2019-10-18T18:36:00Z</time>
      </trkpt>
      <trkpt lat="40.98068" lon="-8.27032">
        <ele>393.753</ele>
        <time>2019-10-18T18:36:20Z</time>
      </trkpt>
      <trkpt lat="40.98072" lon="-8.27029">
        <ele>394.008</ele>
        <time>2019-10-18T18:36:40Z</time>
      </trkpt>
      <trkpt lat="40.9809" lon="-8.26993">
        <ele>394.908</ele>
        <time>2019-10-18T18:37:00Z</time>
      </trkpt>
      <trkpt lat="40.98099" lon="-8.2697">
        <ele>395.199</ele>
        <time>2019-10-18T18:37:20Z</time>
      </trkpt>
      <trkpt lat="40.98112" lon="-8.2693">
        <ele>393.487</ele>
        <time>2019-10-18T18:37:40Z</time>
      </trkpt>
      <trkpt lat="40.98127" lon="-8.26892">
        <ele>388.799</ele>
        <time>2019-10-18T18:38:00Z</time>
      </trkpt>
      <trkpt lat="40.98138" lon="-8.26869">
        <ele>384.959</ele>
        <time>2019-10-18T18:38:20Z</time>
      </trkpt>
      <trkpt lat="40.98142" lon="-8.26861">
        <ele>383.481</ele>
        <time>2019-10-18T18:38:40Z</time>
      </trkpt>
      <trkpt lat="40.98157" lon="-8.26809">
        <ele>382.892</ele>
        <time>2019-10-18T18:39:00Z</time>
      </trkpt>
      <trkpt lat="40.98161" lon="-8.26798">
        <ele>382.064</ele>
        <time>2019-10-18T18:39:20Z</time>
      </trkpt>
      <trkpt lat="40.98164" lon="-8.26811">
        <ele>379.244</ele>
        <time>2019-10-18T18:39:40Z</time>
      </trkpt>
      <trkpt lat="40.98165" lon="-8.26823">
        <ele>377.437</ele>
        <time>2019-10-18T18:40:00Z</time>
      </trkpt>
      <trkpt lat="40.98167" lon="-8.26835">
        <ele>375.649</ele>
        <time>2019-10-18T18:40:20Z</time>
      </trkpt>
      <trkpt lat="40.98168" lon="-8.26853">
        <ele>371.213</ele>
        <time>2019-10-18T18:40:40Z</time>
      </trkpt>
      <trkpt lat="40.98167" lon="-8.26879">
        <ele>366.408</ele>
        <time>2019-10-18T18:41:00Z</time>
      </trkpt>
      <trkpt lat="40.98169" lon="-8.26887">
        <ele>364.447</ele>
        <time>2019-10-18T18:41:20Z</time>
      </trkpt>
      <trkpt lat="40.98171" lon="-8.269">
        <ele>361.545</ele>
        <time>2019-10-18T18:41:40Z</time>
      </trkpt>
      <trkpt lat="40.98172" lon="-8.26909">
        <ele>359.587</ele>
        <time>2019-10-18T18:42:00Z</time>
      </trkpt>
      <trkpt lat="40.98176" lon="-8.26922">
        <ele>355.777</ele>
        <time>2019-10-18T18:42:20Z</time>
      </trkpt>
      <trkpt lat="40.9818" lon="-8.26931">
        <ele>352.819</ele>
        <time>2019-10-18T18:42:40Z</time>
      </trkpt>
      <trkpt lat="40.98185" lon="-8.2694">
        <ele>349.24</ele>
        <time>2019-10-18T18:43:00Z</time>
      </trkpt>
      <trkpt lat="40.98189" lon="-8.26951">
        <ele>345.392</ele>
        <time>2019-10-18T18:43:20Z</time>
      </trkpt>
      <trkpt lat="40.9819" lon="-8.26965">
        <ele>341.552</ele>
        <time>2019-10-18T18:43:40Z</time>
      </trkpt>
      <trkpt lat="40.9819" lon="-8.26971">
        <ele>339.912</ele>
        <time>2019-10-18T18:44:00Z</time>
      </trkpt>
      <trkpt lat="40.98187" lon="-8.2699">
        <ele>342.332</ele>
        <time>2019-10-18T18:44:20Z</time>
      </trkpt>
      <trkpt lat="40.98187" lon="-8.27001">
        <ele>342.605</ele>
        <time>2019-10-18T18:44:40Z</time>
      </trkpt>
      <trkpt lat="40.98194" lon="-8.27">
        <ele>339.308</ele>
        <time>2019-10-18T18:45:00Z</time>
      </trkpt>
      <trkpt lat="40.982" lon="-8.26984">
        <ele>337.315</ele>
        <time>2019-10-18T18:45:20Z</time>
      </trkpt>
      <trkpt lat="40.98208" lon="-8.26984">
        <ele>336.593</ele>
        <time>2019-10-18T18:45:40Z</time>
      </trkpt>
      <trkpt lat="40.98212" lon="-8.26991">
        <ele>336.045</ele>
        <time>2019-10-18T18:46:00Z</time>
      </trkpt>
      <trkpt lat="40.98212" lon="-8.27001">
        <ele>335.995</ele>
        <time>2019-10-18T18:46:20Z</time>
      </trkpt>
      <trkpt lat="40.98213" lon="-8.27007">
        <ele>335.547</ele>
        <time>2019-10-18T18:46:40Z</time>
      </trkpt>
      <trkpt lat="40.98217" lon="-8.27034">
        <ele>333.818</ele>
        <time>2019-10-18T18:47:00Z</time>
      </trkpt>
      <trkpt lat="40.98227" lon="-8.27076">
        <ele>330.63</ele>
        <time>2019-10-18T18:47:20Z</time>
      </trkpt>
      <trkpt lat="40.98237" lon="-8.27129">
        <ele>323.76</ele>
        <time>2019-10-18T18:47:40Z</time>
      </trkpt>
      <trkpt lat="40.9825" lon="-8.2718">
        <ele>321.548</ele>
        <time>2019-10-18T18:48:00Z</time>
      </trkpt>
      <trkpt lat="40.9826" lon="-8.27198">
        <ele>323.061</ele>
        <time>2019-10-18T18:48:20Z</time>
      </trkpt>
      <trkpt lat="40.98269" lon="-8.27211">
        <ele>324.817</ele>
        <time>2019-10-18T18:48:40Z</time>
      </trkpt>
      <trkpt lat="40.98277" lon="-8.27232">
        <ele>325.408</ele>
        <time>2019-10-18T18:49:00Z</time>
      </trkpt>
      <trkpt lat="40.98276" lon="-8.27249">
        <ele>324.588</ele>
        <time>2019-10-18T18:49:20Z</time>
      </trkpt>
      <trkpt lat="40.98272" lon="-8.27272">
        <ele>323.276</ele>
        <time>2019-10-18T18:49:40Z</time>
      </trkpt>
      <trkpt lat="40.98271" lon="-8.27294">
        <ele>323.468</ele>
        <time>2019-10-18T18:50:00Z</time>
      </trkpt>
      <trkpt lat="40.98271" lon="-8.27316">
        <ele>324.338</ele>
        <time>2019-10-18T18:50:20Z</time>
      </trkpt>
      <trkpt lat="40.98279" lon="-8.27348">
        <ele>326.44</ele>
        <time>2019-10-18T18:50:40Z</time>
      </trkpt>
      <trkpt lat="40.98277" lon="-8.2736">
        <ele>324.991</ele>
        <time>2019-10-18T18:51:00Z</time>
      </trkpt>
      <trkpt lat="40.98277" lon="-8.27369">
        <ele>323.923</ele>
        <time>2019-10-18T18:51:20Z</time>
      </trkpt>
      <trkpt lat="40.98287" lon="-8.27404">
        <ele>323.373</ele>
        <time>2019-10-18T18:51:40Z</time>
      </trkpt>
      <trkpt lat="40.98296" lon="-8.27431">
        <ele>324.288</ele>
        <time>2019-10-18T18:52:00Z</time>
      </trkpt>
      <trkpt lat="40.98293" lon="-8.27464">
        <ele>325.224</ele>
        <time>2019-10-18T18:52:20Z</time>
      </trkpt>
      <trkpt lat="40.98291" lon="-8.27493">
        <ele>326.126</ele>
        <time>2019-10-18T18:52:40Z</time>
      </trkpt>
      <trkpt lat="40.98299" lon="-8.27525">
        <ele>328.608</ele>
        <time>2019-10-18T18:53:00Z</time>
      </trkpt>
      <trkpt lat="40.98308" lon="-8.27559">
        <ele>327.922</ele>
        <time>2019-10-18T18:53:20Z</time>
      </trkpt>
      <trkpt lat="40.98315" lon="-8.27585">
        <ele>324.75</ele>
        <time>2019-10-18T18:53:40Z</time>
      </trkpt>
      <trkpt lat="40.98319" lon="-8.27597">
        <ele>323.882</ele>
        <time>2019-10-18T18:54:00Z</time>
      </trkpt>
      <trkpt lat="40.98321" lon="-8.27624">
        <ele>320.642</ele>
        <time>2019-10-18T18:54:20Z</time>
      </trkpt>
      <trkpt lat="40.98335" lon="-8.27634">
        <ele>320.674</ele>
        <time>2019-10-18T18:54:40Z</time>
      </trkpt>
      <trkpt lat="40.98353" lon="-8.27638">
        <ele>318.715</ele>
        <time>2019-10-18T18:55:00Z</time>
      </trkpt>
      <trkpt lat="40.98363" lon="-8.2764">
        <ele>317.717</ele>
        <time>2019-10-18T18:55:20Z</time>
      </trkpt>
      <trkpt lat="40.98393" lon="-8.2766">
        <ele>312.987</ele>
        <time>2019-10-18T18:55:40Z</time>
      </trkpt>
      <trkpt lat="40.98395" lon="-8.27675">
        <ele>310.237</ele>
        <time>2019-10-18T18:56:00Z</time>
      </trkpt>
      <trkpt lat="40.98413" lon="-8.27714">
        <ele>304.049</ele>
        <time>2019-10-18T18:56:20Z</time>
      </trkpt>
      <trkpt lat="40.98413" lon="-8.27727">
        <ele>302.813</ele>
        <time>2019-10-18T18:56:40Z</time>
      </trkpt>
      <trkpt lat="40.98402" lon="-8.27746">
        <ele>301.808</ele>
        <time>2019-10-18T18:57:00Z</time>
      </trkpt>
      <trkpt lat="40.98395" lon="-8.27775">
        <ele>303.267</ele>
        <time>2019-10-18T18:57:20Z</time>
      </trkpt>
      <trkpt lat="40.98403" lon="-8.27796">
        <ele>305.545</ele>
        <time>2019-10-18T18:57:40Z</time>
      </trkpt>
      <trkpt lat="40.98414" lon="-8.27804">
        <ele>305.227</ele>
        <time>2019-10-18T18:58:00Z</time>
      </trkpt>
      <trkpt lat="40.98426" lon="-8.27813">
        <ele>305.257</ele>
        <time>2019-10-18T18:58:20Z</time>
      </trkpt>
      <trkpt lat="40.98434" lon="-8.27819">
        <ele>305.089</ele>
        <time>2019-10-18T18:58:40Z</time>
      </trkpt>
      <trkpt lat="40.9844" lon="-8.27822">
        <ele>304.73</ele>
        <time>2019-10-18T18:59:00Z</time>
      </trkpt>
      <trkpt lat="40.98451" lon="-8.27837">
        <ele>306.842</ele>
        <time>2019-10-18T18:59:20Z</time>
      </trkpt>
      <trkpt lat="40.98458" lon="-8.27847">
        <ele>308.672</ele>
        <time>2019-10-18T18:59:40Z</time>
      </trkpt>
      <trkpt lat="40.98476" lon="-8.27865">
        <ele>312.017</ele>
        <time>2019-10-18T19:00:00Z</time>
      </trkpt>
      <trkpt lat="40.98492" lon="-8.27881">
        <ele>315.187</ele>
        <time>2019-10-18T19:00:20Z</time>
      </trkpt>
      <trkpt lat="40.98503" lon="-8.27893">
        <ele>316.315</ele>
        <time>2019-10-18T19:00:40Z</time>
      </trkpt>
      <trkpt lat="40.9851" lon="-8.27906">
        <ele>318.508</ele>
        <time>2019-10-18T19:01:00Z</time>
      </trkpt>
      <trkpt lat="40.98517" lon="-8.27923">
        <ele>322.615</ele>
        <time>2019-10-18T19:01:20Z</time>
      </trkpt>
      <trkpt lat="40.98523" lon="-8.27936">
        <ele>326.123</ele>
        <time>2019-10-18T19:01:40Z</time>
      </trkpt>
      <trkpt lat="40.98528" lon="-8.27949">
        <ele>329.515</ele>
        <time>2019-10-18T19:02:00Z</time>
      </trkpt>
      <trkpt lat="40.98534" lon="-8.27963">
        <ele>332.375</ele>
        <time>2019-10-18T19:02:20Z</time>
      </trkpt>
      <trkpt lat="40.98536" lon="-8.27975">
        <ele>334.957</ele>
        <time>2019-10-18T19:02:40Z</time>
      </trkpt>
      <trkpt lat="40.98537" lon="-8.27983">
        <ele>336.418</ele>
        <time>2019-10-18T19:03:00Z</time>
      </trkpt>
      <trkpt lat="40.98538" lon="-8.27999">
        <ele>340.09</ele>
        <time>2019-10-18T19:03:20Z</time>
      </trkpt>
      <trkpt lat="40.98539" lon="-8.28017">
        <ele>342.91</ele>
        <time>2019-10-18T19:03:40Z</time>
      </trkpt>
      <trkpt lat="40.98544" lon="-8.2803">
        <ele>344.794</ele>
        <time>2019-10-18T19:04:00Z</time>
      </trkpt>
      <trkpt lat="40.98552" lon="-8.28043">
        <ele>346.257</ele>
        <time>2019-10-18T19:04:20Z</time>
      </trkpt>
      <trkpt lat="40.98556" lon="-8.2806">
        <ele>350.322</ele>
        <time>2019-10-18T19:04:40Z</time>
      </trkpt>
      <trkpt lat="40.98564" lon="-8.28074">
        <ele>354.708</ele>
        <time>2019-10-18T19:05:00Z</time>
      </trkpt>
      <trkpt lat="40.98569" lon="-8.28085">
        <ele>358.193</ele>
        <time>2019-10-18T19:05:20Z</time>
      </trkpt>
      <trkpt lat="40.98573" lon="-8.28095">
        <ele>360.481</ele>
        <time>2019-10-18T19:05:40Z</time>
      </trkpt>
      <trkpt lat="40.98578" lon="-8.28101">
        <ele>361.793</ele>
        <time>2019-10-18T19:06:00Z</time>
      </trkpt>
      <trkpt lat="40.98584" lon="-8.28096">
        <ele>360.333</ele>
        <time>2019-10-18T19:06:20Z</time>
      </trkpt>
      <trkpt lat="40.98592" lon="-8.28083">
        <ele>356.785</ele>
        <time>2019-10-18T19:06:40Z</time>
      </trkpt>
      <trkpt lat="40.98603" lon="-8.28077">
        <ele>353.946</ele>
        <time>2019-10-18T19:07:00Z</time>
      </trkpt>
      <trkpt lat="40.98616" lon="-8.28075">
        <ele>352.968</ele>
        <time>2019-10-18T19:07:20Z</time>
      </trkpt>
      <trkpt lat="40.98631" lon="-8.28083">
        <ele>356.588</ele>
        <time>2019-10-18T19:07:40Z</time>
      </trkpt>
      <trkpt lat="40.98642" lon="-8.28089">
        <ele>359.496</ele>
        <time>2019-10-18T19:08:00Z</time>
      </trkpt>
      <trkpt lat="40.98651" lon="-8.281">
        <ele>363.331</ele>
        <time>2019-10-18T19:08:20Z</time>
      </trkpt>
      <trkpt lat="40.98659" lon="-8.2811">
        <ele>366.024</ele>
        <time>2019-10-18T19:08:40Z</time>
      </trkpt>
      <trkpt lat="40.98667" lon="-8.28121">
        <ele>368.208</ele>
        <time>2019-10-18T19:09:00Z</time>
      </trkpt>
      <trkpt lat="40.98675" lon="-8.28133">
        <ele>370.733</ele>
        <time>2019-10-18T19:09:20Z</time>
      </trkpt>
      <trkpt lat="40.98683" lon="-8.28145">
        <ele>373.441</ele>
        <time>2019-10-18T19:09:40Z</time>
      </trkpt>
      <trkpt lat="40.98692" lon="-8.28156">
        <ele>376.343</ele>
        <time>2019-10-18T19:10:00Z</time>
      </trkpt>
      <trkpt lat="40.98698" lon="-8.28163">
        <ele>378.423</ele>
        <time>2019-10-18T19:10:20Z</time>
      </trkpt>
      <trkpt lat="40.98707" lon="-8.28175">
        <ele>382.045</ele>
        <time>2019-10-18T19:10:40Z</time>
      </trkpt>
      <trkpt lat="40.98713" lon="-8.28186">
        <ele>385.366</ele>
        <time>2019-10-18T19:11:00Z</time>
      </trkpt>
      <trkpt lat="40.98718" lon="-8.28198">
        <ele>388.458</ele>
        <time>2019-10-18T19:11:20Z</time>
      </trkpt>
      <trkpt lat="40.9872" lon="-8.28213">
        <ele>391.398</ele>
        <time>2019-10-18T19:11:40Z</time>
      </trkpt>
      <trkpt lat="40.98725" lon="-8.28229">
        <ele>393.592</ele>
        <time>2019-10-18T19:12:00Z</time>
      </trkpt>
      <trkpt lat="40.98733" lon="-8.28244">
        <ele>394.673</ele>
        <time>2019-10-18T19:12:20Z</time>
      </trkpt>
      <trkpt lat="40.98744" lon="-8.28255">
        <ele>394.82</ele>
        <time>2019-10-18T19:12:40Z</time>
      </trkpt>
      <trkpt lat="40.9875" lon="-8.2827">
        <ele>396.108</ele>
        <time>2019-10-18T19:13:00Z</time>
      </trkpt>
      <trkpt lat="40.98754" lon="-8.28284">
        <ele>397.733</ele>
        <time>2019-10-18T19:13:20Z</time>
      </trkpt>
      <trkpt lat="40.98752" lon="-8.283">
        <ele>399.461</ele>
        <time>2019-10-18T19:13:40Z</time>
      </trkpt>
      <trkpt lat="40.98758" lon="-8.28312">
        <ele>400.023</ele>
        <time>2019-10-18T19:14:00Z</time>
      </trkpt>
      <trkpt lat="40.98771" lon="-8.28329">
        <ele>400.163</ele>
        <time>2019-10-18T19:14:20Z</time>
      </trkpt>
      <trkpt lat="40.98783" lon="-8.28361">
        <ele>398.015</ele>
        <time>2019-10-18T19:14:40Z</time>
      </trkpt>
      <trkpt lat="40.98788" lon="-8.28362">
        <ele>398.036</ele>
        <time>2019-10-18T19:15:00Z</time>
      </trkpt>
      <trkpt lat="40.98795" lon="-8.28364">
        <ele>397.888</ele>
        <time>2019-10-18T19:15:20Z</time>
      </trkpt>
      <trkpt lat="40.98824" lon="-8.28369">
        <ele>397.978</ele>
        <time>2019-10-18T19:15:40Z</time>
      </trkpt>
      <trkpt lat="40.98856" lon="-8.28384">
        <ele>396.186</ele>
        <time>2019-10-18T19:16:00Z</time>
      </trkpt>
      <trkpt lat="40.98907" lon="-8.28422">
        <ele>394.66</ele>
        <time>2019-10-18T19:16:20Z</time>
      </trkpt>
      <trkpt lat="40.98939" lon="-8.28452">
        <ele>396.126</ele>
        <time>2019-10-18T19:16:40Z</time>
      </trkpt>
      <trkpt lat="40.98973" lon="-8.28517">
        <ele>395.008</ele>
        <time>2019-10-18T19:17:00Z</time>
      </trkpt>
      <trkpt lat="40.98976" lon="-8.28527">
        <ele>395.442</ele>
        <time>2019-10-18T19:17:20Z</time>
      </trkpt>
      <trkpt lat="40.98981" lon="-8.28537">
        <ele>396.29</ele>
        <time>2019-10-18T19:17:40Z</time>
      </trkpt>
      <trkpt lat="40.98984" lon="-8.28547">
        <ele>396.682</ele>
        <time>2019-10-18T19:18:00Z</time>
      </trkpt>
      <trkpt lat="40.99024" lon="-8.28644">
        <ele>394.052</ele>
        <time>2019-10-18T19:18:20Z</time>
      </trkpt>
      <trkpt lat="40.9904" lon="-8.28678">
        <ele>389.194</ele>
        <time>2019-10-18T19:18:40Z</time>
      </trkpt>
      <trkpt lat="40.99059" lon="-8.28718">
        <ele>385.395</ele>
        <time>2019-10-18T19:19:00Z</time>
      </trkpt>
      <trkpt lat="40.99088" lon="-8.28829">
        <ele>382.817</ele>
        <time>2019-10-18T19:19:20Z</time>
      </trkpt>
      <trkpt lat="40.99094" lon="-8.28866">
        <ele>379.937</ele>
        <time>2019-10-18T19:19:40Z</time>
      </trkpt>
      <trkpt lat="40.99119" lon="-8.28987">
        <ele>376.675</ele>
        <time>2019-10-18T19:20:00Z</time>
      </trkpt>
      <trkpt lat="40.99158" lon="-8.29063">
        <ele>382.528</ele>
        <time>2019-10-18T19:20:20Z</time>
      </trkpt>
      <trkpt lat="40.99209" lon="-8.29127">
        <ele>378.92</ele>
        <time>2019-10-18T19:20:40Z</time>
      </trkpt>
      <trkpt lat="40.99219" lon="-8.29146">
        <ele>378.308</ele>
        <time>2019-10-18T19:21:00Z</time>
      </trkpt>
      <trkpt lat="40.99246" lon="-8.29209">
        <ele>379.711</ele>
        <time>2019-10-18T19:21:20Z</time>
      </trkpt>
      <trkpt lat="40.99275" lon="-8.29309">
        <ele>376.719</ele>
        <time>2019-10-18T19:21:40Z</time>
      </trkpt>
      <trkpt lat="40.99304" lon="-8.29379">
        <ele>374.171</ele>
        <time>2019-10-18T19:22:00Z</time>
      </trkpt>
      <trkpt lat="40.99309" lon="-8.29406">
        <ele>372.131</ele>
        <time>2019-10-18T19:22:20Z</time>
      </trkpt>
      <trkpt lat="40.9931" lon="-8.29474">
        <ele>368.943</ele>
        <time>2019-10-18T19:22:40Z</time>
      </trkpt>
      <trkpt lat="40.99323" lon="-8.29566">
        <ele>370.044</ele>
        <time>2019-10-18T19:23:00Z</time>
      </trkpt>
      <trkpt lat="40.99369" lon="-8.29639">
        <ele>368.816</ele>
        <time>2019-10-18T19:23:20Z</time>
      </trkpt>
      <trkpt lat="40.99399" lon="-8.2971">
        <ele>364.516</ele>
        <time>2019-10-18T19:23:40Z</time>
      </trkpt>
      <trkpt lat="40.99442" lon="-8.29768">
        <ele>365.944</ele>
        <time>2019-10-18T19:24:00Z</time>
      </trkpt>
      <trkpt lat="40.99488" lon="-8.29775">
        <ele>371.105</ele>
        <time>2019-10-18T19:24:20Z</time>
      </trkpt>
      <trkpt lat="40.99533" lon="-8.29807">
        <ele>366.915</ele>
        <time>2019-10-18T19:24:40Z</time>
      </trkpt>
      <trkpt lat="40.99538" lon="-8.29814">
        <ele>366.608</ele>
        <time>2019-10-18T19:25:00Z</time>
      </trkpt>
      <trkpt lat="40.99528" lon="-8.29816">
        <ele>362.958</ele>
        <time>2019-10-18T19:25:20Z</time>
      </trkpt>
      <trkpt lat="40.99653" lon="-8.29963">
        <ele>363.356</ele>
        <time>2019-10-18T19:25:40Z</time>
      </trkpt>
      <trkpt lat="40.99748" lon="-8.30202">
        <ele>360.378</ele>
        <time>2019-10-18T19:26:00Z</time>
      </trkpt>
      <trkpt lat="40.9977" lon="-8.30402">
        <ele>364.478</ele>
        <time>2019-10-18T19:26:20Z</time>
      </trkpt>
      <trkpt lat="40.99824" lon="-8.30601">
        <ele>357.61</ele>
        <time>2019-10-18T19:26:40Z</time>
      </trkpt>
      <trkpt lat="40.99942" lon="-8.30773">
        <ele>367.291</ele>
        <time>2019-10-18T19:27:00Z</time>
      </trkpt>
      <trkpt lat="40.99973" lon="-8.30884">
        <ele>362.523</ele>
        <time>2019-10-18T19:27:20Z</time>
      </trkpt>
      <trkpt lat="41.00054" lon="-8.30978">
        <ele>363.673</ele>
        <time>2019-10-18T19:27:40Z</time>
      </trkpt>
      <trkpt lat="41.00122" lon="-8.31218">
        <ele>350.852</ele>
        <time>2019-10-18T19:28:00Z</time>
      </trkpt>
      <trkpt lat="41.00134" lon="-8.31266">
        <ele>349.153</ele>
        <time>2019-10-18T19:28:20Z</time>
      </trkpt>
      <trkpt lat="41.00155" lon="-8.31367">
        <ele>346.908</ele>
        <time>2019-10-18T19:28:40Z</time>
      </trkpt>
      <trkpt lat="41.00162" lon="-8.31401">
        <ele>348.008</ele>
        <time>2019-10-18T19:29:00Z</time>
      </trkpt>
      <trkpt lat="41.00166" lon="-8.3141">
        <ele>348.549</ele>
        <time>2019-10-18T19:29:20Z</time>
      </trkpt>
      <trkpt lat="41.00185" lon="-8.31384">
        <ele>344.027</ele>
        <time>2019-10-18T19:29:40Z</time>
      </trkpt>
      <trkpt lat="41.00183" lon="-8.31369">
        <ele>343.699</ele>
        <time>2019-10-18T19:30:00Z</time>
      </trkpt>
      <trkpt lat="41.00173" lon="-8.31333">
        <ele>343.649</ele>
        <time>2019-10-18T19:30:20Z</time>
      </trkpt>
      <trkpt lat="41.00171" lon="-8.31312">
        <ele>344.181</ele>
        <time>2019-10-18T19:30:40Z</time>
      </trkpt>
      <trkpt lat="41.00172" lon="-8.31287">
        <ele>344.582</ele>
        <time>2019-10-18T19:31:00Z</time>
      </trkpt>
      <trkpt lat="41.00189" lon="-8.31262">
        <ele>343.944</ele>
        <time>2019-10-18T19:31:20Z</time>
      </trkpt>
      <trkpt lat="41.00241" lon="-8.31258">
        <ele>335.044</ele>
        <time>2019-10-18T19:31:40Z</time>
      </trkpt>
      <trkpt lat="41.00291" lon="-8.31305">
        <ele>330.028</ele>
        <time>2019-10-18T19:32:00Z</time>
      </trkpt>
      <trkpt lat="41.00297" lon="-8.3131">
        <ele>329.989</ele>
        <time>2019-10-18T19:32:20Z</time>
      </trkpt>
      <trkpt lat="41.00348" lon="-8.31341">
        <ele>329.917</ele>
        <time>2019-10-18T19:32:40Z</time>
      </trkpt>
      <trkpt lat="41.00399" lon="-8.31379">
        <ele>325.508</ele>
        <time>2019-10-18T19:33:00Z</time>
      </trkpt>
      <trkpt lat="41.00409" lon="-8.31392">
        <ele>323.816</ele>
        <time>2019-10-18T19:33:20Z</time>
      </trkpt>
      <trkpt lat="41.00414" lon="-8.31409">
        <ele>320.564</ele>
        <time>2019-10-18T19:33:40Z</time>
      </trkpt>
      <trkpt lat="41.0042" lon="-8.31441">
        <ele>316.356</ele>
        <time>2019-10-18T19:34:00Z</time>
      </trkpt>
      <trkpt lat="41.00437" lon="-8.31469">
        <ele>315.546</ele>
        <time>2019-10-18T19:34:20Z</time>
      </trkpt>
      <trkpt lat="41.00471" lon="-8.31483">
        <ele>319.658</ele>
        <time>2019-10-18T19:34:40Z</time>
      </trkpt>
      <trkpt lat="41.0049" lon="-8.31502">
        <ele>321.519</ele>
        <time>2019-10-18T19:35:00Z</time>
      </trkpt>
      <trkpt lat="41.00512" lon="-8.31544">
        <ele>318.671</ele>
        <time>2019-10-18T19:35:20Z</time>
      </trkpt>
      <trkpt lat="41.00553" lon="-8.31616">
        <ele>314.691</ele>
        <time>2019-10-18T19:35:40Z</time>
      </trkpt>
      <trkpt lat="41.00576" lon="-8.31639">
        <ele>313.978</ele>
        <time>2019-10-18T19:36:00Z</time>
      </trkpt>
      <trkpt lat="41.00602" lon="-8.31658">
        <ele>315.033</ele>
        <time>2019-10-18T19:36:20Z</time>
      </trkpt>
      <trkpt lat="41.00617" lon="-8.31678">
        <ele>313.226</ele>
        <time>2019-10-18T19:36:40Z</time>
      </trkpt>
      <trkpt lat="41.00638" lon="-8.31718">
        <ele>309.608</ele>
        <time>2019-10-18T19:37:00Z</time>
      </trkpt>
      <trkpt lat="41.00673" lon="-8.3176">
        <ele>308.421</ele>
        <time>2019-10-18T19:37:20Z</time>
      </trkpt>
      <trkpt lat="41.00756" lon="-8.31843">
        <ele>306.339</ele>
        <time>2019-10-18T19:37:40Z</time>
      </trkpt>
      <trkpt lat="41.00793" lon="-8.31856">
        <ele>305.721</ele>
        <time>2019-10-18T19:38:00Z</time>
      </trkpt>
      <trkpt lat="41.00806" lon="-8.31859">
        <ele>306.271</ele>
        <time>2019-10-18T19:38:20Z</time>
      </trkpt>
      <trkpt lat="41.00832" lon="-8.31864">
        <ele>304.633</ele>
        <time>2019-10-18T19:38:40Z</time>
      </trkpt>
      <trkpt lat="41.00848" lon="-8.31871">
        <ele>303.744</ele>
        <time>2019-10-18T19:39:00Z</time>
      </trkpt>
      <trkpt lat="41.00858" lon="-8.3188">
        <ele>302.726</ele>
        <time>2019-10-18T19:39:20Z</time>
      </trkpt>
      <trkpt lat="41.00866" lon="-8.31884">
        <ele>303.116</ele>
        <time>2019-10-18T19:39:40Z</time>
      </trkpt>
      <trkpt lat="41.00897" lon="-8.31921">
        <ele>303.019</ele>
        <time>2019-10-18T19:40:00Z</time>
      </trkpt>
      <trkpt lat="41.00913" lon="-8.31941">
        <ele>301.009</ele>
        <time>2019-10-18T19:40:20Z</time>
      </trkpt>
      <trkpt lat="41.00924" lon="-8.31952">
        <ele>300.619</ele>
        <time>2019-10-18T19:40:40Z</time>
      </trkpt>
      <trkpt lat="41.00945" lon="-8.31969">
        <ele>302.708</ele>
        <time>2019-10-18T19:41:00Z</time>
      </trkpt>
      <trkpt lat="41.00957" lon="-8.31981">
        <ele>302.995</ele>
        <time>2019-10-18T19:41:20Z</time>
      </trkpt>
      <trkpt lat="41.00967" lon="-8.32002">
        <ele>300.733</ele>
        <time>2019-10-18T19:41:40Z</time>
      </trkpt>
      <trkpt lat="41.00969" lon="-8.32009">
        <ele>299.465</ele>
        <time>2019-10-18T19:42:00Z</time>
      </trkpt>
      <trkpt lat="41.00981" lon="-8.32034">
        <ele>297.335</ele>
        <time>2019-10-18T19:42:20Z</time>
      </trkpt>
      <trkpt lat="41.00987" lon="-8.32044">
        <ele>296.697</ele>
        <time>2019-10-18T19:42:40Z</time>
      </trkpt>
      <trkpt lat="41.00994" lon="-8.32052">
        <ele>297.368</ele>
        <time>2019-10-18T19:43:00Z</time>
      </trkpt>
      <trkpt lat="41.01016" lon="-8.32079">
        <ele>298.47</ele>
        <time>2019-10-18T19:43:20Z</time>
      </trkpt>
      <trkpt lat="41.01024" lon="-8.32087">
        <ele>299.04</ele>
        <time>2019-10-18T19:43:40Z</time>
      </trkpt>
      <trkpt lat="41.01036" lon="-8.32116">
        <ele>297.336</ele>
        <time>2019-10-18T19:44:00Z</time>
      </trkpt>
      <trkpt lat="41.0104" lon="-8.3214">
        <ele>292.717</ele>
        <time>2019-10-18T19:44:20Z</time>
      </trkpt>
      <trkpt lat="41.01048" lon="-8.3217">
        <ele>289.018</ele>
        <time>2019-10-18T19:44:40Z</time>
      </trkpt>
      <trkpt lat="41.01063" lon="-8.32197">
        <ele>289.208</ele>
        <time>2019-10-18T19:45:00Z</time>
      </trkpt>
      <trkpt lat="41.01071" lon="-8.32207">
        <ele>288.797</ele>
        <time>2019-10-18T19:45:20Z</time>
      </trkpt>
      <trkpt lat="41.01137" lon="-8.32255">
        <ele>289.495</ele>
        <time>2019-10-18T19:45:40Z</time>
      </trkpt>
      <trkpt lat="41.01152" lon="-8.32279">
        <ele>289.137</ele>
        <time>2019-10-18T19:46:00Z</time>
      </trkpt>
      <trkpt lat="41.01158" lon="-8.32293">
        <ele>287.937</ele>
        <time>2019-10-18T19:46:20Z</time>
      </trkpt>
      <trkpt lat="41.01202" lon="-8.32348">
        <ele>290.479</ele>
        <time>2019-10-18T19:46:40Z</time>
      </trkpt>
      <trkpt lat="41.01227" lon="-8.32393">
        <ele>290.48</ele>
        <time>2019-10-18T19:47:00Z</time>
      </trkpt>
      <trkpt lat="41.01291" lon="-8.3249">
        <ele>280.932</ele>
        <time>2019-10-18T19:47:20Z</time>
      </trkpt>
      <trkpt lat="41.01325" lon="-8.32528">
        <ele>282.592</ele>
        <time>2019-10-18T19:47:40Z</time>
      </trkpt>
      <trkpt lat="41.01349" lon="-8.32564">
        <ele>279.255</ele>
        <time>2019-10-18T19:48:00Z</time>
      </trkpt>
      <trkpt lat="41.01386" lon="-8.32604">
        <ele>281.207</ele>
        <time>2019-10-18T19:48:20Z</time>
      </trkpt>
      <trkpt lat="41.01418" lon="-8.32679">
        <ele>272.017</ele>
        <time>2019-10-18T19:48:40Z</time>
      </trkpt>
      <trkpt lat="41.01428" lon="-8.32697">
        <ele>268.808</ele>
        <time>2019-10-18T19:49:00Z</time>
      </trkpt>
      <trkpt lat="41.01454" lon="-8.32726">
        <ele>268.259</ele>
        <time>2019-10-18T19:49:20Z</time>
      </trkpt>
      <trkpt lat="41.01535" lon="-8.32785">
        <ele>269.847</ele>
        <time>2019-10-18T19:49:40Z</time>
      </trkpt>
      <trkpt lat="41.01545" lon="-8.32795">
        <ele>271.119</ele>
        <time>2019-10-18T19:50:00Z</time>
      </trkpt>
      <trkpt lat="41.01576" lon="-8.32838">
        <ele>269.619</ele>
        <time>2019-10-18T19:50:20Z</time>
      </trkpt>
      <trkpt lat="41.01587" lon="-8.32854">
        <ele>268.131</ele>
        <time>2019-10-18T19:50:40Z</time>
      </trkpt>
      <trkpt lat="41.01639" lon="-8.32887">
        <ele>275.942</ele>
        <time>2019-10-18T19:51:00Z</time>
      </trkpt>
      <trkpt lat="41.0166" lon="-8.32913">
        <ele>276.884</ele>
        <time>2019-10-18T19:51:20Z</time>
      </trkpt>
      <trkpt lat="41.01707" lon="-8.33009">
        <ele>272.134</ele>
        <time>2019-10-18T19:51:40Z</time>
      </trkpt>
      <trkpt lat="41.01748" lon="-8.33071">
        <ele>270.963</ele>
        <time>2019-10-18T19:52:00Z</time>
      </trkpt>
      <trkpt lat="41.01775" lon="-8.331">
        <ele>271.344</ele>
        <time>2019-10-18T19:52:20Z</time>
      </trkpt>
      <trkpt lat="41.01785" lon="-8.33106">
        <ele>272.218</ele>
        <time>2019-10-18T19:52:40Z</time>
      </trkpt>
      <trkpt lat="41.018" lon="-8.33109">
        <ele>274.408</ele>
        <time>2019-10-18T19:53:00Z</time>
      </trkpt>
      <trkpt lat="41.01821" lon="-8.33106">
        <ele>275.87</ele>
        <time>2019-10-18T19:53:20Z</time>
      </trkpt>
      <trkpt lat="41.01855" lon="-8.33117">
        <ele>269.688</ele>
        <time>2019-10-18T19:53:40Z</time>
      </trkpt>
      <trkpt lat="41.01902" lon="-8.33141">
        <ele>262.67</ele>
        <time>2019-10-18T19:54:00Z</time>
      </trkpt>
      <trkpt lat="41.0192" lon="-8.33143">
        <ele>265.66</ele>
        <time>2019-10-18T19:54:20Z</time>
      </trkpt>
      <trkpt lat="41.01948" lon="-8.33182">
        <ele>269.942</ele>
        <time>2019-10-18T19:54:40Z</time>
      </trkpt>
      <trkpt lat="41.01945" lon="-8.33212">
        <ele>264.513</ele>
        <time>2019-10-18T19:55:00Z</time>
      </trkpt>
      <trkpt lat="41.01944" lon="-8.33228">
        <ele>262.285</ele>
        <time>2019-10-18T19:55:20Z</time>
      </trkpt>
      <trkpt lat="41.01946" lon="-8.33287">
        <ele>262.715</ele>
        <time>2019-10-18T19:55:40Z</time>
      </trkpt>
      <trkpt lat="41.01934" lon="-8.33325">
        <ele>264.519</ele>
        <time>2019-10-18T19:56:00Z</time>
      </trkpt>
      <trkpt lat="41.0188" lon="-8.33397">
        <ele>260.109</ele>
        <time>2019-10-18T19:56:20Z</time>
      </trkpt>
      <trkpt lat="41.01849" lon="-8.33431">
        <ele>250.319</ele>
        <time>2019-10-18T19:56:40Z</time>
      </trkpt>
      <trkpt lat="41.01836" lon="-8.33461">
        <ele>248.808</ele>
        <time>2019-10-18T19:57:00Z</time>
      </trkpt>
      <trkpt lat="41.01834" lon="-8.33481">
        <ele>250.685</ele>
        <time>2019-10-18T19:57:20Z</time>
      </trkpt>
      <trkpt lat="41.01831" lon="-8.33541">
        <ele>247.773</ele>
        <time>2019-10-18T19:57:40Z</time>
      </trkpt>
      <trkpt lat="41.01831" lon="-8.33585">
        <ele>243.775</ele>
        <time>2019-10-18T19:58:00Z</time>
      </trkpt>
      <trkpt lat="41.01848" lon="-8.33628">
        <ele>244.065</ele>
        <time>2019-10-18T19:58:20Z</time>
      </trkpt>
      <trkpt lat="41.01851" lon="-8.33634">
        <ele>244.127</ele>
        <time>2019-10-18T19:58:40Z</time>
      </trkpt>
      <trkpt lat="41.01863" lon="-8.33676">
        <ele>244.888</ele>
        <time>2019-10-18T19:59:00Z</time>
      </trkpt>
      <trkpt lat="41.01864" lon="-8.33782">
        <ele>235.08</ele>
        <time>2019-10-18T19:59:20Z</time>
      </trkpt>
      <trkpt lat="41.01864" lon="-8.3379">
        <ele>234.65</ele>
        <time>2019-10-18T19:59:40Z</time>
      </trkpt>
      <trkpt lat="41.01865" lon="-8.33816">
        <ele>233.531</ele>
        <time>2019-10-18T20:00:00Z</time>
      </trkpt>
      <trkpt lat="41.01877" lon="-8.33845">
        <ele>231.861</ele>
        <time>2019-10-18T20:00:20Z</time>
      </trkpt>
      <trkpt lat="41.01888" lon="-8.33857">
        <ele>230.707</ele>
        <time>2019-10-18T20:00:40Z</time>
      </trkpt>
      <trkpt lat="41.01908" lon="-8.33872">
        <ele>229.608</ele>
        <time>2019-10-18T20:01:00Z</time>
      </trkpt>
      <trkpt lat="41.01923" lon="-8.33887">
        <ele>229.797</ele>
        <time>2019-10-18T20:01:20Z</time>
      </trkpt>
      <trkpt lat="41.01931" lon="-8.33927">
        <ele>229.475</ele>
        <time>2019-10-18T20:01:40Z</time>
      </trkpt>
      <trkpt lat="41.01931" lon="-8.33973">
        <ele>228.787</ele>
        <time>2019-10-18T20:02:00Z</time>
      </trkpt>
      <trkpt lat="41.01931" lon="-8.3401">
        <ele>226.267</ele>
        <time>2019-10-18T20:02:20Z</time>
      </trkpt>
      <trkpt lat="41.01918" lon="-8.34079">
        <ele>223.869</ele>
        <time>2019-10-18T20:02:40Z</time>
      </trkpt>
      <trkpt lat="41.01903" lon="-8.34093">
        <ele>220.27</ele>
        <time>2019-10-18T20:03:00Z</time>
      </trkpt>
      <trkpt lat="41.01888" lon="-8.3415">
        <ele>218.642</ele>
        <time>2019-10-18T20:03:20Z</time>
      </trkpt>
      <trkpt lat="41.01892" lon="-8.34157">
        <ele>218.572</ele>
        <time>2019-10-18T20:03:40Z</time>
      </trkpt>
      <trkpt lat="41.01908" lon="-8.34181">
        <ele>216.929</ele>
        <time>2019-10-18T20:04:00Z</time>
      </trkpt>
      <trkpt lat="41.01927" lon="-8.34198">
        <ele>215.4</ele>
        <time>2019-10-18T20:04:20Z</time>
      </trkpt>
      <trkpt lat="41.01949" lon="-8.34206">
        <ele>216.52</ele>
        <time>2019-10-18T20:04:40Z</time>
      </trkpt>
      <trkpt lat="41.01972" lon="-8.34208">
        <ele>219.008</ele>
        <time>2019-10-18T20:05:00Z</time>
      </trkpt>
      <trkpt lat="41.01992" lon="-8.3425">
        <ele>219.746</ele>
        <time>2019-10-18T20:05:20Z</time>
      </trkpt>
      <trkpt lat="41.01985" lon="-8.34273">
        <ele>215.164</ele>
        <time>2019-10-18T20:05:40Z</time>
      </trkpt>
      <trkpt lat="41.01977" lon="-8.34297">
        <ele>210.376</ele>
        <time>2019-10-18T20:06:00Z</time>
      </trkpt>
      <trkpt lat="41.01975" lon="-8.34328">
        <ele>207.426</ele>
        <time>2019-10-18T20:06:20Z</time>
      </trkpt>
      <trkpt lat="41.01977" lon="-8.34336">
        <ele>207.418</ele>
        <time>2019-10-18T20:06:40Z</time>
      </trkpt>
      <trkpt lat="41.01989" lon="-8.3436">
        <ele>209.439</ele>
        <time>2019-10-18T20:07:00Z</time>
      </trkpt>
      <trkpt lat="41.02017" lon="-8.34396">
        <ele>214.141</ele>
        <time>2019-10-18T20:07:20Z</time>
      </trkpt>
      <trkpt lat="41.02008" lon="-8.34447">
        <ele>207.521</ele>
        <time>2019-10-18T20:07:40Z</time>
      </trkpt>
      <trkpt lat="41.02003" lon="-8.34452">
        <ele>206.035</ele>
        <time>2019-10-18T20:08:00Z</time>
      </trkpt>
      <trkpt lat="41.01962" lon="-8.34486">
        <ele>198.586</ele>
        <time>2019-10-18T20:08:20Z</time>
      </trkpt>
      <trkpt lat="41.01942" lon="-8.3452">
        <ele>198.514</ele>
        <time>2019-10-18T20:08:40Z</time>
      </trkpt>
      <trkpt lat="41.01935" lon="-8.34554">
        <ele>197.208</ele>
        <time>2019-10-18T20:09:00Z</time>
      </trkpt>
      <trkpt lat="41.01937" lon="-8.34585">
        <ele>197.147</ele>
        <time>2019-10-18T20:09:20Z</time>
      </trkpt>
      <trkpt lat="41.01965" lon="-8.34646">
        <ele>195.335</ele>
        <time>2019-10-18T20:09:40Z</time>
      </trkpt>
      <trkpt lat="41.01987" lon="-8.34703">
        <ele>191.067</ele>
        <time>2019-10-18T20:10:00Z</time>
      </trkpt>
      <trkpt lat="41.02007" lon="-8.34738">
        <ele>188.817</ele>
        <time>2019-10-18T20:10:20Z</time>
      </trkpt>
      <trkpt lat="41.02023" lon="-8.34754">
        <ele>190.069</ele>
        <time>2019-10-18T20:10:40Z</time>
      </trkpt>
      <trkpt lat="41.02051" lon="-8.34775">
        <ele>193.29</ele>
        <time>2019-10-18T20:11:00Z</time>
      </trkpt>
      <trkpt lat="41.02061" lon="-8.34787">
        <ele>194.982</ele>
        <time>2019-10-18T20:11:20Z</time>
      </trkpt>
      <trkpt lat="41.02061" lon="-8.34819">
        <ele>192.122</ele>
        <time>2019-10-18T20:11:40Z</time>
      </trkpt>
      <trkpt lat="41.02044" lon="-8.34875">
        <ele>182.458</ele>
        <time>2019-10-18T20:12:00Z</time>
      </trkpt>
      <trkpt lat="41.02043" lon="-8.34924">
        <ele>178.252</ele>
        <time>2019-10-18T20:12:20Z</time>
      </trkpt>
      <trkpt lat="41.02054" lon="-8.34953">
        <ele>177.717</ele>
        <time>2019-10-18T20:12:40Z</time>
      </trkpt>
      <trkpt lat="41.02097" lon="-8.35042">
        <ele>178.108</ele>
        <time>2019-10-18T20:13:00Z</time>
      </trkpt>
      <trkpt lat="41.02103" lon="-8.35065">
        <ele>176.969</ele>
        <time>2019-10-18T20:13:20Z</time>
      </trkpt>
      <trkpt lat="41.02126" lon="-8.35101">
        <ele>179.367</ele>
        <time>2019-10-18T20:13:40Z</time>
      </trkpt>
      <trkpt lat="41.02131" lon="-8.35139">
        <ele>174.289</ele>
        <time>2019-10-18T20:14:00Z</time>
      </trkpt>
      <trkpt lat="41.02128" lon="-8.35154">
        <ele>172.269</ele>
        <time>2019-10-18T20:14:20Z</time>
      </trkpt>
      <trkpt lat="41.0213" lon="-8.35183">
        <ele>171.411</ele>
        <time>2019-10-18T20:14:40Z</time>
      </trkpt>
      <trkpt lat="41.02147" lon="-8.35245">
        <ele>167.742</ele>
        <time>2019-10-18T20:15:00Z</time>
      </trkpt>
      <trkpt lat="41.02178" lon="-8.35292">
        <ele>164.124</ele>
        <time>2019-10-18T20:15:20Z</time>
      </trkpt>
      <trkpt lat="41.02191" lon="-8.35308">
        <ele>163.394</ele>
        <time>2019-10-18T20:15:40Z</time>
      </trkpt>
      <trkpt lat="41.02217" lon="-8.35355">
        <ele>163.179</ele>
        <time>2019-10-18T20:16:00Z</time>
      </trkpt>
      <trkpt lat="41.02227" lon="-8.3541">
        <ele>163.205</ele>
        <time>2019-10-18T20:16:20Z</time>
      </trkpt>
      <trkpt lat="41.02238" lon="-8.35508">
        <ele>155.525</ele>
        <time>2019-10-18T20:16:40Z</time>
      </trkpt>
      <trkpt lat="41.0223" lon="-8.35578">
        <ele>151.308</ele>
        <time>2019-10-18T20:17:00Z</time>
      </trkpt>
      <trkpt lat="41.02219" lon="-8.3561">
        <ele>148.021</ele>
        <time>2019-10-18T20:17:20Z</time>
      </trkpt>
      <trkpt lat="41.02214" lon="-8.35645">
        <ele>146.579</ele>
        <time>2019-10-18T20:17:40Z</time>
      </trkpt>
      <trkpt lat="41.02238" lon="-8.3571">
        <ele>149.371</ele>
        <time>2019-10-18T20:18:00Z</time>
      </trkpt>
      <trkpt lat="41.0225" lon="-8.35716">
        <ele>152.641</ele>
        <time>2019-10-18T20:18:20Z</time>
      </trkpt>
      <trkpt lat="41.02301" lon="-8.35733">
        <ele>159.223</ele>
        <time>2019-10-18T20:18:40Z</time>
      </trkpt>
      <trkpt lat="41.02319" lon="-8.35757">
        <ele>160.064</ele>
        <time>2019-10-18T20:19:00Z</time>
      </trkpt>
      <trkpt lat="41.02336" lon="-8.35786">
        <ele>158.016</ele>
        <time>2019-10-18T20:19:20Z</time>
      </trkpt>
      <trkpt lat="41.02359" lon="-8.35796">
        <ele>158.076</ele>
        <time>2019-10-18T20:19:40Z</time>
      </trkpt>
      <trkpt lat="41.02384" lon="-8.35791">
        <ele>160.979</ele>
        <time>2019-10-18T20:20:00Z</time>
      </trkpt>
      <trkpt lat="41.02415" lon="-8.35796">
        <ele>164.905</ele>
        <time>2019-10-18T20:20:20Z</time>
      </trkpt>
      <trkpt lat="41.02448" lon="-8.3583">
        <ele>166.825</ele>
        <time>2019-10-18T20:20:40Z</time>
      </trkpt>
      <trkpt lat="41.02468" lon="-8.35865">
        <ele>165.508</ele>
        <time>2019-10-18T20:21:00Z</time>
      </trkpt>
      <trkpt lat="41.02489" lon="-8.35902">
        <ele>167.551</ele>
        <time>2019-10-18T20:21:20Z</time>
      </trkpt>
      <trkpt lat="41.02517" lon="-8.35923">
        <ele>175.449</ele>
        <time>2019-10-18T20:21:40Z</time>
      </trkpt>
      <trkpt lat="41.0253" lon="-8.35959">
        <ele>176.131</ele>
        <time>2019-10-18T20:22:00Z</time>
      </trkpt>
      <trkpt lat="41.02542" lon="-8.36006">
        <ele>174.141</ele>
        <time>2019-10-18T20:22:20Z</time>
      </trkpt>
      <trkpt lat="41.02578" lon="-8.36033">
        <ele>181.563</ele>
        <time>2019-10-18T20:22:40Z</time>
      </trkpt>
      <trkpt lat="41.02607" lon="-8.36067">
        <ele>178.214</ele>
        <time>2019-10-18T20:23:00Z</time>
      </trkpt>
      <trkpt lat="41.02633" lon="-8.36101">
        <ele>174.566</ele>
        <time>2019-10-18T20:23:20Z</time>
      </trkpt>
      <trkpt lat="41.02666" lon="-8.36124">
        <ele>178.116</ele>
        <time>2019-10-18T20:23:40Z</time>
      </trkpt>
      <trkpt lat="41.02696" lon="-8.36134">
        <ele>179.751</ele>
        <time>2019-10-18T20:24:00Z</time>
      </trkpt>
      <trkpt lat="41.02724" lon="-8.36151">
        <ele>179.001</ele>
        <time>2019-10-18T20:24:20Z</time>
      </trkpt>
      <trkpt lat="41.02749" lon="-8.36167">
        <ele>180.711</ele>
        <time>2019-10-18T20:24:40Z</time>
      </trkpt>
      <trkpt lat="41.02777" lon="-8.36161">
        <ele>183.608</ele>
        <time>2019-10-18T20:25:00Z</time>
      </trkpt>
      <trkpt lat="41.02781" lon="-8.36118">
        <ele>187.189</ele>
        <time>2019-10-18T20:25:20Z</time>
      </trkpt>
      <trkpt lat="41.02777" lon="-8.36063">
        <ele>188.137</ele>
        <time>2019-10-18T20:25:40Z</time>
      </trkpt>
      <trkpt lat="41.02778" lon="-8.35993">
        <ele>184.699</ele>
        <time>2019-10-18T20:26:00Z</time>
      </trkpt>
      <trkpt lat="41.02765" lon="-8.35932">
        <ele>190.149</ele>
        <time>2019-10-18T20:26:20Z</time>
      </trkpt>
      <trkpt lat="41.02752" lon="-8.3591">
        <ele>191.511</ele>
        <time>2019-10-18T20:26:40Z</time>
      </trkpt>
      <trkpt lat="41.02757" lon="-8.35849">
        <ele>192.332</ele>
        <time>2019-10-18T20:27:00Z</time>
      </trkpt>
      <trkpt lat="41.02766" lon="-8.35818">
        <ele>190.414</ele>
        <time>2019-10-18T20:27:20Z</time>
      </trkpt>
      <trkpt lat="41.02767" lon="-8.35774">
        <ele>191.564</ele>
        <time>2019-10-18T20:27:40Z</time>
      </trkpt>
      <trkpt lat="41.02768" lon="-8.35767">
        <ele>192.033</ele>
        <time>2019-10-18T20:28:00Z</time>
      </trkpt>
      <trkpt lat="41.02798" lon="-8.35744">
        <ele>187.923</ele>
        <time>2019-10-18T20:28:20Z</time>
      </trkpt>
      <trkpt lat="41.02804" lon="-8.35746">
        <ele>186.015</ele>
        <time>2019-10-18T20:28:40Z</time>
      </trkpt>
      <trkpt lat="41.02848" lon="-8.35751">
        <ele>186.808</ele>
        <time>2019-10-18T20:29:00Z</time>
      </trkpt>
      <trkpt lat="41.02878" lon="-8.35754">
        <ele>184.767</ele>
        <time>2019-10-18T20:29:20Z</time>
      </trkpt>
      <trkpt lat="41.02931" lon="-8.35743">
        <ele>172.645</ele>
        <time>2019-10-18T20:29:40Z</time>
      </trkpt>
      <trkpt lat="41.0294" lon="-8.3574">
        <ele>170.837</ele>
        <time>2019-10-18T20:30:00Z</time>
      </trkpt>
      <trkpt lat="41.02963" lon="-8.35721">
        <ele>168.237</ele>
        <time>2019-10-18T20:30:20Z</time>
      </trkpt>
      <trkpt lat="41.02972" lon="-8.35712">
        <ele>167.279</ele>
        <time>2019-10-18T20:30:40Z</time>
      </trkpt>
      <trkpt lat="41.02983" lon="-8.35687">
        <ele>169.21</ele>
        <time>2019-10-18T20:31:00Z</time>
      </trkpt>
      <trkpt lat="41.03031" lon="-8.35653">
        <ele>166.422</ele>
        <time>2019-10-18T20:31:20Z</time>
      </trkpt>
      <trkpt lat="41.03078" lon="-8.35629">
        <ele>162.762</ele>
        <time>2019-10-18T20:31:40Z</time>
      </trkpt>
      <trkpt lat="41.03081" lon="-8.35621">
        <ele>163.325</ele>
        <time>2019-10-18T20:32:00Z</time>
      </trkpt>
      <trkpt lat="41.03094" lon="-8.35583">
        <ele>164.126</ele>
        <time>2019-10-18T20:32:20Z</time>
      </trkpt>
      <trkpt lat="41.03104" lon="-8.3556">
        <ele>163.608</ele>
        <time>2019-10-18T20:32:40Z</time>
      </trkpt>
      <trkpt lat="41.03124" lon="-8.35537">
        <ele>160.508</ele>
        <time>2019-10-18T20:33:00Z</time>
      </trkpt>
      <trkpt lat="41.03135" lon="-8.35527">
        <ele>158.986</ele>
        <time>2019-10-18T20:33:20Z</time>
      </trkpt>
      <trkpt lat="41.03166" lon="-8.35473">
        <ele>161.224</ele>
        <time>2019-10-18T20:33:40Z</time>
      </trkpt>
      <trkpt lat="41.03203" lon="-8.35451">
        <ele>159.476</ele>
        <time>2019-10-18T20:34:00Z</time>
      </trkpt>
      <trkpt lat="41.03218" lon="-8.3545">
        <ele>158.656</ele>
        <time>2019-10-18T20:34:20Z</time>
      </trkpt>
      <trkpt lat="41.03246" lon="-8.35436">
        <ele>161.238</ele>
        <time>2019-10-18T20:34:40Z</time>
      </trkpt>
      <trkpt lat="41.03281" lon="-8.35434">
        <ele>160.419</ele>
        <time>2019-10-18T20:35:00Z</time>
      </trkpt>
      <trkpt lat="41.03313" lon="-8.35441">
        <ele>160.481</ele>
        <time>2019-10-18T20:35:20Z</time>
      </trkpt>
      <trkpt lat="41.03335" lon="-8.35451">
        <ele>159.591</ele>
        <time>2019-10-18T20:35:40Z</time>
      </trkpt>
      <trkpt lat="41.03408" lon="-8.35491">
        <ele>156.264</ele>
        <time>2019-10-18T20:36:00Z</time>
      </trkpt>
      <trkpt lat="41.03425" lon="-8.35503">
        <ele>154.206</ele>
        <time>2019-10-18T20:36:20Z</time>
      </trkpt>
      <trkpt lat="41.03446" lon="-8.35524">
        <ele>150.716</ele>
        <time>2019-10-18T20:36:40Z</time>
      </trkpt>
      <trkpt lat="41.03478" lon="-8.3555">
        <ele>146.108</ele>
        <time>2019-10-18T20:37:00Z</time>
      </trkpt>
      <trkpt lat="41.03512" lon="-8.35579">
        <ele>143.37</ele>
        <time>2019-10-18T20:37:20Z</time>
      </trkpt>
      <trkpt lat="41.03535" lon="-8.35589">
        <ele>141.918</ele>
        <time>2019-10-18T20:37:40Z</time>
      </trkpt>
      <trkpt lat="41.03577" lon="-8.35574">
        <ele>140.74</ele>
        <time>2019-10-18T20:38:00Z</time>
      </trkpt>
      <trkpt lat="41.03589" lon="-8.35579">
        <ele>139.52</ele>
        <time>2019-10-18T20:38:20Z</time>
      </trkpt>
      <trkpt lat="41.03605" lon="-8.35602">
        <ele>138.172</ele>
        <time>2019-10-18T20:38:40Z</time>
      </trkpt>
      <trkpt lat="41.03619" lon="-8.35617">
        <ele>136.723</ele>
        <time>2019-10-18T20:39:00Z</time>
      </trkpt>
      <trkpt lat="41.03643" lon="-8.35644">
        <ele>133.585</ele>
        <time>2019-10-18T20:39:20Z</time>
      </trkpt>
      <trkpt lat="41.03676" lon="-8.35676">
        <ele>129.895</ele>
        <time>2019-10-18T20:39:40Z</time>
      </trkpt>
      <trkpt lat="41.03696" lon="-8.35691">
        <ele>128.917</ele>
        <time>2019-10-18T20:40:00Z</time>
      </trkpt>
      <trkpt lat="41.03727" lon="-8.35712">
        <ele>124.487</ele>
        <time>2019-10-18T20:40:20Z</time>
      </trkpt>
      <trkpt lat="41.03758" lon="-8.35736">
        <ele>118.315</ele>
        <time>2019-10-18T20:40:40Z</time>
      </trkpt>
      <trkpt lat="41.03783" lon="-8.3577">
        <ele>114.208</ele>
        <time>2019-10-18T20:41:00Z</time>
      </trkpt>
      <trkpt lat="41.03801" lon="-8.35799">
        <ele>112.045</ele>
        <time>2019-10-18T20:41:20Z</time>
      </trkpt>
      <trkpt lat="41.03807" lon="-8.35808">
        <ele>111.753</ele>
        <time>2019-10-18T20:41:40Z</time>
      </trkpt>
      <trkpt lat="41.03831" lon="-8.35864">
        <ele>109.195</ele>
        <time>2019-10-18T20:42:00Z</time>
      </trkpt>
      <trkpt lat="41.03862" lon="-8.35942">
        <ele>102.625</ele>
        <time>2019-10-18T20:42:20Z</time>
      </trkpt>
      <trkpt lat="41.03877" lon="-8.35973">
        <ele>98.937</ele>
        <time>2019-10-18T20:42:40Z</time>
      </trkpt>
      <trkpt lat="41.039" lon="-8.36015">
        <ele>94.528</ele>
        <time>2019-10-18T20:43:00Z</time>
      </trkpt>
      <trkpt lat="41.03906" lon="-8.36024">
        <ele>93.78</ele>
        <time>2019-10-18T20:43:20Z</time>
      </trkpt>
      <trkpt lat="41.03918" lon="-8.3604">
        <ele>92.05</ele>
        <time>2019-10-18T20:43:40Z</time>
      </trkpt>
      <trkpt lat="41.03933" lon="-8.36052">
        <ele>91.183</ele>
        <time>2019-10-18T20:44:00Z</time>
      </trkpt>
      <trkpt lat="41.03985" lon="-8.3609">
        <ele>89.325</ele>
        <time>2019-10-18T20:44:20Z</time>
      </trkpt>
      <trkpt lat="41.04017" lon="-8.36114">
        <ele>85.117</ele>
        <time>2019-10-18T20:44:40Z</time>
      </trkpt>
      <trkpt lat="41.04051" lon="-8.36136">
        <ele>77.108</ele>
        <time>2019-10-18T20:45:00Z</time>
      </trkpt>
      <trkpt lat="41.04077" lon="-8.36148">
        <ele>71.632</ele>
        <time>2019-10-18T20:45:20Z</time>
      </trkpt>
      <trkpt lat="41.041" lon="-8.36157">
        <ele>67.95</ele>
        <time>2019-10-18T20:45:40Z</time>
      </trkpt>
      <trkpt lat="41.04127" lon="-8.36165">
        <ele>66.162</ele>
        <time>2019-10-18T20:46:00Z</time>
      </trkpt>
      <trkpt lat="41.04143" lon="-8.36169">
        <ele>65.422</ele>
        <time>2019-10-18T20:46:20Z</time>
      </trkpt>
      <trkpt lat="41.04163" lon="-8.36175">
        <ele>64.694</ele>
        <time>2019-10-18T20:46:40Z</time>
      </trkpt>
      <trkpt lat="41.04196" lon="-8.36201">
        <ele>65.575</ele>
        <time>2019-10-18T20:47:00Z</time>
      </trkpt>
      <trkpt lat="41.04201" lon="-8.36207">
        <ele>64.957</ele>
        <time>2019-10-18T20:47:20Z</time>
      </trkpt>
      <trkpt lat="41.04217" lon="-8.36221">
        <ele>64.817</ele>
        <time>2019-10-18T20:47:40Z</time>
      </trkpt>
      <trkpt lat="41.04214" lon="-8.36243">
        <ele>64.455</ele>
        <time>2019-10-18T20:48:00Z</time>
      </trkpt>
      <trkpt lat="41.04232" lon="-8.36311">
        <ele>64.107</ele>
        <time>2019-10-18T20:48:20Z</time>
      </trkpt>
      <trkpt lat="41.04258" lon="-8.36384">
        <ele>66.117</ele>
        <time>2019-10-18T20:48:40Z</time>
      </trkpt>
      <trkpt lat="41.04269" lon="-8.36462">
        <ele>70.208</ele>
        <time>2019-10-18T20:49:00Z</time>
      </trkpt>
      <trkpt lat="41.04249" lon="-8.36489">
        <ele>72.519</ele>
        <time>2019-10-18T20:49:20Z</time>
      </trkpt>
      <trkpt lat="41.04213" lon="-8.36496">
        <ele>61.127</ele>
        <time>2019-10-18T20:49:40Z</time>
      </trkpt>
      <trkpt lat="41.04148" lon="-8.36625">
        <ele>57.469</ele>
        <time>2019-10-18T20:50:00Z</time>
      </trkpt>
      <trkpt lat="41.04113" lon="-8.36685">
        <ele>54.489</ele>
        <time>2019-10-18T20:50:20Z</time>
      </trkpt>
      <trkpt lat="41.0409" lon="-8.36741">
        <ele>48.681</ele>
        <time>2019-10-18T20:50:40Z</time>
      </trkpt>
      <trkpt lat="41.04134" lon="-8.36786">
        <ele>50.962</ele>
        <time>2019-10-18T20:51:00Z</time>
      </trkpt>
      <trkpt lat="41.04195" lon="-8.36776">
        <ele>55.334</ele>
        <time>2019-10-18T20:51:20Z</time>
      </trkpt>
      <trkpt lat="41.04219" lon="-8.36778">
        <ele>55.894</ele>
        <time>2019-10-18T20:51:40Z</time>
      </trkpt>
      <trkpt lat="41.04274" lon="-8.36843">
        <ele>48.338</ele>
        <time>2019-10-18T20:52:00Z</time>
      </trkpt>
      <trkpt lat="41.04346" lon="-8.36901">
        <ele>47.07</ele>
        <time>2019-10-18T20:52:20Z</time>
      </trkpt>
      <trkpt lat="41.04383" lon="-8.36915">
        <ele>51.717</ele>
        <time>2019-10-18T20:52:40Z</time>
      </trkpt>
      <trkpt lat="41.0455" lon="-8.37161">
        <ele>35.508</ele>
        <time>2019-10-18T20:53:00Z</time>
      </trkpt>
      <trkpt lat="41.04616" lon="-8.37313">
        <ele>21.837</ele>
        <time>2019-10-18T20:53:20Z</time>
      </trkpt>
      <trkpt lat="41.04653" lon="-8.37343">
        <ele>25.255</ele>
        <time>2019-10-18T20:53:40Z</time>
      </trkpt>
      <trkpt lat="41.04726" lon="-8.37499">
        <ele>19.877</ele>
        <time>2019-10-18T20:54:00Z</time>
      </trkpt>
      <trkpt lat="41.04772" lon="-8.37543">
        <ele>20.957</ele>
        <time>2019-10-18T20:54:20Z</time>
      </trkpt>
      <trkpt lat="41.04728" lon="-8.37637">
        <ele>14.799</ele>
        <time>2019-10-18T20:54:40Z</time>
      </trkpt>
      <trkpt lat="41.04702" lon="-8.37699">
        <ele>19.82</ele>
        <time>2019-10-18T20:55:00Z</time>
      </trkpt>
      <trkpt lat="41.04703" lon="-8.37722">
        <ele>24.322</ele>
        <time>2019-10-18T20:55:20Z</time>
      </trkpt>
      <trkpt lat="41.04755" lon="-8.37766">
        <ele>23.512</ele>
        <time>2019-10-18T20:55:40Z</time>
      </trkpt>
      <trkpt lat="41.04776" lon="-8.3778">
        <ele>21.366</ele>
        <time>2019-10-18T20:56:00Z</time>
      </trkpt>
      <trkpt lat="41.04764" lon="-8.37836">
        <ele>23.229</ele>
        <time>2019-10-18T20:56:20Z</time>
      </trkpt>
      <trkpt lat="41.0475" lon="-8.37909">
        <ele>20.021</ele>
        <time>2019-10-18T20:56:40Z</time>
      </trkpt>
      <trkpt lat="41.04737" lon="-8.3799">
        <ele>23.908</ele>
        <time>2019-10-18T20:57:00Z</time>
      </trkpt>
      <trkpt lat="41.04729" lon="-8.3809">
        <ele>23.69</ele>
        <time>2019-10-18T20:57:20Z</time>
      </trkpt>
      <trkpt lat="41.04734" lon="-8.38167">
        <ele>29.758</ele>
        <time>2019-10-18T20:57:40Z</time>
      </trkpt>
      <trkpt lat="41.04747" lon="-8.38248">
        <ele>31.95</ele>
        <time>2019-10-18T20:58:00Z</time>
      </trkpt>
      <trkpt lat="41.04754" lon="-8.38276">
        <ele>32.16</ele>
        <time>2019-10-18T20:58:20Z</time>
      </trkpt>
      <trkpt lat="41.04761" lon="-8.38318">
        <ele>32.172</ele>
        <time>2019-10-18T20:58:40Z</time>
      </trkpt>
      <trkpt lat="41.04769" lon="-8.38377">
        <ele>32.563</ele>
        <time>2019-10-18T20:59:00Z</time>
      </trkpt>
      <trkpt lat="41.04764" lon="-8.38419">
        <ele>35.545</ele>
        <time>2019-10-18T20:59:20Z</time>
      </trkpt>
      <trkpt lat="41.04757" lon="-8.3846">
        <ele>38.025</ele>
        <time>2019-10-18T20:59:40Z</time>
      </trkpt>
      <trkpt lat="41.04757" lon="-8.38478">
        <ele>38.659</ele>
        <time>2019-10-18T21:00:00Z</time>
      </trkpt>
      <trkpt lat="41.04754" lon="-8.38496">
        <ele>40.103</ele>
        <time>2019-10-18T21:00:20Z</time>
      </trkpt>
      <trkpt lat="41.04746" lon="-8.38538">
        <ele>46.523</ele>
        <time>2019-10-18T21:00:40Z</time>
      </trkpt>
      <trkpt lat="41.04743" lon="-8.38575">
        <ele>54.208</ele>
        <time>2019-10-18T21:01:00Z</time>
      </trkpt>
      <trkpt lat="41.04753" lon="-8.38614">
        <ele>55.569</ele>
        <time>2019-10-18T21:01:20Z</time>
      </trkpt>
      <trkpt lat="41.04762" lon="-8.38653">
        <ele>57.837</ele>
        <time>2019-10-18T21:01:40Z</time>
      </trkpt>
      <trkpt lat="41.04772" lon="-8.38692">
        <ele>59.079</ele>
        <time>2019-10-18T21:02:00Z</time>
      </trkpt>
      <trkpt lat="41.04783" lon="-8.38735">
        <ele>59.849</ele>
        <time>2019-10-18T21:02:20Z</time>
      </trkpt>
      <trkpt lat="41.04793" lon="-8.38775">
        <ele>62.611</ele>
        <time>2019-10-18T21:02:40Z</time>
      </trkpt>
      <trkpt lat="41.048" lon="-8.38815">
        <ele>66.642</ele>
        <time>2019-10-18T21:03:00Z</time>
      </trkpt>
      <trkpt lat="41.04805" lon="-8.3886">
        <ele>66.794</ele>
        <time>2019-10-18T21:03:20Z</time>
      </trkpt>
      <trkpt lat="41.04805" lon="-8.38911">
        <ele>66.814</ele>
        <time>2019-10-18T21:03:40Z</time>
      </trkpt>
      <trkpt lat="41.048" lon="-8.3895">
        <ele>72.747</ele>
        <time>2019-10-18T21:04:00Z</time>
      </trkpt>
      <trkpt lat="41.04789" lon="-8.38997">
        <ele>76.429</ele>
        <time>2019-10-18T21:04:20Z</time>
      </trkpt>
      <trkpt lat="41.04779" lon="-8.39028">
        <ele>77.821</ele>
        <time>2019-10-18T21:04:40Z</time>
      </trkpt>
      <trkpt lat="41.04762" lon="-8.39064">
        <ele>81.208</ele>
        <time>2019-10-18T21:05:00Z</time>
      </trkpt>
      <trkpt lat="41.04748" lon="-8.39093">
        <ele>80.838</ele>
        <time>2019-10-18T21:05:20Z</time>
      </trkpt>
      <trkpt lat="41.04727" lon="-8.39128">
        <ele>83.056</ele>
        <time>2019-10-18T21:05:40Z</time>
      </trkpt>
      <trkpt lat="41.0471" lon="-8.39157">
        <ele>88.028</ele>
        <time>2019-10-18T21:06:00Z</time>
      </trkpt>
      <trkpt lat="41.04692" lon="-8.39188">
        <ele>94.198</ele>
        <time>2019-10-18T21:06:20Z</time>
      </trkpt>
      <trkpt lat="41.04671" lon="-8.39224">
        <ele>98.55</ele>
        <time>2019-10-18T21:06:40Z</time>
      </trkpt>
      <trkpt lat="41.0465" lon="-8.39258">
        <ele>101.451</ele>
        <time>2019-10-18T21:07:00Z</time>
      </trkpt>
      <trkpt lat="41.04634" lon="-8.39287">
        <ele>103.383</ele>
        <time>2019-10-18T21:07:20Z</time>
      </trkpt>
      <trkpt lat="41.0462" lon="-8.39325">
        <ele>104.163</ele>
        <time>2019-10-18T21:07:40Z</time>
      </trkpt>
      <trkpt lat="41.04613" lon="-8.39367">
        <ele>107.031</ele>
        <time>2019-10-18T21:08:00Z</time>
      </trkpt>
      <trkpt lat="41.04607" lon="-8.3941">
        <ele>112.361</ele>
        <time>2019-10-18T21:08:20Z</time>
      </trkpt>
      <trkpt lat="41.04598" lon="-8.39454">
        <ele>116.107</ele>
        <time>2019-10-18T21:08:40Z</time>
      </trkpt>
      <trkpt lat="41.04587" lon="-8.39491">
        <ele>117.808</ele>
        <time>2019-10-18T21:09:00Z</time>
      </trkpt>
      <trkpt lat="41.04567" lon="-8.39526">
        <ele>118.457</ele>
        <time>2019-10-18T21:09:20Z</time>
      </trkpt>
      <trkpt lat="41.04535" lon="-8.39556">
        <ele>118.715</ele>
        <time>2019-10-18T21:09:40Z</time>
      </trkpt>
      <trkpt lat="41.04502" lon="-8.39572">
        <ele>117.057</ele>
        <time>2019-10-18T21:10:00Z</time>
      </trkpt>
      <trkpt lat="41.04456" lon="-8.39589">
        <ele>112.467</ele>
        <time>2019-10-18T21:10:20Z</time>
      </trkpt>
      <trkpt lat="41.044" lon="-8.39611">
        <ele>107.929</ele>
        <time>2019-10-18T21:10:40Z</time>
      </trkpt>
      <trkpt lat="41.04335" lon="-8.39638">
        <ele>113.24</ele>
        <time>2019-10-18T21:11:00Z</time>
      </trkpt>
      <trkpt lat="41.04266" lon="-8.39664">
        <ele>118.552</ele>
        <time>2019-10-18T21:11:20Z</time>
      </trkpt>
      <trkpt lat="41.04206" lon="-8.39684">
        <ele>122.842</ele>
        <time>2019-10-18T21:11:40Z</time>
      </trkpt>
      <trkpt lat="41.04141" lon="-8.39681">
        <ele>127.341</ele>
        <time>2019-10-18T21:12:00Z</time>
      </trkpt>
      <trkpt lat="41.0409" lon="-8.39655">
        <ele>129.181</ele>
        <time>2019-10-18T21:12:20Z</time>
      </trkpt>
      <trkpt lat="41.04043" lon="-8.39604">
        <ele>126.909</ele>
        <time>2019-10-18T21:12:40Z</time>
      </trkpt>
      <trkpt lat="41.04008" lon="-8.39551">
        <ele>124.108</ele>
        <time>2019-10-18T21:13:00Z</time>
      </trkpt>
      <trkpt lat="41.03969" lon="-8.39496">
        <ele>127.038</ele>
        <time>2019-10-18T21:13:20Z</time>
      </trkpt>
      <trkpt lat="41.0393" lon="-8.39462">
        <ele>117.176</ele>
        <time>2019-10-18T21:13:40Z</time>
      </trkpt>
      <trkpt lat="41.03895" lon="-8.39452">
        <ele>106.448</ele>
        <time>2019-10-18T21:14:00Z</time>
      </trkpt>
      <trkpt lat="41.03855" lon="-8.39463">
        <ele>108.828</ele>
        <time>2019-10-18T21:14:20Z</time>
      </trkpt>
      <trkpt lat="41.03819" lon="-8.39495">
        <ele>127.12</ele>
        <time>2019-10-18T21:14:40Z</time>
      </trkpt>
      <trkpt lat="41.0379" lon="-8.39539">
        <ele>142.091</ele>
        <time>2019-10-18T21:15:00Z</time>
      </trkpt>
      <trkpt lat="41.03766" lon="-8.39578">
        <ele>152.473</ele>
        <time>2019-10-18T21:15:20Z</time>
      </trkpt>
      <trkpt lat="41.03744" lon="-8.39613">
        <ele>157.053</ele>
        <time>2019-10-18T21:15:40Z</time>
      </trkpt>
      <trkpt lat="41.03714" lon="-8.39648">
        <ele>159.392</ele>
        <time>2019-10-18T21:16:00Z</time>
      </trkpt>
      <trkpt lat="41.03679" lon="-8.3967">
        <ele>159.873</ele>
        <time>2019-10-18T21:16:20Z</time>
      </trkpt>
      <trkpt lat="41.03641" lon="-8.39684">
        <ele>163.22</ele>
        <time>2019-10-18T21:16:40Z</time>
      </trkpt>
      <trkpt lat="41.036" lon="-8.39697">
        <ele>159.908</ele>
        <time>2019-10-18T21:17:00Z</time>
      </trkpt>
      <trkpt lat="41.0355" lon="-8.39716">
        <ele>151.113</ele>
        <time>2019-10-18T21:17:20Z</time>
      </trkpt>
      <trkpt lat="41.03522" lon="-8.39722">
        <ele>148.831</ele>
        <time>2019-10-18T21:17:40Z</time>
      </trkpt>
      <trkpt lat="41.03494" lon="-8.39706">
        <ele>148.573</ele>
        <time>2019-10-18T21:18:00Z</time>
      </trkpt>
      <trkpt lat="41.03486" lon="-8.39647">
        <ele>151.363</ele>
        <time>2019-10-18T21:18:20Z</time>
      </trkpt>
      <trkpt lat="41.0348" lon="-8.39602">
        <ele>155.545</ele>
        <time>2019-10-18T21:18:40Z</time>
      </trkpt>
      <trkpt lat="41.03451" lon="-8.39564">
        <ele>159.076</ele>
        <time>2019-10-18T21:19:00Z</time>
      </trkpt>
      <trkpt lat="41.03416" lon="-8.396">
        <ele>160.258</ele>
        <time>2019-10-18T21:19:20Z</time>
      </trkpt>
      <trkpt lat="41.03383" lon="-8.39658">
        <ele>163.228</ele>
        <time>2019-10-18T21:19:40Z</time>
      </trkpt>
      <trkpt lat="41.03341" lon="-8.39715">
        <ele>169.986</ele>
        <time>2019-10-18T21:20:00Z</time>
      </trkpt>
      <trkpt lat="41.03274" lon="-8.39726">
        <ele>174.16</ele>
        <time>2019-10-18T21:20:20Z</time>
      </trkpt>
      <trkpt lat="41.03256" lon="-8.39726">
        <ele>172.626</ele>
        <time>2019-10-18T21:20:40Z</time>
      </trkpt>
      <trkpt lat="41.03229" lon="-8.39727">
        <ele>170.208</ele>
        <time>2019-10-18T21:21:00Z</time>
      </trkpt>
      <trkpt lat="41.032" lon="-8.39727">
        <ele>165.842</ele>
        <time>2019-10-18T21:21:20Z</time>
      </trkpt>
      <trkpt lat="41.03169" lon="-8.39709">
        <ele>163.24</ele>
        <time>2019-10-18T21:21:40Z</time>
      </trkpt>
      <trkpt lat="41.03156" lon="-8.39695">
        <ele>165.032</ele>
        <time>2019-10-18T21:22:00Z</time>
      </trkpt>
      <trkpt lat="41.03106" lon="-8.3969">
        <ele>166.282</ele>
        <time>2019-10-18T21:22:20Z</time>
      </trkpt>
      <trkpt lat="41.03098" lon="-8.39697">
        <ele>165.964</ele>
        <time>2019-10-18T21:22:40Z</time>
      </trkpt>
      <trkpt lat="41.03036" lon="-8.39734">
        <ele>159.935</ele>
        <time>2019-10-18T21:23:00Z</time>
      </trkpt>
      <trkpt lat="41.02974" lon="-8.3975">
        <ele>150.267</ele>
        <time>2019-10-18T21:23:20Z</time>
      </trkpt>
      <trkpt lat="41.02963" lon="-8.39752">
        <ele>148.377</ele>
        <time>2019-10-18T21:23:40Z</time>
      </trkpt>
      <trkpt lat="41.02953" lon="-8.39754">
        <ele>146.812</ele>
        <time>2019-10-18T21:24:00Z</time>
      </trkpt>
      <trkpt lat="41.02896" lon="-8.39727">
        <ele>143.832</ele>
        <time>2019-10-18T21:24:20Z</time>
      </trkpt>
      <trkpt lat="41.02851" lon="-8.39697">
        <ele>144.905</ele>
        <time>2019-10-18T21:24:40Z</time>
      </trkpt>
      <trkpt lat="41.02788" lon="-8.39701">
        <ele>143.508</ele>
        <time>2019-10-18T21:25:00Z</time>
      </trkpt>
      <trkpt lat="41.0277" lon="-8.39729">
        <ele>145.645</ele>
        <time>2019-10-18T21:25:20Z</time>
      </trkpt>
      <trkpt lat="41.02766" lon="-8.39742">
        <ele>148.453</ele>
        <time>2019-10-18T21:25:40Z</time>
      </trkpt>
      <trkpt lat="41.02765" lon="-8.39805">
        <ele>150.275</ele>
        <time>2019-10-18T21:26:00Z</time>
      </trkpt>
      <trkpt lat="41.02794" lon="-8.39851">
        <ele>149.825</ele>
        <time>2019-10-18T21:26:20Z</time>
      </trkpt>
      <trkpt lat="41.0285" lon="-8.39864">
        <ele>157.817</ele>
        <time>2019-10-18T21:26:40Z</time>
      </trkpt>
      <trkpt lat="41.02887" lon="-8.39887">
        <ele>161.648</ele>
        <time>2019-10-18T21:27:00Z</time>
      </trkpt>
      <trkpt lat="41.02916" lon="-8.39914">
        <ele>161.29</ele>
        <time>2019-10-18T21:27:20Z</time>
      </trkpt>
      <trkpt lat="41.02939" lon="-8.39958">
        <ele>168.27</ele>
        <time>2019-10-18T21:27:40Z</time>
      </trkpt>
      <trkpt lat="41.02972" lon="-8.39981">
        <ele>161.386</ele>
        <time>2019-10-18T21:28:00Z</time>
      </trkpt>
      <trkpt lat="41.03023" lon="-8.39998">
        <ele>163.56</ele>
        <time>2019-10-18T21:28:20Z</time>
      </trkpt>
      <trkpt lat="41.03038" lon="-8.40034">
        <ele>170.926</ele>
        <time>2019-10-18T21:28:40Z</time>
      </trkpt>
      <trkpt lat="41.0305" lon="-8.4007">
        <ele>175.408</ele>
        <time>2019-10-18T21:29:00Z</time>
      </trkpt>
      <trkpt lat="41.03072" lon="-8.40129">
        <ele>179.422</ele>
        <time>2019-10-18T21:29:20Z</time>
      </trkpt>
      <trkpt lat="41.03084" lon="-8.40178">
        <ele>180.47</ele>
        <time>2019-10-18T21:29:40Z</time>
      </trkpt>
      <trkpt lat="41.03092" lon="-8.40233">
        <ele>183.172</ele>
        <time>2019-10-18T21:30:00Z</time>
      </trkpt>
      <trkpt lat="41.03114" lon="-8.40262">
        <ele>184.032</ele>
        <time>2019-10-18T21:30:20Z</time>
      </trkpt>
      <trkpt lat="41.03141" lon="-8.40288">
        <ele>183.684</ele>
        <time>2019-10-18T21:30:40Z</time>
      </trkpt>
      <trkpt lat="41.03152" lon="-8.40337">
        <ele>187.865</ele>
        <time>2019-10-18T21:31:00Z</time>
      </trkpt>
      <trkpt lat="41.03144" lon="-8.40369">
        <ele>191.117</ele>
        <time>2019-10-18T21:31:20Z</time>
      </trkpt>
      <trkpt lat="41.03132" lon="-8.40409">
        <ele>192.937</ele>
        <time>2019-10-18T21:31:40Z</time>
      </trkpt>
      <trkpt lat="41.03145" lon="-8.40456">
        <ele>192.079</ele>
        <time>2019-10-18T21:32:00Z</time>
      </trkpt>
      <trkpt lat="41.03158" lon="-8.40525">
        <ele>199.805</ele>
        <time>2019-10-18T21:32:20Z</time>
      </trkpt>
      <trkpt lat="41.03183" lon="-8.40559">
        <ele>202.425</ele>
        <time>2019-10-18T21:32:40Z</time>
      </trkpt>
      <trkpt lat="41.03219" lon="-8.40583">
        <ele>205.108</ele>
        <time>2019-10-18T21:33:00Z</time>
      </trkpt>
      <trkpt lat="41.03249" lon="-8.40621">
        <ele>207.141</ele>
        <time>2019-10-18T21:33:20Z</time>
      </trkpt>
      <trkpt lat="41.03258" lon="-8.40676">
        <ele>206.949</ele>
        <time>2019-10-18T21:33:40Z</time>
      </trkpt>
      <trkpt lat="41.03256" lon="-8.40741">
        <ele>205.751</ele>
        <time>2019-10-18T21:34:00Z</time>
      </trkpt>
      <trkpt lat="41.03254" lon="-8.40805">
        <ele>204.181</ele>
        <time>2019-10-18T21:34:20Z</time>
      </trkpt>
      <trkpt lat="41.03247" lon="-8.40869">
        <ele>199.573</ele>
        <time>2019-10-18T21:34:40Z</time>
      </trkpt>
      <trkpt lat="41.03233" lon="-8.4095">
        <ele>186.554</ele>
        <time>2019-10-18T21:35:00Z</time>
      </trkpt>
      <trkpt lat="41.0322" lon="-8.41024">
        <ele>180.246</ele>
        <time>2019-10-18T21:35:20Z</time>
      </trkpt>
      <trkpt lat="41.0321" lon="-8.41077">
        <ele>177.186</ele>
        <time>2019-10-18T21:35:40Z</time>
      </trkpt>
      <trkpt lat="41.03201" lon="-8.41131">
        <ele>179.929</ele>
        <time>2019-10-18T21:36:00Z</time>
      </trkpt>
      <trkpt lat="41.03198" lon="-8.41162">
        <ele>182.1</ele>
        <time>2019-10-18T21:36:20Z</time>
      </trkpt>
      <trkpt lat="41.03206" lon="-8.41236">
        <ele>182.42</ele>
        <time>2019-10-18T21:36:40Z</time>
      </trkpt>
      <trkpt lat="41.03217" lon="-8.4131">
        <ele>173.908</ele>
        <time>2019-10-18T21:37:00Z</time>
      </trkpt>
      <trkpt lat="41.03228" lon="-8.4137">
        <ele>163.946</ele>
        <time>2019-10-18T21:37:20Z</time>
      </trkpt>
      <trkpt lat="41.03239" lon="-8.41445">
        <ele>159.234</ele>
        <time>2019-10-18T21:37:40Z</time>
      </trkpt>
      <trkpt lat="41.03241" lon="-8.4146">
        <ele>159.466</ele>
        <time>2019-10-18T21:38:00Z</time>
      </trkpt>
      <trkpt lat="41.03223" lon="-8.41555">
        <ele>163.086</ele>
        <time>2019-10-18T21:38:20Z</time>
      </trkpt>
      <trkpt lat="41.0319" lon="-8.41621">
        <ele>159.868</ele>
        <time>2019-10-18T21:38:40Z</time>
      </trkpt>
      <trkpt lat="41.03145" lon="-8.41671">
        <ele>152.039</ele>
        <time>2019-10-18T21:39:00Z</time>
      </trkpt>
      <trkpt lat="41.03096" lon="-8.41713">
        <ele>144.431</ele>
        <time>2019-10-18T21:39:20Z</time>
      </trkpt>
      <trkpt lat="41.0305" lon="-8.41752">
        <ele>139.961</ele>
        <time>2019-10-18T21:39:40Z</time>
      </trkpt>
      <trkpt lat="41.03035" lon="-8.41766">
        <ele>139.055</ele>
        <time>2019-10-18T21:40:00Z</time>
      </trkpt>
      <trkpt lat="41.03008" lon="-8.41835">
        <ele>134.807</ele>
        <time>2019-10-18T21:40:20Z</time>
      </trkpt>
      <trkpt lat="41.03029" lon="-8.41908">
        <ele>131.217</ele>
        <time>2019-10-18T21:40:40Z</time>
      </trkpt>
      <trkpt lat="41.03043" lon="-8.41923">
        <ele>130.608</ele>
        <time>2019-10-18T21:41:00Z</time>
      </trkpt>
      <trkpt lat="41.03059" lon="-8.41933">
        <ele>130.699</ele>
        <time>2019-10-18T21:41:20Z</time>
      </trkpt>
      <trkpt lat="41.03116" lon="-8.41962">
        <ele>132.857</ele>
        <time>2019-10-18T21:41:40Z</time>
      </trkpt>
      <trkpt lat="41.03147" lon="-8.42009">
        <ele>130.729</ele>
        <time>2019-10-18T21:42:00Z</time>
      </trkpt>
      <trkpt lat="41.03192" lon="-8.42147">
        <ele>127.959</ele>
        <time>2019-10-18T21:42:20Z</time>
      </trkpt>
      <trkpt lat="41.03198" lon="-8.42168">
        <ele>125.481</ele>
        <time>2019-10-18T21:42:40Z</time>
      </trkpt>
      <trkpt lat="41.03217" lon="-8.42226">
        <ele>121.742</ele>
        <time>2019-10-18T21:43:00Z</time>
      </trkpt>
      <trkpt lat="41.03225" lon="-8.42249">
        <ele>121.884</ele>
        <time>2019-10-18T21:43:20Z</time>
      </trkpt>
      <trkpt lat="41.0326" lon="-8.42343">
        <ele>119.254</ele>
        <time>2019-10-18T21:43:40Z</time>
      </trkpt>
      <trkpt lat="41.03256" lon="-8.42416">
        <ele>119.928</ele>
        <time>2019-10-18T21:44:00Z</time>
      </trkpt>
      <trkpt lat="41.03235" lon="-8.42479">
        <ele>124.089</ele>
        <time>2019-10-18T21:44:20Z</time>
      </trkpt>
      <trkpt lat="41.03238" lon="-8.42526">
        <ele>122.617</ele>
        <time>2019-10-18T21:44:40Z</time>
      </trkpt>
      <trkpt lat="41.03185" lon="-8.42588">
        <ele>111.408</ele>
        <time>2019-10-18T21:45:00Z</time>
      </trkpt>
      <trkpt lat="41.03131" lon="-8.42626">
        <ele>100.466</ele>
        <time>2019-10-18T21:45:20Z</time>
      </trkpt>
      <trkpt lat="41.03122" lon="-8.42638">
        <ele>94.914</ele>
        <time>2019-10-18T21:45:40Z</time>
      </trkpt>
      <trkpt lat="41.03081" lon="-8.42684">
        <ele>93.676</ele>
        <time>2019-10-18T21:46:00Z</time>
      </trkpt>
      <trkpt lat="41.03077" lon="-8.42696">
        <ele>95.086</ele>
        <time>2019-10-18T21:46:20Z</time>
      </trkpt>
      <trkpt lat="41.03058" lon="-8.42762">
        <ele>97.768</ele>
        <time>2019-10-18T21:46:40Z</time>
      </trkpt>
      <trkpt lat="41.03041" lon="-8.42817">
        <ele>88.059</ele>
        <time>2019-10-18T21:47:00Z</time>
      </trkpt>
      <trkpt lat="41.03006" lon="-8.42872">
        <ele>82.711</ele>
        <time>2019-10-18T21:47:20Z</time>
      </trkpt>
      <trkpt lat="41.02996" lon="-8.42879">
        <ele>82.371</ele>
        <time>2019-10-18T21:47:40Z</time>
      </trkpt>
      <trkpt lat="41.02954" lon="-8.42907">
        <ele>83.266</ele>
        <time>2019-10-18T21:48:00Z</time>
      </trkpt>
      <trkpt lat="41.02923" lon="-8.42947">
        <ele>83.429</ele>
        <time>2019-10-18T21:48:20Z</time>
      </trkpt>
      <trkpt lat="41.02912" lon="-8.43022">
        <ele>78.121</ele>
        <time>2019-10-18T21:48:40Z</time>
      </trkpt>
      <trkpt lat="41.02932" lon="-8.4309">
        <ele>66.908</ele>
        <time>2019-10-18T21:49:00Z</time>
      </trkpt>
      <trkpt lat="41.02928" lon="-8.43135">
        <ele>58.16</ele>
        <time>2019-10-18T21:49:20Z</time>
      </trkpt>
      <trkpt lat="41.02888" lon="-8.43153">
        <ele>45.278</ele>
        <time>2019-10-18T21:49:40Z</time>
      </trkpt>
      <trkpt lat="41.02862" lon="-8.43137">
        <ele>49.07</ele>
        <time>2019-10-18T21:50:00Z</time>
      </trkpt>
      <trkpt lat="41.02845" lon="-8.43123">
        <ele>51.26</ele>
        <time>2019-10-18T21:50:20Z</time>
      </trkpt>
      <trkpt lat="41.02804" lon="-8.43086">
        <ele>50.492</ele>
        <time>2019-10-18T21:50:40Z</time>
      </trkpt>
      <trkpt lat="41.02722" lon="-8.43064">
        <ele>43.833</ele>
        <time>2019-10-18T21:51:00Z</time>
      </trkpt>
      <trkpt lat="41.02667" lon="-8.43055">
        <ele>39.265</ele>
        <time>2019-10-18T21:51:20Z</time>
      </trkpt>
      <trkpt lat="41.02642" lon="-8.43045">
        <ele>37.575</ele>
        <time>2019-10-18T21:51:40Z</time>
      </trkpt>
      <trkpt lat="41.02633" lon="-8.43039">
        <ele>37.027</ele>
        <time>2019-10-18T21:52:00Z</time>
      </trkpt>
      <trkpt lat="41.02592" lon="-8.42998">
        <ele>37.768</ele>
        <time>2019-10-18T21:52:20Z</time>
      </trkpt>
      <trkpt lat="41.02578" lon="-8.42983">
        <ele>39.814</ele>
        <time>2019-10-18T21:52:40Z</time>
      </trkpt>
      <trkpt lat="41.02561" lon="-8.42972">
        <ele>38.908</ele>
        <time>2019-10-18T21:53:00Z</time>
      </trkpt>
      <trkpt lat="41.02528" lon="-8.42977">
        <ele>23.946</ele>
        <time>2019-10-18T21:53:20Z</time>
      </trkpt>
      <trkpt lat="41.02456" lon="-8.43014">
        <ele>31.844</ele>
        <time>2019-10-18T21:53:40Z</time>
      </trkpt>
      <trkpt lat="41.02441" lon="-8.43015">
        <ele>33.646</ele>
        <time>2019-10-18T21:54:00Z</time>
      </trkpt>
      <trkpt lat="41.02403" lon="-8.43018">
        <ele>43.026</ele>
        <time>2019-10-18T21:54:20Z</time>
      </trkpt>
      <trkpt lat="41.02368" lon="-8.43018">
        <ele>44.478</ele>
        <time>2019-10-18T21:54:40Z</time>
      </trkpt>
      <trkpt lat="41.02325" lon="-8.43026">
        <ele>46.129</ele>
        <time>2019-10-18T21:55:00Z</time>
      </trkpt>
      <trkpt lat="41.02297" lon="-8.43043">
        <ele>49.571</ele>
        <time>2019-10-18T21:55:20Z</time>
      </trkpt>
      <trkpt lat="41.02277" lon="-8.43074">
        <ele>54.991</ele>
        <time>2019-10-18T21:55:40Z</time>
      </trkpt>
      <trkpt lat="41.02272" lon="-8.4308">
        <ele>55.754</ele>
        <time>2019-10-18T21:56:00Z</time>
      </trkpt>
      <trkpt lat="41.02241" lon="-8.431">
        <ele>56.156</ele>
        <time>2019-10-18T21:56:20Z</time>
      </trkpt>
      <trkpt lat="41.02209" lon="-8.43115">
        <ele>61.211</ele>
        <time>2019-10-18T21:56:40Z</time>
      </trkpt>
      <trkpt lat="41.02171" lon="-8.43111">
        <ele>61.708</ele>
        <time>2019-10-18T21:57:00Z</time>
      </trkpt>
      <trkpt lat="41.02131" lon="-8.43102">
        <ele>57.629</ele>
        <time>2019-10-18T21:57:20Z</time>
      </trkpt>
      <trkpt lat="41.02101" lon="-8.43118">
        <ele>59.437</ele>
        <time>2019-10-18T21:57:40Z</time>
      </trkpt>
      <trkpt lat="41.02066" lon="-8.43138">
        <ele>64.219</ele>
        <time>2019-10-18T21:58:00Z</time>
      </trkpt>
      <trkpt lat="41.02039" lon="-8.43123">
        <ele>66.469</ele>
        <time>2019-10-18T21:58:20Z</time>
      </trkpt>
      <trkpt lat="41.02007" lon="-8.43097">
        <ele>66.041</ele>
        <time>2019-10-18T21:58:40Z</time>
      </trkpt>
      <trkpt lat="41.01974" lon="-8.43104">
        <ele>67.542</ele>
        <time>2019-10-18T21:59:00Z</time>
      </trkpt>
      <trkpt lat="41.01966" lon="-8.43109">
        <ele>67.484</ele>
        <time>2019-10-18T21:59:20Z</time>
      </trkpt>
      <trkpt lat="41.01958" lon="-8.43127">
        <ele>66.694</ele>
        <time>2019-10-18T21:59:40Z</time>
      </trkpt>
      <trkpt lat="41.01953" lon="-8.43151">
        <ele>66.625</ele>
        <time>2019-10-18T22:00:00Z</time>
      </trkpt>
      <trkpt lat="41.01952" lon="-8.43162">
        <ele>67.026</ele>
        <time>2019-10-18T22:00:20Z</time>
      </trkpt>
      <trkpt lat="41.01952" lon="-8.4319">
        <ele>72.308</ele>
        <time>2019-10-18T22:00:40Z</time>
      </trkpt>
      <trkpt lat="41.01949" lon="-8.43214">
        <ele>78.008</ele>
        <time>2019-10-18T22:01:00Z</time>
      </trkpt>
      <trkpt lat="41.0195" lon="-8.43227">
        <ele>81.016</ele>
        <time>2019-10-18T22:01:20Z</time>
      </trkpt>
      <trkpt lat="41.0196" lon="-8.43251">
        <ele>84.674</ele>
        <time>2019-10-18T22:01:40Z</time>
      </trkpt>
      <trkpt lat="41.01969" lon="-8.43261">
        <ele>86.446</ele>
        <time>2019-10-18T22:02:00Z</time>
      </trkpt>
      <trkpt lat="41.01981" lon="-8.43277">
        <ele>88.846</ele>
        <time>2019-10-18T22:02:20Z</time>
      </trkpt>
      <trkpt lat="41.01999" lon="-8.43294">
        <ele>90.858</ele>
        <time>2019-10-18T22:02:40Z</time>
      </trkpt>
      <trkpt lat="41.02017" lon="-8.43319">
        <ele>95.529</ele>
        <time>2019-10-18T22:03:00Z</time>
      </trkpt>
      <trkpt lat="41.0204" lon="-8.43344">
        <ele>100.821</ele>
        <time>2019-10-18T22:03:20Z</time>
      </trkpt>
      <trkpt lat="41.02063" lon="-8.43367">
        <ele>104.451</ele>
        <time>2019-10-18T22:03:40Z</time>
      </trkpt>
      <trkpt lat="41.02089" lon="-8.43389">
        <ele>108.826</ele>
        <time>2019-10-18T22:04:00Z</time>
      </trkpt>
      <trkpt lat="41.02108" lon="-8.4341">
        <ele>111.447</ele>
        <time>2019-10-18T22:04:20Z</time>
      </trkpt>
      <trkpt lat="41.0213" lon="-8.43431">
        <ele>112.111</ele>
        <time>2019-10-18T22:04:40Z</time>
      </trkpt>
      <trkpt lat="41.02159" lon="-8.43455">
        <ele>111.008</ele>
        <time>2019-10-18T22:05:00Z</time>
      </trkpt>
      <trkpt lat="41.02168" lon="-8.43464">
        <ele>110.686</ele>
        <time>2019-10-18T22:05:20Z</time>
      </trkpt>
      <trkpt lat="41.02192" lon="-8.43486">
        <ele>108.214</ele>
        <time>2019-10-18T22:05:40Z</time>
      </trkpt>
      <trkpt lat="41.02212" lon="-8.43506">
        <ele>105.276</ele>
        <time>2019-10-18T22:06:00Z</time>
      </trkpt>
      <trkpt lat="41.02229" lon="-8.43525">
        <ele>102.056</ele>
        <time>2019-10-18T22:06:20Z</time>
      </trkpt>
      <trkpt lat="41.02247" lon="-8.43552">
        <ele>94.248</ele>
        <time>2019-10-18T22:06:40Z</time>
      </trkpt>
      <trkpt lat="41.02258" lon="-8.43575">
        <ele>87.879</ele>
        <time>2019-10-18T22:07:00Z</time>
      </trkpt>
      <trkpt lat="41.02263" lon="-8.43587">
        <ele>86.361</ele>
        <time>2019-10-18T22:07:20Z</time>
      </trkpt>
      <trkpt lat="41.02266" lon="-8.43666">
        <ele>95.341</ele>
        <time>2019-10-18T22:07:40Z</time>
      </trkpt>
      <trkpt lat="41.02265" lon="-8.43687">
        <ele>96.385</ele>
        <time>2019-10-18T22:08:00Z</time>
      </trkpt>
      <trkpt lat="41.02263" lon="-8.43723">
        <ele>97.089</ele>
        <time>2019-10-18T22:08:20Z</time>
      </trkpt>
      <trkpt lat="41.02262" lon="-8.43764">
        <ele>100.717</ele>
        <time>2019-10-18T22:08:40Z</time>
      </trkpt>
      <trkpt lat="41.02269" lon="-8.43795">
        <ele>106.008</ele>
        <time>2019-10-18T22:09:00Z</time>
      </trkpt>
      <trkpt lat="41.0228" lon="-8.43816">
        <ele>108.552</ele>
        <time>2019-10-18T22:09:20Z</time>
      </trkpt>
      <trkpt lat="41.02293" lon="-8.43837">
        <ele>110.23</ele>
        <time>2019-10-18T22:09:40Z</time>
      </trkpt>
      <trkpt lat="41.02301" lon="-8.43845">
        <ele>111.072</ele>
        <time>2019-10-18T22:10:00Z</time>
      </trkpt>
      <trkpt lat="41.02304" lon="-8.43852">
        <ele>111.622</ele>
        <time>2019-10-18T22:10:20Z</time>
      </trkpt>
      <trkpt lat="41.02307" lon="-8.43874">
        <ele>113.624</ele>
        <time>2019-10-18T22:10:40Z</time>
      </trkpt>
      <trkpt lat="41.02311" lon="-8.43906">
        <ele>117.225</ele>
        <time>2019-10-18T22:11:00Z</time>
      </trkpt>
      <trkpt lat="41.02313" lon="-8.43924">
        <ele>118.877</ele>
        <time>2019-10-18T22:11:20Z</time>
      </trkpt>
      <trkpt lat="41.02315" lon="-8.43956">
        <ele>120.367</ele>
        <time>2019-10-18T22:11:40Z</time>
      </trkpt>
      <trkpt lat="41.02327" lon="-8.43985">
        <ele>121.316</ele>
        <time>2019-10-18T22:12:00Z</time>
      </trkpt>
      <trkpt lat="41.02344" lon="-8.43982">
        <ele>123.776</ele>
        <time>2019-10-18T22:12:20Z</time>
      </trkpt>
      <trkpt lat="41.02366" lon="-8.43978">
        <ele>126.413</ele>
        <time>2019-10-18T22:12:40Z</time>
      </trkpt>
      <trkpt lat="41.02389" lon="-8.4398">
        <ele>126.508</ele>
        <time>2019-10-18T22:13:00Z</time>
      </trkpt>
      <trkpt lat="41.02411" lon="-8.43974">
        <ele>128.415</ele>
        <time>2019-10-18T22:13:20Z</time>
      </trkpt>
      <trkpt lat="41.02435" lon="-8.43971">
        <ele>131.063</ele>
        <time>2019-10-18T22:13:40Z</time>
      </trkpt>
      <trkpt lat="41.02458" lon="-8.43965">
        <ele>133.595</ele>
        <time>2019-10-18T22:14:00Z</time>
      </trkpt>
      <trkpt lat="41.0247" lon="-8.43965">
        <ele>134.685</ele>
        <time>2019-10-18T22:14:20Z</time>
      </trkpt>
      <trkpt lat="41.02495" lon="-8.43983">
        <ele>134.787</ele>
        <time>2019-10-18T22:14:40Z</time>
      </trkpt>
      <trkpt lat="41.02508" lon="-8.44019">
        <ele>137.298</ele>
        <time>2019-10-18T22:15:00Z</time>
      </trkpt>
      <trkpt lat="41.02527" lon="-8.4406">
        <ele>139.97</ele>
        <time>2019-10-18T22:15:20Z</time>
      </trkpt>
      <trkpt lat="41.0253" lon="-8.44089">
        <ele>140.12</ele>
        <time>2019-10-18T22:15:40Z</time>
      </trkpt>
      <trkpt lat="41.02533" lon="-8.44137">
        <ele>140.072</ele>
        <time>2019-10-18T22:16:00Z</time>
      </trkpt>
      <trkpt lat="41.02539" lon="-8.44168">
        <ele>141.113</ele>
        <time>2019-10-18T22:16:20Z</time>
      </trkpt>
      <trkpt lat="41.02554" lon="-8.44194">
        <ele>143.914</ele>
        <time>2019-10-18T22:16:40Z</time>
      </trkpt>
      <trkpt lat="41.02565" lon="-8.44226">
        <ele>149.208</ele>
        <time>2019-10-18T22:17:00Z</time>
      </trkpt>
      <trkpt lat="41.02574" lon="-8.44247">
        <ele>152.691</ele>
        <time>2019-10-18T22:17:20Z</time>
      </trkpt>
      <trkpt lat="41.02584" lon="-8.44278">
        <ele>154.999</ele>
        <time>2019-10-18T22:17:40Z</time>
      </trkpt>
      <trkpt lat="41.02592" lon="-8.44308">
        <ele>155.461</ele>
        <time>2019-10-18T22:18:00Z</time>
      </trkpt>
      <trkpt lat="41.026" lon="-8.44343">
        <ele>156.191</ele>
        <time>2019-10-18T22:18:20Z</time>
      </trkpt>
      <trkpt lat="41.02615" lon="-8.4437">
        <ele>157.953</ele>
        <time>2019-10-18T22:18:40Z</time>
      </trkpt>
      <trkpt lat="41.02636" lon="-8.44384">
        <ele>161.374</ele>
        <time>2019-10-18T22:19:00Z</time>
      </trkpt>
      <trkpt lat="41.02653" lon="-8.44415">
        <ele>164.456</ele>
        <time>2019-10-18T22:19:20Z</time>
      </trkpt>
      <trkpt lat="41.02665" lon="-8.44437">
        <ele>165.836</ele>
        <time>2019-10-18T22:19:40Z</time>
      </trkpt>
      <trkpt lat="41.02681" lon="-8.4446">
        <ele>167.651</ele>
        <time>2019-10-18T22:20:00Z</time>
      </trkpt>
      <trkpt lat="41.02706" lon="-8.44474">
        <ele>171.401</ele>
        <time>2019-10-18T22:20:20Z</time>
      </trkpt>
      <trkpt lat="41.02726" lon="-8.44489">
        <ele>175.511</ele>
        <time>2019-10-18T22:20:40Z</time>
      </trkpt>
      <trkpt lat="41.02745" lon="-8.44509">
        <ele>180.808</ele>
        <time>2019-10-18T22:21:00Z</time>
      </trkpt>
      <trkpt lat="41.02758" lon="-8.44526">
        <ele>184.439</ele>
        <time>2019-10-18T22:21:20Z</time>
      </trkpt>
      <trkpt lat="41.02761" lon="-8.44533">
        <ele>184.957</ele>
        <time>2019-10-18T22:21:40Z</time>
      </trkpt>
      <trkpt lat="41.02768" lon="-8.44541">
        <ele>185.559</ele>
        <time>2019-10-18T22:22:00Z</time>
      </trkpt>
      <trkpt lat="41.02781" lon="-8.44577">
        <ele>185.979</ele>
        <time>2019-10-18T22:22:20Z</time>
      </trkpt>
      <trkpt lat="41.02786" lon="-8.44608">
        <ele>185.721</ele>
        <time>2019-10-18T22:22:40Z</time>
      </trkpt>
      <trkpt lat="41.02791" lon="-8.44656">
        <ele>187.512</ele>
        <time>2019-10-18T22:23:00Z</time>
      </trkpt>
      <trkpt lat="41.02815" lon="-8.447">
        <ele>189.064</ele>
        <time>2019-10-18T22:23:20Z</time>
      </trkpt>
      <trkpt lat="41.02821" lon="-8.44711">
        <ele>188.394</ele>
        <time>2019-10-18T22:23:40Z</time>
      </trkpt>
      <trkpt lat="41.02841" lon="-8.44734">
        <ele>187.359</ele>
        <time>2019-10-18T22:24:00Z</time>
      </trkpt>
      <trkpt lat="41.0287" lon="-8.44756">
        <ele>187.803</ele>
        <time>2019-10-18T22:24:20Z</time>
      </trkpt>
      <trkpt lat="41.02884" lon="-8.44779">
        <ele>190.823</ele>
        <time>2019-10-18T22:24:40Z</time>
      </trkpt>
      <trkpt lat="41.02904" lon="-8.44814">
        <ele>194.708</ele>
        <time>2019-10-18T22:25:00Z</time>
      </trkpt>
      <trkpt lat="41.02927" lon="-8.44845">
        <ele>194.429</ele>
        <time>2019-10-18T22:25:20Z</time>
      </trkpt>
      <trkpt lat="41.02966" lon="-8.44894">
        <ele>191.197</ele>
        <time>2019-10-18T22:25:40Z</time>
      </trkpt>
      <trkpt lat="41.03009" lon="-8.44961">
        <ele>187.649</ele>
        <time>2019-10-18T22:26:00Z</time>
      </trkpt>
      <trkpt lat="41.03038" lon="-8.44999">
        <ele>187.489</ele>
        <time>2019-10-18T22:26:20Z</time>
      </trkpt>
      <trkpt lat="41.03065" lon="-8.45039">
        <ele>190.071</ele>
        <time>2019-10-18T22:26:40Z</time>
      </trkpt>
      <trkpt lat="41.03085" lon="-8.45072">
        <ele>193.772</ele>
        <time>2019-10-18T22:27:00Z</time>
      </trkpt>
      <trkpt lat="41.03102" lon="-8.45099">
        <ele>196.544</ele>
        <time>2019-10-18T22:27:20Z</time>
      </trkpt>
      <trkpt lat="41.03118" lon="-8.45132">
        <ele>201.014</ele>
        <time>2019-10-18T22:27:40Z</time>
      </trkpt>
      <trkpt lat="41.0313" lon="-8.4516">
        <ele>204.876</ele>
        <time>2019-10-18T22:28:00Z</time>
      </trkpt>
      <trkpt lat="41.03134" lon="-8.4519">
        <ele>207.29</ele>
        <time>2019-10-18T22:28:20Z</time>
      </trkpt>
      <trkpt lat="41.03131" lon="-8.45216">
        <ele>208.919</ele>
        <time>2019-10-18T22:28:40Z</time>
      </trkpt>
      <trkpt lat="41.03136" lon="-8.45251">
        <ele>210.408</ele>
        <time>2019-10-18T22:29:00Z</time>
      </trkpt>
      <trkpt lat="41.03149" lon="-8.45303">
        <ele>207.951</ele>
        <time>2019-10-18T22:29:20Z</time>
      </trkpt>
      <trkpt lat="41.03165" lon="-8.45355">
        <ele>203.839</ele>
        <time>2019-10-18T22:29:40Z</time>
      </trkpt>
      <trkpt lat="41.03187" lon="-8.45437">
        <ele>197.061</ele>
        <time>2019-10-18T22:30:00Z</time>
      </trkpt>
      <trkpt lat="41.03214" lon="-8.45494">
        <ele>193.541</ele>
        <time>2019-10-18T22:30:20Z</time>
      </trkpt>
      <trkpt lat="41.03298" lon="-8.45705">
        <ele>190.933</ele>
        <time>2019-10-18T22:30:40Z</time>
      </trkpt>
      <trkpt lat="41.03397" lon="-8.45855">
        <ele>192.414</ele>
        <time>2019-10-18T22:31:00Z</time>
      </trkpt>
      <trkpt lat="41.03422" lon="-8.45858">
        <ele>193.556</ele>
        <time>2019-10-18T22:31:20Z</time>
      </trkpt>
      <trkpt lat="41.03521" lon="-8.45761">
        <ele>203.436</ele>
        <time>2019-10-18T22:31:40Z</time>
      </trkpt>
      <trkpt lat="41.03567" lon="-8.45608">
        <ele>212.793</ele>
        <time>2019-10-18T22:32:00Z</time>
      </trkpt>
      <trkpt lat="41.03745" lon="-8.45558">
        <ele>186.965</ele>
        <time>2019-10-18T22:32:20Z</time>
      </trkpt>
      <trkpt lat="41.03826" lon="-8.45535">
        <ele>178.321</ele>
        <time>2019-10-18T22:32:40Z</time>
      </trkpt>
      <trkpt lat="41.04023" lon="-8.45668">
        <ele>157.108</ele>
        <time>2019-10-18T22:33:00Z</time>
      </trkpt>
      <trkpt lat="41.04058" lon="-8.45761">
        <ele>154.073</ele>
        <time>2019-10-18T22:33:20Z</time>
      </trkpt>
      <trkpt lat="41.04131" lon="-8.45785">
        <ele>150.521</ele>
        <time>2019-10-18T22:33:40Z</time>
      </trkpt>
      <trkpt lat="41.0415" lon="-8.45781">
        <ele>148.523</ele>
        <time>2019-10-18T22:34:00Z</time>
      </trkpt>
      <trkpt lat="41.0417" lon="-8.45752">
        <ele>145.933</ele>
        <time>2019-10-18T22:34:20Z</time>
      </trkpt>
      <trkpt lat="41.04207" lon="-8.45767">
        <ele>144.785</ele>
        <time>2019-10-18T22:34:40Z</time>
      </trkpt>
      <trkpt lat="41.04251" lon="-8.45807">
        <ele>144.036</ele>
        <time>2019-10-18T22:35:00Z</time>
      </trkpt>
      <trkpt lat="41.043" lon="-8.45862">
        <ele>145.028</ele>
        <time>2019-10-18T22:35:20Z</time>
      </trkpt>
      <trkpt lat="41.04347" lon="-8.45914">
        <ele>144.548</ele>
        <time>2019-10-18T22:35:40Z</time>
      </trkpt>
      <trkpt lat="41.04387" lon="-8.45952">
        <ele>145.922</ele>
        <time>2019-10-18T22:36:00Z</time>
      </trkpt>
      <trkpt lat="41.04442" lon="-8.45999">
        <ele>146.962</ele>
        <time>2019-10-18T22:36:20Z</time>
      </trkpt>
      <trkpt lat="41.04487" lon="-8.46057">
        <ele>149.008</ele>
        <time>2019-10-18T22:36:40Z</time>
      </trkpt>
      <trkpt lat="41.04518" lon="-8.46113">
        <ele>148.208</ele>
        <time>2019-10-18T22:37:00Z</time>
      </trkpt>
      <trkpt lat="41.04545" lon="-8.46157">
        <ele>150.776</ele>
        <time>2019-10-18T22:37:20Z</time>
      </trkpt>
      <trkpt lat="41.04568" lon="-8.46192">
        <ele>153.494</ele>
        <time>2019-10-18T22:37:40Z</time>
      </trkpt>
      <trkpt lat="41.04595" lon="-8.46231">
        <ele>155.446</ele>
        <time>2019-10-18T22:38:00Z</time>
      </trkpt>
      <trkpt lat="41.04626" lon="-8.46258">
        <ele>156.586</ele>
        <time>2019-10-18T22:38:20Z</time>
      </trkpt>
      <trkpt lat="41.04678" lon="-8.46281">
        <ele>158.798</ele>
        <time>2019-10-18T22:38:40Z</time>
      </trkpt>
      <trkpt lat="41.04824" lon="-8.46333">
        <ele>172.049</ele>
        <time>2019-10-18T22:39:00Z</time>
      </trkpt>
      <trkpt lat="41.04945" lon="-8.4632">
        <ele>158.581</ele>
        <time>2019-10-18T22:39:20Z</time>
      </trkpt>
      <trkpt lat="41.05169" lon="-8.46356">
        <ele>144.661</ele>
        <time>2019-10-18T22:39:40Z</time>
      </trkpt>
      <trkpt lat="41.05331" lon="-8.46313">
        <ele>135.178</ele>
        <time>2019-10-18T22:40:00Z</time>
      </trkpt>
      <trkpt lat="41.05419" lon="-8.4624">
        <ele>130.833</ele>
        <time>2019-10-18T22:40:20Z</time>
      </trkpt>
      <trkpt lat="41.05565" lon="-8.46316">
        <ele>129.526</ele>
        <time>2019-10-18T22:40:40Z</time>
      </trkpt>
      <trkpt lat="41.056" lon="-8.4633">
        <ele>127.308</ele>
        <time>2019-10-18T22:41:00Z</time>
      </trkpt>
      <trkpt lat="41.05686" lon="-8.46203">
        <ele>115.991</ele>
        <time>2019-10-18T22:41:20Z</time>
      </trkpt>
      <trkpt lat="41.0574" lon="-8.46196">
        <ele>114.919</ele>
        <time>2019-10-18T22:41:40Z</time>
      </trkpt>
      <trkpt lat="41.05851" lon="-8.46349">
        <ele>106.241</ele>
        <time>2019-10-18T22:42:00Z</time>
      </trkpt>
      <trkpt lat="41.05937" lon="-8.46429">
        <ele>103.741</ele>
        <time>2019-10-18T22:42:20Z</time>
      </trkpt>
      <trkpt lat="41.06002" lon="-8.46489">
        <ele>102.233</ele>
        <time>2019-10-18T22:42:40Z</time>
      </trkpt>
      <trkpt lat="41.06037" lon="-8.46533">
        <ele>104.024</ele>
        <time>2019-10-18T22:43:00Z</time>
      </trkpt>
      <trkpt lat="41.06074" lon="-8.46566">
        <ele>103.626</ele>
        <time>2019-10-18T22:43:20Z</time>
      </trkpt>
      <trkpt lat="41.06115" lon="-8.46596">
        <ele>105.586</ele>
        <time>2019-10-18T22:43:40Z</time>
      </trkpt>
      <trkpt lat="41.06134" lon="-8.46605">
        <ele>105.871</ele>
        <time>2019-10-18T22:44:00Z</time>
      </trkpt>
      <trkpt lat="41.06139" lon="-8.46607">
        <ele>105.941</ele>
        <time>2019-10-18T22:44:20Z</time>
      </trkpt>
      <trkpt lat="41.06175" lon="-8.46625">
        <ele>107.815</ele>
        <time>2019-10-18T22:44:40Z</time>
      </trkpt>
      <trkpt lat="41.06212" lon="-8.46637">
        <ele>107.708</ele>
        <time>2019-10-18T22:45:00Z</time>
      </trkpt>
      <trkpt lat="41.06255" lon="-8.4666">
        <ele>105.851</ele>
        <time>2019-10-18T22:45:20Z</time>
      </trkpt>
      <trkpt lat="41.06289" lon="-8.46682">
        <ele>106.949</ele>
        <time>2019-10-18T22:45:40Z</time>
      </trkpt>
      <trkpt lat="41.06316" lon="-8.46706">
        <ele>109.581</ele>
        <time>2019-10-18T22:46:00Z</time>
      </trkpt>
      <trkpt lat="41.06342" lon="-8.46723">
        <ele>112.361</ele>
        <time>2019-10-18T22:46:20Z</time>
      </trkpt>
      <trkpt lat="41.06368" lon="-8.46742">
        <ele>113.073</ele>
        <time>2019-10-18T22:46:40Z</time>
      </trkpt>
      <trkpt lat="41.06401" lon="-8.46768">
        <ele>116.094</ele>
        <time>2019-10-18T22:47:00Z</time>
      </trkpt>
      <trkpt lat="41.0643" lon="-8.46791">
        <ele>117.356</ele>
        <time>2019-10-18T22:47:20Z</time>
      </trkpt>
      <trkpt lat="41.06461" lon="-8.46826">
        <ele>116.446</ele>
        <time>2019-10-18T22:47:40Z</time>
      </trkpt>
      <trkpt lat="41.06473" lon="-8.46841">
        <ele>116.015</ele>
        <time>2019-10-18T22:48:00Z</time>
      </trkpt>
      <trkpt lat="41.06497" lon="-8.46889">
        <ele>111.465</ele>
        <time>2019-10-18T22:48:20Z</time>
      </trkpt>
      <trkpt lat="41.06518" lon="-8.46947">
        <ele>110.511</ele>
        <time>2019-10-18T22:48:40Z</time>
      </trkpt>
      <trkpt lat="41.06536" lon="-8.47006">
        <ele>106.408</ele>
        <time>2019-10-18T22:49:00Z</time>
      </trkpt>
      <trkpt lat="41.06554" lon="-8.47066">
        <ele>107.425</ele>
        <time>2019-10-18T22:49:20Z</time>
      </trkpt>
      <trkpt lat="41.06581" lon="-8.47143">
        <ele>107.163</ele>
        <time>2019-10-18T22:49:40Z</time>
      </trkpt>
      <trkpt lat="41.06626" lon="-8.47271">
        <ele>110.355</ele>
        <time>2019-10-18T22:50:00Z</time>
      </trkpt>
      <trkpt lat="41.06652" lon="-8.47317">
        <ele>108.995</ele>
        <time>2019-10-18T22:50:20Z</time>
      </trkpt>
      <trkpt lat="41.06675" lon="-8.47345">
        <ele>108.397</ele>
        <time>2019-10-18T22:50:40Z</time>
      </trkpt>
      <trkpt lat="41.06706" lon="-8.47415">
        <ele>109.438</ele>
        <time>2019-10-18T22:51:00Z</time>
      </trkpt>
      <trkpt lat="41.06712" lon="-8.47487">
        <ele>110.81</ele>
        <time>2019-10-18T22:51:20Z</time>
      </trkpt>
      <trkpt lat="41.06714" lon="-8.47539">
        <ele>108.63</ele>
        <time>2019-10-18T22:51:40Z</time>
      </trkpt>
      <trkpt lat="41.06714" lon="-8.47591">
        <ele>107.036</ele>
        <time>2019-10-18T22:52:00Z</time>
      </trkpt>
      <trkpt lat="41.06713" lon="-8.47613">
        <ele>107.017</ele>
        <time>2019-10-18T22:52:20Z</time>
      </trkpt>
      <trkpt lat="41.06712" lon="-8.4763">
        <ele>107.418</ele>
        <time>2019-10-18T22:52:40Z</time>
      </trkpt>
      <trkpt lat="41.06711" lon="-8.47656">
        <ele>107.808</ele>
        <time>2019-10-18T22:53:00Z</time>
      </trkpt>
      <trkpt lat="41.06705" lon="-8.47676">
        <ele>107.727</ele>
        <time>2019-10-18T22:53:20Z</time>
      </trkpt>
      <trkpt lat="41.06693" lon="-8.47735">
        <ele>107.635</ele>
        <time>2019-10-18T22:53:40Z</time>
      </trkpt>
      <trkpt lat="41.06691" lon="-8.47763">
        <ele>107.757</ele>
        <time>2019-10-18T22:54:00Z</time>
      </trkpt>
      <trkpt lat="41.0669" lon="-8.47828">
        <ele>106.527</ele>
        <time>2019-10-18T22:54:20Z</time>
      </trkpt>
      <trkpt lat="41.06689" lon="-8.47845">
        <ele>106.489</ele>
        <time>2019-10-18T22:54:40Z</time>
      </trkpt>
      <trkpt lat="41.06687" lon="-8.4786">
        <ele>106.57</ele>
        <time>2019-10-18T22:55:00Z</time>
      </trkpt>
      <trkpt lat="41.0669" lon="-8.4795">
        <ele>110.282</ele>
        <time>2019-10-18T22:55:20Z</time>
      </trkpt>
      <trkpt lat="41.06693" lon="-8.4799">
        <ele>110.162</ele>
        <time>2019-10-18T22:55:40Z</time>
      </trkpt>
      <trkpt lat="41.06687" lon="-8.48009">
        <ele>110.418</ele>
        <time>2019-10-18T22:56:00Z</time>
      </trkpt>
      <trkpt lat="41.06673" lon="-8.48037">
        <ele>110.898</ele>
        <time>2019-10-18T22:56:20Z</time>
      </trkpt>
      <trkpt lat="41.06668" lon="-8.48093">
        <ele>110.017</ele>
        <time>2019-10-18T22:56:40Z</time>
      </trkpt>
      <trkpt lat="41.06665" lon="-8.48186">
        <ele>112.008</ele>
        <time>2019-10-18T22:57:00Z</time>
      </trkpt>
      <trkpt lat="41.06664" lon="-8.48276">
        <ele>112.725</ele>
        <time>2019-10-18T22:57:20Z</time>
      </trkpt>
      <trkpt lat="41.06665" lon="-8.48318">
        <ele>112.383</ele>
        <time>2019-10-18T22:57:40Z</time>
      </trkpt>
      <trkpt lat="41.06681" lon="-8.48398">
        <ele>108.595</ele>
        <time>2019-10-18T22:58:00Z</time>
      </trkpt>
      <trkpt lat="41.06682" lon="-8.48448">
        <ele>106.535</ele>
        <time>2019-10-18T22:58:20Z</time>
      </trkpt>
      <trkpt lat="41.06679" lon="-8.48475">
        <ele>105.787</ele>
        <time>2019-10-18T22:58:40Z</time>
      </trkpt>
      <trkpt lat="41.06691" lon="-8.48528">
        <ele>103.028</ele>
        <time>2019-10-18T22:59:00Z</time>
      </trkpt>
      <trkpt lat="41.06695" lon="-8.48537">
        <ele>101.96</ele>
        <time>2019-10-18T22:59:20Z</time>
      </trkpt>
      <trkpt lat="41.06723" lon="-8.48582">
        <ele>94.14</ele>
        <time>2019-10-18T22:59:40Z</time>
      </trkpt>
      <trkpt lat="41.06732" lon="-8.48598">
        <ele>92.228</ele>
        <time>2019-10-18T23:00:00Z</time>
      </trkpt>
      <trkpt lat="41.06743" lon="-8.48648">
        <ele>88.489</ele>
        <time>2019-10-18T23:00:20Z</time>
      </trkpt>
      <trkpt lat="41.06742" lon="-8.48695">
        <ele>84.417</ele>
        <time>2019-10-18T23:00:40Z</time>
      </trkpt>
      <trkpt lat="41.06742" lon="-8.48731">
        <ele>83.408</ele>
        <time>2019-10-18T23:01:00Z</time>
      </trkpt>
      <trkpt lat="41.06742" lon="-8.48798">
        <ele>80.956</ele>
        <time>2019-10-18T23:01:20Z</time>
      </trkpt>
      <trkpt lat="41.06748" lon="-8.48938">
        <ele>76.384</ele>
        <time>2019-10-18T23:01:40Z</time>
      </trkpt>
      <trkpt lat="41.06746" lon="-8.49055">
        <ele>75.496</ele>
        <time>2019-10-18T23:02:00Z</time>
      </trkpt>
      <trkpt lat="41.06744" lon="-8.49125">
        <ele>77.756</ele>
        <time>2019-10-18T23:02:20Z</time>
      </trkpt>
      <trkpt lat="41.06748" lon="-8.4915">
        <ele>77.048</ele>
        <time>2019-10-18T23:02:40Z</time>
      </trkpt>
      <trkpt lat="41.06793" lon="-8.49208">
        <ele>77.519</ele>
        <time>2019-10-18T23:03:00Z</time>
      </trkpt>
      <trkpt lat="41.06848" lon="-8.49204">
        <ele>69.821</ele>
        <time>2019-10-18T23:03:20Z</time>
      </trkpt>
      <trkpt lat="41.06884" lon="-8.49155">
        <ele>63.031</ele>
        <time>2019-10-18T23:03:40Z</time>
      </trkpt>
      <trkpt lat="41.0689" lon="-8.4911">
        <ele>62.556</ele>
        <time>2019-10-18T23:04:00Z</time>
      </trkpt>
      <trkpt lat="41.06888" lon="-8.49016">
        <ele>56.159</ele>
        <time>2019-10-18T23:04:20Z</time>
      </trkpt>
      <trkpt lat="41.06888" lon="-8.49004">
        <ele>56.214</ele>
        <time>2019-10-18T23:04:40Z</time>
      </trkpt>
      <trkpt lat="41.06889" lon="-8.48915">
        <ele>58.308</ele>
        <time>2019-10-18T23:05:00Z</time>
      </trkpt>
      <trkpt lat="41.069" lon="-8.48858">
        <ele>59.669</ele>
        <time>2019-10-18T23:05:20Z</time>
      </trkpt>
      <trkpt lat="41.06911" lon="-8.48812">
        <ele>56.647</ele>
        <time>2019-10-18T23:05:40Z</time>
      </trkpt>
      <trkpt lat="41.06918" lon="-8.48775">
        <ele>56.829</ele>
        <time>2019-10-18T23:06:00Z</time>
      </trkpt>
      <trkpt lat="41.0694" lon="-8.48724">
        <ele>53.669</ele>
        <time>2019-10-18T23:06:20Z</time>
      </trkpt>
      <trkpt lat="41.06954" lon="-8.4871">
        <ele>49.421</ele>
        <time>2019-10-18T23:06:40Z</time>
      </trkpt>
      <trkpt lat="41.06983" lon="-8.48686">
        <ele>39.872</ele>
        <time>2019-10-18T23:07:00Z</time>
      </trkpt>
      <trkpt lat="41.07003" lon="-8.48664">
        <ele>37.174</ele>
        <time>2019-10-18T23:07:20Z</time>
      </trkpt>
      <trkpt lat="41.07016" lon="-8.48612">
        <ele>33.664</ele>
        <time>2019-10-18T23:07:40Z</time>
      </trkpt>
      <trkpt lat="41.07018" lon="-8.486">
        <ele>31.965</ele>
        <time>2019-10-18T23:08:00Z</time>
      </trkpt>
      <trkpt lat="41.07049" lon="-8.48563">
        <ele>26.068</ele>
        <time>2019-10-18T23:08:20Z</time>
      </trkpt>
      <trkpt lat="41.07069" lon="-8.48566">
        <ele>25.314</ele>
        <time>2019-10-18T23:08:40Z</time>
      </trkpt>
      <trkpt lat="41.07146" lon="-8.48599">
        <ele>14.008</ele>
        <time>2019-10-18T23:09:00Z</time>
      </trkpt>
      <trkpt lat="41.07215" lon="-8.48628">
        <ele>14.03</ele>
        <time>2019-10-18T23:09:20Z</time>
      </trkpt>
      <trkpt lat="41.07238" lon="-8.48638">
        <ele>14.068</ele>
        <time>2019-10-18T23:09:40Z</time>
      </trkpt>
      <trkpt lat="41.07284" lon="-8.48658">
        <ele>14.01</ele>
        <time>2019-10-18T23:10:00Z</time>
      </trkpt>
      <trkpt lat="41.07335" lon="-8.48682">
        <ele>14.03</ele>
        <time>2019-10-18T23:10:20Z</time>
      </trkpt>
      <trkpt lat="41.07406" lon="-8.48711">
        <ele>14.662</ele>
        <time>2019-10-18T23:10:40Z</time>
      </trkpt>
      <trkpt lat="41.07452" lon="-8.48739">
        <ele>9.473</ele>
        <time>2019-10-18T23:11:00Z</time>
      </trkpt>
      <trkpt lat="41.07448" lon="-8.48795">
        <ele>14.425</ele>
        <time>2019-10-18T23:11:20Z</time>
      </trkpt>
      <trkpt lat="41.0745" lon="-8.48873">
        <ele>21.655</ele>
        <time>2019-10-18T23:11:40Z</time>
      </trkpt>
      <trkpt lat="41.07422" lon="-8.48948">
        <ele>19.012</ele>
        <time>2019-10-18T23:12:00Z</time>
      </trkpt>
      <trkpt lat="41.07399" lon="-8.48988">
        <ele>18.132</ele>
        <time>2019-10-18T23:12:20Z</time>
      </trkpt>
      <trkpt lat="41.07383" lon="-8.4906">
        <ele>21.805</ele>
        <time>2019-10-18T23:12:40Z</time>
      </trkpt>
      <trkpt lat="41.07383" lon="-8.49174">
        <ele>18.308</ele>
        <time>2019-10-18T23:13:00Z</time>
      </trkpt>
      <trkpt lat="41.07393" lon="-8.49287">
        <ele>16.525</ele>
        <time>2019-10-18T23:13:20Z</time>
      </trkpt>
      <trkpt lat="41.07385" lon="-8.49334">
        <ele>22.493</ele>
        <time>2019-10-18T23:13:40Z</time>
      </trkpt>
      <trkpt lat="41.07346" lon="-8.49361">
        <ele>27.745</ele>
        <time>2019-10-18T23:14:00Z</time>
      </trkpt>
      <trkpt lat="41.07303" lon="-8.49392">
        <ele>22.285</ele>
        <time>2019-10-18T23:14:20Z</time>
      </trkpt>
      <trkpt lat="41.07285" lon="-8.49439">
        <ele>24.897</ele>
        <time>2019-10-18T23:14:40Z</time>
      </trkpt>
      <trkpt lat="41.07275" lon="-8.49517">
        <ele>26.928</ele>
        <time>2019-10-18T23:15:00Z</time>
      </trkpt>
      <trkpt lat="41.07282" lon="-8.49567">
        <ele>29.66</ele>
        <time>2019-10-18T23:15:20Z</time>
      </trkpt>
      <trkpt lat="41.07305" lon="-8.49628">
        <ele>34.98</ele>
        <time>2019-10-18T23:15:40Z</time>
      </trkpt>
      <trkpt lat="41.07298" lon="-8.49695">
        <ele>40.417</ele>
        <time>2019-10-18T23:16:00Z</time>
      </trkpt>
      <trkpt lat="41.07272" lon="-8.49746">
        <ele>38.787</ele>
        <time>2019-10-18T23:16:20Z</time>
      </trkpt>
      <trkpt lat="41.07245" lon="-8.49809">
        <ele>39.315</ele>
        <time>2019-10-18T23:16:40Z</time>
      </trkpt>
      <trkpt lat="41.07244" lon="-8.49865">
        <ele>34.608</ele>
        <time>2019-10-18T23:17:00Z</time>
      </trkpt>
      <trkpt lat="41.07258" lon="-8.49928">
        <ele>36.975</ele>
        <time>2019-10-18T23:17:20Z</time>
      </trkpt>
      <trkpt lat="41.07267" lon="-8.49983">
        <ele>37.573</ele>
        <time>2019-10-18T23:17:40Z</time>
      </trkpt>
      <trkpt lat="41.07294" lon="-8.5005">
        <ele>42.525</ele>
        <time>2019-10-18T23:18:00Z</time>
      </trkpt>
      <trkpt lat="41.073" lon="-8.50103">
        <ele>40.275</ele>
        <time>2019-10-18T23:18:20Z</time>
      </trkpt>
      <trkpt lat="41.07303" lon="-8.50196">
        <ele>43.067</ele>
        <time>2019-10-18T23:18:40Z</time>
      </trkpt>
      <trkpt lat="41.07305" lon="-8.50241">
        <ele>46.698</ele>
        <time>2019-10-18T23:19:00Z</time>
      </trkpt>
      <trkpt lat="41.07291" lon="-8.50325">
        <ele>43.27</ele>
        <time>2019-10-18T23:19:20Z</time>
      </trkpt>
      <trkpt lat="41.07284" lon="-8.50352">
        <ele>40.87</ele>
        <time>2019-10-18T23:19:40Z</time>
      </trkpt>
      <trkpt lat="41.07269" lon="-8.504">
        <ele>39.833</ele>
        <time>2019-10-18T23:20:00Z</time>
      </trkpt>
      <trkpt lat="41.07265" lon="-8.50416">
        <ele>39.223</ele>
        <time>2019-10-18T23:20:20Z</time>
      </trkpt>
      <trkpt lat="41.07264" lon="-8.50426">
        <ele>39.015</ele>
        <time>2019-10-18T23:20:40Z</time>
      </trkpt>
      <trkpt lat="41.07269" lon="-8.50468">
        <ele>40.908</ele>
        <time>2019-10-18T23:21:00Z</time>
      </trkpt>
      <trkpt lat="41.07276" lon="-8.50518">
        <ele>45.367</ele>
        <time>2019-10-18T23:21:20Z</time>
      </trkpt>
      <trkpt lat="41.07274" lon="-8.50535">
        <ele>44.185</ele>
        <time>2019-10-18T23:21:40Z</time>
      </trkpt>
      <trkpt lat="41.07254" lon="-8.50616">
        <ele>31.157</ele>
        <time>2019-10-18T23:22:00Z</time>
      </trkpt>
      <trkpt lat="41.07255" lon="-8.50625">
        <ele>32.917</ele>
        <time>2019-10-18T23:22:20Z</time>
      </trkpt>
      <trkpt lat="41.07265" lon="-8.50685">
        <ele>42.129</ele>
        <time>2019-10-18T23:22:40Z</time>
      </trkpt>
      <trkpt lat="41.07275" lon="-8.50767">
        <ele>49.68</ele>
        <time>2019-10-18T23:23:00Z</time>
      </trkpt>
      <trkpt lat="41.07286" lon="-8.50846">
        <ele>47.472</ele>
        <time>2019-10-18T23:23:20Z</time>
      </trkpt>
      <trkpt lat="41.07301" lon="-8.50949">
        <ele>39.142</ele>
        <time>2019-10-18T23:23:40Z</time>
      </trkpt>
      <trkpt lat="41.07311" lon="-8.50975">
        <ele>37.814</ele>
        <time>2019-10-18T23:24:00Z</time>
      </trkpt>
      <trkpt lat="41.07367" lon="-8.51057">
        <ele>43.154</ele>
        <time>2019-10-18T23:24:20Z</time>
      </trkpt>
      <trkpt lat="41.07424" lon="-8.5113">
        <ele>40.009</ele>
        <time>2019-10-18T23:24:40Z</time>
      </trkpt>
      <trkpt lat="41.07452" lon="-8.51168">
        <ele>41.608</ele>
        <time>2019-10-18T23:25:00Z</time>
      </trkpt>
      <trkpt lat="41.07464" lon="-8.51179">
        <ele>43.195</ele>
        <time>2019-10-18T23:25:20Z</time>
      </trkpt>
      <trkpt lat="41.07473" lon="-8.51185">
        <ele>44.713</ele>
        <time>2019-10-18T23:25:40Z</time>
      </trkpt>
      <trkpt lat="41.07481" lon="-8.51189">
        <ele>45.835</ele>
        <time>2019-10-18T23:26:00Z</time>
      </trkpt>
      <trkpt lat="41.07548" lon="-8.51187">
        <ele>49.615</ele>
        <time>2019-10-18T23:26:20Z</time>
      </trkpt>
      <trkpt lat="41.07617" lon="-8.51182">
        <ele>49.357</ele>
        <time>2019-10-18T23:26:40Z</time>
      </trkpt>
      <trkpt lat="41.07634" lon="-8.51185">
        <ele>51.268</ele>
        <time>2019-10-18T23:27:00Z</time>
      </trkpt>
      <trkpt lat="41.07652" lon="-8.51196">
        <ele>50.69</ele>
        <time>2019-10-18T23:27:20Z</time>
      </trkpt>
      <trkpt lat="41.07664" lon="-8.51206">
        <ele>50.51</ele>
        <time>2019-10-18T23:27:40Z</time>
      </trkpt>
      <trkpt lat="41.07674" lon="-8.51218">
        <ele>49.359</ele>
        <time>2019-10-18T23:28:00Z</time>
      </trkpt>
      <trkpt lat="41.07681" lon="-8.51231">
        <ele>48.303</ele>
        <time>2019-10-18T23:28:20Z</time>
      </trkpt>
      <trkpt lat="41.07687" lon="-8.51253">
        <ele>47.723</ele>
        <time>2019-10-18T23:28:40Z</time>
      </trkpt>
      <trkpt lat="41.07688" lon="-8.51275">
        <ele>47.508</ele>
        <time>2019-10-18T23:29:00Z</time>
      </trkpt>
      <trkpt lat="41.07686" lon="-8.51286">
        <ele>47.729</ele>
        <time>2019-10-18T23:29:20Z</time>
      </trkpt>
      <trkpt lat="41.07679" lon="-8.5131">
        <ele>47.537</ele>
        <time>2019-10-18T23:29:40Z</time>
      </trkpt>
      <trkpt lat="41.07674" lon="-8.51335">
        <ele>48.619</ele>
        <time>2019-10-18T23:30:00Z</time>
      </trkpt>
      <trkpt lat="41.07691" lon="-8.5139">
        <ele>46.259</ele>
        <time>2019-10-18T23:30:20Z</time>
      </trkpt>
      <trkpt lat="41.07762" lon="-8.51441">
        <ele>55.581</ele>
        <time>2019-10-18T23:30:40Z</time>
      </trkpt>
      <trkpt lat="41.07801" lon="-8.51468">
        <ele>55.612</ele>
        <time>2019-10-18T23:31:00Z</time>
      </trkpt>
      <trkpt lat="41.07861" lon="-8.51529">
        <ele>48.884</ele>
        <time>2019-10-18T23:31:20Z</time>
      </trkpt>
      <trkpt lat="41.07876" lon="-8.51536">
        <ele>50.274</ele>
        <time>2019-10-18T23:31:40Z</time>
      </trkpt>
      <trkpt lat="41.07947" lon="-8.51553">
        <ele>53.444</ele>
        <time>2019-10-18T23:32:00Z</time>
      </trkpt>
      <trkpt lat="41.0798" lon="-8.51558">
        <ele>52.005</ele>
        <time>2019-10-18T23:32:20Z</time>
      </trkpt>
      <trkpt lat="41.0801" lon="-8.5154">
        <ele>47.215</ele>
        <time>2019-10-18T23:32:40Z</time>
      </trkpt>
      <trkpt lat="41.08024" lon="-8.51523">
        <ele>45.908</ele>
        <time>2019-10-18T23:33:00Z</time>
      </trkpt>
      <trkpt lat="41.0804" lon="-8.51509">
        <ele>44.458</ele>
        <time>2019-10-18T23:33:20Z</time>
      </trkpt>
      <trkpt lat="41.08077" lon="-8.5151">
        <ele>42.326</ele>
        <time>2019-10-18T23:33:40Z</time>
      </trkpt>
      <trkpt lat="41.08101" lon="-8.5154">
        <ele>43.618</ele>
        <time>2019-10-18T23:34:00Z</time>
      </trkpt>
      <trkpt lat="41.0814" lon="-8.51643">
        <ele>43.728</ele>
        <time>2019-10-18T23:34:20Z</time>
      </trkpt>
      <trkpt lat="41.08167" lon="-8.51666">
        <ele>45.24</ele>
        <time>2019-10-18T23:34:40Z</time>
      </trkpt>
      <trkpt lat="41.08229" lon="-8.51669">
        <ele>47.061</ele>
        <time>2019-10-18T23:35:00Z</time>
      </trkpt>
      <trkpt lat="41.08239" lon="-8.51671">
        <ele>47.133</ele>
        <time>2019-10-18T23:35:20Z</time>
      </trkpt>
      <trkpt lat="41.08306" lon="-8.51719">
        <ele>44.953</ele>
        <time>2019-10-18T23:35:40Z</time>
      </trkpt>
      <trkpt lat="41.08325" lon="-8.51737">
        <ele>44.833</ele>
        <time>2019-10-18T23:36:00Z</time>
      </trkpt>
      <trkpt lat="41.08383" lon="-8.51786">
        <ele>44.823</ele>
        <time>2019-10-18T23:36:20Z</time>
      </trkpt>
      <trkpt lat="41.08451" lon="-8.51816">
        <ele>43.915</ele>
        <time>2019-10-18T23:36:40Z</time>
      </trkpt>
      <trkpt lat="41.08511" lon="-8.51847">
        <ele>44.808</ele>
        <time>2019-10-18T23:37:00Z</time>
      </trkpt>
      <trkpt lat="41.08574" lon="-8.51881">
        <ele>44.487</ele>
        <time>2019-10-18T23:37:20Z</time>
      </trkpt>
      <trkpt lat="41.08613" lon="-8.51902">
        <ele>38.255</ele>
        <time>2019-10-18T23:37:40Z</time>
      </trkpt>
      <trkpt lat="41.0869" lon="-8.51943">
        <ele>30.847</ele>
        <time>2019-10-18T23:38:00Z</time>
      </trkpt>
      <trkpt lat="41.087" lon="-8.51948">
        <ele>27.617</ele>
        <time>2019-10-18T23:38:20Z</time>
      </trkpt>
      <trkpt lat="41.08807" lon="-8.51965">
        <ele>4.219</ele>
        <time>2019-10-18T23:38:40Z</time>
      </trkpt>
      <trkpt lat="41.0889" lon="-8.51975">
        <ele>23.03</ele>
        <time>2019-10-18T23:39:00Z</time>
      </trkpt>
      <trkpt lat="41.08912" lon="-8.51989">
        <ele>27.762</ele>
        <time>2019-10-18T23:39:20Z</time>
      </trkpt>
      <trkpt lat="41.08987" lon="-8.52059">
        <ele>24.322</ele>
        <time>2019-10-18T23:39:40Z</time>
      </trkpt>
      <trkpt lat="41.09082" lon="-8.52094">
        <ele>26.267</ele>
        <time>2019-10-18T23:40:00Z</time>
      </trkpt>
      <trkpt lat="41.0919" lon="-8.52135">
        <ele>23.681</ele>
        <time>2019-10-18T23:40:20Z</time>
      </trkpt>
      <trkpt lat="41.09297" lon="-8.52171">
        <ele>24.619</ele>
        <time>2019-10-18T23:40:40Z</time>
      </trkpt>
      <trkpt lat="41.0932" lon="-8.52162">
        <ele>25.308</ele>
        <time>2019-10-18T23:41:00Z</time>
      </trkpt>
      <trkpt lat="41.09364" lon="-8.52116">
        <ele>22.38</ele>
        <time>2019-10-18T23:41:20Z</time>
      </trkpt>
      <trkpt lat="41.09408" lon="-8.52114">
        <ele>24.318</ele>
        <time>2019-10-18T23:41:40Z</time>
      </trkpt>
      <trkpt lat="41.09423" lon="-8.52154">
        <ele>24.23</ele>
        <time>2019-10-18T23:42:00Z</time>
      </trkpt>
      <trkpt lat="41.0943" lon="-8.5219">
        <ele>21.52</ele>
        <time>2019-10-18T23:42:20Z</time>
      </trkpt>
      <trkpt lat="41.09463" lon="-8.52222">
        <ele>24.412</ele>
        <time>2019-10-18T23:42:40Z</time>
      </trkpt>
      <trkpt lat="41.09531" lon="-8.52242">
        <ele>31.093</ele>
        <time>2019-10-18T23:43:00Z</time>
      </trkpt>
      <trkpt lat="41.09575" lon="-8.52254">
        <ele>25.565</ele>
        <time>2019-10-18T23:43:20Z</time>
      </trkpt>
      <trkpt lat="41.09629" lon="-8.52258">
        <ele>21.485</ele>
        <time>2019-10-18T23:43:40Z</time>
      </trkpt>
      <trkpt lat="41.09697" lon="-8.52285">
        <ele>22.122</ele>
        <time>2019-10-18T23:44:00Z</time>
      </trkpt>
      <trkpt lat="41.09762" lon="-8.52362">
        <ele>25.662</ele>
        <time>2019-10-18T23:44:20Z</time>
      </trkpt>
      <trkpt lat="41.09787" lon="-8.52387">
        <ele>24.908</ele>
        <time>2019-10-18T23:44:40Z</time>
      </trkpt>
      <trkpt lat="41.09869" lon="-8.5245">
        <ele>29.308</ele>
        <time>2019-10-18T23:45:00Z</time>
      </trkpt>
      <trkpt lat="41.0992" lon="-8.52477">
        <ele>30.086</ele>
        <time>2019-10-18T23:45:20Z</time>
      </trkpt>
      <trkpt lat="41.10006" lon="-8.52514">
        <ele>26.984</ele>
        <time>2019-10-18T23:45:40Z</time>
      </trkpt>
      <trkpt lat="41.10077" lon="-8.52537">
        <ele>28.896</ele>
        <time>2019-10-18T23:46:00Z</time>
      </trkpt>
      <trkpt lat="41.10099" lon="-8.52546">
        <ele>32.156</ele>
        <time>2019-10-18T23:46:20Z</time>
      </trkpt>
      <trkpt lat="41.10159" lon="-8.52578">
        <ele>30.118</ele>
        <time>2019-10-18T23:46:40Z</time>
      </trkpt>
      <trkpt lat="41.10194" lon="-8.52563">
        <ele>31.269</ele>
        <time>2019-10-18T23:47:00Z</time>
      </trkpt>
      <trkpt lat="41.10227" lon="-8.52584">
        <ele>30.291</ele>
        <time>2019-10-18T23:47:20Z</time>
      </trkpt>
      <trkpt lat="41.10242" lon="-8.52647">
        <ele>28.421</ele>
        <time>2019-10-18T23:47:40Z</time>
      </trkpt>
      <trkpt lat="41.10245" lon="-8.52657">
        <ele>28.156</ele>
        <time>2019-10-18T23:48:00Z</time>
      </trkpt>
      <trkpt lat="41.10252" lon="-8.52669">
        <ele>28.459</ele>
        <time>2019-10-18T23:48:20Z</time>
      </trkpt>
      <trkpt lat="41.10271" lon="-8.52686">
        <ele>32.314</ele>
        <time>2019-10-18T23:48:40Z</time>
      </trkpt>
      <trkpt lat="41.10278" lon="-8.52694">
        <ele>33.108</ele>
        <time>2019-10-18T23:49:00Z</time>
      </trkpt>
      <trkpt lat="41.10284" lon="-8.52704">
        <ele>32.279</ele>
        <time>2019-10-18T23:49:20Z</time>
      </trkpt>
      <trkpt lat="41.10298" lon="-8.52734">
        <ele>27.967</ele>
        <time>2019-10-18T23:49:40Z</time>
      </trkpt>
      <trkpt lat="41.10346" lon="-8.52824">
        <ele>19.029</ele>
        <time>2019-10-18T23:50:00Z</time>
      </trkpt>
      <trkpt lat="41.10407" lon="-8.52904">
        <ele>20.119</ele>
        <time>2019-10-18T23:50:20Z</time>
      </trkpt>
      <trkpt lat="41.10457" lon="-8.52922">
        <ele>19.311</ele>
        <time>2019-10-18T23:50:40Z</time>
      </trkpt>
      <trkpt lat="41.10472" lon="-8.52911">
        <ele>21.542</ele>
        <time>2019-10-18T23:51:00Z</time>
      </trkpt>
      <trkpt lat="41.1049" lon="-8.52887">
        <ele>23.454</ele>
        <time>2019-10-18T23:51:20Z</time>
      </trkpt>
      <trkpt lat="41.10556" lon="-8.52792">
        <ele>23.434</ele>
        <time>2019-10-18T23:51:40Z</time>
      </trkpt>
      <trkpt lat="41.10563" lon="-8.52781">
        <ele>23.546</ele>
        <time>2019-10-18T23:52:00Z</time>
      </trkpt>
      <trkpt lat="41.10625" lon="-8.52702">
        <ele>28.988</ele>
        <time>2019-10-18T23:52:20Z</time>
      </trkpt>
      <trkpt lat="41.10656" lon="-8.52683">
        <ele>27.416</ele>
        <time>2019-10-18T23:52:40Z</time>
      </trkpt>
      <trkpt lat="41.10698" lon="-8.52696">
        <ele>20.108</ele>
        <time>2019-10-18T23:53:00Z</time>
      </trkpt>
      <trkpt lat="41.10697" lon="-8.52739">
        <ele>23.938</ele>
        <time>2019-10-18T23:53:20Z</time>
      </trkpt>
      <trkpt lat="41.10668" lon="-8.52789">
        <ele>26.146</ele>
        <time>2019-10-18T23:53:40Z</time>
      </trkpt>
      <trkpt lat="41.10653" lon="-8.5282">
        <ele>24.178</ele>
        <time>2019-10-18T23:54:00Z</time>
      </trkpt>
      <trkpt lat="41.10637" lon="-8.52861">
        <ele>23.548</ele>
        <time>2019-10-18T23:54:20Z</time>
      </trkpt>
      <trkpt lat="41.10632" lon="-8.52906">
        <ele>24.78</ele>
        <time>2019-10-18T23:54:40Z</time>
      </trkpt>
      <trkpt lat="41.10634" lon="-8.52945">
        <ele>24.121</ele>
        <time>2019-10-18T23:55:00Z</time>
      </trkpt>
      <trkpt lat="41.10637" lon="-8.53006">
        <ele>27.483</ele>
        <time>2019-10-18T23:55:20Z</time>
      </trkpt>
      <trkpt lat="41.10649" lon="-8.53071">
        <ele>24.113</ele>
        <time>2019-10-18T23:55:40Z</time>
      </trkpt>
      <trkpt lat="41.10679" lon="-8.5316">
        <ele>27.857</ele>
        <time>2019-10-18T23:56:00Z</time>
      </trkpt>
      <trkpt lat="41.10727" lon="-8.53209">
        <ele>31.8</ele>
        <time>2019-10-18T23:56:20Z</time>
      </trkpt>
      <trkpt lat="41.10799" lon="-8.53272">
        <ele>28.32</ele>
        <time>2019-10-18T23:56:40Z</time>
      </trkpt>
      <trkpt lat="41.10812" lon="-8.53283">
        <ele>27.008</ele>
        <time>2019-10-18T23:57:00Z</time>
      </trkpt>
      <trkpt lat="41.10891" lon="-8.53355">
        <ele>24.589</ele>
        <time>2019-10-18T23:57:20Z</time>
      </trkpt>
      <trkpt lat="41.10966" lon="-8.53419">
        <ele>22.997</ele>
        <time>2019-10-18T23:57:40Z</time>
      </trkpt>
      <trkpt lat="41.10983" lon="-8.53432">
        <ele>24.789</ele>
        <time>2019-10-18T23:58:00Z</time>
      </trkpt>
      <trkpt lat="41.11006" lon="-8.53439">
        <ele>26.929</ele>
        <time>2019-10-18T23:58:20Z</time>
      </trkpt>
      <trkpt lat="41.11037" lon="-8.53443">
        <ele>28.431</ele>
        <time>2019-10-18T23:58:40Z</time>
      </trkpt>
      <trkpt lat="41.11064" lon="-8.53462">
        <ele>29.152</ele>
        <time>2019-10-18T23:59:00Z</time>
      </trkpt>
      <trkpt lat="41.11115" lon="-8.5355">
        <ele>31.564</ele>
        <time>2019-10-18T23:59:20Z</time>
      </trkpt>
      <trkpt lat="41.11123" lon="-8.53561">
        <ele>32.154</ele>
        <time>2019-10-18T23:59:40Z</time>
      </trkpt>
      <trkpt lat="41.11126" lon="-8.53566">
        <ele>32.363</ele>
        <time>2019-10-19T00:00:00Z</time>
      </trkpt>
      <trkpt lat="41.11195" lon="-8.53621">
        <ele>34.544</ele>
        <time>2019-10-19T00:00:20Z</time>
      </trkpt>
      <trkpt lat="41.11204" lon="-8.5363">
        <ele>35.318</ele>
        <time>2019-10-19T00:00:40Z</time>
      </trkpt>
      <trkpt lat="41.11225" lon="-8.53675">
        <ele>36.608</ele>
        <time>2019-10-19T00:01:00Z</time>
      </trkpt>
      <trkpt lat="41.11239" lon="-8.537">
        <ele>38.25</ele>
        <time>2019-10-19T00:01:20Z</time>
      </trkpt>
      <trkpt lat="41.11322" lon="-8.53777">
        <ele>30.988</ele>
        <time>2019-10-19T00:01:40Z</time>
      </trkpt>
      <trkpt lat="41.11345" lon="-8.53782">
        <ele>29.79</ele>
        <time>2019-10-19T00:02:00Z</time>
      </trkpt>
      <trkpt lat="41.11363" lon="-8.53783">
        <ele>30.33</ele>
        <time>2019-10-19T00:02:20Z</time>
      </trkpt>
      <trkpt lat="41.11379" lon="-8.53788">
        <ele>30.482</ele>
        <time>2019-10-19T00:02:40Z</time>
      </trkpt>
      <trkpt lat="41.11448" lon="-8.53848">
        <ele>30.653</ele>
        <time>2019-10-19T00:03:00Z</time>
      </trkpt>
      <trkpt lat="41.11533" lon="-8.53915">
        <ele>26.295</ele>
        <time>2019-10-19T00:03:20Z</time>
      </trkpt>
      <trkpt lat="41.11615" lon="-8.53961">
        <ele>24.755</ele>
        <time>2019-10-19T00:03:40Z</time>
      </trkpt>
      <trkpt lat="41.11631" lon="-8.5398">
        <ele>27.188</ele>
        <time>2019-10-19T00:04:00Z</time>
      </trkpt>
      <trkpt lat="41.1165" lon="-8.54026">
        <ele>27.524</ele>
        <time>2019-10-19T00:04:20Z</time>
      </trkpt>
      <trkpt lat="41.11658" lon="-8.54045">
        <ele>24.226</ele>
        <time>2019-10-19T00:04:40Z</time>
      </trkpt>
      <trkpt lat="41.11699" lon="-8.541">
        <ele>21.808</ele>
        <time>2019-10-19T00:05:00Z</time>
      </trkpt>
      <trkpt lat="41.1178" lon="-8.5415">
        <ele>21.612</ele>
        <time>2019-10-19T00:05:20Z</time>
      </trkpt>
      <trkpt lat="41.1183" lon="-8.54178">
        <ele>19.77</ele>
        <time>2019-10-19T00:05:40Z</time>
      </trkpt>
      <trkpt lat="41.11847" lon="-8.54199">
        <ele>17.032</ele>
        <time>2019-10-19T00:06:00Z</time>
      </trkpt>
      <trkpt lat="41.11868" lon="-8.54244">
        <ele>15.142</ele>
        <time>2019-10-19T00:06:20Z</time>
      </trkpt>
      <trkpt lat="41.11876" lon="-8.54295">
        <ele>17.294</ele>
        <time>2019-10-19T00:06:40Z</time>
      </trkpt>
      <trkpt lat="41.11892" lon="-8.5433">
        <ele>18.485</ele>
        <time>2019-10-19T00:07:00Z</time>
      </trkpt>
      <trkpt lat="41.11969" lon="-8.54391">
        <ele>24.047</ele>
        <time>2019-10-19T00:07:20Z</time>
      </trkpt>
      <trkpt lat="41.12038" lon="-8.5445">
        <ele>18.757</ele>
        <time>2019-10-19T00:07:40Z</time>
      </trkpt>
      <trkpt lat="41.12101" lon="-8.54507">
        <ele>23.724</ele>
        <time>2019-10-19T00:08:00Z</time>
      </trkpt>
      <trkpt lat="41.12114" lon="-8.54521">
        <ele>25.004</ele>
        <time>2019-10-19T00:08:20Z</time>
      </trkpt>
      <trkpt lat="41.12129" lon="-8.54539">
        <ele>25.414</ele>
        <time>2019-10-19T00:08:40Z</time>
      </trkpt>
      <trkpt lat="41.12141" lon="-8.54555">
        <ele>24.908</ele>
        <time>2019-10-19T00:09:00Z</time>
      </trkpt>
      <trkpt lat="41.12157" lon="-8.54571">
        <ele>28.146</ele>
        <time>2019-10-19T00:09:20Z</time>
      </trkpt>
      <trkpt lat="41.12226" lon="-8.54616">
        <ele>35.934</ele>
        <time>2019-10-19T00:09:40Z</time>
      </trkpt>
      <trkpt lat="41.12237" lon="-8.54624">
        <ele>35.166</ele>
        <time>2019-10-19T00:10:00Z</time>
      </trkpt>
      <trkpt lat="41.12302" lon="-8.5468">
        <ele>30.056</ele>
        <time>2019-10-19T00:10:20Z</time>
      </trkpt>
      <trkpt lat="41.12316" lon="-8.54698">
        <ele>28.978</ele>
        <time>2019-10-19T00:10:40Z</time>
      </trkpt>
      <trkpt lat="41.12354" lon="-8.54788">
        <ele>25.499</ele>
        <time>2019-10-19T00:11:00Z</time>
      </trkpt>
      <trkpt lat="41.12388" lon="-8.54873">
        <ele>27.541</ele>
        <time>2019-10-19T00:11:20Z</time>
      </trkpt>
      <trkpt lat="41.12412" lon="-8.54932">
        <ele>24.291</ele>
        <time>2019-10-19T00:11:40Z</time>
      </trkpt>
      <trkpt lat="41.12428" lon="-8.54954">
        <ele>23.074</ele>
        <time>2019-10-19T00:12:00Z</time>
      </trkpt>
      <trkpt lat="41.12486" lon="-8.55025">
        <ele>21.356</ele>
        <time>2019-10-19T00:12:20Z</time>
      </trkpt>
      <trkpt lat="41.1249" lon="-8.55036">
        <ele>21.521</ele>
        <time>2019-10-19T00:12:40Z</time>
      </trkpt>
      <trkpt lat="41.12501" lon="-8.55095">
        <ele>18.308</ele>
        <time>2019-10-19T00:13:00Z</time>
      </trkpt>
      <trkpt lat="41.12492" lon="-8.55155">
        <ele>16.141</ele>
        <time>2019-10-19T00:13:20Z</time>
      </trkpt>
      <trkpt lat="41.1247" lon="-8.5522">
        <ele>9.099</ele>
        <time>2019-10-19T00:13:40Z</time>
      </trkpt>
      <trkpt lat="41.12471" lon="-8.55268">
        <ele>10.111</ele>
        <time>2019-10-19T00:14:00Z</time>
      </trkpt>
      <trkpt lat="41.12497" lon="-8.55415">
        <ele>15.631</ele>
        <time>2019-10-19T00:14:20Z</time>
      </trkpt>
      <trkpt lat="41.12507" lon="-8.55506">
        <ele>16.083</ele>
        <time>2019-10-19T00:14:40Z</time>
      </trkpt>
      <trkpt lat="41.12515" lon="-8.55539">
        <ele>14.254</ele>
        <time>2019-10-19T00:15:00Z</time>
      </trkpt>
      <trkpt lat="41.12531" lon="-8.55575">
        <ele>12.116</ele>
        <time>2019-10-19T00:15:20Z</time>
      </trkpt>
      <trkpt lat="41.12546" lon="-8.55605">
        <ele>16.616</ele>
        <time>2019-10-19T00:15:40Z</time>
      </trkpt>
      <trkpt lat="41.12588" lon="-8.55723">
        <ele>17.781</ele>
        <time>2019-10-19T00:16:00Z</time>
      </trkpt>
      <trkpt lat="41.1263" lon="-8.55844">
        <ele>12.061</ele>
        <time>2019-10-19T00:16:20Z</time>
      </trkpt>
      <trkpt lat="41.12652" lon="-8.55898">
        <ele>10.717</ele>
        <time>2019-10-19T00:16:40Z</time>
      </trkpt>
      <trkpt lat="41.12654" lon="-8.55905">
        <ele>10.408</ele>
        <time>2019-10-19T00:17:00Z</time>
      </trkpt>
      <trkpt lat="41.12672" lon="-8.55955">
        <ele>13.862</ele>
        <time>2019-10-19T00:17:20Z</time>
      </trkpt>
      <trkpt lat="41.12679" lon="-8.5596">
        <ele>14.93</ele>
        <time>2019-10-19T00:17:40Z</time>
      </trkpt>
      <trkpt lat="41.12679" lon="-8.55972">
        <ele>16.822</ele>
        <time>2019-10-19T00:18:00Z</time>
      </trkpt>
      <trkpt lat="41.12676" lon="-8.55982">
        <ele>17.742</ele>
        <time>2019-10-19T00:18:20Z</time>
      </trkpt>
      <trkpt lat="41.12659" lon="-8.56043">
        <ele>19.884</ele>
        <time>2019-10-19T00:18:40Z</time>
      </trkpt>
      <trkpt lat="41.12629" lon="-8.56114">
        <ele>19.755</ele>
        <time>2019-10-19T00:19:00Z</time>
      </trkpt>
      <trkpt lat="41.12606" lon="-8.56181">
        <ele>16.927</ele>
        <time>2019-10-19T00:19:20Z</time>
      </trkpt>
      <trkpt lat="41.12604" lon="-8.56208">
        <ele>15.467</ele>
        <time>2019-10-19T00:19:40Z</time>
      </trkpt>
      <trkpt lat="41.12619" lon="-8.56334">
        <ele>15.262</ele>
        <time>2019-10-19T00:20:00Z</time>
      </trkpt>
      <trkpt lat="41.12643" lon="-8.56445">
        <ele>12.883</ele>
        <time>2019-10-19T00:20:20Z</time>
      </trkpt>
      <trkpt lat="41.12688" lon="-8.56519">
        <ele>20.011</ele>
        <time>2019-10-19T00:20:40Z</time>
      </trkpt>
      <trkpt lat="41.12695" lon="-8.5653">
        <ele>19.708</ele>
        <time>2019-10-19T00:21:00Z</time>
      </trkpt>
      <trkpt lat="41.12712" lon="-8.56556">
        <ele>15.42</ele>
        <time>2019-10-19T00:21:20Z</time>
      </trkpt>
      <trkpt lat="41.12731" lon="-8.56574">
        <ele>13.488</ele>
        <time>2019-10-19T00:21:40Z</time>
      </trkpt>
      <trkpt lat="41.12812" lon="-8.56634">
        <ele>11.64</ele>
        <time>2019-10-19T00:22:00Z</time>
      </trkpt>
      <trkpt lat="41.12894" lon="-8.56697">
        <ele>12.28</ele>
        <time>2019-10-19T00:22:20Z</time>
      </trkpt>
      <trkpt lat="41.12955" lon="-8.56755">
        <ele>16.182</ele>
        <time>2019-10-19T00:22:40Z</time>
      </trkpt>
      <trkpt lat="41.13007" lon="-8.56795">
        <ele>21.163</ele>
        <time>2019-10-19T00:23:00Z</time>
      </trkpt>
      <trkpt lat="41.13056" lon="-8.5682">
        <ele>25.815</ele>
        <time>2019-10-19T00:23:20Z</time>
      </trkpt>
      <trkpt lat="41.13093" lon="-8.56842">
        <ele>22.095</ele>
        <time>2019-10-19T00:23:40Z</time>
      </trkpt>
      <trkpt lat="41.1316" lon="-8.56877">
        <ele>19.617</ele>
        <time>2019-10-19T00:24:00Z</time>
      </trkpt>
      <trkpt lat="41.13165" lon="-8.5688">
        <ele>19.487</ele>
        <time>2019-10-19T00:24:20Z</time>
      </trkpt>
      <trkpt lat="41.13247" lon="-8.5693">
        <ele>21.415</ele>
        <time>2019-10-19T00:24:40Z</time>
      </trkpt>
      <trkpt lat="41.13253" lon="-8.56933">
        <ele>21.408</ele>
        <time>2019-10-19T00:25:00Z</time>
      </trkpt>
      <trkpt lat="41.13264" lon="-8.56937">
        <ele>20.195</ele>
        <time>2019-10-19T00:25:20Z</time>
      </trkpt>
      <trkpt lat="41.13305" lon="-8.56945">
        <ele>16.013</ele>
        <time>2019-10-19T00:25:40Z</time>
      </trkpt>
      <trkpt lat="41.13321" lon="-8.56945">
        <ele>16.095</ele>
        <time>2019-10-19T00:26:00Z</time>
      </trkpt>
      <trkpt lat="41.13334" lon="-8.5694">
        <ele>17.245</ele>
        <time>2019-10-19T00:26:20Z</time>
      </trkpt>
      <trkpt lat="41.13352" lon="-8.56923">
        <ele>19.287</ele>
        <time>2019-10-19T00:26:40Z</time>
      </trkpt>
      <trkpt lat="41.13407" lon="-8.56909">
        <ele>15.538</ele>
        <time>2019-10-19T00:27:00Z</time>
      </trkpt>
      <trkpt lat="41.13433" lon="-8.56951">
        <ele>20.89</ele>
        <time>2019-10-19T00:27:20Z</time>
      </trkpt>
      <trkpt lat="41.13435" lon="-8.56961">
        <ele>21.55</ele>
        <time>2019-10-19T00:27:40Z</time>
      </trkpt>
      <trkpt lat="41.13437" lon="-8.56982">
        <ele>21.681</ele>
        <time>2019-10-19T00:28:00Z</time>
      </trkpt>
      <trkpt lat="41.13447" lon="-8.57016">
        <ele>19.561</ele>
        <time>2019-10-19T00:28:20Z</time>
      </trkpt>
      <trkpt lat="41.13452" lon="-8.57027">
        <ele>18.217</ele>
        <time>2019-10-19T00:28:40Z</time>
      </trkpt>
      <trkpt lat="41.13458" lon="-8.57031">
        <ele>18.408</ele>
        <time>2019-10-19T00:29:00Z</time>
      </trkpt>
      <trkpt lat="41.13464" lon="-8.57029">
        <ele>19.612</ele>
        <time>2019-10-19T00:29:20Z</time>
      </trkpt>
      <trkpt lat="41.13491" lon="-8.5704">
        <ele>22.55</ele>
        <time>2019-10-19T00:29:40Z</time>
      </trkpt>
      <trkpt lat="41.13564" lon="-8.57065">
        <ele>16.982</ele>
        <time>2019-10-19T00:30:00Z</time>
      </trkpt>
      <trkpt lat="41.13624" lon="-8.57088">
        <ele>17.882</ele>
        <time>2019-10-19T00:30:20Z</time>
      </trkpt>
      <trkpt lat="41.1364" lon="-8.57091">
        <ele>18.734</ele>
        <time>2019-10-19T00:30:40Z</time>
      </trkpt>
      <trkpt lat="41.13713" lon="-8.571">
        <ele>19.325</ele>
        <time>2019-10-19T00:31:00Z</time>
      </trkpt>
      <trkpt lat="41.13739" lon="-8.57102">
        <ele>19.157</ele>
        <time>2019-10-19T00:31:20Z</time>
      </trkpt>
      <trkpt lat="41.13807" lon="-8.57108">
        <ele>25.517</ele>
        <time>2019-10-19T00:31:40Z</time>
      </trkpt>
      <trkpt lat="41.13812" lon="-8.57108">
        <ele>24.854</ele>
        <time>2019-10-19T00:32:00Z</time>
      </trkpt>
      <trkpt lat="41.1389" lon="-8.5713">
        <ele>23.456</ele>
        <time>2019-10-19T00:32:20Z</time>
      </trkpt>
      <trkpt lat="41.13916" lon="-8.57137">
        <ele>24.411</ele>
        <time>2019-10-19T00:32:40Z</time>
      </trkpt>
      <trkpt lat="41.13997" lon="-8.57183">
        <ele>16.208</ele>
        <time>2019-10-19T00:33:00Z</time>
      </trkpt>
      <trkpt lat="41.14019" lon="-8.5719">
        <ele>20.359</ele>
        <time>2019-10-19T00:33:20Z</time>
      </trkpt>
      <trkpt lat="41.14028" lon="-8.57192">
        <ele>22.557</ele>
        <time>2019-10-19T00:33:40Z</time>
      </trkpt>
      <trkpt lat="41.14041" lon="-8.57191">
        <ele>23.229</ele>
        <time>2019-10-19T00:34:00Z</time>
      </trkpt>
      <trkpt lat="41.14058" lon="-8.57184">
        <ele>25.529</ele>
        <time>2019-10-19T00:34:20Z</time>
      </trkpt>
      <trkpt lat="41.1409" lon="-8.57187">
        <ele>28.361</ele>
        <time>2019-10-19T00:34:40Z</time>
      </trkpt>
      <trkpt lat="41.14121" lon="-8.57234">
        <ele>25.682</ele>
        <time>2019-10-19T00:35:00Z</time>
      </trkpt>
      <trkpt lat="41.14125" lon="-8.57246">
        <ele>24.224</ele>
        <time>2019-10-19T00:35:20Z</time>
      </trkpt>
      <trkpt lat="41.14137" lon="-8.57272">
        <ele>23.384</ele>
        <time>2019-10-19T00:35:40Z</time>
      </trkpt>
      <trkpt lat="41.14148" lon="-8.57286">
        <ele>23.352</ele>
        <time>2019-10-19T00:36:00Z</time>
      </trkpt>
      <trkpt lat="41.14156" lon="-8.57293">
        <ele>23.853</ele>
        <time>2019-10-19T00:36:20Z</time>
      </trkpt>
      <trkpt lat="41.14175" lon="-8.57297">
        <ele>26.008</ele>
        <time>2019-10-19T00:36:40Z</time>
      </trkpt>
      <trkpt lat="41.14209" lon="-8.57281">
        <ele>30.308</ele>
        <time>2019-10-19T00:37:00Z</time>
      </trkpt>
      <trkpt lat="41.14234" lon="-8.57264">
        <ele>32.749</ele>
        <time>2019-10-19T00:37:20Z</time>
      </trkpt>
      <trkpt lat="41.14258" lon="-8.57249">
        <ele>33.577</ele>
        <time>2019-10-19T00:37:40Z</time>
      </trkpt>
      <trkpt lat="41.14282" lon="-8.57249">
        <ele>31.899</ele>
        <time>2019-10-19T00:38:00Z</time>
      </trkpt>
      <trkpt lat="41.14304" lon="-8.57258">
        <ele>29.899</ele>
        <time>2019-10-19T00:38:20Z</time>
      </trkpt>
      <trkpt lat="41.14361" lon="-8.5731">
        <ele>24.371</ele>
        <time>2019-10-19T00:38:40Z</time>
      </trkpt>
      <trkpt lat="41.14367" lon="-8.57315">
        <ele>23.862</ele>
        <time>2019-10-19T00:39:00Z</time>
      </trkpt>
      <trkpt lat="41.14387" lon="-8.57333">
        <ele>20.424</ele>
        <time>2019-10-19T00:39:20Z</time>
      </trkpt>
      <trkpt lat="41.14393" lon="-8.57341">
        <ele>20.724</ele>
        <time>2019-10-19T00:39:40Z</time>
      </trkpt>
      <trkpt lat="41.14401" lon="-8.57339">
        <ele>19.647</ele>
        <time>2019-10-19T00:40:00Z</time>
      </trkpt>
      <trkpt lat="41.14408" lon="-8.57341">
        <ele>19.029</ele>
        <time>2019-10-19T00:40:20Z</time>
      </trkpt>
      <trkpt lat="41.14412" lon="-8.5735">
        <ele>18.721</ele>
        <time>2019-10-19T00:40:40Z</time>
      </trkpt>
      <trkpt lat="41.14412" lon="-8.57356">
        <ele>18.908</ele>
        <time>2019-10-19T00:41:00Z</time>
      </trkpt>
      <trkpt lat="41.1441" lon="-8.57363">
        <ele>19.528</ele>
        <time>2019-10-19T00:41:20Z</time>
      </trkpt>
      <trkpt lat="41.14408" lon="-8.57367">
        <ele>20.296</ele>
        <time>2019-10-19T00:41:40Z</time>
      </trkpt>
      <trkpt lat="41.14404" lon="-8.57384">
        <ele>22.128</ele>
        <time>2019-10-19T00:42:00Z</time>
      </trkpt>
      <trkpt lat="41.14399" lon="-8.57423">
        <ele>24.948</ele>
        <time>2019-10-19T00:42:20Z</time>
      </trkpt>
      <trkpt lat="41.14397" lon="-8.57453">
        <ele>23.55</ele>
        <time>2019-10-19T00:42:40Z</time>
      </trkpt>
      <trkpt lat="41.14397" lon="-8.57481">
        <ele>20.771</ele>
        <time>2019-10-19T00:43:00Z</time>
      </trkpt>
      <trkpt lat="41.14393" lon="-8.57537">
        <ele>16.793</ele>
        <time>2019-10-19T00:43:20Z</time>
      </trkpt>
      <trkpt lat="41.14401" lon="-8.57588">
        <ele>14.123</ele>
        <time>2019-10-19T00:43:40Z</time>
      </trkpt>
      <trkpt lat="41.1441" lon="-8.57614">
        <ele>11.842</ele>
        <time>2019-10-19T00:44:00Z</time>
      </trkpt>
      <trkpt lat="41.14414" lon="-8.57625">
        <ele>11.022</ele>
        <time>2019-10-19T00:44:20Z</time>
      </trkpt>
      <trkpt lat="41.14421" lon="-8.5764">
        <ele>10.014</ele>
        <time>2019-10-19T00:44:40Z</time>
      </trkpt>
      <trkpt lat="41.14431" lon="-8.57667">
        <ele>9.108</ele>
        <time>2019-10-19T00:45:00Z</time>
      </trkpt>
      <trkpt lat="41.1444" lon="-8.57691">
        <ele>10.418</ele>
        <time>2019-10-19T00:45:20Z</time>
      </trkpt>
      <trkpt lat="41.14455" lon="-8.57717">
        <ele>11.346</ele>
        <time>2019-10-19T00:45:40Z</time>
      </trkpt>
      <trkpt lat="41.14468" lon="-8.5774">
        <ele>11.988</ele>
        <time>2019-10-19T00:46:00Z</time>
      </trkpt>
      <trkpt lat="41.14476" lon="-8.57762">
        <ele>11.778</ele>
        <time>2019-10-19T00:46:20Z</time>
      </trkpt>
      <trkpt lat="41.14481" lon="-8.57766">
        <ele>11.79</ele>
        <time>2019-10-19T00:46:40Z</time>
      </trkpt>
      <trkpt lat="41.14489" lon="-8.5777">
        <ele>11.951</ele>
        <time>2019-10-19T00:47:00Z</time>
      </trkpt>
      <trkpt lat="41.14496" lon="-8.57779">
        <ele>11.813</ele>
        <time>2019-10-19T00:47:20Z</time>
      </trkpt>
      <trkpt lat="41.14513" lon="-8.57798">
        <ele>11.733</ele>
        <time>2019-10-19T00:47:40Z</time>
      </trkpt>
      <trkpt lat="41.14524" lon="-8.57809">
        <ele>11.859</ele>
        <time>2019-10-19T00:48:00Z</time>
      </trkpt>
      <trkpt lat="41.14567" lon="-8.57858">
        <ele>10.703</ele>
        <time>2019-10-19T00:48:20Z</time>
      </trkpt>
      <trkpt lat="41.14582" lon="-8.57878">
        <ele>10.023</ele>
        <time>2019-10-19T00:48:40Z</time>
      </trkpt>
      <trkpt lat="41.14605" lon="-8.57889">
        <ele>8.408</ele>
        <time>2019-10-19T00:49:00Z</time>
      </trkpt>
      <trkpt lat="41.14612" lon="-8.57889">
        <ele>8.069</ele>
        <time>2019-10-19T00:49:20Z</time>
      </trkpt>
      <trkpt lat="41.1462" lon="-8.57897">
        <ele>7.687</ele>
        <time>2019-10-19T00:49:40Z</time>
      </trkpt>
      <trkpt lat="41.14625" lon="-8.57904">
        <ele>7.329</ele>
        <time>2019-10-19T00:50:00Z</time>
      </trkpt>
      <trkpt lat="41.14627" lon="-8.5791">
        <ele>7.019</ele>
        <time>2019-10-19T00:50:20Z</time>
      </trkpt>
      <trkpt lat="41.14627" lon="-8.57914">
        <ele>6.971</ele>
        <time>2019-10-19T00:50:40Z</time>
      </trkpt>
      <trkpt lat="41.14622" lon="-8.57927">
        <ele>7.842</ele>
        <time>2019-10-19T00:51:00Z</time>
      </trkpt>
      <trkpt lat="41.14629" lon="-8.57946">
        <ele>8.314</ele>
        <time>2019-10-19T00:51:20Z</time>
      </trkpt>
      <trkpt lat="41.1464" lon="-8.57966">
        <ele>9.334</ele>
        <time>2019-10-19T00:51:40Z</time>
      </trkpt>
      <trkpt lat="41.14655" lon="-8.57985">
        <ele>10.787</ele>
        <time>2019-10-19T00:52:00Z</time>
      </trkpt>
      <trkpt lat="41.14665" lon="-8.58">
        <ele>12.142</ele>
        <time>2019-10-19T00:52:20Z</time>
      </trkpt>
      <trkpt lat="41.14676" lon="-8.58009">
        <ele>11.826</ele>
        <time>2019-10-19T00:52:40Z</time>
      </trkpt>
      <trkpt lat="41.14687" lon="-8.58015">
        <ele>11.308</ele>
        <time>2019-10-19T00:53:00Z</time>
      </trkpt>
      <trkpt lat="41.14695" lon="-8.58017">
        <ele>10.682</ele>
        <time>2019-10-19T00:53:20Z</time>
      </trkpt>
      <trkpt lat="41.14713" lon="-8.58017">
        <ele>9.78</ele>
        <time>2019-10-19T00:53:40Z</time>
      </trkpt>
      <trkpt lat="41.14719" lon="-8.58015">
        <ele>9.352</ele>
        <time>2019-10-19T00:54:00Z</time>
      </trkpt>
      <trkpt lat="41.14758" lon="-8.57989">
        <ele>9.922</ele>
        <time>2019-10-19T00:54:20Z</time>
      </trkpt>
      <trkpt lat="41.1485" lon="-8.57919">
        <ele>11.244</ele>
        <time>2019-10-19T00:54:40Z</time>
      </trkpt>
      <trkpt lat="41.14869" lon="-8.57914">
        <ele>13.845</ele>
        <time>2019-10-19T00:55:00Z</time>
      </trkpt>
      <trkpt lat="41.14899" lon="-8.57897">
        <ele>18.087</ele>
        <time>2019-10-19T00:55:20Z</time>
      </trkpt>
      <trkpt lat="41.14931" lon="-8.57886">
        <ele>17.177</ele>
        <time>2019-10-19T00:55:40Z</time>
      </trkpt>
      <trkpt lat="41.14951" lon="-8.5788">
        <ele>15.536</ele>
        <time>2019-10-19T00:56:00Z</time>
      </trkpt>
      <trkpt lat="41.14983" lon="-8.57878">
        <ele>16.817</ele>
        <time>2019-10-19T00:56:20Z</time>
      </trkpt>
      <trkpt lat="41.15013" lon="-8.57882">
        <ele>22.318</ele>
        <time>2019-10-19T00:56:40Z</time>
      </trkpt>
      <trkpt lat="41.15056" lon="-8.57893">
        <ele>30.108</ele>
        <time>2019-10-19T00:57:00Z</time>
      </trkpt>
      <trkpt lat="41.15075" lon="-8.57899">
        <ele>31.327</ele>
        <time>2019-10-19T00:57:20Z</time>
      </trkpt>
      <trkpt lat="41.15094" lon="-8.5791">
        <ele>35.045</ele>
        <time>2019-10-19T00:57:40Z</time>
      </trkpt>
      <trkpt lat="41.1512" lon="-8.57927">
        <ele>39.837</ele>
        <time>2019-10-19T00:58:00Z</time>
      </trkpt>
      <trkpt lat="41.15146" lon="-8.57951">
        <ele>41.197</ele>
        <time>2019-10-19T00:58:20Z</time>
      </trkpt>
      <trkpt lat="41.15208" lon="-8.58017">
        <ele>48.799</ele>
        <time>2019-10-19T00:58:40Z</time>
      </trkpt>
      <trkpt lat="41.15234" lon="-8.58052">
        <ele>50.99</ele>
        <time>2019-10-19T00:59:00Z</time>
      </trkpt>
      <trkpt lat="41.15247" lon="-8.58067">
        <ele>50.432</ele>
        <time>2019-10-19T00:59:20Z</time>
      </trkpt>
      <trkpt lat="41.15307" lon="-8.58137">
        <ele>57.122</ele>
        <time>2019-10-19T00:59:40Z</time>
      </trkpt>
      <trkpt lat="41.15331" lon="-8.58163">
        <ele>58.056</ele>
        <time>2019-10-19T01:00:00Z</time>
      </trkpt>
      <trkpt lat="41.1538" lon="-8.58206">
        <ele>55.659</ele>
        <time>2019-10-19T01:00:20Z</time>
      </trkpt>
      <trkpt lat="41.15421" lon="-8.58238">
        <ele>57.314</ele>
        <time>2019-10-19T01:00:40Z</time>
      </trkpt>
      <trkpt lat="41.15451" lon="-8.58255">
        <ele>60.108</ele>
        <time>2019-10-19T01:01:00Z</time>
      </trkpt>
      <trkpt lat="41.15498" lon="-8.58277">
        <ele>68.699</ele>
        <time>2019-10-19T01:01:20Z</time>
      </trkpt>
      <trkpt lat="41.15539" lon="-8.5829">
        <ele>70.047</ele>
        <time>2019-10-19T01:01:40Z</time>
      </trkpt>
      <trkpt lat="41.15577" lon="-8.58298">
        <ele>73.169</ele>
        <time>2019-10-19T01:02:00Z</time>
      </trkpt>
      <trkpt lat="41.1562" lon="-8.58303">
        <ele>75.919</ele>
        <time>2019-10-19T01:02:20Z</time>
      </trkpt>
      <trkpt lat="41.15676" lon="-8.58298">
        <ele>74.041</ele>
        <time>2019-10-19T01:02:40Z</time>
      </trkpt>
      <trkpt lat="41.15708" lon="-8.58296">
        <ele>75.142</ele>
        <time>2019-10-19T01:03:00Z</time>
      </trkpt>
      <trkpt lat="41.15794" lon="-8.5827">
        <ele>80.364</ele>
        <time>2019-10-19T01:03:20Z</time>
      </trkpt>
      <trkpt lat="41.15899" lon="-8.58228">
        <ele>78.634</ele>
        <time>2019-10-19T01:03:40Z</time>
      </trkpt>
      <trkpt lat="41.16187" lon="-8.58116">
        <ele>85.164</ele>
        <time>2019-10-19T01:04:00Z</time>
      </trkpt>
      <trkpt lat="41.16221" lon="-8.5811">
        <ele>87.106</ele>
        <time>2019-10-19T01:04:20Z</time>
      </trkpt>
      <trkpt lat="41.16262" lon="-8.58105">
        <ele>91.116</ele>
        <time>2019-10-19T01:04:40Z</time>
      </trkpt>
      <trkpt lat="41.16303" lon="-8.58114">
        <ele>91.908</ele>
        <time>2019-10-19T01:05:00Z</time>
      </trkpt>
      <trkpt lat="41.16318" lon="-8.5812">
        <ele>91.71</ele>
        <time>2019-10-19T01:05:20Z</time>
      </trkpt>
      <trkpt lat="41.16363" lon="-8.58142">
        <ele>96.398</ele>
        <time>2019-10-19T01:05:40Z</time>
      </trkpt>
      <trkpt lat="41.16532" lon="-8.58234">
        <ele>109.71</ele>
        <time>2019-10-19T01:06:00Z</time>
      </trkpt>
      <trkpt lat="41.16545" lon="-8.58243">
        <ele>111.69</ele>
        <time>2019-10-19T01:06:20Z</time>
      </trkpt>
      <trkpt lat="41.16562" lon="-8.58255">
        <ele>114.952</ele>
        <time>2019-10-19T01:06:40Z</time>
      </trkpt>
      <trkpt lat="41.16575" lon="-8.58266">
        <ele>116.753</ele>
        <time>2019-10-19T01:07:00Z</time>
      </trkpt>
      <trkpt lat="41.16603" lon="-8.58298">
        <ele>117.555</ele>
        <time>2019-10-19T01:07:20Z</time>
      </trkpt>
      <trkpt lat="41.1662" lon="-8.58322">
        <ele>118.035</ele>
        <time>2019-10-19T01:07:40Z</time>
      </trkpt>
      <trkpt lat="41.16644" lon="-8.58371">
        <ele>119.425</ele>
        <time>2019-10-19T01:08:00Z</time>
      </trkpt>
      <trkpt lat="41.16652" lon="-8.58395">
        <ele>120.126</ele>
        <time>2019-10-19T01:08:20Z</time>
      </trkpt>
      <trkpt lat="41.16661" lon="-8.58423">
        <ele>122.208</ele>
        <time>2019-10-19T01:08:40Z</time>
      </trkpt>
      <trkpt lat="41.16665" lon="-8.58442">
        <ele>125.408</ele>
        <time>2019-10-19T01:09:00Z</time>
      </trkpt>
      <trkpt lat="41.16667" lon="-8.58464">
        <ele>130.346</ele>
        <time>2019-10-19T01:09:20Z</time>
      </trkpt>
      <trkpt lat="41.16669" lon="-8.58522">
        <ele>142.544</ele>
        <time>2019-10-19T01:09:40Z</time>
      </trkpt>
      <trkpt lat="41.16672" lon="-8.58541">
        <ele>144.986</ele>
        <time>2019-10-19T01:10:00Z</time>
      </trkpt>
      <trkpt lat="41.16676" lon="-8.58586">
        <ele>148.356</ele>
        <time>2019-10-19T01:10:20Z</time>
      </trkpt>
      <trkpt lat="41.16682" lon="-8.58625">
        <ele>153.768</ele>
        <time>2019-10-19T01:10:40Z</time>
      </trkpt>
      <trkpt lat="41.16697" lon="-8.58667">
        <ele>153.499</ele>
        <time>2019-10-19T01:11:00Z</time>
      </trkpt>
      <trkpt lat="41.16727" lon="-8.58728">
        <ele>155.591</ele>
        <time>2019-10-19T01:11:20Z</time>
      </trkpt>
      <trkpt lat="41.16757" lon="-8.58779">
        <ele>152.421</ele>
        <time>2019-10-19T01:11:40Z</time>
      </trkpt>
      <trkpt lat="41.16796" lon="-8.5885">
        <ele>150.142</ele>
        <time>2019-10-19T01:12:00Z</time>
      </trkpt>
      <trkpt lat="41.1686" lon="-8.58961">
        <ele>149.622</ele>
        <time>2019-10-19T01:12:20Z</time>
      </trkpt>
      <trkpt lat="41.1691" lon="-8.59045">
        <ele>148.514</ele>
        <time>2019-10-19T01:12:40Z</time>
      </trkpt>
      <trkpt lat="41.16959" lon="-8.59122">
        <ele>144.808</ele>
        <time>2019-10-19T01:13:00Z</time>
      </trkpt>
      <trkpt lat="41.17111" lon="-8.59354">
        <ele>134.018</ele>
        <time>2019-10-19T01:13:20Z</time>
      </trkpt>
      <trkpt lat="41.17135" lon="-8.59388">
        <ele>132.196</ele>
        <time>2019-10-19T01:13:40Z</time>
      </trkpt>
      <trkpt lat="41.17167" lon="-8.59453">
        <ele>126.238</ele>
        <time>2019-10-19T01:14:00Z</time>
      </trkpt>
      <trkpt lat="41.17178" lon="-8.59483">
        <ele>125.568</ele>
        <time>2019-10-19T01:14:20Z</time>
      </trkpt>
      <trkpt lat="41.17189" lon="-8.59532">
        <ele>125.83</ele>
        <time>2019-10-19T01:14:40Z</time>
      </trkpt>
      <trkpt lat="41.17191" lon="-8.59582">
        <ele>124.211</ele>
        <time>2019-10-19T01:15:00Z</time>
      </trkpt>
      <trkpt lat="41.17187" lon="-8.59648">
        <ele>124.373</ele>
        <time>2019-10-19T01:15:20Z</time>
      </trkpt>
      <trkpt lat="41.17178" lon="-8.5971">
        <ele>127.143</ele>
        <time>2019-10-19T01:15:40Z</time>
      </trkpt>
      <trkpt lat="41.17165" lon="-8.59766">
        <ele>129.159</ele>
        <time>2019-10-19T01:16:00Z</time>
      </trkpt>
      <trkpt lat="41.1715" lon="-8.59848">
        <ele>132.603</ele>
        <time>2019-10-19T01:16:20Z</time>
      </trkpt>
      <trkpt lat="41.17139" lon="-8.59901">
        <ele>128.523</ele>
        <time>2019-10-19T01:16:40Z</time>
      </trkpt>
      <trkpt lat="41.17129" lon="-8.59966">
        <ele>127.508</ele>
        <time>2019-10-19T01:17:00Z</time>
      </trkpt>
      <trkpt lat="41.17127" lon="-8.59991">
        <ele>127.139</ele>
        <time>2019-10-19T01:17:20Z</time>
      </trkpt>
      <trkpt lat="41.17124" lon="-8.60028">
        <ele>127.557</ele>
        <time>2019-10-19T01:17:40Z</time>
      </trkpt>
      <trkpt lat="41.17124" lon="-8.60051">
        <ele>128.869</ele>
        <time>2019-10-19T01:18:00Z</time>
      </trkpt>
      <trkpt lat="41.17127" lon="-8.60084">
        <ele>129.039</ele>
        <time>2019-10-19T01:18:20Z</time>
      </trkpt>
      <trkpt lat="41.17133" lon="-8.60167">
        <ele>119.671</ele>
        <time>2019-10-19T01:18:40Z</time>
      </trkpt>
      <trkpt lat="41.17163" lon="-8.60423">
        <ele>118.442</ele>
        <time>2019-10-19T01:19:00Z</time>
      </trkpt>
      <trkpt lat="41.17176" lon="-8.605">
        <ele>120.374</ele>
        <time>2019-10-19T01:19:20Z</time>
      </trkpt>
      <trkpt lat="41.17193" lon="-8.6056">
        <ele>116.944</ele>
        <time>2019-10-19T01:19:40Z</time>
      </trkpt>
      <trkpt lat="41.17217" lon="-8.60618">
        <ele>117.446</ele>
        <time>2019-10-19T01:20:00Z</time>
      </trkpt>
      <trkpt lat="41.17251" lon="-8.60678">
        <ele>118.488</ele>
        <time>2019-10-19T01:20:20Z</time>
      </trkpt>
      <trkpt lat="41.173" lon="-8.60745">
        <ele>121.416</ele>
        <time>2019-10-19T01:20:40Z</time>
      </trkpt>
      <trkpt lat="41.17333" lon="-8.6079">
        <ele>123.108</ele>
        <time>2019-10-19T01:21:00Z</time>
      </trkpt>
      <trkpt lat="41.17354" lon="-8.6082">
        <ele>119.698</ele>
        <time>2019-10-19T01:21:20Z</time>
      </trkpt>
      <trkpt lat="41.17388" lon="-8.60893">
        <ele>118.966</ele>
        <time>2019-10-19T01:21:40Z</time>
      </trkpt>
      <trkpt lat="41.1741" lon="-8.60951">
        <ele>120.568</ele>
        <time>2019-10-19T01:22:00Z</time>
      </trkpt>
      <trkpt lat="41.1742" lon="-8.60993">
        <ele>124.068</ele>
        <time>2019-10-19T01:22:20Z</time>
      </trkpt>
      <trkpt lat="41.17429" lon="-8.61032">
        <ele>122.93</ele>
        <time>2019-10-19T01:22:40Z</time>
      </trkpt>
      <trkpt lat="41.1744" lon="-8.61079">
        <ele>120.321</ele>
        <time>2019-10-19T01:23:00Z</time>
      </trkpt>
      <trkpt lat="41.17444" lon="-8.61126">
        <ele>119.513</ele>
        <time>2019-10-19T01:23:20Z</time>
      </trkpt>
      <trkpt lat="41.17453" lon="-8.61223">
        <ele>118.443</ele>
        <time>2019-10-19T01:23:40Z</time>
      </trkpt>
      <trkpt lat="41.17455" lon="-8.61275">
        <ele>119.185</ele>
        <time>2019-10-19T01:24:00Z</time>
      </trkpt>
      <trkpt lat="41.17455" lon="-8.61317">
        <ele>117.889</ele>
        <time>2019-10-19T01:24:20Z</time>
      </trkpt>
      <trkpt lat="41.17453" lon="-8.6136">
        <ele>113.417</ele>
        <time>2019-10-19T01:24:40Z</time>
      </trkpt>
      <trkpt lat="41.17442" lon="-8.61442">
        <ele>106.108</ele>
        <time>2019-10-19T01:25:00Z</time>
      </trkpt>
      <trkpt lat="41.1742" lon="-8.61573">
        <ele>101.792</ele>
        <time>2019-10-19T01:25:20Z</time>
      </trkpt>
      <trkpt lat="41.17401" lon="-8.61706">
        <ele>99.23</ele>
        <time>2019-10-19T01:25:40Z</time>
      </trkpt>
      <trkpt lat="41.17386" lon="-8.61869">
        <ele>100.622</ele>
        <time>2019-10-19T01:26:00Z</time>
      </trkpt>
      <trkpt lat="41.17378" lon="-8.61948">
        <ele>106.192</ele>
        <time>2019-10-19T01:26:20Z</time>
      </trkpt>
      <trkpt lat="41.17373" lon="-8.61991">
        <ele>106.274</ele>
        <time>2019-10-19T01:26:40Z</time>
      </trkpt>
      <trkpt lat="41.17369" lon="-8.62034">
        <ele>103.875</ele>
        <time>2019-10-19T01:27:00Z</time>
      </trkpt>
      <trkpt lat="41.17364" lon="-8.6206">
        <ele>103.077</ele>
        <time>2019-10-19T01:27:20Z</time>
      </trkpt>
      <trkpt lat="41.17364" lon="-8.62083">
        <ele>102.367</ele>
        <time>2019-10-19T01:27:40Z</time>
      </trkpt>
      <trkpt lat="41.1736" lon="-8.6212">
        <ele>101.574</ele>
        <time>2019-10-19T01:28:00Z</time>
      </trkpt>
      <trkpt lat="41.17289" lon="-8.62811">
        <ele>94.856</ele>
        <time>2019-10-19T01:28:20Z</time>
      </trkpt>
      <trkpt lat="41.17189" lon="-8.63271">
        <ele>81.521</ele>
        <time>2019-10-19T01:28:40Z</time>
      </trkpt>
      <trkpt lat="41.17083" lon="-8.63689">
        <ele>84.608</ele>
        <time>2019-10-19T01:29:00Z</time>
      </trkpt>
      <trkpt lat="41.16934" lon="-8.63937">
        <ele>72.571</ele>
        <time>2019-10-19T01:29:20Z</time>
      </trkpt>
      <trkpt lat="41.167" lon="-8.64226">
        <ele>68.789</ele>
        <time>2019-10-19T01:29:40Z</time>
      </trkpt>
      <trkpt lat="41.16695" lon="-8.64304">
        <ele>67.031</ele>
        <time>2019-10-19T01:30:00Z</time>
      </trkpt>
      <trkpt lat="41.16724" lon="-8.64351">
        <ele>65.971</ele>
        <time>2019-10-19T01:30:20Z</time>
      </trkpt>
      <trkpt lat="41.16756" lon="-8.64359">
        <ele>68.633</ele>
        <time>2019-10-19T01:30:40Z</time>
      </trkpt>
      <trkpt lat="41.1677" lon="-8.6432">
        <ele>71.644</ele>
        <time>2019-10-19T01:31:00Z</time>
      </trkpt>
      <trkpt lat="41.16758" lon="-8.64264">
        <ele>71.196</ele>
        <time>2019-10-19T01:31:20Z</time>
      </trkpt>
      <trkpt lat="41.1669" lon="-8.64184">
        <ele>70.496</ele>
        <time>2019-10-19T01:31:40Z</time>
      </trkpt>
      <trkpt lat="41.16593" lon="-8.64069">
        <ele>73.312</ele>
        <time>2019-10-19T01:32:00Z</time>
      </trkpt>
      <trkpt lat="41.16516" lon="-8.63979">
        <ele>74.532</ele>
        <time>2019-10-19T01:32:20Z</time>
      </trkpt>
      <trkpt lat="41.16495" lon="-8.63946">
        <ele>75.905</ele>
        <time>2019-10-19T01:32:40Z</time>
      </trkpt>
      <trkpt lat="41.16481" lon="-8.63925">
        <ele>76.208</ele>
        <time>2019-10-19T01:33:00Z</time>
      </trkpt>
      <trkpt lat="41.16443" lon="-8.64009">
        <ele>73.695</ele>
        <time>2019-10-19T01:33:20Z</time>
      </trkpt>
    </trkseg>
  </trk>
</gpx>